<?xml version="1.0" encoding="UTF-8" standalone="no" ?>
<gpx xmlns="http://www.topografix.com/GPX/1/1" xmlns:xsi="http://www.w3.org/2001/XMLSchema-instance" xsi:schemaLocation="http://www.topografix.com/GPX/1/1 http://www.topografix.com/GPX/1/1/gpx.xsd" version="1.1" creator="VisuGPX - https://www.visugpx.com">
  <metadata>
    <name>Renancourt</name>
  </metadata>
  <trk>
    <name><![CDATA[Renancourt_1]]></name>
    <trkseg>
      <trkpt lat="49.89677" lon="2.24889">
        <ele>53.7</ele>
        <time>2023-01-28T12:55:20Z</time>
      </trkpt>
      <trkpt lat="49.89687" lon="2.24874">
        <ele>54</ele>
        <time>2023-01-28T12:55:21Z</time>
      </trkpt>
      <trkpt lat="49.89693" lon="2.24867">
        <ele>54.1</ele>
        <time>2023-01-28T12:55:22Z</time>
      </trkpt>
      <trkpt lat="49.89707" lon="2.24845">
        <ele>54.2</ele>
        <time>2023-01-28T12:55:23Z</time>
      </trkpt>
      <trkpt lat="49.89708" lon="2.24842">
        <ele>54.2</ele>
        <time>2023-01-28T12:55:24Z</time>
      </trkpt>
      <trkpt lat="49.89708" lon="2.24842">
        <ele>54.2</ele>
        <time>2023-01-28T12:55:25Z</time>
      </trkpt>
      <trkpt lat="49.89707" lon="2.24842">
        <ele>54.2</ele>
        <time>2023-01-28T12:55:26Z</time>
      </trkpt>
      <trkpt lat="49.89707" lon="2.24842">
        <ele>54.2</ele>
        <time>2023-01-28T12:55:27Z</time>
      </trkpt>
      <trkpt lat="49.89707" lon="2.24842">
        <ele>54.2</ele>
        <time>2023-01-28T12:55:28Z</time>
      </trkpt>
      <trkpt lat="49.89707" lon="2.24842">
        <ele>54.2</ele>
        <time>2023-01-28T12:55:29Z</time>
      </trkpt>
      <trkpt lat="49.89707" lon="2.24842">
        <ele>54.2</ele>
        <time>2023-01-28T12:55:30Z</time>
      </trkpt>
      <trkpt lat="49.89707" lon="2.24842">
        <ele>54.2</ele>
        <time>2023-01-28T12:55:31Z</time>
      </trkpt>
      <trkpt lat="49.89707" lon="2.24842">
        <ele>54.2</ele>
        <time>2023-01-28T12:55:32Z</time>
      </trkpt>
      <trkpt lat="49.89707" lon="2.24842">
        <ele>54.2</ele>
        <time>2023-01-28T12:55:33Z</time>
      </trkpt>
      <trkpt lat="49.89707" lon="2.24842">
        <ele>54.2</ele>
        <time>2023-01-28T12:55:34Z</time>
      </trkpt>
      <trkpt lat="49.89707" lon="2.24842">
        <ele>54.2</ele>
        <time>2023-01-28T12:55:35Z</time>
      </trkpt>
      <trkpt lat="49.89707" lon="2.24842">
        <ele>54.2</ele>
        <time>2023-01-28T12:55:36Z</time>
      </trkpt>
      <trkpt lat="49.89707" lon="2.24842">
        <ele>54.2</ele>
        <time>2023-01-28T12:55:37Z</time>
      </trkpt>
      <trkpt lat="49.89707" lon="2.24842">
        <ele>54.2</ele>
        <time>2023-01-28T12:55:38Z</time>
      </trkpt>
      <trkpt lat="49.89707" lon="2.24842">
        <ele>54.2</ele>
        <time>2023-01-28T12:55:39Z</time>
      </trkpt>
      <trkpt lat="49.89707" lon="2.24842">
        <ele>54.2</ele>
        <time>2023-01-28T12:55:40Z</time>
      </trkpt>
      <trkpt lat="49.89707" lon="2.24842">
        <ele>54.2</ele>
        <time>2023-01-28T12:55:41Z</time>
      </trkpt>
      <trkpt lat="49.89707" lon="2.24842">
        <ele>54.2</ele>
        <time>2023-01-28T12:55:42Z</time>
      </trkpt>
      <trkpt lat="49.89707" lon="2.24842">
        <ele>54.2</ele>
        <time>2023-01-28T12:55:43Z</time>
      </trkpt>
      <trkpt lat="49.89707" lon="2.24842">
        <ele>54.2</ele>
        <time>2023-01-28T12:55:44Z</time>
      </trkpt>
      <trkpt lat="49.89707" lon="2.24842">
        <ele>54.2</ele>
        <time>2023-01-28T12:55:45Z</time>
      </trkpt>
      <trkpt lat="49.89707" lon="2.24842">
        <ele>54.2</ele>
        <time>2023-01-28T12:55:46Z</time>
      </trkpt>
      <trkpt lat="49.89707" lon="2.24842">
        <ele>54.2</ele>
        <time>2023-01-28T12:55:47Z</time>
      </trkpt>
      <trkpt lat="49.89707" lon="2.24842">
        <ele>54.2</ele>
        <time>2023-01-28T12:55:48Z</time>
      </trkpt>
      <trkpt lat="49.89707" lon="2.24842">
        <ele>54.2</ele>
        <time>2023-01-28T12:55:49Z</time>
      </trkpt>
      <trkpt lat="49.89707" lon="2.24842">
        <ele>54.2</ele>
        <time>2023-01-28T12:55:50Z</time>
      </trkpt>
      <trkpt lat="49.89707" lon="2.24842">
        <ele>54.2</ele>
        <time>2023-01-28T12:55:51Z</time>
      </trkpt>
      <trkpt lat="49.89707" lon="2.24842">
        <ele>54.2</ele>
        <time>2023-01-28T12:55:52Z</time>
      </trkpt>
      <trkpt lat="49.89707" lon="2.24842">
        <ele>54.2</ele>
        <time>2023-01-28T12:55:53Z</time>
      </trkpt>
      <trkpt lat="49.89707" lon="2.24842">
        <ele>54.2</ele>
        <time>2023-01-28T12:55:54Z</time>
      </trkpt>
      <trkpt lat="49.89707" lon="2.24842">
        <ele>54.2</ele>
        <time>2023-01-28T12:55:55Z</time>
      </trkpt>
      <trkpt lat="49.89707" lon="2.24842">
        <ele>54.2</ele>
        <time>2023-01-28T12:55:56Z</time>
      </trkpt>
      <trkpt lat="49.89707" lon="2.24842">
        <ele>54.2</ele>
        <time>2023-01-28T12:55:57Z</time>
      </trkpt>
      <trkpt lat="49.89707" lon="2.24842">
        <ele>54.2</ele>
        <time>2023-01-28T12:55:58Z</time>
      </trkpt>
      <trkpt lat="49.89707" lon="2.24842">
        <ele>54.2</ele>
        <time>2023-01-28T12:55:59Z</time>
      </trkpt>
      <trkpt lat="49.89707" lon="2.24842">
        <ele>54.2</ele>
        <time>2023-01-28T12:56:00Z</time>
      </trkpt>
      <trkpt lat="49.89707" lon="2.24842">
        <ele>54.2</ele>
        <time>2023-01-28T12:56:01Z</time>
      </trkpt>
      <trkpt lat="49.89707" lon="2.24842">
        <ele>54.2</ele>
        <time>2023-01-28T12:56:02Z</time>
      </trkpt>
      <trkpt lat="49.89707" lon="2.24842">
        <ele>54.2</ele>
        <time>2023-01-28T12:56:03Z</time>
      </trkpt>
      <trkpt lat="49.89707" lon="2.24842">
        <ele>54.2</ele>
        <time>2023-01-28T12:56:04Z</time>
      </trkpt>
      <trkpt lat="49.89707" lon="2.24842">
        <ele>54.2</ele>
        <time>2023-01-28T12:56:05Z</time>
      </trkpt>
      <trkpt lat="49.89707" lon="2.24842">
        <ele>54.2</ele>
        <time>2023-01-28T12:56:06Z</time>
      </trkpt>
      <trkpt lat="49.89707" lon="2.24842">
        <ele>54.2</ele>
        <time>2023-01-28T12:56:07Z</time>
      </trkpt>
      <trkpt lat="49.89707" lon="2.24842">
        <ele>54.2</ele>
        <time>2023-01-28T12:56:08Z</time>
      </trkpt>
      <trkpt lat="49.89707" lon="2.24842">
        <ele>54.2</ele>
        <time>2023-01-28T12:56:09Z</time>
      </trkpt>
      <trkpt lat="49.89707" lon="2.24842">
        <ele>54.2</ele>
        <time>2023-01-28T12:56:10Z</time>
      </trkpt>
      <trkpt lat="49.89707" lon="2.24842">
        <ele>54.2</ele>
        <time>2023-01-28T12:56:11Z</time>
      </trkpt>
      <trkpt lat="49.89707" lon="2.24842">
        <ele>54.2</ele>
        <time>2023-01-28T12:56:12Z</time>
      </trkpt>
      <trkpt lat="49.89707" lon="2.24842">
        <ele>54.2</ele>
        <time>2023-01-28T12:56:13Z</time>
      </trkpt>
      <trkpt lat="49.89707" lon="2.24842">
        <ele>54.2</ele>
        <time>2023-01-28T12:56:14Z</time>
      </trkpt>
      <trkpt lat="49.89707" lon="2.24842">
        <ele>54.2</ele>
        <time>2023-01-28T12:56:15Z</time>
      </trkpt>
      <trkpt lat="49.89707" lon="2.24842">
        <ele>54.2</ele>
        <time>2023-01-28T12:56:16Z</time>
      </trkpt>
      <trkpt lat="49.89707" lon="2.24842">
        <ele>54.2</ele>
        <time>2023-01-28T12:56:17Z</time>
      </trkpt>
      <trkpt lat="49.89707" lon="2.24842">
        <ele>54.2</ele>
        <time>2023-01-28T12:56:18Z</time>
      </trkpt>
      <trkpt lat="49.89707" lon="2.24842">
        <ele>54.2</ele>
        <time>2023-01-28T12:56:19Z</time>
      </trkpt>
      <trkpt lat="49.89707" lon="2.24842">
        <ele>54.2</ele>
        <time>2023-01-28T12:56:20Z</time>
      </trkpt>
      <trkpt lat="49.89707" lon="2.24842">
        <ele>54.2</ele>
        <time>2023-01-28T12:56:21Z</time>
      </trkpt>
      <trkpt lat="49.89707" lon="2.24842">
        <ele>54.2</ele>
        <time>2023-01-28T12:56:22Z</time>
      </trkpt>
      <trkpt lat="49.89707" lon="2.24842">
        <ele>54.2</ele>
        <time>2023-01-28T12:56:23Z</time>
      </trkpt>
      <trkpt lat="49.89707" lon="2.24842">
        <ele>54.2</ele>
        <time>2023-01-28T12:56:24Z</time>
      </trkpt>
      <trkpt lat="49.89707" lon="2.24842">
        <ele>54.2</ele>
        <time>2023-01-28T12:56:25Z</time>
      </trkpt>
      <trkpt lat="49.89707" lon="2.24842">
        <ele>54.2</ele>
        <time>2023-01-28T12:56:26Z</time>
      </trkpt>
      <trkpt lat="49.89707" lon="2.24842">
        <ele>54.2</ele>
        <time>2023-01-28T12:56:27Z</time>
      </trkpt>
      <trkpt lat="49.89707" lon="2.24842">
        <ele>54.2</ele>
        <time>2023-01-28T12:56:28Z</time>
      </trkpt>
      <trkpt lat="49.89707" lon="2.24842">
        <ele>54.2</ele>
        <time>2023-01-28T12:56:29Z</time>
      </trkpt>
      <trkpt lat="49.89707" lon="2.24842">
        <ele>54.2</ele>
        <time>2023-01-28T12:56:30Z</time>
      </trkpt>
      <trkpt lat="49.89707" lon="2.24842">
        <ele>54.2</ele>
        <time>2023-01-28T12:56:31Z</time>
      </trkpt>
      <trkpt lat="49.89707" lon="2.24842">
        <ele>54.2</ele>
        <time>2023-01-28T12:56:32Z</time>
      </trkpt>
      <trkpt lat="49.89707" lon="2.24842">
        <ele>54.2</ele>
        <time>2023-01-28T12:56:33Z</time>
      </trkpt>
      <trkpt lat="49.89707" lon="2.24842">
        <ele>54.2</ele>
        <time>2023-01-28T12:56:34Z</time>
      </trkpt>
      <trkpt lat="49.89707" lon="2.24842">
        <ele>54.2</ele>
        <time>2023-01-28T12:56:35Z</time>
      </trkpt>
      <trkpt lat="49.89707" lon="2.24842">
        <ele>54.2</ele>
        <time>2023-01-28T12:56:36Z</time>
      </trkpt>
      <trkpt lat="49.89707" lon="2.24842">
        <ele>54.2</ele>
        <time>2023-01-28T12:56:37Z</time>
      </trkpt>
      <trkpt lat="49.89707" lon="2.24842">
        <ele>54.2</ele>
        <time>2023-01-28T12:56:38Z</time>
      </trkpt>
      <trkpt lat="49.89707" lon="2.24842">
        <ele>54.2</ele>
        <time>2023-01-28T12:56:39Z</time>
      </trkpt>
      <trkpt lat="49.89707" lon="2.24842">
        <ele>54.2</ele>
        <time>2023-01-28T12:56:40Z</time>
      </trkpt>
      <trkpt lat="49.89707" lon="2.24842">
        <ele>54.2</ele>
        <time>2023-01-28T12:56:41Z</time>
      </trkpt>
      <trkpt lat="49.89707" lon="2.24842">
        <ele>54.2</ele>
        <time>2023-01-28T12:56:42Z</time>
      </trkpt>
      <trkpt lat="49.89707" lon="2.24842">
        <ele>54.2</ele>
        <time>2023-01-28T12:56:43Z</time>
      </trkpt>
      <trkpt lat="49.89707" lon="2.24842">
        <ele>54.2</ele>
        <time>2023-01-28T12:56:44Z</time>
      </trkpt>
      <trkpt lat="49.89707" lon="2.24842">
        <ele>54.2</ele>
        <time>2023-01-28T12:56:45Z</time>
      </trkpt>
      <trkpt lat="49.89707" lon="2.24842">
        <ele>54.2</ele>
        <time>2023-01-28T12:56:46Z</time>
      </trkpt>
      <trkpt lat="49.89707" lon="2.24842">
        <ele>54.2</ele>
        <time>2023-01-28T12:56:47Z</time>
      </trkpt>
      <trkpt lat="49.89707" lon="2.24842">
        <ele>54.2</ele>
        <time>2023-01-28T12:56:48Z</time>
      </trkpt>
      <trkpt lat="49.89707" lon="2.24842">
        <ele>54.2</ele>
        <time>2023-01-28T12:56:49Z</time>
      </trkpt>
      <trkpt lat="49.89707" lon="2.24842">
        <ele>54.2</ele>
        <time>2023-01-28T12:56:50Z</time>
      </trkpt>
      <trkpt lat="49.89707" lon="2.24842">
        <ele>54.2</ele>
        <time>2023-01-28T12:56:51Z</time>
      </trkpt>
      <trkpt lat="49.89707" lon="2.24842">
        <ele>54.2</ele>
        <time>2023-01-28T12:56:52Z</time>
      </trkpt>
      <trkpt lat="49.89707" lon="2.24842">
        <ele>54.2</ele>
        <time>2023-01-28T12:56:53Z</time>
      </trkpt>
      <trkpt lat="49.89707" lon="2.24842">
        <ele>54.2</ele>
        <time>2023-01-28T12:56:54Z</time>
      </trkpt>
      <trkpt lat="49.89707" lon="2.24842">
        <ele>54.2</ele>
        <time>2023-01-28T12:56:55Z</time>
      </trkpt>
      <trkpt lat="49.89707" lon="2.24842">
        <ele>54.2</ele>
        <time>2023-01-28T12:56:56Z</time>
      </trkpt>
      <trkpt lat="49.89707" lon="2.24842">
        <ele>54.2</ele>
        <time>2023-01-28T12:56:57Z</time>
      </trkpt>
      <trkpt lat="49.89707" lon="2.24842">
        <ele>54.2</ele>
        <time>2023-01-28T12:56:58Z</time>
      </trkpt>
      <trkpt lat="49.89707" lon="2.24842">
        <ele>54.2</ele>
        <time>2023-01-28T12:56:59Z</time>
      </trkpt>
      <trkpt lat="49.89707" lon="2.24842">
        <ele>54.2</ele>
        <time>2023-01-28T12:57:00Z</time>
      </trkpt>
      <trkpt lat="49.89707" lon="2.24842">
        <ele>54.2</ele>
        <time>2023-01-28T12:57:01Z</time>
      </trkpt>
      <trkpt lat="49.89707" lon="2.24842">
        <ele>54.2</ele>
        <time>2023-01-28T12:57:02Z</time>
      </trkpt>
      <trkpt lat="49.89707" lon="2.24842">
        <ele>54.2</ele>
        <time>2023-01-28T12:57:03Z</time>
      </trkpt>
      <trkpt lat="49.89707" lon="2.24842">
        <ele>54.2</ele>
        <time>2023-01-28T12:57:04Z</time>
      </trkpt>
      <trkpt lat="49.89707" lon="2.24842">
        <ele>54.2</ele>
        <time>2023-01-28T12:57:05Z</time>
      </trkpt>
      <trkpt lat="49.89707" lon="2.24842">
        <ele>54.2</ele>
        <time>2023-01-28T12:57:06Z</time>
      </trkpt>
      <trkpt lat="49.89707" lon="2.24842">
        <ele>54.2</ele>
        <time>2023-01-28T12:57:07Z</time>
      </trkpt>
      <trkpt lat="49.89707" lon="2.24842">
        <ele>54.2</ele>
        <time>2023-01-28T12:57:08Z</time>
      </trkpt>
      <trkpt lat="49.89707" lon="2.24842">
        <ele>54.2</ele>
        <time>2023-01-28T12:57:09Z</time>
      </trkpt>
      <trkpt lat="49.89707" lon="2.24842">
        <ele>54.2</ele>
        <time>2023-01-28T12:57:10Z</time>
      </trkpt>
      <trkpt lat="49.89707" lon="2.24842">
        <ele>54.2</ele>
        <time>2023-01-28T12:57:11Z</time>
      </trkpt>
      <trkpt lat="49.89707" lon="2.24842">
        <ele>54.2</ele>
        <time>2023-01-28T12:57:12Z</time>
      </trkpt>
      <trkpt lat="49.89707" lon="2.24842">
        <ele>54.2</ele>
        <time>2023-01-28T12:57:13Z</time>
      </trkpt>
      <trkpt lat="49.89707" lon="2.24842">
        <ele>54.2</ele>
        <time>2023-01-28T12:57:14Z</time>
      </trkpt>
      <trkpt lat="49.89707" lon="2.24842">
        <ele>54.2</ele>
        <time>2023-01-28T12:57:15Z</time>
      </trkpt>
      <trkpt lat="49.89707" lon="2.24842">
        <ele>54.2</ele>
        <time>2023-01-28T12:57:16Z</time>
      </trkpt>
      <trkpt lat="49.89707" lon="2.24842">
        <ele>54.2</ele>
        <time>2023-01-28T12:57:17Z</time>
      </trkpt>
      <trkpt lat="49.89707" lon="2.24842">
        <ele>54.2</ele>
        <time>2023-01-28T12:57:18Z</time>
      </trkpt>
      <trkpt lat="49.89707" lon="2.24842">
        <ele>54.2</ele>
        <time>2023-01-28T12:57:19Z</time>
      </trkpt>
      <trkpt lat="49.89707" lon="2.24842">
        <ele>54.2</ele>
        <time>2023-01-28T12:57:20Z</time>
      </trkpt>
      <trkpt lat="49.89707" lon="2.24842">
        <ele>54.2</ele>
        <time>2023-01-28T12:57:21Z</time>
      </trkpt>
      <trkpt lat="49.89707" lon="2.24842">
        <ele>54.2</ele>
        <time>2023-01-28T12:57:22Z</time>
      </trkpt>
      <trkpt lat="49.89707" lon="2.24842">
        <ele>54.2</ele>
        <time>2023-01-28T12:57:23Z</time>
      </trkpt>
      <trkpt lat="49.89707" lon="2.24842">
        <ele>54.2</ele>
        <time>2023-01-28T12:57:24Z</time>
      </trkpt>
      <trkpt lat="49.89707" lon="2.24842">
        <ele>54.2</ele>
        <time>2023-01-28T12:57:25Z</time>
      </trkpt>
      <trkpt lat="49.89707" lon="2.24842">
        <ele>54.2</ele>
        <time>2023-01-28T12:57:26Z</time>
      </trkpt>
      <trkpt lat="49.89707" lon="2.24842">
        <ele>54.2</ele>
        <time>2023-01-28T12:57:27Z</time>
      </trkpt>
      <trkpt lat="49.89707" lon="2.24842">
        <ele>54.2</ele>
        <time>2023-01-28T12:57:28Z</time>
      </trkpt>
      <trkpt lat="49.89707" lon="2.24842">
        <ele>54.2</ele>
        <time>2023-01-28T12:57:29Z</time>
      </trkpt>
      <trkpt lat="49.89707" lon="2.24842">
        <ele>54.2</ele>
        <time>2023-01-28T12:57:30Z</time>
      </trkpt>
      <trkpt lat="49.89707" lon="2.24842">
        <ele>54.2</ele>
        <time>2023-01-28T12:57:31Z</time>
      </trkpt>
      <trkpt lat="49.89707" lon="2.24842">
        <ele>54.2</ele>
        <time>2023-01-28T12:57:32Z</time>
      </trkpt>
      <trkpt lat="49.89707" lon="2.24842">
        <ele>54.2</ele>
        <time>2023-01-28T12:57:33Z</time>
      </trkpt>
      <trkpt lat="49.89707" lon="2.24842">
        <ele>54.2</ele>
        <time>2023-01-28T12:57:34Z</time>
      </trkpt>
      <trkpt lat="49.89707" lon="2.24842">
        <ele>54.2</ele>
        <time>2023-01-28T12:57:35Z</time>
      </trkpt>
      <trkpt lat="49.89707" lon="2.24842">
        <ele>54.2</ele>
        <time>2023-01-28T12:57:36Z</time>
      </trkpt>
      <trkpt lat="49.89707" lon="2.24842">
        <ele>54.2</ele>
        <time>2023-01-28T12:57:37Z</time>
      </trkpt>
      <trkpt lat="49.89707" lon="2.24842">
        <ele>54.2</ele>
        <time>2023-01-28T12:57:38Z</time>
      </trkpt>
      <trkpt lat="49.89707" lon="2.24842">
        <ele>54.2</ele>
        <time>2023-01-28T12:57:39Z</time>
      </trkpt>
      <trkpt lat="49.89707" lon="2.24842">
        <ele>54.2</ele>
        <time>2023-01-28T12:57:40Z</time>
      </trkpt>
      <trkpt lat="49.89707" lon="2.24842">
        <ele>54.2</ele>
        <time>2023-01-28T12:57:41Z</time>
      </trkpt>
      <trkpt lat="49.89707" lon="2.24842">
        <ele>54.2</ele>
        <time>2023-01-28T12:57:42Z</time>
      </trkpt>
      <trkpt lat="49.89707" lon="2.24842">
        <ele>54.2</ele>
        <time>2023-01-28T12:57:43Z</time>
      </trkpt>
      <trkpt lat="49.89707" lon="2.24842">
        <ele>54.2</ele>
        <time>2023-01-28T12:57:44Z</time>
      </trkpt>
      <trkpt lat="49.89707" lon="2.24842">
        <ele>54.2</ele>
        <time>2023-01-28T12:57:45Z</time>
      </trkpt>
      <trkpt lat="49.89707" lon="2.24842">
        <ele>54.2</ele>
        <time>2023-01-28T12:57:46Z</time>
      </trkpt>
      <trkpt lat="49.89707" lon="2.24842">
        <ele>54.2</ele>
        <time>2023-01-28T12:57:47Z</time>
      </trkpt>
      <trkpt lat="49.89707" lon="2.24842">
        <ele>54.2</ele>
        <time>2023-01-28T12:57:48Z</time>
      </trkpt>
      <trkpt lat="49.89707" lon="2.24842">
        <ele>54.2</ele>
        <time>2023-01-28T12:57:49Z</time>
      </trkpt>
      <trkpt lat="49.89707" lon="2.24842">
        <ele>54.2</ele>
        <time>2023-01-28T12:57:50Z</time>
      </trkpt>
      <trkpt lat="49.89707" lon="2.24842">
        <ele>54.2</ele>
        <time>2023-01-28T12:57:51Z</time>
      </trkpt>
      <trkpt lat="49.89707" lon="2.24842">
        <ele>54.2</ele>
        <time>2023-01-28T12:57:52Z</time>
      </trkpt>
      <trkpt lat="49.89707" lon="2.24842">
        <ele>54.2</ele>
        <time>2023-01-28T12:57:53Z</time>
      </trkpt>
      <trkpt lat="49.89707" lon="2.24842">
        <ele>54.2</ele>
        <time>2023-01-28T12:57:54Z</time>
      </trkpt>
      <trkpt lat="49.89707" lon="2.24842">
        <ele>54.2</ele>
        <time>2023-01-28T12:57:55Z</time>
      </trkpt>
      <trkpt lat="49.89707" lon="2.24842">
        <ele>54.2</ele>
        <time>2023-01-28T12:57:56Z</time>
      </trkpt>
      <trkpt lat="49.89707" lon="2.24842">
        <ele>54.2</ele>
        <time>2023-01-28T12:57:57Z</time>
      </trkpt>
      <trkpt lat="49.89707" lon="2.24842">
        <ele>54.2</ele>
        <time>2023-01-28T12:57:58Z</time>
      </trkpt>
      <trkpt lat="49.89707" lon="2.24842">
        <ele>54.2</ele>
        <time>2023-01-28T12:57:59Z</time>
      </trkpt>
      <trkpt lat="49.89707" lon="2.24842">
        <ele>54.2</ele>
        <time>2023-01-28T12:58:00Z</time>
      </trkpt>
      <trkpt lat="49.89707" lon="2.24842">
        <ele>54.2</ele>
        <time>2023-01-28T12:58:01Z</time>
      </trkpt>
      <trkpt lat="49.89707" lon="2.24842">
        <ele>54.2</ele>
        <time>2023-01-28T12:58:02Z</time>
      </trkpt>
      <trkpt lat="49.89707" lon="2.24842">
        <ele>54.2</ele>
        <time>2023-01-28T12:58:03Z</time>
      </trkpt>
      <trkpt lat="49.89707" lon="2.24842">
        <ele>54.2</ele>
        <time>2023-01-28T12:58:04Z</time>
      </trkpt>
      <trkpt lat="49.89707" lon="2.24842">
        <ele>54.2</ele>
        <time>2023-01-28T12:58:05Z</time>
      </trkpt>
      <trkpt lat="49.89707" lon="2.24842">
        <ele>54.2</ele>
        <time>2023-01-28T12:58:06Z</time>
      </trkpt>
      <trkpt lat="49.89707" lon="2.24842">
        <ele>54.2</ele>
        <time>2023-01-28T12:58:07Z</time>
      </trkpt>
      <trkpt lat="49.89707" lon="2.24842">
        <ele>54.2</ele>
        <time>2023-01-28T12:58:08Z</time>
      </trkpt>
      <trkpt lat="49.89707" lon="2.24842">
        <ele>54.2</ele>
        <time>2023-01-28T12:58:09Z</time>
      </trkpt>
      <trkpt lat="49.89707" lon="2.24842">
        <ele>54.2</ele>
        <time>2023-01-28T12:58:10Z</time>
      </trkpt>
      <trkpt lat="49.89707" lon="2.24842">
        <ele>54.2</ele>
        <time>2023-01-28T12:58:11Z</time>
      </trkpt>
      <trkpt lat="49.89707" lon="2.24842">
        <ele>54.2</ele>
        <time>2023-01-28T12:58:12Z</time>
      </trkpt>
      <trkpt lat="49.89707" lon="2.24842">
        <ele>54.2</ele>
        <time>2023-01-28T12:58:13Z</time>
      </trkpt>
      <trkpt lat="49.89707" lon="2.24842">
        <ele>54.2</ele>
        <time>2023-01-28T12:58:14Z</time>
      </trkpt>
      <trkpt lat="49.89707" lon="2.24842">
        <ele>54.2</ele>
        <time>2023-01-28T12:58:15Z</time>
      </trkpt>
      <trkpt lat="49.89707" lon="2.24842">
        <ele>54.2</ele>
        <time>2023-01-28T12:58:16Z</time>
      </trkpt>
      <trkpt lat="49.89707" lon="2.24842">
        <ele>54.2</ele>
        <time>2023-01-28T12:58:17Z</time>
      </trkpt>
      <trkpt lat="49.89707" lon="2.24842">
        <ele>54.2</ele>
        <time>2023-01-28T12:58:18Z</time>
      </trkpt>
      <trkpt lat="49.89707" lon="2.24842">
        <ele>54.2</ele>
        <time>2023-01-28T12:58:19Z</time>
      </trkpt>
      <trkpt lat="49.89707" lon="2.24842">
        <ele>54.2</ele>
        <time>2023-01-28T12:58:20Z</time>
      </trkpt>
      <trkpt lat="49.89707" lon="2.24842">
        <ele>54.2</ele>
        <time>2023-01-28T12:58:21Z</time>
      </trkpt>
      <trkpt lat="49.89707" lon="2.24842">
        <ele>54.2</ele>
        <time>2023-01-28T12:58:22Z</time>
      </trkpt>
      <trkpt lat="49.89707" lon="2.24842">
        <ele>54.2</ele>
        <time>2023-01-28T12:58:23Z</time>
      </trkpt>
      <trkpt lat="49.89707" lon="2.24842">
        <ele>54.2</ele>
        <time>2023-01-28T12:58:24Z</time>
      </trkpt>
      <trkpt lat="49.89707" lon="2.24842">
        <ele>54.2</ele>
        <time>2023-01-28T12:58:25Z</time>
      </trkpt>
      <trkpt lat="49.89707" lon="2.24842">
        <ele>54.2</ele>
        <time>2023-01-28T12:58:26Z</time>
      </trkpt>
      <trkpt lat="49.89707" lon="2.24842">
        <ele>54.2</ele>
        <time>2023-01-28T12:58:27Z</time>
      </trkpt>
      <trkpt lat="49.89707" lon="2.24842">
        <ele>54.2</ele>
        <time>2023-01-28T12:58:28Z</time>
      </trkpt>
      <trkpt lat="49.89707" lon="2.24842">
        <ele>54.2</ele>
        <time>2023-01-28T12:58:29Z</time>
      </trkpt>
      <trkpt lat="49.89707" lon="2.24842">
        <ele>54.2</ele>
        <time>2023-01-28T12:58:30Z</time>
      </trkpt>
      <trkpt lat="49.89707" lon="2.24842">
        <ele>54.2</ele>
        <time>2023-01-28T12:58:31Z</time>
      </trkpt>
      <trkpt lat="49.89707" lon="2.24842">
        <ele>54.2</ele>
        <time>2023-01-28T12:58:32Z</time>
      </trkpt>
      <trkpt lat="49.89707" lon="2.24842">
        <ele>54.2</ele>
        <time>2023-01-28T12:58:33Z</time>
      </trkpt>
      <trkpt lat="49.89707" lon="2.24842">
        <ele>54.2</ele>
        <time>2023-01-28T12:58:34Z</time>
      </trkpt>
      <trkpt lat="49.89707" lon="2.24842">
        <ele>54.2</ele>
        <time>2023-01-28T12:58:35Z</time>
      </trkpt>
      <trkpt lat="49.89707" lon="2.24842">
        <ele>54.2</ele>
        <time>2023-01-28T12:58:36Z</time>
      </trkpt>
      <trkpt lat="49.89707" lon="2.24842">
        <ele>54.2</ele>
        <time>2023-01-28T12:58:37Z</time>
      </trkpt>
      <trkpt lat="49.89707" lon="2.24842">
        <ele>54.2</ele>
        <time>2023-01-28T12:58:38Z</time>
      </trkpt>
      <trkpt lat="49.89707" lon="2.24842">
        <ele>54.2</ele>
        <time>2023-01-28T12:58:39Z</time>
      </trkpt>
      <trkpt lat="49.89707" lon="2.24842">
        <ele>54.2</ele>
        <time>2023-01-28T12:58:40Z</time>
      </trkpt>
      <trkpt lat="49.89707" lon="2.24842">
        <ele>54.2</ele>
        <time>2023-01-28T12:58:41Z</time>
      </trkpt>
      <trkpt lat="49.89707" lon="2.24842">
        <ele>54.2</ele>
        <time>2023-01-28T12:58:42Z</time>
      </trkpt>
      <trkpt lat="49.89707" lon="2.24842">
        <ele>54.2</ele>
        <time>2023-01-28T12:58:43Z</time>
      </trkpt>
      <trkpt lat="49.89707" lon="2.24842">
        <ele>54.2</ele>
        <time>2023-01-28T12:58:44Z</time>
      </trkpt>
      <trkpt lat="49.89707" lon="2.24842">
        <ele>54.2</ele>
        <time>2023-01-28T12:58:45Z</time>
      </trkpt>
      <trkpt lat="49.89707" lon="2.24842">
        <ele>54.2</ele>
        <time>2023-01-28T12:58:46Z</time>
      </trkpt>
      <trkpt lat="49.89707" lon="2.24842">
        <ele>54.2</ele>
        <time>2023-01-28T12:58:47Z</time>
      </trkpt>
      <trkpt lat="49.89707" lon="2.24842">
        <ele>54.2</ele>
        <time>2023-01-28T12:58:48Z</time>
      </trkpt>
      <trkpt lat="49.89707" lon="2.24842">
        <ele>54.2</ele>
        <time>2023-01-28T12:58:49Z</time>
      </trkpt>
      <trkpt lat="49.89707" lon="2.24842">
        <ele>54.2</ele>
        <time>2023-01-28T12:58:50Z</time>
      </trkpt>
      <trkpt lat="49.89707" lon="2.24842">
        <ele>54.2</ele>
        <time>2023-01-28T12:58:51Z</time>
      </trkpt>
      <trkpt lat="49.89707" lon="2.24842">
        <ele>54.2</ele>
        <time>2023-01-28T12:58:52Z</time>
      </trkpt>
      <trkpt lat="49.89707" lon="2.24842">
        <ele>54.2</ele>
        <time>2023-01-28T12:58:53Z</time>
      </trkpt>
      <trkpt lat="49.89707" lon="2.24842">
        <ele>54.2</ele>
        <time>2023-01-28T12:58:54Z</time>
      </trkpt>
      <trkpt lat="49.89707" lon="2.24842">
        <ele>54.2</ele>
        <time>2023-01-28T12:58:55Z</time>
      </trkpt>
      <trkpt lat="49.89707" lon="2.24842">
        <ele>54.2</ele>
        <time>2023-01-28T12:58:56Z</time>
      </trkpt>
      <trkpt lat="49.89707" lon="2.24842">
        <ele>54.2</ele>
        <time>2023-01-28T12:58:57Z</time>
      </trkpt>
      <trkpt lat="49.89707" lon="2.24842">
        <ele>54.2</ele>
        <time>2023-01-28T12:58:58Z</time>
      </trkpt>
      <trkpt lat="49.89707" lon="2.24842">
        <ele>54.2</ele>
        <time>2023-01-28T12:58:59Z</time>
      </trkpt>
      <trkpt lat="49.89707" lon="2.24842">
        <ele>54.2</ele>
        <time>2023-01-28T12:59:00Z</time>
      </trkpt>
      <trkpt lat="49.89707" lon="2.24842">
        <ele>54.2</ele>
        <time>2023-01-28T12:59:01Z</time>
      </trkpt>
      <trkpt lat="49.89707" lon="2.24842">
        <ele>54.2</ele>
        <time>2023-01-28T12:59:02Z</time>
      </trkpt>
      <trkpt lat="49.89707" lon="2.24842">
        <ele>54.2</ele>
        <time>2023-01-28T12:59:03Z</time>
      </trkpt>
      <trkpt lat="49.89707" lon="2.24842">
        <ele>54.2</ele>
        <time>2023-01-28T12:59:04Z</time>
      </trkpt>
      <trkpt lat="49.89707" lon="2.24842">
        <ele>54.2</ele>
        <time>2023-01-28T12:59:05Z</time>
      </trkpt>
      <trkpt lat="49.89707" lon="2.24842">
        <ele>54.2</ele>
        <time>2023-01-28T12:59:06Z</time>
      </trkpt>
      <trkpt lat="49.89707" lon="2.24842">
        <ele>54.2</ele>
        <time>2023-01-28T12:59:07Z</time>
      </trkpt>
      <trkpt lat="49.89707" lon="2.24842">
        <ele>54.2</ele>
        <time>2023-01-28T12:59:08Z</time>
      </trkpt>
      <trkpt lat="49.89707" lon="2.24842">
        <ele>54.2</ele>
        <time>2023-01-28T12:59:09Z</time>
      </trkpt>
      <trkpt lat="49.89707" lon="2.24842">
        <ele>54.2</ele>
        <time>2023-01-28T12:59:10Z</time>
      </trkpt>
      <trkpt lat="49.89707" lon="2.24842">
        <ele>54.2</ele>
        <time>2023-01-28T12:59:11Z</time>
      </trkpt>
      <trkpt lat="49.89707" lon="2.24842">
        <ele>54.2</ele>
        <time>2023-01-28T12:59:12Z</time>
      </trkpt>
      <trkpt lat="49.89707" lon="2.24842">
        <ele>54.2</ele>
        <time>2023-01-28T12:59:13Z</time>
      </trkpt>
      <trkpt lat="49.89707" lon="2.24842">
        <ele>54.2</ele>
        <time>2023-01-28T12:59:14Z</time>
      </trkpt>
      <trkpt lat="49.89707" lon="2.24842">
        <ele>54.2</ele>
        <time>2023-01-28T12:59:15Z</time>
      </trkpt>
      <trkpt lat="49.89707" lon="2.24842">
        <ele>54.2</ele>
        <time>2023-01-28T12:59:16Z</time>
      </trkpt>
      <trkpt lat="49.89707" lon="2.24842">
        <ele>54.2</ele>
        <time>2023-01-28T12:59:17Z</time>
      </trkpt>
      <trkpt lat="49.89707" lon="2.24842">
        <ele>54.2</ele>
        <time>2023-01-28T12:59:18Z</time>
      </trkpt>
      <trkpt lat="49.89707" lon="2.24842">
        <ele>54.2</ele>
        <time>2023-01-28T12:59:19Z</time>
      </trkpt>
      <trkpt lat="49.89707" lon="2.24842">
        <ele>54.2</ele>
        <time>2023-01-28T12:59:20Z</time>
      </trkpt>
      <trkpt lat="49.89707" lon="2.24842">
        <ele>54.2</ele>
        <time>2023-01-28T12:59:21Z</time>
      </trkpt>
      <trkpt lat="49.89707" lon="2.24842">
        <ele>54.2</ele>
        <time>2023-01-28T12:59:22Z</time>
      </trkpt>
      <trkpt lat="49.89707" lon="2.24842">
        <ele>54.2</ele>
        <time>2023-01-28T12:59:23Z</time>
      </trkpt>
      <trkpt lat="49.89707" lon="2.24842">
        <ele>54.2</ele>
        <time>2023-01-28T12:59:24Z</time>
      </trkpt>
      <trkpt lat="49.89707" lon="2.24842">
        <ele>54.2</ele>
        <time>2023-01-28T12:59:25Z</time>
      </trkpt>
      <trkpt lat="49.89707" lon="2.24842">
        <ele>54.2</ele>
        <time>2023-01-28T12:59:26Z</time>
      </trkpt>
      <trkpt lat="49.89707" lon="2.24842">
        <ele>54.2</ele>
        <time>2023-01-28T12:59:27Z</time>
      </trkpt>
      <trkpt lat="49.89707" lon="2.24842">
        <ele>54.2</ele>
        <time>2023-01-28T12:59:28Z</time>
      </trkpt>
      <trkpt lat="49.89707" lon="2.24842">
        <ele>54.2</ele>
        <time>2023-01-28T12:59:29Z</time>
      </trkpt>
      <trkpt lat="49.89707" lon="2.24842">
        <ele>54.2</ele>
        <time>2023-01-28T12:59:30Z</time>
      </trkpt>
      <trkpt lat="49.89707" lon="2.24842">
        <ele>54.2</ele>
        <time>2023-01-28T12:59:31Z</time>
      </trkpt>
      <trkpt lat="49.89707" lon="2.24842">
        <ele>54.2</ele>
        <time>2023-01-28T12:59:32Z</time>
      </trkpt>
      <trkpt lat="49.89707" lon="2.24842">
        <ele>54.2</ele>
        <time>2023-01-28T12:59:33Z</time>
      </trkpt>
      <trkpt lat="49.89707" lon="2.24842">
        <ele>54.2</ele>
        <time>2023-01-28T12:59:34Z</time>
      </trkpt>
      <trkpt lat="49.89707" lon="2.24842">
        <ele>54.2</ele>
        <time>2023-01-28T12:59:35Z</time>
      </trkpt>
      <trkpt lat="49.89707" lon="2.24842">
        <ele>54.2</ele>
        <time>2023-01-28T12:59:36Z</time>
      </trkpt>
      <trkpt lat="49.89707" lon="2.24842">
        <ele>54.2</ele>
        <time>2023-01-28T12:59:37Z</time>
      </trkpt>
      <trkpt lat="49.89707" lon="2.24842">
        <ele>54.2</ele>
        <time>2023-01-28T12:59:38Z</time>
      </trkpt>
      <trkpt lat="49.89707" lon="2.24842">
        <ele>54.2</ele>
        <time>2023-01-28T12:59:39Z</time>
      </trkpt>
      <trkpt lat="49.89707" lon="2.24842">
        <ele>54.2</ele>
        <time>2023-01-28T12:59:40Z</time>
      </trkpt>
      <trkpt lat="49.89707" lon="2.24842">
        <ele>54.2</ele>
        <time>2023-01-28T12:59:41Z</time>
      </trkpt>
      <trkpt lat="49.89707" lon="2.24842">
        <ele>54.2</ele>
        <time>2023-01-28T12:59:42Z</time>
      </trkpt>
      <trkpt lat="49.89707" lon="2.24842">
        <ele>54.2</ele>
        <time>2023-01-28T12:59:43Z</time>
      </trkpt>
      <trkpt lat="49.89707" lon="2.24842">
        <ele>54.2</ele>
        <time>2023-01-28T12:59:44Z</time>
      </trkpt>
      <trkpt lat="49.89707" lon="2.24842">
        <ele>54.2</ele>
        <time>2023-01-28T12:59:45Z</time>
      </trkpt>
      <trkpt lat="49.89707" lon="2.24842">
        <ele>54.2</ele>
        <time>2023-01-28T12:59:46Z</time>
      </trkpt>
      <trkpt lat="49.89707" lon="2.24842">
        <ele>54.2</ele>
        <time>2023-01-28T12:59:47Z</time>
      </trkpt>
      <trkpt lat="49.89707" lon="2.24842">
        <ele>54.2</ele>
        <time>2023-01-28T12:59:48Z</time>
      </trkpt>
      <trkpt lat="49.89707" lon="2.24842">
        <ele>54.2</ele>
        <time>2023-01-28T12:59:49Z</time>
      </trkpt>
      <trkpt lat="49.89707" lon="2.24842">
        <ele>54.2</ele>
        <time>2023-01-28T12:59:50Z</time>
      </trkpt>
      <trkpt lat="49.89707" lon="2.24842">
        <ele>54.2</ele>
        <time>2023-01-28T12:59:51Z</time>
      </trkpt>
      <trkpt lat="49.89707" lon="2.24842">
        <ele>54.2</ele>
        <time>2023-01-28T12:59:52Z</time>
      </trkpt>
      <trkpt lat="49.89707" lon="2.24842">
        <ele>54.2</ele>
        <time>2023-01-28T12:59:53Z</time>
      </trkpt>
      <trkpt lat="49.89707" lon="2.24842">
        <ele>54.2</ele>
        <time>2023-01-28T12:59:54Z</time>
      </trkpt>
      <trkpt lat="49.89707" lon="2.24842">
        <ele>54.2</ele>
        <time>2023-01-28T12:59:55Z</time>
      </trkpt>
      <trkpt lat="49.89707" lon="2.24842">
        <ele>54.2</ele>
        <time>2023-01-28T12:59:56Z</time>
      </trkpt>
      <trkpt lat="49.89707" lon="2.24842">
        <ele>54.2</ele>
        <time>2023-01-28T12:59:57Z</time>
      </trkpt>
      <trkpt lat="49.89707" lon="2.24842">
        <ele>54.2</ele>
        <time>2023-01-28T12:59:58Z</time>
      </trkpt>
      <trkpt lat="49.89707" lon="2.24842">
        <ele>54.2</ele>
        <time>2023-01-28T12:59:59Z</time>
      </trkpt>
      <trkpt lat="49.89707" lon="2.24842">
        <ele>54.2</ele>
        <time>2023-01-28T13:00:00Z</time>
      </trkpt>
      <trkpt lat="49.89707" lon="2.24842">
        <ele>54.2</ele>
        <time>2023-01-28T13:00:01Z</time>
      </trkpt>
      <trkpt lat="49.89707" lon="2.24842">
        <ele>54.2</ele>
        <time>2023-01-28T13:00:02Z</time>
      </trkpt>
      <trkpt lat="49.89707" lon="2.24842">
        <ele>54.2</ele>
        <time>2023-01-28T13:00:03Z</time>
      </trkpt>
      <trkpt lat="49.89707" lon="2.24842">
        <ele>54.2</ele>
        <time>2023-01-28T13:00:04Z</time>
      </trkpt>
      <trkpt lat="49.89707" lon="2.24842">
        <ele>54.2</ele>
        <time>2023-01-28T13:00:05Z</time>
      </trkpt>
      <trkpt lat="49.89707" lon="2.24842">
        <ele>54.2</ele>
        <time>2023-01-28T13:00:06Z</time>
      </trkpt>
      <trkpt lat="49.89707" lon="2.24842">
        <ele>54.2</ele>
        <time>2023-01-28T13:00:07Z</time>
      </trkpt>
      <trkpt lat="49.89707" lon="2.24842">
        <ele>54.2</ele>
        <time>2023-01-28T13:00:08Z</time>
      </trkpt>
      <trkpt lat="49.89707" lon="2.24842">
        <ele>54.2</ele>
        <time>2023-01-28T13:00:09Z</time>
      </trkpt>
      <trkpt lat="49.89707" lon="2.24842">
        <ele>54.2</ele>
        <time>2023-01-28T13:00:10Z</time>
      </trkpt>
      <trkpt lat="49.89707" lon="2.24842">
        <ele>54.2</ele>
        <time>2023-01-28T13:00:11Z</time>
      </trkpt>
      <trkpt lat="49.89707" lon="2.24842">
        <ele>54.2</ele>
        <time>2023-01-28T13:00:12Z</time>
      </trkpt>
      <trkpt lat="49.89707" lon="2.24842">
        <ele>54.2</ele>
        <time>2023-01-28T13:00:13Z</time>
      </trkpt>
      <trkpt lat="49.89707" lon="2.24842">
        <ele>54.2</ele>
        <time>2023-01-28T13:00:14Z</time>
      </trkpt>
      <trkpt lat="49.89707" lon="2.24842">
        <ele>54.2</ele>
        <time>2023-01-28T13:00:15Z</time>
      </trkpt>
      <trkpt lat="49.89707" lon="2.24842">
        <ele>54.2</ele>
        <time>2023-01-28T13:00:16Z</time>
      </trkpt>
      <trkpt lat="49.89707" lon="2.24842">
        <ele>54.2</ele>
        <time>2023-01-28T13:00:17Z</time>
      </trkpt>
      <trkpt lat="49.89707" lon="2.24842">
        <ele>54.2</ele>
        <time>2023-01-28T13:00:18Z</time>
      </trkpt>
      <trkpt lat="49.89707" lon="2.24842">
        <ele>54.2</ele>
        <time>2023-01-28T13:00:19Z</time>
      </trkpt>
      <trkpt lat="49.89707" lon="2.24842">
        <ele>54.2</ele>
        <time>2023-01-28T13:00:20Z</time>
      </trkpt>
      <trkpt lat="49.89707" lon="2.24842">
        <ele>54.2</ele>
        <time>2023-01-28T13:00:21Z</time>
      </trkpt>
      <trkpt lat="49.89707" lon="2.24842">
        <ele>54.2</ele>
        <time>2023-01-28T13:00:22Z</time>
      </trkpt>
      <trkpt lat="49.89707" lon="2.24842">
        <ele>54.2</ele>
        <time>2023-01-28T13:00:23Z</time>
      </trkpt>
      <trkpt lat="49.89707" lon="2.24842">
        <ele>54.2</ele>
        <time>2023-01-28T13:00:24Z</time>
      </trkpt>
      <trkpt lat="49.89707" lon="2.24842">
        <ele>54.2</ele>
        <time>2023-01-28T13:00:25Z</time>
      </trkpt>
      <trkpt lat="49.89707" lon="2.24842">
        <ele>54.2</ele>
        <time>2023-01-28T13:00:26Z</time>
      </trkpt>
      <trkpt lat="49.89707" lon="2.24842">
        <ele>54.2</ele>
        <time>2023-01-28T13:00:27Z</time>
      </trkpt>
      <trkpt lat="49.89707" lon="2.24842">
        <ele>54.2</ele>
        <time>2023-01-28T13:00:28Z</time>
      </trkpt>
      <trkpt lat="49.89707" lon="2.24842">
        <ele>54.2</ele>
        <time>2023-01-28T13:00:29Z</time>
      </trkpt>
      <trkpt lat="49.89707" lon="2.24842">
        <ele>54.2</ele>
        <time>2023-01-28T13:00:30Z</time>
      </trkpt>
      <trkpt lat="49.89707" lon="2.24842">
        <ele>54.2</ele>
        <time>2023-01-28T13:00:31Z</time>
      </trkpt>
      <trkpt lat="49.89707" lon="2.24842">
        <ele>54.2</ele>
        <time>2023-01-28T13:00:32Z</time>
      </trkpt>
      <trkpt lat="49.89707" lon="2.24842">
        <ele>54.2</ele>
        <time>2023-01-28T13:00:33Z</time>
      </trkpt>
      <trkpt lat="49.89707" lon="2.24842">
        <ele>54.2</ele>
        <time>2023-01-28T13:00:34Z</time>
      </trkpt>
      <trkpt lat="49.89707" lon="2.24842">
        <ele>54.2</ele>
        <time>2023-01-28T13:00:35Z</time>
      </trkpt>
      <trkpt lat="49.89707" lon="2.24842">
        <ele>54.2</ele>
        <time>2023-01-28T13:00:36Z</time>
      </trkpt>
      <trkpt lat="49.89707" lon="2.24842">
        <ele>54.2</ele>
        <time>2023-01-28T13:00:37Z</time>
      </trkpt>
      <trkpt lat="49.89707" lon="2.24842">
        <ele>54.2</ele>
        <time>2023-01-28T13:00:38Z</time>
      </trkpt>
      <trkpt lat="49.89707" lon="2.24842">
        <ele>54.2</ele>
        <time>2023-01-28T13:00:39Z</time>
      </trkpt>
      <trkpt lat="49.89707" lon="2.24842">
        <ele>54.2</ele>
        <time>2023-01-28T13:00:40Z</time>
      </trkpt>
      <trkpt lat="49.89707" lon="2.24842">
        <ele>54.2</ele>
        <time>2023-01-28T13:00:41Z</time>
      </trkpt>
      <trkpt lat="49.89707" lon="2.24842">
        <ele>54.2</ele>
        <time>2023-01-28T13:00:42Z</time>
      </trkpt>
      <trkpt lat="49.89707" lon="2.24842">
        <ele>54.2</ele>
        <time>2023-01-28T13:00:43Z</time>
      </trkpt>
      <trkpt lat="49.89707" lon="2.24842">
        <ele>54.2</ele>
        <time>2023-01-28T13:00:44Z</time>
      </trkpt>
      <trkpt lat="49.89707" lon="2.24842">
        <ele>54.2</ele>
        <time>2023-01-28T13:00:45Z</time>
      </trkpt>
      <trkpt lat="49.89707" lon="2.24842">
        <ele>54.2</ele>
        <time>2023-01-28T13:00:46Z</time>
      </trkpt>
      <trkpt lat="49.89707" lon="2.24842">
        <ele>54.2</ele>
        <time>2023-01-28T13:00:47Z</time>
      </trkpt>
      <trkpt lat="49.89707" lon="2.24842">
        <ele>54.2</ele>
        <time>2023-01-28T13:00:48Z</time>
      </trkpt>
      <trkpt lat="49.89707" lon="2.24842">
        <ele>54.2</ele>
        <time>2023-01-28T13:00:49Z</time>
      </trkpt>
      <trkpt lat="49.89707" lon="2.24842">
        <ele>54.2</ele>
        <time>2023-01-28T13:00:50Z</time>
      </trkpt>
      <trkpt lat="49.89707" lon="2.24842">
        <ele>54.2</ele>
        <time>2023-01-28T13:00:51Z</time>
      </trkpt>
      <trkpt lat="49.89707" lon="2.24842">
        <ele>54.2</ele>
        <time>2023-01-28T13:00:52Z</time>
      </trkpt>
      <trkpt lat="49.89707" lon="2.24842">
        <ele>54.2</ele>
        <time>2023-01-28T13:00:53Z</time>
      </trkpt>
      <trkpt lat="49.89707" lon="2.24842">
        <ele>54.2</ele>
        <time>2023-01-28T13:00:54Z</time>
      </trkpt>
      <trkpt lat="49.89707" lon="2.24842">
        <ele>54.2</ele>
        <time>2023-01-28T13:00:55Z</time>
      </trkpt>
      <trkpt lat="49.89707" lon="2.24842">
        <ele>54.2</ele>
        <time>2023-01-28T13:00:56Z</time>
      </trkpt>
      <trkpt lat="49.89707" lon="2.24842">
        <ele>54.2</ele>
        <time>2023-01-28T13:00:57Z</time>
      </trkpt>
      <trkpt lat="49.89707" lon="2.24842">
        <ele>54.2</ele>
        <time>2023-01-28T13:00:58Z</time>
      </trkpt>
      <trkpt lat="49.89707" lon="2.24842">
        <ele>54.2</ele>
        <time>2023-01-28T13:00:59Z</time>
      </trkpt>
      <trkpt lat="49.89707" lon="2.24842">
        <ele>54.2</ele>
        <time>2023-01-28T13:01:00Z</time>
      </trkpt>
      <trkpt lat="49.89707" lon="2.24842">
        <ele>54.2</ele>
        <time>2023-01-28T13:01:01Z</time>
      </trkpt>
      <trkpt lat="49.89707" lon="2.24842">
        <ele>54.2</ele>
        <time>2023-01-28T13:01:02Z</time>
      </trkpt>
      <trkpt lat="49.89707" lon="2.24842">
        <ele>54.2</ele>
        <time>2023-01-28T13:01:03Z</time>
      </trkpt>
      <trkpt lat="49.89707" lon="2.24842">
        <ele>54.2</ele>
        <time>2023-01-28T13:01:04Z</time>
      </trkpt>
      <trkpt lat="49.89707" lon="2.24842">
        <ele>54.2</ele>
        <time>2023-01-28T13:01:05Z</time>
      </trkpt>
      <trkpt lat="49.89707" lon="2.24842">
        <ele>54.2</ele>
        <time>2023-01-28T13:01:06Z</time>
      </trkpt>
      <trkpt lat="49.89707" lon="2.24842">
        <ele>54.2</ele>
        <time>2023-01-28T13:01:07Z</time>
      </trkpt>
      <trkpt lat="49.89707" lon="2.24842">
        <ele>54.2</ele>
        <time>2023-01-28T13:01:08Z</time>
      </trkpt>
      <trkpt lat="49.89707" lon="2.24842">
        <ele>54.2</ele>
        <time>2023-01-28T13:01:09Z</time>
      </trkpt>
      <trkpt lat="49.89707" lon="2.24842">
        <ele>54.2</ele>
        <time>2023-01-28T13:01:10Z</time>
      </trkpt>
      <trkpt lat="49.89707" lon="2.24842">
        <ele>54.2</ele>
        <time>2023-01-28T13:01:11Z</time>
      </trkpt>
      <trkpt lat="49.89707" lon="2.24842">
        <ele>54.2</ele>
        <time>2023-01-28T13:01:12Z</time>
      </trkpt>
      <trkpt lat="49.89707" lon="2.24842">
        <ele>54.2</ele>
        <time>2023-01-28T13:01:13Z</time>
      </trkpt>
      <trkpt lat="49.89707" lon="2.24842">
        <ele>54.2</ele>
        <time>2023-01-28T13:01:14Z</time>
      </trkpt>
      <trkpt lat="49.89707" lon="2.24842">
        <ele>54.2</ele>
        <time>2023-01-28T13:01:15Z</time>
      </trkpt>
      <trkpt lat="49.89707" lon="2.24842">
        <ele>54.2</ele>
        <time>2023-01-28T13:01:16Z</time>
      </trkpt>
      <trkpt lat="49.89707" lon="2.24842">
        <ele>54.2</ele>
        <time>2023-01-28T13:01:17Z</time>
      </trkpt>
      <trkpt lat="49.89707" lon="2.24842">
        <ele>54.2</ele>
        <time>2023-01-28T13:01:18Z</time>
      </trkpt>
      <trkpt lat="49.89707" lon="2.24842">
        <ele>54.2</ele>
        <time>2023-01-28T13:01:19Z</time>
      </trkpt>
      <trkpt lat="49.89707" lon="2.24842">
        <ele>54.2</ele>
        <time>2023-01-28T13:01:20Z</time>
      </trkpt>
      <trkpt lat="49.89707" lon="2.24842">
        <ele>54.2</ele>
        <time>2023-01-28T13:01:21Z</time>
      </trkpt>
      <trkpt lat="49.89707" lon="2.24842">
        <ele>54.2</ele>
        <time>2023-01-28T13:01:22Z</time>
      </trkpt>
      <trkpt lat="49.89707" lon="2.24842">
        <ele>54.2</ele>
        <time>2023-01-28T13:01:23Z</time>
      </trkpt>
      <trkpt lat="49.89707" lon="2.24842">
        <ele>54.2</ele>
        <time>2023-01-28T13:01:24Z</time>
      </trkpt>
      <trkpt lat="49.89707" lon="2.24842">
        <ele>54.2</ele>
        <time>2023-01-28T13:01:25Z</time>
      </trkpt>
      <trkpt lat="49.89707" lon="2.24842">
        <ele>54.2</ele>
        <time>2023-01-28T13:01:26Z</time>
      </trkpt>
      <trkpt lat="49.89707" lon="2.24842">
        <ele>54.2</ele>
        <time>2023-01-28T13:01:27Z</time>
      </trkpt>
      <trkpt lat="49.89707" lon="2.24842">
        <ele>54.2</ele>
        <time>2023-01-28T13:01:28Z</time>
      </trkpt>
      <trkpt lat="49.89707" lon="2.24842">
        <ele>54.2</ele>
        <time>2023-01-28T13:01:29Z</time>
      </trkpt>
      <trkpt lat="49.89707" lon="2.24842">
        <ele>54.2</ele>
        <time>2023-01-28T13:01:30Z</time>
      </trkpt>
      <trkpt lat="49.89707" lon="2.24842">
        <ele>54.2</ele>
        <time>2023-01-28T13:01:31Z</time>
      </trkpt>
      <trkpt lat="49.89707" lon="2.24842">
        <ele>54.2</ele>
        <time>2023-01-28T13:01:32Z</time>
      </trkpt>
      <trkpt lat="49.89707" lon="2.24842">
        <ele>54.2</ele>
        <time>2023-01-28T13:01:33Z</time>
      </trkpt>
      <trkpt lat="49.89707" lon="2.24842">
        <ele>54.2</ele>
        <time>2023-01-28T13:01:34Z</time>
      </trkpt>
      <trkpt lat="49.89707" lon="2.24843">
        <ele>54.2</ele>
        <time>2023-01-28T13:01:35Z</time>
      </trkpt>
      <trkpt lat="49.89707" lon="2.24845">
        <ele>54.2</ele>
        <time>2023-01-28T13:01:36Z</time>
      </trkpt>
      <trkpt lat="49.89707" lon="2.24846">
        <ele>54.2</ele>
        <time>2023-01-28T13:01:37Z</time>
      </trkpt>
      <trkpt lat="49.89707" lon="2.24847">
        <ele>54.2</ele>
        <time>2023-01-28T13:01:38Z</time>
      </trkpt>
      <trkpt lat="49.89707" lon="2.24847">
        <ele>54.2</ele>
        <time>2023-01-28T13:01:39Z</time>
      </trkpt>
      <trkpt lat="49.89707" lon="2.24847">
        <ele>54.2</ele>
        <time>2023-01-28T13:01:40Z</time>
      </trkpt>
      <trkpt lat="49.89707" lon="2.24847">
        <ele>54.2</ele>
        <time>2023-01-28T13:01:41Z</time>
      </trkpt>
      <trkpt lat="49.89707" lon="2.24847">
        <ele>54.2</ele>
        <time>2023-01-28T13:01:42Z</time>
      </trkpt>
      <trkpt lat="49.89707" lon="2.24848">
        <ele>54.2</ele>
        <time>2023-01-28T13:01:43Z</time>
      </trkpt>
      <trkpt lat="49.89707" lon="2.24848">
        <ele>54.2</ele>
        <time>2023-01-28T13:01:44Z</time>
      </trkpt>
      <trkpt lat="49.89707" lon="2.24847">
        <ele>54.2</ele>
        <time>2023-01-28T13:01:45Z</time>
      </trkpt>
      <trkpt lat="49.89707" lon="2.24848">
        <ele>54.2</ele>
        <time>2023-01-28T13:01:46Z</time>
      </trkpt>
      <trkpt lat="49.89707" lon="2.24847">
        <ele>54.2</ele>
        <time>2023-01-28T13:01:47Z</time>
      </trkpt>
      <trkpt lat="49.89707" lon="2.24847">
        <ele>54.2</ele>
        <time>2023-01-28T13:01:48Z</time>
      </trkpt>
      <trkpt lat="49.89707" lon="2.24847">
        <ele>54.2</ele>
        <time>2023-01-28T13:01:49Z</time>
      </trkpt>
      <trkpt lat="49.89707" lon="2.24847">
        <ele>54.2</ele>
        <time>2023-01-28T13:01:50Z</time>
      </trkpt>
      <trkpt lat="49.89707" lon="2.24847">
        <ele>54.2</ele>
        <time>2023-01-28T13:01:51Z</time>
      </trkpt>
      <trkpt lat="49.89707" lon="2.24847">
        <ele>54.2</ele>
        <time>2023-01-28T13:01:52Z</time>
      </trkpt>
      <trkpt lat="49.89707" lon="2.24847">
        <ele>54.2</ele>
        <time>2023-01-28T13:01:53Z</time>
      </trkpt>
      <trkpt lat="49.89707" lon="2.24847">
        <ele>54.2</ele>
        <time>2023-01-28T13:01:54Z</time>
      </trkpt>
      <trkpt lat="49.89707" lon="2.24847">
        <ele>54.2</ele>
        <time>2023-01-28T13:01:55Z</time>
      </trkpt>
      <trkpt lat="49.89707" lon="2.24847">
        <ele>54.2</ele>
        <time>2023-01-28T13:01:56Z</time>
      </trkpt>
      <trkpt lat="49.89707" lon="2.24848">
        <ele>54.2</ele>
        <time>2023-01-28T13:01:57Z</time>
      </trkpt>
      <trkpt lat="49.89706" lon="2.24848">
        <ele>54.2</ele>
        <time>2023-01-28T13:01:58Z</time>
      </trkpt>
      <trkpt lat="49.89706" lon="2.24848">
        <ele>54.2</ele>
        <time>2023-01-28T13:01:59Z</time>
      </trkpt>
      <trkpt lat="49.89706" lon="2.24849">
        <ele>54.2</ele>
        <time>2023-01-28T13:02:00Z</time>
      </trkpt>
      <trkpt lat="49.89706" lon="2.24849">
        <ele>54.2</ele>
        <time>2023-01-28T13:02:01Z</time>
      </trkpt>
      <trkpt lat="49.89706" lon="2.2485">
        <ele>54.2</ele>
        <time>2023-01-28T13:02:02Z</time>
      </trkpt>
      <trkpt lat="49.89706" lon="2.24851">
        <ele>54.2</ele>
        <time>2023-01-28T13:02:03Z</time>
      </trkpt>
      <trkpt lat="49.89706" lon="2.24852">
        <ele>54.2</ele>
        <time>2023-01-28T13:02:04Z</time>
      </trkpt>
      <trkpt lat="49.89706" lon="2.24854">
        <ele>54.2</ele>
        <time>2023-01-28T13:02:05Z</time>
      </trkpt>
      <trkpt lat="49.89706" lon="2.24855">
        <ele>54.1</ele>
        <time>2023-01-28T13:02:06Z</time>
      </trkpt>
      <trkpt lat="49.89706" lon="2.24856">
        <ele>54.1</ele>
        <time>2023-01-28T13:02:07Z</time>
      </trkpt>
      <trkpt lat="49.89706" lon="2.24857">
        <ele>54.1</ele>
        <time>2023-01-28T13:02:08Z</time>
      </trkpt>
      <trkpt lat="49.89706" lon="2.24859">
        <ele>54.1</ele>
        <time>2023-01-28T13:02:09Z</time>
      </trkpt>
      <trkpt lat="49.89707" lon="2.2486">
        <ele>54.1</ele>
        <time>2023-01-28T13:02:10Z</time>
      </trkpt>
      <trkpt lat="49.89708" lon="2.24862">
        <ele>54.1</ele>
        <time>2023-01-28T13:02:11Z</time>
      </trkpt>
      <trkpt lat="49.89708" lon="2.24862">
        <ele>54.1</ele>
        <time>2023-01-28T13:02:12Z</time>
      </trkpt>
      <trkpt lat="49.89708" lon="2.24863">
        <ele>54.1</ele>
        <time>2023-01-28T13:02:13Z</time>
      </trkpt>
      <trkpt lat="49.89708" lon="2.24864">
        <ele>54.1</ele>
        <time>2023-01-28T13:02:15Z</time>
      </trkpt>
      <trkpt lat="49.89708" lon="2.24862">
        <ele>54.1</ele>
        <time>2023-01-28T13:02:16Z</time>
      </trkpt>
      <trkpt lat="49.89708" lon="2.2486">
        <ele>54.1</ele>
        <time>2023-01-28T13:02:17Z</time>
      </trkpt>
      <trkpt lat="49.89708" lon="2.2486">
        <ele>54.1</ele>
        <time>2023-01-28T13:02:19Z</time>
      </trkpt>
      <trkpt lat="49.89708" lon="2.24859">
        <ele>54.1</ele>
        <time>2023-01-28T13:02:20Z</time>
      </trkpt>
      <trkpt lat="49.89708" lon="2.24859">
        <ele>54.1</ele>
        <time>2023-01-28T13:02:21Z</time>
      </trkpt>
      <trkpt lat="49.89708" lon="2.24859">
        <ele>54.1</ele>
        <time>2023-01-28T13:02:22Z</time>
      </trkpt>
      <trkpt lat="49.89708" lon="2.24859">
        <ele>54.1</ele>
        <time>2023-01-28T13:02:23Z</time>
      </trkpt>
      <trkpt lat="49.89709" lon="2.2486">
        <ele>54.1</ele>
        <time>2023-01-28T13:02:25Z</time>
      </trkpt>
      <trkpt lat="49.89709" lon="2.24861">
        <ele>54.1</ele>
        <time>2023-01-28T13:02:26Z</time>
      </trkpt>
      <trkpt lat="49.89709" lon="2.24862">
        <ele>54.1</ele>
        <time>2023-01-28T13:02:27Z</time>
      </trkpt>
      <trkpt lat="49.8971" lon="2.24863">
        <ele>54.1</ele>
        <time>2023-01-28T13:02:28Z</time>
      </trkpt>
      <trkpt lat="49.8971" lon="2.24864">
        <ele>54.1</ele>
        <time>2023-01-28T13:02:29Z</time>
      </trkpt>
      <trkpt lat="49.8971" lon="2.24865">
        <ele>54.1</ele>
        <time>2023-01-28T13:02:31Z</time>
      </trkpt>
      <trkpt lat="49.8971" lon="2.24866">
        <ele>54</ele>
        <time>2023-01-28T13:02:33Z</time>
      </trkpt>
      <trkpt lat="49.8971" lon="2.24866">
        <ele>54</ele>
        <time>2023-01-28T13:02:34Z</time>
      </trkpt>
      <trkpt lat="49.8971" lon="2.24867">
        <ele>54</ele>
        <time>2023-01-28T13:02:35Z</time>
      </trkpt>
      <trkpt lat="49.8971" lon="2.24868">
        <ele>54</ele>
        <time>2023-01-28T13:02:36Z</time>
      </trkpt>
      <trkpt lat="49.8971" lon="2.24868">
        <ele>54</ele>
        <time>2023-01-28T13:02:37Z</time>
      </trkpt>
      <trkpt lat="49.8971" lon="2.2487">
        <ele>54</ele>
        <time>2023-01-28T13:02:39Z</time>
      </trkpt>
      <trkpt lat="49.8971" lon="2.24871">
        <ele>54</ele>
        <time>2023-01-28T13:02:40Z</time>
      </trkpt>
      <trkpt lat="49.8971" lon="2.24872">
        <ele>54</ele>
        <time>2023-01-28T13:02:41Z</time>
      </trkpt>
      <trkpt lat="49.8971" lon="2.24873">
        <ele>54</ele>
        <time>2023-01-28T13:02:42Z</time>
      </trkpt>
      <trkpt lat="49.8971" lon="2.24874">
        <ele>54</ele>
        <time>2023-01-28T13:02:43Z</time>
      </trkpt>
      <trkpt lat="49.89711" lon="2.24877">
        <ele>54</ele>
        <time>2023-01-28T13:02:45Z</time>
      </trkpt>
      <trkpt lat="49.89712" lon="2.24878">
        <ele>54</ele>
        <time>2023-01-28T13:02:46Z</time>
      </trkpt>
      <trkpt lat="49.89712" lon="2.24879">
        <ele>54</ele>
        <time>2023-01-28T13:02:47Z</time>
      </trkpt>
      <trkpt lat="49.89712" lon="2.24883">
        <ele>53.9</ele>
        <time>2023-01-28T13:02:48Z</time>
      </trkpt>
      <trkpt lat="49.89712" lon="2.24884">
        <ele>53.9</ele>
        <time>2023-01-28T13:02:49Z</time>
      </trkpt>
      <trkpt lat="49.89713" lon="2.24885">
        <ele>53.9</ele>
        <time>2023-01-28T13:02:50Z</time>
      </trkpt>
      <trkpt lat="49.89713" lon="2.24888">
        <ele>53.9</ele>
        <time>2023-01-28T13:02:52Z</time>
      </trkpt>
      <trkpt lat="49.89713" lon="2.24889">
        <ele>53.9</ele>
        <time>2023-01-28T13:02:53Z</time>
      </trkpt>
      <trkpt lat="49.89713" lon="2.24891">
        <ele>53.9</ele>
        <time>2023-01-28T13:02:54Z</time>
      </trkpt>
      <trkpt lat="49.89713" lon="2.24894">
        <ele>53.9</ele>
        <time>2023-01-28T13:02:55Z</time>
      </trkpt>
      <trkpt lat="49.89713" lon="2.24895">
        <ele>53.9</ele>
        <time>2023-01-28T13:02:56Z</time>
      </trkpt>
      <trkpt lat="49.89713" lon="2.24897">
        <ele>53.9</ele>
        <time>2023-01-28T13:02:57Z</time>
      </trkpt>
      <trkpt lat="49.89714" lon="2.24899">
        <ele>53.8</ele>
        <time>2023-01-28T13:02:59Z</time>
      </trkpt>
      <trkpt lat="49.89714" lon="2.24901">
        <ele>53.8</ele>
        <time>2023-01-28T13:03:00Z</time>
      </trkpt>
      <trkpt lat="49.89714" lon="2.24902">
        <ele>53.8</ele>
        <time>2023-01-28T13:03:01Z</time>
      </trkpt>
      <trkpt lat="49.89715" lon="2.24905">
        <ele>53.8</ele>
        <time>2023-01-28T13:03:02Z</time>
      </trkpt>
      <trkpt lat="49.89715" lon="2.24906">
        <ele>53.8</ele>
        <time>2023-01-28T13:03:03Z</time>
      </trkpt>
      <trkpt lat="49.89715" lon="2.24908">
        <ele>53.8</ele>
        <time>2023-01-28T13:03:04Z</time>
      </trkpt>
      <trkpt lat="49.89716" lon="2.24909">
        <ele>53.8</ele>
        <time>2023-01-28T13:03:05Z</time>
      </trkpt>
      <trkpt lat="49.89717" lon="2.24911">
        <ele>53.8</ele>
        <time>2023-01-28T13:03:06Z</time>
      </trkpt>
      <trkpt lat="49.89717" lon="2.24914">
        <ele>53.8</ele>
        <time>2023-01-28T13:03:08Z</time>
      </trkpt>
      <trkpt lat="49.89718" lon="2.24917">
        <ele>53.7</ele>
        <time>2023-01-28T13:03:09Z</time>
      </trkpt>
      <trkpt lat="49.89719" lon="2.24921">
        <ele>53.7</ele>
        <time>2023-01-28T13:03:10Z</time>
      </trkpt>
      <trkpt lat="49.8972" lon="2.24922">
        <ele>53.7</ele>
        <time>2023-01-28T13:03:11Z</time>
      </trkpt>
      <trkpt lat="49.89721" lon="2.24926">
        <ele>53.7</ele>
        <time>2023-01-28T13:03:12Z</time>
      </trkpt>
      <trkpt lat="49.89721" lon="2.24928">
        <ele>53.7</ele>
        <time>2023-01-28T13:03:13Z</time>
      </trkpt>
      <trkpt lat="49.89722" lon="2.2493">
        <ele>53.7</ele>
        <time>2023-01-28T13:03:14Z</time>
      </trkpt>
      <trkpt lat="49.89723" lon="2.24931">
        <ele>53.7</ele>
        <time>2023-01-28T13:03:15Z</time>
      </trkpt>
      <trkpt lat="49.89724" lon="2.24934">
        <ele>53.7</ele>
        <time>2023-01-28T13:03:17Z</time>
      </trkpt>
      <trkpt lat="49.89725" lon="2.24935">
        <ele>53.7</ele>
        <time>2023-01-28T13:03:18Z</time>
      </trkpt>
      <trkpt lat="49.89725" lon="2.24936">
        <ele>53.6</ele>
        <time>2023-01-28T13:03:19Z</time>
      </trkpt>
      <trkpt lat="49.89726" lon="2.24938">
        <ele>53.6</ele>
        <time>2023-01-28T13:03:20Z</time>
      </trkpt>
      <trkpt lat="49.89728" lon="2.2494">
        <ele>53.6</ele>
        <time>2023-01-28T13:03:21Z</time>
      </trkpt>
      <trkpt lat="49.89729" lon="2.24942">
        <ele>53.6</ele>
        <time>2023-01-28T13:03:22Z</time>
      </trkpt>
      <trkpt lat="49.8973" lon="2.24943">
        <ele>53.6</ele>
        <time>2023-01-28T13:03:23Z</time>
      </trkpt>
      <trkpt lat="49.89731" lon="2.24944">
        <ele>53.6</ele>
        <time>2023-01-28T13:03:24Z</time>
      </trkpt>
      <trkpt lat="49.89733" lon="2.24946">
        <ele>53.6</ele>
        <time>2023-01-28T13:03:25Z</time>
      </trkpt>
      <trkpt lat="49.89733" lon="2.24947">
        <ele>53.6</ele>
        <time>2023-01-28T13:03:27Z</time>
      </trkpt>
      <trkpt lat="49.89734" lon="2.24948">
        <ele>53.6</ele>
        <time>2023-01-28T13:03:28Z</time>
      </trkpt>
      <trkpt lat="49.89735" lon="2.24949">
        <ele>53.6</ele>
        <time>2023-01-28T13:03:29Z</time>
      </trkpt>
      <trkpt lat="49.89736" lon="2.2495">
        <ele>53.6</ele>
        <time>2023-01-28T13:03:30Z</time>
      </trkpt>
      <trkpt lat="49.89737" lon="2.24952">
        <ele>53.5</ele>
        <time>2023-01-28T13:03:31Z</time>
      </trkpt>
      <trkpt lat="49.89738" lon="2.24953">
        <ele>53.5</ele>
        <time>2023-01-28T13:03:32Z</time>
      </trkpt>
      <trkpt lat="49.89738" lon="2.24955">
        <ele>53.5</ele>
        <time>2023-01-28T13:03:33Z</time>
      </trkpt>
      <trkpt lat="49.89739" lon="2.24956">
        <ele>53.5</ele>
        <time>2023-01-28T13:03:34Z</time>
      </trkpt>
      <trkpt lat="49.8974" lon="2.2496">
        <ele>53.5</ele>
        <time>2023-01-28T13:03:36Z</time>
      </trkpt>
      <trkpt lat="49.89741" lon="2.24961">
        <ele>53.5</ele>
        <time>2023-01-28T13:03:37Z</time>
      </trkpt>
      <trkpt lat="49.89741" lon="2.24962">
        <ele>53.5</ele>
        <time>2023-01-28T13:03:38Z</time>
      </trkpt>
      <trkpt lat="49.89742" lon="2.24963">
        <ele>53.5</ele>
        <time>2023-01-28T13:03:39Z</time>
      </trkpt>
      <trkpt lat="49.89742" lon="2.24964">
        <ele>53.5</ele>
        <time>2023-01-28T13:03:40Z</time>
      </trkpt>
      <trkpt lat="49.89744" lon="2.24968">
        <ele>53.5</ele>
        <time>2023-01-28T13:03:41Z</time>
      </trkpt>
      <trkpt lat="49.89744" lon="2.24968">
        <ele>53.5</ele>
        <time>2023-01-28T13:03:42Z</time>
      </trkpt>
      <trkpt lat="49.89744" lon="2.24969">
        <ele>53.5</ele>
        <time>2023-01-28T13:03:43Z</time>
      </trkpt>
      <trkpt lat="49.89745" lon="2.24971">
        <ele>53.5</ele>
        <time>2023-01-28T13:03:44Z</time>
      </trkpt>
      <trkpt lat="49.89747" lon="2.24973">
        <ele>53.4</ele>
        <time>2023-01-28T13:03:46Z</time>
      </trkpt>
      <trkpt lat="49.89747" lon="2.24973">
        <ele>53.4</ele>
        <time>2023-01-28T13:03:47Z</time>
      </trkpt>
      <trkpt lat="49.89748" lon="2.24974">
        <ele>53.4</ele>
        <time>2023-01-28T13:03:48Z</time>
      </trkpt>
      <trkpt lat="49.89749" lon="2.24975">
        <ele>53.4</ele>
        <time>2023-01-28T13:03:49Z</time>
      </trkpt>
      <trkpt lat="49.8975" lon="2.24976">
        <ele>53.4</ele>
        <time>2023-01-28T13:03:50Z</time>
      </trkpt>
      <trkpt lat="49.89751" lon="2.24978">
        <ele>53.4</ele>
        <time>2023-01-28T13:03:51Z</time>
      </trkpt>
      <trkpt lat="49.89751" lon="2.24979">
        <ele>53.4</ele>
        <time>2023-01-28T13:03:52Z</time>
      </trkpt>
      <trkpt lat="49.89752" lon="2.2498">
        <ele>53.4</ele>
        <time>2023-01-28T13:03:53Z</time>
      </trkpt>
      <trkpt lat="49.89753" lon="2.24982">
        <ele>53.4</ele>
        <time>2023-01-28T13:03:54Z</time>
      </trkpt>
      <trkpt lat="49.89755" lon="2.24985">
        <ele>53.4</ele>
        <time>2023-01-28T13:03:56Z</time>
      </trkpt>
      <trkpt lat="49.89755" lon="2.24986">
        <ele>53.4</ele>
        <time>2023-01-28T13:03:57Z</time>
      </trkpt>
      <trkpt lat="49.89755" lon="2.24986">
        <ele>53.4</ele>
        <time>2023-01-28T13:03:58Z</time>
      </trkpt>
      <trkpt lat="49.89757" lon="2.24989">
        <ele>53.4</ele>
        <time>2023-01-28T13:03:59Z</time>
      </trkpt>
      <trkpt lat="49.89757" lon="2.2499">
        <ele>53.4</ele>
        <time>2023-01-28T13:04:00Z</time>
      </trkpt>
      <trkpt lat="49.89758" lon="2.24991">
        <ele>53.4</ele>
        <time>2023-01-28T13:04:01Z</time>
      </trkpt>
      <trkpt lat="49.89759" lon="2.24991">
        <ele>53.4</ele>
        <time>2023-01-28T13:04:03Z</time>
      </trkpt>
      <trkpt lat="49.8976" lon="2.2499">
        <ele>53.4</ele>
        <time>2023-01-28T13:04:04Z</time>
      </trkpt>
      <trkpt lat="49.89761" lon="2.2499">
        <ele>53.4</ele>
        <time>2023-01-28T13:04:05Z</time>
      </trkpt>
      <trkpt lat="49.89762" lon="2.24991">
        <ele>53.4</ele>
        <time>2023-01-28T13:04:06Z</time>
      </trkpt>
      <trkpt lat="49.89762" lon="2.24991">
        <ele>53.4</ele>
        <time>2023-01-28T13:04:07Z</time>
      </trkpt>
      <trkpt lat="49.89763" lon="2.24993">
        <ele>53.3</ele>
        <time>2023-01-28T13:04:08Z</time>
      </trkpt>
      <trkpt lat="49.89765" lon="2.24995">
        <ele>53.3</ele>
        <time>2023-01-28T13:04:09Z</time>
      </trkpt>
      <trkpt lat="49.89765" lon="2.24996">
        <ele>53.3</ele>
        <time>2023-01-28T13:04:11Z</time>
      </trkpt>
      <trkpt lat="49.89766" lon="2.24997">
        <ele>53.3</ele>
        <time>2023-01-28T13:04:12Z</time>
      </trkpt>
      <trkpt lat="49.89767" lon="2.24999">
        <ele>53.3</ele>
        <time>2023-01-28T13:04:13Z</time>
      </trkpt>
      <trkpt lat="49.89767" lon="2.25">
        <ele>53.3</ele>
        <time>2023-01-28T13:04:14Z</time>
      </trkpt>
      <trkpt lat="49.89768" lon="2.25001">
        <ele>53.3</ele>
        <time>2023-01-28T13:04:15Z</time>
      </trkpt>
      <trkpt lat="49.89769" lon="2.25003">
        <ele>53.3</ele>
        <time>2023-01-28T13:04:16Z</time>
      </trkpt>
      <trkpt lat="49.89769" lon="2.25004">
        <ele>53.3</ele>
        <time>2023-01-28T13:04:18Z</time>
      </trkpt>
      <trkpt lat="49.89769" lon="2.25005">
        <ele>53.3</ele>
        <time>2023-01-28T13:04:19Z</time>
      </trkpt>
      <trkpt lat="49.8977" lon="2.25007">
        <ele>53.3</ele>
        <time>2023-01-28T13:04:20Z</time>
      </trkpt>
      <trkpt lat="49.89771" lon="2.25009">
        <ele>53.3</ele>
        <time>2023-01-28T13:04:21Z</time>
      </trkpt>
      <trkpt lat="49.89771" lon="2.2501">
        <ele>53.2</ele>
        <time>2023-01-28T13:04:22Z</time>
      </trkpt>
      <trkpt lat="49.89772" lon="2.25011">
        <ele>53.2</ele>
        <time>2023-01-28T13:04:24Z</time>
      </trkpt>
      <trkpt lat="49.89772" lon="2.25012">
        <ele>53.2</ele>
        <time>2023-01-28T13:04:25Z</time>
      </trkpt>
      <trkpt lat="49.89773" lon="2.25014">
        <ele>53.2</ele>
        <time>2023-01-28T13:04:26Z</time>
      </trkpt>
      <trkpt lat="49.89774" lon="2.25017">
        <ele>53.2</ele>
        <time>2023-01-28T13:04:27Z</time>
      </trkpt>
      <trkpt lat="49.89774" lon="2.25018">
        <ele>53.2</ele>
        <time>2023-01-28T13:04:28Z</time>
      </trkpt>
      <trkpt lat="49.89774" lon="2.2502">
        <ele>53.2</ele>
        <time>2023-01-28T13:04:30Z</time>
      </trkpt>
      <trkpt lat="49.89775" lon="2.25022">
        <ele>53.2</ele>
        <time>2023-01-28T13:04:32Z</time>
      </trkpt>
      <trkpt lat="49.89775" lon="2.25024">
        <ele>53.1</ele>
        <time>2023-01-28T13:04:33Z</time>
      </trkpt>
      <trkpt lat="49.89776" lon="2.25027">
        <ele>53.1</ele>
        <time>2023-01-28T13:04:34Z</time>
      </trkpt>
      <trkpt lat="49.89776" lon="2.25029">
        <ele>53.1</ele>
        <time>2023-01-28T13:04:35Z</time>
      </trkpt>
      <trkpt lat="49.89777" lon="2.2503">
        <ele>53.1</ele>
        <time>2023-01-28T13:04:36Z</time>
      </trkpt>
      <trkpt lat="49.89777" lon="2.25031">
        <ele>53.1</ele>
        <time>2023-01-28T13:04:38Z</time>
      </trkpt>
      <trkpt lat="49.89778" lon="2.25033">
        <ele>53.1</ele>
        <time>2023-01-28T13:04:39Z</time>
      </trkpt>
      <trkpt lat="49.89778" lon="2.25035">
        <ele>53.1</ele>
        <time>2023-01-28T13:04:40Z</time>
      </trkpt>
      <trkpt lat="49.89779" lon="2.25037">
        <ele>53.1</ele>
        <time>2023-01-28T13:04:41Z</time>
      </trkpt>
      <trkpt lat="49.8978" lon="2.25038">
        <ele>53</ele>
        <time>2023-01-28T13:04:42Z</time>
      </trkpt>
      <trkpt lat="49.8978" lon="2.25039">
        <ele>53</ele>
        <time>2023-01-28T13:04:43Z</time>
      </trkpt>
      <trkpt lat="49.89781" lon="2.25042">
        <ele>53</ele>
        <time>2023-01-28T13:04:44Z</time>
      </trkpt>
      <trkpt lat="49.89781" lon="2.25043">
        <ele>53</ele>
        <time>2023-01-28T13:04:45Z</time>
      </trkpt>
      <trkpt lat="49.89782" lon="2.25045">
        <ele>53</ele>
        <time>2023-01-28T13:04:46Z</time>
      </trkpt>
      <trkpt lat="49.89782" lon="2.25046">
        <ele>53</ele>
        <time>2023-01-28T13:04:47Z</time>
      </trkpt>
      <trkpt lat="49.89783" lon="2.25047">
        <ele>53</ele>
        <time>2023-01-28T13:04:49Z</time>
      </trkpt>
      <trkpt lat="49.89783" lon="2.25049">
        <ele>53</ele>
        <time>2023-01-28T13:04:50Z</time>
      </trkpt>
      <trkpt lat="49.89784" lon="2.25051">
        <ele>53</ele>
        <time>2023-01-28T13:04:51Z</time>
      </trkpt>
      <trkpt lat="49.89785" lon="2.25052">
        <ele>53</ele>
        <time>2023-01-28T13:04:52Z</time>
      </trkpt>
      <trkpt lat="49.89785" lon="2.25054">
        <ele>52.9</ele>
        <time>2023-01-28T13:04:53Z</time>
      </trkpt>
      <trkpt lat="49.89786" lon="2.25055">
        <ele>52.9</ele>
        <time>2023-01-28T13:04:54Z</time>
      </trkpt>
      <trkpt lat="49.89786" lon="2.25056">
        <ele>52.9</ele>
        <time>2023-01-28T13:04:55Z</time>
      </trkpt>
      <trkpt lat="49.89788" lon="2.25059">
        <ele>52.9</ele>
        <time>2023-01-28T13:04:57Z</time>
      </trkpt>
      <trkpt lat="49.89788" lon="2.2506">
        <ele>52.9</ele>
        <time>2023-01-28T13:04:58Z</time>
      </trkpt>
      <trkpt lat="49.89789" lon="2.25061">
        <ele>52.9</ele>
        <time>2023-01-28T13:04:59Z</time>
      </trkpt>
      <trkpt lat="49.8979" lon="2.25063">
        <ele>52.9</ele>
        <time>2023-01-28T13:05:00Z</time>
      </trkpt>
      <trkpt lat="49.89791" lon="2.25064">
        <ele>52.9</ele>
        <time>2023-01-28T13:05:01Z</time>
      </trkpt>
      <trkpt lat="49.89791" lon="2.25065">
        <ele>52.9</ele>
        <time>2023-01-28T13:05:03Z</time>
      </trkpt>
      <trkpt lat="49.89792" lon="2.25066">
        <ele>52.9</ele>
        <time>2023-01-28T13:05:04Z</time>
      </trkpt>
      <trkpt lat="49.89793" lon="2.25067">
        <ele>52.9</ele>
        <time>2023-01-28T13:05:05Z</time>
      </trkpt>
      <trkpt lat="49.89793" lon="2.25068">
        <ele>52.9</ele>
        <time>2023-01-28T13:05:06Z</time>
      </trkpt>
      <trkpt lat="49.89794" lon="2.25069">
        <ele>52.9</ele>
        <time>2023-01-28T13:05:07Z</time>
      </trkpt>
      <trkpt lat="49.89794" lon="2.2507">
        <ele>52.9</ele>
        <time>2023-01-28T13:05:08Z</time>
      </trkpt>
      <trkpt lat="49.89795" lon="2.25071">
        <ele>52.9</ele>
        <time>2023-01-28T13:05:09Z</time>
      </trkpt>
      <trkpt lat="49.89795" lon="2.25073">
        <ele>52.9</ele>
        <time>2023-01-28T13:05:11Z</time>
      </trkpt>
      <trkpt lat="49.89796" lon="2.25075">
        <ele>52.8</ele>
        <time>2023-01-28T13:05:12Z</time>
      </trkpt>
      <trkpt lat="49.89796" lon="2.25075">
        <ele>52.8</ele>
        <time>2023-01-28T13:05:13Z</time>
      </trkpt>
      <trkpt lat="49.89797" lon="2.25077">
        <ele>52.8</ele>
        <time>2023-01-28T13:05:14Z</time>
      </trkpt>
      <trkpt lat="49.89798" lon="2.25078">
        <ele>52.8</ele>
        <time>2023-01-28T13:05:15Z</time>
      </trkpt>
      <trkpt lat="49.89799" lon="2.25081">
        <ele>52.8</ele>
        <time>2023-01-28T13:05:16Z</time>
      </trkpt>
      <trkpt lat="49.898" lon="2.25083">
        <ele>52.8</ele>
        <time>2023-01-28T13:05:17Z</time>
      </trkpt>
      <trkpt lat="49.898" lon="2.25085">
        <ele>52.8</ele>
        <time>2023-01-28T13:05:19Z</time>
      </trkpt>
      <trkpt lat="49.89801" lon="2.25086">
        <ele>52.8</ele>
        <time>2023-01-28T13:05:20Z</time>
      </trkpt>
      <trkpt lat="49.89801" lon="2.25087">
        <ele>52.8</ele>
        <time>2023-01-28T13:05:21Z</time>
      </trkpt>
      <trkpt lat="49.89802" lon="2.25088">
        <ele>52.8</ele>
        <time>2023-01-28T13:05:22Z</time>
      </trkpt>
      <trkpt lat="49.89802" lon="2.2509">
        <ele>52.8</ele>
        <time>2023-01-28T13:05:23Z</time>
      </trkpt>
      <trkpt lat="49.89803" lon="2.25091">
        <ele>52.8</ele>
        <time>2023-01-28T13:05:24Z</time>
      </trkpt>
      <trkpt lat="49.89804" lon="2.25093">
        <ele>52.7</ele>
        <time>2023-01-28T13:05:25Z</time>
      </trkpt>
      <trkpt lat="49.89806" lon="2.25095">
        <ele>52.7</ele>
        <time>2023-01-28T13:05:27Z</time>
      </trkpt>
      <trkpt lat="49.89806" lon="2.25096">
        <ele>52.7</ele>
        <time>2023-01-28T13:05:28Z</time>
      </trkpt>
      <trkpt lat="49.89807" lon="2.25097">
        <ele>52.7</ele>
        <time>2023-01-28T13:05:29Z</time>
      </trkpt>
      <trkpt lat="49.89808" lon="2.25099">
        <ele>52.7</ele>
        <time>2023-01-28T13:05:30Z</time>
      </trkpt>
      <trkpt lat="49.89809" lon="2.25101">
        <ele>52.7</ele>
        <time>2023-01-28T13:05:31Z</time>
      </trkpt>
      <trkpt lat="49.89809" lon="2.25102">
        <ele>52.7</ele>
        <time>2023-01-28T13:05:33Z</time>
      </trkpt>
      <trkpt lat="49.89809" lon="2.25103">
        <ele>52.7</ele>
        <time>2023-01-28T13:05:34Z</time>
      </trkpt>
      <trkpt lat="49.8981" lon="2.25105">
        <ele>52.6</ele>
        <time>2023-01-28T13:05:35Z</time>
      </trkpt>
      <trkpt lat="49.8981" lon="2.25107">
        <ele>52.6</ele>
        <time>2023-01-28T13:05:36Z</time>
      </trkpt>
      <trkpt lat="49.89811" lon="2.25108">
        <ele>52.6</ele>
        <time>2023-01-28T13:05:37Z</time>
      </trkpt>
      <trkpt lat="49.89811" lon="2.25109">
        <ele>52.6</ele>
        <time>2023-01-28T13:05:38Z</time>
      </trkpt>
      <trkpt lat="49.89812" lon="2.25111">
        <ele>52.6</ele>
        <time>2023-01-28T13:05:40Z</time>
      </trkpt>
      <trkpt lat="49.89812" lon="2.25112">
        <ele>52.6</ele>
        <time>2023-01-28T13:05:41Z</time>
      </trkpt>
      <trkpt lat="49.89813" lon="2.25114">
        <ele>52.6</ele>
        <time>2023-01-28T13:05:42Z</time>
      </trkpt>
      <trkpt lat="49.89813" lon="2.25115">
        <ele>52.5</ele>
        <time>2023-01-28T13:05:43Z</time>
      </trkpt>
      <trkpt lat="49.89813" lon="2.25117">
        <ele>52.5</ele>
        <time>2023-01-28T13:05:44Z</time>
      </trkpt>
      <trkpt lat="49.89814" lon="2.25119">
        <ele>52.5</ele>
        <time>2023-01-28T13:05:45Z</time>
      </trkpt>
      <trkpt lat="49.89814" lon="2.25121">
        <ele>52.5</ele>
        <time>2023-01-28T13:05:46Z</time>
      </trkpt>
      <trkpt lat="49.89815" lon="2.25122">
        <ele>52.5</ele>
        <time>2023-01-28T13:05:48Z</time>
      </trkpt>
      <trkpt lat="49.89815" lon="2.25124">
        <ele>52.5</ele>
        <time>2023-01-28T13:05:49Z</time>
      </trkpt>
      <trkpt lat="49.89815" lon="2.25125">
        <ele>52.5</ele>
        <time>2023-01-28T13:05:50Z</time>
      </trkpt>
      <trkpt lat="49.89815" lon="2.25128">
        <ele>52.4</ele>
        <time>2023-01-28T13:05:51Z</time>
      </trkpt>
      <trkpt lat="49.89815" lon="2.25129">
        <ele>52.4</ele>
        <time>2023-01-28T13:05:52Z</time>
      </trkpt>
      <trkpt lat="49.89816" lon="2.25131">
        <ele>52.4</ele>
        <time>2023-01-28T13:05:53Z</time>
      </trkpt>
      <trkpt lat="49.89816" lon="2.25132">
        <ele>52.4</ele>
        <time>2023-01-28T13:05:55Z</time>
      </trkpt>
      <trkpt lat="49.89817" lon="2.25133">
        <ele>52.4</ele>
        <time>2023-01-28T13:05:56Z</time>
      </trkpt>
      <trkpt lat="49.89817" lon="2.25135">
        <ele>52.3</ele>
        <time>2023-01-28T13:05:57Z</time>
      </trkpt>
      <trkpt lat="49.89818" lon="2.25137">
        <ele>52.3</ele>
        <time>2023-01-28T13:05:58Z</time>
      </trkpt>
      <trkpt lat="49.89818" lon="2.25138">
        <ele>52.3</ele>
        <time>2023-01-28T13:06:00Z</time>
      </trkpt>
      <trkpt lat="49.89819" lon="2.25139">
        <ele>52.2</ele>
        <time>2023-01-28T13:06:01Z</time>
      </trkpt>
      <trkpt lat="49.89819" lon="2.2514">
        <ele>52.2</ele>
        <time>2023-01-28T13:06:02Z</time>
      </trkpt>
      <trkpt lat="49.8982" lon="2.25141">
        <ele>52.2</ele>
        <time>2023-01-28T13:06:03Z</time>
      </trkpt>
      <trkpt lat="49.89822" lon="2.25141">
        <ele>52.2</ele>
        <time>2023-01-28T13:06:04Z</time>
      </trkpt>
      <trkpt lat="49.89823" lon="2.2514">
        <ele>52.1</ele>
        <time>2023-01-28T13:06:05Z</time>
      </trkpt>
      <trkpt lat="49.89824" lon="2.25137">
        <ele>52.1</ele>
        <time>2023-01-28T13:06:07Z</time>
      </trkpt>
      <trkpt lat="49.89825" lon="2.25134">
        <ele>52.1</ele>
        <time>2023-01-28T13:06:08Z</time>
      </trkpt>
      <trkpt lat="49.89825" lon="2.25133">
        <ele>52.2</ele>
        <time>2023-01-28T13:06:09Z</time>
      </trkpt>
      <trkpt lat="49.89825" lon="2.25131">
        <ele>52.2</ele>
        <time>2023-01-28T13:06:10Z</time>
      </trkpt>
      <trkpt lat="49.89826" lon="2.25128">
        <ele>52.2</ele>
        <time>2023-01-28T13:06:11Z</time>
      </trkpt>
      <trkpt lat="49.89826" lon="2.25126">
        <ele>52.2</ele>
        <time>2023-01-28T13:06:12Z</time>
      </trkpt>
      <trkpt lat="49.89826" lon="2.25124">
        <ele>52.2</ele>
        <time>2023-01-28T13:06:13Z</time>
      </trkpt>
      <trkpt lat="49.89826" lon="2.25122">
        <ele>52.2</ele>
        <time>2023-01-28T13:06:15Z</time>
      </trkpt>
      <trkpt lat="49.89827" lon="2.25121">
        <ele>52.3</ele>
        <time>2023-01-28T13:06:16Z</time>
      </trkpt>
      <trkpt lat="49.89827" lon="2.25118">
        <ele>52.3</ele>
        <time>2023-01-28T13:06:17Z</time>
      </trkpt>
      <trkpt lat="49.89828" lon="2.25116">
        <ele>52.3</ele>
        <time>2023-01-28T13:06:19Z</time>
      </trkpt>
      <trkpt lat="49.89828" lon="2.25114">
        <ele>52.3</ele>
        <time>2023-01-28T13:06:21Z</time>
      </trkpt>
      <trkpt lat="49.89829" lon="2.25113">
        <ele>52.3</ele>
        <time>2023-01-28T13:06:22Z</time>
      </trkpt>
      <trkpt lat="49.8983" lon="2.25111">
        <ele>52.3</ele>
        <time>2023-01-28T13:06:24Z</time>
      </trkpt>
      <trkpt lat="49.8983" lon="2.2511">
        <ele>52.3</ele>
        <time>2023-01-28T13:06:25Z</time>
      </trkpt>
      <trkpt lat="49.89831" lon="2.2511">
        <ele>52.3</ele>
        <time>2023-01-28T13:06:26Z</time>
      </trkpt>
      <trkpt lat="49.89832" lon="2.25109">
        <ele>52.3</ele>
        <time>2023-01-28T13:06:27Z</time>
      </trkpt>
      <trkpt lat="49.89833" lon="2.25108">
        <ele>52.2</ele>
        <time>2023-01-28T13:06:28Z</time>
      </trkpt>
      <trkpt lat="49.89834" lon="2.25107">
        <ele>52.3</ele>
        <time>2023-01-28T13:06:29Z</time>
      </trkpt>
      <trkpt lat="49.89835" lon="2.25107">
        <ele>52.2</ele>
        <time>2023-01-28T13:06:30Z</time>
      </trkpt>
      <trkpt lat="49.89836" lon="2.25106">
        <ele>52.2</ele>
        <time>2023-01-28T13:06:31Z</time>
      </trkpt>
      <trkpt lat="49.89837" lon="2.25105">
        <ele>52.2</ele>
        <time>2023-01-28T13:06:32Z</time>
      </trkpt>
      <trkpt lat="49.89838" lon="2.25103">
        <ele>52.2</ele>
        <time>2023-01-28T13:06:34Z</time>
      </trkpt>
      <trkpt lat="49.89839" lon="2.25103">
        <ele>52.2</ele>
        <time>2023-01-28T13:06:35Z</time>
      </trkpt>
      <trkpt lat="49.8984" lon="2.25102">
        <ele>52.2</ele>
        <time>2023-01-28T13:06:36Z</time>
      </trkpt>
      <trkpt lat="49.89841" lon="2.25101">
        <ele>52.2</ele>
        <time>2023-01-28T13:06:37Z</time>
      </trkpt>
      <trkpt lat="49.89842" lon="2.251">
        <ele>52.2</ele>
        <time>2023-01-28T13:06:38Z</time>
      </trkpt>
      <trkpt lat="49.89843" lon="2.25099">
        <ele>52.2</ele>
        <time>2023-01-28T13:06:39Z</time>
      </trkpt>
      <trkpt lat="49.89845" lon="2.25099">
        <ele>52.2</ele>
        <time>2023-01-28T13:06:40Z</time>
      </trkpt>
      <trkpt lat="49.89847" lon="2.25099">
        <ele>52.2</ele>
        <time>2023-01-28T13:06:42Z</time>
      </trkpt>
      <trkpt lat="49.89847" lon="2.251">
        <ele>52.1</ele>
        <time>2023-01-28T13:06:43Z</time>
      </trkpt>
      <trkpt lat="49.89848" lon="2.251">
        <ele>52.1</ele>
        <time>2023-01-28T13:06:44Z</time>
      </trkpt>
      <trkpt lat="49.8985" lon="2.25101">
        <ele>52.1</ele>
        <time>2023-01-28T13:06:45Z</time>
      </trkpt>
      <trkpt lat="49.89852" lon="2.25101">
        <ele>52</ele>
        <time>2023-01-28T13:06:46Z</time>
      </trkpt>
      <trkpt lat="49.89852" lon="2.25101">
        <ele>52</ele>
        <time>2023-01-28T13:06:47Z</time>
      </trkpt>
      <trkpt lat="49.89854" lon="2.25102">
        <ele>52</ele>
        <time>2023-01-28T13:06:48Z</time>
      </trkpt>
      <trkpt lat="49.89855" lon="2.25102">
        <ele>52</ele>
        <time>2023-01-28T13:06:50Z</time>
      </trkpt>
      <trkpt lat="49.89856" lon="2.25103">
        <ele>51.9</ele>
        <time>2023-01-28T13:06:51Z</time>
      </trkpt>
      <trkpt lat="49.89858" lon="2.25104">
        <ele>51.9</ele>
        <time>2023-01-28T13:06:52Z</time>
      </trkpt>
      <trkpt lat="49.89859" lon="2.25104">
        <ele>51.8</ele>
        <time>2023-01-28T13:06:53Z</time>
      </trkpt>
      <trkpt lat="49.89859" lon="2.25105">
        <ele>51.8</ele>
        <time>2023-01-28T13:06:54Z</time>
      </trkpt>
      <trkpt lat="49.8986" lon="2.25106">
        <ele>51.8</ele>
        <time>2023-01-28T13:06:55Z</time>
      </trkpt>
      <trkpt lat="49.89862" lon="2.25108">
        <ele>51.8</ele>
        <time>2023-01-28T13:06:57Z</time>
      </trkpt>
      <trkpt lat="49.89862" lon="2.25109">
        <ele>51.7</ele>
        <time>2023-01-28T13:06:58Z</time>
      </trkpt>
      <trkpt lat="49.89862" lon="2.25111">
        <ele>51.7</ele>
        <time>2023-01-28T13:06:59Z</time>
      </trkpt>
      <trkpt lat="49.89863" lon="2.25112">
        <ele>51.7</ele>
        <time>2023-01-28T13:07:00Z</time>
      </trkpt>
      <trkpt lat="49.89863" lon="2.25113">
        <ele>51.7</ele>
        <time>2023-01-28T13:07:01Z</time>
      </trkpt>
      <trkpt lat="49.89864" lon="2.25115">
        <ele>51.7</ele>
        <time>2023-01-28T13:07:03Z</time>
      </trkpt>
      <trkpt lat="49.89865" lon="2.25117">
        <ele>51.6</ele>
        <time>2023-01-28T13:07:04Z</time>
      </trkpt>
      <trkpt lat="49.89865" lon="2.25119">
        <ele>51.6</ele>
        <time>2023-01-28T13:07:05Z</time>
      </trkpt>
      <trkpt lat="49.89866" lon="2.25121">
        <ele>51.5</ele>
        <time>2023-01-28T13:07:06Z</time>
      </trkpt>
      <trkpt lat="49.89866" lon="2.25122">
        <ele>51.5</ele>
        <time>2023-01-28T13:07:07Z</time>
      </trkpt>
      <trkpt lat="49.89866" lon="2.25123">
        <ele>51.5</ele>
        <time>2023-01-28T13:07:08Z</time>
      </trkpt>
      <trkpt lat="49.89867" lon="2.25125">
        <ele>51.5</ele>
        <time>2023-01-28T13:07:10Z</time>
      </trkpt>
      <trkpt lat="49.89867" lon="2.25126">
        <ele>51.4</ele>
        <time>2023-01-28T13:07:11Z</time>
      </trkpt>
      <trkpt lat="49.89869" lon="2.25129">
        <ele>51.4</ele>
        <time>2023-01-28T13:07:12Z</time>
      </trkpt>
      <trkpt lat="49.89869" lon="2.25129">
        <ele>51.4</ele>
        <time>2023-01-28T13:07:13Z</time>
      </trkpt>
      <trkpt lat="49.8987" lon="2.2513">
        <ele>51.3</ele>
        <time>2023-01-28T13:07:14Z</time>
      </trkpt>
      <trkpt lat="49.89871" lon="2.25131">
        <ele>51.3</ele>
        <time>2023-01-28T13:07:15Z</time>
      </trkpt>
      <trkpt lat="49.89871" lon="2.25133">
        <ele>51.3</ele>
        <time>2023-01-28T13:07:17Z</time>
      </trkpt>
      <trkpt lat="49.89872" lon="2.25134">
        <ele>51.2</ele>
        <time>2023-01-28T13:07:18Z</time>
      </trkpt>
      <trkpt lat="49.89872" lon="2.25136">
        <ele>51.2</ele>
        <time>2023-01-28T13:07:19Z</time>
      </trkpt>
      <trkpt lat="49.89872" lon="2.25138">
        <ele>51.2</ele>
        <time>2023-01-28T13:07:20Z</time>
      </trkpt>
      <trkpt lat="49.89872" lon="2.25139">
        <ele>51.2</ele>
        <time>2023-01-28T13:07:21Z</time>
      </trkpt>
      <trkpt lat="49.89872" lon="2.25142">
        <ele>51.2</ele>
        <time>2023-01-28T13:07:22Z</time>
      </trkpt>
      <trkpt lat="49.89871" lon="2.25144">
        <ele>51.1</ele>
        <time>2023-01-28T13:07:23Z</time>
      </trkpt>
      <trkpt lat="49.89871" lon="2.25146">
        <ele>51.1</ele>
        <time>2023-01-28T13:07:25Z</time>
      </trkpt>
      <trkpt lat="49.8987" lon="2.25147">
        <ele>51</ele>
        <time>2023-01-28T13:07:26Z</time>
      </trkpt>
      <trkpt lat="49.8987" lon="2.25149">
        <ele>51</ele>
        <time>2023-01-28T13:07:27Z</time>
      </trkpt>
      <trkpt lat="49.8987" lon="2.2515">
        <ele>51.1</ele>
        <time>2023-01-28T13:07:28Z</time>
      </trkpt>
      <trkpt lat="49.89869" lon="2.25152">
        <ele>51</ele>
        <time>2023-01-28T13:07:29Z</time>
      </trkpt>
      <trkpt lat="49.89868" lon="2.25154">
        <ele>51</ele>
        <time>2023-01-28T13:07:30Z</time>
      </trkpt>
      <trkpt lat="49.89868" lon="2.25157">
        <ele>51</ele>
        <time>2023-01-28T13:07:31Z</time>
      </trkpt>
      <trkpt lat="49.89868" lon="2.25158">
        <ele>51</ele>
        <time>2023-01-28T13:07:33Z</time>
      </trkpt>
      <trkpt lat="49.89867" lon="2.25159">
        <ele>51</ele>
        <time>2023-01-28T13:07:34Z</time>
      </trkpt>
      <trkpt lat="49.89869" lon="2.25162">
        <ele>50.9</ele>
        <time>2023-01-28T13:07:35Z</time>
      </trkpt>
      <trkpt lat="49.8987" lon="2.25163">
        <ele>50.9</ele>
        <time>2023-01-28T13:07:36Z</time>
      </trkpt>
      <trkpt lat="49.8987" lon="2.25163">
        <ele>50.9</ele>
        <time>2023-01-28T13:07:37Z</time>
      </trkpt>
      <trkpt lat="49.89871" lon="2.25164">
        <ele>50.9</ele>
        <time>2023-01-28T13:07:39Z</time>
      </trkpt>
      <trkpt lat="49.89873" lon="2.25164">
        <ele>50.8</ele>
        <time>2023-01-28T13:07:40Z</time>
      </trkpt>
      <trkpt lat="49.89874" lon="2.25165">
        <ele>50.7</ele>
        <time>2023-01-28T13:07:41Z</time>
      </trkpt>
      <trkpt lat="49.89875" lon="2.25165">
        <ele>50.7</ele>
        <time>2023-01-28T13:07:42Z</time>
      </trkpt>
      <trkpt lat="49.89876" lon="2.25166">
        <ele>50.7</ele>
        <time>2023-01-28T13:07:43Z</time>
      </trkpt>
      <trkpt lat="49.89876" lon="2.25167">
        <ele>50.7</ele>
        <time>2023-01-28T13:07:45Z</time>
      </trkpt>
      <trkpt lat="49.89877" lon="2.25168">
        <ele>50.7</ele>
        <time>2023-01-28T13:07:46Z</time>
      </trkpt>
      <trkpt lat="49.89878" lon="2.2517">
        <ele>50.6</ele>
        <time>2023-01-28T13:07:47Z</time>
      </trkpt>
      <trkpt lat="49.89879" lon="2.25171">
        <ele>50.6</ele>
        <time>2023-01-28T13:07:48Z</time>
      </trkpt>
      <trkpt lat="49.89879" lon="2.25172">
        <ele>50.6</ele>
        <time>2023-01-28T13:07:49Z</time>
      </trkpt>
      <trkpt lat="49.8988" lon="2.25173">
        <ele>50.5</ele>
        <time>2023-01-28T13:07:50Z</time>
      </trkpt>
      <trkpt lat="49.89881" lon="2.25175">
        <ele>50.5</ele>
        <time>2023-01-28T13:07:52Z</time>
      </trkpt>
      <trkpt lat="49.89882" lon="2.25176">
        <ele>50.5</ele>
        <time>2023-01-28T13:07:53Z</time>
      </trkpt>
      <trkpt lat="49.89882" lon="2.25177">
        <ele>50.4</ele>
        <time>2023-01-28T13:07:54Z</time>
      </trkpt>
      <trkpt lat="49.89883" lon="2.25179">
        <ele>50.4</ele>
        <time>2023-01-28T13:07:55Z</time>
      </trkpt>
      <trkpt lat="49.89884" lon="2.2518">
        <ele>50.3</ele>
        <time>2023-01-28T13:07:56Z</time>
      </trkpt>
      <trkpt lat="49.89884" lon="2.25182">
        <ele>50.3</ele>
        <time>2023-01-28T13:07:58Z</time>
      </trkpt>
      <trkpt lat="49.89885" lon="2.25183">
        <ele>50.3</ele>
        <time>2023-01-28T13:07:59Z</time>
      </trkpt>
      <trkpt lat="49.89886" lon="2.25185">
        <ele>50.3</ele>
        <time>2023-01-28T13:08:00Z</time>
      </trkpt>
      <trkpt lat="49.89887" lon="2.25186">
        <ele>50.2</ele>
        <time>2023-01-28T13:08:01Z</time>
      </trkpt>
      <trkpt lat="49.89888" lon="2.25187">
        <ele>50.2</ele>
        <time>2023-01-28T13:08:02Z</time>
      </trkpt>
      <trkpt lat="49.89888" lon="2.25188">
        <ele>50.2</ele>
        <time>2023-01-28T13:08:03Z</time>
      </trkpt>
      <trkpt lat="49.89889" lon="2.25189">
        <ele>50.1</ele>
        <time>2023-01-28T13:08:04Z</time>
      </trkpt>
      <trkpt lat="49.8989" lon="2.2519">
        <ele>50</ele>
        <time>2023-01-28T13:08:06Z</time>
      </trkpt>
      <trkpt lat="49.89892" lon="2.2519">
        <ele>50</ele>
        <time>2023-01-28T13:08:07Z</time>
      </trkpt>
      <trkpt lat="49.89893" lon="2.25189">
        <ele>50</ele>
        <time>2023-01-28T13:08:08Z</time>
      </trkpt>
      <trkpt lat="49.89895" lon="2.25189">
        <ele>49.9</ele>
        <time>2023-01-28T13:08:09Z</time>
      </trkpt>
      <trkpt lat="49.89896" lon="2.25188">
        <ele>49.9</ele>
        <time>2023-01-28T13:08:10Z</time>
      </trkpt>
      <trkpt lat="49.89897" lon="2.25188">
        <ele>49.9</ele>
        <time>2023-01-28T13:08:11Z</time>
      </trkpt>
      <trkpt lat="49.89899" lon="2.25187">
        <ele>49.8</ele>
        <time>2023-01-28T13:08:13Z</time>
      </trkpt>
      <trkpt lat="49.89899" lon="2.25186">
        <ele>49.8</ele>
        <time>2023-01-28T13:08:14Z</time>
      </trkpt>
      <trkpt lat="49.899" lon="2.25187">
        <ele>49.8</ele>
        <time>2023-01-28T13:08:15Z</time>
      </trkpt>
      <trkpt lat="49.89901" lon="2.25188">
        <ele>49.7</ele>
        <time>2023-01-28T13:08:16Z</time>
      </trkpt>
      <trkpt lat="49.89902" lon="2.2519">
        <ele>49.7</ele>
        <time>2023-01-28T13:08:17Z</time>
      </trkpt>
      <trkpt lat="49.89902" lon="2.25191">
        <ele>49.7</ele>
        <time>2023-01-28T13:08:18Z</time>
      </trkpt>
      <trkpt lat="49.89903" lon="2.25193">
        <ele>49.7</ele>
        <time>2023-01-28T13:08:19Z</time>
      </trkpt>
      <trkpt lat="49.89903" lon="2.25194">
        <ele>49.5</ele>
        <time>2023-01-28T13:08:21Z</time>
      </trkpt>
      <trkpt lat="49.89904" lon="2.25196">
        <ele>49.5</ele>
        <time>2023-01-28T13:08:22Z</time>
      </trkpt>
      <trkpt lat="49.89904" lon="2.25198">
        <ele>49.5</ele>
        <time>2023-01-28T13:08:23Z</time>
      </trkpt>
      <trkpt lat="49.89905" lon="2.252">
        <ele>49.5</ele>
        <time>2023-01-28T13:08:24Z</time>
      </trkpt>
      <trkpt lat="49.89906" lon="2.25201">
        <ele>49.4</ele>
        <time>2023-01-28T13:08:25Z</time>
      </trkpt>
      <trkpt lat="49.89907" lon="2.25202">
        <ele>49.4</ele>
        <time>2023-01-28T13:08:26Z</time>
      </trkpt>
      <trkpt lat="49.89908" lon="2.25204">
        <ele>49.3</ele>
        <time>2023-01-28T13:08:27Z</time>
      </trkpt>
      <trkpt lat="49.89908" lon="2.25205">
        <ele>49.3</ele>
        <time>2023-01-28T13:08:29Z</time>
      </trkpt>
      <trkpt lat="49.89909" lon="2.25207">
        <ele>49.2</ele>
        <time>2023-01-28T13:08:30Z</time>
      </trkpt>
      <trkpt lat="49.89909" lon="2.25208">
        <ele>49.2</ele>
        <time>2023-01-28T13:08:31Z</time>
      </trkpt>
      <trkpt lat="49.8991" lon="2.2521">
        <ele>49.2</ele>
        <time>2023-01-28T13:08:32Z</time>
      </trkpt>
      <trkpt lat="49.89911" lon="2.25211">
        <ele>49.1</ele>
        <time>2023-01-28T13:08:33Z</time>
      </trkpt>
      <trkpt lat="49.89911" lon="2.25212">
        <ele>49.1</ele>
        <time>2023-01-28T13:08:34Z</time>
      </trkpt>
      <trkpt lat="49.89911" lon="2.25214">
        <ele>49</ele>
        <time>2023-01-28T13:08:35Z</time>
      </trkpt>
      <trkpt lat="49.89912" lon="2.25216">
        <ele>48.9</ele>
        <time>2023-01-28T13:08:37Z</time>
      </trkpt>
      <trkpt lat="49.89912" lon="2.25219">
        <ele>48.9</ele>
        <time>2023-01-28T13:08:38Z</time>
      </trkpt>
      <trkpt lat="49.89913" lon="2.2522">
        <ele>48.8</ele>
        <time>2023-01-28T13:08:39Z</time>
      </trkpt>
      <trkpt lat="49.89913" lon="2.25221">
        <ele>48.8</ele>
        <time>2023-01-28T13:08:40Z</time>
      </trkpt>
      <trkpt lat="49.89914" lon="2.25224">
        <ele>48.8</ele>
        <time>2023-01-28T13:08:41Z</time>
      </trkpt>
      <trkpt lat="49.89914" lon="2.25226">
        <ele>48.8</ele>
        <time>2023-01-28T13:08:42Z</time>
      </trkpt>
      <trkpt lat="49.89914" lon="2.25227">
        <ele>48.6</ele>
        <time>2023-01-28T13:08:44Z</time>
      </trkpt>
      <trkpt lat="49.89915" lon="2.25229">
        <ele>48.6</ele>
        <time>2023-01-28T13:08:45Z</time>
      </trkpt>
      <trkpt lat="49.89915" lon="2.2523">
        <ele>48.6</ele>
        <time>2023-01-28T13:08:46Z</time>
      </trkpt>
      <trkpt lat="49.89915" lon="2.25232">
        <ele>48.6</ele>
        <time>2023-01-28T13:08:47Z</time>
      </trkpt>
      <trkpt lat="49.89915" lon="2.25232">
        <ele>48.6</ele>
        <time>2023-01-28T13:08:48Z</time>
      </trkpt>
      <trkpt lat="49.89916" lon="2.25234">
        <ele>48.5</ele>
        <time>2023-01-28T13:08:49Z</time>
      </trkpt>
      <trkpt lat="49.89916" lon="2.25236">
        <ele>48.5</ele>
        <time>2023-01-28T13:08:50Z</time>
      </trkpt>
      <trkpt lat="49.89916" lon="2.25238">
        <ele>48.4</ele>
        <time>2023-01-28T13:08:52Z</time>
      </trkpt>
      <trkpt lat="49.89917" lon="2.2524">
        <ele>48.4</ele>
        <time>2023-01-28T13:08:53Z</time>
      </trkpt>
      <trkpt lat="49.89917" lon="2.25241">
        <ele>48.3</ele>
        <time>2023-01-28T13:08:54Z</time>
      </trkpt>
      <trkpt lat="49.89918" lon="2.25243">
        <ele>48.2</ele>
        <time>2023-01-28T13:08:55Z</time>
      </trkpt>
      <trkpt lat="49.89918" lon="2.25244">
        <ele>48.2</ele>
        <time>2023-01-28T13:08:56Z</time>
      </trkpt>
      <trkpt lat="49.89919" lon="2.25246">
        <ele>48.2</ele>
        <time>2023-01-28T13:08:57Z</time>
      </trkpt>
      <trkpt lat="49.8992" lon="2.25248">
        <ele>48</ele>
        <time>2023-01-28T13:08:59Z</time>
      </trkpt>
      <trkpt lat="49.8992" lon="2.25249">
        <ele>48</ele>
        <time>2023-01-28T13:09:00Z</time>
      </trkpt>
      <trkpt lat="49.89921" lon="2.2525">
        <ele>47.9</ele>
        <time>2023-01-28T13:09:01Z</time>
      </trkpt>
      <trkpt lat="49.89921" lon="2.25252">
        <ele>47.9</ele>
        <time>2023-01-28T13:09:02Z</time>
      </trkpt>
      <trkpt lat="49.89922" lon="2.25253">
        <ele>47.9</ele>
        <time>2023-01-28T13:09:03Z</time>
      </trkpt>
      <trkpt lat="49.89923" lon="2.25254">
        <ele>47.7</ele>
        <time>2023-01-28T13:09:04Z</time>
      </trkpt>
      <trkpt lat="49.89923" lon="2.25255">
        <ele>47.7</ele>
        <time>2023-01-28T13:09:06Z</time>
      </trkpt>
      <trkpt lat="49.89924" lon="2.25256">
        <ele>47.7</ele>
        <time>2023-01-28T13:09:07Z</time>
      </trkpt>
      <trkpt lat="49.89925" lon="2.25258">
        <ele>47.7</ele>
        <time>2023-01-28T13:09:08Z</time>
      </trkpt>
      <trkpt lat="49.89925" lon="2.2526">
        <ele>47.7</ele>
        <time>2023-01-28T13:09:09Z</time>
      </trkpt>
      <trkpt lat="49.89926" lon="2.25263">
        <ele>47.4</ele>
        <time>2023-01-28T13:09:10Z</time>
      </trkpt>
      <trkpt lat="49.89927" lon="2.25264">
        <ele>47.4</ele>
        <time>2023-01-28T13:09:11Z</time>
      </trkpt>
      <trkpt lat="49.89927" lon="2.25265">
        <ele>47.4</ele>
        <time>2023-01-28T13:09:12Z</time>
      </trkpt>
      <trkpt lat="49.89928" lon="2.25267">
        <ele>47.2</ele>
        <time>2023-01-28T13:09:14Z</time>
      </trkpt>
      <trkpt lat="49.89928" lon="2.25268">
        <ele>47.2</ele>
        <time>2023-01-28T13:09:15Z</time>
      </trkpt>
      <trkpt lat="49.89929" lon="2.2527">
        <ele>47.2</ele>
        <time>2023-01-28T13:09:16Z</time>
      </trkpt>
      <trkpt lat="49.89929" lon="2.25271">
        <ele>47.2</ele>
        <time>2023-01-28T13:09:17Z</time>
      </trkpt>
      <trkpt lat="49.8993" lon="2.25273">
        <ele>47.1</ele>
        <time>2023-01-28T13:09:18Z</time>
      </trkpt>
      <trkpt lat="49.89931" lon="2.25274">
        <ele>47.1</ele>
        <time>2023-01-28T13:09:19Z</time>
      </trkpt>
      <trkpt lat="49.89931" lon="2.25275">
        <ele>47</ele>
        <time>2023-01-28T13:09:20Z</time>
      </trkpt>
      <trkpt lat="49.89932" lon="2.25279">
        <ele>46.9</ele>
        <time>2023-01-28T13:09:21Z</time>
      </trkpt>
      <trkpt lat="49.89933" lon="2.2528">
        <ele>46.9</ele>
        <time>2023-01-28T13:09:23Z</time>
      </trkpt>
      <trkpt lat="49.89933" lon="2.25281">
        <ele>46.8</ele>
        <time>2023-01-28T13:09:24Z</time>
      </trkpt>
      <trkpt lat="49.89934" lon="2.25283">
        <ele>46.6</ele>
        <time>2023-01-28T13:09:25Z</time>
      </trkpt>
      <trkpt lat="49.89934" lon="2.25284">
        <ele>46.6</ele>
        <time>2023-01-28T13:09:26Z</time>
      </trkpt>
      <trkpt lat="49.89935" lon="2.25285">
        <ele>46.6</ele>
        <time>2023-01-28T13:09:27Z</time>
      </trkpt>
      <trkpt lat="49.89935" lon="2.25286">
        <ele>46.6</ele>
        <time>2023-01-28T13:09:29Z</time>
      </trkpt>
      <trkpt lat="49.89936" lon="2.25287">
        <ele>46.6</ele>
        <time>2023-01-28T13:09:30Z</time>
      </trkpt>
      <trkpt lat="49.89936" lon="2.25288">
        <ele>46.6</ele>
        <time>2023-01-28T13:09:31Z</time>
      </trkpt>
      <trkpt lat="49.89936" lon="2.25289">
        <ele>46.3</ele>
        <time>2023-01-28T13:09:32Z</time>
      </trkpt>
      <trkpt lat="49.89937" lon="2.25291">
        <ele>46.3</ele>
        <time>2023-01-28T13:09:34Z</time>
      </trkpt>
      <trkpt lat="49.89938" lon="2.25293">
        <ele>46.3</ele>
        <time>2023-01-28T13:09:35Z</time>
      </trkpt>
      <trkpt lat="49.89938" lon="2.25293">
        <ele>46.2</ele>
        <time>2023-01-28T13:09:36Z</time>
      </trkpt>
      <trkpt lat="49.8994" lon="2.25295">
        <ele>46.1</ele>
        <time>2023-01-28T13:09:38Z</time>
      </trkpt>
      <trkpt lat="49.89941" lon="2.25295">
        <ele>46.1</ele>
        <time>2023-01-28T13:09:40Z</time>
      </trkpt>
      <trkpt lat="49.89941" lon="2.25294">
        <ele>46</ele>
        <time>2023-01-28T13:09:41Z</time>
      </trkpt>
      <trkpt lat="49.89941" lon="2.25294">
        <ele>46</ele>
        <time>2023-01-28T13:09:42Z</time>
      </trkpt>
      <trkpt lat="49.89941" lon="2.25293">
        <ele>46</ele>
        <time>2023-01-28T13:09:44Z</time>
      </trkpt>
      <trkpt lat="49.89941" lon="2.25293">
        <ele>46</ele>
        <time>2023-01-28T13:09:45Z</time>
      </trkpt>
      <trkpt lat="49.89941" lon="2.25293">
        <ele>46.1</ele>
        <time>2023-01-28T13:09:47Z</time>
      </trkpt>
      <trkpt lat="49.89941" lon="2.25293">
        <ele>46.1</ele>
        <time>2023-01-28T13:09:48Z</time>
      </trkpt>
      <trkpt lat="49.89941" lon="2.25293">
        <ele>46.1</ele>
        <time>2023-01-28T13:09:50Z</time>
      </trkpt>
      <trkpt lat="49.89941" lon="2.25292">
        <ele>46.1</ele>
        <time>2023-01-28T13:09:51Z</time>
      </trkpt>
      <trkpt lat="49.89941" lon="2.25293">
        <ele>46.1</ele>
        <time>2023-01-28T13:09:52Z</time>
      </trkpt>
      <trkpt lat="49.89941" lon="2.25293">
        <ele>46.1</ele>
        <time>2023-01-28T13:09:53Z</time>
      </trkpt>
      <trkpt lat="49.89941" lon="2.25292">
        <ele>46.1</ele>
        <time>2023-01-28T13:09:54Z</time>
      </trkpt>
      <trkpt lat="49.89941" lon="2.25292">
        <ele>46.1</ele>
        <time>2023-01-28T13:09:55Z</time>
      </trkpt>
      <trkpt lat="49.89941" lon="2.25292">
        <ele>46.1</ele>
        <time>2023-01-28T13:09:57Z</time>
      </trkpt>
      <trkpt lat="49.89942" lon="2.25291">
        <ele>45.9</ele>
        <time>2023-01-28T13:09:58Z</time>
      </trkpt>
      <trkpt lat="49.89944" lon="2.25289">
        <ele>45.9</ele>
        <time>2023-01-28T13:09:59Z</time>
      </trkpt>
      <trkpt lat="49.89944" lon="2.25288">
        <ele>46</ele>
        <time>2023-01-28T13:10:00Z</time>
      </trkpt>
      <trkpt lat="49.89945" lon="2.25287">
        <ele>45.8</ele>
        <time>2023-01-28T13:10:01Z</time>
      </trkpt>
      <trkpt lat="49.89947" lon="2.25285">
        <ele>45.8</ele>
        <time>2023-01-28T13:10:02Z</time>
      </trkpt>
      <trkpt lat="49.89947" lon="2.25284">
        <ele>45.7</ele>
        <time>2023-01-28T13:10:04Z</time>
      </trkpt>
      <trkpt lat="49.89948" lon="2.25282">
        <ele>45.7</ele>
        <time>2023-01-28T13:10:05Z</time>
      </trkpt>
      <trkpt lat="49.89949" lon="2.25281">
        <ele>45.7</ele>
        <time>2023-01-28T13:10:06Z</time>
      </trkpt>
      <trkpt lat="49.8995" lon="2.2528">
        <ele>45.5</ele>
        <time>2023-01-28T13:10:07Z</time>
      </trkpt>
      <trkpt lat="49.89952" lon="2.25279">
        <ele>45.6</ele>
        <time>2023-01-28T13:10:08Z</time>
      </trkpt>
      <trkpt lat="49.89952" lon="2.25278">
        <ele>45.6</ele>
        <time>2023-01-28T13:10:09Z</time>
      </trkpt>
      <trkpt lat="49.89954" lon="2.25277">
        <ele>45.4</ele>
        <time>2023-01-28T13:10:11Z</time>
      </trkpt>
      <trkpt lat="49.89955" lon="2.25277">
        <ele>45.4</ele>
        <time>2023-01-28T13:10:12Z</time>
      </trkpt>
      <trkpt lat="49.89956" lon="2.25276">
        <ele>45.2</ele>
        <time>2023-01-28T13:10:13Z</time>
      </trkpt>
      <trkpt lat="49.89958" lon="2.25275">
        <ele>45.3</ele>
        <time>2023-01-28T13:10:14Z</time>
      </trkpt>
      <trkpt lat="49.89959" lon="2.25274">
        <ele>45.1</ele>
        <time>2023-01-28T13:10:16Z</time>
      </trkpt>
      <trkpt lat="49.8996" lon="2.25274">
        <ele>45.1</ele>
        <time>2023-01-28T13:10:17Z</time>
      </trkpt>
      <trkpt lat="49.89961" lon="2.25272">
        <ele>44.9</ele>
        <time>2023-01-28T13:10:18Z</time>
      </trkpt>
      <trkpt lat="49.89962" lon="2.25273">
        <ele>44.9</ele>
        <time>2023-01-28T13:10:19Z</time>
      </trkpt>
      <trkpt lat="49.89963" lon="2.25272">
        <ele>44.8</ele>
        <time>2023-01-28T13:10:20Z</time>
      </trkpt>
      <trkpt lat="49.89964" lon="2.25272">
        <ele>44.6</ele>
        <time>2023-01-28T13:10:21Z</time>
      </trkpt>
      <trkpt lat="49.89965" lon="2.25272">
        <ele>44.6</ele>
        <time>2023-01-28T13:10:22Z</time>
      </trkpt>
      <trkpt lat="49.89966" lon="2.25272">
        <ele>44.6</ele>
        <time>2023-01-28T13:10:24Z</time>
      </trkpt>
      <trkpt lat="49.89967" lon="2.25272">
        <ele>44.4</ele>
        <time>2023-01-28T13:10:25Z</time>
      </trkpt>
      <trkpt lat="49.89968" lon="2.25272">
        <ele>44.4</ele>
        <time>2023-01-28T13:10:26Z</time>
      </trkpt>
      <trkpt lat="49.8997" lon="2.25272">
        <ele>44.2</ele>
        <time>2023-01-28T13:10:27Z</time>
      </trkpt>
      <trkpt lat="49.89971" lon="2.25272">
        <ele>44.2</ele>
        <time>2023-01-28T13:10:28Z</time>
      </trkpt>
      <trkpt lat="49.89972" lon="2.25272">
        <ele>44</ele>
        <time>2023-01-28T13:10:29Z</time>
      </trkpt>
      <trkpt lat="49.89973" lon="2.25272">
        <ele>44</ele>
        <time>2023-01-28T13:10:31Z</time>
      </trkpt>
      <trkpt lat="49.89974" lon="2.25272">
        <ele>44</ele>
        <time>2023-01-28T13:10:32Z</time>
      </trkpt>
      <trkpt lat="49.89976" lon="2.25272">
        <ele>43.7</ele>
        <time>2023-01-28T13:10:33Z</time>
      </trkpt>
      <trkpt lat="49.89977" lon="2.25272">
        <ele>43.7</ele>
        <time>2023-01-28T13:10:34Z</time>
      </trkpt>
      <trkpt lat="49.89978" lon="2.25272">
        <ele>43.5</ele>
        <time>2023-01-28T13:10:35Z</time>
      </trkpt>
      <trkpt lat="49.89979" lon="2.25272">
        <ele>43.5</ele>
        <time>2023-01-28T13:10:36Z</time>
      </trkpt>
      <trkpt lat="49.8998" lon="2.25272">
        <ele>43.5</ele>
        <time>2023-01-28T13:10:37Z</time>
      </trkpt>
      <trkpt lat="49.89981" lon="2.25272">
        <ele>43.3</ele>
        <time>2023-01-28T13:10:39Z</time>
      </trkpt>
      <trkpt lat="49.89982" lon="2.25272">
        <ele>43.3</ele>
        <time>2023-01-28T13:10:40Z</time>
      </trkpt>
      <trkpt lat="49.89983" lon="2.25273">
        <ele>43.2</ele>
        <time>2023-01-28T13:10:41Z</time>
      </trkpt>
      <trkpt lat="49.89984" lon="2.25273">
        <ele>43</ele>
        <time>2023-01-28T13:10:42Z</time>
      </trkpt>
      <trkpt lat="49.89985" lon="2.25274">
        <ele>43</ele>
        <time>2023-01-28T13:10:43Z</time>
      </trkpt>
      <trkpt lat="49.89986" lon="2.25274">
        <ele>42.7</ele>
        <time>2023-01-28T13:10:44Z</time>
      </trkpt>
      <trkpt lat="49.89987" lon="2.25274">
        <ele>42.7</ele>
        <time>2023-01-28T13:10:46Z</time>
      </trkpt>
      <trkpt lat="49.89988" lon="2.25275">
        <ele>42.7</ele>
        <time>2023-01-28T13:10:47Z</time>
      </trkpt>
      <trkpt lat="49.89989" lon="2.25276">
        <ele>42.4</ele>
        <time>2023-01-28T13:10:48Z</time>
      </trkpt>
      <trkpt lat="49.8999" lon="2.25276">
        <ele>42.4</ele>
        <time>2023-01-28T13:10:49Z</time>
      </trkpt>
      <trkpt lat="49.89992" lon="2.25277">
        <ele>42.1</ele>
        <time>2023-01-28T13:10:50Z</time>
      </trkpt>
      <trkpt lat="49.89993" lon="2.25277">
        <ele>42.1</ele>
        <time>2023-01-28T13:10:52Z</time>
      </trkpt>
      <trkpt lat="49.89994" lon="2.25278">
        <ele>42.1</ele>
        <time>2023-01-28T13:10:53Z</time>
      </trkpt>
      <trkpt lat="49.89994" lon="2.25278">
        <ele>42.1</ele>
        <time>2023-01-28T13:10:54Z</time>
      </trkpt>
      <trkpt lat="49.89995" lon="2.25278">
        <ele>41.8</ele>
        <time>2023-01-28T13:10:55Z</time>
      </trkpt>
      <trkpt lat="49.89996" lon="2.25279">
        <ele>41.8</ele>
        <time>2023-01-28T13:10:56Z</time>
      </trkpt>
      <trkpt lat="49.89997" lon="2.2528">
        <ele>41.7</ele>
        <time>2023-01-28T13:10:57Z</time>
      </trkpt>
      <trkpt lat="49.89998" lon="2.25281">
        <ele>41.5</ele>
        <time>2023-01-28T13:10:58Z</time>
      </trkpt>
      <trkpt lat="49.89999" lon="2.25282">
        <ele>41.5</ele>
        <time>2023-01-28T13:11:00Z</time>
      </trkpt>
      <trkpt lat="49.9" lon="2.25282">
        <ele>41.5</ele>
        <time>2023-01-28T13:11:01Z</time>
      </trkpt>
      <trkpt lat="49.9" lon="2.25283">
        <ele>41.2</ele>
        <time>2023-01-28T13:11:02Z</time>
      </trkpt>
      <trkpt lat="49.90001" lon="2.25285">
        <ele>41.1</ele>
        <time>2023-01-28T13:11:03Z</time>
      </trkpt>
      <trkpt lat="49.90001" lon="2.25286">
        <ele>41.1</ele>
        <time>2023-01-28T13:11:05Z</time>
      </trkpt>
      <trkpt lat="49.90002" lon="2.25287">
        <ele>41.1</ele>
        <time>2023-01-28T13:11:06Z</time>
      </trkpt>
      <trkpt lat="49.90003" lon="2.25288">
        <ele>40.8</ele>
        <time>2023-01-28T13:11:07Z</time>
      </trkpt>
      <trkpt lat="49.90004" lon="2.25289">
        <ele>40.7</ele>
        <time>2023-01-28T13:11:08Z</time>
      </trkpt>
      <trkpt lat="49.90005" lon="2.2529">
        <ele>40.7</ele>
        <time>2023-01-28T13:11:09Z</time>
      </trkpt>
      <trkpt lat="49.90005" lon="2.25291">
        <ele>40.7</ele>
        <time>2023-01-28T13:11:10Z</time>
      </trkpt>
      <trkpt lat="49.90006" lon="2.25292">
        <ele>40.5</ele>
        <time>2023-01-28T13:11:11Z</time>
      </trkpt>
      <trkpt lat="49.90007" lon="2.25292">
        <ele>40.4</ele>
        <time>2023-01-28T13:11:13Z</time>
      </trkpt>
      <trkpt lat="49.90007" lon="2.25293">
        <ele>40.4</ele>
        <time>2023-01-28T13:11:14Z</time>
      </trkpt>
      <trkpt lat="49.90008" lon="2.25294">
        <ele>40.1</ele>
        <time>2023-01-28T13:11:15Z</time>
      </trkpt>
      <trkpt lat="49.90009" lon="2.25295">
        <ele>40.1</ele>
        <time>2023-01-28T13:11:16Z</time>
      </trkpt>
      <trkpt lat="49.90011" lon="2.25297">
        <ele>39.8</ele>
        <time>2023-01-28T13:11:17Z</time>
      </trkpt>
      <trkpt lat="49.90012" lon="2.25298">
        <ele>39.8</ele>
        <time>2023-01-28T13:11:18Z</time>
      </trkpt>
      <trkpt lat="49.90012" lon="2.25299">
        <ele>39.8</ele>
        <time>2023-01-28T13:11:20Z</time>
      </trkpt>
      <trkpt lat="49.90013" lon="2.253">
        <ele>39.8</ele>
        <time>2023-01-28T13:11:21Z</time>
      </trkpt>
      <trkpt lat="49.90014" lon="2.253">
        <ele>39.5</ele>
        <time>2023-01-28T13:11:22Z</time>
      </trkpt>
      <trkpt lat="49.90015" lon="2.25301">
        <ele>39.4</ele>
        <time>2023-01-28T13:11:23Z</time>
      </trkpt>
      <trkpt lat="49.90016" lon="2.25304">
        <ele>39.4</ele>
        <time>2023-01-28T13:11:24Z</time>
      </trkpt>
      <trkpt lat="49.90016" lon="2.25305">
        <ele>39.4</ele>
        <time>2023-01-28T13:11:26Z</time>
      </trkpt>
      <trkpt lat="49.90017" lon="2.25306">
        <ele>39.1</ele>
        <time>2023-01-28T13:11:27Z</time>
      </trkpt>
      <trkpt lat="49.90017" lon="2.25307">
        <ele>39.1</ele>
        <time>2023-01-28T13:11:28Z</time>
      </trkpt>
      <trkpt lat="49.90017" lon="2.25308">
        <ele>39.1</ele>
        <time>2023-01-28T13:11:29Z</time>
      </trkpt>
      <trkpt lat="49.90018" lon="2.25309">
        <ele>39.1</ele>
        <time>2023-01-28T13:11:30Z</time>
      </trkpt>
      <trkpt lat="49.90018" lon="2.25311">
        <ele>39.1</ele>
        <time>2023-01-28T13:11:31Z</time>
      </trkpt>
      <trkpt lat="49.90019" lon="2.25314">
        <ele>39</ele>
        <time>2023-01-28T13:11:32Z</time>
      </trkpt>
      <trkpt lat="49.90019" lon="2.25316">
        <ele>38.7</ele>
        <time>2023-01-28T13:11:34Z</time>
      </trkpt>
      <trkpt lat="49.9002" lon="2.25317">
        <ele>38.7</ele>
        <time>2023-01-28T13:11:35Z</time>
      </trkpt>
      <trkpt lat="49.9002" lon="2.25318">
        <ele>38.7</ele>
        <time>2023-01-28T13:11:36Z</time>
      </trkpt>
      <trkpt lat="49.9002" lon="2.2532">
        <ele>38.7</ele>
        <time>2023-01-28T13:11:37Z</time>
      </trkpt>
      <trkpt lat="49.9002" lon="2.25321">
        <ele>38.7</ele>
        <time>2023-01-28T13:11:38Z</time>
      </trkpt>
      <trkpt lat="49.90021" lon="2.25323">
        <ele>38.7</ele>
        <time>2023-01-28T13:11:40Z</time>
      </trkpt>
      <trkpt lat="49.90022" lon="2.25324">
        <ele>38.7</ele>
        <time>2023-01-28T13:11:41Z</time>
      </trkpt>
      <trkpt lat="49.90022" lon="2.25325">
        <ele>38.4</ele>
        <time>2023-01-28T13:11:42Z</time>
      </trkpt>
      <trkpt lat="49.90023" lon="2.25326">
        <ele>38.4</ele>
        <time>2023-01-28T13:11:43Z</time>
      </trkpt>
      <trkpt lat="49.90023" lon="2.25327">
        <ele>38.4</ele>
        <time>2023-01-28T13:11:44Z</time>
      </trkpt>
      <trkpt lat="49.90023" lon="2.25328">
        <ele>38.3</ele>
        <time>2023-01-28T13:11:46Z</time>
      </trkpt>
      <trkpt lat="49.90023" lon="2.2533">
        <ele>38.3</ele>
        <time>2023-01-28T13:11:47Z</time>
      </trkpt>
      <trkpt lat="49.90023" lon="2.2533">
        <ele>38.3</ele>
        <time>2023-01-28T13:11:48Z</time>
      </trkpt>
      <trkpt lat="49.90023" lon="2.25331">
        <ele>38.3</ele>
        <time>2023-01-28T13:11:49Z</time>
      </trkpt>
      <trkpt lat="49.90023" lon="2.25332">
        <ele>38.3</ele>
        <time>2023-01-28T13:11:50Z</time>
      </trkpt>
      <trkpt lat="49.90023" lon="2.25332">
        <ele>38.3</ele>
        <time>2023-01-28T13:11:52Z</time>
      </trkpt>
      <trkpt lat="49.90024" lon="2.25333">
        <ele>38.3</ele>
        <time>2023-01-28T13:11:53Z</time>
      </trkpt>
      <trkpt lat="49.90024" lon="2.25334">
        <ele>38.3</ele>
        <time>2023-01-28T13:11:54Z</time>
      </trkpt>
      <trkpt lat="49.90024" lon="2.25333">
        <ele>38.3</ele>
        <time>2023-01-28T13:11:56Z</time>
      </trkpt>
      <trkpt lat="49.90024" lon="2.25334">
        <ele>38.3</ele>
        <time>2023-01-28T13:11:57Z</time>
      </trkpt>
      <trkpt lat="49.90025" lon="2.25334">
        <ele>38</ele>
        <time>2023-01-28T13:11:58Z</time>
      </trkpt>
      <trkpt lat="49.90026" lon="2.25334">
        <ele>38</ele>
        <time>2023-01-28T13:12:00Z</time>
      </trkpt>
      <trkpt lat="49.90026" lon="2.25333">
        <ele>38</ele>
        <time>2023-01-28T13:12:01Z</time>
      </trkpt>
      <trkpt lat="49.90027" lon="2.25333">
        <ele>38</ele>
        <time>2023-01-28T13:12:02Z</time>
      </trkpt>
      <trkpt lat="49.90027" lon="2.25334">
        <ele>38</ele>
        <time>2023-01-28T13:12:04Z</time>
      </trkpt>
      <trkpt lat="49.90027" lon="2.25334">
        <ele>38</ele>
        <time>2023-01-28T13:12:05Z</time>
      </trkpt>
      <trkpt lat="49.90027" lon="2.25335">
        <ele>38</ele>
        <time>2023-01-28T13:12:06Z</time>
      </trkpt>
      <trkpt lat="49.90027" lon="2.25336">
        <ele>37.9</ele>
        <time>2023-01-28T13:12:07Z</time>
      </trkpt>
      <trkpt lat="49.90027" lon="2.25337">
        <ele>37.9</ele>
        <time>2023-01-28T13:12:09Z</time>
      </trkpt>
      <trkpt lat="49.90027" lon="2.25338">
        <ele>37.9</ele>
        <time>2023-01-28T13:12:10Z</time>
      </trkpt>
      <trkpt lat="49.90026" lon="2.2534">
        <ele>37.9</ele>
        <time>2023-01-28T13:12:11Z</time>
      </trkpt>
      <trkpt lat="49.90026" lon="2.25341">
        <ele>37.9</ele>
        <time>2023-01-28T13:12:12Z</time>
      </trkpt>
      <trkpt lat="49.90025" lon="2.25343">
        <ele>37.9</ele>
        <time>2023-01-28T13:12:13Z</time>
      </trkpt>
      <trkpt lat="49.90025" lon="2.25344">
        <ele>38.1</ele>
        <time>2023-01-28T13:12:14Z</time>
      </trkpt>
      <trkpt lat="49.90024" lon="2.25344">
        <ele>38.1</ele>
        <time>2023-01-28T13:12:16Z</time>
      </trkpt>
      <trkpt lat="49.90024" lon="2.25345">
        <ele>38.1</ele>
        <time>2023-01-28T13:12:17Z</time>
      </trkpt>
      <trkpt lat="49.90024" lon="2.25347">
        <ele>38.1</ele>
        <time>2023-01-28T13:12:18Z</time>
      </trkpt>
      <trkpt lat="49.90024" lon="2.25347">
        <ele>38.1</ele>
        <time>2023-01-28T13:12:19Z</time>
      </trkpt>
      <trkpt lat="49.90024" lon="2.25348">
        <ele>38</ele>
        <time>2023-01-28T13:12:21Z</time>
      </trkpt>
      <trkpt lat="49.90024" lon="2.25349">
        <ele>38</ele>
        <time>2023-01-28T13:12:22Z</time>
      </trkpt>
      <trkpt lat="49.90024" lon="2.2535">
        <ele>38</ele>
        <time>2023-01-28T13:12:23Z</time>
      </trkpt>
      <trkpt lat="49.90025" lon="2.25352">
        <ele>38</ele>
        <time>2023-01-28T13:12:24Z</time>
      </trkpt>
      <trkpt lat="49.90025" lon="2.25352">
        <ele>37.7</ele>
        <time>2023-01-28T13:12:25Z</time>
      </trkpt>
      <trkpt lat="49.90027" lon="2.25351">
        <ele>37.7</ele>
        <time>2023-01-28T13:12:26Z</time>
      </trkpt>
      <trkpt lat="49.90027" lon="2.25351">
        <ele>37.5</ele>
        <time>2023-01-28T13:12:27Z</time>
      </trkpt>
      <trkpt lat="49.90028" lon="2.2535">
        <ele>37.5</ele>
        <time>2023-01-28T13:12:28Z</time>
      </trkpt>
      <trkpt lat="49.90029" lon="2.2535">
        <ele>37.5</ele>
        <time>2023-01-28T13:12:30Z</time>
      </trkpt>
      <trkpt lat="49.9003" lon="2.25349">
        <ele>37.5</ele>
        <time>2023-01-28T13:12:31Z</time>
      </trkpt>
      <trkpt lat="49.90031" lon="2.25349">
        <ele>37.2</ele>
        <time>2023-01-28T13:12:32Z</time>
      </trkpt>
      <trkpt lat="49.90032" lon="2.25349">
        <ele>37.2</ele>
        <time>2023-01-28T13:12:33Z</time>
      </trkpt>
      <trkpt lat="49.90032" lon="2.25348">
        <ele>37.3</ele>
        <time>2023-01-28T13:12:34Z</time>
      </trkpt>
      <trkpt lat="49.90033" lon="2.25348">
        <ele>37</ele>
        <time>2023-01-28T13:12:36Z</time>
      </trkpt>
      <trkpt lat="49.90034" lon="2.25348">
        <ele>37</ele>
        <time>2023-01-28T13:12:37Z</time>
      </trkpt>
      <trkpt lat="49.90035" lon="2.25349">
        <ele>37</ele>
        <time>2023-01-28T13:12:38Z</time>
      </trkpt>
      <trkpt lat="49.90036" lon="2.2535">
        <ele>36.7</ele>
        <time>2023-01-28T13:12:39Z</time>
      </trkpt>
      <trkpt lat="49.90037" lon="2.2535">
        <ele>36.7</ele>
        <time>2023-01-28T13:12:40Z</time>
      </trkpt>
      <trkpt lat="49.90038" lon="2.25351">
        <ele>36.7</ele>
        <time>2023-01-28T13:12:41Z</time>
      </trkpt>
      <trkpt lat="49.9004" lon="2.25353">
        <ele>36.4</ele>
        <time>2023-01-28T13:12:43Z</time>
      </trkpt>
      <trkpt lat="49.90041" lon="2.25354">
        <ele>36.4</ele>
        <time>2023-01-28T13:12:44Z</time>
      </trkpt>
      <trkpt lat="49.90041" lon="2.25354">
        <ele>36.2</ele>
        <time>2023-01-28T13:12:45Z</time>
      </trkpt>
      <trkpt lat="49.90042" lon="2.25355">
        <ele>36.2</ele>
        <time>2023-01-28T13:12:46Z</time>
      </trkpt>
      <trkpt lat="49.90043" lon="2.25356">
        <ele>36.2</ele>
        <time>2023-01-28T13:12:47Z</time>
      </trkpt>
      <trkpt lat="49.90043" lon="2.25357">
        <ele>36.1</ele>
        <time>2023-01-28T13:12:48Z</time>
      </trkpt>
      <trkpt lat="49.90044" lon="2.25359">
        <ele>36.1</ele>
        <time>2023-01-28T13:12:50Z</time>
      </trkpt>
      <trkpt lat="49.90044" lon="2.2536">
        <ele>35.9</ele>
        <time>2023-01-28T13:12:51Z</time>
      </trkpt>
      <trkpt lat="49.90045" lon="2.25361">
        <ele>35.8</ele>
        <time>2023-01-28T13:12:52Z</time>
      </trkpt>
      <trkpt lat="49.90045" lon="2.25363">
        <ele>35.8</ele>
        <time>2023-01-28T13:12:53Z</time>
      </trkpt>
      <trkpt lat="49.90046" lon="2.25365">
        <ele>35.8</ele>
        <time>2023-01-28T13:12:54Z</time>
      </trkpt>
      <trkpt lat="49.90046" lon="2.25366">
        <ele>35.7</ele>
        <time>2023-01-28T13:12:55Z</time>
      </trkpt>
      <trkpt lat="49.90046" lon="2.25367">
        <ele>35.7</ele>
        <time>2023-01-28T13:12:56Z</time>
      </trkpt>
      <trkpt lat="49.90047" lon="2.25369">
        <ele>35.5</ele>
        <time>2023-01-28T13:12:58Z</time>
      </trkpt>
      <trkpt lat="49.90048" lon="2.2537">
        <ele>35.4</ele>
        <time>2023-01-28T13:12:59Z</time>
      </trkpt>
      <trkpt lat="49.90048" lon="2.25371">
        <ele>35.4</ele>
        <time>2023-01-28T13:13:00Z</time>
      </trkpt>
      <trkpt lat="49.90049" lon="2.25372">
        <ele>35.4</ele>
        <time>2023-01-28T13:13:01Z</time>
      </trkpt>
      <trkpt lat="49.9005" lon="2.25373">
        <ele>35.2</ele>
        <time>2023-01-28T13:13:02Z</time>
      </trkpt>
      <trkpt lat="49.90051" lon="2.25374">
        <ele>35.1</ele>
        <time>2023-01-28T13:13:04Z</time>
      </trkpt>
      <trkpt lat="49.90051" lon="2.25375">
        <ele>35.1</ele>
        <time>2023-01-28T13:13:05Z</time>
      </trkpt>
      <trkpt lat="49.90052" lon="2.25376">
        <ele>35</ele>
        <time>2023-01-28T13:13:07Z</time>
      </trkpt>
      <trkpt lat="49.90052" lon="2.25376">
        <ele>34.8</ele>
        <time>2023-01-28T13:13:08Z</time>
      </trkpt>
      <trkpt lat="49.90052" lon="2.25375">
        <ele>35</ele>
        <time>2023-01-28T13:13:10Z</time>
      </trkpt>
      <trkpt lat="49.90052" lon="2.25375">
        <ele>35</ele>
        <time>2023-01-28T13:13:11Z</time>
      </trkpt>
      <trkpt lat="49.90051" lon="2.25375">
        <ele>35</ele>
        <time>2023-01-28T13:13:12Z</time>
      </trkpt>
      <trkpt lat="49.90051" lon="2.25374">
        <ele>35</ele>
        <time>2023-01-28T13:13:13Z</time>
      </trkpt>
      <trkpt lat="49.90051" lon="2.25375">
        <ele>35</ele>
        <time>2023-01-28T13:13:14Z</time>
      </trkpt>
      <trkpt lat="49.90051" lon="2.25375">
        <ele>35</ele>
        <time>2023-01-28T13:13:16Z</time>
      </trkpt>
      <trkpt lat="49.90051" lon="2.25375">
        <ele>35</ele>
        <time>2023-01-28T13:13:17Z</time>
      </trkpt>
      <trkpt lat="49.90052" lon="2.25376">
        <ele>35</ele>
        <time>2023-01-28T13:13:18Z</time>
      </trkpt>
      <trkpt lat="49.90053" lon="2.25377">
        <ele>34.8</ele>
        <time>2023-01-28T13:13:19Z</time>
      </trkpt>
      <trkpt lat="49.90053" lon="2.25378">
        <ele>34.8</ele>
        <time>2023-01-28T13:13:20Z</time>
      </trkpt>
      <trkpt lat="49.90055" lon="2.2538">
        <ele>34.7</ele>
        <time>2023-01-28T13:13:21Z</time>
      </trkpt>
      <trkpt lat="49.90055" lon="2.25381">
        <ele>34.5</ele>
        <time>2023-01-28T13:13:22Z</time>
      </trkpt>
      <trkpt lat="49.90056" lon="2.25382">
        <ele>34.5</ele>
        <time>2023-01-28T13:13:23Z</time>
      </trkpt>
      <trkpt lat="49.90057" lon="2.25385">
        <ele>34.4</ele>
        <time>2023-01-28T13:13:25Z</time>
      </trkpt>
      <trkpt lat="49.90058" lon="2.25386">
        <ele>34.4</ele>
        <time>2023-01-28T13:13:26Z</time>
      </trkpt>
      <trkpt lat="49.90058" lon="2.25387">
        <ele>34.2</ele>
        <time>2023-01-28T13:13:27Z</time>
      </trkpt>
      <trkpt lat="49.90059" lon="2.25389">
        <ele>34.1</ele>
        <time>2023-01-28T13:13:28Z</time>
      </trkpt>
      <trkpt lat="49.90061" lon="2.25392">
        <ele>34</ele>
        <time>2023-01-28T13:13:30Z</time>
      </trkpt>
      <trkpt lat="49.90061" lon="2.25393">
        <ele>33.9</ele>
        <time>2023-01-28T13:13:31Z</time>
      </trkpt>
      <trkpt lat="49.90062" lon="2.25394">
        <ele>33.9</ele>
        <time>2023-01-28T13:13:32Z</time>
      </trkpt>
      <trkpt lat="49.90062" lon="2.25396">
        <ele>33.8</ele>
        <time>2023-01-28T13:13:33Z</time>
      </trkpt>
      <trkpt lat="49.90063" lon="2.25398">
        <ele>33.8</ele>
        <time>2023-01-28T13:13:34Z</time>
      </trkpt>
      <trkpt lat="49.90063" lon="2.254">
        <ele>33.8</ele>
        <time>2023-01-28T13:13:35Z</time>
      </trkpt>
      <trkpt lat="49.90064" lon="2.25401">
        <ele>33.6</ele>
        <time>2023-01-28T13:13:37Z</time>
      </trkpt>
      <trkpt lat="49.90064" lon="2.25403">
        <ele>33.6</ele>
        <time>2023-01-28T13:13:38Z</time>
      </trkpt>
      <trkpt lat="49.90065" lon="2.25405">
        <ele>33.5</ele>
        <time>2023-01-28T13:13:39Z</time>
      </trkpt>
      <trkpt lat="49.90065" lon="2.25406">
        <ele>33.5</ele>
        <time>2023-01-28T13:13:40Z</time>
      </trkpt>
      <trkpt lat="49.90066" lon="2.25407">
        <ele>33.5</ele>
        <time>2023-01-28T13:13:41Z</time>
      </trkpt>
      <trkpt lat="49.90067" lon="2.2541">
        <ele>33.4</ele>
        <time>2023-01-28T13:13:43Z</time>
      </trkpt>
      <trkpt lat="49.90068" lon="2.25412">
        <ele>33.4</ele>
        <time>2023-01-28T13:13:45Z</time>
      </trkpt>
      <trkpt lat="49.90068" lon="2.25415">
        <ele>33.3</ele>
        <time>2023-01-28T13:13:46Z</time>
      </trkpt>
      <trkpt lat="49.90069" lon="2.25417">
        <ele>33.3</ele>
        <time>2023-01-28T13:13:47Z</time>
      </trkpt>
      <trkpt lat="49.90069" lon="2.25418">
        <ele>33.2</ele>
        <time>2023-01-28T13:13:48Z</time>
      </trkpt>
      <trkpt lat="49.9007" lon="2.25421">
        <ele>33.2</ele>
        <time>2023-01-28T13:13:50Z</time>
      </trkpt>
      <trkpt lat="49.90071" lon="2.25423">
        <ele>33.1</ele>
        <time>2023-01-28T13:13:51Z</time>
      </trkpt>
      <trkpt lat="49.90072" lon="2.25425">
        <ele>33.1</ele>
        <time>2023-01-28T13:13:52Z</time>
      </trkpt>
      <trkpt lat="49.90072" lon="2.25426">
        <ele>33.1</ele>
        <time>2023-01-28T13:13:53Z</time>
      </trkpt>
      <trkpt lat="49.90073" lon="2.2543">
        <ele>33.1</ele>
        <time>2023-01-28T13:13:54Z</time>
      </trkpt>
      <trkpt lat="49.90074" lon="2.25432">
        <ele>33.1</ele>
        <time>2023-01-28T13:13:56Z</time>
      </trkpt>
      <trkpt lat="49.90074" lon="2.25433">
        <ele>33.1</ele>
        <time>2023-01-28T13:13:57Z</time>
      </trkpt>
      <trkpt lat="49.90074" lon="2.25434">
        <ele>33.1</ele>
        <time>2023-01-28T13:13:58Z</time>
      </trkpt>
      <trkpt lat="49.90075" lon="2.25436">
        <ele>33.1</ele>
        <time>2023-01-28T13:13:59Z</time>
      </trkpt>
      <trkpt lat="49.90075" lon="2.25439">
        <ele>33.1</ele>
        <time>2023-01-28T13:14:00Z</time>
      </trkpt>
      <trkpt lat="49.90076" lon="2.2544">
        <ele>33.1</ele>
        <time>2023-01-28T13:14:01Z</time>
      </trkpt>
      <trkpt lat="49.90076" lon="2.25442">
        <ele>33.1</ele>
        <time>2023-01-28T13:14:02Z</time>
      </trkpt>
      <trkpt lat="49.90076" lon="2.25444">
        <ele>33.1</ele>
        <time>2023-01-28T13:14:03Z</time>
      </trkpt>
      <trkpt lat="49.90077" lon="2.25447">
        <ele>33.1</ele>
        <time>2023-01-28T13:14:05Z</time>
      </trkpt>
      <trkpt lat="49.90077" lon="2.25449">
        <ele>33.1</ele>
        <time>2023-01-28T13:14:06Z</time>
      </trkpt>
      <trkpt lat="49.90077" lon="2.2545">
        <ele>33.2</ele>
        <time>2023-01-28T13:14:07Z</time>
      </trkpt>
      <trkpt lat="49.90078" lon="2.25452">
        <ele>33.2</ele>
        <time>2023-01-28T13:14:08Z</time>
      </trkpt>
      <trkpt lat="49.90079" lon="2.25455">
        <ele>33.2</ele>
        <time>2023-01-28T13:14:09Z</time>
      </trkpt>
      <trkpt lat="49.90079" lon="2.25457">
        <ele>33.2</ele>
        <time>2023-01-28T13:14:11Z</time>
      </trkpt>
      <trkpt lat="49.9008" lon="2.25458">
        <ele>33.2</ele>
        <time>2023-01-28T13:14:12Z</time>
      </trkpt>
      <trkpt lat="49.9008" lon="2.25459">
        <ele>33.3</ele>
        <time>2023-01-28T13:14:14Z</time>
      </trkpt>
      <trkpt lat="49.90081" lon="2.25461">
        <ele>33.4</ele>
        <time>2023-01-28T13:14:15Z</time>
      </trkpt>
      <trkpt lat="49.90082" lon="2.25461">
        <ele>33.4</ele>
        <time>2023-01-28T13:14:16Z</time>
      </trkpt>
      <trkpt lat="49.90082" lon="2.25462">
        <ele>33.3</ele>
        <time>2023-01-28T13:14:17Z</time>
      </trkpt>
      <trkpt lat="49.90083" lon="2.25462">
        <ele>33.5</ele>
        <time>2023-01-28T13:14:18Z</time>
      </trkpt>
      <trkpt lat="49.90084" lon="2.25463">
        <ele>33.5</ele>
        <time>2023-01-28T13:14:19Z</time>
      </trkpt>
      <trkpt lat="49.90085" lon="2.25463">
        <ele>33.5</ele>
        <time>2023-01-28T13:14:21Z</time>
      </trkpt>
      <trkpt lat="49.90086" lon="2.25463">
        <ele>33.6</ele>
        <time>2023-01-28T13:14:22Z</time>
      </trkpt>
      <trkpt lat="49.90087" lon="2.25463">
        <ele>33.6</ele>
        <time>2023-01-28T13:14:23Z</time>
      </trkpt>
      <trkpt lat="49.90088" lon="2.25464">
        <ele>33.6</ele>
        <time>2023-01-28T13:14:24Z</time>
      </trkpt>
      <trkpt lat="49.90088" lon="2.25464">
        <ele>33.6</ele>
        <time>2023-01-28T13:14:25Z</time>
      </trkpt>
      <trkpt lat="49.90088" lon="2.25464">
        <ele>33.8</ele>
        <time>2023-01-28T13:14:26Z</time>
      </trkpt>
      <trkpt lat="49.90089" lon="2.25464">
        <ele>33.8</ele>
        <time>2023-01-28T13:14:27Z</time>
      </trkpt>
      <trkpt lat="49.90089" lon="2.25464">
        <ele>33.8</ele>
        <time>2023-01-28T13:14:28Z</time>
      </trkpt>
      <trkpt lat="49.9009" lon="2.25465">
        <ele>33.8</ele>
        <time>2023-01-28T13:14:30Z</time>
      </trkpt>
      <trkpt lat="49.90091" lon="2.25465">
        <ele>33.8</ele>
        <time>2023-01-28T13:14:31Z</time>
      </trkpt>
      <trkpt lat="49.90091" lon="2.25465">
        <ele>33.8</ele>
        <time>2023-01-28T13:14:32Z</time>
      </trkpt>
      <trkpt lat="49.90092" lon="2.25465">
        <ele>34</ele>
        <time>2023-01-28T13:14:33Z</time>
      </trkpt>
      <trkpt lat="49.90092" lon="2.25465">
        <ele>34</ele>
        <time>2023-01-28T13:14:35Z</time>
      </trkpt>
      <trkpt lat="49.90093" lon="2.25465">
        <ele>34</ele>
        <time>2023-01-28T13:14:36Z</time>
      </trkpt>
      <trkpt lat="49.90093" lon="2.25464">
        <ele>34</ele>
        <time>2023-01-28T13:14:37Z</time>
      </trkpt>
      <trkpt lat="49.90093" lon="2.25463">
        <ele>34</ele>
        <time>2023-01-28T13:14:38Z</time>
      </trkpt>
      <trkpt lat="49.90093" lon="2.25462">
        <ele>34</ele>
        <time>2023-01-28T13:14:40Z</time>
      </trkpt>
      <trkpt lat="49.90093" lon="2.25461">
        <ele>34</ele>
        <time>2023-01-28T13:14:41Z</time>
      </trkpt>
      <trkpt lat="49.90093" lon="2.25461">
        <ele>34</ele>
        <time>2023-01-28T13:14:43Z</time>
      </trkpt>
      <trkpt lat="49.90094" lon="2.2546">
        <ele>34</ele>
        <time>2023-01-28T13:14:45Z</time>
      </trkpt>
      <trkpt lat="49.90094" lon="2.25459">
        <ele>34</ele>
        <time>2023-01-28T13:14:46Z</time>
      </trkpt>
      <trkpt lat="49.90094" lon="2.25458">
        <ele>34</ele>
        <time>2023-01-28T13:14:47Z</time>
      </trkpt>
      <trkpt lat="49.90094" lon="2.25457">
        <ele>34</ele>
        <time>2023-01-28T13:14:49Z</time>
      </trkpt>
      <trkpt lat="49.90093" lon="2.25456">
        <ele>34</ele>
        <time>2023-01-28T13:14:51Z</time>
      </trkpt>
      <trkpt lat="49.90093" lon="2.25456">
        <ele>33.9</ele>
        <time>2023-01-28T13:14:52Z</time>
      </trkpt>
      <trkpt lat="49.90091" lon="2.25457">
        <ele>33.9</ele>
        <time>2023-01-28T13:14:54Z</time>
      </trkpt>
      <trkpt lat="49.90091" lon="2.25458">
        <ele>33.7</ele>
        <time>2023-01-28T13:14:55Z</time>
      </trkpt>
      <trkpt lat="49.90091" lon="2.25458">
        <ele>33.7</ele>
        <time>2023-01-28T13:14:56Z</time>
      </trkpt>
      <trkpt lat="49.90091" lon="2.25457">
        <ele>33.7</ele>
        <time>2023-01-28T13:14:58Z</time>
      </trkpt>
      <trkpt lat="49.90091" lon="2.25457">
        <ele>33.9</ele>
        <time>2023-01-28T13:14:59Z</time>
      </trkpt>
      <trkpt lat="49.90091" lon="2.25457">
        <ele>33.9</ele>
        <time>2023-01-28T13:15:01Z</time>
      </trkpt>
      <trkpt lat="49.90091" lon="2.25457">
        <ele>33.9</ele>
        <time>2023-01-28T13:15:02Z</time>
      </trkpt>
      <trkpt lat="49.90091" lon="2.25457">
        <ele>33.9</ele>
        <time>2023-01-28T13:15:03Z</time>
      </trkpt>
      <trkpt lat="49.90092" lon="2.25456">
        <ele>33.9</ele>
        <time>2023-01-28T13:15:04Z</time>
      </trkpt>
      <trkpt lat="49.90092" lon="2.25456">
        <ele>33.9</ele>
        <time>2023-01-28T13:15:06Z</time>
      </trkpt>
      <trkpt lat="49.90092" lon="2.25456">
        <ele>33.9</ele>
        <time>2023-01-28T13:15:08Z</time>
      </trkpt>
      <trkpt lat="49.90092" lon="2.25456">
        <ele>33.9</ele>
        <time>2023-01-28T13:15:09Z</time>
      </trkpt>
      <trkpt lat="49.90092" lon="2.25456">
        <ele>33.9</ele>
        <time>2023-01-28T13:15:10Z</time>
      </trkpt>
      <trkpt lat="49.90092" lon="2.25455">
        <ele>33.9</ele>
        <time>2023-01-28T13:15:11Z</time>
      </trkpt>
      <trkpt lat="49.90092" lon="2.25455">
        <ele>33.9</ele>
        <time>2023-01-28T13:15:12Z</time>
      </trkpt>
      <trkpt lat="49.90092" lon="2.25455">
        <ele>33.9</ele>
        <time>2023-01-28T13:15:13Z</time>
      </trkpt>
      <trkpt lat="49.90093" lon="2.25455">
        <ele>33.9</ele>
        <time>2023-01-28T13:15:14Z</time>
      </trkpt>
      <trkpt lat="49.90093" lon="2.25454">
        <ele>33.9</ele>
        <time>2023-01-28T13:15:15Z</time>
      </trkpt>
      <trkpt lat="49.90093" lon="2.25454">
        <ele>33.9</ele>
        <time>2023-01-28T13:15:16Z</time>
      </trkpt>
      <trkpt lat="49.90093" lon="2.25454">
        <ele>33.9</ele>
        <time>2023-01-28T13:15:17Z</time>
      </trkpt>
      <trkpt lat="49.90093" lon="2.25454">
        <ele>33.9</ele>
        <time>2023-01-28T13:15:18Z</time>
      </trkpt>
      <trkpt lat="49.90093" lon="2.25454">
        <ele>33.9</ele>
        <time>2023-01-28T13:15:19Z</time>
      </trkpt>
      <trkpt lat="49.90097" lon="2.25455">
        <ele>34.3</ele>
        <time>2023-01-28T13:15:21Z</time>
      </trkpt>
      <trkpt lat="49.90101" lon="2.25456">
        <ele>34.5</ele>
        <time>2023-01-28T13:15:22Z</time>
      </trkpt>
      <trkpt lat="49.90104" lon="2.25456">
        <ele>34.7</ele>
        <time>2023-01-28T13:15:23Z</time>
      </trkpt>
      <trkpt lat="49.90106" lon="2.25456">
        <ele>35</ele>
        <time>2023-01-28T13:15:24Z</time>
      </trkpt>
      <trkpt lat="49.90106" lon="2.25456">
        <ele>35</ele>
        <time>2023-01-28T13:15:25Z</time>
      </trkpt>
      <trkpt lat="49.90107" lon="2.25455">
        <ele>35</ele>
        <time>2023-01-28T13:15:26Z</time>
      </trkpt>
      <trkpt lat="49.90109" lon="2.25455">
        <ele>35.2</ele>
        <time>2023-01-28T13:15:28Z</time>
      </trkpt>
      <trkpt lat="49.90109" lon="2.25455">
        <ele>35.2</ele>
        <time>2023-01-28T13:15:29Z</time>
      </trkpt>
      <trkpt lat="49.90111" lon="2.25454">
        <ele>35.4</ele>
        <time>2023-01-28T13:15:31Z</time>
      </trkpt>
      <trkpt lat="49.90111" lon="2.25454">
        <ele>35.4</ele>
        <time>2023-01-28T13:15:32Z</time>
      </trkpt>
      <trkpt lat="49.90111" lon="2.25454">
        <ele>35.4</ele>
        <time>2023-01-28T13:15:34Z</time>
      </trkpt>
      <trkpt lat="49.90111" lon="2.25455">
        <ele>35.4</ele>
        <time>2023-01-28T13:15:35Z</time>
      </trkpt>
      <trkpt lat="49.90111" lon="2.25454">
        <ele>35.4</ele>
        <time>2023-01-28T13:15:36Z</time>
      </trkpt>
      <trkpt lat="49.9011" lon="2.25455">
        <ele>35.2</ele>
        <time>2023-01-28T13:15:37Z</time>
      </trkpt>
      <trkpt lat="49.9011" lon="2.25455">
        <ele>35.2</ele>
        <time>2023-01-28T13:15:38Z</time>
      </trkpt>
      <trkpt lat="49.90111" lon="2.25455">
        <ele>35.4</ele>
        <time>2023-01-28T13:15:39Z</time>
      </trkpt>
      <trkpt lat="49.90111" lon="2.25454">
        <ele>35.4</ele>
        <time>2023-01-28T13:15:40Z</time>
      </trkpt>
      <trkpt lat="49.90112" lon="2.25453">
        <ele>35.4</ele>
        <time>2023-01-28T13:15:42Z</time>
      </trkpt>
      <trkpt lat="49.90112" lon="2.25453">
        <ele>35.4</ele>
        <time>2023-01-28T13:15:44Z</time>
      </trkpt>
      <trkpt lat="49.90112" lon="2.25453">
        <ele>35.4</ele>
        <time>2023-01-28T13:15:45Z</time>
      </trkpt>
      <trkpt lat="49.90112" lon="2.25452">
        <ele>35.4</ele>
        <time>2023-01-28T13:15:46Z</time>
      </trkpt>
      <trkpt lat="49.90112" lon="2.25452">
        <ele>35.4</ele>
        <time>2023-01-28T13:15:48Z</time>
      </trkpt>
      <trkpt lat="49.90113" lon="2.25452">
        <ele>35.4</ele>
        <time>2023-01-28T13:15:49Z</time>
      </trkpt>
      <trkpt lat="49.90113" lon="2.25451">
        <ele>35.4</ele>
        <time>2023-01-28T13:15:50Z</time>
      </trkpt>
      <trkpt lat="49.90113" lon="2.25451">
        <ele>35.4</ele>
        <time>2023-01-28T13:15:52Z</time>
      </trkpt>
      <trkpt lat="49.90113" lon="2.25451">
        <ele>35.4</ele>
        <time>2023-01-28T13:15:53Z</time>
      </trkpt>
      <trkpt lat="49.90113" lon="2.2545">
        <ele>35.4</ele>
        <time>2023-01-28T13:15:54Z</time>
      </trkpt>
      <trkpt lat="49.90113" lon="2.2545">
        <ele>35.6</ele>
        <time>2023-01-28T13:15:55Z</time>
      </trkpt>
      <trkpt lat="49.90113" lon="2.2545">
        <ele>35.6</ele>
        <time>2023-01-28T13:15:56Z</time>
      </trkpt>
      <trkpt lat="49.90113" lon="2.2545">
        <ele>35.6</ele>
        <time>2023-01-28T13:15:58Z</time>
      </trkpt>
      <trkpt lat="49.90114" lon="2.25449">
        <ele>35.6</ele>
        <time>2023-01-28T13:15:59Z</time>
      </trkpt>
      <trkpt lat="49.90116" lon="2.25447">
        <ele>35.7</ele>
        <time>2023-01-28T13:16:00Z</time>
      </trkpt>
      <trkpt lat="49.90117" lon="2.25446">
        <ele>35.9</ele>
        <time>2023-01-28T13:16:01Z</time>
      </trkpt>
      <trkpt lat="49.90118" lon="2.25445">
        <ele>35.9</ele>
        <time>2023-01-28T13:16:02Z</time>
      </trkpt>
      <trkpt lat="49.9012" lon="2.25444">
        <ele>36.2</ele>
        <time>2023-01-28T13:16:03Z</time>
      </trkpt>
      <trkpt lat="49.90121" lon="2.25444">
        <ele>36.2</ele>
        <time>2023-01-28T13:16:05Z</time>
      </trkpt>
      <trkpt lat="49.90123" lon="2.25443">
        <ele>36.4</ele>
        <time>2023-01-28T13:16:06Z</time>
      </trkpt>
      <trkpt lat="49.90125" lon="2.25444">
        <ele>36.6</ele>
        <time>2023-01-28T13:16:07Z</time>
      </trkpt>
      <trkpt lat="49.90125" lon="2.25444">
        <ele>36.6</ele>
        <time>2023-01-28T13:16:08Z</time>
      </trkpt>
      <trkpt lat="49.90126" lon="2.25445">
        <ele>36.6</ele>
        <time>2023-01-28T13:16:09Z</time>
      </trkpt>
      <trkpt lat="49.90128" lon="2.25443">
        <ele>36.5</ele>
        <time>2023-01-28T13:16:11Z</time>
      </trkpt>
      <trkpt lat="49.90128" lon="2.25441">
        <ele>36.5</ele>
        <time>2023-01-28T13:16:13Z</time>
      </trkpt>
      <trkpt lat="49.90127" lon="2.25438">
        <ele>36.5</ele>
        <time>2023-01-28T13:16:14Z</time>
      </trkpt>
      <trkpt lat="49.90126" lon="2.25435">
        <ele>36.5</ele>
        <time>2023-01-28T13:16:16Z</time>
      </trkpt>
      <trkpt lat="49.90126" lon="2.25434">
        <ele>36.4</ele>
        <time>2023-01-28T13:16:17Z</time>
      </trkpt>
      <trkpt lat="49.90125" lon="2.25434">
        <ele>36.4</ele>
        <time>2023-01-28T13:16:19Z</time>
      </trkpt>
      <trkpt lat="49.90124" lon="2.25434">
        <ele>36.4</ele>
        <time>2023-01-28T13:16:20Z</time>
      </trkpt>
      <trkpt lat="49.90124" lon="2.25433">
        <ele>36.4</ele>
        <time>2023-01-28T13:16:22Z</time>
      </trkpt>
      <trkpt lat="49.90124" lon="2.25433">
        <ele>36.4</ele>
        <time>2023-01-28T13:16:23Z</time>
      </trkpt>
      <trkpt lat="49.90124" lon="2.25434">
        <ele>36.4</ele>
        <time>2023-01-28T13:16:24Z</time>
      </trkpt>
      <trkpt lat="49.90124" lon="2.25434">
        <ele>36.4</ele>
        <time>2023-01-28T13:16:25Z</time>
      </trkpt>
      <trkpt lat="49.90124" lon="2.25434">
        <ele>36.4</ele>
        <time>2023-01-28T13:16:27Z</time>
      </trkpt>
      <trkpt lat="49.90124" lon="2.25435">
        <ele>36.4</ele>
        <time>2023-01-28T13:16:29Z</time>
      </trkpt>
      <trkpt lat="49.90124" lon="2.25435">
        <ele>36.4</ele>
        <time>2023-01-28T13:16:30Z</time>
      </trkpt>
      <trkpt lat="49.90124" lon="2.25435">
        <ele>36.4</ele>
        <time>2023-01-28T13:16:32Z</time>
      </trkpt>
      <trkpt lat="49.90124" lon="2.25435">
        <ele>36.4</ele>
        <time>2023-01-28T13:16:33Z</time>
      </trkpt>
      <trkpt lat="49.90124" lon="2.25436">
        <ele>36.4</ele>
        <time>2023-01-28T13:16:34Z</time>
      </trkpt>
      <trkpt lat="49.90124" lon="2.25436">
        <ele>36.4</ele>
        <time>2023-01-28T13:16:35Z</time>
      </trkpt>
      <trkpt lat="49.90124" lon="2.25437">
        <ele>36.4</ele>
        <time>2023-01-28T13:16:36Z</time>
      </trkpt>
      <trkpt lat="49.90125" lon="2.25438">
        <ele>36.3</ele>
        <time>2023-01-28T13:16:37Z</time>
      </trkpt>
      <trkpt lat="49.90125" lon="2.25436">
        <ele>36.3</ele>
        <time>2023-01-28T13:16:38Z</time>
      </trkpt>
      <trkpt lat="49.90125" lon="2.25435">
        <ele>36.3</ele>
        <time>2023-01-28T13:16:39Z</time>
      </trkpt>
      <trkpt lat="49.90125" lon="2.25435">
        <ele>36.3</ele>
        <time>2023-01-28T13:16:41Z</time>
      </trkpt>
      <trkpt lat="49.90125" lon="2.25435">
        <ele>36.3</ele>
        <time>2023-01-28T13:16:42Z</time>
      </trkpt>
      <trkpt lat="49.90125" lon="2.25434">
        <ele>36.3</ele>
        <time>2023-01-28T13:16:43Z</time>
      </trkpt>
      <trkpt lat="49.90125" lon="2.25433">
        <ele>36.3</ele>
        <time>2023-01-28T13:16:44Z</time>
      </trkpt>
      <trkpt lat="49.90125" lon="2.2543">
        <ele>36.3</ele>
        <time>2023-01-28T13:16:45Z</time>
      </trkpt>
      <trkpt lat="49.90124" lon="2.25429">
        <ele>36.3</ele>
        <time>2023-01-28T13:16:47Z</time>
      </trkpt>
      <trkpt lat="49.90124" lon="2.25428">
        <ele>36.3</ele>
        <time>2023-01-28T13:16:48Z</time>
      </trkpt>
      <trkpt lat="49.90124" lon="2.25426">
        <ele>36.3</ele>
        <time>2023-01-28T13:16:49Z</time>
      </trkpt>
      <trkpt lat="49.90124" lon="2.25425">
        <ele>36.3</ele>
        <time>2023-01-28T13:16:50Z</time>
      </trkpt>
      <trkpt lat="49.90124" lon="2.25423">
        <ele>36.3</ele>
        <time>2023-01-28T13:16:51Z</time>
      </trkpt>
      <trkpt lat="49.90123" lon="2.25421">
        <ele>36.3</ele>
        <time>2023-01-28T13:16:52Z</time>
      </trkpt>
      <trkpt lat="49.90122" lon="2.2542">
        <ele>36.3</ele>
        <time>2023-01-28T13:16:53Z</time>
      </trkpt>
      <trkpt lat="49.90122" lon="2.25419">
        <ele>36.2</ele>
        <time>2023-01-28T13:16:54Z</time>
      </trkpt>
      <trkpt lat="49.90121" lon="2.25417">
        <ele>36.2</ele>
        <time>2023-01-28T13:16:56Z</time>
      </trkpt>
      <trkpt lat="49.9012" lon="2.25416">
        <ele>36.2</ele>
        <time>2023-01-28T13:16:57Z</time>
      </trkpt>
      <trkpt lat="49.9012" lon="2.25415">
        <ele>36.2</ele>
        <time>2023-01-28T13:16:58Z</time>
      </trkpt>
      <trkpt lat="49.90119" lon="2.25411">
        <ele>36.2</ele>
        <time>2023-01-28T13:16:59Z</time>
      </trkpt>
      <trkpt lat="49.90118" lon="2.2541">
        <ele>36.2</ele>
        <time>2023-01-28T13:17:00Z</time>
      </trkpt>
      <trkpt lat="49.90118" lon="2.25408">
        <ele>36.2</ele>
        <time>2023-01-28T13:17:01Z</time>
      </trkpt>
      <trkpt lat="49.90118" lon="2.25405">
        <ele>36.2</ele>
        <time>2023-01-28T13:17:03Z</time>
      </trkpt>
      <trkpt lat="49.90118" lon="2.25404">
        <ele>36.2</ele>
        <time>2023-01-28T13:17:04Z</time>
      </trkpt>
      <trkpt lat="49.90117" lon="2.25403">
        <ele>36.2</ele>
        <time>2023-01-28T13:17:05Z</time>
      </trkpt>
      <trkpt lat="49.90117" lon="2.254">
        <ele>36.2</ele>
        <time>2023-01-28T13:17:06Z</time>
      </trkpt>
      <trkpt lat="49.90117" lon="2.25398">
        <ele>36.2</ele>
        <time>2023-01-28T13:17:07Z</time>
      </trkpt>
      <trkpt lat="49.90117" lon="2.25394">
        <ele>36.2</ele>
        <time>2023-01-28T13:17:08Z</time>
      </trkpt>
      <trkpt lat="49.90117" lon="2.25393">
        <ele>36.2</ele>
        <time>2023-01-28T13:17:10Z</time>
      </trkpt>
      <trkpt lat="49.90117" lon="2.25391">
        <ele>36.2</ele>
        <time>2023-01-28T13:17:11Z</time>
      </trkpt>
      <trkpt lat="49.90117" lon="2.2539">
        <ele>36.2</ele>
        <time>2023-01-28T13:17:12Z</time>
      </trkpt>
      <trkpt lat="49.90117" lon="2.25388">
        <ele>36.2</ele>
        <time>2023-01-28T13:17:13Z</time>
      </trkpt>
      <trkpt lat="49.90118" lon="2.25385">
        <ele>36.2</ele>
        <time>2023-01-28T13:17:14Z</time>
      </trkpt>
      <trkpt lat="49.90118" lon="2.25383">
        <ele>36.2</ele>
        <time>2023-01-28T13:17:15Z</time>
      </trkpt>
      <trkpt lat="49.90118" lon="2.25382">
        <ele>36.2</ele>
        <time>2023-01-28T13:17:16Z</time>
      </trkpt>
      <trkpt lat="49.90119" lon="2.2538">
        <ele>36.2</ele>
        <time>2023-01-28T13:17:17Z</time>
      </trkpt>
      <trkpt lat="49.90119" lon="2.25379">
        <ele>36.1</ele>
        <time>2023-01-28T13:17:19Z</time>
      </trkpt>
      <trkpt lat="49.90119" lon="2.25377">
        <ele>36.1</ele>
        <time>2023-01-28T13:17:20Z</time>
      </trkpt>
      <trkpt lat="49.9012" lon="2.25375">
        <ele>36.1</ele>
        <time>2023-01-28T13:17:21Z</time>
      </trkpt>
      <trkpt lat="49.9012" lon="2.25374">
        <ele>36.1</ele>
        <time>2023-01-28T13:17:22Z</time>
      </trkpt>
      <trkpt lat="49.9012" lon="2.25372">
        <ele>36.1</ele>
        <time>2023-01-28T13:17:23Z</time>
      </trkpt>
      <trkpt lat="49.90121" lon="2.2537">
        <ele>36.1</ele>
        <time>2023-01-28T13:17:24Z</time>
      </trkpt>
      <trkpt lat="49.90121" lon="2.25369">
        <ele>36.1</ele>
        <time>2023-01-28T13:17:25Z</time>
      </trkpt>
      <trkpt lat="49.90122" lon="2.25367">
        <ele>36.1</ele>
        <time>2023-01-28T13:17:27Z</time>
      </trkpt>
      <trkpt lat="49.90123" lon="2.25364">
        <ele>36.1</ele>
        <time>2023-01-28T13:17:28Z</time>
      </trkpt>
      <trkpt lat="49.90124" lon="2.25363">
        <ele>36.1</ele>
        <time>2023-01-28T13:17:29Z</time>
      </trkpt>
      <trkpt lat="49.90124" lon="2.25362">
        <ele>36.1</ele>
        <time>2023-01-28T13:17:30Z</time>
      </trkpt>
      <trkpt lat="49.90125" lon="2.2536">
        <ele>36</ele>
        <time>2023-01-28T13:17:31Z</time>
      </trkpt>
      <trkpt lat="49.90126" lon="2.25359">
        <ele>36</ele>
        <time>2023-01-28T13:17:32Z</time>
      </trkpt>
      <trkpt lat="49.90128" lon="2.25358">
        <ele>36</ele>
        <time>2023-01-28T13:17:34Z</time>
      </trkpt>
      <trkpt lat="49.90129" lon="2.25357">
        <ele>36</ele>
        <time>2023-01-28T13:17:35Z</time>
      </trkpt>
      <trkpt lat="49.9013" lon="2.25357">
        <ele>36</ele>
        <time>2023-01-28T13:17:36Z</time>
      </trkpt>
      <trkpt lat="49.90131" lon="2.25356">
        <ele>36</ele>
        <time>2023-01-28T13:17:37Z</time>
      </trkpt>
      <trkpt lat="49.90132" lon="2.25356">
        <ele>36</ele>
        <time>2023-01-28T13:17:39Z</time>
      </trkpt>
      <trkpt lat="49.90135" lon="2.25356">
        <ele>36</ele>
        <time>2023-01-28T13:17:40Z</time>
      </trkpt>
      <trkpt lat="49.90135" lon="2.25357">
        <ele>36</ele>
        <time>2023-01-28T13:17:42Z</time>
      </trkpt>
      <trkpt lat="49.90137" lon="2.25357">
        <ele>36</ele>
        <time>2023-01-28T13:17:44Z</time>
      </trkpt>
      <trkpt lat="49.90138" lon="2.25358">
        <ele>36</ele>
        <time>2023-01-28T13:17:45Z</time>
      </trkpt>
      <trkpt lat="49.90139" lon="2.25359">
        <ele>36</ele>
        <time>2023-01-28T13:17:46Z</time>
      </trkpt>
      <trkpt lat="49.90139" lon="2.25359">
        <ele>36</ele>
        <time>2023-01-28T13:17:47Z</time>
      </trkpt>
      <trkpt lat="49.9014" lon="2.25359">
        <ele>36</ele>
        <time>2023-01-28T13:17:48Z</time>
      </trkpt>
      <trkpt lat="49.9014" lon="2.25359">
        <ele>36</ele>
        <time>2023-01-28T13:17:49Z</time>
      </trkpt>
      <trkpt lat="49.9014" lon="2.2536">
        <ele>36.1</ele>
        <time>2023-01-28T13:17:50Z</time>
      </trkpt>
      <trkpt lat="49.9014" lon="2.25361">
        <ele>36.1</ele>
        <time>2023-01-28T13:17:51Z</time>
      </trkpt>
      <trkpt lat="49.9014" lon="2.25363">
        <ele>36.1</ele>
        <time>2023-01-28T13:17:53Z</time>
      </trkpt>
      <trkpt lat="49.9014" lon="2.25364">
        <ele>36.1</ele>
        <time>2023-01-28T13:17:54Z</time>
      </trkpt>
      <trkpt lat="49.9014" lon="2.25366">
        <ele>36.1</ele>
        <time>2023-01-28T13:17:55Z</time>
      </trkpt>
      <trkpt lat="49.9014" lon="2.25368">
        <ele>36.1</ele>
        <time>2023-01-28T13:17:56Z</time>
      </trkpt>
      <trkpt lat="49.9014" lon="2.25369">
        <ele>36.1</ele>
        <time>2023-01-28T13:17:57Z</time>
      </trkpt>
      <trkpt lat="49.9014" lon="2.25373">
        <ele>36.1</ele>
        <time>2023-01-28T13:17:58Z</time>
      </trkpt>
      <trkpt lat="49.9014" lon="2.25375">
        <ele>36.1</ele>
        <time>2023-01-28T13:18:00Z</time>
      </trkpt>
      <trkpt lat="49.9014" lon="2.25377">
        <ele>36.2</ele>
        <time>2023-01-28T13:18:01Z</time>
      </trkpt>
      <trkpt lat="49.9014" lon="2.25379">
        <ele>36.2</ele>
        <time>2023-01-28T13:18:03Z</time>
      </trkpt>
      <trkpt lat="49.9014" lon="2.2538">
        <ele>36.2</ele>
        <time>2023-01-28T13:18:04Z</time>
      </trkpt>
      <trkpt lat="49.9014" lon="2.25382">
        <ele>36.2</ele>
        <time>2023-01-28T13:18:05Z</time>
      </trkpt>
      <trkpt lat="49.9014" lon="2.25384">
        <ele>36.2</ele>
        <time>2023-01-28T13:18:06Z</time>
      </trkpt>
      <trkpt lat="49.9014" lon="2.25386">
        <ele>36.2</ele>
        <time>2023-01-28T13:18:08Z</time>
      </trkpt>
      <trkpt lat="49.9014" lon="2.25388">
        <ele>36.2</ele>
        <time>2023-01-28T13:18:09Z</time>
      </trkpt>
      <trkpt lat="49.9014" lon="2.2539">
        <ele>36.2</ele>
        <time>2023-01-28T13:18:10Z</time>
      </trkpt>
      <trkpt lat="49.9014" lon="2.25393">
        <ele>36.2</ele>
        <time>2023-01-28T13:18:11Z</time>
      </trkpt>
      <trkpt lat="49.9014" lon="2.25394">
        <ele>36.2</ele>
        <time>2023-01-28T13:18:12Z</time>
      </trkpt>
      <trkpt lat="49.90141" lon="2.25396">
        <ele>36.2</ele>
        <time>2023-01-28T13:18:13Z</time>
      </trkpt>
      <trkpt lat="49.90141" lon="2.25398">
        <ele>36.2</ele>
        <time>2023-01-28T13:18:15Z</time>
      </trkpt>
      <trkpt lat="49.90141" lon="2.25399">
        <ele>36.2</ele>
        <time>2023-01-28T13:18:16Z</time>
      </trkpt>
      <trkpt lat="49.90141" lon="2.25402">
        <ele>36.2</ele>
        <time>2023-01-28T13:18:17Z</time>
      </trkpt>
      <trkpt lat="49.90141" lon="2.25404">
        <ele>36.2</ele>
        <time>2023-01-28T13:18:18Z</time>
      </trkpt>
      <trkpt lat="49.90141" lon="2.25407">
        <ele>36.2</ele>
        <time>2023-01-28T13:18:19Z</time>
      </trkpt>
      <trkpt lat="49.90141" lon="2.25409">
        <ele>36.2</ele>
        <time>2023-01-28T13:18:21Z</time>
      </trkpt>
      <trkpt lat="49.90141" lon="2.25411">
        <ele>36.2</ele>
        <time>2023-01-28T13:18:22Z</time>
      </trkpt>
      <trkpt lat="49.90142" lon="2.25412">
        <ele>36.3</ele>
        <time>2023-01-28T13:18:23Z</time>
      </trkpt>
      <trkpt lat="49.90142" lon="2.25414">
        <ele>36.3</ele>
        <time>2023-01-28T13:18:24Z</time>
      </trkpt>
      <trkpt lat="49.90142" lon="2.25416">
        <ele>36.3</ele>
        <time>2023-01-28T13:18:25Z</time>
      </trkpt>
      <trkpt lat="49.90142" lon="2.25421">
        <ele>36.3</ele>
        <time>2023-01-28T13:18:26Z</time>
      </trkpt>
      <trkpt lat="49.90142" lon="2.25422">
        <ele>36.3</ele>
        <time>2023-01-28T13:18:28Z</time>
      </trkpt>
      <trkpt lat="49.90142" lon="2.25424">
        <ele>36.3</ele>
        <time>2023-01-28T13:18:29Z</time>
      </trkpt>
      <trkpt lat="49.90142" lon="2.25425">
        <ele>36.3</ele>
        <time>2023-01-28T13:18:30Z</time>
      </trkpt>
      <trkpt lat="49.90142" lon="2.25427">
        <ele>36.3</ele>
        <time>2023-01-28T13:18:31Z</time>
      </trkpt>
      <trkpt lat="49.90142" lon="2.25428">
        <ele>36.4</ele>
        <time>2023-01-28T13:18:32Z</time>
      </trkpt>
      <trkpt lat="49.90142" lon="2.25429">
        <ele>36.4</ele>
        <time>2023-01-28T13:18:33Z</time>
      </trkpt>
      <trkpt lat="49.90142" lon="2.25431">
        <ele>36.4</ele>
        <time>2023-01-28T13:18:35Z</time>
      </trkpt>
      <trkpt lat="49.90142" lon="2.25433">
        <ele>36.4</ele>
        <time>2023-01-28T13:18:36Z</time>
      </trkpt>
      <trkpt lat="49.90142" lon="2.25435">
        <ele>36.4</ele>
        <time>2023-01-28T13:18:37Z</time>
      </trkpt>
      <trkpt lat="49.90142" lon="2.25436">
        <ele>36.5</ele>
        <time>2023-01-28T13:18:38Z</time>
      </trkpt>
      <trkpt lat="49.90142" lon="2.25438">
        <ele>36.5</ele>
        <time>2023-01-28T13:18:39Z</time>
      </trkpt>
      <trkpt lat="49.90142" lon="2.25439">
        <ele>36.5</ele>
        <time>2023-01-28T13:18:41Z</time>
      </trkpt>
      <trkpt lat="49.90143" lon="2.25442">
        <ele>36.6</ele>
        <time>2023-01-28T13:18:42Z</time>
      </trkpt>
      <trkpt lat="49.90143" lon="2.25443">
        <ele>36.6</ele>
        <time>2023-01-28T13:18:43Z</time>
      </trkpt>
      <trkpt lat="49.90143" lon="2.25444">
        <ele>36.6</ele>
        <time>2023-01-28T13:18:44Z</time>
      </trkpt>
      <trkpt lat="49.90143" lon="2.25446">
        <ele>36.7</ele>
        <time>2023-01-28T13:18:45Z</time>
      </trkpt>
      <trkpt lat="49.90144" lon="2.25449">
        <ele>36.7</ele>
        <time>2023-01-28T13:18:47Z</time>
      </trkpt>
      <trkpt lat="49.90144" lon="2.25451">
        <ele>36.8</ele>
        <time>2023-01-28T13:18:48Z</time>
      </trkpt>
      <trkpt lat="49.90145" lon="2.25452">
        <ele>36.8</ele>
        <time>2023-01-28T13:18:49Z</time>
      </trkpt>
      <trkpt lat="49.90145" lon="2.25454">
        <ele>36.9</ele>
        <time>2023-01-28T13:18:50Z</time>
      </trkpt>
      <trkpt lat="49.90145" lon="2.25455">
        <ele>36.9</ele>
        <time>2023-01-28T13:18:51Z</time>
      </trkpt>
      <trkpt lat="49.90145" lon="2.25456">
        <ele>36.9</ele>
        <time>2023-01-28T13:18:52Z</time>
      </trkpt>
      <trkpt lat="49.90146" lon="2.25458">
        <ele>36.9</ele>
        <time>2023-01-28T13:18:53Z</time>
      </trkpt>
      <trkpt lat="49.90146" lon="2.25459">
        <ele>37</ele>
        <time>2023-01-28T13:18:55Z</time>
      </trkpt>
      <trkpt lat="49.90146" lon="2.2546">
        <ele>37</ele>
        <time>2023-01-28T13:18:56Z</time>
      </trkpt>
      <trkpt lat="49.90147" lon="2.25463">
        <ele>37.1</ele>
        <time>2023-01-28T13:18:57Z</time>
      </trkpt>
      <trkpt lat="49.90146" lon="2.25464">
        <ele>37.1</ele>
        <time>2023-01-28T13:18:58Z</time>
      </trkpt>
      <trkpt lat="49.90146" lon="2.25465">
        <ele>37.1</ele>
        <time>2023-01-28T13:19:00Z</time>
      </trkpt>
      <trkpt lat="49.90145" lon="2.25466">
        <ele>37.2</ele>
        <time>2023-01-28T13:19:01Z</time>
      </trkpt>
      <trkpt lat="49.90144" lon="2.25467">
        <ele>37.2</ele>
        <time>2023-01-28T13:19:02Z</time>
      </trkpt>
      <trkpt lat="49.90144" lon="2.25466">
        <ele>37.2</ele>
        <time>2023-01-28T13:19:04Z</time>
      </trkpt>
      <trkpt lat="49.90144" lon="2.25466">
        <ele>37.2</ele>
        <time>2023-01-28T13:19:05Z</time>
      </trkpt>
      <trkpt lat="49.90143" lon="2.25465">
        <ele>37.2</ele>
        <time>2023-01-28T13:19:06Z</time>
      </trkpt>
      <trkpt lat="49.90143" lon="2.25465">
        <ele>37.3</ele>
        <time>2023-01-28T13:19:08Z</time>
      </trkpt>
      <trkpt lat="49.90143" lon="2.25465">
        <ele>37.3</ele>
        <time>2023-01-28T13:19:09Z</time>
      </trkpt>
      <trkpt lat="49.90143" lon="2.25465">
        <ele>37.3</ele>
        <time>2023-01-28T13:19:11Z</time>
      </trkpt>
      <trkpt lat="49.90143" lon="2.25465">
        <ele>37.3</ele>
        <time>2023-01-28T13:19:12Z</time>
      </trkpt>
      <trkpt lat="49.90143" lon="2.25465">
        <ele>37.3</ele>
        <time>2023-01-28T13:19:14Z</time>
      </trkpt>
      <trkpt lat="49.90143" lon="2.25465">
        <ele>37.3</ele>
        <time>2023-01-28T13:19:15Z</time>
      </trkpt>
      <trkpt lat="49.90143" lon="2.25464">
        <ele>37.3</ele>
        <time>2023-01-28T13:19:16Z</time>
      </trkpt>
      <trkpt lat="49.90143" lon="2.25464">
        <ele>37.3</ele>
        <time>2023-01-28T13:19:18Z</time>
      </trkpt>
      <trkpt lat="49.90143" lon="2.25464">
        <ele>37.3</ele>
        <time>2023-01-28T13:19:19Z</time>
      </trkpt>
      <trkpt lat="49.90143" lon="2.25464">
        <ele>37.4</ele>
        <time>2023-01-28T13:19:20Z</time>
      </trkpt>
      <trkpt lat="49.90143" lon="2.25464">
        <ele>37.4</ele>
        <time>2023-01-28T13:19:21Z</time>
      </trkpt>
      <trkpt lat="49.90143" lon="2.25464">
        <ele>37.4</ele>
        <time>2023-01-28T13:19:22Z</time>
      </trkpt>
      <trkpt lat="49.90143" lon="2.25464">
        <ele>37.4</ele>
        <time>2023-01-28T13:19:23Z</time>
      </trkpt>
      <trkpt lat="49.90143" lon="2.25464">
        <ele>37.4</ele>
        <time>2023-01-28T13:19:24Z</time>
      </trkpt>
      <trkpt lat="49.90143" lon="2.25464">
        <ele>37.4</ele>
        <time>2023-01-28T13:19:25Z</time>
      </trkpt>
      <trkpt lat="49.90143" lon="2.25464">
        <ele>37.4</ele>
        <time>2023-01-28T13:19:26Z</time>
      </trkpt>
      <trkpt lat="49.90143" lon="2.25464">
        <ele>37.4</ele>
        <time>2023-01-28T13:19:27Z</time>
      </trkpt>
      <trkpt lat="49.90143" lon="2.25464">
        <ele>37.4</ele>
        <time>2023-01-28T13:19:28Z</time>
      </trkpt>
      <trkpt lat="49.90143" lon="2.25464">
        <ele>37.4</ele>
        <time>2023-01-28T13:19:29Z</time>
      </trkpt>
      <trkpt lat="49.90143" lon="2.25464">
        <ele>37.4</ele>
        <time>2023-01-28T13:19:30Z</time>
      </trkpt>
      <trkpt lat="49.90143" lon="2.25464">
        <ele>37.4</ele>
        <time>2023-01-28T13:19:31Z</time>
      </trkpt>
      <trkpt lat="49.90143" lon="2.25464">
        <ele>37.4</ele>
        <time>2023-01-28T13:19:32Z</time>
      </trkpt>
      <trkpt lat="49.90143" lon="2.25464">
        <ele>37.4</ele>
        <time>2023-01-28T13:19:33Z</time>
      </trkpt>
      <trkpt lat="49.90143" lon="2.25464">
        <ele>37.4</ele>
        <time>2023-01-28T13:19:34Z</time>
      </trkpt>
      <trkpt lat="49.90143" lon="2.25464">
        <ele>37.4</ele>
        <time>2023-01-28T13:19:35Z</time>
      </trkpt>
      <trkpt lat="49.90143" lon="2.25464">
        <ele>37.4</ele>
        <time>2023-01-28T13:19:36Z</time>
      </trkpt>
      <trkpt lat="49.90143" lon="2.25464">
        <ele>37.4</ele>
        <time>2023-01-28T13:19:37Z</time>
      </trkpt>
      <trkpt lat="49.90143" lon="2.25464">
        <ele>37.4</ele>
        <time>2023-01-28T13:19:38Z</time>
      </trkpt>
      <trkpt lat="49.90143" lon="2.25464">
        <ele>37.4</ele>
        <time>2023-01-28T13:19:39Z</time>
      </trkpt>
      <trkpt lat="49.90143" lon="2.25464">
        <ele>37.4</ele>
        <time>2023-01-28T13:19:40Z</time>
      </trkpt>
      <trkpt lat="49.90143" lon="2.25464">
        <ele>37.4</ele>
        <time>2023-01-28T13:19:41Z</time>
      </trkpt>
      <trkpt lat="49.90143" lon="2.25464">
        <ele>37.4</ele>
        <time>2023-01-28T13:19:42Z</time>
      </trkpt>
      <trkpt lat="49.90143" lon="2.25464">
        <ele>37.4</ele>
        <time>2023-01-28T13:19:43Z</time>
      </trkpt>
      <trkpt lat="49.90143" lon="2.25464">
        <ele>37.4</ele>
        <time>2023-01-28T13:19:44Z</time>
      </trkpt>
      <trkpt lat="49.90143" lon="2.25464">
        <ele>37.4</ele>
        <time>2023-01-28T13:19:45Z</time>
      </trkpt>
      <trkpt lat="49.90143" lon="2.25464">
        <ele>37.4</ele>
        <time>2023-01-28T13:19:46Z</time>
      </trkpt>
      <trkpt lat="49.90143" lon="2.25464">
        <ele>37.4</ele>
        <time>2023-01-28T13:19:47Z</time>
      </trkpt>
      <trkpt lat="49.90143" lon="2.25464">
        <ele>37.4</ele>
        <time>2023-01-28T13:19:48Z</time>
      </trkpt>
      <trkpt lat="49.90143" lon="2.25464">
        <ele>37.5</ele>
        <time>2023-01-28T13:19:49Z</time>
      </trkpt>
      <trkpt lat="49.90143" lon="2.25464">
        <ele>37.5</ele>
        <time>2023-01-28T13:19:50Z</time>
      </trkpt>
      <trkpt lat="49.90143" lon="2.25464">
        <ele>37.5</ele>
        <time>2023-01-28T13:19:51Z</time>
      </trkpt>
      <trkpt lat="49.90143" lon="2.25464">
        <ele>37.5</ele>
        <time>2023-01-28T13:19:52Z</time>
      </trkpt>
      <trkpt lat="49.90143" lon="2.25464">
        <ele>37.5</ele>
        <time>2023-01-28T13:19:53Z</time>
      </trkpt>
      <trkpt lat="49.90143" lon="2.25464">
        <ele>37.5</ele>
        <time>2023-01-28T13:19:54Z</time>
      </trkpt>
      <trkpt lat="49.90143" lon="2.25464">
        <ele>37.5</ele>
        <time>2023-01-28T13:19:55Z</time>
      </trkpt>
      <trkpt lat="49.90143" lon="2.25464">
        <ele>37.5</ele>
        <time>2023-01-28T13:19:56Z</time>
      </trkpt>
      <trkpt lat="49.90143" lon="2.25464">
        <ele>37.5</ele>
        <time>2023-01-28T13:19:57Z</time>
      </trkpt>
      <trkpt lat="49.90143" lon="2.25464">
        <ele>37.5</ele>
        <time>2023-01-28T13:19:58Z</time>
      </trkpt>
      <trkpt lat="49.90143" lon="2.25464">
        <ele>37.5</ele>
        <time>2023-01-28T13:19:59Z</time>
      </trkpt>
      <trkpt lat="49.90143" lon="2.25464">
        <ele>37.5</ele>
        <time>2023-01-28T13:20:00Z</time>
      </trkpt>
      <trkpt lat="49.90143" lon="2.25464">
        <ele>37.5</ele>
        <time>2023-01-28T13:20:01Z</time>
      </trkpt>
      <trkpt lat="49.90143" lon="2.25464">
        <ele>37.5</ele>
        <time>2023-01-28T13:20:02Z</time>
      </trkpt>
      <trkpt lat="49.90143" lon="2.25464">
        <ele>37.5</ele>
        <time>2023-01-28T13:20:03Z</time>
      </trkpt>
      <trkpt lat="49.90143" lon="2.25464">
        <ele>37.5</ele>
        <time>2023-01-28T13:20:04Z</time>
      </trkpt>
      <trkpt lat="49.90143" lon="2.25464">
        <ele>37.5</ele>
        <time>2023-01-28T13:20:05Z</time>
      </trkpt>
      <trkpt lat="49.90143" lon="2.25464">
        <ele>37.5</ele>
        <time>2023-01-28T13:20:06Z</time>
      </trkpt>
      <trkpt lat="49.90143" lon="2.25464">
        <ele>37.5</ele>
        <time>2023-01-28T13:20:07Z</time>
      </trkpt>
      <trkpt lat="49.90143" lon="2.25464">
        <ele>37.5</ele>
        <time>2023-01-28T13:20:08Z</time>
      </trkpt>
      <trkpt lat="49.90143" lon="2.25464">
        <ele>37.5</ele>
        <time>2023-01-28T13:20:09Z</time>
      </trkpt>
      <trkpt lat="49.90143" lon="2.25464">
        <ele>37.5</ele>
        <time>2023-01-28T13:20:10Z</time>
      </trkpt>
      <trkpt lat="49.90143" lon="2.25464">
        <ele>37.5</ele>
        <time>2023-01-28T13:20:11Z</time>
      </trkpt>
      <trkpt lat="49.90143" lon="2.25464">
        <ele>37.5</ele>
        <time>2023-01-28T13:20:12Z</time>
      </trkpt>
      <trkpt lat="49.90143" lon="2.25464">
        <ele>37.5</ele>
        <time>2023-01-28T13:20:13Z</time>
      </trkpt>
      <trkpt lat="49.90143" lon="2.25464">
        <ele>37.5</ele>
        <time>2023-01-28T13:20:14Z</time>
      </trkpt>
      <trkpt lat="49.90143" lon="2.25464">
        <ele>37.5</ele>
        <time>2023-01-28T13:20:15Z</time>
      </trkpt>
      <trkpt lat="49.90143" lon="2.25464">
        <ele>37.5</ele>
        <time>2023-01-28T13:20:16Z</time>
      </trkpt>
      <trkpt lat="49.90143" lon="2.25464">
        <ele>37.5</ele>
        <time>2023-01-28T13:20:17Z</time>
      </trkpt>
      <trkpt lat="49.90143" lon="2.25464">
        <ele>37.5</ele>
        <time>2023-01-28T13:20:18Z</time>
      </trkpt>
      <trkpt lat="49.90143" lon="2.25464">
        <ele>37.5</ele>
        <time>2023-01-28T13:20:19Z</time>
      </trkpt>
      <trkpt lat="49.90143" lon="2.25464">
        <ele>37.5</ele>
        <time>2023-01-28T13:20:20Z</time>
      </trkpt>
      <trkpt lat="49.90143" lon="2.25464">
        <ele>37.5</ele>
        <time>2023-01-28T13:20:21Z</time>
      </trkpt>
      <trkpt lat="49.90143" lon="2.25464">
        <ele>37.5</ele>
        <time>2023-01-28T13:20:22Z</time>
      </trkpt>
      <trkpt lat="49.90143" lon="2.25464">
        <ele>37.5</ele>
        <time>2023-01-28T13:20:23Z</time>
      </trkpt>
      <trkpt lat="49.90143" lon="2.25464">
        <ele>37.5</ele>
        <time>2023-01-28T13:20:24Z</time>
      </trkpt>
      <trkpt lat="49.90143" lon="2.25464">
        <ele>37.5</ele>
        <time>2023-01-28T13:20:25Z</time>
      </trkpt>
      <trkpt lat="49.90143" lon="2.25464">
        <ele>37.5</ele>
        <time>2023-01-28T13:20:26Z</time>
      </trkpt>
      <trkpt lat="49.90143" lon="2.25464">
        <ele>37.5</ele>
        <time>2023-01-28T13:20:27Z</time>
      </trkpt>
      <trkpt lat="49.90143" lon="2.25464">
        <ele>37.5</ele>
        <time>2023-01-28T13:20:28Z</time>
      </trkpt>
      <trkpt lat="49.90143" lon="2.25464">
        <ele>37.5</ele>
        <time>2023-01-28T13:20:29Z</time>
      </trkpt>
      <trkpt lat="49.90143" lon="2.25464">
        <ele>37.5</ele>
        <time>2023-01-28T13:20:30Z</time>
      </trkpt>
      <trkpt lat="49.90143" lon="2.25464">
        <ele>37.5</ele>
        <time>2023-01-28T13:20:31Z</time>
      </trkpt>
      <trkpt lat="49.90143" lon="2.25464">
        <ele>37.5</ele>
        <time>2023-01-28T13:20:32Z</time>
      </trkpt>
      <trkpt lat="49.90143" lon="2.25464">
        <ele>37.5</ele>
        <time>2023-01-28T13:20:33Z</time>
      </trkpt>
      <trkpt lat="49.90143" lon="2.25464">
        <ele>37.5</ele>
        <time>2023-01-28T13:20:34Z</time>
      </trkpt>
      <trkpt lat="49.90143" lon="2.25464">
        <ele>37.5</ele>
        <time>2023-01-28T13:20:35Z</time>
      </trkpt>
      <trkpt lat="49.90143" lon="2.25464">
        <ele>37.5</ele>
        <time>2023-01-28T13:20:36Z</time>
      </trkpt>
      <trkpt lat="49.90143" lon="2.25464">
        <ele>37.5</ele>
        <time>2023-01-28T13:20:37Z</time>
      </trkpt>
      <trkpt lat="49.90143" lon="2.25464">
        <ele>37.5</ele>
        <time>2023-01-28T13:20:38Z</time>
      </trkpt>
      <trkpt lat="49.90143" lon="2.25464">
        <ele>37.5</ele>
        <time>2023-01-28T13:20:39Z</time>
      </trkpt>
      <trkpt lat="49.90143" lon="2.25464">
        <ele>37.5</ele>
        <time>2023-01-28T13:20:40Z</time>
      </trkpt>
      <trkpt lat="49.90143" lon="2.25464">
        <ele>37.5</ele>
        <time>2023-01-28T13:20:41Z</time>
      </trkpt>
      <trkpt lat="49.90143" lon="2.25464">
        <ele>37.5</ele>
        <time>2023-01-28T13:20:42Z</time>
      </trkpt>
      <trkpt lat="49.90143" lon="2.25464">
        <ele>37.5</ele>
        <time>2023-01-28T13:20:43Z</time>
      </trkpt>
      <trkpt lat="49.90143" lon="2.25464">
        <ele>37.5</ele>
        <time>2023-01-28T13:20:44Z</time>
      </trkpt>
      <trkpt lat="49.90143" lon="2.25464">
        <ele>37.5</ele>
        <time>2023-01-28T13:20:45Z</time>
      </trkpt>
      <trkpt lat="49.90143" lon="2.25464">
        <ele>37.5</ele>
        <time>2023-01-28T13:20:46Z</time>
      </trkpt>
      <trkpt lat="49.90143" lon="2.25464">
        <ele>37.5</ele>
        <time>2023-01-28T13:20:47Z</time>
      </trkpt>
      <trkpt lat="49.90143" lon="2.25464">
        <ele>37.5</ele>
        <time>2023-01-28T13:20:48Z</time>
      </trkpt>
      <trkpt lat="49.90143" lon="2.25464">
        <ele>37.5</ele>
        <time>2023-01-28T13:20:49Z</time>
      </trkpt>
      <trkpt lat="49.90143" lon="2.25464">
        <ele>37.5</ele>
        <time>2023-01-28T13:20:50Z</time>
      </trkpt>
      <trkpt lat="49.90143" lon="2.25464">
        <ele>37.5</ele>
        <time>2023-01-28T13:20:51Z</time>
      </trkpt>
      <trkpt lat="49.90143" lon="2.25464">
        <ele>37.5</ele>
        <time>2023-01-28T13:20:52Z</time>
      </trkpt>
      <trkpt lat="49.90143" lon="2.25464">
        <ele>37.5</ele>
        <time>2023-01-28T13:20:53Z</time>
      </trkpt>
      <trkpt lat="49.90143" lon="2.25464">
        <ele>37.5</ele>
        <time>2023-01-28T13:20:54Z</time>
      </trkpt>
      <trkpt lat="49.90143" lon="2.25464">
        <ele>37.5</ele>
        <time>2023-01-28T13:20:55Z</time>
      </trkpt>
      <trkpt lat="49.90143" lon="2.25464">
        <ele>37.5</ele>
        <time>2023-01-28T13:20:56Z</time>
      </trkpt>
      <trkpt lat="49.90143" lon="2.25464">
        <ele>37.5</ele>
        <time>2023-01-28T13:20:57Z</time>
      </trkpt>
      <trkpt lat="49.90143" lon="2.25464">
        <ele>37.5</ele>
        <time>2023-01-28T13:20:58Z</time>
      </trkpt>
      <trkpt lat="49.90143" lon="2.25464">
        <ele>37.5</ele>
        <time>2023-01-28T13:20:59Z</time>
      </trkpt>
      <trkpt lat="49.90143" lon="2.25464">
        <ele>37.5</ele>
        <time>2023-01-28T13:21:00Z</time>
      </trkpt>
      <trkpt lat="49.90143" lon="2.25464">
        <ele>37.5</ele>
        <time>2023-01-28T13:21:01Z</time>
      </trkpt>
      <trkpt lat="49.90143" lon="2.25464">
        <ele>37.5</ele>
        <time>2023-01-28T13:21:02Z</time>
      </trkpt>
      <trkpt lat="49.90143" lon="2.25464">
        <ele>37.5</ele>
        <time>2023-01-28T13:21:03Z</time>
      </trkpt>
      <trkpt lat="49.90143" lon="2.25464">
        <ele>37.5</ele>
        <time>2023-01-28T13:21:04Z</time>
      </trkpt>
      <trkpt lat="49.90143" lon="2.25464">
        <ele>37.5</ele>
        <time>2023-01-28T13:21:05Z</time>
      </trkpt>
      <trkpt lat="49.90143" lon="2.25464">
        <ele>37.5</ele>
        <time>2023-01-28T13:21:06Z</time>
      </trkpt>
      <trkpt lat="49.90143" lon="2.25464">
        <ele>37.5</ele>
        <time>2023-01-28T13:21:07Z</time>
      </trkpt>
      <trkpt lat="49.90143" lon="2.25464">
        <ele>37.5</ele>
        <time>2023-01-28T13:21:08Z</time>
      </trkpt>
      <trkpt lat="49.90143" lon="2.25464">
        <ele>37.5</ele>
        <time>2023-01-28T13:21:09Z</time>
      </trkpt>
      <trkpt lat="49.90143" lon="2.25464">
        <ele>37.5</ele>
        <time>2023-01-28T13:21:10Z</time>
      </trkpt>
      <trkpt lat="49.90143" lon="2.25464">
        <ele>37.5</ele>
        <time>2023-01-28T13:21:11Z</time>
      </trkpt>
      <trkpt lat="49.90143" lon="2.25464">
        <ele>37.5</ele>
        <time>2023-01-28T13:21:12Z</time>
      </trkpt>
      <trkpt lat="49.90143" lon="2.25464">
        <ele>37.5</ele>
        <time>2023-01-28T13:21:13Z</time>
      </trkpt>
      <trkpt lat="49.90143" lon="2.25464">
        <ele>37.5</ele>
        <time>2023-01-28T13:21:14Z</time>
      </trkpt>
      <trkpt lat="49.90143" lon="2.25464">
        <ele>37.5</ele>
        <time>2023-01-28T13:21:15Z</time>
      </trkpt>
      <trkpt lat="49.90143" lon="2.25464">
        <ele>37.5</ele>
        <time>2023-01-28T13:21:16Z</time>
      </trkpt>
      <trkpt lat="49.90143" lon="2.25464">
        <ele>37.5</ele>
        <time>2023-01-28T13:21:17Z</time>
      </trkpt>
      <trkpt lat="49.90143" lon="2.25464">
        <ele>37.5</ele>
        <time>2023-01-28T13:21:18Z</time>
      </trkpt>
      <trkpt lat="49.90143" lon="2.25464">
        <ele>37.5</ele>
        <time>2023-01-28T13:21:19Z</time>
      </trkpt>
      <trkpt lat="49.90143" lon="2.25464">
        <ele>37.5</ele>
        <time>2023-01-28T13:21:20Z</time>
      </trkpt>
      <trkpt lat="49.90143" lon="2.25464">
        <ele>37.5</ele>
        <time>2023-01-28T13:21:21Z</time>
      </trkpt>
      <trkpt lat="49.90143" lon="2.25464">
        <ele>37.5</ele>
        <time>2023-01-28T13:21:22Z</time>
      </trkpt>
      <trkpt lat="49.90143" lon="2.25464">
        <ele>37.5</ele>
        <time>2023-01-28T13:21:23Z</time>
      </trkpt>
      <trkpt lat="49.90143" lon="2.25464">
        <ele>37.5</ele>
        <time>2023-01-28T13:21:24Z</time>
      </trkpt>
      <trkpt lat="49.90143" lon="2.25464">
        <ele>37.5</ele>
        <time>2023-01-28T13:21:25Z</time>
      </trkpt>
      <trkpt lat="49.90143" lon="2.25464">
        <ele>37.5</ele>
        <time>2023-01-28T13:21:26Z</time>
      </trkpt>
      <trkpt lat="49.90143" lon="2.25464">
        <ele>37.5</ele>
        <time>2023-01-28T13:21:27Z</time>
      </trkpt>
      <trkpt lat="49.90143" lon="2.25464">
        <ele>37.5</ele>
        <time>2023-01-28T13:21:28Z</time>
      </trkpt>
      <trkpt lat="49.90143" lon="2.25464">
        <ele>37.5</ele>
        <time>2023-01-28T13:21:29Z</time>
      </trkpt>
      <trkpt lat="49.90143" lon="2.25464">
        <ele>37.5</ele>
        <time>2023-01-28T13:21:30Z</time>
      </trkpt>
      <trkpt lat="49.90143" lon="2.25464">
        <ele>37.5</ele>
        <time>2023-01-28T13:21:31Z</time>
      </trkpt>
      <trkpt lat="49.90143" lon="2.25464">
        <ele>37.5</ele>
        <time>2023-01-28T13:21:32Z</time>
      </trkpt>
      <trkpt lat="49.90143" lon="2.25464">
        <ele>37.5</ele>
        <time>2023-01-28T13:21:33Z</time>
      </trkpt>
      <trkpt lat="49.90143" lon="2.25464">
        <ele>37.5</ele>
        <time>2023-01-28T13:21:34Z</time>
      </trkpt>
      <trkpt lat="49.90143" lon="2.25464">
        <ele>37.5</ele>
        <time>2023-01-28T13:21:35Z</time>
      </trkpt>
      <trkpt lat="49.90143" lon="2.25464">
        <ele>37.5</ele>
        <time>2023-01-28T13:21:36Z</time>
      </trkpt>
      <trkpt lat="49.90143" lon="2.25464">
        <ele>37.5</ele>
        <time>2023-01-28T13:21:37Z</time>
      </trkpt>
      <trkpt lat="49.90143" lon="2.25464">
        <ele>37.5</ele>
        <time>2023-01-28T13:21:38Z</time>
      </trkpt>
      <trkpt lat="49.90143" lon="2.25464">
        <ele>37.5</ele>
        <time>2023-01-28T13:21:39Z</time>
      </trkpt>
      <trkpt lat="49.90143" lon="2.25464">
        <ele>37.5</ele>
        <time>2023-01-28T13:21:40Z</time>
      </trkpt>
      <trkpt lat="49.90143" lon="2.25464">
        <ele>37.5</ele>
        <time>2023-01-28T13:21:41Z</time>
      </trkpt>
      <trkpt lat="49.90143" lon="2.25464">
        <ele>37.5</ele>
        <time>2023-01-28T13:21:42Z</time>
      </trkpt>
      <trkpt lat="49.90143" lon="2.25464">
        <ele>37.5</ele>
        <time>2023-01-28T13:21:43Z</time>
      </trkpt>
      <trkpt lat="49.90143" lon="2.25464">
        <ele>37.5</ele>
        <time>2023-01-28T13:21:44Z</time>
      </trkpt>
      <trkpt lat="49.90143" lon="2.25464">
        <ele>37.5</ele>
        <time>2023-01-28T13:21:45Z</time>
      </trkpt>
      <trkpt lat="49.90143" lon="2.25464">
        <ele>37.5</ele>
        <time>2023-01-28T13:21:46Z</time>
      </trkpt>
      <trkpt lat="49.90143" lon="2.25464">
        <ele>37.5</ele>
        <time>2023-01-28T13:21:47Z</time>
      </trkpt>
      <trkpt lat="49.90143" lon="2.25464">
        <ele>37.5</ele>
        <time>2023-01-28T13:21:48Z</time>
      </trkpt>
      <trkpt lat="49.90143" lon="2.25464">
        <ele>37.5</ele>
        <time>2023-01-28T13:21:49Z</time>
      </trkpt>
      <trkpt lat="49.90143" lon="2.25464">
        <ele>37.5</ele>
        <time>2023-01-28T13:21:50Z</time>
      </trkpt>
      <trkpt lat="49.90143" lon="2.25464">
        <ele>37.5</ele>
        <time>2023-01-28T13:21:51Z</time>
      </trkpt>
      <trkpt lat="49.90143" lon="2.25464">
        <ele>37.5</ele>
        <time>2023-01-28T13:21:52Z</time>
      </trkpt>
      <trkpt lat="49.90143" lon="2.25464">
        <ele>37.5</ele>
        <time>2023-01-28T13:21:53Z</time>
      </trkpt>
      <trkpt lat="49.90143" lon="2.25464">
        <ele>37.5</ele>
        <time>2023-01-28T13:21:54Z</time>
      </trkpt>
      <trkpt lat="49.90143" lon="2.25464">
        <ele>37.5</ele>
        <time>2023-01-28T13:21:55Z</time>
      </trkpt>
      <trkpt lat="49.90143" lon="2.25464">
        <ele>37.5</ele>
        <time>2023-01-28T13:21:56Z</time>
      </trkpt>
      <trkpt lat="49.90143" lon="2.25464">
        <ele>37.5</ele>
        <time>2023-01-28T13:21:57Z</time>
      </trkpt>
      <trkpt lat="49.90143" lon="2.25464">
        <ele>37.5</ele>
        <time>2023-01-28T13:21:58Z</time>
      </trkpt>
      <trkpt lat="49.90143" lon="2.25464">
        <ele>37.5</ele>
        <time>2023-01-28T13:21:59Z</time>
      </trkpt>
      <trkpt lat="49.90143" lon="2.25464">
        <ele>37.5</ele>
        <time>2023-01-28T13:22:00Z</time>
      </trkpt>
      <trkpt lat="49.90143" lon="2.25464">
        <ele>37.5</ele>
        <time>2023-01-28T13:22:01Z</time>
      </trkpt>
      <trkpt lat="49.90143" lon="2.25464">
        <ele>37.5</ele>
        <time>2023-01-28T13:22:02Z</time>
      </trkpt>
      <trkpt lat="49.90143" lon="2.25464">
        <ele>37.5</ele>
        <time>2023-01-28T13:22:03Z</time>
      </trkpt>
      <trkpt lat="49.90143" lon="2.25464">
        <ele>37.5</ele>
        <time>2023-01-28T13:22:04Z</time>
      </trkpt>
      <trkpt lat="49.90143" lon="2.25464">
        <ele>37.5</ele>
        <time>2023-01-28T13:22:05Z</time>
      </trkpt>
      <trkpt lat="49.90143" lon="2.25464">
        <ele>37.5</ele>
        <time>2023-01-28T13:22:06Z</time>
      </trkpt>
      <trkpt lat="49.90143" lon="2.25464">
        <ele>37.5</ele>
        <time>2023-01-28T13:22:07Z</time>
      </trkpt>
      <trkpt lat="49.90143" lon="2.25464">
        <ele>37.5</ele>
        <time>2023-01-28T13:22:08Z</time>
      </trkpt>
      <trkpt lat="49.90143" lon="2.25464">
        <ele>37.5</ele>
        <time>2023-01-28T13:22:09Z</time>
      </trkpt>
      <trkpt lat="49.90143" lon="2.25464">
        <ele>37.5</ele>
        <time>2023-01-28T13:22:10Z</time>
      </trkpt>
      <trkpt lat="49.90143" lon="2.25464">
        <ele>37.5</ele>
        <time>2023-01-28T13:22:11Z</time>
      </trkpt>
      <trkpt lat="49.90143" lon="2.25464">
        <ele>37.5</ele>
        <time>2023-01-28T13:22:12Z</time>
      </trkpt>
      <trkpt lat="49.90143" lon="2.25464">
        <ele>37.5</ele>
        <time>2023-01-28T13:22:13Z</time>
      </trkpt>
      <trkpt lat="49.90143" lon="2.25464">
        <ele>37.5</ele>
        <time>2023-01-28T13:22:14Z</time>
      </trkpt>
      <trkpt lat="49.90143" lon="2.25464">
        <ele>37.5</ele>
        <time>2023-01-28T13:22:15Z</time>
      </trkpt>
      <trkpt lat="49.90143" lon="2.25464">
        <ele>37.5</ele>
        <time>2023-01-28T13:22:16Z</time>
      </trkpt>
      <trkpt lat="49.90143" lon="2.25464">
        <ele>37.5</ele>
        <time>2023-01-28T13:22:17Z</time>
      </trkpt>
      <trkpt lat="49.90143" lon="2.25464">
        <ele>37.5</ele>
        <time>2023-01-28T13:22:18Z</time>
      </trkpt>
      <trkpt lat="49.90143" lon="2.25464">
        <ele>37.5</ele>
        <time>2023-01-28T13:22:19Z</time>
      </trkpt>
      <trkpt lat="49.90143" lon="2.25464">
        <ele>37.5</ele>
        <time>2023-01-28T13:22:20Z</time>
      </trkpt>
      <trkpt lat="49.90143" lon="2.25464">
        <ele>37.5</ele>
        <time>2023-01-28T13:22:21Z</time>
      </trkpt>
      <trkpt lat="49.90143" lon="2.25464">
        <ele>37.5</ele>
        <time>2023-01-28T13:22:22Z</time>
      </trkpt>
      <trkpt lat="49.90143" lon="2.25464">
        <ele>37.5</ele>
        <time>2023-01-28T13:22:23Z</time>
      </trkpt>
      <trkpt lat="49.90143" lon="2.25464">
        <ele>37.5</ele>
        <time>2023-01-28T13:22:24Z</time>
      </trkpt>
      <trkpt lat="49.90143" lon="2.25464">
        <ele>37.5</ele>
        <time>2023-01-28T13:22:25Z</time>
      </trkpt>
      <trkpt lat="49.90143" lon="2.25464">
        <ele>37.5</ele>
        <time>2023-01-28T13:22:26Z</time>
      </trkpt>
      <trkpt lat="49.90143" lon="2.25464">
        <ele>37.5</ele>
        <time>2023-01-28T13:22:27Z</time>
      </trkpt>
      <trkpt lat="49.90143" lon="2.25464">
        <ele>37.5</ele>
        <time>2023-01-28T13:22:28Z</time>
      </trkpt>
      <trkpt lat="49.90143" lon="2.25464">
        <ele>37.5</ele>
        <time>2023-01-28T13:22:29Z</time>
      </trkpt>
      <trkpt lat="49.90143" lon="2.25464">
        <ele>37.5</ele>
        <time>2023-01-28T13:22:30Z</time>
      </trkpt>
      <trkpt lat="49.90143" lon="2.25464">
        <ele>37.5</ele>
        <time>2023-01-28T13:22:31Z</time>
      </trkpt>
      <trkpt lat="49.90143" lon="2.25464">
        <ele>37.5</ele>
        <time>2023-01-28T13:22:32Z</time>
      </trkpt>
      <trkpt lat="49.90143" lon="2.25464">
        <ele>37.5</ele>
        <time>2023-01-28T13:22:33Z</time>
      </trkpt>
      <trkpt lat="49.90143" lon="2.25464">
        <ele>37.5</ele>
        <time>2023-01-28T13:22:34Z</time>
      </trkpt>
      <trkpt lat="49.90143" lon="2.25464">
        <ele>37.5</ele>
        <time>2023-01-28T13:22:35Z</time>
      </trkpt>
      <trkpt lat="49.90143" lon="2.25464">
        <ele>37.5</ele>
        <time>2023-01-28T13:22:36Z</time>
      </trkpt>
      <trkpt lat="49.90143" lon="2.25464">
        <ele>37.5</ele>
        <time>2023-01-28T13:22:37Z</time>
      </trkpt>
      <trkpt lat="49.90143" lon="2.25464">
        <ele>37.5</ele>
        <time>2023-01-28T13:22:38Z</time>
      </trkpt>
      <trkpt lat="49.90143" lon="2.25464">
        <ele>37.5</ele>
        <time>2023-01-28T13:22:39Z</time>
      </trkpt>
      <trkpt lat="49.90143" lon="2.25464">
        <ele>37.5</ele>
        <time>2023-01-28T13:22:40Z</time>
      </trkpt>
      <trkpt lat="49.90143" lon="2.25464">
        <ele>37.5</ele>
        <time>2023-01-28T13:22:41Z</time>
      </trkpt>
      <trkpt lat="49.90143" lon="2.25464">
        <ele>37.5</ele>
        <time>2023-01-28T13:22:42Z</time>
      </trkpt>
      <trkpt lat="49.90143" lon="2.25464">
        <ele>37.5</ele>
        <time>2023-01-28T13:22:43Z</time>
      </trkpt>
      <trkpt lat="49.90143" lon="2.25464">
        <ele>37.5</ele>
        <time>2023-01-28T13:22:44Z</time>
      </trkpt>
      <trkpt lat="49.90143" lon="2.25464">
        <ele>37.5</ele>
        <time>2023-01-28T13:22:45Z</time>
      </trkpt>
      <trkpt lat="49.90143" lon="2.25464">
        <ele>37.5</ele>
        <time>2023-01-28T13:22:46Z</time>
      </trkpt>
      <trkpt lat="49.90143" lon="2.25464">
        <ele>37.5</ele>
        <time>2023-01-28T13:22:47Z</time>
      </trkpt>
      <trkpt lat="49.90143" lon="2.25464">
        <ele>37.5</ele>
        <time>2023-01-28T13:22:48Z</time>
      </trkpt>
      <trkpt lat="49.90143" lon="2.25464">
        <ele>37.5</ele>
        <time>2023-01-28T13:22:49Z</time>
      </trkpt>
      <trkpt lat="49.90143" lon="2.25464">
        <ele>37.5</ele>
        <time>2023-01-28T13:22:50Z</time>
      </trkpt>
      <trkpt lat="49.90143" lon="2.25464">
        <ele>37.5</ele>
        <time>2023-01-28T13:22:51Z</time>
      </trkpt>
      <trkpt lat="49.90143" lon="2.25464">
        <ele>37.5</ele>
        <time>2023-01-28T13:22:52Z</time>
      </trkpt>
      <trkpt lat="49.90143" lon="2.25464">
        <ele>37.5</ele>
        <time>2023-01-28T13:22:53Z</time>
      </trkpt>
      <trkpt lat="49.90143" lon="2.25464">
        <ele>37.5</ele>
        <time>2023-01-28T13:22:54Z</time>
      </trkpt>
      <trkpt lat="49.90143" lon="2.25464">
        <ele>37.5</ele>
        <time>2023-01-28T13:22:55Z</time>
      </trkpt>
      <trkpt lat="49.90143" lon="2.25464">
        <ele>37.5</ele>
        <time>2023-01-28T13:22:56Z</time>
      </trkpt>
      <trkpt lat="49.90143" lon="2.25464">
        <ele>37.5</ele>
        <time>2023-01-28T13:22:57Z</time>
      </trkpt>
      <trkpt lat="49.90143" lon="2.25464">
        <ele>37.5</ele>
        <time>2023-01-28T13:22:58Z</time>
      </trkpt>
      <trkpt lat="49.90143" lon="2.25464">
        <ele>37.5</ele>
        <time>2023-01-28T13:22:59Z</time>
      </trkpt>
      <trkpt lat="49.90143" lon="2.25464">
        <ele>37.5</ele>
        <time>2023-01-28T13:23:00Z</time>
      </trkpt>
      <trkpt lat="49.90143" lon="2.25464">
        <ele>37.5</ele>
        <time>2023-01-28T13:23:01Z</time>
      </trkpt>
      <trkpt lat="49.90143" lon="2.25464">
        <ele>37.5</ele>
        <time>2023-01-28T13:23:02Z</time>
      </trkpt>
      <trkpt lat="49.90143" lon="2.25464">
        <ele>37.5</ele>
        <time>2023-01-28T13:23:03Z</time>
      </trkpt>
      <trkpt lat="49.90143" lon="2.25464">
        <ele>37.5</ele>
        <time>2023-01-28T13:23:04Z</time>
      </trkpt>
      <trkpt lat="49.90143" lon="2.25464">
        <ele>37.5</ele>
        <time>2023-01-28T13:23:05Z</time>
      </trkpt>
      <trkpt lat="49.90143" lon="2.25464">
        <ele>37.5</ele>
        <time>2023-01-28T13:23:06Z</time>
      </trkpt>
      <trkpt lat="49.90143" lon="2.25464">
        <ele>37.5</ele>
        <time>2023-01-28T13:23:07Z</time>
      </trkpt>
      <trkpt lat="49.90143" lon="2.25464">
        <ele>37.5</ele>
        <time>2023-01-28T13:23:08Z</time>
      </trkpt>
      <trkpt lat="49.90143" lon="2.25464">
        <ele>37.5</ele>
        <time>2023-01-28T13:23:09Z</time>
      </trkpt>
      <trkpt lat="49.90143" lon="2.25464">
        <ele>37.5</ele>
        <time>2023-01-28T13:23:10Z</time>
      </trkpt>
      <trkpt lat="49.90143" lon="2.25464">
        <ele>37.5</ele>
        <time>2023-01-28T13:23:11Z</time>
      </trkpt>
      <trkpt lat="49.90143" lon="2.25464">
        <ele>37.5</ele>
        <time>2023-01-28T13:23:12Z</time>
      </trkpt>
      <trkpt lat="49.90143" lon="2.25464">
        <ele>37.5</ele>
        <time>2023-01-28T13:23:13Z</time>
      </trkpt>
      <trkpt lat="49.90143" lon="2.25464">
        <ele>37.5</ele>
        <time>2023-01-28T13:23:14Z</time>
      </trkpt>
      <trkpt lat="49.90143" lon="2.25464">
        <ele>37.5</ele>
        <time>2023-01-28T13:23:15Z</time>
      </trkpt>
      <trkpt lat="49.90143" lon="2.25464">
        <ele>37.5</ele>
        <time>2023-01-28T13:23:16Z</time>
      </trkpt>
      <trkpt lat="49.90143" lon="2.25464">
        <ele>37.5</ele>
        <time>2023-01-28T13:23:17Z</time>
      </trkpt>
      <trkpt lat="49.90143" lon="2.25464">
        <ele>37.5</ele>
        <time>2023-01-28T13:23:18Z</time>
      </trkpt>
      <trkpt lat="49.90143" lon="2.25464">
        <ele>37.5</ele>
        <time>2023-01-28T13:23:19Z</time>
      </trkpt>
      <trkpt lat="49.90143" lon="2.25464">
        <ele>37.5</ele>
        <time>2023-01-28T13:23:20Z</time>
      </trkpt>
      <trkpt lat="49.90143" lon="2.25464">
        <ele>37.5</ele>
        <time>2023-01-28T13:23:21Z</time>
      </trkpt>
      <trkpt lat="49.90143" lon="2.25464">
        <ele>37.5</ele>
        <time>2023-01-28T13:23:22Z</time>
      </trkpt>
      <trkpt lat="49.90143" lon="2.25464">
        <ele>37.5</ele>
        <time>2023-01-28T13:23:23Z</time>
      </trkpt>
      <trkpt lat="49.90143" lon="2.25464">
        <ele>37.5</ele>
        <time>2023-01-28T13:23:24Z</time>
      </trkpt>
      <trkpt lat="49.90143" lon="2.25464">
        <ele>37.5</ele>
        <time>2023-01-28T13:23:25Z</time>
      </trkpt>
      <trkpt lat="49.90143" lon="2.25464">
        <ele>37.5</ele>
        <time>2023-01-28T13:23:26Z</time>
      </trkpt>
      <trkpt lat="49.90143" lon="2.25464">
        <ele>37.5</ele>
        <time>2023-01-28T13:23:27Z</time>
      </trkpt>
      <trkpt lat="49.90143" lon="2.25464">
        <ele>37.5</ele>
        <time>2023-01-28T13:23:28Z</time>
      </trkpt>
      <trkpt lat="49.90143" lon="2.25464">
        <ele>37.5</ele>
        <time>2023-01-28T13:23:29Z</time>
      </trkpt>
      <trkpt lat="49.90143" lon="2.25464">
        <ele>37.5</ele>
        <time>2023-01-28T13:23:30Z</time>
      </trkpt>
      <trkpt lat="49.90143" lon="2.25464">
        <ele>37.5</ele>
        <time>2023-01-28T13:23:31Z</time>
      </trkpt>
      <trkpt lat="49.90143" lon="2.25464">
        <ele>37.5</ele>
        <time>2023-01-28T13:23:32Z</time>
      </trkpt>
      <trkpt lat="49.90143" lon="2.25464">
        <ele>37.5</ele>
        <time>2023-01-28T13:23:33Z</time>
      </trkpt>
      <trkpt lat="49.90143" lon="2.25464">
        <ele>37.5</ele>
        <time>2023-01-28T13:23:34Z</time>
      </trkpt>
      <trkpt lat="49.90143" lon="2.25464">
        <ele>37.5</ele>
        <time>2023-01-28T13:23:35Z</time>
      </trkpt>
      <trkpt lat="49.90143" lon="2.25464">
        <ele>37.5</ele>
        <time>2023-01-28T13:23:36Z</time>
      </trkpt>
      <trkpt lat="49.90143" lon="2.25464">
        <ele>37.5</ele>
        <time>2023-01-28T13:23:37Z</time>
      </trkpt>
      <trkpt lat="49.90143" lon="2.25464">
        <ele>37.5</ele>
        <time>2023-01-28T13:23:38Z</time>
      </trkpt>
      <trkpt lat="49.90143" lon="2.25464">
        <ele>37.5</ele>
        <time>2023-01-28T13:23:39Z</time>
      </trkpt>
      <trkpt lat="49.90143" lon="2.25464">
        <ele>37.5</ele>
        <time>2023-01-28T13:23:40Z</time>
      </trkpt>
      <trkpt lat="49.90143" lon="2.25464">
        <ele>37.5</ele>
        <time>2023-01-28T13:23:41Z</time>
      </trkpt>
      <trkpt lat="49.90143" lon="2.25464">
        <ele>37.5</ele>
        <time>2023-01-28T13:23:42Z</time>
      </trkpt>
      <trkpt lat="49.90143" lon="2.25464">
        <ele>37.5</ele>
        <time>2023-01-28T13:23:43Z</time>
      </trkpt>
      <trkpt lat="49.90143" lon="2.25464">
        <ele>37.5</ele>
        <time>2023-01-28T13:23:44Z</time>
      </trkpt>
      <trkpt lat="49.90143" lon="2.25464">
        <ele>37.5</ele>
        <time>2023-01-28T13:23:45Z</time>
      </trkpt>
      <trkpt lat="49.90143" lon="2.25464">
        <ele>37.5</ele>
        <time>2023-01-28T13:23:46Z</time>
      </trkpt>
      <trkpt lat="49.90143" lon="2.25464">
        <ele>37.5</ele>
        <time>2023-01-28T13:23:47Z</time>
      </trkpt>
      <trkpt lat="49.90143" lon="2.25464">
        <ele>37.5</ele>
        <time>2023-01-28T13:23:48Z</time>
      </trkpt>
      <trkpt lat="49.90143" lon="2.25464">
        <ele>37.5</ele>
        <time>2023-01-28T13:23:49Z</time>
      </trkpt>
      <trkpt lat="49.90143" lon="2.25464">
        <ele>37.5</ele>
        <time>2023-01-28T13:23:50Z</time>
      </trkpt>
      <trkpt lat="49.90143" lon="2.25464">
        <ele>37.5</ele>
        <time>2023-01-28T13:23:51Z</time>
      </trkpt>
      <trkpt lat="49.90143" lon="2.25464">
        <ele>37.5</ele>
        <time>2023-01-28T13:23:52Z</time>
      </trkpt>
      <trkpt lat="49.90143" lon="2.25464">
        <ele>37.5</ele>
        <time>2023-01-28T13:23:53Z</time>
      </trkpt>
      <trkpt lat="49.90143" lon="2.25464">
        <ele>37.5</ele>
        <time>2023-01-28T13:23:54Z</time>
      </trkpt>
      <trkpt lat="49.90143" lon="2.25464">
        <ele>37.5</ele>
        <time>2023-01-28T13:23:55Z</time>
      </trkpt>
      <trkpt lat="49.90143" lon="2.25464">
        <ele>37.5</ele>
        <time>2023-01-28T13:23:56Z</time>
      </trkpt>
      <trkpt lat="49.90143" lon="2.25464">
        <ele>37.5</ele>
        <time>2023-01-28T13:23:57Z</time>
      </trkpt>
      <trkpt lat="49.90143" lon="2.25464">
        <ele>37.5</ele>
        <time>2023-01-28T13:23:58Z</time>
      </trkpt>
      <trkpt lat="49.90143" lon="2.25464">
        <ele>37.5</ele>
        <time>2023-01-28T13:23:59Z</time>
      </trkpt>
      <trkpt lat="49.90143" lon="2.25464">
        <ele>37.5</ele>
        <time>2023-01-28T13:24:00Z</time>
      </trkpt>
      <trkpt lat="49.90143" lon="2.25464">
        <ele>37.5</ele>
        <time>2023-01-28T13:24:01Z</time>
      </trkpt>
      <trkpt lat="49.90143" lon="2.25464">
        <ele>37.5</ele>
        <time>2023-01-28T13:24:02Z</time>
      </trkpt>
      <trkpt lat="49.90143" lon="2.25464">
        <ele>37.5</ele>
        <time>2023-01-28T13:24:03Z</time>
      </trkpt>
      <trkpt lat="49.90143" lon="2.25464">
        <ele>37.5</ele>
        <time>2023-01-28T13:24:04Z</time>
      </trkpt>
      <trkpt lat="49.90143" lon="2.25464">
        <ele>37.5</ele>
        <time>2023-01-28T13:24:05Z</time>
      </trkpt>
      <trkpt lat="49.90143" lon="2.25464">
        <ele>37.5</ele>
        <time>2023-01-28T13:24:06Z</time>
      </trkpt>
      <trkpt lat="49.90143" lon="2.25464">
        <ele>37.5</ele>
        <time>2023-01-28T13:24:07Z</time>
      </trkpt>
      <trkpt lat="49.90143" lon="2.25464">
        <ele>37.5</ele>
        <time>2023-01-28T13:24:08Z</time>
      </trkpt>
      <trkpt lat="49.90143" lon="2.25464">
        <ele>37.5</ele>
        <time>2023-01-28T13:24:09Z</time>
      </trkpt>
      <trkpt lat="49.90143" lon="2.25464">
        <ele>37.5</ele>
        <time>2023-01-28T13:24:10Z</time>
      </trkpt>
      <trkpt lat="49.90143" lon="2.25464">
        <ele>37.5</ele>
        <time>2023-01-28T13:24:11Z</time>
      </trkpt>
      <trkpt lat="49.90143" lon="2.25464">
        <ele>37.5</ele>
        <time>2023-01-28T13:24:12Z</time>
      </trkpt>
      <trkpt lat="49.90143" lon="2.25464">
        <ele>37.5</ele>
        <time>2023-01-28T13:24:13Z</time>
      </trkpt>
      <trkpt lat="49.90143" lon="2.25464">
        <ele>37.5</ele>
        <time>2023-01-28T13:24:14Z</time>
      </trkpt>
      <trkpt lat="49.90143" lon="2.25464">
        <ele>37.5</ele>
        <time>2023-01-28T13:24:15Z</time>
      </trkpt>
      <trkpt lat="49.90143" lon="2.25464">
        <ele>37.5</ele>
        <time>2023-01-28T13:24:16Z</time>
      </trkpt>
      <trkpt lat="49.90143" lon="2.25464">
        <ele>37.5</ele>
        <time>2023-01-28T13:24:17Z</time>
      </trkpt>
      <trkpt lat="49.90143" lon="2.25464">
        <ele>37.5</ele>
        <time>2023-01-28T13:24:18Z</time>
      </trkpt>
      <trkpt lat="49.90143" lon="2.25464">
        <ele>37.5</ele>
        <time>2023-01-28T13:24:19Z</time>
      </trkpt>
      <trkpt lat="49.90143" lon="2.25464">
        <ele>37.5</ele>
        <time>2023-01-28T13:24:20Z</time>
      </trkpt>
      <trkpt lat="49.90143" lon="2.25464">
        <ele>37.5</ele>
        <time>2023-01-28T13:24:21Z</time>
      </trkpt>
      <trkpt lat="49.90143" lon="2.25464">
        <ele>37.5</ele>
        <time>2023-01-28T13:24:22Z</time>
      </trkpt>
      <trkpt lat="49.90143" lon="2.25464">
        <ele>37.5</ele>
        <time>2023-01-28T13:24:23Z</time>
      </trkpt>
      <trkpt lat="49.90143" lon="2.25464">
        <ele>37.5</ele>
        <time>2023-01-28T13:24:24Z</time>
      </trkpt>
      <trkpt lat="49.90143" lon="2.25464">
        <ele>37.5</ele>
        <time>2023-01-28T13:24:25Z</time>
      </trkpt>
      <trkpt lat="49.90143" lon="2.25464">
        <ele>37.5</ele>
        <time>2023-01-28T13:24:26Z</time>
      </trkpt>
      <trkpt lat="49.90143" lon="2.25464">
        <ele>37.5</ele>
        <time>2023-01-28T13:24:27Z</time>
      </trkpt>
      <trkpt lat="49.90143" lon="2.25464">
        <ele>37.5</ele>
        <time>2023-01-28T13:24:28Z</time>
      </trkpt>
      <trkpt lat="49.90143" lon="2.25464">
        <ele>37.5</ele>
        <time>2023-01-28T13:24:29Z</time>
      </trkpt>
      <trkpt lat="49.90143" lon="2.25464">
        <ele>37.5</ele>
        <time>2023-01-28T13:24:30Z</time>
      </trkpt>
      <trkpt lat="49.90143" lon="2.25464">
        <ele>37.5</ele>
        <time>2023-01-28T13:24:31Z</time>
      </trkpt>
      <trkpt lat="49.90143" lon="2.25464">
        <ele>37.5</ele>
        <time>2023-01-28T13:24:32Z</time>
      </trkpt>
      <trkpt lat="49.90143" lon="2.25464">
        <ele>37.5</ele>
        <time>2023-01-28T13:24:33Z</time>
      </trkpt>
      <trkpt lat="49.90143" lon="2.25464">
        <ele>37.5</ele>
        <time>2023-01-28T13:24:34Z</time>
      </trkpt>
      <trkpt lat="49.90143" lon="2.25464">
        <ele>37.5</ele>
        <time>2023-01-28T13:24:35Z</time>
      </trkpt>
      <trkpt lat="49.90143" lon="2.25464">
        <ele>37.5</ele>
        <time>2023-01-28T13:24:36Z</time>
      </trkpt>
      <trkpt lat="49.90143" lon="2.25464">
        <ele>37.5</ele>
        <time>2023-01-28T13:24:37Z</time>
      </trkpt>
      <trkpt lat="49.90143" lon="2.25464">
        <ele>37.5</ele>
        <time>2023-01-28T13:24:38Z</time>
      </trkpt>
      <trkpt lat="49.90143" lon="2.25464">
        <ele>37.5</ele>
        <time>2023-01-28T13:24:39Z</time>
      </trkpt>
      <trkpt lat="49.90143" lon="2.25464">
        <ele>37.5</ele>
        <time>2023-01-28T13:24:40Z</time>
      </trkpt>
      <trkpt lat="49.90143" lon="2.25464">
        <ele>37.5</ele>
        <time>2023-01-28T13:24:41Z</time>
      </trkpt>
      <trkpt lat="49.90143" lon="2.25464">
        <ele>37.5</ele>
        <time>2023-01-28T13:24:42Z</time>
      </trkpt>
      <trkpt lat="49.90143" lon="2.25464">
        <ele>37.5</ele>
        <time>2023-01-28T13:24:43Z</time>
      </trkpt>
      <trkpt lat="49.90143" lon="2.25464">
        <ele>37.5</ele>
        <time>2023-01-28T13:24:44Z</time>
      </trkpt>
      <trkpt lat="49.90143" lon="2.25464">
        <ele>37.5</ele>
        <time>2023-01-28T13:24:45Z</time>
      </trkpt>
      <trkpt lat="49.90143" lon="2.25464">
        <ele>37.5</ele>
        <time>2023-01-28T13:24:46Z</time>
      </trkpt>
      <trkpt lat="49.90143" lon="2.25464">
        <ele>37.5</ele>
        <time>2023-01-28T13:24:47Z</time>
      </trkpt>
      <trkpt lat="49.90143" lon="2.25464">
        <ele>37.5</ele>
        <time>2023-01-28T13:24:48Z</time>
      </trkpt>
      <trkpt lat="49.90143" lon="2.25464">
        <ele>37.5</ele>
        <time>2023-01-28T13:24:49Z</time>
      </trkpt>
      <trkpt lat="49.90143" lon="2.25464">
        <ele>37.5</ele>
        <time>2023-01-28T13:24:50Z</time>
      </trkpt>
      <trkpt lat="49.90143" lon="2.25464">
        <ele>37.5</ele>
        <time>2023-01-28T13:24:51Z</time>
      </trkpt>
      <trkpt lat="49.90143" lon="2.25464">
        <ele>37.5</ele>
        <time>2023-01-28T13:24:52Z</time>
      </trkpt>
      <trkpt lat="49.90143" lon="2.25464">
        <ele>37.5</ele>
        <time>2023-01-28T13:24:53Z</time>
      </trkpt>
      <trkpt lat="49.90143" lon="2.25464">
        <ele>37.5</ele>
        <time>2023-01-28T13:24:54Z</time>
      </trkpt>
      <trkpt lat="49.90143" lon="2.25464">
        <ele>37.5</ele>
        <time>2023-01-28T13:24:55Z</time>
      </trkpt>
      <trkpt lat="49.90143" lon="2.25464">
        <ele>37.5</ele>
        <time>2023-01-28T13:24:56Z</time>
      </trkpt>
      <trkpt lat="49.90143" lon="2.25464">
        <ele>37.5</ele>
        <time>2023-01-28T13:24:57Z</time>
      </trkpt>
      <trkpt lat="49.90143" lon="2.25464">
        <ele>37.5</ele>
        <time>2023-01-28T13:24:58Z</time>
      </trkpt>
      <trkpt lat="49.90143" lon="2.25464">
        <ele>37.5</ele>
        <time>2023-01-28T13:24:59Z</time>
      </trkpt>
      <trkpt lat="49.90143" lon="2.25464">
        <ele>37.5</ele>
        <time>2023-01-28T13:25:00Z</time>
      </trkpt>
      <trkpt lat="49.90143" lon="2.25464">
        <ele>37.5</ele>
        <time>2023-01-28T13:25:01Z</time>
      </trkpt>
      <trkpt lat="49.90143" lon="2.25464">
        <ele>37.5</ele>
        <time>2023-01-28T13:25:02Z</time>
      </trkpt>
      <trkpt lat="49.90143" lon="2.25464">
        <ele>37.5</ele>
        <time>2023-01-28T13:25:03Z</time>
      </trkpt>
      <trkpt lat="49.90143" lon="2.25464">
        <ele>37.5</ele>
        <time>2023-01-28T13:25:04Z</time>
      </trkpt>
      <trkpt lat="49.90143" lon="2.25464">
        <ele>37.5</ele>
        <time>2023-01-28T13:25:05Z</time>
      </trkpt>
      <trkpt lat="49.90143" lon="2.25464">
        <ele>37.5</ele>
        <time>2023-01-28T13:25:06Z</time>
      </trkpt>
      <trkpt lat="49.90143" lon="2.25464">
        <ele>37.5</ele>
        <time>2023-01-28T13:25:07Z</time>
      </trkpt>
      <trkpt lat="49.90143" lon="2.25464">
        <ele>37.5</ele>
        <time>2023-01-28T13:25:08Z</time>
      </trkpt>
      <trkpt lat="49.90143" lon="2.25464">
        <ele>37.5</ele>
        <time>2023-01-28T13:25:09Z</time>
      </trkpt>
      <trkpt lat="49.90143" lon="2.25464">
        <ele>37.5</ele>
        <time>2023-01-28T13:25:10Z</time>
      </trkpt>
      <trkpt lat="49.90143" lon="2.25464">
        <ele>37.5</ele>
        <time>2023-01-28T13:25:11Z</time>
      </trkpt>
      <trkpt lat="49.90143" lon="2.25464">
        <ele>37.5</ele>
        <time>2023-01-28T13:25:12Z</time>
      </trkpt>
      <trkpt lat="49.90143" lon="2.25464">
        <ele>37.5</ele>
        <time>2023-01-28T13:25:13Z</time>
      </trkpt>
      <trkpt lat="49.90143" lon="2.25464">
        <ele>37.5</ele>
        <time>2023-01-28T13:25:14Z</time>
      </trkpt>
      <trkpt lat="49.90143" lon="2.25464">
        <ele>37.5</ele>
        <time>2023-01-28T13:25:15Z</time>
      </trkpt>
      <trkpt lat="49.90143" lon="2.25464">
        <ele>37.5</ele>
        <time>2023-01-28T13:25:16Z</time>
      </trkpt>
      <trkpt lat="49.90143" lon="2.25464">
        <ele>37.5</ele>
        <time>2023-01-28T13:25:17Z</time>
      </trkpt>
      <trkpt lat="49.90143" lon="2.25464">
        <ele>37.5</ele>
        <time>2023-01-28T13:25:18Z</time>
      </trkpt>
      <trkpt lat="49.90143" lon="2.25464">
        <ele>37.5</ele>
        <time>2023-01-28T13:25:19Z</time>
      </trkpt>
      <trkpt lat="49.90143" lon="2.25464">
        <ele>37.5</ele>
        <time>2023-01-28T13:25:20Z</time>
      </trkpt>
      <trkpt lat="49.90143" lon="2.25464">
        <ele>37.5</ele>
        <time>2023-01-28T13:25:21Z</time>
      </trkpt>
      <trkpt lat="49.90143" lon="2.25464">
        <ele>37.5</ele>
        <time>2023-01-28T13:25:22Z</time>
      </trkpt>
      <trkpt lat="49.90143" lon="2.25464">
        <ele>37.5</ele>
        <time>2023-01-28T13:25:23Z</time>
      </trkpt>
      <trkpt lat="49.90143" lon="2.25464">
        <ele>37.5</ele>
        <time>2023-01-28T13:25:24Z</time>
      </trkpt>
      <trkpt lat="49.90143" lon="2.25464">
        <ele>37.5</ele>
        <time>2023-01-28T13:25:25Z</time>
      </trkpt>
      <trkpt lat="49.90143" lon="2.25464">
        <ele>37.5</ele>
        <time>2023-01-28T13:25:26Z</time>
      </trkpt>
      <trkpt lat="49.90143" lon="2.25464">
        <ele>37.5</ele>
        <time>2023-01-28T13:25:27Z</time>
      </trkpt>
      <trkpt lat="49.90143" lon="2.25464">
        <ele>37.5</ele>
        <time>2023-01-28T13:25:28Z</time>
      </trkpt>
      <trkpt lat="49.90143" lon="2.25464">
        <ele>37.5</ele>
        <time>2023-01-28T13:25:29Z</time>
      </trkpt>
      <trkpt lat="49.90143" lon="2.25464">
        <ele>37.5</ele>
        <time>2023-01-28T13:25:30Z</time>
      </trkpt>
      <trkpt lat="49.90143" lon="2.25464">
        <ele>37.5</ele>
        <time>2023-01-28T13:25:31Z</time>
      </trkpt>
      <trkpt lat="49.90143" lon="2.25464">
        <ele>37.5</ele>
        <time>2023-01-28T13:25:32Z</time>
      </trkpt>
      <trkpt lat="49.90143" lon="2.25464">
        <ele>37.5</ele>
        <time>2023-01-28T13:25:33Z</time>
      </trkpt>
      <trkpt lat="49.90143" lon="2.25464">
        <ele>37.5</ele>
        <time>2023-01-28T13:25:34Z</time>
      </trkpt>
      <trkpt lat="49.90143" lon="2.25464">
        <ele>37.5</ele>
        <time>2023-01-28T13:25:35Z</time>
      </trkpt>
      <trkpt lat="49.90143" lon="2.25464">
        <ele>37.5</ele>
        <time>2023-01-28T13:25:36Z</time>
      </trkpt>
      <trkpt lat="49.90143" lon="2.25464">
        <ele>37.5</ele>
        <time>2023-01-28T13:25:37Z</time>
      </trkpt>
      <trkpt lat="49.90143" lon="2.25464">
        <ele>37.5</ele>
        <time>2023-01-28T13:25:38Z</time>
      </trkpt>
      <trkpt lat="49.90143" lon="2.25464">
        <ele>37.5</ele>
        <time>2023-01-28T13:25:39Z</time>
      </trkpt>
      <trkpt lat="49.90143" lon="2.25464">
        <ele>37.5</ele>
        <time>2023-01-28T13:25:40Z</time>
      </trkpt>
      <trkpt lat="49.90143" lon="2.25464">
        <ele>37.5</ele>
        <time>2023-01-28T13:25:41Z</time>
      </trkpt>
      <trkpt lat="49.90143" lon="2.25464">
        <ele>37.5</ele>
        <time>2023-01-28T13:25:42Z</time>
      </trkpt>
      <trkpt lat="49.90143" lon="2.25464">
        <ele>37.5</ele>
        <time>2023-01-28T13:25:43Z</time>
      </trkpt>
      <trkpt lat="49.90143" lon="2.25464">
        <ele>37.5</ele>
        <time>2023-01-28T13:25:44Z</time>
      </trkpt>
      <trkpt lat="49.90143" lon="2.25464">
        <ele>37.5</ele>
        <time>2023-01-28T13:25:45Z</time>
      </trkpt>
      <trkpt lat="49.90143" lon="2.25464">
        <ele>37.5</ele>
        <time>2023-01-28T13:25:46Z</time>
      </trkpt>
      <trkpt lat="49.90143" lon="2.25464">
        <ele>37.5</ele>
        <time>2023-01-28T13:25:47Z</time>
      </trkpt>
      <trkpt lat="49.90143" lon="2.25464">
        <ele>37.5</ele>
        <time>2023-01-28T13:25:48Z</time>
      </trkpt>
      <trkpt lat="49.90143" lon="2.25464">
        <ele>37.5</ele>
        <time>2023-01-28T13:25:49Z</time>
      </trkpt>
      <trkpt lat="49.90143" lon="2.25464">
        <ele>37.5</ele>
        <time>2023-01-28T13:25:50Z</time>
      </trkpt>
      <trkpt lat="49.90143" lon="2.25464">
        <ele>37.5</ele>
        <time>2023-01-28T13:25:51Z</time>
      </trkpt>
      <trkpt lat="49.90143" lon="2.25464">
        <ele>37.5</ele>
        <time>2023-01-28T13:25:52Z</time>
      </trkpt>
      <trkpt lat="49.90143" lon="2.25464">
        <ele>37.5</ele>
        <time>2023-01-28T13:25:53Z</time>
      </trkpt>
      <trkpt lat="49.90143" lon="2.25464">
        <ele>37.5</ele>
        <time>2023-01-28T13:25:54Z</time>
      </trkpt>
      <trkpt lat="49.90143" lon="2.25464">
        <ele>37.5</ele>
        <time>2023-01-28T13:25:55Z</time>
      </trkpt>
      <trkpt lat="49.90143" lon="2.25464">
        <ele>37.5</ele>
        <time>2023-01-28T13:25:56Z</time>
      </trkpt>
      <trkpt lat="49.90143" lon="2.25464">
        <ele>37.5</ele>
        <time>2023-01-28T13:25:57Z</time>
      </trkpt>
      <trkpt lat="49.90143" lon="2.25464">
        <ele>37.5</ele>
        <time>2023-01-28T13:25:58Z</time>
      </trkpt>
      <trkpt lat="49.90143" lon="2.25464">
        <ele>37.5</ele>
        <time>2023-01-28T13:25:59Z</time>
      </trkpt>
      <trkpt lat="49.90143" lon="2.25464">
        <ele>37.5</ele>
        <time>2023-01-28T13:26:00Z</time>
      </trkpt>
      <trkpt lat="49.90143" lon="2.25464">
        <ele>37.5</ele>
        <time>2023-01-28T13:26:01Z</time>
      </trkpt>
      <trkpt lat="49.90143" lon="2.25464">
        <ele>37.5</ele>
        <time>2023-01-28T13:26:02Z</time>
      </trkpt>
      <trkpt lat="49.90143" lon="2.25464">
        <ele>37.5</ele>
        <time>2023-01-28T13:26:03Z</time>
      </trkpt>
      <trkpt lat="49.90143" lon="2.25464">
        <ele>37.5</ele>
        <time>2023-01-28T13:26:04Z</time>
      </trkpt>
      <trkpt lat="49.90143" lon="2.25464">
        <ele>37.5</ele>
        <time>2023-01-28T13:26:05Z</time>
      </trkpt>
      <trkpt lat="49.90143" lon="2.25464">
        <ele>37.5</ele>
        <time>2023-01-28T13:26:06Z</time>
      </trkpt>
      <trkpt lat="49.90143" lon="2.25464">
        <ele>37.5</ele>
        <time>2023-01-28T13:26:07Z</time>
      </trkpt>
      <trkpt lat="49.90143" lon="2.25464">
        <ele>37.5</ele>
        <time>2023-01-28T13:26:08Z</time>
      </trkpt>
      <trkpt lat="49.90143" lon="2.25464">
        <ele>37.5</ele>
        <time>2023-01-28T13:26:09Z</time>
      </trkpt>
      <trkpt lat="49.90143" lon="2.25464">
        <ele>37.5</ele>
        <time>2023-01-28T13:26:10Z</time>
      </trkpt>
      <trkpt lat="49.90143" lon="2.25464">
        <ele>37.5</ele>
        <time>2023-01-28T13:26:11Z</time>
      </trkpt>
      <trkpt lat="49.90143" lon="2.25464">
        <ele>37.5</ele>
        <time>2023-01-28T13:26:12Z</time>
      </trkpt>
      <trkpt lat="49.90143" lon="2.25464">
        <ele>37.5</ele>
        <time>2023-01-28T13:26:13Z</time>
      </trkpt>
      <trkpt lat="49.90143" lon="2.25464">
        <ele>37.5</ele>
        <time>2023-01-28T13:26:14Z</time>
      </trkpt>
      <trkpt lat="49.90143" lon="2.25464">
        <ele>37.5</ele>
        <time>2023-01-28T13:26:15Z</time>
      </trkpt>
      <trkpt lat="49.90143" lon="2.25464">
        <ele>37.5</ele>
        <time>2023-01-28T13:26:16Z</time>
      </trkpt>
      <trkpt lat="49.90143" lon="2.25464">
        <ele>37.5</ele>
        <time>2023-01-28T13:26:17Z</time>
      </trkpt>
      <trkpt lat="49.90143" lon="2.25464">
        <ele>37.5</ele>
        <time>2023-01-28T13:26:18Z</time>
      </trkpt>
      <trkpt lat="49.90143" lon="2.25464">
        <ele>37.5</ele>
        <time>2023-01-28T13:26:19Z</time>
      </trkpt>
      <trkpt lat="49.90143" lon="2.25464">
        <ele>37.5</ele>
        <time>2023-01-28T13:26:20Z</time>
      </trkpt>
      <trkpt lat="49.90143" lon="2.25464">
        <ele>37.5</ele>
        <time>2023-01-28T13:26:21Z</time>
      </trkpt>
      <trkpt lat="49.90143" lon="2.25464">
        <ele>37.5</ele>
        <time>2023-01-28T13:26:22Z</time>
      </trkpt>
      <trkpt lat="49.90143" lon="2.25464">
        <ele>37.5</ele>
        <time>2023-01-28T13:26:23Z</time>
      </trkpt>
      <trkpt lat="49.90143" lon="2.25464">
        <ele>37.5</ele>
        <time>2023-01-28T13:26:24Z</time>
      </trkpt>
      <trkpt lat="49.90143" lon="2.25464">
        <ele>37.5</ele>
        <time>2023-01-28T13:26:25Z</time>
      </trkpt>
      <trkpt lat="49.90143" lon="2.25464">
        <ele>37.5</ele>
        <time>2023-01-28T13:26:26Z</time>
      </trkpt>
      <trkpt lat="49.90143" lon="2.25464">
        <ele>37.5</ele>
        <time>2023-01-28T13:26:27Z</time>
      </trkpt>
      <trkpt lat="49.90143" lon="2.25464">
        <ele>37.5</ele>
        <time>2023-01-28T13:26:28Z</time>
      </trkpt>
      <trkpt lat="49.90143" lon="2.25464">
        <ele>37.5</ele>
        <time>2023-01-28T13:26:29Z</time>
      </trkpt>
      <trkpt lat="49.90143" lon="2.25464">
        <ele>37.5</ele>
        <time>2023-01-28T13:26:30Z</time>
      </trkpt>
      <trkpt lat="49.90143" lon="2.25464">
        <ele>37.5</ele>
        <time>2023-01-28T13:26:31Z</time>
      </trkpt>
      <trkpt lat="49.90143" lon="2.25464">
        <ele>37.5</ele>
        <time>2023-01-28T13:26:32Z</time>
      </trkpt>
      <trkpt lat="49.90143" lon="2.25464">
        <ele>37.5</ele>
        <time>2023-01-28T13:26:33Z</time>
      </trkpt>
      <trkpt lat="49.90143" lon="2.25464">
        <ele>37.5</ele>
        <time>2023-01-28T13:26:34Z</time>
      </trkpt>
      <trkpt lat="49.90143" lon="2.25464">
        <ele>37.5</ele>
        <time>2023-01-28T13:26:35Z</time>
      </trkpt>
      <trkpt lat="49.90143" lon="2.25464">
        <ele>37.5</ele>
        <time>2023-01-28T13:26:36Z</time>
      </trkpt>
      <trkpt lat="49.90143" lon="2.25464">
        <ele>37.5</ele>
        <time>2023-01-28T13:26:37Z</time>
      </trkpt>
      <trkpt lat="49.90143" lon="2.25464">
        <ele>37.5</ele>
        <time>2023-01-28T13:26:38Z</time>
      </trkpt>
      <trkpt lat="49.90143" lon="2.25464">
        <ele>37.5</ele>
        <time>2023-01-28T13:26:39Z</time>
      </trkpt>
      <trkpt lat="49.90143" lon="2.25464">
        <ele>37.5</ele>
        <time>2023-01-28T13:26:40Z</time>
      </trkpt>
      <trkpt lat="49.90143" lon="2.25464">
        <ele>37.5</ele>
        <time>2023-01-28T13:26:41Z</time>
      </trkpt>
      <trkpt lat="49.90143" lon="2.25464">
        <ele>37.5</ele>
        <time>2023-01-28T13:26:42Z</time>
      </trkpt>
      <trkpt lat="49.90143" lon="2.25464">
        <ele>37.5</ele>
        <time>2023-01-28T13:26:43Z</time>
      </trkpt>
      <trkpt lat="49.90143" lon="2.25464">
        <ele>37.5</ele>
        <time>2023-01-28T13:26:44Z</time>
      </trkpt>
      <trkpt lat="49.90143" lon="2.25464">
        <ele>37.5</ele>
        <time>2023-01-28T13:26:45Z</time>
      </trkpt>
      <trkpt lat="49.90143" lon="2.25464">
        <ele>37.5</ele>
        <time>2023-01-28T13:26:46Z</time>
      </trkpt>
      <trkpt lat="49.90143" lon="2.25464">
        <ele>37.5</ele>
        <time>2023-01-28T13:26:47Z</time>
      </trkpt>
      <trkpt lat="49.90143" lon="2.25464">
        <ele>37.5</ele>
        <time>2023-01-28T13:26:48Z</time>
      </trkpt>
      <trkpt lat="49.90143" lon="2.25464">
        <ele>37.5</ele>
        <time>2023-01-28T13:26:49Z</time>
      </trkpt>
      <trkpt lat="49.90143" lon="2.25464">
        <ele>37.5</ele>
        <time>2023-01-28T13:26:50Z</time>
      </trkpt>
      <trkpt lat="49.90143" lon="2.25464">
        <ele>37.5</ele>
        <time>2023-01-28T13:26:51Z</time>
      </trkpt>
      <trkpt lat="49.90143" lon="2.25464">
        <ele>37.5</ele>
        <time>2023-01-28T13:26:52Z</time>
      </trkpt>
      <trkpt lat="49.90143" lon="2.25464">
        <ele>37.5</ele>
        <time>2023-01-28T13:26:53Z</time>
      </trkpt>
      <trkpt lat="49.90143" lon="2.25464">
        <ele>37.5</ele>
        <time>2023-01-28T13:26:54Z</time>
      </trkpt>
      <trkpt lat="49.90143" lon="2.25464">
        <ele>37.5</ele>
        <time>2023-01-28T13:26:55Z</time>
      </trkpt>
      <trkpt lat="49.90143" lon="2.25464">
        <ele>37.5</ele>
        <time>2023-01-28T13:26:56Z</time>
      </trkpt>
      <trkpt lat="49.90143" lon="2.25464">
        <ele>37.5</ele>
        <time>2023-01-28T13:26:57Z</time>
      </trkpt>
      <trkpt lat="49.90143" lon="2.25464">
        <ele>37.5</ele>
        <time>2023-01-28T13:26:58Z</time>
      </trkpt>
      <trkpt lat="49.90143" lon="2.25464">
        <ele>37.5</ele>
        <time>2023-01-28T13:26:59Z</time>
      </trkpt>
      <trkpt lat="49.90143" lon="2.25464">
        <ele>37.5</ele>
        <time>2023-01-28T13:27:00Z</time>
      </trkpt>
      <trkpt lat="49.90144" lon="2.25462">
        <ele>37.5</ele>
        <time>2023-01-28T13:27:01Z</time>
      </trkpt>
      <trkpt lat="49.90145" lon="2.2546">
        <ele>37.6</ele>
        <time>2023-01-28T13:27:02Z</time>
      </trkpt>
      <trkpt lat="49.90146" lon="2.25461">
        <ele>37.6</ele>
        <time>2023-01-28T13:27:03Z</time>
      </trkpt>
      <trkpt lat="49.90146" lon="2.25462">
        <ele>37.6</ele>
        <time>2023-01-28T13:27:04Z</time>
      </trkpt>
      <trkpt lat="49.90147" lon="2.25464">
        <ele>37.6</ele>
        <time>2023-01-28T13:27:05Z</time>
      </trkpt>
      <trkpt lat="49.90148" lon="2.25467">
        <ele>37.7</ele>
        <time>2023-01-28T13:27:06Z</time>
      </trkpt>
      <trkpt lat="49.90148" lon="2.25468">
        <ele>37.7</ele>
        <time>2023-01-28T13:27:07Z</time>
      </trkpt>
      <trkpt lat="49.90148" lon="2.2547">
        <ele>37.7</ele>
        <time>2023-01-28T13:27:08Z</time>
      </trkpt>
      <trkpt lat="49.90148" lon="2.25472">
        <ele>37.7</ele>
        <time>2023-01-28T13:27:09Z</time>
      </trkpt>
      <trkpt lat="49.90148" lon="2.25474">
        <ele>37.7</ele>
        <time>2023-01-28T13:27:10Z</time>
      </trkpt>
      <trkpt lat="49.90148" lon="2.25475">
        <ele>37.7</ele>
        <time>2023-01-28T13:27:11Z</time>
      </trkpt>
      <trkpt lat="49.90149" lon="2.25477">
        <ele>37.7</ele>
        <time>2023-01-28T13:27:12Z</time>
      </trkpt>
      <trkpt lat="49.90149" lon="2.25479">
        <ele>37.7</ele>
        <time>2023-01-28T13:27:13Z</time>
      </trkpt>
      <trkpt lat="49.90149" lon="2.2548">
        <ele>37.7</ele>
        <time>2023-01-28T13:27:14Z</time>
      </trkpt>
      <trkpt lat="49.90149" lon="2.25483">
        <ele>37.6</ele>
        <time>2023-01-28T13:27:15Z</time>
      </trkpt>
      <trkpt lat="49.90149" lon="2.25484">
        <ele>37.6</ele>
        <time>2023-01-28T13:27:16Z</time>
      </trkpt>
      <trkpt lat="49.90149" lon="2.25486">
        <ele>37.6</ele>
        <time>2023-01-28T13:27:17Z</time>
      </trkpt>
      <trkpt lat="49.90149" lon="2.25487">
        <ele>37.5</ele>
        <time>2023-01-28T13:27:18Z</time>
      </trkpt>
      <trkpt lat="49.90149" lon="2.25488">
        <ele>37.5</ele>
        <time>2023-01-28T13:27:19Z</time>
      </trkpt>
      <trkpt lat="49.90149" lon="2.25491">
        <ele>37.4</ele>
        <time>2023-01-28T13:27:20Z</time>
      </trkpt>
      <trkpt lat="49.90149" lon="2.25493">
        <ele>37.3</ele>
        <time>2023-01-28T13:27:21Z</time>
      </trkpt>
      <trkpt lat="49.90149" lon="2.25494">
        <ele>37.3</ele>
        <time>2023-01-28T13:27:22Z</time>
      </trkpt>
      <trkpt lat="49.90149" lon="2.25496">
        <ele>37.2</ele>
        <time>2023-01-28T13:27:23Z</time>
      </trkpt>
      <trkpt lat="49.90149" lon="2.25497">
        <ele>37.1</ele>
        <time>2023-01-28T13:27:24Z</time>
      </trkpt>
      <trkpt lat="49.90149" lon="2.255">
        <ele>37</ele>
        <time>2023-01-28T13:27:25Z</time>
      </trkpt>
      <trkpt lat="49.90149" lon="2.25501">
        <ele>37</ele>
        <time>2023-01-28T13:27:26Z</time>
      </trkpt>
      <trkpt lat="49.90149" lon="2.25503">
        <ele>36.9</ele>
        <time>2023-01-28T13:27:27Z</time>
      </trkpt>
      <trkpt lat="49.90149" lon="2.25505">
        <ele>36.8</ele>
        <time>2023-01-28T13:27:28Z</time>
      </trkpt>
      <trkpt lat="49.90149" lon="2.25508">
        <ele>36.6</ele>
        <time>2023-01-28T13:27:29Z</time>
      </trkpt>
      <trkpt lat="49.90149" lon="2.2551">
        <ele>36.6</ele>
        <time>2023-01-28T13:27:30Z</time>
      </trkpt>
      <trkpt lat="49.90149" lon="2.25511">
        <ele>36.5</ele>
        <time>2023-01-28T13:27:31Z</time>
      </trkpt>
      <trkpt lat="49.9015" lon="2.25513">
        <ele>36.4</ele>
        <time>2023-01-28T13:27:33Z</time>
      </trkpt>
      <trkpt lat="49.9015" lon="2.25514">
        <ele>36.4</ele>
        <time>2023-01-28T13:27:34Z</time>
      </trkpt>
      <trkpt lat="49.9015" lon="2.25517">
        <ele>36.3</ele>
        <time>2023-01-28T13:27:35Z</time>
      </trkpt>
      <trkpt lat="49.9015" lon="2.25518">
        <ele>36.2</ele>
        <time>2023-01-28T13:27:36Z</time>
      </trkpt>
      <trkpt lat="49.9015" lon="2.2552">
        <ele>36.1</ele>
        <time>2023-01-28T13:27:38Z</time>
      </trkpt>
      <trkpt lat="49.90151" lon="2.25524">
        <ele>36</ele>
        <time>2023-01-28T13:27:39Z</time>
      </trkpt>
      <trkpt lat="49.90152" lon="2.25525">
        <ele>35.9</ele>
        <time>2023-01-28T13:27:40Z</time>
      </trkpt>
      <trkpt lat="49.90152" lon="2.25527">
        <ele>35.8</ele>
        <time>2023-01-28T13:27:41Z</time>
      </trkpt>
      <trkpt lat="49.90153" lon="2.25528">
        <ele>35.8</ele>
        <time>2023-01-28T13:27:43Z</time>
      </trkpt>
      <trkpt lat="49.90153" lon="2.25529">
        <ele>35.7</ele>
        <time>2023-01-28T13:27:44Z</time>
      </trkpt>
      <trkpt lat="49.90154" lon="2.25532">
        <ele>35.7</ele>
        <time>2023-01-28T13:27:45Z</time>
      </trkpt>
      <trkpt lat="49.90155" lon="2.25533">
        <ele>35.6</ele>
        <time>2023-01-28T13:27:46Z</time>
      </trkpt>
      <trkpt lat="49.90155" lon="2.25536">
        <ele>35.5</ele>
        <time>2023-01-28T13:27:48Z</time>
      </trkpt>
      <trkpt lat="49.90156" lon="2.25537">
        <ele>35.5</ele>
        <time>2023-01-28T13:27:49Z</time>
      </trkpt>
      <trkpt lat="49.90157" lon="2.2554">
        <ele>35.4</ele>
        <time>2023-01-28T13:27:50Z</time>
      </trkpt>
      <trkpt lat="49.90157" lon="2.25541">
        <ele>35.3</ele>
        <time>2023-01-28T13:27:51Z</time>
      </trkpt>
      <trkpt lat="49.90157" lon="2.25543">
        <ele>35.3</ele>
        <time>2023-01-28T13:27:52Z</time>
      </trkpt>
      <trkpt lat="49.90158" lon="2.25546">
        <ele>35.2</ele>
        <time>2023-01-28T13:27:53Z</time>
      </trkpt>
      <trkpt lat="49.90158" lon="2.25548">
        <ele>35.2</ele>
        <time>2023-01-28T13:27:54Z</time>
      </trkpt>
      <trkpt lat="49.90158" lon="2.25549">
        <ele>35.1</ele>
        <time>2023-01-28T13:27:55Z</time>
      </trkpt>
      <trkpt lat="49.90158" lon="2.25551">
        <ele>35.1</ele>
        <time>2023-01-28T13:27:56Z</time>
      </trkpt>
      <trkpt lat="49.90159" lon="2.25553">
        <ele>35</ele>
        <time>2023-01-28T13:27:58Z</time>
      </trkpt>
      <trkpt lat="49.90159" lon="2.25554">
        <ele>35</ele>
        <time>2023-01-28T13:27:59Z</time>
      </trkpt>
      <trkpt lat="49.90159" lon="2.25556">
        <ele>34.9</ele>
        <time>2023-01-28T13:28:00Z</time>
      </trkpt>
      <trkpt lat="49.90159" lon="2.25558">
        <ele>34.9</ele>
        <time>2023-01-28T13:28:01Z</time>
      </trkpt>
      <trkpt lat="49.90159" lon="2.25559">
        <ele>34.9</ele>
        <time>2023-01-28T13:28:02Z</time>
      </trkpt>
      <trkpt lat="49.90159" lon="2.25561">
        <ele>34.8</ele>
        <time>2023-01-28T13:28:03Z</time>
      </trkpt>
      <trkpt lat="49.9016" lon="2.25565">
        <ele>34.7</ele>
        <time>2023-01-28T13:28:04Z</time>
      </trkpt>
      <trkpt lat="49.9016" lon="2.25565">
        <ele>34.7</ele>
        <time>2023-01-28T13:28:05Z</time>
      </trkpt>
      <trkpt lat="49.90161" lon="2.25567">
        <ele>34.7</ele>
        <time>2023-01-28T13:28:06Z</time>
      </trkpt>
      <trkpt lat="49.90161" lon="2.25568">
        <ele>34.6</ele>
        <time>2023-01-28T13:28:07Z</time>
      </trkpt>
      <trkpt lat="49.90161" lon="2.2557">
        <ele>34.6</ele>
        <time>2023-01-28T13:28:09Z</time>
      </trkpt>
      <trkpt lat="49.90162" lon="2.25573">
        <ele>34.5</ele>
        <time>2023-01-28T13:28:10Z</time>
      </trkpt>
      <trkpt lat="49.90162" lon="2.25574">
        <ele>34.5</ele>
        <time>2023-01-28T13:28:11Z</time>
      </trkpt>
      <trkpt lat="49.90163" lon="2.25577">
        <ele>34.4</ele>
        <time>2023-01-28T13:28:12Z</time>
      </trkpt>
      <trkpt lat="49.90163" lon="2.25579">
        <ele>34.4</ele>
        <time>2023-01-28T13:28:13Z</time>
      </trkpt>
      <trkpt lat="49.90163" lon="2.25581">
        <ele>34.3</ele>
        <time>2023-01-28T13:28:14Z</time>
      </trkpt>
      <trkpt lat="49.90164" lon="2.25581">
        <ele>34.3</ele>
        <time>2023-01-28T13:28:15Z</time>
      </trkpt>
      <trkpt lat="49.90164" lon="2.25583">
        <ele>34.3</ele>
        <time>2023-01-28T13:28:16Z</time>
      </trkpt>
      <trkpt lat="49.90164" lon="2.25585">
        <ele>34.2</ele>
        <time>2023-01-28T13:28:18Z</time>
      </trkpt>
      <trkpt lat="49.90165" lon="2.25587">
        <ele>34.2</ele>
        <time>2023-01-28T13:28:19Z</time>
      </trkpt>
      <trkpt lat="49.90165" lon="2.2559">
        <ele>34.1</ele>
        <time>2023-01-28T13:28:20Z</time>
      </trkpt>
      <trkpt lat="49.90166" lon="2.25593">
        <ele>34.1</ele>
        <time>2023-01-28T13:28:21Z</time>
      </trkpt>
      <trkpt lat="49.90166" lon="2.25594">
        <ele>34</ele>
        <time>2023-01-28T13:28:22Z</time>
      </trkpt>
      <trkpt lat="49.90166" lon="2.25595">
        <ele>34</ele>
        <time>2023-01-28T13:28:23Z</time>
      </trkpt>
      <trkpt lat="49.90167" lon="2.25599">
        <ele>33.9</ele>
        <time>2023-01-28T13:28:24Z</time>
      </trkpt>
      <trkpt lat="49.90167" lon="2.256">
        <ele>33.9</ele>
        <time>2023-01-28T13:28:26Z</time>
      </trkpt>
      <trkpt lat="49.90167" lon="2.25602">
        <ele>33.9</ele>
        <time>2023-01-28T13:28:27Z</time>
      </trkpt>
      <trkpt lat="49.90167" lon="2.25603">
        <ele>33.8</ele>
        <time>2023-01-28T13:28:28Z</time>
      </trkpt>
      <trkpt lat="49.90167" lon="2.25605">
        <ele>33.8</ele>
        <time>2023-01-28T13:28:29Z</time>
      </trkpt>
      <trkpt lat="49.90167" lon="2.25608">
        <ele>33.8</ele>
        <time>2023-01-28T13:28:30Z</time>
      </trkpt>
      <trkpt lat="49.90167" lon="2.25609">
        <ele>33.7</ele>
        <time>2023-01-28T13:28:31Z</time>
      </trkpt>
      <trkpt lat="49.90167" lon="2.25613">
        <ele>33.6</ele>
        <time>2023-01-28T13:28:32Z</time>
      </trkpt>
      <trkpt lat="49.90167" lon="2.25614">
        <ele>33.6</ele>
        <time>2023-01-28T13:28:34Z</time>
      </trkpt>
      <trkpt lat="49.90168" lon="2.25616">
        <ele>33.6</ele>
        <time>2023-01-28T13:28:35Z</time>
      </trkpt>
      <trkpt lat="49.90168" lon="2.25617">
        <ele>33.6</ele>
        <time>2023-01-28T13:28:36Z</time>
      </trkpt>
      <trkpt lat="49.90168" lon="2.25619">
        <ele>33.5</ele>
        <time>2023-01-28T13:28:37Z</time>
      </trkpt>
      <trkpt lat="49.90168" lon="2.25621">
        <ele>33.5</ele>
        <time>2023-01-28T13:28:38Z</time>
      </trkpt>
      <trkpt lat="49.90169" lon="2.25622">
        <ele>33.5</ele>
        <time>2023-01-28T13:28:39Z</time>
      </trkpt>
      <trkpt lat="49.90169" lon="2.25624">
        <ele>33.5</ele>
        <time>2023-01-28T13:28:40Z</time>
      </trkpt>
      <trkpt lat="49.90169" lon="2.25625">
        <ele>33.4</ele>
        <time>2023-01-28T13:28:41Z</time>
      </trkpt>
      <trkpt lat="49.90169" lon="2.25627">
        <ele>33.4</ele>
        <time>2023-01-28T13:28:42Z</time>
      </trkpt>
      <trkpt lat="49.90169" lon="2.25629">
        <ele>33.4</ele>
        <time>2023-01-28T13:28:43Z</time>
      </trkpt>
      <trkpt lat="49.90169" lon="2.25632">
        <ele>33.4</ele>
        <time>2023-01-28T13:28:45Z</time>
      </trkpt>
      <trkpt lat="49.90169" lon="2.25634">
        <ele>33.3</ele>
        <time>2023-01-28T13:28:46Z</time>
      </trkpt>
      <trkpt lat="49.90169" lon="2.25635">
        <ele>33.3</ele>
        <time>2023-01-28T13:28:47Z</time>
      </trkpt>
      <trkpt lat="49.90169" lon="2.25637">
        <ele>33.3</ele>
        <time>2023-01-28T13:28:48Z</time>
      </trkpt>
      <trkpt lat="49.9017" lon="2.25638">
        <ele>33.3</ele>
        <time>2023-01-28T13:28:49Z</time>
      </trkpt>
      <trkpt lat="49.9017" lon="2.2564">
        <ele>33.3</ele>
        <time>2023-01-28T13:28:50Z</time>
      </trkpt>
      <trkpt lat="49.9017" lon="2.25641">
        <ele>33.3</ele>
        <time>2023-01-28T13:28:51Z</time>
      </trkpt>
      <trkpt lat="49.9017" lon="2.25643">
        <ele>33.3</ele>
        <time>2023-01-28T13:28:52Z</time>
      </trkpt>
      <trkpt lat="49.90171" lon="2.25644">
        <ele>33.3</ele>
        <time>2023-01-28T13:28:53Z</time>
      </trkpt>
      <trkpt lat="49.90171" lon="2.25647">
        <ele>33.2</ele>
        <time>2023-01-28T13:28:54Z</time>
      </trkpt>
      <trkpt lat="49.90171" lon="2.25648">
        <ele>33.2</ele>
        <time>2023-01-28T13:28:56Z</time>
      </trkpt>
      <trkpt lat="49.90171" lon="2.25649">
        <ele>33.2</ele>
        <time>2023-01-28T13:28:57Z</time>
      </trkpt>
      <trkpt lat="49.9017" lon="2.25652">
        <ele>33.2</ele>
        <time>2023-01-28T13:28:59Z</time>
      </trkpt>
      <trkpt lat="49.90169" lon="2.25653">
        <ele>33.2</ele>
        <time>2023-01-28T13:29:01Z</time>
      </trkpt>
      <trkpt lat="49.90169" lon="2.25653">
        <ele>33.2</ele>
        <time>2023-01-28T13:29:02Z</time>
      </trkpt>
      <trkpt lat="49.90168" lon="2.25652">
        <ele>33.2</ele>
        <time>2023-01-28T13:29:04Z</time>
      </trkpt>
      <trkpt lat="49.90168" lon="2.25652">
        <ele>33.2</ele>
        <time>2023-01-28T13:29:05Z</time>
      </trkpt>
      <trkpt lat="49.90168" lon="2.25652">
        <ele>33.2</ele>
        <time>2023-01-28T13:29:06Z</time>
      </trkpt>
      <trkpt lat="49.90168" lon="2.25652">
        <ele>33.2</ele>
        <time>2023-01-28T13:29:08Z</time>
      </trkpt>
      <trkpt lat="49.90168" lon="2.25652">
        <ele>33.2</ele>
        <time>2023-01-28T13:29:09Z</time>
      </trkpt>
      <trkpt lat="49.90168" lon="2.25651">
        <ele>33.2</ele>
        <time>2023-01-28T13:29:11Z</time>
      </trkpt>
      <trkpt lat="49.90168" lon="2.25651">
        <ele>33.2</ele>
        <time>2023-01-28T13:29:12Z</time>
      </trkpt>
      <trkpt lat="49.90168" lon="2.25651">
        <ele>33.2</ele>
        <time>2023-01-28T13:29:14Z</time>
      </trkpt>
      <trkpt lat="49.90168" lon="2.25651">
        <ele>33.2</ele>
        <time>2023-01-28T13:29:16Z</time>
      </trkpt>
      <trkpt lat="49.90168" lon="2.25651">
        <ele>33.2</ele>
        <time>2023-01-28T13:29:17Z</time>
      </trkpt>
      <trkpt lat="49.90168" lon="2.2565">
        <ele>33.2</ele>
        <time>2023-01-28T13:29:18Z</time>
      </trkpt>
      <trkpt lat="49.90168" lon="2.2565">
        <ele>33.2</ele>
        <time>2023-01-28T13:29:19Z</time>
      </trkpt>
      <trkpt lat="49.90169" lon="2.2565">
        <ele>33.2</ele>
        <time>2023-01-28T13:29:20Z</time>
      </trkpt>
      <trkpt lat="49.90169" lon="2.2565">
        <ele>33.2</ele>
        <time>2023-01-28T13:29:21Z</time>
      </trkpt>
      <trkpt lat="49.90169" lon="2.2565">
        <ele>33.2</ele>
        <time>2023-01-28T13:29:22Z</time>
      </trkpt>
      <trkpt lat="49.90169" lon="2.2565">
        <ele>33.2</ele>
        <time>2023-01-28T13:29:23Z</time>
      </trkpt>
      <trkpt lat="49.90169" lon="2.2565">
        <ele>33.2</ele>
        <time>2023-01-28T13:29:24Z</time>
      </trkpt>
      <trkpt lat="49.90169" lon="2.2565">
        <ele>33.2</ele>
        <time>2023-01-28T13:29:25Z</time>
      </trkpt>
      <trkpt lat="49.90169" lon="2.2565">
        <ele>33.2</ele>
        <time>2023-01-28T13:29:26Z</time>
      </trkpt>
      <trkpt lat="49.90169" lon="2.2565">
        <ele>33.2</ele>
        <time>2023-01-28T13:29:27Z</time>
      </trkpt>
      <trkpt lat="49.90169" lon="2.2565">
        <ele>33.2</ele>
        <time>2023-01-28T13:29:28Z</time>
      </trkpt>
      <trkpt lat="49.90169" lon="2.2565">
        <ele>33.2</ele>
        <time>2023-01-28T13:29:29Z</time>
      </trkpt>
      <trkpt lat="49.90169" lon="2.2565">
        <ele>33.2</ele>
        <time>2023-01-28T13:29:30Z</time>
      </trkpt>
      <trkpt lat="49.90169" lon="2.2565">
        <ele>33.2</ele>
        <time>2023-01-28T13:29:31Z</time>
      </trkpt>
      <trkpt lat="49.90169" lon="2.2565">
        <ele>33.2</ele>
        <time>2023-01-28T13:29:32Z</time>
      </trkpt>
      <trkpt lat="49.90169" lon="2.2565">
        <ele>33.2</ele>
        <time>2023-01-28T13:29:33Z</time>
      </trkpt>
      <trkpt lat="49.90169" lon="2.2565">
        <ele>33.2</ele>
        <time>2023-01-28T13:29:34Z</time>
      </trkpt>
      <trkpt lat="49.90169" lon="2.2565">
        <ele>33.2</ele>
        <time>2023-01-28T13:29:35Z</time>
      </trkpt>
      <trkpt lat="49.90169" lon="2.2565">
        <ele>33.2</ele>
        <time>2023-01-28T13:29:36Z</time>
      </trkpt>
      <trkpt lat="49.90169" lon="2.2565">
        <ele>33.2</ele>
        <time>2023-01-28T13:29:37Z</time>
      </trkpt>
      <trkpt lat="49.90169" lon="2.2565">
        <ele>33.2</ele>
        <time>2023-01-28T13:29:38Z</time>
      </trkpt>
      <trkpt lat="49.90169" lon="2.2565">
        <ele>33.2</ele>
        <time>2023-01-28T13:29:39Z</time>
      </trkpt>
      <trkpt lat="49.90169" lon="2.2565">
        <ele>33.2</ele>
        <time>2023-01-28T13:29:40Z</time>
      </trkpt>
      <trkpt lat="49.90169" lon="2.2565">
        <ele>33.2</ele>
        <time>2023-01-28T13:29:41Z</time>
      </trkpt>
      <trkpt lat="49.90169" lon="2.2565">
        <ele>33.2</ele>
        <time>2023-01-28T13:29:42Z</time>
      </trkpt>
      <trkpt lat="49.90169" lon="2.2565">
        <ele>33.2</ele>
        <time>2023-01-28T13:29:43Z</time>
      </trkpt>
      <trkpt lat="49.90169" lon="2.2565">
        <ele>33.2</ele>
        <time>2023-01-28T13:29:44Z</time>
      </trkpt>
      <trkpt lat="49.90169" lon="2.2565">
        <ele>33.2</ele>
        <time>2023-01-28T13:29:45Z</time>
      </trkpt>
      <trkpt lat="49.90169" lon="2.2565">
        <ele>33.2</ele>
        <time>2023-01-28T13:29:46Z</time>
      </trkpt>
      <trkpt lat="49.90169" lon="2.2565">
        <ele>33.2</ele>
        <time>2023-01-28T13:29:47Z</time>
      </trkpt>
      <trkpt lat="49.90169" lon="2.2565">
        <ele>33.2</ele>
        <time>2023-01-28T13:29:48Z</time>
      </trkpt>
      <trkpt lat="49.90169" lon="2.2565">
        <ele>33.2</ele>
        <time>2023-01-28T13:29:49Z</time>
      </trkpt>
      <trkpt lat="49.90169" lon="2.2565">
        <ele>33.2</ele>
        <time>2023-01-28T13:29:50Z</time>
      </trkpt>
      <trkpt lat="49.90169" lon="2.2565">
        <ele>33.2</ele>
        <time>2023-01-28T13:29:51Z</time>
      </trkpt>
      <trkpt lat="49.90169" lon="2.2565">
        <ele>33.2</ele>
        <time>2023-01-28T13:29:52Z</time>
      </trkpt>
      <trkpt lat="49.90169" lon="2.2565">
        <ele>33.2</ele>
        <time>2023-01-28T13:29:53Z</time>
      </trkpt>
      <trkpt lat="49.90169" lon="2.2565">
        <ele>33.2</ele>
        <time>2023-01-28T13:29:54Z</time>
      </trkpt>
      <trkpt lat="49.90169" lon="2.2565">
        <ele>33.2</ele>
        <time>2023-01-28T13:29:55Z</time>
      </trkpt>
      <trkpt lat="49.90169" lon="2.2565">
        <ele>33.2</ele>
        <time>2023-01-28T13:29:56Z</time>
      </trkpt>
      <trkpt lat="49.90169" lon="2.2565">
        <ele>33.2</ele>
        <time>2023-01-28T13:29:57Z</time>
      </trkpt>
      <trkpt lat="49.90169" lon="2.2565">
        <ele>33.2</ele>
        <time>2023-01-28T13:29:58Z</time>
      </trkpt>
      <trkpt lat="49.90169" lon="2.2565">
        <ele>33.2</ele>
        <time>2023-01-28T13:29:59Z</time>
      </trkpt>
      <trkpt lat="49.90169" lon="2.2565">
        <ele>33.2</ele>
        <time>2023-01-28T13:30:00Z</time>
      </trkpt>
      <trkpt lat="49.90169" lon="2.2565">
        <ele>33.2</ele>
        <time>2023-01-28T13:30:01Z</time>
      </trkpt>
      <trkpt lat="49.90169" lon="2.2565">
        <ele>33.2</ele>
        <time>2023-01-28T13:30:02Z</time>
      </trkpt>
      <trkpt lat="49.90169" lon="2.2565">
        <ele>33.2</ele>
        <time>2023-01-28T13:30:03Z</time>
      </trkpt>
      <trkpt lat="49.90169" lon="2.2565">
        <ele>33.2</ele>
        <time>2023-01-28T13:30:04Z</time>
      </trkpt>
      <trkpt lat="49.90169" lon="2.2565">
        <ele>33.2</ele>
        <time>2023-01-28T13:30:05Z</time>
      </trkpt>
      <trkpt lat="49.90169" lon="2.2565">
        <ele>33.2</ele>
        <time>2023-01-28T13:30:06Z</time>
      </trkpt>
      <trkpt lat="49.90169" lon="2.2565">
        <ele>33.2</ele>
        <time>2023-01-28T13:30:07Z</time>
      </trkpt>
      <trkpt lat="49.90169" lon="2.2565">
        <ele>33.2</ele>
        <time>2023-01-28T13:30:08Z</time>
      </trkpt>
      <trkpt lat="49.90169" lon="2.2565">
        <ele>33.2</ele>
        <time>2023-01-28T13:30:09Z</time>
      </trkpt>
      <trkpt lat="49.90169" lon="2.2565">
        <ele>33.2</ele>
        <time>2023-01-28T13:30:10Z</time>
      </trkpt>
      <trkpt lat="49.90169" lon="2.2565">
        <ele>33.2</ele>
        <time>2023-01-28T13:30:11Z</time>
      </trkpt>
      <trkpt lat="49.90169" lon="2.2565">
        <ele>33.2</ele>
        <time>2023-01-28T13:30:12Z</time>
      </trkpt>
      <trkpt lat="49.90169" lon="2.2565">
        <ele>33.2</ele>
        <time>2023-01-28T13:30:13Z</time>
      </trkpt>
      <trkpt lat="49.90169" lon="2.2565">
        <ele>33.2</ele>
        <time>2023-01-28T13:30:14Z</time>
      </trkpt>
      <trkpt lat="49.90169" lon="2.2565">
        <ele>33.2</ele>
        <time>2023-01-28T13:30:15Z</time>
      </trkpt>
      <trkpt lat="49.90169" lon="2.2565">
        <ele>33.2</ele>
        <time>2023-01-28T13:30:16Z</time>
      </trkpt>
      <trkpt lat="49.90169" lon="2.2565">
        <ele>33.2</ele>
        <time>2023-01-28T13:30:17Z</time>
      </trkpt>
      <trkpt lat="49.90169" lon="2.2565">
        <ele>33.2</ele>
        <time>2023-01-28T13:30:18Z</time>
      </trkpt>
      <trkpt lat="49.90169" lon="2.2565">
        <ele>33.2</ele>
        <time>2023-01-28T13:30:19Z</time>
      </trkpt>
      <trkpt lat="49.90169" lon="2.2565">
        <ele>33.2</ele>
        <time>2023-01-28T13:30:20Z</time>
      </trkpt>
      <trkpt lat="49.90169" lon="2.2565">
        <ele>33.2</ele>
        <time>2023-01-28T13:30:21Z</time>
      </trkpt>
      <trkpt lat="49.90169" lon="2.2565">
        <ele>33.2</ele>
        <time>2023-01-28T13:30:22Z</time>
      </trkpt>
      <trkpt lat="49.90169" lon="2.2565">
        <ele>33.2</ele>
        <time>2023-01-28T13:30:23Z</time>
      </trkpt>
      <trkpt lat="49.90169" lon="2.2565">
        <ele>33.2</ele>
        <time>2023-01-28T13:30:24Z</time>
      </trkpt>
      <trkpt lat="49.90169" lon="2.2565">
        <ele>33.2</ele>
        <time>2023-01-28T13:30:25Z</time>
      </trkpt>
      <trkpt lat="49.90169" lon="2.2565">
        <ele>33.2</ele>
        <time>2023-01-28T13:30:26Z</time>
      </trkpt>
      <trkpt lat="49.90169" lon="2.2565">
        <ele>33.2</ele>
        <time>2023-01-28T13:30:27Z</time>
      </trkpt>
      <trkpt lat="49.90169" lon="2.2565">
        <ele>33.2</ele>
        <time>2023-01-28T13:30:28Z</time>
      </trkpt>
      <trkpt lat="49.90169" lon="2.2565">
        <ele>33.2</ele>
        <time>2023-01-28T13:30:29Z</time>
      </trkpt>
      <trkpt lat="49.90169" lon="2.2565">
        <ele>33.2</ele>
        <time>2023-01-28T13:30:30Z</time>
      </trkpt>
      <trkpt lat="49.90169" lon="2.2565">
        <ele>33.2</ele>
        <time>2023-01-28T13:30:31Z</time>
      </trkpt>
      <trkpt lat="49.90169" lon="2.2565">
        <ele>33.2</ele>
        <time>2023-01-28T13:30:32Z</time>
      </trkpt>
      <trkpt lat="49.90169" lon="2.2565">
        <ele>33.2</ele>
        <time>2023-01-28T13:30:33Z</time>
      </trkpt>
      <trkpt lat="49.9017" lon="2.25648">
        <ele>33.1</ele>
        <time>2023-01-28T13:30:34Z</time>
      </trkpt>
      <trkpt lat="49.90171" lon="2.25647">
        <ele>33.1</ele>
        <time>2023-01-28T13:30:35Z</time>
      </trkpt>
      <trkpt lat="49.90172" lon="2.25648">
        <ele>33</ele>
        <time>2023-01-28T13:30:36Z</time>
      </trkpt>
      <trkpt lat="49.90172" lon="2.25649">
        <ele>33</ele>
        <time>2023-01-28T13:30:37Z</time>
      </trkpt>
      <trkpt lat="49.90172" lon="2.2565">
        <ele>33</ele>
        <time>2023-01-28T13:30:38Z</time>
      </trkpt>
      <trkpt lat="49.90172" lon="2.25651">
        <ele>33</ele>
        <time>2023-01-28T13:30:39Z</time>
      </trkpt>
      <trkpt lat="49.90172" lon="2.25653">
        <ele>33</ele>
        <time>2023-01-28T13:30:40Z</time>
      </trkpt>
      <trkpt lat="49.90172" lon="2.25655">
        <ele>32.9</ele>
        <time>2023-01-28T13:30:41Z</time>
      </trkpt>
      <trkpt lat="49.90172" lon="2.25656">
        <ele>32.9</ele>
        <time>2023-01-28T13:30:42Z</time>
      </trkpt>
      <trkpt lat="49.90172" lon="2.25657">
        <ele>32.9</ele>
        <time>2023-01-28T13:30:43Z</time>
      </trkpt>
      <trkpt lat="49.90172" lon="2.25661">
        <ele>32.8</ele>
        <time>2023-01-28T13:30:44Z</time>
      </trkpt>
      <trkpt lat="49.90172" lon="2.25663">
        <ele>32.8</ele>
        <time>2023-01-28T13:30:45Z</time>
      </trkpt>
      <trkpt lat="49.90172" lon="2.25666">
        <ele>32.7</ele>
        <time>2023-01-28T13:30:46Z</time>
      </trkpt>
      <trkpt lat="49.90172" lon="2.25668">
        <ele>32.7</ele>
        <time>2023-01-28T13:30:47Z</time>
      </trkpt>
      <trkpt lat="49.90172" lon="2.2567">
        <ele>32.7</ele>
        <time>2023-01-28T13:30:48Z</time>
      </trkpt>
      <trkpt lat="49.90173" lon="2.25674">
        <ele>32.6</ele>
        <time>2023-01-28T13:30:50Z</time>
      </trkpt>
      <trkpt lat="49.90173" lon="2.25676">
        <ele>32.6</ele>
        <time>2023-01-28T13:30:51Z</time>
      </trkpt>
      <trkpt lat="49.90174" lon="2.25679">
        <ele>32.6</ele>
        <time>2023-01-28T13:30:52Z</time>
      </trkpt>
      <trkpt lat="49.90174" lon="2.2568">
        <ele>32.6</ele>
        <time>2023-01-28T13:30:53Z</time>
      </trkpt>
      <trkpt lat="49.90174" lon="2.25682">
        <ele>32.5</ele>
        <time>2023-01-28T13:30:54Z</time>
      </trkpt>
      <trkpt lat="49.90175" lon="2.25686">
        <ele>32.5</ele>
        <time>2023-01-28T13:30:56Z</time>
      </trkpt>
      <trkpt lat="49.90175" lon="2.25687">
        <ele>32.5</ele>
        <time>2023-01-28T13:30:57Z</time>
      </trkpt>
      <trkpt lat="49.90176" lon="2.25689">
        <ele>32.5</ele>
        <time>2023-01-28T13:30:58Z</time>
      </trkpt>
      <trkpt lat="49.90176" lon="2.25691">
        <ele>32.4</ele>
        <time>2023-01-28T13:30:59Z</time>
      </trkpt>
      <trkpt lat="49.90176" lon="2.25693">
        <ele>32.4</ele>
        <time>2023-01-28T13:31:00Z</time>
      </trkpt>
      <trkpt lat="49.90177" lon="2.25696">
        <ele>32.4</ele>
        <time>2023-01-28T13:31:01Z</time>
      </trkpt>
      <trkpt lat="49.90177" lon="2.25697">
        <ele>32.4</ele>
        <time>2023-01-28T13:31:02Z</time>
      </trkpt>
      <trkpt lat="49.90178" lon="2.25699">
        <ele>32.4</ele>
        <time>2023-01-28T13:31:03Z</time>
      </trkpt>
      <trkpt lat="49.90178" lon="2.25701">
        <ele>32.3</ele>
        <time>2023-01-28T13:31:05Z</time>
      </trkpt>
      <trkpt lat="49.90178" lon="2.25705">
        <ele>32.3</ele>
        <time>2023-01-28T13:31:06Z</time>
      </trkpt>
      <trkpt lat="49.90178" lon="2.25706">
        <ele>32.3</ele>
        <time>2023-01-28T13:31:07Z</time>
      </trkpt>
      <trkpt lat="49.90178" lon="2.25707">
        <ele>32.3</ele>
        <time>2023-01-28T13:31:08Z</time>
      </trkpt>
      <trkpt lat="49.90178" lon="2.25709">
        <ele>32.3</ele>
        <time>2023-01-28T13:31:09Z</time>
      </trkpt>
      <trkpt lat="49.90178" lon="2.25712">
        <ele>32.2</ele>
        <time>2023-01-28T13:31:10Z</time>
      </trkpt>
      <trkpt lat="49.90178" lon="2.25715">
        <ele>32.2</ele>
        <time>2023-01-28T13:31:12Z</time>
      </trkpt>
      <trkpt lat="49.90178" lon="2.25717">
        <ele>32.2</ele>
        <time>2023-01-28T13:31:14Z</time>
      </trkpt>
      <trkpt lat="49.90178" lon="2.25718">
        <ele>32.2</ele>
        <time>2023-01-28T13:31:15Z</time>
      </trkpt>
      <trkpt lat="49.90178" lon="2.25722">
        <ele>32.2</ele>
        <time>2023-01-28T13:31:16Z</time>
      </trkpt>
      <trkpt lat="49.90178" lon="2.25724">
        <ele>32.2</ele>
        <time>2023-01-28T13:31:17Z</time>
      </trkpt>
      <trkpt lat="49.90178" lon="2.25725">
        <ele>32.2</ele>
        <time>2023-01-28T13:31:19Z</time>
      </trkpt>
      <trkpt lat="49.90178" lon="2.25727">
        <ele>32.2</ele>
        <time>2023-01-28T13:31:20Z</time>
      </trkpt>
      <trkpt lat="49.90178" lon="2.25731">
        <ele>32.2</ele>
        <time>2023-01-28T13:31:21Z</time>
      </trkpt>
      <trkpt lat="49.90178" lon="2.25732">
        <ele>32.2</ele>
        <time>2023-01-28T13:31:22Z</time>
      </trkpt>
      <trkpt lat="49.90178" lon="2.25733">
        <ele>32.2</ele>
        <time>2023-01-28T13:31:23Z</time>
      </trkpt>
      <trkpt lat="49.90178" lon="2.25735">
        <ele>32.2</ele>
        <time>2023-01-28T13:31:24Z</time>
      </trkpt>
      <trkpt lat="49.90178" lon="2.25738">
        <ele>32.2</ele>
        <time>2023-01-28T13:31:25Z</time>
      </trkpt>
      <trkpt lat="49.90178" lon="2.25739">
        <ele>32.2</ele>
        <time>2023-01-28T13:31:26Z</time>
      </trkpt>
      <trkpt lat="49.90178" lon="2.25741">
        <ele>32.2</ele>
        <time>2023-01-28T13:31:28Z</time>
      </trkpt>
      <trkpt lat="49.90178" lon="2.25742">
        <ele>32.2</ele>
        <time>2023-01-28T13:31:29Z</time>
      </trkpt>
      <trkpt lat="49.90178" lon="2.25744">
        <ele>32.2</ele>
        <time>2023-01-28T13:31:30Z</time>
      </trkpt>
      <trkpt lat="49.90179" lon="2.25747">
        <ele>32.2</ele>
        <time>2023-01-28T13:31:31Z</time>
      </trkpt>
      <trkpt lat="49.90179" lon="2.25748">
        <ele>32.2</ele>
        <time>2023-01-28T13:31:32Z</time>
      </trkpt>
      <trkpt lat="49.90179" lon="2.25749">
        <ele>32.2</ele>
        <time>2023-01-28T13:31:33Z</time>
      </trkpt>
      <trkpt lat="49.9018" lon="2.25752">
        <ele>32.2</ele>
        <time>2023-01-28T13:31:34Z</time>
      </trkpt>
      <trkpt lat="49.9018" lon="2.25754">
        <ele>32.2</ele>
        <time>2023-01-28T13:31:35Z</time>
      </trkpt>
      <trkpt lat="49.90181" lon="2.25755">
        <ele>32.2</ele>
        <time>2023-01-28T13:31:36Z</time>
      </trkpt>
      <trkpt lat="49.90181" lon="2.25757">
        <ele>32.2</ele>
        <time>2023-01-28T13:31:37Z</time>
      </trkpt>
      <trkpt lat="49.90182" lon="2.25758">
        <ele>32.2</ele>
        <time>2023-01-28T13:31:38Z</time>
      </trkpt>
      <trkpt lat="49.90182" lon="2.2576">
        <ele>32.2</ele>
        <time>2023-01-28T13:31:40Z</time>
      </trkpt>
      <trkpt lat="49.90182" lon="2.25762">
        <ele>32.2</ele>
        <time>2023-01-28T13:31:41Z</time>
      </trkpt>
      <trkpt lat="49.90183" lon="2.25763">
        <ele>32.2</ele>
        <time>2023-01-28T13:31:42Z</time>
      </trkpt>
      <trkpt lat="49.90183" lon="2.25765">
        <ele>32.2</ele>
        <time>2023-01-28T13:31:43Z</time>
      </trkpt>
      <trkpt lat="49.90183" lon="2.25768">
        <ele>32.1</ele>
        <time>2023-01-28T13:31:44Z</time>
      </trkpt>
      <trkpt lat="49.90184" lon="2.2577">
        <ele>32.1</ele>
        <time>2023-01-28T13:31:45Z</time>
      </trkpt>
      <trkpt lat="49.90184" lon="2.25771">
        <ele>32.1</ele>
        <time>2023-01-28T13:31:46Z</time>
      </trkpt>
      <trkpt lat="49.90184" lon="2.25773">
        <ele>32.1</ele>
        <time>2023-01-28T13:31:47Z</time>
      </trkpt>
      <trkpt lat="49.90184" lon="2.25775">
        <ele>32.1</ele>
        <time>2023-01-28T13:31:48Z</time>
      </trkpt>
      <trkpt lat="49.90185" lon="2.25777">
        <ele>32.1</ele>
        <time>2023-01-28T13:31:49Z</time>
      </trkpt>
      <trkpt lat="49.90185" lon="2.2578">
        <ele>32.1</ele>
        <time>2023-01-28T13:31:51Z</time>
      </trkpt>
      <trkpt lat="49.90185" lon="2.2578">
        <ele>32.1</ele>
        <time>2023-01-28T13:31:52Z</time>
      </trkpt>
      <trkpt lat="49.90185" lon="2.25781">
        <ele>32.1</ele>
        <time>2023-01-28T13:31:53Z</time>
      </trkpt>
      <trkpt lat="49.90185" lon="2.25784">
        <ele>32.1</ele>
        <time>2023-01-28T13:31:54Z</time>
      </trkpt>
      <trkpt lat="49.90185" lon="2.25786">
        <ele>32.1</ele>
        <time>2023-01-28T13:31:55Z</time>
      </trkpt>
      <trkpt lat="49.90185" lon="2.25787">
        <ele>32.1</ele>
        <time>2023-01-28T13:31:56Z</time>
      </trkpt>
      <trkpt lat="49.90185" lon="2.25789">
        <ele>32.1</ele>
        <time>2023-01-28T13:31:57Z</time>
      </trkpt>
      <trkpt lat="49.90185" lon="2.2579">
        <ele>32.1</ele>
        <time>2023-01-28T13:31:58Z</time>
      </trkpt>
      <trkpt lat="49.90185" lon="2.25792">
        <ele>32.1</ele>
        <time>2023-01-28T13:32:00Z</time>
      </trkpt>
      <trkpt lat="49.90186" lon="2.25795">
        <ele>32.1</ele>
        <time>2023-01-28T13:32:01Z</time>
      </trkpt>
      <trkpt lat="49.90186" lon="2.25796">
        <ele>32.1</ele>
        <time>2023-01-28T13:32:02Z</time>
      </trkpt>
      <trkpt lat="49.90186" lon="2.25798">
        <ele>32.1</ele>
        <time>2023-01-28T13:32:03Z</time>
      </trkpt>
      <trkpt lat="49.90186" lon="2.25801">
        <ele>32.1</ele>
        <time>2023-01-28T13:32:04Z</time>
      </trkpt>
      <trkpt lat="49.90186" lon="2.25803">
        <ele>32.1</ele>
        <time>2023-01-28T13:32:05Z</time>
      </trkpt>
      <trkpt lat="49.90186" lon="2.25804">
        <ele>32.1</ele>
        <time>2023-01-28T13:32:06Z</time>
      </trkpt>
      <trkpt lat="49.90186" lon="2.25806">
        <ele>32.1</ele>
        <time>2023-01-28T13:32:07Z</time>
      </trkpt>
      <trkpt lat="49.90187" lon="2.25807">
        <ele>32.1</ele>
        <time>2023-01-28T13:32:08Z</time>
      </trkpt>
      <trkpt lat="49.90187" lon="2.25809">
        <ele>32.1</ele>
        <time>2023-01-28T13:32:10Z</time>
      </trkpt>
      <trkpt lat="49.90187" lon="2.25811">
        <ele>32.1</ele>
        <time>2023-01-28T13:32:11Z</time>
      </trkpt>
      <trkpt lat="49.90187" lon="2.25813">
        <ele>32.1</ele>
        <time>2023-01-28T13:32:12Z</time>
      </trkpt>
      <trkpt lat="49.90187" lon="2.25814">
        <ele>32.1</ele>
        <time>2023-01-28T13:32:13Z</time>
      </trkpt>
      <trkpt lat="49.90188" lon="2.25818">
        <ele>32.1</ele>
        <time>2023-01-28T13:32:14Z</time>
      </trkpt>
      <trkpt lat="49.90188" lon="2.25819">
        <ele>32.1</ele>
        <time>2023-01-28T13:32:15Z</time>
      </trkpt>
      <trkpt lat="49.90188" lon="2.25821">
        <ele>32.1</ele>
        <time>2023-01-28T13:32:16Z</time>
      </trkpt>
      <trkpt lat="49.90188" lon="2.25823">
        <ele>32.1</ele>
        <time>2023-01-28T13:32:17Z</time>
      </trkpt>
      <trkpt lat="49.90189" lon="2.25824">
        <ele>32.1</ele>
        <time>2023-01-28T13:32:18Z</time>
      </trkpt>
      <trkpt lat="49.90189" lon="2.25826">
        <ele>32.1</ele>
        <time>2023-01-28T13:32:20Z</time>
      </trkpt>
      <trkpt lat="49.90189" lon="2.25828">
        <ele>32.1</ele>
        <time>2023-01-28T13:32:21Z</time>
      </trkpt>
      <trkpt lat="49.9019" lon="2.25829">
        <ele>32.1</ele>
        <time>2023-01-28T13:32:22Z</time>
      </trkpt>
      <trkpt lat="49.9019" lon="2.25831">
        <ele>32.1</ele>
        <time>2023-01-28T13:32:23Z</time>
      </trkpt>
      <trkpt lat="49.90191" lon="2.25834">
        <ele>32.1</ele>
        <time>2023-01-28T13:32:24Z</time>
      </trkpt>
      <trkpt lat="49.90191" lon="2.25835">
        <ele>32.1</ele>
        <time>2023-01-28T13:32:25Z</time>
      </trkpt>
      <trkpt lat="49.90192" lon="2.25836">
        <ele>32.2</ele>
        <time>2023-01-28T13:32:26Z</time>
      </trkpt>
      <trkpt lat="49.90192" lon="2.25837">
        <ele>32.2</ele>
        <time>2023-01-28T13:32:28Z</time>
      </trkpt>
      <trkpt lat="49.90192" lon="2.25839">
        <ele>32.2</ele>
        <time>2023-01-28T13:32:29Z</time>
      </trkpt>
      <trkpt lat="49.90193" lon="2.25841">
        <ele>32.2</ele>
        <time>2023-01-28T13:32:30Z</time>
      </trkpt>
      <trkpt lat="49.90193" lon="2.25844">
        <ele>32.2</ele>
        <time>2023-01-28T13:32:31Z</time>
      </trkpt>
      <trkpt lat="49.90193" lon="2.25845">
        <ele>32.2</ele>
        <time>2023-01-28T13:32:32Z</time>
      </trkpt>
      <trkpt lat="49.90193" lon="2.25846">
        <ele>32.2</ele>
        <time>2023-01-28T13:32:33Z</time>
      </trkpt>
      <trkpt lat="49.90193" lon="2.2585">
        <ele>32.3</ele>
        <time>2023-01-28T13:32:34Z</time>
      </trkpt>
      <trkpt lat="49.90193" lon="2.25851">
        <ele>32.3</ele>
        <time>2023-01-28T13:32:36Z</time>
      </trkpt>
      <trkpt lat="49.90193" lon="2.25853">
        <ele>32.3</ele>
        <time>2023-01-28T13:32:37Z</time>
      </trkpt>
      <trkpt lat="49.90193" lon="2.25854">
        <ele>32.3</ele>
        <time>2023-01-28T13:32:38Z</time>
      </trkpt>
      <trkpt lat="49.90193" lon="2.25856">
        <ele>32.3</ele>
        <time>2023-01-28T13:32:39Z</time>
      </trkpt>
      <trkpt lat="49.90193" lon="2.25857">
        <ele>32.3</ele>
        <time>2023-01-28T13:32:40Z</time>
      </trkpt>
      <trkpt lat="49.90193" lon="2.2586">
        <ele>32.3</ele>
        <time>2023-01-28T13:32:41Z</time>
      </trkpt>
      <trkpt lat="49.90193" lon="2.25861">
        <ele>32.3</ele>
        <time>2023-01-28T13:32:43Z</time>
      </trkpt>
      <trkpt lat="49.90193" lon="2.25863">
        <ele>32.3</ele>
        <time>2023-01-28T13:32:44Z</time>
      </trkpt>
      <trkpt lat="49.90193" lon="2.25867">
        <ele>32.3</ele>
        <time>2023-01-28T13:32:45Z</time>
      </trkpt>
      <trkpt lat="49.90193" lon="2.25868">
        <ele>32.3</ele>
        <time>2023-01-28T13:32:46Z</time>
      </trkpt>
      <trkpt lat="49.90192" lon="2.25869">
        <ele>32.3</ele>
        <time>2023-01-28T13:32:47Z</time>
      </trkpt>
      <trkpt lat="49.90192" lon="2.25871">
        <ele>32.3</ele>
        <time>2023-01-28T13:32:48Z</time>
      </trkpt>
      <trkpt lat="49.90192" lon="2.25873">
        <ele>32.3</ele>
        <time>2023-01-28T13:32:50Z</time>
      </trkpt>
      <trkpt lat="49.90192" lon="2.25875">
        <ele>32.2</ele>
        <time>2023-01-28T13:32:51Z</time>
      </trkpt>
      <trkpt lat="49.90192" lon="2.25877">
        <ele>32.2</ele>
        <time>2023-01-28T13:32:52Z</time>
      </trkpt>
      <trkpt lat="49.90192" lon="2.2588">
        <ele>32.1</ele>
        <time>2023-01-28T13:32:53Z</time>
      </trkpt>
      <trkpt lat="49.90191" lon="2.25881">
        <ele>32.1</ele>
        <time>2023-01-28T13:32:55Z</time>
      </trkpt>
      <trkpt lat="49.90191" lon="2.25883">
        <ele>32.1</ele>
        <time>2023-01-28T13:32:56Z</time>
      </trkpt>
      <trkpt lat="49.90191" lon="2.25886">
        <ele>32</ele>
        <time>2023-01-28T13:32:57Z</time>
      </trkpt>
      <trkpt lat="49.9019" lon="2.25887">
        <ele>32</ele>
        <time>2023-01-28T13:32:58Z</time>
      </trkpt>
      <trkpt lat="49.9019" lon="2.25889">
        <ele>31.9</ele>
        <time>2023-01-28T13:32:59Z</time>
      </trkpt>
      <trkpt lat="49.9019" lon="2.2589">
        <ele>31.9</ele>
        <time>2023-01-28T13:33:00Z</time>
      </trkpt>
      <trkpt lat="49.9019" lon="2.25893">
        <ele>31.9</ele>
        <time>2023-01-28T13:33:02Z</time>
      </trkpt>
      <trkpt lat="49.9019" lon="2.25894">
        <ele>31.8</ele>
        <time>2023-01-28T13:33:03Z</time>
      </trkpt>
      <trkpt lat="49.9019" lon="2.25896">
        <ele>31.8</ele>
        <time>2023-01-28T13:33:04Z</time>
      </trkpt>
      <trkpt lat="49.9019" lon="2.25897">
        <ele>31.8</ele>
        <time>2023-01-28T13:33:05Z</time>
      </trkpt>
      <trkpt lat="49.9019" lon="2.259">
        <ele>31.7</ele>
        <time>2023-01-28T13:33:06Z</time>
      </trkpt>
      <trkpt lat="49.9019" lon="2.25901">
        <ele>31.7</ele>
        <time>2023-01-28T13:33:07Z</time>
      </trkpt>
      <trkpt lat="49.9019" lon="2.25903">
        <ele>31.7</ele>
        <time>2023-01-28T13:33:08Z</time>
      </trkpt>
      <trkpt lat="49.9019" lon="2.25904">
        <ele>31.7</ele>
        <time>2023-01-28T13:33:10Z</time>
      </trkpt>
      <trkpt lat="49.9019" lon="2.25906">
        <ele>31.7</ele>
        <time>2023-01-28T13:33:11Z</time>
      </trkpt>
      <trkpt lat="49.90191" lon="2.25908">
        <ele>31.7</ele>
        <time>2023-01-28T13:33:12Z</time>
      </trkpt>
      <trkpt lat="49.90191" lon="2.2591">
        <ele>31.7</ele>
        <time>2023-01-28T13:33:13Z</time>
      </trkpt>
      <trkpt lat="49.90191" lon="2.25911">
        <ele>31.6</ele>
        <time>2023-01-28T13:33:14Z</time>
      </trkpt>
      <trkpt lat="49.90191" lon="2.25913">
        <ele>31.6</ele>
        <time>2023-01-28T13:33:15Z</time>
      </trkpt>
      <trkpt lat="49.90191" lon="2.25916">
        <ele>31.6</ele>
        <time>2023-01-28T13:33:16Z</time>
      </trkpt>
      <trkpt lat="49.90191" lon="2.25917">
        <ele>31.6</ele>
        <time>2023-01-28T13:33:18Z</time>
      </trkpt>
      <trkpt lat="49.90191" lon="2.25918">
        <ele>31.6</ele>
        <time>2023-01-28T13:33:19Z</time>
      </trkpt>
      <trkpt lat="49.90191" lon="2.2592">
        <ele>31.6</ele>
        <time>2023-01-28T13:33:20Z</time>
      </trkpt>
      <trkpt lat="49.9019" lon="2.25921">
        <ele>31.6</ele>
        <time>2023-01-28T13:33:21Z</time>
      </trkpt>
      <trkpt lat="49.9019" lon="2.25923">
        <ele>31.6</ele>
        <time>2023-01-28T13:33:22Z</time>
      </trkpt>
      <trkpt lat="49.9019" lon="2.25925">
        <ele>31.6</ele>
        <time>2023-01-28T13:33:23Z</time>
      </trkpt>
      <trkpt lat="49.9019" lon="2.25926">
        <ele>31.6</ele>
        <time>2023-01-28T13:33:24Z</time>
      </trkpt>
      <trkpt lat="49.9019" lon="2.25928">
        <ele>31.6</ele>
        <time>2023-01-28T13:33:25Z</time>
      </trkpt>
      <trkpt lat="49.90189" lon="2.25932">
        <ele>31.5</ele>
        <time>2023-01-28T13:33:27Z</time>
      </trkpt>
      <trkpt lat="49.90189" lon="2.25933">
        <ele>31.5</ele>
        <time>2023-01-28T13:33:28Z</time>
      </trkpt>
      <trkpt lat="49.90189" lon="2.25934">
        <ele>31.5</ele>
        <time>2023-01-28T13:33:29Z</time>
      </trkpt>
      <trkpt lat="49.90189" lon="2.25936">
        <ele>31.5</ele>
        <time>2023-01-28T13:33:30Z</time>
      </trkpt>
      <trkpt lat="49.90188" lon="2.25938">
        <ele>31.5</ele>
        <time>2023-01-28T13:33:31Z</time>
      </trkpt>
      <trkpt lat="49.90188" lon="2.2594">
        <ele>31.5</ele>
        <time>2023-01-28T13:33:32Z</time>
      </trkpt>
      <trkpt lat="49.90188" lon="2.25942">
        <ele>31.5</ele>
        <time>2023-01-28T13:33:34Z</time>
      </trkpt>
      <trkpt lat="49.90188" lon="2.25943">
        <ele>31.5</ele>
        <time>2023-01-28T13:33:35Z</time>
      </trkpt>
      <trkpt lat="49.90188" lon="2.25944">
        <ele>31.5</ele>
        <time>2023-01-28T13:33:36Z</time>
      </trkpt>
      <trkpt lat="49.90188" lon="2.25947">
        <ele>31.4</ele>
        <time>2023-01-28T13:33:37Z</time>
      </trkpt>
      <trkpt lat="49.90188" lon="2.25948">
        <ele>31.4</ele>
        <time>2023-01-28T13:33:38Z</time>
      </trkpt>
      <trkpt lat="49.90188" lon="2.25949">
        <ele>31.4</ele>
        <time>2023-01-28T13:33:39Z</time>
      </trkpt>
      <trkpt lat="49.90188" lon="2.25952">
        <ele>31.4</ele>
        <time>2023-01-28T13:33:40Z</time>
      </trkpt>
      <trkpt lat="49.90188" lon="2.25954">
        <ele>31.4</ele>
        <time>2023-01-28T13:33:42Z</time>
      </trkpt>
      <trkpt lat="49.90188" lon="2.25955">
        <ele>31.4</ele>
        <time>2023-01-28T13:33:43Z</time>
      </trkpt>
      <trkpt lat="49.90187" lon="2.25956">
        <ele>31.4</ele>
        <time>2023-01-28T13:33:44Z</time>
      </trkpt>
      <trkpt lat="49.90187" lon="2.25957">
        <ele>31.4</ele>
        <time>2023-01-28T13:33:45Z</time>
      </trkpt>
      <trkpt lat="49.90187" lon="2.25959">
        <ele>31.4</ele>
        <time>2023-01-28T13:33:46Z</time>
      </trkpt>
      <trkpt lat="49.90187" lon="2.2596">
        <ele>31.3</ele>
        <time>2023-01-28T13:33:47Z</time>
      </trkpt>
      <trkpt lat="49.90187" lon="2.25961">
        <ele>31.3</ele>
        <time>2023-01-28T13:33:49Z</time>
      </trkpt>
      <trkpt lat="49.90187" lon="2.25962">
        <ele>31.3</ele>
        <time>2023-01-28T13:33:50Z</time>
      </trkpt>
      <trkpt lat="49.90187" lon="2.25963">
        <ele>31.3</ele>
        <time>2023-01-28T13:33:51Z</time>
      </trkpt>
      <trkpt lat="49.90186" lon="2.25965">
        <ele>31.3</ele>
        <time>2023-01-28T13:33:52Z</time>
      </trkpt>
      <trkpt lat="49.90186" lon="2.25966">
        <ele>31.3</ele>
        <time>2023-01-28T13:33:53Z</time>
      </trkpt>
      <trkpt lat="49.90186" lon="2.25967">
        <ele>31.3</ele>
        <time>2023-01-28T13:33:54Z</time>
      </trkpt>
      <trkpt lat="49.90186" lon="2.25968">
        <ele>31.3</ele>
        <time>2023-01-28T13:33:56Z</time>
      </trkpt>
      <trkpt lat="49.90186" lon="2.25969">
        <ele>31.3</ele>
        <time>2023-01-28T13:33:57Z</time>
      </trkpt>
      <trkpt lat="49.90186" lon="2.25971">
        <ele>31.3</ele>
        <time>2023-01-28T13:33:58Z</time>
      </trkpt>
      <trkpt lat="49.90186" lon="2.25972">
        <ele>31.3</ele>
        <time>2023-01-28T13:33:59Z</time>
      </trkpt>
      <trkpt lat="49.90186" lon="2.25974">
        <ele>31.3</ele>
        <time>2023-01-28T13:34:01Z</time>
      </trkpt>
      <trkpt lat="49.90186" lon="2.25975">
        <ele>31.3</ele>
        <time>2023-01-28T13:34:02Z</time>
      </trkpt>
      <trkpt lat="49.90186" lon="2.25975">
        <ele>31.2</ele>
        <time>2023-01-28T13:34:03Z</time>
      </trkpt>
      <trkpt lat="49.90185" lon="2.25976">
        <ele>31.2</ele>
        <time>2023-01-28T13:34:05Z</time>
      </trkpt>
      <trkpt lat="49.90185" lon="2.25976">
        <ele>31.2</ele>
        <time>2023-01-28T13:34:06Z</time>
      </trkpt>
      <trkpt lat="49.90184" lon="2.25976">
        <ele>31.2</ele>
        <time>2023-01-28T13:34:07Z</time>
      </trkpt>
      <trkpt lat="49.90184" lon="2.25976">
        <ele>31.2</ele>
        <time>2023-01-28T13:34:08Z</time>
      </trkpt>
      <trkpt lat="49.90182" lon="2.25977">
        <ele>31.2</ele>
        <time>2023-01-28T13:34:10Z</time>
      </trkpt>
      <trkpt lat="49.90181" lon="2.25978">
        <ele>31.2</ele>
        <time>2023-01-28T13:34:12Z</time>
      </trkpt>
      <trkpt lat="49.90181" lon="2.25978">
        <ele>31.2</ele>
        <time>2023-01-28T13:34:13Z</time>
      </trkpt>
      <trkpt lat="49.90181" lon="2.25978">
        <ele>31.2</ele>
        <time>2023-01-28T13:34:14Z</time>
      </trkpt>
      <trkpt lat="49.9018" lon="2.25979">
        <ele>31.2</ele>
        <time>2023-01-28T13:34:15Z</time>
      </trkpt>
      <trkpt lat="49.9018" lon="2.25979">
        <ele>31.2</ele>
        <time>2023-01-28T13:34:16Z</time>
      </trkpt>
      <trkpt lat="49.9018" lon="2.25979">
        <ele>31.2</ele>
        <time>2023-01-28T13:34:17Z</time>
      </trkpt>
      <trkpt lat="49.9018" lon="2.25979">
        <ele>31.2</ele>
        <time>2023-01-28T13:34:19Z</time>
      </trkpt>
      <trkpt lat="49.9018" lon="2.25979">
        <ele>31.2</ele>
        <time>2023-01-28T13:34:20Z</time>
      </trkpt>
      <trkpt lat="49.90179" lon="2.25979">
        <ele>31.2</ele>
        <time>2023-01-28T13:34:21Z</time>
      </trkpt>
      <trkpt lat="49.90179" lon="2.25978">
        <ele>31.2</ele>
        <time>2023-01-28T13:34:22Z</time>
      </trkpt>
      <trkpt lat="49.90178" lon="2.25977">
        <ele>31.2</ele>
        <time>2023-01-28T13:34:23Z</time>
      </trkpt>
      <trkpt lat="49.90177" lon="2.25978">
        <ele>31.2</ele>
        <time>2023-01-28T13:34:24Z</time>
      </trkpt>
      <trkpt lat="49.90177" lon="2.25978">
        <ele>31.1</ele>
        <time>2023-01-28T13:34:26Z</time>
      </trkpt>
      <trkpt lat="49.90176" lon="2.2598">
        <ele>31.1</ele>
        <time>2023-01-28T13:34:27Z</time>
      </trkpt>
      <trkpt lat="49.90177" lon="2.25981">
        <ele>31.1</ele>
        <time>2023-01-28T13:34:28Z</time>
      </trkpt>
      <trkpt lat="49.90178" lon="2.25983">
        <ele>31.1</ele>
        <time>2023-01-28T13:34:30Z</time>
      </trkpt>
      <trkpt lat="49.90178" lon="2.25983">
        <ele>31.1</ele>
        <time>2023-01-28T13:34:31Z</time>
      </trkpt>
      <trkpt lat="49.90179" lon="2.25983">
        <ele>31.1</ele>
        <time>2023-01-28T13:34:33Z</time>
      </trkpt>
      <trkpt lat="49.90179" lon="2.25983">
        <ele>31.1</ele>
        <time>2023-01-28T13:34:34Z</time>
      </trkpt>
      <trkpt lat="49.9018" lon="2.25983">
        <ele>31.1</ele>
        <time>2023-01-28T13:34:36Z</time>
      </trkpt>
      <trkpt lat="49.9018" lon="2.25983">
        <ele>31.1</ele>
        <time>2023-01-28T13:34:37Z</time>
      </trkpt>
      <trkpt lat="49.9018" lon="2.25983">
        <ele>31.1</ele>
        <time>2023-01-28T13:34:38Z</time>
      </trkpt>
      <trkpt lat="49.9018" lon="2.25983">
        <ele>31.1</ele>
        <time>2023-01-28T13:34:40Z</time>
      </trkpt>
      <trkpt lat="49.9018" lon="2.25983">
        <ele>31.1</ele>
        <time>2023-01-28T13:34:41Z</time>
      </trkpt>
      <trkpt lat="49.9018" lon="2.25983">
        <ele>31.1</ele>
        <time>2023-01-28T13:34:43Z</time>
      </trkpt>
      <trkpt lat="49.9018" lon="2.25983">
        <ele>31.1</ele>
        <time>2023-01-28T13:34:44Z</time>
      </trkpt>
      <trkpt lat="49.9018" lon="2.25983">
        <ele>31.1</ele>
        <time>2023-01-28T13:34:46Z</time>
      </trkpt>
      <trkpt lat="49.90181" lon="2.25983">
        <ele>31.1</ele>
        <time>2023-01-28T13:34:47Z</time>
      </trkpt>
      <trkpt lat="49.90181" lon="2.25983">
        <ele>31.1</ele>
        <time>2023-01-28T13:34:48Z</time>
      </trkpt>
      <trkpt lat="49.90181" lon="2.25983">
        <ele>31.1</ele>
        <time>2023-01-28T13:34:49Z</time>
      </trkpt>
      <trkpt lat="49.90181" lon="2.25982">
        <ele>31.1</ele>
        <time>2023-01-28T13:34:50Z</time>
      </trkpt>
      <trkpt lat="49.90182" lon="2.25982">
        <ele>31.1</ele>
        <time>2023-01-28T13:34:51Z</time>
      </trkpt>
      <trkpt lat="49.90182" lon="2.25982">
        <ele>31.1</ele>
        <time>2023-01-28T13:34:52Z</time>
      </trkpt>
      <trkpt lat="49.90182" lon="2.25982">
        <ele>31.1</ele>
        <time>2023-01-28T13:34:53Z</time>
      </trkpt>
      <trkpt lat="49.90182" lon="2.25982">
        <ele>31.1</ele>
        <time>2023-01-28T13:34:54Z</time>
      </trkpt>
      <trkpt lat="49.90182" lon="2.25982">
        <ele>31.1</ele>
        <time>2023-01-28T13:34:55Z</time>
      </trkpt>
      <trkpt lat="49.90182" lon="2.25982">
        <ele>31.1</ele>
        <time>2023-01-28T13:34:56Z</time>
      </trkpt>
      <trkpt lat="49.90183" lon="2.25982">
        <ele>31.1</ele>
        <time>2023-01-28T13:34:57Z</time>
      </trkpt>
      <trkpt lat="49.90183" lon="2.25982">
        <ele>31.1</ele>
        <time>2023-01-28T13:34:58Z</time>
      </trkpt>
      <trkpt lat="49.90183" lon="2.25982">
        <ele>31.1</ele>
        <time>2023-01-28T13:34:59Z</time>
      </trkpt>
      <trkpt lat="49.90183" lon="2.25982">
        <ele>31.1</ele>
        <time>2023-01-28T13:35:00Z</time>
      </trkpt>
      <trkpt lat="49.90183" lon="2.25982">
        <ele>31.1</ele>
        <time>2023-01-28T13:35:01Z</time>
      </trkpt>
      <trkpt lat="49.90184" lon="2.25982">
        <ele>31.1</ele>
        <time>2023-01-28T13:35:02Z</time>
      </trkpt>
      <trkpt lat="49.90184" lon="2.25982">
        <ele>31.1</ele>
        <time>2023-01-28T13:35:03Z</time>
      </trkpt>
      <trkpt lat="49.90184" lon="2.25982">
        <ele>31.1</ele>
        <time>2023-01-28T13:35:04Z</time>
      </trkpt>
      <trkpt lat="49.90184" lon="2.25981">
        <ele>31.1</ele>
        <time>2023-01-28T13:35:05Z</time>
      </trkpt>
      <trkpt lat="49.90184" lon="2.25981">
        <ele>31.1</ele>
        <time>2023-01-28T13:35:06Z</time>
      </trkpt>
      <trkpt lat="49.90184" lon="2.25981">
        <ele>31.1</ele>
        <time>2023-01-28T13:35:07Z</time>
      </trkpt>
      <trkpt lat="49.90185" lon="2.25981">
        <ele>31.1</ele>
        <time>2023-01-28T13:35:08Z</time>
      </trkpt>
      <trkpt lat="49.90185" lon="2.25982">
        <ele>31.1</ele>
        <time>2023-01-28T13:35:09Z</time>
      </trkpt>
      <trkpt lat="49.90185" lon="2.25983">
        <ele>31.1</ele>
        <time>2023-01-28T13:35:10Z</time>
      </trkpt>
      <trkpt lat="49.90185" lon="2.25984">
        <ele>31.1</ele>
        <time>2023-01-28T13:35:11Z</time>
      </trkpt>
      <trkpt lat="49.90185" lon="2.25986">
        <ele>31.1</ele>
        <time>2023-01-28T13:35:12Z</time>
      </trkpt>
      <trkpt lat="49.90185" lon="2.25987">
        <ele>31.1</ele>
        <time>2023-01-28T13:35:13Z</time>
      </trkpt>
      <trkpt lat="49.90185" lon="2.25988">
        <ele>31.1</ele>
        <time>2023-01-28T13:35:14Z</time>
      </trkpt>
      <trkpt lat="49.90185" lon="2.2599">
        <ele>31.1</ele>
        <time>2023-01-28T13:35:15Z</time>
      </trkpt>
      <trkpt lat="49.90185" lon="2.25991">
        <ele>31.1</ele>
        <time>2023-01-28T13:35:16Z</time>
      </trkpt>
      <trkpt lat="49.90185" lon="2.25993">
        <ele>31.1</ele>
        <time>2023-01-28T13:35:17Z</time>
      </trkpt>
      <trkpt lat="49.90185" lon="2.25994">
        <ele>31.1</ele>
        <time>2023-01-28T13:35:18Z</time>
      </trkpt>
      <trkpt lat="49.90186" lon="2.25995">
        <ele>31.1</ele>
        <time>2023-01-28T13:35:19Z</time>
      </trkpt>
      <trkpt lat="49.90186" lon="2.25997">
        <ele>31.1</ele>
        <time>2023-01-28T13:35:20Z</time>
      </trkpt>
      <trkpt lat="49.90186" lon="2.25998">
        <ele>31.1</ele>
        <time>2023-01-28T13:35:21Z</time>
      </trkpt>
      <trkpt lat="49.90186" lon="2.25999">
        <ele>31.1</ele>
        <time>2023-01-28T13:35:22Z</time>
      </trkpt>
      <trkpt lat="49.90187" lon="2.26001">
        <ele>31.2</ele>
        <time>2023-01-28T13:35:23Z</time>
      </trkpt>
      <trkpt lat="49.90187" lon="2.26003">
        <ele>31.2</ele>
        <time>2023-01-28T13:35:24Z</time>
      </trkpt>
      <trkpt lat="49.90187" lon="2.26004">
        <ele>31.2</ele>
        <time>2023-01-28T13:35:25Z</time>
      </trkpt>
      <trkpt lat="49.90188" lon="2.26007">
        <ele>31.2</ele>
        <time>2023-01-28T13:35:26Z</time>
      </trkpt>
      <trkpt lat="49.90188" lon="2.26009">
        <ele>31.2</ele>
        <time>2023-01-28T13:35:27Z</time>
      </trkpt>
      <trkpt lat="49.90188" lon="2.2601">
        <ele>31.2</ele>
        <time>2023-01-28T13:35:28Z</time>
      </trkpt>
      <trkpt lat="49.90188" lon="2.26012">
        <ele>31.2</ele>
        <time>2023-01-28T13:35:29Z</time>
      </trkpt>
      <trkpt lat="49.90187" lon="2.26013">
        <ele>31.2</ele>
        <time>2023-01-28T13:35:30Z</time>
      </trkpt>
      <trkpt lat="49.90186" lon="2.26016">
        <ele>31.2</ele>
        <time>2023-01-28T13:35:31Z</time>
      </trkpt>
      <trkpt lat="49.90185" lon="2.26018">
        <ele>31.2</ele>
        <time>2023-01-28T13:35:32Z</time>
      </trkpt>
      <trkpt lat="49.90185" lon="2.26019">
        <ele>31.2</ele>
        <time>2023-01-28T13:35:34Z</time>
      </trkpt>
      <trkpt lat="49.90184" lon="2.2602">
        <ele>31.2</ele>
        <time>2023-01-28T13:35:35Z</time>
      </trkpt>
      <trkpt lat="49.90183" lon="2.26021">
        <ele>31.2</ele>
        <time>2023-01-28T13:35:36Z</time>
      </trkpt>
      <trkpt lat="49.90182" lon="2.26023">
        <ele>31.2</ele>
        <time>2023-01-28T13:35:37Z</time>
      </trkpt>
      <trkpt lat="49.90181" lon="2.26025">
        <ele>31.2</ele>
        <time>2023-01-28T13:35:38Z</time>
      </trkpt>
      <trkpt lat="49.9018" lon="2.26028">
        <ele>31.2</ele>
        <time>2023-01-28T13:35:39Z</time>
      </trkpt>
      <trkpt lat="49.9018" lon="2.26029">
        <ele>31.2</ele>
        <time>2023-01-28T13:35:40Z</time>
      </trkpt>
      <trkpt lat="49.90179" lon="2.2603">
        <ele>31.2</ele>
        <time>2023-01-28T13:35:41Z</time>
      </trkpt>
      <trkpt lat="49.90179" lon="2.26033">
        <ele>31.1</ele>
        <time>2023-01-28T13:35:43Z</time>
      </trkpt>
      <trkpt lat="49.90178" lon="2.26034">
        <ele>31.1</ele>
        <time>2023-01-28T13:35:44Z</time>
      </trkpt>
      <trkpt lat="49.90178" lon="2.26036">
        <ele>31.1</ele>
        <time>2023-01-28T13:35:45Z</time>
      </trkpt>
      <trkpt lat="49.90178" lon="2.26038">
        <ele>31.1</ele>
        <time>2023-01-28T13:35:46Z</time>
      </trkpt>
      <trkpt lat="49.90178" lon="2.26041">
        <ele>31.1</ele>
        <time>2023-01-28T13:35:48Z</time>
      </trkpt>
      <trkpt lat="49.90178" lon="2.26042">
        <ele>31.1</ele>
        <time>2023-01-28T13:35:49Z</time>
      </trkpt>
      <trkpt lat="49.90178" lon="2.26044">
        <ele>31.1</ele>
        <time>2023-01-28T13:35:50Z</time>
      </trkpt>
      <trkpt lat="49.90178" lon="2.26046">
        <ele>31.1</ele>
        <time>2023-01-28T13:35:51Z</time>
      </trkpt>
      <trkpt lat="49.90179" lon="2.26049">
        <ele>31</ele>
        <time>2023-01-28T13:35:52Z</time>
      </trkpt>
      <trkpt lat="49.9018" lon="2.2605">
        <ele>31</ele>
        <time>2023-01-28T13:35:54Z</time>
      </trkpt>
      <trkpt lat="49.9018" lon="2.26052">
        <ele>31</ele>
        <time>2023-01-28T13:35:55Z</time>
      </trkpt>
      <trkpt lat="49.90181" lon="2.26053">
        <ele>31</ele>
        <time>2023-01-28T13:35:56Z</time>
      </trkpt>
      <trkpt lat="49.90182" lon="2.26055">
        <ele>31</ele>
        <time>2023-01-28T13:35:57Z</time>
      </trkpt>
      <trkpt lat="49.90183" lon="2.26056">
        <ele>31</ele>
        <time>2023-01-28T13:35:58Z</time>
      </trkpt>
      <trkpt lat="49.90183" lon="2.26057">
        <ele>31</ele>
        <time>2023-01-28T13:35:59Z</time>
      </trkpt>
      <trkpt lat="49.90183" lon="2.26059">
        <ele>31</ele>
        <time>2023-01-28T13:36:00Z</time>
      </trkpt>
      <trkpt lat="49.90184" lon="2.26062">
        <ele>31.1</ele>
        <time>2023-01-28T13:36:02Z</time>
      </trkpt>
      <trkpt lat="49.90184" lon="2.26062">
        <ele>31.1</ele>
        <time>2023-01-28T13:36:04Z</time>
      </trkpt>
      <trkpt lat="49.90184" lon="2.26063">
        <ele>31.1</ele>
        <time>2023-01-28T13:36:05Z</time>
      </trkpt>
      <trkpt lat="49.90184" lon="2.26064">
        <ele>31.1</ele>
        <time>2023-01-28T13:36:06Z</time>
      </trkpt>
      <trkpt lat="49.90184" lon="2.26065">
        <ele>31.1</ele>
        <time>2023-01-28T13:36:07Z</time>
      </trkpt>
      <trkpt lat="49.90184" lon="2.26067">
        <ele>31.1</ele>
        <time>2023-01-28T13:36:08Z</time>
      </trkpt>
      <trkpt lat="49.90184" lon="2.26069">
        <ele>31.1</ele>
        <time>2023-01-28T13:36:10Z</time>
      </trkpt>
      <trkpt lat="49.90184" lon="2.2607">
        <ele>31.1</ele>
        <time>2023-01-28T13:36:11Z</time>
      </trkpt>
      <trkpt lat="49.90184" lon="2.26071">
        <ele>31.1</ele>
        <time>2023-01-28T13:36:12Z</time>
      </trkpt>
      <trkpt lat="49.90185" lon="2.26072">
        <ele>31.2</ele>
        <time>2023-01-28T13:36:13Z</time>
      </trkpt>
      <trkpt lat="49.90185" lon="2.26072">
        <ele>31.2</ele>
        <time>2023-01-28T13:36:14Z</time>
      </trkpt>
      <trkpt lat="49.90186" lon="2.26073">
        <ele>31.2</ele>
        <time>2023-01-28T13:36:15Z</time>
      </trkpt>
      <trkpt lat="49.90187" lon="2.26074">
        <ele>31.2</ele>
        <time>2023-01-28T13:36:16Z</time>
      </trkpt>
      <trkpt lat="49.90187" lon="2.26076">
        <ele>31.2</ele>
        <time>2023-01-28T13:36:17Z</time>
      </trkpt>
      <trkpt lat="49.90188" lon="2.26076">
        <ele>31.2</ele>
        <time>2023-01-28T13:36:19Z</time>
      </trkpt>
      <trkpt lat="49.90189" lon="2.26077">
        <ele>31.2</ele>
        <time>2023-01-28T13:36:20Z</time>
      </trkpt>
      <trkpt lat="49.90189" lon="2.26078">
        <ele>31.2</ele>
        <time>2023-01-28T13:36:21Z</time>
      </trkpt>
      <trkpt lat="49.9019" lon="2.2608">
        <ele>31.3</ele>
        <time>2023-01-28T13:36:22Z</time>
      </trkpt>
      <trkpt lat="49.9019" lon="2.2608">
        <ele>31.3</ele>
        <time>2023-01-28T13:36:23Z</time>
      </trkpt>
      <trkpt lat="49.90191" lon="2.26081">
        <ele>31.3</ele>
        <time>2023-01-28T13:36:25Z</time>
      </trkpt>
      <trkpt lat="49.90191" lon="2.26082">
        <ele>31.3</ele>
        <time>2023-01-28T13:36:26Z</time>
      </trkpt>
      <trkpt lat="49.90192" lon="2.26084">
        <ele>31.3</ele>
        <time>2023-01-28T13:36:27Z</time>
      </trkpt>
      <trkpt lat="49.90192" lon="2.26087">
        <ele>31.3</ele>
        <time>2023-01-28T13:36:28Z</time>
      </trkpt>
      <trkpt lat="49.90193" lon="2.26088">
        <ele>31.4</ele>
        <time>2023-01-28T13:36:29Z</time>
      </trkpt>
      <trkpt lat="49.90193" lon="2.26089">
        <ele>31.4</ele>
        <time>2023-01-28T13:36:30Z</time>
      </trkpt>
      <trkpt lat="49.90193" lon="2.26091">
        <ele>31.4</ele>
        <time>2023-01-28T13:36:32Z</time>
      </trkpt>
      <trkpt lat="49.90193" lon="2.26094">
        <ele>31.4</ele>
        <time>2023-01-28T13:36:33Z</time>
      </trkpt>
      <trkpt lat="49.90193" lon="2.26097">
        <ele>31.4</ele>
        <time>2023-01-28T13:36:34Z</time>
      </trkpt>
      <trkpt lat="49.90193" lon="2.26099">
        <ele>31.4</ele>
        <time>2023-01-28T13:36:35Z</time>
      </trkpt>
      <trkpt lat="49.90193" lon="2.261">
        <ele>31.4</ele>
        <time>2023-01-28T13:36:36Z</time>
      </trkpt>
      <trkpt lat="49.90193" lon="2.26104">
        <ele>31.5</ele>
        <time>2023-01-28T13:36:37Z</time>
      </trkpt>
      <trkpt lat="49.90193" lon="2.26106">
        <ele>31.5</ele>
        <time>2023-01-28T13:36:38Z</time>
      </trkpt>
      <trkpt lat="49.90192" lon="2.26107">
        <ele>31.5</ele>
        <time>2023-01-28T13:36:40Z</time>
      </trkpt>
      <trkpt lat="49.90192" lon="2.26108">
        <ele>31.5</ele>
        <time>2023-01-28T13:36:41Z</time>
      </trkpt>
      <trkpt lat="49.90192" lon="2.2611">
        <ele>31.5</ele>
        <time>2023-01-28T13:36:42Z</time>
      </trkpt>
      <trkpt lat="49.90192" lon="2.26111">
        <ele>31.5</ele>
        <time>2023-01-28T13:36:43Z</time>
      </trkpt>
      <trkpt lat="49.90192" lon="2.26112">
        <ele>31.5</ele>
        <time>2023-01-28T13:36:44Z</time>
      </trkpt>
      <trkpt lat="49.90192" lon="2.26114">
        <ele>31.5</ele>
        <time>2023-01-28T13:36:46Z</time>
      </trkpt>
      <trkpt lat="49.90191" lon="2.26116">
        <ele>31.5</ele>
        <time>2023-01-28T13:36:47Z</time>
      </trkpt>
      <trkpt lat="49.90191" lon="2.26118">
        <ele>31.5</ele>
        <time>2023-01-28T13:36:48Z</time>
      </trkpt>
      <trkpt lat="49.9019" lon="2.26119">
        <ele>31.5</ele>
        <time>2023-01-28T13:36:49Z</time>
      </trkpt>
      <trkpt lat="49.9019" lon="2.2612">
        <ele>31.5</ele>
        <time>2023-01-28T13:36:50Z</time>
      </trkpt>
      <trkpt lat="49.9019" lon="2.26122">
        <ele>31.5</ele>
        <time>2023-01-28T13:36:51Z</time>
      </trkpt>
      <trkpt lat="49.90191" lon="2.26125">
        <ele>31.5</ele>
        <time>2023-01-28T13:36:52Z</time>
      </trkpt>
      <trkpt lat="49.90191" lon="2.26126">
        <ele>31.5</ele>
        <time>2023-01-28T13:36:54Z</time>
      </trkpt>
      <trkpt lat="49.90191" lon="2.26127">
        <ele>31.5</ele>
        <time>2023-01-28T13:36:55Z</time>
      </trkpt>
      <trkpt lat="49.90191" lon="2.26129">
        <ele>31.5</ele>
        <time>2023-01-28T13:36:56Z</time>
      </trkpt>
      <trkpt lat="49.90192" lon="2.26131">
        <ele>31.5</ele>
        <time>2023-01-28T13:36:57Z</time>
      </trkpt>
      <trkpt lat="49.90192" lon="2.26133">
        <ele>31.5</ele>
        <time>2023-01-28T13:36:58Z</time>
      </trkpt>
      <trkpt lat="49.90193" lon="2.26134">
        <ele>31.4</ele>
        <time>2023-01-28T13:36:59Z</time>
      </trkpt>
      <trkpt lat="49.90194" lon="2.26137">
        <ele>31.4</ele>
        <time>2023-01-28T13:37:00Z</time>
      </trkpt>
      <trkpt lat="49.90194" lon="2.26138">
        <ele>31.4</ele>
        <time>2023-01-28T13:37:02Z</time>
      </trkpt>
      <trkpt lat="49.90194" lon="2.26139">
        <ele>31.4</ele>
        <time>2023-01-28T13:37:03Z</time>
      </trkpt>
      <trkpt lat="49.90194" lon="2.26141">
        <ele>31.4</ele>
        <time>2023-01-28T13:37:04Z</time>
      </trkpt>
      <trkpt lat="49.90195" lon="2.26142">
        <ele>31.4</ele>
        <time>2023-01-28T13:37:05Z</time>
      </trkpt>
      <trkpt lat="49.90195" lon="2.26144">
        <ele>31.3</ele>
        <time>2023-01-28T13:37:06Z</time>
      </trkpt>
      <trkpt lat="49.90195" lon="2.26147">
        <ele>31.3</ele>
        <time>2023-01-28T13:37:07Z</time>
      </trkpt>
      <trkpt lat="49.90195" lon="2.26148">
        <ele>31.3</ele>
        <time>2023-01-28T13:37:09Z</time>
      </trkpt>
      <trkpt lat="49.90196" lon="2.26149">
        <ele>31.3</ele>
        <time>2023-01-28T13:37:10Z</time>
      </trkpt>
      <trkpt lat="49.90195" lon="2.26151">
        <ele>31.2</ele>
        <time>2023-01-28T13:37:11Z</time>
      </trkpt>
      <trkpt lat="49.90195" lon="2.26152">
        <ele>31.2</ele>
        <time>2023-01-28T13:37:12Z</time>
      </trkpt>
      <trkpt lat="49.90194" lon="2.26154">
        <ele>31.2</ele>
        <time>2023-01-28T13:37:14Z</time>
      </trkpt>
      <trkpt lat="49.90193" lon="2.26155">
        <ele>31.1</ele>
        <time>2023-01-28T13:37:15Z</time>
      </trkpt>
      <trkpt lat="49.90193" lon="2.26157">
        <ele>31.1</ele>
        <time>2023-01-28T13:37:16Z</time>
      </trkpt>
      <trkpt lat="49.90194" lon="2.26159">
        <ele>31.1</ele>
        <time>2023-01-28T13:37:18Z</time>
      </trkpt>
      <trkpt lat="49.90195" lon="2.2616">
        <ele>31</ele>
        <time>2023-01-28T13:37:19Z</time>
      </trkpt>
      <trkpt lat="49.90196" lon="2.26161">
        <ele>31</ele>
        <time>2023-01-28T13:37:20Z</time>
      </trkpt>
      <trkpt lat="49.90197" lon="2.26163">
        <ele>31</ele>
        <time>2023-01-28T13:37:21Z</time>
      </trkpt>
      <trkpt lat="49.90197" lon="2.26165">
        <ele>31</ele>
        <time>2023-01-28T13:37:22Z</time>
      </trkpt>
      <trkpt lat="49.90198" lon="2.26167">
        <ele>30.9</ele>
        <time>2023-01-28T13:37:23Z</time>
      </trkpt>
      <trkpt lat="49.90199" lon="2.26169">
        <ele>30.9</ele>
        <time>2023-01-28T13:37:24Z</time>
      </trkpt>
      <trkpt lat="49.90199" lon="2.2617">
        <ele>30.9</ele>
        <time>2023-01-28T13:37:26Z</time>
      </trkpt>
      <trkpt lat="49.902" lon="2.26171">
        <ele>30.9</ele>
        <time>2023-01-28T13:37:27Z</time>
      </trkpt>
      <trkpt lat="49.90201" lon="2.26174">
        <ele>30.8</ele>
        <time>2023-01-28T13:37:28Z</time>
      </trkpt>
      <trkpt lat="49.90202" lon="2.26175">
        <ele>30.8</ele>
        <time>2023-01-28T13:37:29Z</time>
      </trkpt>
      <trkpt lat="49.90202" lon="2.26177">
        <ele>30.8</ele>
        <time>2023-01-28T13:37:30Z</time>
      </trkpt>
      <trkpt lat="49.90203" lon="2.2618">
        <ele>30.8</ele>
        <time>2023-01-28T13:37:31Z</time>
      </trkpt>
      <trkpt lat="49.90203" lon="2.26181">
        <ele>30.8</ele>
        <time>2023-01-28T13:37:32Z</time>
      </trkpt>
      <trkpt lat="49.90203" lon="2.26182">
        <ele>30.8</ele>
        <time>2023-01-28T13:37:33Z</time>
      </trkpt>
      <trkpt lat="49.90204" lon="2.26184">
        <ele>30.8</ele>
        <time>2023-01-28T13:37:34Z</time>
      </trkpt>
      <trkpt lat="49.90204" lon="2.26185">
        <ele>30.8</ele>
        <time>2023-01-28T13:37:36Z</time>
      </trkpt>
      <trkpt lat="49.90205" lon="2.26187">
        <ele>30.8</ele>
        <time>2023-01-28T13:37:37Z</time>
      </trkpt>
      <trkpt lat="49.90205" lon="2.2619">
        <ele>30.8</ele>
        <time>2023-01-28T13:37:38Z</time>
      </trkpt>
      <trkpt lat="49.90206" lon="2.26191">
        <ele>30.8</ele>
        <time>2023-01-28T13:37:39Z</time>
      </trkpt>
      <trkpt lat="49.90206" lon="2.26193">
        <ele>30.8</ele>
        <time>2023-01-28T13:37:40Z</time>
      </trkpt>
      <trkpt lat="49.90207" lon="2.26194">
        <ele>30.7</ele>
        <time>2023-01-28T13:37:41Z</time>
      </trkpt>
      <trkpt lat="49.90207" lon="2.26195">
        <ele>30.7</ele>
        <time>2023-01-28T13:37:43Z</time>
      </trkpt>
      <trkpt lat="49.90207" lon="2.26197">
        <ele>30.7</ele>
        <time>2023-01-28T13:37:44Z</time>
      </trkpt>
      <trkpt lat="49.90208" lon="2.26198">
        <ele>30.7</ele>
        <time>2023-01-28T13:37:45Z</time>
      </trkpt>
      <trkpt lat="49.90208" lon="2.262">
        <ele>30.7</ele>
        <time>2023-01-28T13:37:46Z</time>
      </trkpt>
      <trkpt lat="49.90208" lon="2.26202">
        <ele>30.7</ele>
        <time>2023-01-28T13:37:47Z</time>
      </trkpt>
      <trkpt lat="49.90209" lon="2.26205">
        <ele>30.7</ele>
        <time>2023-01-28T13:37:48Z</time>
      </trkpt>
      <trkpt lat="49.90209" lon="2.26205">
        <ele>30.7</ele>
        <time>2023-01-28T13:37:50Z</time>
      </trkpt>
      <trkpt lat="49.90209" lon="2.26207">
        <ele>30.7</ele>
        <time>2023-01-28T13:37:51Z</time>
      </trkpt>
      <trkpt lat="49.9021" lon="2.2621">
        <ele>30.7</ele>
        <time>2023-01-28T13:37:52Z</time>
      </trkpt>
      <trkpt lat="49.9021" lon="2.26211">
        <ele>30.7</ele>
        <time>2023-01-28T13:37:53Z</time>
      </trkpt>
      <trkpt lat="49.9021" lon="2.26212">
        <ele>30.7</ele>
        <time>2023-01-28T13:37:54Z</time>
      </trkpt>
      <trkpt lat="49.9021" lon="2.26214">
        <ele>30.7</ele>
        <time>2023-01-28T13:37:55Z</time>
      </trkpt>
      <trkpt lat="49.9021" lon="2.26216">
        <ele>30.7</ele>
        <time>2023-01-28T13:37:56Z</time>
      </trkpt>
      <trkpt lat="49.90211" lon="2.26218">
        <ele>30.7</ele>
        <time>2023-01-28T13:37:58Z</time>
      </trkpt>
      <trkpt lat="49.90211" lon="2.2622">
        <ele>30.7</ele>
        <time>2023-01-28T13:37:59Z</time>
      </trkpt>
      <trkpt lat="49.90211" lon="2.26221">
        <ele>30.7</ele>
        <time>2023-01-28T13:38:00Z</time>
      </trkpt>
      <trkpt lat="49.90211" lon="2.26223">
        <ele>30.7</ele>
        <time>2023-01-28T13:38:01Z</time>
      </trkpt>
      <trkpt lat="49.90212" lon="2.26226">
        <ele>30.7</ele>
        <time>2023-01-28T13:38:02Z</time>
      </trkpt>
      <trkpt lat="49.90213" lon="2.26228">
        <ele>30.7</ele>
        <time>2023-01-28T13:38:03Z</time>
      </trkpt>
      <trkpt lat="49.90213" lon="2.26229">
        <ele>30.7</ele>
        <time>2023-01-28T13:38:05Z</time>
      </trkpt>
      <trkpt lat="49.90213" lon="2.2623">
        <ele>30.7</ele>
        <time>2023-01-28T13:38:06Z</time>
      </trkpt>
      <trkpt lat="49.90214" lon="2.26232">
        <ele>30.7</ele>
        <time>2023-01-28T13:38:07Z</time>
      </trkpt>
      <trkpt lat="49.90214" lon="2.26233">
        <ele>30.7</ele>
        <time>2023-01-28T13:38:08Z</time>
      </trkpt>
      <trkpt lat="49.90215" lon="2.26235">
        <ele>30.7</ele>
        <time>2023-01-28T13:38:10Z</time>
      </trkpt>
      <trkpt lat="49.90215" lon="2.26236">
        <ele>30.7</ele>
        <time>2023-01-28T13:38:11Z</time>
      </trkpt>
      <trkpt lat="49.90216" lon="2.26238">
        <ele>30.7</ele>
        <time>2023-01-28T13:38:12Z</time>
      </trkpt>
      <trkpt lat="49.90216" lon="2.26239">
        <ele>30.7</ele>
        <time>2023-01-28T13:38:13Z</time>
      </trkpt>
      <trkpt lat="49.90217" lon="2.26242">
        <ele>30.6</ele>
        <time>2023-01-28T13:38:14Z</time>
      </trkpt>
      <trkpt lat="49.90217" lon="2.26243">
        <ele>30.6</ele>
        <time>2023-01-28T13:38:16Z</time>
      </trkpt>
      <trkpt lat="49.90217" lon="2.26245">
        <ele>30.6</ele>
        <time>2023-01-28T13:38:17Z</time>
      </trkpt>
      <trkpt lat="49.90217" lon="2.26246">
        <ele>30.6</ele>
        <time>2023-01-28T13:38:18Z</time>
      </trkpt>
      <trkpt lat="49.90217" lon="2.26249">
        <ele>30.6</ele>
        <time>2023-01-28T13:38:19Z</time>
      </trkpt>
      <trkpt lat="49.90217" lon="2.26251">
        <ele>30.6</ele>
        <time>2023-01-28T13:38:20Z</time>
      </trkpt>
      <trkpt lat="49.90217" lon="2.26253">
        <ele>30.5</ele>
        <time>2023-01-28T13:38:21Z</time>
      </trkpt>
      <trkpt lat="49.90217" lon="2.26256">
        <ele>30.5</ele>
        <time>2023-01-28T13:38:22Z</time>
      </trkpt>
      <trkpt lat="49.90218" lon="2.26257">
        <ele>30.5</ele>
        <time>2023-01-28T13:38:24Z</time>
      </trkpt>
      <trkpt lat="49.90218" lon="2.26258">
        <ele>30.5</ele>
        <time>2023-01-28T13:38:25Z</time>
      </trkpt>
      <trkpt lat="49.90218" lon="2.2626">
        <ele>30.5</ele>
        <time>2023-01-28T13:38:26Z</time>
      </trkpt>
      <trkpt lat="49.90218" lon="2.26262">
        <ele>30.5</ele>
        <time>2023-01-28T13:38:27Z</time>
      </trkpt>
      <trkpt lat="49.90218" lon="2.26264">
        <ele>30.5</ele>
        <time>2023-01-28T13:38:28Z</time>
      </trkpt>
      <trkpt lat="49.90218" lon="2.26265">
        <ele>30.4</ele>
        <time>2023-01-28T13:38:30Z</time>
      </trkpt>
      <trkpt lat="49.90218" lon="2.26267">
        <ele>30.4</ele>
        <time>2023-01-28T13:38:31Z</time>
      </trkpt>
      <trkpt lat="49.90218" lon="2.26268">
        <ele>30.4</ele>
        <time>2023-01-28T13:38:32Z</time>
      </trkpt>
      <trkpt lat="49.90218" lon="2.2627">
        <ele>30.4</ele>
        <time>2023-01-28T13:38:33Z</time>
      </trkpt>
      <trkpt lat="49.90217" lon="2.26271">
        <ele>30.4</ele>
        <time>2023-01-28T13:38:34Z</time>
      </trkpt>
      <trkpt lat="49.90217" lon="2.26273">
        <ele>30.4</ele>
        <time>2023-01-28T13:38:36Z</time>
      </trkpt>
      <trkpt lat="49.90217" lon="2.26274">
        <ele>30.4</ele>
        <time>2023-01-28T13:38:37Z</time>
      </trkpt>
      <trkpt lat="49.90217" lon="2.26274">
        <ele>30.4</ele>
        <time>2023-01-28T13:38:38Z</time>
      </trkpt>
      <trkpt lat="49.90217" lon="2.26275">
        <ele>30.4</ele>
        <time>2023-01-28T13:38:39Z</time>
      </trkpt>
      <trkpt lat="49.90217" lon="2.26275">
        <ele>30.4</ele>
        <time>2023-01-28T13:38:41Z</time>
      </trkpt>
      <trkpt lat="49.90217" lon="2.26275">
        <ele>30.4</ele>
        <time>2023-01-28T13:38:42Z</time>
      </trkpt>
      <trkpt lat="49.90217" lon="2.26274">
        <ele>30.4</ele>
        <time>2023-01-28T13:38:44Z</time>
      </trkpt>
      <trkpt lat="49.90217" lon="2.26274">
        <ele>30.4</ele>
        <time>2023-01-28T13:38:45Z</time>
      </trkpt>
      <trkpt lat="49.90217" lon="2.26274">
        <ele>30.4</ele>
        <time>2023-01-28T13:38:47Z</time>
      </trkpt>
      <trkpt lat="49.90217" lon="2.26274">
        <ele>30.4</ele>
        <time>2023-01-28T13:38:48Z</time>
      </trkpt>
      <trkpt lat="49.90217" lon="2.26274">
        <ele>30.4</ele>
        <time>2023-01-28T13:38:50Z</time>
      </trkpt>
      <trkpt lat="49.90217" lon="2.26274">
        <ele>30.4</ele>
        <time>2023-01-28T13:38:51Z</time>
      </trkpt>
      <trkpt lat="49.90217" lon="2.26273">
        <ele>30.4</ele>
        <time>2023-01-28T13:38:53Z</time>
      </trkpt>
      <trkpt lat="49.90217" lon="2.26273">
        <ele>30.4</ele>
        <time>2023-01-28T13:38:55Z</time>
      </trkpt>
      <trkpt lat="49.90217" lon="2.26274">
        <ele>30.4</ele>
        <time>2023-01-28T13:38:56Z</time>
      </trkpt>
      <trkpt lat="49.90218" lon="2.26274">
        <ele>30.4</ele>
        <time>2023-01-28T13:38:57Z</time>
      </trkpt>
      <trkpt lat="49.90218" lon="2.26275">
        <ele>30.4</ele>
        <time>2023-01-28T13:38:58Z</time>
      </trkpt>
      <trkpt lat="49.90218" lon="2.26276">
        <ele>30.3</ele>
        <time>2023-01-28T13:38:59Z</time>
      </trkpt>
      <trkpt lat="49.9022" lon="2.26279">
        <ele>30.3</ele>
        <time>2023-01-28T13:39:00Z</time>
      </trkpt>
      <trkpt lat="49.9022" lon="2.2628">
        <ele>30.3</ele>
        <time>2023-01-28T13:39:02Z</time>
      </trkpt>
      <trkpt lat="49.90221" lon="2.26281">
        <ele>30.2</ele>
        <time>2023-01-28T13:39:03Z</time>
      </trkpt>
      <trkpt lat="49.90222" lon="2.26282">
        <ele>30.2</ele>
        <time>2023-01-28T13:39:04Z</time>
      </trkpt>
      <trkpt lat="49.90223" lon="2.26284">
        <ele>30.2</ele>
        <time>2023-01-28T13:39:05Z</time>
      </trkpt>
      <trkpt lat="49.90224" lon="2.26286">
        <ele>30.2</ele>
        <time>2023-01-28T13:39:06Z</time>
      </trkpt>
      <trkpt lat="49.90224" lon="2.26288">
        <ele>30.1</ele>
        <time>2023-01-28T13:39:07Z</time>
      </trkpt>
      <trkpt lat="49.90225" lon="2.2629">
        <ele>30.1</ele>
        <time>2023-01-28T13:39:08Z</time>
      </trkpt>
      <trkpt lat="49.90225" lon="2.26292">
        <ele>30.1</ele>
        <time>2023-01-28T13:39:09Z</time>
      </trkpt>
      <trkpt lat="49.90225" lon="2.26294">
        <ele>30</ele>
        <time>2023-01-28T13:39:11Z</time>
      </trkpt>
      <trkpt lat="49.90225" lon="2.26297">
        <ele>30</ele>
        <time>2023-01-28T13:39:12Z</time>
      </trkpt>
      <trkpt lat="49.90226" lon="2.26299">
        <ele>30</ele>
        <time>2023-01-28T13:39:13Z</time>
      </trkpt>
      <trkpt lat="49.90226" lon="2.263">
        <ele>30</ele>
        <time>2023-01-28T13:39:14Z</time>
      </trkpt>
      <trkpt lat="49.90227" lon="2.26302">
        <ele>29.9</ele>
        <time>2023-01-28T13:39:15Z</time>
      </trkpt>
      <trkpt lat="49.90227" lon="2.26304">
        <ele>29.9</ele>
        <time>2023-01-28T13:39:16Z</time>
      </trkpt>
      <trkpt lat="49.90228" lon="2.26305">
        <ele>29.9</ele>
        <time>2023-01-28T13:39:18Z</time>
      </trkpt>
      <trkpt lat="49.90229" lon="2.26308">
        <ele>29.9</ele>
        <time>2023-01-28T13:39:19Z</time>
      </trkpt>
      <trkpt lat="49.90229" lon="2.26309">
        <ele>29.9</ele>
        <time>2023-01-28T13:39:20Z</time>
      </trkpt>
      <trkpt lat="49.90229" lon="2.2631">
        <ele>29.8</ele>
        <time>2023-01-28T13:39:21Z</time>
      </trkpt>
      <trkpt lat="49.90231" lon="2.26312">
        <ele>29.8</ele>
        <time>2023-01-28T13:39:22Z</time>
      </trkpt>
      <trkpt lat="49.90232" lon="2.26313">
        <ele>29.8</ele>
        <time>2023-01-28T13:39:23Z</time>
      </trkpt>
      <trkpt lat="49.90233" lon="2.26315">
        <ele>29.8</ele>
        <time>2023-01-28T13:39:24Z</time>
      </trkpt>
      <trkpt lat="49.90233" lon="2.26316">
        <ele>29.7</ele>
        <time>2023-01-28T13:39:25Z</time>
      </trkpt>
      <trkpt lat="49.90234" lon="2.26317">
        <ele>29.7</ele>
        <time>2023-01-28T13:39:26Z</time>
      </trkpt>
      <trkpt lat="49.90235" lon="2.26319">
        <ele>29.7</ele>
        <time>2023-01-28T13:39:28Z</time>
      </trkpt>
      <trkpt lat="49.90235" lon="2.2632">
        <ele>29.7</ele>
        <time>2023-01-28T13:39:29Z</time>
      </trkpt>
      <trkpt lat="49.90236" lon="2.26322">
        <ele>29.7</ele>
        <time>2023-01-28T13:39:30Z</time>
      </trkpt>
      <trkpt lat="49.90236" lon="2.26324">
        <ele>29.6</ele>
        <time>2023-01-28T13:39:31Z</time>
      </trkpt>
      <trkpt lat="49.90237" lon="2.26326">
        <ele>29.6</ele>
        <time>2023-01-28T13:39:32Z</time>
      </trkpt>
      <trkpt lat="49.90237" lon="2.26329">
        <ele>29.6</ele>
        <time>2023-01-28T13:39:33Z</time>
      </trkpt>
      <trkpt lat="49.90238" lon="2.2633">
        <ele>29.5</ele>
        <time>2023-01-28T13:39:34Z</time>
      </trkpt>
      <trkpt lat="49.90238" lon="2.26332">
        <ele>29.5</ele>
        <time>2023-01-28T13:39:35Z</time>
      </trkpt>
      <trkpt lat="49.90239" lon="2.26335">
        <ele>29.5</ele>
        <time>2023-01-28T13:39:37Z</time>
      </trkpt>
      <trkpt lat="49.90239" lon="2.26336">
        <ele>29.5</ele>
        <time>2023-01-28T13:39:38Z</time>
      </trkpt>
      <trkpt lat="49.90239" lon="2.26337">
        <ele>29.5</ele>
        <time>2023-01-28T13:39:39Z</time>
      </trkpt>
      <trkpt lat="49.9024" lon="2.2634">
        <ele>29.4</ele>
        <time>2023-01-28T13:39:40Z</time>
      </trkpt>
      <trkpt lat="49.9024" lon="2.26342">
        <ele>29.4</ele>
        <time>2023-01-28T13:39:41Z</time>
      </trkpt>
      <trkpt lat="49.90241" lon="2.26344">
        <ele>29.4</ele>
        <time>2023-01-28T13:39:43Z</time>
      </trkpt>
      <trkpt lat="49.90241" lon="2.26346">
        <ele>29.4</ele>
        <time>2023-01-28T13:39:44Z</time>
      </trkpt>
      <trkpt lat="49.90241" lon="2.26348">
        <ele>29.3</ele>
        <time>2023-01-28T13:39:45Z</time>
      </trkpt>
      <trkpt lat="49.90241" lon="2.26351">
        <ele>29.3</ele>
        <time>2023-01-28T13:39:46Z</time>
      </trkpt>
      <trkpt lat="49.90241" lon="2.26354">
        <ele>29.3</ele>
        <time>2023-01-28T13:39:47Z</time>
      </trkpt>
      <trkpt lat="49.90241" lon="2.26355">
        <ele>29.3</ele>
        <time>2023-01-28T13:39:48Z</time>
      </trkpt>
      <trkpt lat="49.90241" lon="2.26357">
        <ele>29.3</ele>
        <time>2023-01-28T13:39:49Z</time>
      </trkpt>
      <trkpt lat="49.9024" lon="2.2636">
        <ele>29.2</ele>
        <time>2023-01-28T13:39:51Z</time>
      </trkpt>
      <trkpt lat="49.9024" lon="2.26361">
        <ele>29.2</ele>
        <time>2023-01-28T13:39:52Z</time>
      </trkpt>
      <trkpt lat="49.9024" lon="2.26362">
        <ele>29.2</ele>
        <time>2023-01-28T13:39:53Z</time>
      </trkpt>
      <trkpt lat="49.9024" lon="2.26365">
        <ele>29.2</ele>
        <time>2023-01-28T13:39:54Z</time>
      </trkpt>
      <trkpt lat="49.9024" lon="2.26367">
        <ele>29.2</ele>
        <time>2023-01-28T13:39:55Z</time>
      </trkpt>
      <trkpt lat="49.9024" lon="2.26368">
        <ele>29.2</ele>
        <time>2023-01-28T13:39:56Z</time>
      </trkpt>
      <trkpt lat="49.9024" lon="2.2637">
        <ele>29.1</ele>
        <time>2023-01-28T13:39:57Z</time>
      </trkpt>
      <trkpt lat="49.90241" lon="2.26372">
        <ele>29.1</ele>
        <time>2023-01-28T13:39:59Z</time>
      </trkpt>
      <trkpt lat="49.90241" lon="2.26373">
        <ele>29.1</ele>
        <time>2023-01-28T13:40:00Z</time>
      </trkpt>
      <trkpt lat="49.90241" lon="2.26375">
        <ele>29.1</ele>
        <time>2023-01-28T13:40:01Z</time>
      </trkpt>
      <trkpt lat="49.90241" lon="2.26376">
        <ele>29.1</ele>
        <time>2023-01-28T13:40:02Z</time>
      </trkpt>
      <trkpt lat="49.90241" lon="2.26378">
        <ele>29.1</ele>
        <time>2023-01-28T13:40:03Z</time>
      </trkpt>
      <trkpt lat="49.90241" lon="2.2638">
        <ele>29.1</ele>
        <time>2023-01-28T13:40:04Z</time>
      </trkpt>
      <trkpt lat="49.90242" lon="2.26382">
        <ele>29</ele>
        <time>2023-01-28T13:40:05Z</time>
      </trkpt>
      <trkpt lat="49.90242" lon="2.26383">
        <ele>29</ele>
        <time>2023-01-28T13:40:06Z</time>
      </trkpt>
      <trkpt lat="49.90243" lon="2.26384">
        <ele>29</ele>
        <time>2023-01-28T13:40:08Z</time>
      </trkpt>
      <trkpt lat="49.90243" lon="2.26386">
        <ele>29</ele>
        <time>2023-01-28T13:40:09Z</time>
      </trkpt>
      <trkpt lat="49.90243" lon="2.26387">
        <ele>29</ele>
        <time>2023-01-28T13:40:10Z</time>
      </trkpt>
      <trkpt lat="49.90244" lon="2.26389">
        <ele>29</ele>
        <time>2023-01-28T13:40:11Z</time>
      </trkpt>
      <trkpt lat="49.90244" lon="2.26391">
        <ele>29</ele>
        <time>2023-01-28T13:40:12Z</time>
      </trkpt>
      <trkpt lat="49.90245" lon="2.26393">
        <ele>29</ele>
        <time>2023-01-28T13:40:13Z</time>
      </trkpt>
      <trkpt lat="49.90245" lon="2.26394">
        <ele>28.9</ele>
        <time>2023-01-28T13:40:14Z</time>
      </trkpt>
      <trkpt lat="49.90245" lon="2.26396">
        <ele>28.9</ele>
        <time>2023-01-28T13:40:15Z</time>
      </trkpt>
      <trkpt lat="49.90245" lon="2.26398">
        <ele>28.9</ele>
        <time>2023-01-28T13:40:17Z</time>
      </trkpt>
      <trkpt lat="49.90244" lon="2.26399">
        <ele>28.9</ele>
        <time>2023-01-28T13:40:18Z</time>
      </trkpt>
      <trkpt lat="49.90244" lon="2.26401">
        <ele>28.9</ele>
        <time>2023-01-28T13:40:19Z</time>
      </trkpt>
      <trkpt lat="49.90245" lon="2.26403">
        <ele>28.9</ele>
        <time>2023-01-28T13:40:20Z</time>
      </trkpt>
      <trkpt lat="49.90245" lon="2.26405">
        <ele>28.9</ele>
        <time>2023-01-28T13:40:21Z</time>
      </trkpt>
      <trkpt lat="49.90245" lon="2.26406">
        <ele>28.9</ele>
        <time>2023-01-28T13:40:22Z</time>
      </trkpt>
      <trkpt lat="49.90246" lon="2.26408">
        <ele>28.9</ele>
        <time>2023-01-28T13:40:23Z</time>
      </trkpt>
      <trkpt lat="49.90246" lon="2.2641">
        <ele>28.9</ele>
        <time>2023-01-28T13:40:24Z</time>
      </trkpt>
      <trkpt lat="49.90246" lon="2.26412">
        <ele>28.9</ele>
        <time>2023-01-28T13:40:26Z</time>
      </trkpt>
      <trkpt lat="49.90247" lon="2.26414">
        <ele>28.9</ele>
        <time>2023-01-28T13:40:27Z</time>
      </trkpt>
      <trkpt lat="49.90247" lon="2.26416">
        <ele>28.8</ele>
        <time>2023-01-28T13:40:28Z</time>
      </trkpt>
      <trkpt lat="49.90248" lon="2.26418">
        <ele>28.8</ele>
        <time>2023-01-28T13:40:30Z</time>
      </trkpt>
      <trkpt lat="49.90248" lon="2.26419">
        <ele>28.8</ele>
        <time>2023-01-28T13:40:31Z</time>
      </trkpt>
      <trkpt lat="49.90249" lon="2.2642">
        <ele>28.8</ele>
        <time>2023-01-28T13:40:32Z</time>
      </trkpt>
      <trkpt lat="49.90248" lon="2.26421">
        <ele>28.8</ele>
        <time>2023-01-28T13:40:33Z</time>
      </trkpt>
      <trkpt lat="49.90248" lon="2.26422">
        <ele>28.8</ele>
        <time>2023-01-28T13:40:35Z</time>
      </trkpt>
      <trkpt lat="49.90247" lon="2.26422">
        <ele>28.8</ele>
        <time>2023-01-28T13:40:36Z</time>
      </trkpt>
      <trkpt lat="49.90248" lon="2.26424">
        <ele>28.8</ele>
        <time>2023-01-28T13:40:37Z</time>
      </trkpt>
      <trkpt lat="49.90248" lon="2.26425">
        <ele>28.8</ele>
        <time>2023-01-28T13:40:38Z</time>
      </trkpt>
      <trkpt lat="49.90248" lon="2.26427">
        <ele>28.8</ele>
        <time>2023-01-28T13:40:39Z</time>
      </trkpt>
      <trkpt lat="49.90248" lon="2.26428">
        <ele>28.8</ele>
        <time>2023-01-28T13:40:41Z</time>
      </trkpt>
      <trkpt lat="49.90249" lon="2.2643">
        <ele>28.8</ele>
        <time>2023-01-28T13:40:42Z</time>
      </trkpt>
      <trkpt lat="49.90249" lon="2.2643">
        <ele>28.8</ele>
        <time>2023-01-28T13:40:43Z</time>
      </trkpt>
      <trkpt lat="49.90249" lon="2.26432">
        <ele>28.8</ele>
        <time>2023-01-28T13:40:44Z</time>
      </trkpt>
      <trkpt lat="49.9025" lon="2.26434">
        <ele>28.8</ele>
        <time>2023-01-28T13:40:45Z</time>
      </trkpt>
      <trkpt lat="49.9025" lon="2.26435">
        <ele>28.8</ele>
        <time>2023-01-28T13:40:46Z</time>
      </trkpt>
      <trkpt lat="49.90251" lon="2.26438">
        <ele>28.8</ele>
        <time>2023-01-28T13:40:48Z</time>
      </trkpt>
      <trkpt lat="49.90252" lon="2.26437">
        <ele>28.8</ele>
        <time>2023-01-28T13:40:49Z</time>
      </trkpt>
      <trkpt lat="49.90253" lon="2.26437">
        <ele>28.8</ele>
        <time>2023-01-28T13:40:50Z</time>
      </trkpt>
      <trkpt lat="49.90254" lon="2.26438">
        <ele>28.8</ele>
        <time>2023-01-28T13:40:52Z</time>
      </trkpt>
      <trkpt lat="49.90255" lon="2.26438">
        <ele>28.8</ele>
        <time>2023-01-28T13:40:53Z</time>
      </trkpt>
      <trkpt lat="49.90256" lon="2.26438">
        <ele>28.8</ele>
        <time>2023-01-28T13:40:54Z</time>
      </trkpt>
      <trkpt lat="49.90257" lon="2.26439">
        <ele>28.8</ele>
        <time>2023-01-28T13:40:56Z</time>
      </trkpt>
      <trkpt lat="49.90256" lon="2.26439">
        <ele>28.8</ele>
        <time>2023-01-28T13:40:57Z</time>
      </trkpt>
      <trkpt lat="49.90254" lon="2.2644">
        <ele>28.8</ele>
        <time>2023-01-28T13:40:59Z</time>
      </trkpt>
      <trkpt lat="49.90254" lon="2.2644">
        <ele>28.8</ele>
        <time>2023-01-28T13:41:00Z</time>
      </trkpt>
      <trkpt lat="49.90253" lon="2.26439">
        <ele>28.8</ele>
        <time>2023-01-28T13:41:02Z</time>
      </trkpt>
      <trkpt lat="49.90253" lon="2.26439">
        <ele>28.8</ele>
        <time>2023-01-28T13:41:03Z</time>
      </trkpt>
      <trkpt lat="49.90253" lon="2.26439">
        <ele>28.8</ele>
        <time>2023-01-28T13:41:04Z</time>
      </trkpt>
      <trkpt lat="49.90253" lon="2.26438">
        <ele>28.8</ele>
        <time>2023-01-28T13:41:06Z</time>
      </trkpt>
      <trkpt lat="49.90253" lon="2.26438">
        <ele>28.8</ele>
        <time>2023-01-28T13:41:07Z</time>
      </trkpt>
      <trkpt lat="49.90253" lon="2.26438">
        <ele>28.8</ele>
        <time>2023-01-28T13:41:09Z</time>
      </trkpt>
      <trkpt lat="49.90253" lon="2.26438">
        <ele>28.8</ele>
        <time>2023-01-28T13:41:10Z</time>
      </trkpt>
      <trkpt lat="49.90252" lon="2.26438">
        <ele>28.8</ele>
        <time>2023-01-28T13:41:12Z</time>
      </trkpt>
      <trkpt lat="49.90252" lon="2.26438">
        <ele>28.8</ele>
        <time>2023-01-28T13:41:13Z</time>
      </trkpt>
      <trkpt lat="49.90252" lon="2.26438">
        <ele>28.8</ele>
        <time>2023-01-28T13:41:14Z</time>
      </trkpt>
      <trkpt lat="49.90253" lon="2.26438">
        <ele>28.8</ele>
        <time>2023-01-28T13:41:15Z</time>
      </trkpt>
      <trkpt lat="49.90253" lon="2.26438">
        <ele>28.8</ele>
        <time>2023-01-28T13:41:16Z</time>
      </trkpt>
      <trkpt lat="49.90253" lon="2.26438">
        <ele>28.9</ele>
        <time>2023-01-28T13:41:17Z</time>
      </trkpt>
      <trkpt lat="49.90253" lon="2.26438">
        <ele>28.9</ele>
        <time>2023-01-28T13:41:18Z</time>
      </trkpt>
      <trkpt lat="49.90253" lon="2.26438">
        <ele>28.9</ele>
        <time>2023-01-28T13:41:19Z</time>
      </trkpt>
      <trkpt lat="49.90253" lon="2.26438">
        <ele>28.9</ele>
        <time>2023-01-28T13:41:20Z</time>
      </trkpt>
      <trkpt lat="49.90253" lon="2.26438">
        <ele>28.8</ele>
        <time>2023-01-28T13:41:21Z</time>
      </trkpt>
      <trkpt lat="49.90253" lon="2.26438">
        <ele>28.8</ele>
        <time>2023-01-28T13:41:22Z</time>
      </trkpt>
      <trkpt lat="49.90253" lon="2.26438">
        <ele>28.8</ele>
        <time>2023-01-28T13:41:23Z</time>
      </trkpt>
      <trkpt lat="49.90253" lon="2.26438">
        <ele>28.8</ele>
        <time>2023-01-28T13:41:24Z</time>
      </trkpt>
      <trkpt lat="49.90253" lon="2.26438">
        <ele>28.8</ele>
        <time>2023-01-28T13:41:25Z</time>
      </trkpt>
      <trkpt lat="49.90253" lon="2.26438">
        <ele>28.8</ele>
        <time>2023-01-28T13:41:26Z</time>
      </trkpt>
      <trkpt lat="49.90253" lon="2.26438">
        <ele>28.8</ele>
        <time>2023-01-28T13:41:27Z</time>
      </trkpt>
      <trkpt lat="49.90253" lon="2.26438">
        <ele>28.8</ele>
        <time>2023-01-28T13:41:28Z</time>
      </trkpt>
      <trkpt lat="49.90253" lon="2.26438">
        <ele>28.8</ele>
        <time>2023-01-28T13:41:29Z</time>
      </trkpt>
      <trkpt lat="49.90253" lon="2.26438">
        <ele>28.8</ele>
        <time>2023-01-28T13:41:30Z</time>
      </trkpt>
      <trkpt lat="49.90253" lon="2.26438">
        <ele>28.8</ele>
        <time>2023-01-28T13:41:31Z</time>
      </trkpt>
      <trkpt lat="49.90253" lon="2.26438">
        <ele>28.8</ele>
        <time>2023-01-28T13:41:32Z</time>
      </trkpt>
      <trkpt lat="49.90253" lon="2.26438">
        <ele>28.8</ele>
        <time>2023-01-28T13:41:33Z</time>
      </trkpt>
      <trkpt lat="49.90253" lon="2.26438">
        <ele>28.8</ele>
        <time>2023-01-28T13:41:34Z</time>
      </trkpt>
      <trkpt lat="49.90253" lon="2.26438">
        <ele>28.8</ele>
        <time>2023-01-28T13:41:35Z</time>
      </trkpt>
      <trkpt lat="49.90253" lon="2.26438">
        <ele>28.8</ele>
        <time>2023-01-28T13:41:36Z</time>
      </trkpt>
      <trkpt lat="49.90253" lon="2.26438">
        <ele>28.8</ele>
        <time>2023-01-28T13:41:37Z</time>
      </trkpt>
      <trkpt lat="49.90253" lon="2.26438">
        <ele>28.8</ele>
        <time>2023-01-28T13:41:38Z</time>
      </trkpt>
      <trkpt lat="49.90253" lon="2.26438">
        <ele>28.8</ele>
        <time>2023-01-28T13:41:39Z</time>
      </trkpt>
      <trkpt lat="49.90253" lon="2.26438">
        <ele>28.8</ele>
        <time>2023-01-28T13:41:40Z</time>
      </trkpt>
      <trkpt lat="49.90253" lon="2.26438">
        <ele>28.8</ele>
        <time>2023-01-28T13:41:41Z</time>
      </trkpt>
      <trkpt lat="49.90253" lon="2.26438">
        <ele>28.8</ele>
        <time>2023-01-28T13:41:42Z</time>
      </trkpt>
      <trkpt lat="49.90253" lon="2.26438">
        <ele>28.8</ele>
        <time>2023-01-28T13:41:43Z</time>
      </trkpt>
      <trkpt lat="49.90253" lon="2.26438">
        <ele>28.8</ele>
        <time>2023-01-28T13:41:44Z</time>
      </trkpt>
      <trkpt lat="49.90253" lon="2.26438">
        <ele>28.8</ele>
        <time>2023-01-28T13:41:45Z</time>
      </trkpt>
      <trkpt lat="49.90253" lon="2.26438">
        <ele>28.8</ele>
        <time>2023-01-28T13:41:46Z</time>
      </trkpt>
      <trkpt lat="49.90253" lon="2.26438">
        <ele>28.8</ele>
        <time>2023-01-28T13:41:47Z</time>
      </trkpt>
      <trkpt lat="49.90253" lon="2.26438">
        <ele>28.8</ele>
        <time>2023-01-28T13:41:48Z</time>
      </trkpt>
      <trkpt lat="49.90253" lon="2.26437">
        <ele>28.9</ele>
        <time>2023-01-28T13:41:49Z</time>
      </trkpt>
      <trkpt lat="49.90254" lon="2.26435">
        <ele>28.9</ele>
        <time>2023-01-28T13:41:50Z</time>
      </trkpt>
      <trkpt lat="49.90254" lon="2.26436">
        <ele>28.9</ele>
        <time>2023-01-28T13:41:51Z</time>
      </trkpt>
      <trkpt lat="49.90255" lon="2.26437">
        <ele>28.9</ele>
        <time>2023-01-28T13:41:52Z</time>
      </trkpt>
      <trkpt lat="49.90255" lon="2.26438">
        <ele>28.9</ele>
        <time>2023-01-28T13:41:53Z</time>
      </trkpt>
      <trkpt lat="49.90255" lon="2.2644">
        <ele>28.9</ele>
        <time>2023-01-28T13:41:54Z</time>
      </trkpt>
      <trkpt lat="49.90256" lon="2.26441">
        <ele>28.9</ele>
        <time>2023-01-28T13:41:55Z</time>
      </trkpt>
      <trkpt lat="49.90256" lon="2.26442">
        <ele>28.9</ele>
        <time>2023-01-28T13:41:56Z</time>
      </trkpt>
      <trkpt lat="49.90256" lon="2.26442">
        <ele>28.9</ele>
        <time>2023-01-28T13:41:57Z</time>
      </trkpt>
      <trkpt lat="49.90256" lon="2.26446">
        <ele>28.9</ele>
        <time>2023-01-28T13:41:58Z</time>
      </trkpt>
      <trkpt lat="49.90256" lon="2.26448">
        <ele>29</ele>
        <time>2023-01-28T13:42:00Z</time>
      </trkpt>
      <trkpt lat="49.90256" lon="2.2645">
        <ele>29</ele>
        <time>2023-01-28T13:42:01Z</time>
      </trkpt>
      <trkpt lat="49.90256" lon="2.26453">
        <ele>29</ele>
        <time>2023-01-28T13:42:02Z</time>
      </trkpt>
      <trkpt lat="49.90257" lon="2.26455">
        <ele>29</ele>
        <time>2023-01-28T13:42:03Z</time>
      </trkpt>
      <trkpt lat="49.90257" lon="2.26457">
        <ele>29.1</ele>
        <time>2023-01-28T13:42:04Z</time>
      </trkpt>
      <trkpt lat="49.90257" lon="2.26459">
        <ele>29.1</ele>
        <time>2023-01-28T13:42:06Z</time>
      </trkpt>
      <trkpt lat="49.90257" lon="2.2646">
        <ele>29.1</ele>
        <time>2023-01-28T13:42:07Z</time>
      </trkpt>
      <trkpt lat="49.90257" lon="2.26462">
        <ele>29.1</ele>
        <time>2023-01-28T13:42:08Z</time>
      </trkpt>
      <trkpt lat="49.90257" lon="2.26464">
        <ele>29.2</ele>
        <time>2023-01-28T13:42:09Z</time>
      </trkpt>
      <trkpt lat="49.90257" lon="2.26465">
        <ele>29.2</ele>
        <time>2023-01-28T13:42:10Z</time>
      </trkpt>
      <trkpt lat="49.90257" lon="2.26467">
        <ele>29.2</ele>
        <time>2023-01-28T13:42:12Z</time>
      </trkpt>
      <trkpt lat="49.90257" lon="2.26468">
        <ele>29.2</ele>
        <time>2023-01-28T13:42:13Z</time>
      </trkpt>
      <trkpt lat="49.90258" lon="2.26469">
        <ele>29.2</ele>
        <time>2023-01-28T13:42:14Z</time>
      </trkpt>
      <trkpt lat="49.90258" lon="2.2647">
        <ele>29.3</ele>
        <time>2023-01-28T13:42:16Z</time>
      </trkpt>
      <trkpt lat="49.90258" lon="2.26471">
        <ele>29.3</ele>
        <time>2023-01-28T13:42:17Z</time>
      </trkpt>
      <trkpt lat="49.90258" lon="2.26472">
        <ele>29.3</ele>
        <time>2023-01-28T13:42:18Z</time>
      </trkpt>
      <trkpt lat="49.90258" lon="2.26473">
        <ele>29.3</ele>
        <time>2023-01-28T13:42:19Z</time>
      </trkpt>
      <trkpt lat="49.90258" lon="2.26473">
        <ele>29.3</ele>
        <time>2023-01-28T13:42:21Z</time>
      </trkpt>
      <trkpt lat="49.90258" lon="2.26474">
        <ele>29.3</ele>
        <time>2023-01-28T13:42:22Z</time>
      </trkpt>
      <trkpt lat="49.90258" lon="2.26474">
        <ele>29.3</ele>
        <time>2023-01-28T13:42:23Z</time>
      </trkpt>
      <trkpt lat="49.90258" lon="2.26474">
        <ele>29.3</ele>
        <time>2023-01-28T13:42:24Z</time>
      </trkpt>
      <trkpt lat="49.90257" lon="2.26474">
        <ele>29.4</ele>
        <time>2023-01-28T13:42:26Z</time>
      </trkpt>
      <trkpt lat="49.90257" lon="2.26474">
        <ele>29.4</ele>
        <time>2023-01-28T13:42:27Z</time>
      </trkpt>
      <trkpt lat="49.90257" lon="2.26473">
        <ele>29.4</ele>
        <time>2023-01-28T13:42:28Z</time>
      </trkpt>
      <trkpt lat="49.90258" lon="2.26473">
        <ele>29.4</ele>
        <time>2023-01-28T13:42:29Z</time>
      </trkpt>
      <trkpt lat="49.90258" lon="2.26474">
        <ele>29.4</ele>
        <time>2023-01-28T13:42:31Z</time>
      </trkpt>
      <trkpt lat="49.90258" lon="2.26475">
        <ele>29.4</ele>
        <time>2023-01-28T13:42:32Z</time>
      </trkpt>
      <trkpt lat="49.90258" lon="2.26476">
        <ele>29.4</ele>
        <time>2023-01-28T13:42:33Z</time>
      </trkpt>
      <trkpt lat="49.90258" lon="2.26478">
        <ele>29.5</ele>
        <time>2023-01-28T13:42:35Z</time>
      </trkpt>
      <trkpt lat="49.90259" lon="2.26479">
        <ele>29.5</ele>
        <time>2023-01-28T13:42:37Z</time>
      </trkpt>
      <trkpt lat="49.90259" lon="2.2648">
        <ele>29.5</ele>
        <time>2023-01-28T13:42:38Z</time>
      </trkpt>
      <trkpt lat="49.90259" lon="2.26481">
        <ele>29.5</ele>
        <time>2023-01-28T13:42:39Z</time>
      </trkpt>
      <trkpt lat="49.90258" lon="2.26482">
        <ele>29.6</ele>
        <time>2023-01-28T13:42:41Z</time>
      </trkpt>
      <trkpt lat="49.90258" lon="2.26483">
        <ele>29.6</ele>
        <time>2023-01-28T13:42:42Z</time>
      </trkpt>
      <trkpt lat="49.90259" lon="2.26484">
        <ele>29.6</ele>
        <time>2023-01-28T13:42:43Z</time>
      </trkpt>
      <trkpt lat="49.90259" lon="2.26485">
        <ele>29.6</ele>
        <time>2023-01-28T13:42:44Z</time>
      </trkpt>
      <trkpt lat="49.9026" lon="2.26487">
        <ele>29.7</ele>
        <time>2023-01-28T13:42:45Z</time>
      </trkpt>
      <trkpt lat="49.90261" lon="2.26488">
        <ele>29.7</ele>
        <time>2023-01-28T13:42:46Z</time>
      </trkpt>
      <trkpt lat="49.90263" lon="2.2649">
        <ele>29.7</ele>
        <time>2023-01-28T13:42:48Z</time>
      </trkpt>
      <trkpt lat="49.90264" lon="2.26491">
        <ele>29.8</ele>
        <time>2023-01-28T13:42:49Z</time>
      </trkpt>
      <trkpt lat="49.90265" lon="2.26493">
        <ele>29.9</ele>
        <time>2023-01-28T13:42:50Z</time>
      </trkpt>
      <trkpt lat="49.90266" lon="2.26494">
        <ele>29.9</ele>
        <time>2023-01-28T13:42:51Z</time>
      </trkpt>
      <trkpt lat="49.90267" lon="2.26497">
        <ele>29.9</ele>
        <time>2023-01-28T13:42:52Z</time>
      </trkpt>
      <trkpt lat="49.90268" lon="2.265">
        <ele>30</ele>
        <time>2023-01-28T13:42:53Z</time>
      </trkpt>
      <trkpt lat="49.90268" lon="2.26502">
        <ele>30.1</ele>
        <time>2023-01-28T13:42:55Z</time>
      </trkpt>
      <trkpt lat="49.90269" lon="2.26506">
        <ele>30.2</ele>
        <time>2023-01-28T13:42:56Z</time>
      </trkpt>
      <trkpt lat="49.9027" lon="2.26508">
        <ele>30.2</ele>
        <time>2023-01-28T13:42:57Z</time>
      </trkpt>
      <trkpt lat="49.9027" lon="2.2651">
        <ele>30.3</ele>
        <time>2023-01-28T13:42:58Z</time>
      </trkpt>
      <trkpt lat="49.90271" lon="2.26513">
        <ele>30.3</ele>
        <time>2023-01-28T13:43:00Z</time>
      </trkpt>
      <trkpt lat="49.90272" lon="2.26515">
        <ele>30.4</ele>
        <time>2023-01-28T13:43:01Z</time>
      </trkpt>
      <trkpt lat="49.90272" lon="2.26518">
        <ele>30.4</ele>
        <time>2023-01-28T13:43:02Z</time>
      </trkpt>
      <trkpt lat="49.90273" lon="2.26522">
        <ele>30.5</ele>
        <time>2023-01-28T13:43:03Z</time>
      </trkpt>
      <trkpt lat="49.90273" lon="2.26524">
        <ele>30.6</ele>
        <time>2023-01-28T13:43:04Z</time>
      </trkpt>
      <trkpt lat="49.90274" lon="2.26528">
        <ele>30.7</ele>
        <time>2023-01-28T13:43:06Z</time>
      </trkpt>
      <trkpt lat="49.90275" lon="2.26529">
        <ele>30.7</ele>
        <time>2023-01-28T13:43:07Z</time>
      </trkpt>
      <trkpt lat="49.90275" lon="2.26531">
        <ele>30.8</ele>
        <time>2023-01-28T13:43:08Z</time>
      </trkpt>
      <trkpt lat="49.90276" lon="2.26534">
        <ele>30.8</ele>
        <time>2023-01-28T13:43:09Z</time>
      </trkpt>
      <trkpt lat="49.90276" lon="2.26537">
        <ele>30.9</ele>
        <time>2023-01-28T13:43:11Z</time>
      </trkpt>
      <trkpt lat="49.90276" lon="2.26539">
        <ele>30.9</ele>
        <time>2023-01-28T13:43:12Z</time>
      </trkpt>
      <trkpt lat="49.90276" lon="2.2654">
        <ele>31</ele>
        <time>2023-01-28T13:43:13Z</time>
      </trkpt>
      <trkpt lat="49.90276" lon="2.26542">
        <ele>31</ele>
        <time>2023-01-28T13:43:14Z</time>
      </trkpt>
      <trkpt lat="49.90276" lon="2.26545">
        <ele>31.1</ele>
        <time>2023-01-28T13:43:15Z</time>
      </trkpt>
      <trkpt lat="49.90276" lon="2.26548">
        <ele>31.2</ele>
        <time>2023-01-28T13:43:17Z</time>
      </trkpt>
      <trkpt lat="49.90276" lon="2.2655">
        <ele>31.2</ele>
        <time>2023-01-28T13:43:18Z</time>
      </trkpt>
      <trkpt lat="49.90276" lon="2.26551">
        <ele>31.2</ele>
        <time>2023-01-28T13:43:19Z</time>
      </trkpt>
      <trkpt lat="49.90276" lon="2.26553">
        <ele>31.3</ele>
        <time>2023-01-28T13:43:20Z</time>
      </trkpt>
      <trkpt lat="49.90276" lon="2.26555">
        <ele>31.3</ele>
        <time>2023-01-28T13:43:21Z</time>
      </trkpt>
      <trkpt lat="49.90276" lon="2.26559">
        <ele>31.4</ele>
        <time>2023-01-28T13:43:23Z</time>
      </trkpt>
      <trkpt lat="49.90276" lon="2.2656">
        <ele>31.4</ele>
        <time>2023-01-28T13:43:24Z</time>
      </trkpt>
      <trkpt lat="49.90277" lon="2.26561">
        <ele>31.4</ele>
        <time>2023-01-28T13:43:25Z</time>
      </trkpt>
      <trkpt lat="49.90276" lon="2.26565">
        <ele>31.5</ele>
        <time>2023-01-28T13:43:26Z</time>
      </trkpt>
      <trkpt lat="49.90276" lon="2.26566">
        <ele>31.6</ele>
        <time>2023-01-28T13:43:27Z</time>
      </trkpt>
      <trkpt lat="49.90276" lon="2.26568">
        <ele>31.6</ele>
        <time>2023-01-28T13:43:29Z</time>
      </trkpt>
      <trkpt lat="49.90276" lon="2.26569">
        <ele>31.6</ele>
        <time>2023-01-28T13:43:30Z</time>
      </trkpt>
      <trkpt lat="49.90276" lon="2.2657">
        <ele>31.7</ele>
        <time>2023-01-28T13:43:31Z</time>
      </trkpt>
      <trkpt lat="49.90276" lon="2.26572">
        <ele>31.7</ele>
        <time>2023-01-28T13:43:32Z</time>
      </trkpt>
      <trkpt lat="49.90276" lon="2.26574">
        <ele>31.7</ele>
        <time>2023-01-28T13:43:33Z</time>
      </trkpt>
      <trkpt lat="49.90276" lon="2.26576">
        <ele>31.8</ele>
        <time>2023-01-28T13:43:35Z</time>
      </trkpt>
      <trkpt lat="49.90275" lon="2.26577">
        <ele>31.8</ele>
        <time>2023-01-28T13:43:36Z</time>
      </trkpt>
      <trkpt lat="49.90275" lon="2.26579">
        <ele>31.8</ele>
        <time>2023-01-28T13:43:37Z</time>
      </trkpt>
      <trkpt lat="49.90275" lon="2.26582">
        <ele>31.9</ele>
        <time>2023-01-28T13:43:38Z</time>
      </trkpt>
      <trkpt lat="49.90275" lon="2.26585">
        <ele>32</ele>
        <time>2023-01-28T13:43:39Z</time>
      </trkpt>
      <trkpt lat="49.90276" lon="2.26587">
        <ele>32</ele>
        <time>2023-01-28T13:43:40Z</time>
      </trkpt>
      <trkpt lat="49.90276" lon="2.26588">
        <ele>32</ele>
        <time>2023-01-28T13:43:42Z</time>
      </trkpt>
      <trkpt lat="49.90276" lon="2.2659">
        <ele>32.1</ele>
        <time>2023-01-28T13:43:43Z</time>
      </trkpt>
      <trkpt lat="49.90276" lon="2.26592">
        <ele>32.1</ele>
        <time>2023-01-28T13:43:44Z</time>
      </trkpt>
      <trkpt lat="49.90276" lon="2.26593">
        <ele>32.1</ele>
        <time>2023-01-28T13:43:45Z</time>
      </trkpt>
      <trkpt lat="49.90277" lon="2.26597">
        <ele>32.1</ele>
        <time>2023-01-28T13:43:46Z</time>
      </trkpt>
      <trkpt lat="49.90278" lon="2.26598">
        <ele>32.2</ele>
        <time>2023-01-28T13:43:48Z</time>
      </trkpt>
      <trkpt lat="49.90278" lon="2.266">
        <ele>32.2</ele>
        <time>2023-01-28T13:43:49Z</time>
      </trkpt>
      <trkpt lat="49.90279" lon="2.26603">
        <ele>32.2</ele>
        <time>2023-01-28T13:43:51Z</time>
      </trkpt>
      <trkpt lat="49.90279" lon="2.26604">
        <ele>32.2</ele>
        <time>2023-01-28T13:43:52Z</time>
      </trkpt>
      <trkpt lat="49.9028" lon="2.26607">
        <ele>32.3</ele>
        <time>2023-01-28T13:43:53Z</time>
      </trkpt>
      <trkpt lat="49.9028" lon="2.26608">
        <ele>32.3</ele>
        <time>2023-01-28T13:43:54Z</time>
      </trkpt>
      <trkpt lat="49.90281" lon="2.2661">
        <ele>32.3</ele>
        <time>2023-01-28T13:43:55Z</time>
      </trkpt>
      <trkpt lat="49.90281" lon="2.26612">
        <ele>32.3</ele>
        <time>2023-01-28T13:43:56Z</time>
      </trkpt>
      <trkpt lat="49.90281" lon="2.26613">
        <ele>32.4</ele>
        <time>2023-01-28T13:43:58Z</time>
      </trkpt>
      <trkpt lat="49.90282" lon="2.26615">
        <ele>32.4</ele>
        <time>2023-01-28T13:43:59Z</time>
      </trkpt>
      <trkpt lat="49.90282" lon="2.26618">
        <ele>32.4</ele>
        <time>2023-01-28T13:44:00Z</time>
      </trkpt>
      <trkpt lat="49.90283" lon="2.26619">
        <ele>32.4</ele>
        <time>2023-01-28T13:44:01Z</time>
      </trkpt>
      <trkpt lat="49.90283" lon="2.26621">
        <ele>32.5</ele>
        <time>2023-01-28T13:44:02Z</time>
      </trkpt>
      <trkpt lat="49.90283" lon="2.26623">
        <ele>32.5</ele>
        <time>2023-01-28T13:44:03Z</time>
      </trkpt>
      <trkpt lat="49.90283" lon="2.26625">
        <ele>32.5</ele>
        <time>2023-01-28T13:44:05Z</time>
      </trkpt>
      <trkpt lat="49.90283" lon="2.26626">
        <ele>32.5</ele>
        <time>2023-01-28T13:44:06Z</time>
      </trkpt>
      <trkpt lat="49.90283" lon="2.26628">
        <ele>32.6</ele>
        <time>2023-01-28T13:44:07Z</time>
      </trkpt>
      <trkpt lat="49.90284" lon="2.2663">
        <ele>32.6</ele>
        <time>2023-01-28T13:44:08Z</time>
      </trkpt>
      <trkpt lat="49.90284" lon="2.26632">
        <ele>32.6</ele>
        <time>2023-01-28T13:44:09Z</time>
      </trkpt>
      <trkpt lat="49.90284" lon="2.26633">
        <ele>32.6</ele>
        <time>2023-01-28T13:44:10Z</time>
      </trkpt>
      <trkpt lat="49.90285" lon="2.26635">
        <ele>32.6</ele>
        <time>2023-01-28T13:44:11Z</time>
      </trkpt>
      <trkpt lat="49.90285" lon="2.26637">
        <ele>32.7</ele>
        <time>2023-01-28T13:44:13Z</time>
      </trkpt>
      <trkpt lat="49.90285" lon="2.26638">
        <ele>32.7</ele>
        <time>2023-01-28T13:44:14Z</time>
      </trkpt>
      <trkpt lat="49.90284" lon="2.2664">
        <ele>32.7</ele>
        <time>2023-01-28T13:44:15Z</time>
      </trkpt>
      <trkpt lat="49.90284" lon="2.26643">
        <ele>32.8</ele>
        <time>2023-01-28T13:44:16Z</time>
      </trkpt>
      <trkpt lat="49.90284" lon="2.26645">
        <ele>32.8</ele>
        <time>2023-01-28T13:44:17Z</time>
      </trkpt>
      <trkpt lat="49.90283" lon="2.26646">
        <ele>32.8</ele>
        <time>2023-01-28T13:44:18Z</time>
      </trkpt>
      <trkpt lat="49.90283" lon="2.26649">
        <ele>32.8</ele>
        <time>2023-01-28T13:44:20Z</time>
      </trkpt>
      <trkpt lat="49.90283" lon="2.2665">
        <ele>32.8</ele>
        <time>2023-01-28T13:44:21Z</time>
      </trkpt>
      <trkpt lat="49.90282" lon="2.26651">
        <ele>32.9</ele>
        <time>2023-01-28T13:44:22Z</time>
      </trkpt>
      <trkpt lat="49.90282" lon="2.26655">
        <ele>32.9</ele>
        <time>2023-01-28T13:44:23Z</time>
      </trkpt>
      <trkpt lat="49.90282" lon="2.26656">
        <ele>32.9</ele>
        <time>2023-01-28T13:44:24Z</time>
      </trkpt>
      <trkpt lat="49.90282" lon="2.26657">
        <ele>32.9</ele>
        <time>2023-01-28T13:44:25Z</time>
      </trkpt>
      <trkpt lat="49.90282" lon="2.2666">
        <ele>32.9</ele>
        <time>2023-01-28T13:44:26Z</time>
      </trkpt>
      <trkpt lat="49.90282" lon="2.26662">
        <ele>32.9</ele>
        <time>2023-01-28T13:44:28Z</time>
      </trkpt>
      <trkpt lat="49.90282" lon="2.26663">
        <ele>32.9</ele>
        <time>2023-01-28T13:44:29Z</time>
      </trkpt>
      <trkpt lat="49.90283" lon="2.26664">
        <ele>32.9</ele>
        <time>2023-01-28T13:44:30Z</time>
      </trkpt>
      <trkpt lat="49.90284" lon="2.26667">
        <ele>32.9</ele>
        <time>2023-01-28T13:44:31Z</time>
      </trkpt>
      <trkpt lat="49.90284" lon="2.26668">
        <ele>32.9</ele>
        <time>2023-01-28T13:44:32Z</time>
      </trkpt>
      <trkpt lat="49.90285" lon="2.26669">
        <ele>32.9</ele>
        <time>2023-01-28T13:44:33Z</time>
      </trkpt>
      <trkpt lat="49.90285" lon="2.26671">
        <ele>32.9</ele>
        <time>2023-01-28T13:44:34Z</time>
      </trkpt>
      <trkpt lat="49.90286" lon="2.26673">
        <ele>32.9</ele>
        <time>2023-01-28T13:44:36Z</time>
      </trkpt>
      <trkpt lat="49.90287" lon="2.26674">
        <ele>32.9</ele>
        <time>2023-01-28T13:44:37Z</time>
      </trkpt>
      <trkpt lat="49.90287" lon="2.26676">
        <ele>32.9</ele>
        <time>2023-01-28T13:44:38Z</time>
      </trkpt>
      <trkpt lat="49.90288" lon="2.26678">
        <ele>32.9</ele>
        <time>2023-01-28T13:44:39Z</time>
      </trkpt>
      <trkpt lat="49.90288" lon="2.26679">
        <ele>32.9</ele>
        <time>2023-01-28T13:44:40Z</time>
      </trkpt>
      <trkpt lat="49.90289" lon="2.26681">
        <ele>32.9</ele>
        <time>2023-01-28T13:44:41Z</time>
      </trkpt>
      <trkpt lat="49.90289" lon="2.26682">
        <ele>32.9</ele>
        <time>2023-01-28T13:44:43Z</time>
      </trkpt>
      <trkpt lat="49.9029" lon="2.26684">
        <ele>32.9</ele>
        <time>2023-01-28T13:44:44Z</time>
      </trkpt>
      <trkpt lat="49.9029" lon="2.26685">
        <ele>32.9</ele>
        <time>2023-01-28T13:44:45Z</time>
      </trkpt>
      <trkpt lat="49.90291" lon="2.26686">
        <ele>32.9</ele>
        <time>2023-01-28T13:44:46Z</time>
      </trkpt>
      <trkpt lat="49.90291" lon="2.26688">
        <ele>32.9</ele>
        <time>2023-01-28T13:44:47Z</time>
      </trkpt>
      <trkpt lat="49.90292" lon="2.26689">
        <ele>32.9</ele>
        <time>2023-01-28T13:44:48Z</time>
      </trkpt>
      <trkpt lat="49.90293" lon="2.2669">
        <ele>32.9</ele>
        <time>2023-01-28T13:44:49Z</time>
      </trkpt>
      <trkpt lat="49.90293" lon="2.26691">
        <ele>32.9</ele>
        <time>2023-01-28T13:44:51Z</time>
      </trkpt>
      <trkpt lat="49.90294" lon="2.26693">
        <ele>32.9</ele>
        <time>2023-01-28T13:44:52Z</time>
      </trkpt>
      <trkpt lat="49.90295" lon="2.26696">
        <ele>32.9</ele>
        <time>2023-01-28T13:44:53Z</time>
      </trkpt>
      <trkpt lat="49.90295" lon="2.26697">
        <ele>32.9</ele>
        <time>2023-01-28T13:44:54Z</time>
      </trkpt>
      <trkpt lat="49.90295" lon="2.26698">
        <ele>32.9</ele>
        <time>2023-01-28T13:44:55Z</time>
      </trkpt>
      <trkpt lat="49.90295" lon="2.267">
        <ele>32.9</ele>
        <time>2023-01-28T13:44:57Z</time>
      </trkpt>
      <trkpt lat="49.90296" lon="2.26701">
        <ele>32.9</ele>
        <time>2023-01-28T13:44:58Z</time>
      </trkpt>
      <trkpt lat="49.90297" lon="2.26703">
        <ele>32.9</ele>
        <time>2023-01-28T13:44:59Z</time>
      </trkpt>
      <trkpt lat="49.90298" lon="2.26706">
        <ele>32.9</ele>
        <time>2023-01-28T13:45:00Z</time>
      </trkpt>
      <trkpt lat="49.90298" lon="2.26707">
        <ele>32.9</ele>
        <time>2023-01-28T13:45:01Z</time>
      </trkpt>
      <trkpt lat="49.90299" lon="2.26708">
        <ele>32.9</ele>
        <time>2023-01-28T13:45:02Z</time>
      </trkpt>
      <trkpt lat="49.90299" lon="2.26709">
        <ele>32.9</ele>
        <time>2023-01-28T13:45:04Z</time>
      </trkpt>
      <trkpt lat="49.903" lon="2.2671">
        <ele>32.9</ele>
        <time>2023-01-28T13:45:05Z</time>
      </trkpt>
      <trkpt lat="49.90301" lon="2.26711">
        <ele>32.9</ele>
        <time>2023-01-28T13:45:06Z</time>
      </trkpt>
      <trkpt lat="49.90301" lon="2.26713">
        <ele>32.9</ele>
        <time>2023-01-28T13:45:07Z</time>
      </trkpt>
      <trkpt lat="49.90302" lon="2.26714">
        <ele>32.9</ele>
        <time>2023-01-28T13:45:08Z</time>
      </trkpt>
      <trkpt lat="49.90303" lon="2.26716">
        <ele>32.9</ele>
        <time>2023-01-28T13:45:09Z</time>
      </trkpt>
      <trkpt lat="49.90303" lon="2.26719">
        <ele>32.9</ele>
        <time>2023-01-28T13:45:11Z</time>
      </trkpt>
      <trkpt lat="49.90303" lon="2.2672">
        <ele>32.9</ele>
        <time>2023-01-28T13:45:12Z</time>
      </trkpt>
      <trkpt lat="49.90303" lon="2.26721">
        <ele>32.9</ele>
        <time>2023-01-28T13:45:13Z</time>
      </trkpt>
      <trkpt lat="49.90304" lon="2.26724">
        <ele>32.9</ele>
        <time>2023-01-28T13:45:15Z</time>
      </trkpt>
      <trkpt lat="49.90304" lon="2.26724">
        <ele>32.9</ele>
        <time>2023-01-28T13:45:16Z</time>
      </trkpt>
      <trkpt lat="49.90305" lon="2.26723">
        <ele>32.9</ele>
        <time>2023-01-28T13:45:18Z</time>
      </trkpt>
      <trkpt lat="49.90306" lon="2.26722">
        <ele>32.9</ele>
        <time>2023-01-28T13:45:19Z</time>
      </trkpt>
      <trkpt lat="49.90306" lon="2.26721">
        <ele>32.9</ele>
        <time>2023-01-28T13:45:20Z</time>
      </trkpt>
      <trkpt lat="49.90306" lon="2.2672">
        <ele>32.9</ele>
        <time>2023-01-28T13:45:22Z</time>
      </trkpt>
      <trkpt lat="49.90306" lon="2.26719">
        <ele>32.9</ele>
        <time>2023-01-28T13:45:23Z</time>
      </trkpt>
      <trkpt lat="49.90306" lon="2.26718">
        <ele>32.9</ele>
        <time>2023-01-28T13:45:24Z</time>
      </trkpt>
      <trkpt lat="49.90305" lon="2.26716">
        <ele>32.8</ele>
        <time>2023-01-28T13:45:26Z</time>
      </trkpt>
      <trkpt lat="49.90305" lon="2.26715">
        <ele>32.8</ele>
        <time>2023-01-28T13:45:27Z</time>
      </trkpt>
      <trkpt lat="49.90305" lon="2.26714">
        <ele>32.8</ele>
        <time>2023-01-28T13:45:29Z</time>
      </trkpt>
      <trkpt lat="49.90305" lon="2.26714">
        <ele>32.8</ele>
        <time>2023-01-28T13:45:30Z</time>
      </trkpt>
      <trkpt lat="49.90305" lon="2.26714">
        <ele>32.8</ele>
        <time>2023-01-28T13:45:31Z</time>
      </trkpt>
      <trkpt lat="49.90305" lon="2.26713">
        <ele>32.8</ele>
        <time>2023-01-28T13:45:33Z</time>
      </trkpt>
      <trkpt lat="49.90305" lon="2.26713">
        <ele>32.8</ele>
        <time>2023-01-28T13:45:34Z</time>
      </trkpt>
      <trkpt lat="49.90305" lon="2.26713">
        <ele>32.8</ele>
        <time>2023-01-28T13:45:36Z</time>
      </trkpt>
      <trkpt lat="49.90305" lon="2.26713">
        <ele>32.8</ele>
        <time>2023-01-28T13:45:37Z</time>
      </trkpt>
      <trkpt lat="49.90305" lon="2.26713">
        <ele>32.8</ele>
        <time>2023-01-28T13:45:38Z</time>
      </trkpt>
      <trkpt lat="49.90305" lon="2.26713">
        <ele>32.8</ele>
        <time>2023-01-28T13:45:39Z</time>
      </trkpt>
      <trkpt lat="49.90305" lon="2.26713">
        <ele>32.8</ele>
        <time>2023-01-28T13:45:40Z</time>
      </trkpt>
      <trkpt lat="49.90305" lon="2.26713">
        <ele>32.8</ele>
        <time>2023-01-28T13:45:41Z</time>
      </trkpt>
      <trkpt lat="49.90305" lon="2.26713">
        <ele>32.8</ele>
        <time>2023-01-28T13:45:42Z</time>
      </trkpt>
      <trkpt lat="49.90305" lon="2.26713">
        <ele>32.8</ele>
        <time>2023-01-28T13:45:43Z</time>
      </trkpt>
      <trkpt lat="49.90305" lon="2.26713">
        <ele>32.8</ele>
        <time>2023-01-28T13:45:44Z</time>
      </trkpt>
      <trkpt lat="49.90305" lon="2.26713">
        <ele>32.8</ele>
        <time>2023-01-28T13:45:45Z</time>
      </trkpt>
      <trkpt lat="49.90305" lon="2.26713">
        <ele>32.8</ele>
        <time>2023-01-28T13:45:46Z</time>
      </trkpt>
      <trkpt lat="49.90305" lon="2.26713">
        <ele>32.8</ele>
        <time>2023-01-28T13:45:47Z</time>
      </trkpt>
      <trkpt lat="49.90305" lon="2.26713">
        <ele>32.8</ele>
        <time>2023-01-28T13:45:48Z</time>
      </trkpt>
      <trkpt lat="49.90305" lon="2.26713">
        <ele>32.8</ele>
        <time>2023-01-28T13:45:49Z</time>
      </trkpt>
      <trkpt lat="49.90305" lon="2.26713">
        <ele>32.8</ele>
        <time>2023-01-28T13:45:50Z</time>
      </trkpt>
      <trkpt lat="49.90305" lon="2.26713">
        <ele>32.8</ele>
        <time>2023-01-28T13:45:51Z</time>
      </trkpt>
      <trkpt lat="49.90305" lon="2.26713">
        <ele>32.8</ele>
        <time>2023-01-28T13:45:52Z</time>
      </trkpt>
      <trkpt lat="49.90305" lon="2.26713">
        <ele>32.8</ele>
        <time>2023-01-28T13:45:53Z</time>
      </trkpt>
      <trkpt lat="49.90305" lon="2.26713">
        <ele>32.8</ele>
        <time>2023-01-28T13:45:54Z</time>
      </trkpt>
      <trkpt lat="49.90305" lon="2.26713">
        <ele>32.8</ele>
        <time>2023-01-28T13:45:55Z</time>
      </trkpt>
      <trkpt lat="49.90305" lon="2.26713">
        <ele>32.8</ele>
        <time>2023-01-28T13:45:56Z</time>
      </trkpt>
      <trkpt lat="49.90305" lon="2.26713">
        <ele>32.8</ele>
        <time>2023-01-28T13:45:57Z</time>
      </trkpt>
      <trkpt lat="49.90305" lon="2.26713">
        <ele>32.8</ele>
        <time>2023-01-28T13:45:58Z</time>
      </trkpt>
      <trkpt lat="49.90305" lon="2.26713">
        <ele>32.8</ele>
        <time>2023-01-28T13:45:59Z</time>
      </trkpt>
      <trkpt lat="49.90305" lon="2.26713">
        <ele>32.8</ele>
        <time>2023-01-28T13:46:00Z</time>
      </trkpt>
      <trkpt lat="49.90305" lon="2.26713">
        <ele>32.8</ele>
        <time>2023-01-28T13:46:01Z</time>
      </trkpt>
      <trkpt lat="49.90305" lon="2.26713">
        <ele>32.8</ele>
        <time>2023-01-28T13:46:02Z</time>
      </trkpt>
      <trkpt lat="49.90305" lon="2.26713">
        <ele>32.8</ele>
        <time>2023-01-28T13:46:03Z</time>
      </trkpt>
      <trkpt lat="49.90305" lon="2.26713">
        <ele>32.8</ele>
        <time>2023-01-28T13:46:04Z</time>
      </trkpt>
      <trkpt lat="49.90305" lon="2.26713">
        <ele>32.8</ele>
        <time>2023-01-28T13:46:05Z</time>
      </trkpt>
      <trkpt lat="49.90305" lon="2.26713">
        <ele>32.8</ele>
        <time>2023-01-28T13:46:06Z</time>
      </trkpt>
      <trkpt lat="49.90304" lon="2.26715">
        <ele>32.8</ele>
        <time>2023-01-28T13:46:07Z</time>
      </trkpt>
      <trkpt lat="49.90302" lon="2.26718">
        <ele>32.8</ele>
        <time>2023-01-28T13:46:08Z</time>
      </trkpt>
      <trkpt lat="49.90302" lon="2.26718">
        <ele>32.8</ele>
        <time>2023-01-28T13:46:09Z</time>
      </trkpt>
      <trkpt lat="49.90302" lon="2.26718">
        <ele>32.8</ele>
        <time>2023-01-28T13:46:10Z</time>
      </trkpt>
      <trkpt lat="49.90302" lon="2.26719">
        <ele>32.8</ele>
        <time>2023-01-28T13:46:11Z</time>
      </trkpt>
      <trkpt lat="49.90301" lon="2.26719">
        <ele>32.8</ele>
        <time>2023-01-28T13:46:12Z</time>
      </trkpt>
      <trkpt lat="49.903" lon="2.2672">
        <ele>32.8</ele>
        <time>2023-01-28T13:46:13Z</time>
      </trkpt>
      <trkpt lat="49.90299" lon="2.26721">
        <ele>32.8</ele>
        <time>2023-01-28T13:46:14Z</time>
      </trkpt>
      <trkpt lat="49.90298" lon="2.26722">
        <ele>32.8</ele>
        <time>2023-01-28T13:46:15Z</time>
      </trkpt>
      <trkpt lat="49.90297" lon="2.26724">
        <ele>32.8</ele>
        <time>2023-01-28T13:46:17Z</time>
      </trkpt>
      <trkpt lat="49.90294" lon="2.26728">
        <ele>32.6</ele>
        <time>2023-01-28T13:46:18Z</time>
      </trkpt>
      <trkpt lat="49.90294" lon="2.26729">
        <ele>32.6</ele>
        <time>2023-01-28T13:46:19Z</time>
      </trkpt>
      <trkpt lat="49.90291" lon="2.26733">
        <ele>32.4</ele>
        <time>2023-01-28T13:46:20Z</time>
      </trkpt>
      <trkpt lat="49.90291" lon="2.26735">
        <ele>32.4</ele>
        <time>2023-01-28T13:46:21Z</time>
      </trkpt>
      <trkpt lat="49.90289" lon="2.26739">
        <ele>32.2</ele>
        <time>2023-01-28T13:46:22Z</time>
      </trkpt>
      <trkpt lat="49.90288" lon="2.2674">
        <ele>32.2</ele>
        <time>2023-01-28T13:46:23Z</time>
      </trkpt>
      <trkpt lat="49.90286" lon="2.26743">
        <ele>32.1</ele>
        <time>2023-01-28T13:46:25Z</time>
      </trkpt>
      <trkpt lat="49.90286" lon="2.26744">
        <ele>32</ele>
        <time>2023-01-28T13:46:26Z</time>
      </trkpt>
      <trkpt lat="49.90284" lon="2.26746">
        <ele>31.9</ele>
        <time>2023-01-28T13:46:27Z</time>
      </trkpt>
      <trkpt lat="49.90283" lon="2.26748">
        <ele>31.9</ele>
        <time>2023-01-28T13:46:28Z</time>
      </trkpt>
      <trkpt lat="49.90282" lon="2.2675">
        <ele>31.8</ele>
        <time>2023-01-28T13:46:29Z</time>
      </trkpt>
      <trkpt lat="49.90282" lon="2.26752">
        <ele>31.7</ele>
        <time>2023-01-28T13:46:30Z</time>
      </trkpt>
      <trkpt lat="49.90281" lon="2.26754">
        <ele>31.6</ele>
        <time>2023-01-28T13:46:31Z</time>
      </trkpt>
      <trkpt lat="49.9028" lon="2.26756">
        <ele>31.6</ele>
        <time>2023-01-28T13:46:32Z</time>
      </trkpt>
      <trkpt lat="49.90279" lon="2.26758">
        <ele>31.5</ele>
        <time>2023-01-28T13:46:34Z</time>
      </trkpt>
      <trkpt lat="49.90278" lon="2.2676">
        <ele>31.4</ele>
        <time>2023-01-28T13:46:35Z</time>
      </trkpt>
      <trkpt lat="49.90277" lon="2.26762">
        <ele>31.3</ele>
        <time>2023-01-28T13:46:36Z</time>
      </trkpt>
      <trkpt lat="49.90276" lon="2.26763">
        <ele>31.3</ele>
        <time>2023-01-28T13:46:37Z</time>
      </trkpt>
      <trkpt lat="49.90276" lon="2.26764">
        <ele>31.3</ele>
        <time>2023-01-28T13:46:38Z</time>
      </trkpt>
      <trkpt lat="49.90275" lon="2.26766">
        <ele>31.2</ele>
        <time>2023-01-28T13:46:39Z</time>
      </trkpt>
      <trkpt lat="49.90274" lon="2.26767">
        <ele>31.1</ele>
        <time>2023-01-28T13:46:40Z</time>
      </trkpt>
      <trkpt lat="49.90273" lon="2.26768">
        <ele>31.1</ele>
        <time>2023-01-28T13:46:41Z</time>
      </trkpt>
      <trkpt lat="49.90272" lon="2.26769">
        <ele>31</ele>
        <time>2023-01-28T13:46:42Z</time>
      </trkpt>
      <trkpt lat="49.90271" lon="2.2677">
        <ele>31</ele>
        <time>2023-01-28T13:46:43Z</time>
      </trkpt>
      <trkpt lat="49.90269" lon="2.26771">
        <ele>30.9</ele>
        <time>2023-01-28T13:46:45Z</time>
      </trkpt>
      <trkpt lat="49.90268" lon="2.26771">
        <ele>30.9</ele>
        <time>2023-01-28T13:46:46Z</time>
      </trkpt>
      <trkpt lat="49.90267" lon="2.26771">
        <ele>30.4</ele>
        <time>2023-01-28T13:46:47Z</time>
      </trkpt>
      <trkpt lat="49.90266" lon="2.26771">
        <ele>30.3</ele>
        <time>2023-01-28T13:46:49Z</time>
      </trkpt>
      <trkpt lat="49.90265" lon="2.26771">
        <ele>30.2</ele>
        <time>2023-01-28T13:46:51Z</time>
      </trkpt>
      <trkpt lat="49.90264" lon="2.26771">
        <ele>30.2</ele>
        <time>2023-01-28T13:46:53Z</time>
      </trkpt>
      <trkpt lat="49.90264" lon="2.2677">
        <ele>30.2</ele>
        <time>2023-01-28T13:46:54Z</time>
      </trkpt>
      <trkpt lat="49.90264" lon="2.2677">
        <ele>30.2</ele>
        <time>2023-01-28T13:46:55Z</time>
      </trkpt>
      <trkpt lat="49.90264" lon="2.26771">
        <ele>30.1</ele>
        <time>2023-01-28T13:46:56Z</time>
      </trkpt>
      <trkpt lat="49.90264" lon="2.26771">
        <ele>30.1</ele>
        <time>2023-01-28T13:46:57Z</time>
      </trkpt>
      <trkpt lat="49.90263" lon="2.26772">
        <ele>30.1</ele>
        <time>2023-01-28T13:46:59Z</time>
      </trkpt>
      <trkpt lat="49.90263" lon="2.26772">
        <ele>30.1</ele>
        <time>2023-01-28T13:47:01Z</time>
      </trkpt>
      <trkpt lat="49.90263" lon="2.26772">
        <ele>30.1</ele>
        <time>2023-01-28T13:47:02Z</time>
      </trkpt>
      <trkpt lat="49.90263" lon="2.26772">
        <ele>30.1</ele>
        <time>2023-01-28T13:47:04Z</time>
      </trkpt>
      <trkpt lat="49.90263" lon="2.26772">
        <ele>30.1</ele>
        <time>2023-01-28T13:47:05Z</time>
      </trkpt>
      <trkpt lat="49.90263" lon="2.26772">
        <ele>30</ele>
        <time>2023-01-28T13:47:06Z</time>
      </trkpt>
      <trkpt lat="49.90263" lon="2.26772">
        <ele>30</ele>
        <time>2023-01-28T13:47:07Z</time>
      </trkpt>
      <trkpt lat="49.90263" lon="2.26772">
        <ele>30</ele>
        <time>2023-01-28T13:47:09Z</time>
      </trkpt>
      <trkpt lat="49.90263" lon="2.26772">
        <ele>30</ele>
        <time>2023-01-28T13:47:10Z</time>
      </trkpt>
      <trkpt lat="49.90262" lon="2.26771">
        <ele>30</ele>
        <time>2023-01-28T13:47:11Z</time>
      </trkpt>
      <trkpt lat="49.90261" lon="2.26769">
        <ele>29.9</ele>
        <time>2023-01-28T13:47:12Z</time>
      </trkpt>
      <trkpt lat="49.9026" lon="2.26767">
        <ele>29.8</ele>
        <time>2023-01-28T13:47:13Z</time>
      </trkpt>
      <trkpt lat="49.9026" lon="2.26766">
        <ele>29.8</ele>
        <time>2023-01-28T13:47:14Z</time>
      </trkpt>
      <trkpt lat="49.9026" lon="2.26764">
        <ele>29.7</ele>
        <time>2023-01-28T13:47:15Z</time>
      </trkpt>
      <trkpt lat="49.90259" lon="2.26762">
        <ele>29.7</ele>
        <time>2023-01-28T13:47:16Z</time>
      </trkpt>
      <trkpt lat="49.90259" lon="2.2676">
        <ele>29.6</ele>
        <time>2023-01-28T13:47:17Z</time>
      </trkpt>
      <trkpt lat="49.90259" lon="2.26758">
        <ele>29.5</ele>
        <time>2023-01-28T13:47:18Z</time>
      </trkpt>
      <trkpt lat="49.90258" lon="2.26756">
        <ele>29.5</ele>
        <time>2023-01-28T13:47:20Z</time>
      </trkpt>
      <trkpt lat="49.90258" lon="2.26755">
        <ele>29.4</ele>
        <time>2023-01-28T13:47:21Z</time>
      </trkpt>
      <trkpt lat="49.90257" lon="2.26753">
        <ele>29.4</ele>
        <time>2023-01-28T13:47:22Z</time>
      </trkpt>
      <trkpt lat="49.90257" lon="2.26751">
        <ele>29.3</ele>
        <time>2023-01-28T13:47:23Z</time>
      </trkpt>
      <trkpt lat="49.90256" lon="2.2675">
        <ele>29.3</ele>
        <time>2023-01-28T13:47:24Z</time>
      </trkpt>
      <trkpt lat="49.90256" lon="2.26749">
        <ele>29.2</ele>
        <time>2023-01-28T13:47:25Z</time>
      </trkpt>
      <trkpt lat="49.90255" lon="2.26747">
        <ele>29.2</ele>
        <time>2023-01-28T13:47:26Z</time>
      </trkpt>
      <trkpt lat="49.90254" lon="2.26746">
        <ele>29.2</ele>
        <time>2023-01-28T13:47:28Z</time>
      </trkpt>
      <trkpt lat="49.90254" lon="2.26745">
        <ele>29.1</ele>
        <time>2023-01-28T13:47:29Z</time>
      </trkpt>
      <trkpt lat="49.90253" lon="2.26744">
        <ele>29.1</ele>
        <time>2023-01-28T13:47:30Z</time>
      </trkpt>
      <trkpt lat="49.90252" lon="2.26743">
        <ele>29</ele>
        <time>2023-01-28T13:47:31Z</time>
      </trkpt>
      <trkpt lat="49.9025" lon="2.26741">
        <ele>28.9</ele>
        <time>2023-01-28T13:47:32Z</time>
      </trkpt>
      <trkpt lat="49.9025" lon="2.2674">
        <ele>28.9</ele>
        <time>2023-01-28T13:47:33Z</time>
      </trkpt>
      <trkpt lat="49.90249" lon="2.26738">
        <ele>28.9</ele>
        <time>2023-01-28T13:47:34Z</time>
      </trkpt>
      <trkpt lat="49.90249" lon="2.26738">
        <ele>28.9</ele>
        <time>2023-01-28T13:47:35Z</time>
      </trkpt>
      <trkpt lat="49.90248" lon="2.26737">
        <ele>28.8</ele>
        <time>2023-01-28T13:47:36Z</time>
      </trkpt>
      <trkpt lat="49.90248" lon="2.26736">
        <ele>28.8</ele>
        <time>2023-01-28T13:47:38Z</time>
      </trkpt>
      <trkpt lat="49.90247" lon="2.26735">
        <ele>28.8</ele>
        <time>2023-01-28T13:47:39Z</time>
      </trkpt>
      <trkpt lat="49.90247" lon="2.26733">
        <ele>28.7</ele>
        <time>2023-01-28T13:47:40Z</time>
      </trkpt>
      <trkpt lat="49.90246" lon="2.26732">
        <ele>28.7</ele>
        <time>2023-01-28T13:47:41Z</time>
      </trkpt>
      <trkpt lat="49.90246" lon="2.26731">
        <ele>28.7</ele>
        <time>2023-01-28T13:47:42Z</time>
      </trkpt>
      <trkpt lat="49.90245" lon="2.2673">
        <ele>28.6</ele>
        <time>2023-01-28T13:47:43Z</time>
      </trkpt>
      <trkpt lat="49.90245" lon="2.26728">
        <ele>28.6</ele>
        <time>2023-01-28T13:47:44Z</time>
      </trkpt>
      <trkpt lat="49.90244" lon="2.26727">
        <ele>28.6</ele>
        <time>2023-01-28T13:47:45Z</time>
      </trkpt>
      <trkpt lat="49.90244" lon="2.26725">
        <ele>28.5</ele>
        <time>2023-01-28T13:47:46Z</time>
      </trkpt>
      <trkpt lat="49.90244" lon="2.26724">
        <ele>28.5</ele>
        <time>2023-01-28T13:47:48Z</time>
      </trkpt>
      <trkpt lat="49.90244" lon="2.26722">
        <ele>28.5</ele>
        <time>2023-01-28T13:47:49Z</time>
      </trkpt>
      <trkpt lat="49.90244" lon="2.26721">
        <ele>28.4</ele>
        <time>2023-01-28T13:47:50Z</time>
      </trkpt>
      <trkpt lat="49.90244" lon="2.26719">
        <ele>28.4</ele>
        <time>2023-01-28T13:47:51Z</time>
      </trkpt>
      <trkpt lat="49.90244" lon="2.26717">
        <ele>28.4</ele>
        <time>2023-01-28T13:47:52Z</time>
      </trkpt>
      <trkpt lat="49.90244" lon="2.26714">
        <ele>28.3</ele>
        <time>2023-01-28T13:47:53Z</time>
      </trkpt>
      <trkpt lat="49.90244" lon="2.26712">
        <ele>28.3</ele>
        <time>2023-01-28T13:47:54Z</time>
      </trkpt>
      <trkpt lat="49.90244" lon="2.26711">
        <ele>28.2</ele>
        <time>2023-01-28T13:47:55Z</time>
      </trkpt>
      <trkpt lat="49.90244" lon="2.26709">
        <ele>28.2</ele>
        <time>2023-01-28T13:47:57Z</time>
      </trkpt>
      <trkpt lat="49.90244" lon="2.26708">
        <ele>28.2</ele>
        <time>2023-01-28T13:47:58Z</time>
      </trkpt>
      <trkpt lat="49.90243" lon="2.26706">
        <ele>28.1</ele>
        <time>2023-01-28T13:47:59Z</time>
      </trkpt>
      <trkpt lat="49.90243" lon="2.26704">
        <ele>28.1</ele>
        <time>2023-01-28T13:48:00Z</time>
      </trkpt>
      <trkpt lat="49.90243" lon="2.26702">
        <ele>28.1</ele>
        <time>2023-01-28T13:48:01Z</time>
      </trkpt>
      <trkpt lat="49.90242" lon="2.267">
        <ele>28</ele>
        <time>2023-01-28T13:48:02Z</time>
      </trkpt>
      <trkpt lat="49.90242" lon="2.26698">
        <ele>28</ele>
        <time>2023-01-28T13:48:03Z</time>
      </trkpt>
      <trkpt lat="49.90241" lon="2.26695">
        <ele>28</ele>
        <time>2023-01-28T13:48:04Z</time>
      </trkpt>
      <trkpt lat="49.90241" lon="2.26693">
        <ele>27.9</ele>
        <time>2023-01-28T13:48:06Z</time>
      </trkpt>
      <trkpt lat="49.90241" lon="2.26692">
        <ele>27.9</ele>
        <time>2023-01-28T13:48:07Z</time>
      </trkpt>
      <trkpt lat="49.9024" lon="2.26691">
        <ele>27.9</ele>
        <time>2023-01-28T13:48:08Z</time>
      </trkpt>
      <trkpt lat="49.9024" lon="2.26689">
        <ele>27.8</ele>
        <time>2023-01-28T13:48:09Z</time>
      </trkpt>
      <trkpt lat="49.9024" lon="2.26687">
        <ele>27.8</ele>
        <time>2023-01-28T13:48:10Z</time>
      </trkpt>
      <trkpt lat="49.90239" lon="2.26685">
        <ele>27.8</ele>
        <time>2023-01-28T13:48:11Z</time>
      </trkpt>
      <trkpt lat="49.90239" lon="2.26683">
        <ele>27.8</ele>
        <time>2023-01-28T13:48:12Z</time>
      </trkpt>
      <trkpt lat="49.90238" lon="2.26682">
        <ele>27.8</ele>
        <time>2023-01-28T13:48:14Z</time>
      </trkpt>
      <trkpt lat="49.90238" lon="2.2668">
        <ele>27.7</ele>
        <time>2023-01-28T13:48:15Z</time>
      </trkpt>
      <trkpt lat="49.90237" lon="2.26678">
        <ele>27.7</ele>
        <time>2023-01-28T13:48:16Z</time>
      </trkpt>
      <trkpt lat="49.90237" lon="2.26677">
        <ele>27.7</ele>
        <time>2023-01-28T13:48:17Z</time>
      </trkpt>
      <trkpt lat="49.90236" lon="2.26673">
        <ele>27.6</ele>
        <time>2023-01-28T13:48:19Z</time>
      </trkpt>
      <trkpt lat="49.90236" lon="2.26672">
        <ele>27.6</ele>
        <time>2023-01-28T13:48:20Z</time>
      </trkpt>
      <trkpt lat="49.90236" lon="2.26671">
        <ele>27.6</ele>
        <time>2023-01-28T13:48:21Z</time>
      </trkpt>
      <trkpt lat="49.90236" lon="2.26668">
        <ele>27.6</ele>
        <time>2023-01-28T13:48:22Z</time>
      </trkpt>
      <trkpt lat="49.90235" lon="2.26666">
        <ele>27.6</ele>
        <time>2023-01-28T13:48:23Z</time>
      </trkpt>
      <trkpt lat="49.90235" lon="2.26665">
        <ele>27.6</ele>
        <time>2023-01-28T13:48:24Z</time>
      </trkpt>
      <trkpt lat="49.90235" lon="2.26662">
        <ele>27.5</ele>
        <time>2023-01-28T13:48:26Z</time>
      </trkpt>
      <trkpt lat="49.90235" lon="2.2666">
        <ele>27.5</ele>
        <time>2023-01-28T13:48:27Z</time>
      </trkpt>
      <trkpt lat="49.90235" lon="2.26659">
        <ele>27.5</ele>
        <time>2023-01-28T13:48:28Z</time>
      </trkpt>
      <trkpt lat="49.90235" lon="2.26657">
        <ele>27.5</ele>
        <time>2023-01-28T13:48:29Z</time>
      </trkpt>
      <trkpt lat="49.90235" lon="2.26655">
        <ele>27.5</ele>
        <time>2023-01-28T13:48:30Z</time>
      </trkpt>
      <trkpt lat="49.90235" lon="2.26651">
        <ele>27.5</ele>
        <time>2023-01-28T13:48:31Z</time>
      </trkpt>
      <trkpt lat="49.90235" lon="2.2665">
        <ele>27.5</ele>
        <time>2023-01-28T13:48:33Z</time>
      </trkpt>
      <trkpt lat="49.90235" lon="2.26649">
        <ele>27.5</ele>
        <time>2023-01-28T13:48:34Z</time>
      </trkpt>
      <trkpt lat="49.90235" lon="2.26646">
        <ele>27.4</ele>
        <time>2023-01-28T13:48:35Z</time>
      </trkpt>
      <trkpt lat="49.90235" lon="2.26644">
        <ele>27.4</ele>
        <time>2023-01-28T13:48:36Z</time>
      </trkpt>
      <trkpt lat="49.90235" lon="2.26643">
        <ele>27.4</ele>
        <time>2023-01-28T13:48:37Z</time>
      </trkpt>
      <trkpt lat="49.90235" lon="2.26642">
        <ele>27.4</ele>
        <time>2023-01-28T13:48:39Z</time>
      </trkpt>
      <trkpt lat="49.90235" lon="2.26641">
        <ele>27.4</ele>
        <time>2023-01-28T13:48:40Z</time>
      </trkpt>
      <trkpt lat="49.90234" lon="2.2664">
        <ele>27.4</ele>
        <time>2023-01-28T13:48:41Z</time>
      </trkpt>
      <trkpt lat="49.90233" lon="2.26639">
        <ele>27.4</ele>
        <time>2023-01-28T13:48:42Z</time>
      </trkpt>
      <trkpt lat="49.90232" lon="2.26639">
        <ele>27.4</ele>
        <time>2023-01-28T13:48:44Z</time>
      </trkpt>
      <trkpt lat="49.90231" lon="2.26639">
        <ele>27.4</ele>
        <time>2023-01-28T13:48:46Z</time>
      </trkpt>
      <trkpt lat="49.90231" lon="2.2664">
        <ele>27.4</ele>
        <time>2023-01-28T13:48:47Z</time>
      </trkpt>
      <trkpt lat="49.90231" lon="2.2664">
        <ele>27.4</ele>
        <time>2023-01-28T13:48:48Z</time>
      </trkpt>
      <trkpt lat="49.9023" lon="2.2664">
        <ele>27.4</ele>
        <time>2023-01-28T13:48:49Z</time>
      </trkpt>
      <trkpt lat="49.9023" lon="2.2664">
        <ele>27.4</ele>
        <time>2023-01-28T13:48:50Z</time>
      </trkpt>
      <trkpt lat="49.9023" lon="2.2664">
        <ele>27.4</ele>
        <time>2023-01-28T13:48:52Z</time>
      </trkpt>
      <trkpt lat="49.90229" lon="2.26641">
        <ele>27.4</ele>
        <time>2023-01-28T13:48:54Z</time>
      </trkpt>
      <trkpt lat="49.90229" lon="2.26642">
        <ele>27.3</ele>
        <time>2023-01-28T13:48:55Z</time>
      </trkpt>
      <trkpt lat="49.90229" lon="2.26641">
        <ele>27.3</ele>
        <time>2023-01-28T13:48:56Z</time>
      </trkpt>
      <trkpt lat="49.90229" lon="2.2664">
        <ele>27.3</ele>
        <time>2023-01-28T13:48:57Z</time>
      </trkpt>
      <trkpt lat="49.90231" lon="2.26638">
        <ele>27.3</ele>
        <time>2023-01-28T13:48:59Z</time>
      </trkpt>
      <trkpt lat="49.90232" lon="2.26637">
        <ele>27.3</ele>
        <time>2023-01-28T13:49:00Z</time>
      </trkpt>
      <trkpt lat="49.90232" lon="2.26635">
        <ele>27.3</ele>
        <time>2023-01-28T13:49:01Z</time>
      </trkpt>
      <trkpt lat="49.90234" lon="2.26633">
        <ele>27.3</ele>
        <time>2023-01-28T13:49:02Z</time>
      </trkpt>
      <trkpt lat="49.90234" lon="2.26632">
        <ele>27.3</ele>
        <time>2023-01-28T13:49:04Z</time>
      </trkpt>
      <trkpt lat="49.90235" lon="2.2663">
        <ele>27.3</ele>
        <time>2023-01-28T13:49:05Z</time>
      </trkpt>
      <trkpt lat="49.90236" lon="2.26628">
        <ele>27.3</ele>
        <time>2023-01-28T13:49:06Z</time>
      </trkpt>
      <trkpt lat="49.90236" lon="2.26626">
        <ele>27.2</ele>
        <time>2023-01-28T13:49:07Z</time>
      </trkpt>
      <trkpt lat="49.90236" lon="2.26624">
        <ele>27.2</ele>
        <time>2023-01-28T13:49:09Z</time>
      </trkpt>
      <trkpt lat="49.90237" lon="2.26623">
        <ele>27.2</ele>
        <time>2023-01-28T13:49:10Z</time>
      </trkpt>
      <trkpt lat="49.90237" lon="2.2662">
        <ele>27.2</ele>
        <time>2023-01-28T13:49:11Z</time>
      </trkpt>
      <trkpt lat="49.90237" lon="2.26619">
        <ele>27.2</ele>
        <time>2023-01-28T13:49:12Z</time>
      </trkpt>
      <trkpt lat="49.90237" lon="2.26619">
        <ele>27.2</ele>
        <time>2023-01-28T13:49:14Z</time>
      </trkpt>
      <trkpt lat="49.90237" lon="2.26618">
        <ele>27.2</ele>
        <time>2023-01-28T13:49:15Z</time>
      </trkpt>
      <trkpt lat="49.90236" lon="2.26617">
        <ele>27.2</ele>
        <time>2023-01-28T13:49:16Z</time>
      </trkpt>
      <trkpt lat="49.90236" lon="2.26617">
        <ele>27.2</ele>
        <time>2023-01-28T13:49:18Z</time>
      </trkpt>
      <trkpt lat="49.90236" lon="2.26616">
        <ele>27.2</ele>
        <time>2023-01-28T13:49:19Z</time>
      </trkpt>
      <trkpt lat="49.90236" lon="2.26616">
        <ele>27.2</ele>
        <time>2023-01-28T13:49:21Z</time>
      </trkpt>
      <trkpt lat="49.90236" lon="2.26615">
        <ele>27.2</ele>
        <time>2023-01-28T13:49:22Z</time>
      </trkpt>
      <trkpt lat="49.90236" lon="2.26614">
        <ele>27.2</ele>
        <time>2023-01-28T13:49:24Z</time>
      </trkpt>
      <trkpt lat="49.90236" lon="2.26614">
        <ele>27.2</ele>
        <time>2023-01-28T13:49:25Z</time>
      </trkpt>
      <trkpt lat="49.90236" lon="2.26613">
        <ele>27.2</ele>
        <time>2023-01-28T13:49:27Z</time>
      </trkpt>
      <trkpt lat="49.90236" lon="2.26613">
        <ele>27.2</ele>
        <time>2023-01-28T13:49:28Z</time>
      </trkpt>
      <trkpt lat="49.90236" lon="2.26612">
        <ele>27.2</ele>
        <time>2023-01-28T13:49:29Z</time>
      </trkpt>
      <trkpt lat="49.90236" lon="2.26611">
        <ele>27.2</ele>
        <time>2023-01-28T13:49:31Z</time>
      </trkpt>
      <trkpt lat="49.90236" lon="2.26611">
        <ele>27.2</ele>
        <time>2023-01-28T13:49:32Z</time>
      </trkpt>
      <trkpt lat="49.90235" lon="2.2661">
        <ele>27.2</ele>
        <time>2023-01-28T13:49:33Z</time>
      </trkpt>
      <trkpt lat="49.90235" lon="2.2661">
        <ele>27.2</ele>
        <time>2023-01-28T13:49:35Z</time>
      </trkpt>
      <trkpt lat="49.90235" lon="2.26609">
        <ele>27.2</ele>
        <time>2023-01-28T13:49:36Z</time>
      </trkpt>
      <trkpt lat="49.90235" lon="2.26608">
        <ele>27.2</ele>
        <time>2023-01-28T13:49:37Z</time>
      </trkpt>
      <trkpt lat="49.90235" lon="2.26608">
        <ele>27.2</ele>
        <time>2023-01-28T13:49:38Z</time>
      </trkpt>
      <trkpt lat="49.90235" lon="2.26606">
        <ele>27.2</ele>
        <time>2023-01-28T13:49:39Z</time>
      </trkpt>
      <trkpt lat="49.90235" lon="2.26604">
        <ele>27.2</ele>
        <time>2023-01-28T13:49:41Z</time>
      </trkpt>
      <trkpt lat="49.90234" lon="2.26603">
        <ele>27.1</ele>
        <time>2023-01-28T13:49:42Z</time>
      </trkpt>
      <trkpt lat="49.90234" lon="2.26601">
        <ele>27.1</ele>
        <time>2023-01-28T13:49:43Z</time>
      </trkpt>
      <trkpt lat="49.90233" lon="2.26599">
        <ele>27.1</ele>
        <time>2023-01-28T13:49:44Z</time>
      </trkpt>
      <trkpt lat="49.90233" lon="2.26597">
        <ele>27.1</ele>
        <time>2023-01-28T13:49:46Z</time>
      </trkpt>
      <trkpt lat="49.90233" lon="2.26595">
        <ele>27.1</ele>
        <time>2023-01-28T13:49:47Z</time>
      </trkpt>
      <trkpt lat="49.90232" lon="2.26594">
        <ele>27.1</ele>
        <time>2023-01-28T13:49:48Z</time>
      </trkpt>
      <trkpt lat="49.90232" lon="2.26592">
        <ele>27.1</ele>
        <time>2023-01-28T13:49:49Z</time>
      </trkpt>
      <trkpt lat="49.90231" lon="2.26589">
        <ele>27.1</ele>
        <time>2023-01-28T13:49:50Z</time>
      </trkpt>
      <trkpt lat="49.90231" lon="2.26586">
        <ele>27.1</ele>
        <time>2023-01-28T13:49:51Z</time>
      </trkpt>
      <trkpt lat="49.90231" lon="2.26585">
        <ele>27.1</ele>
        <time>2023-01-28T13:49:53Z</time>
      </trkpt>
      <trkpt lat="49.9023" lon="2.26584">
        <ele>27.1</ele>
        <time>2023-01-28T13:49:54Z</time>
      </trkpt>
      <trkpt lat="49.9023" lon="2.26583">
        <ele>27.1</ele>
        <time>2023-01-28T13:49:55Z</time>
      </trkpt>
      <trkpt lat="49.90231" lon="2.26582">
        <ele>27.1</ele>
        <time>2023-01-28T13:49:56Z</time>
      </trkpt>
      <trkpt lat="49.9023" lon="2.26582">
        <ele>27.1</ele>
        <time>2023-01-28T13:49:57Z</time>
      </trkpt>
      <trkpt lat="49.9023" lon="2.2658">
        <ele>27.1</ele>
        <time>2023-01-28T13:49:58Z</time>
      </trkpt>
      <trkpt lat="49.9023" lon="2.26579">
        <ele>27</ele>
        <time>2023-01-28T13:49:59Z</time>
      </trkpt>
      <trkpt lat="49.90229" lon="2.26577">
        <ele>27</ele>
        <time>2023-01-28T13:50:01Z</time>
      </trkpt>
      <trkpt lat="49.90229" lon="2.26575">
        <ele>27</ele>
        <time>2023-01-28T13:50:02Z</time>
      </trkpt>
      <trkpt lat="49.90228" lon="2.26574">
        <ele>27</ele>
        <time>2023-01-28T13:50:03Z</time>
      </trkpt>
      <trkpt lat="49.90228" lon="2.26573">
        <ele>27</ele>
        <time>2023-01-28T13:50:04Z</time>
      </trkpt>
      <trkpt lat="49.90228" lon="2.26571">
        <ele>27</ele>
        <time>2023-01-28T13:50:05Z</time>
      </trkpt>
      <trkpt lat="49.90227" lon="2.26569">
        <ele>27</ele>
        <time>2023-01-28T13:50:06Z</time>
      </trkpt>
      <trkpt lat="49.90227" lon="2.26568">
        <ele>27</ele>
        <time>2023-01-28T13:50:07Z</time>
      </trkpt>
      <trkpt lat="49.90227" lon="2.26566">
        <ele>27</ele>
        <time>2023-01-28T13:50:09Z</time>
      </trkpt>
      <trkpt lat="49.90226" lon="2.26564">
        <ele>27</ele>
        <time>2023-01-28T13:50:10Z</time>
      </trkpt>
      <trkpt lat="49.90226" lon="2.26562">
        <ele>27</ele>
        <time>2023-01-28T13:50:11Z</time>
      </trkpt>
      <trkpt lat="49.90226" lon="2.2656">
        <ele>27</ele>
        <time>2023-01-28T13:50:12Z</time>
      </trkpt>
      <trkpt lat="49.90225" lon="2.26557">
        <ele>27</ele>
        <time>2023-01-28T13:50:13Z</time>
      </trkpt>
      <trkpt lat="49.90225" lon="2.26556">
        <ele>27</ele>
        <time>2023-01-28T13:50:14Z</time>
      </trkpt>
      <trkpt lat="49.90224" lon="2.26553">
        <ele>27</ele>
        <time>2023-01-28T13:50:15Z</time>
      </trkpt>
      <trkpt lat="49.90223" lon="2.26551">
        <ele>27</ele>
        <time>2023-01-28T13:50:16Z</time>
      </trkpt>
      <trkpt lat="49.90223" lon="2.26549">
        <ele>27</ele>
        <time>2023-01-28T13:50:18Z</time>
      </trkpt>
      <trkpt lat="49.90222" lon="2.26547">
        <ele>27</ele>
        <time>2023-01-28T13:50:19Z</time>
      </trkpt>
      <trkpt lat="49.90221" lon="2.26545">
        <ele>27</ele>
        <time>2023-01-28T13:50:20Z</time>
      </trkpt>
      <trkpt lat="49.9022" lon="2.26544">
        <ele>27</ele>
        <time>2023-01-28T13:50:21Z</time>
      </trkpt>
      <trkpt lat="49.90219" lon="2.26541">
        <ele>26.9</ele>
        <time>2023-01-28T13:50:22Z</time>
      </trkpt>
      <trkpt lat="49.90219" lon="2.2654">
        <ele>26.9</ele>
        <time>2023-01-28T13:50:23Z</time>
      </trkpt>
      <trkpt lat="49.90218" lon="2.26539">
        <ele>26.9</ele>
        <time>2023-01-28T13:50:24Z</time>
      </trkpt>
      <trkpt lat="49.90217" lon="2.26537">
        <ele>26.9</ele>
        <time>2023-01-28T13:50:25Z</time>
      </trkpt>
      <trkpt lat="49.90216" lon="2.26536">
        <ele>26.9</ele>
        <time>2023-01-28T13:50:27Z</time>
      </trkpt>
      <trkpt lat="49.90216" lon="2.26535">
        <ele>26.9</ele>
        <time>2023-01-28T13:50:28Z</time>
      </trkpt>
      <trkpt lat="49.90214" lon="2.26532">
        <ele>26.9</ele>
        <time>2023-01-28T13:50:29Z</time>
      </trkpt>
      <trkpt lat="49.90214" lon="2.26531">
        <ele>26.9</ele>
        <time>2023-01-28T13:50:30Z</time>
      </trkpt>
      <trkpt lat="49.90213" lon="2.2653">
        <ele>26.9</ele>
        <time>2023-01-28T13:50:31Z</time>
      </trkpt>
      <trkpt lat="49.90212" lon="2.26529">
        <ele>26.9</ele>
        <time>2023-01-28T13:50:32Z</time>
      </trkpt>
      <trkpt lat="49.90211" lon="2.26528">
        <ele>26.9</ele>
        <time>2023-01-28T13:50:33Z</time>
      </trkpt>
      <trkpt lat="49.9021" lon="2.26527">
        <ele>26.9</ele>
        <time>2023-01-28T13:50:34Z</time>
      </trkpt>
      <trkpt lat="49.9021" lon="2.26526">
        <ele>26.9</ele>
        <time>2023-01-28T13:50:36Z</time>
      </trkpt>
      <trkpt lat="49.90208" lon="2.26524">
        <ele>26.9</ele>
        <time>2023-01-28T13:50:37Z</time>
      </trkpt>
      <trkpt lat="49.90207" lon="2.26522">
        <ele>26.9</ele>
        <time>2023-01-28T13:50:38Z</time>
      </trkpt>
      <trkpt lat="49.90206" lon="2.26522">
        <ele>26.9</ele>
        <time>2023-01-28T13:50:39Z</time>
      </trkpt>
      <trkpt lat="49.90205" lon="2.26521">
        <ele>26.9</ele>
        <time>2023-01-28T13:50:40Z</time>
      </trkpt>
      <trkpt lat="49.90204" lon="2.26519">
        <ele>26.9</ele>
        <time>2023-01-28T13:50:41Z</time>
      </trkpt>
      <trkpt lat="49.90203" lon="2.26518">
        <ele>27</ele>
        <time>2023-01-28T13:50:42Z</time>
      </trkpt>
      <trkpt lat="49.90202" lon="2.26517">
        <ele>27</ele>
        <time>2023-01-28T13:50:43Z</time>
      </trkpt>
      <trkpt lat="49.90201" lon="2.26514">
        <ele>27</ele>
        <time>2023-01-28T13:50:44Z</time>
      </trkpt>
      <trkpt lat="49.902" lon="2.26513">
        <ele>27</ele>
        <time>2023-01-28T13:50:46Z</time>
      </trkpt>
      <trkpt lat="49.902" lon="2.26512">
        <ele>27</ele>
        <time>2023-01-28T13:50:47Z</time>
      </trkpt>
      <trkpt lat="49.90199" lon="2.26511">
        <ele>27</ele>
        <time>2023-01-28T13:50:48Z</time>
      </trkpt>
      <trkpt lat="49.90198" lon="2.2651">
        <ele>27</ele>
        <time>2023-01-28T13:50:49Z</time>
      </trkpt>
      <trkpt lat="49.90196" lon="2.26509">
        <ele>27</ele>
        <time>2023-01-28T13:50:51Z</time>
      </trkpt>
      <trkpt lat="49.90196" lon="2.26509">
        <ele>27</ele>
        <time>2023-01-28T13:50:52Z</time>
      </trkpt>
      <trkpt lat="49.90195" lon="2.2651">
        <ele>27</ele>
        <time>2023-01-28T13:50:53Z</time>
      </trkpt>
      <trkpt lat="49.90194" lon="2.2651">
        <ele>27</ele>
        <time>2023-01-28T13:50:55Z</time>
      </trkpt>
      <trkpt lat="49.90194" lon="2.2651">
        <ele>27</ele>
        <time>2023-01-28T13:50:56Z</time>
      </trkpt>
      <trkpt lat="49.90194" lon="2.2651">
        <ele>27</ele>
        <time>2023-01-28T13:50:58Z</time>
      </trkpt>
      <trkpt lat="49.90194" lon="2.2651">
        <ele>27</ele>
        <time>2023-01-28T13:50:59Z</time>
      </trkpt>
      <trkpt lat="49.90194" lon="2.2651">
        <ele>27</ele>
        <time>2023-01-28T13:51:01Z</time>
      </trkpt>
      <trkpt lat="49.90194" lon="2.2651">
        <ele>27</ele>
        <time>2023-01-28T13:51:02Z</time>
      </trkpt>
      <trkpt lat="49.90194" lon="2.26511">
        <ele>27</ele>
        <time>2023-01-28T13:51:03Z</time>
      </trkpt>
      <trkpt lat="49.90194" lon="2.2651">
        <ele>27</ele>
        <time>2023-01-28T13:51:05Z</time>
      </trkpt>
      <trkpt lat="49.90194" lon="2.2651">
        <ele>27</ele>
        <time>2023-01-28T13:51:06Z</time>
      </trkpt>
      <trkpt lat="49.90194" lon="2.2651">
        <ele>27</ele>
        <time>2023-01-28T13:51:08Z</time>
      </trkpt>
      <trkpt lat="49.90194" lon="2.2651">
        <ele>27</ele>
        <time>2023-01-28T13:51:09Z</time>
      </trkpt>
      <trkpt lat="49.90195" lon="2.26511">
        <ele>27</ele>
        <time>2023-01-28T13:51:10Z</time>
      </trkpt>
      <trkpt lat="49.90195" lon="2.26511">
        <ele>27</ele>
        <time>2023-01-28T13:51:11Z</time>
      </trkpt>
      <trkpt lat="49.90195" lon="2.26511">
        <ele>27</ele>
        <time>2023-01-28T13:51:12Z</time>
      </trkpt>
      <trkpt lat="49.90195" lon="2.26511">
        <ele>27</ele>
        <time>2023-01-28T13:51:13Z</time>
      </trkpt>
      <trkpt lat="49.90195" lon="2.26511">
        <ele>27</ele>
        <time>2023-01-28T13:51:14Z</time>
      </trkpt>
      <trkpt lat="49.90195" lon="2.26511">
        <ele>27</ele>
        <time>2023-01-28T13:51:15Z</time>
      </trkpt>
      <trkpt lat="49.90194" lon="2.2651">
        <ele>27</ele>
        <time>2023-01-28T13:51:16Z</time>
      </trkpt>
      <trkpt lat="49.90194" lon="2.2651">
        <ele>27</ele>
        <time>2023-01-28T13:51:17Z</time>
      </trkpt>
      <trkpt lat="49.90194" lon="2.26509">
        <ele>27</ele>
        <time>2023-01-28T13:51:19Z</time>
      </trkpt>
      <trkpt lat="49.90193" lon="2.26508">
        <ele>27</ele>
        <time>2023-01-28T13:51:20Z</time>
      </trkpt>
      <trkpt lat="49.90193" lon="2.26507">
        <ele>27</ele>
        <time>2023-01-28T13:51:21Z</time>
      </trkpt>
      <trkpt lat="49.90192" lon="2.26506">
        <ele>27</ele>
        <time>2023-01-28T13:51:22Z</time>
      </trkpt>
      <trkpt lat="49.90191" lon="2.26506">
        <ele>27</ele>
        <time>2023-01-28T13:51:24Z</time>
      </trkpt>
      <trkpt lat="49.9019" lon="2.26505">
        <ele>27</ele>
        <time>2023-01-28T13:51:25Z</time>
      </trkpt>
      <trkpt lat="49.90189" lon="2.26503">
        <ele>27</ele>
        <time>2023-01-28T13:51:26Z</time>
      </trkpt>
      <trkpt lat="49.90188" lon="2.26501">
        <ele>27</ele>
        <time>2023-01-28T13:51:27Z</time>
      </trkpt>
      <trkpt lat="49.90187" lon="2.265">
        <ele>27</ele>
        <time>2023-01-28T13:51:28Z</time>
      </trkpt>
      <trkpt lat="49.90187" lon="2.26499">
        <ele>27.1</ele>
        <time>2023-01-28T13:51:29Z</time>
      </trkpt>
      <trkpt lat="49.90186" lon="2.26497">
        <ele>27.1</ele>
        <time>2023-01-28T13:51:31Z</time>
      </trkpt>
      <trkpt lat="49.90185" lon="2.26496">
        <ele>27.1</ele>
        <time>2023-01-28T13:51:33Z</time>
      </trkpt>
      <trkpt lat="49.90184" lon="2.26494">
        <ele>27.1</ele>
        <time>2023-01-28T13:51:34Z</time>
      </trkpt>
      <trkpt lat="49.90184" lon="2.26493">
        <ele>27.1</ele>
        <time>2023-01-28T13:51:35Z</time>
      </trkpt>
      <trkpt lat="49.90183" lon="2.26492">
        <ele>27.1</ele>
        <time>2023-01-28T13:51:36Z</time>
      </trkpt>
      <trkpt lat="49.90182" lon="2.26491">
        <ele>27.1</ele>
        <time>2023-01-28T13:51:37Z</time>
      </trkpt>
      <trkpt lat="49.90181" lon="2.26491">
        <ele>27.1</ele>
        <time>2023-01-28T13:51:39Z</time>
      </trkpt>
      <trkpt lat="49.9018" lon="2.2649">
        <ele>27.2</ele>
        <time>2023-01-28T13:51:40Z</time>
      </trkpt>
      <trkpt lat="49.90178" lon="2.26489">
        <ele>27.2</ele>
        <time>2023-01-28T13:51:41Z</time>
      </trkpt>
      <trkpt lat="49.90178" lon="2.26488">
        <ele>27.2</ele>
        <time>2023-01-28T13:51:42Z</time>
      </trkpt>
      <trkpt lat="49.90177" lon="2.26487">
        <ele>27.2</ele>
        <time>2023-01-28T13:51:43Z</time>
      </trkpt>
      <trkpt lat="49.90175" lon="2.26485">
        <ele>27.3</ele>
        <time>2023-01-28T13:51:45Z</time>
      </trkpt>
      <trkpt lat="49.90174" lon="2.26485">
        <ele>27.3</ele>
        <time>2023-01-28T13:51:46Z</time>
      </trkpt>
      <trkpt lat="49.90174" lon="2.26484">
        <ele>27.3</ele>
        <time>2023-01-28T13:51:47Z</time>
      </trkpt>
      <trkpt lat="49.90172" lon="2.26483">
        <ele>27.3</ele>
        <time>2023-01-28T13:51:49Z</time>
      </trkpt>
      <trkpt lat="49.90171" lon="2.26482">
        <ele>27.4</ele>
        <time>2023-01-28T13:51:51Z</time>
      </trkpt>
      <trkpt lat="49.90171" lon="2.26481">
        <ele>27.4</ele>
        <time>2023-01-28T13:51:52Z</time>
      </trkpt>
      <trkpt lat="49.90171" lon="2.26481">
        <ele>27.4</ele>
        <time>2023-01-28T13:51:53Z</time>
      </trkpt>
      <trkpt lat="49.90171" lon="2.26482">
        <ele>27.4</ele>
        <time>2023-01-28T13:51:55Z</time>
      </trkpt>
      <trkpt lat="49.90171" lon="2.26482">
        <ele>27.4</ele>
        <time>2023-01-28T13:51:56Z</time>
      </trkpt>
      <trkpt lat="49.90171" lon="2.26482">
        <ele>27.4</ele>
        <time>2023-01-28T13:51:58Z</time>
      </trkpt>
      <trkpt lat="49.90171" lon="2.26482">
        <ele>27.4</ele>
        <time>2023-01-28T13:51:59Z</time>
      </trkpt>
      <trkpt lat="49.90171" lon="2.26482">
        <ele>27.4</ele>
        <time>2023-01-28T13:52:01Z</time>
      </trkpt>
      <trkpt lat="49.90171" lon="2.26482">
        <ele>27.4</ele>
        <time>2023-01-28T13:52:02Z</time>
      </trkpt>
      <trkpt lat="49.90171" lon="2.26482">
        <ele>27.4</ele>
        <time>2023-01-28T13:52:03Z</time>
      </trkpt>
      <trkpt lat="49.90171" lon="2.26482">
        <ele>27.4</ele>
        <time>2023-01-28T13:52:05Z</time>
      </trkpt>
      <trkpt lat="49.90171" lon="2.26483">
        <ele>27.4</ele>
        <time>2023-01-28T13:52:07Z</time>
      </trkpt>
      <trkpt lat="49.90172" lon="2.26484">
        <ele>27.4</ele>
        <time>2023-01-28T13:52:09Z</time>
      </trkpt>
      <trkpt lat="49.90172" lon="2.26485">
        <ele>27.5</ele>
        <time>2023-01-28T13:52:10Z</time>
      </trkpt>
      <trkpt lat="49.90173" lon="2.26485">
        <ele>27.5</ele>
        <time>2023-01-28T13:52:11Z</time>
      </trkpt>
      <trkpt lat="49.90173" lon="2.26485">
        <ele>27.5</ele>
        <time>2023-01-28T13:52:12Z</time>
      </trkpt>
      <trkpt lat="49.90173" lon="2.26485">
        <ele>27.5</ele>
        <time>2023-01-28T13:52:13Z</time>
      </trkpt>
      <trkpt lat="49.90173" lon="2.26485">
        <ele>27.5</ele>
        <time>2023-01-28T13:52:14Z</time>
      </trkpt>
      <trkpt lat="49.90173" lon="2.26485">
        <ele>27.5</ele>
        <time>2023-01-28T13:52:15Z</time>
      </trkpt>
      <trkpt lat="49.90172" lon="2.26484">
        <ele>27.5</ele>
        <time>2023-01-28T13:52:16Z</time>
      </trkpt>
      <trkpt lat="49.90172" lon="2.26483">
        <ele>27.5</ele>
        <time>2023-01-28T13:52:17Z</time>
      </trkpt>
      <trkpt lat="49.90172" lon="2.26483">
        <ele>27.5</ele>
        <time>2023-01-28T13:52:19Z</time>
      </trkpt>
      <trkpt lat="49.90171" lon="2.26482">
        <ele>27.5</ele>
        <time>2023-01-28T13:52:20Z</time>
      </trkpt>
      <trkpt lat="49.9017" lon="2.26482">
        <ele>27.6</ele>
        <time>2023-01-28T13:52:21Z</time>
      </trkpt>
      <trkpt lat="49.90169" lon="2.26481">
        <ele>27.6</ele>
        <time>2023-01-28T13:52:22Z</time>
      </trkpt>
      <trkpt lat="49.90168" lon="2.26481">
        <ele>27.6</ele>
        <time>2023-01-28T13:52:23Z</time>
      </trkpt>
      <trkpt lat="49.90167" lon="2.2648">
        <ele>27.7</ele>
        <time>2023-01-28T13:52:24Z</time>
      </trkpt>
      <trkpt lat="49.90166" lon="2.26479">
        <ele>27.7</ele>
        <time>2023-01-28T13:52:25Z</time>
      </trkpt>
      <trkpt lat="49.90165" lon="2.26478">
        <ele>27.7</ele>
        <time>2023-01-28T13:52:27Z</time>
      </trkpt>
      <trkpt lat="49.90164" lon="2.26477">
        <ele>27.8</ele>
        <time>2023-01-28T13:52:28Z</time>
      </trkpt>
      <trkpt lat="49.90162" lon="2.26476">
        <ele>27.9</ele>
        <time>2023-01-28T13:52:29Z</time>
      </trkpt>
      <trkpt lat="49.90161" lon="2.26476">
        <ele>27.9</ele>
        <time>2023-01-28T13:52:30Z</time>
      </trkpt>
      <trkpt lat="49.9016" lon="2.26475">
        <ele>27.9</ele>
        <time>2023-01-28T13:52:31Z</time>
      </trkpt>
      <trkpt lat="49.90159" lon="2.26475">
        <ele>28</ele>
        <time>2023-01-28T13:52:32Z</time>
      </trkpt>
      <trkpt lat="49.90158" lon="2.26474">
        <ele>28</ele>
        <time>2023-01-28T13:52:33Z</time>
      </trkpt>
      <trkpt lat="49.90157" lon="2.26474">
        <ele>28.1</ele>
        <time>2023-01-28T13:52:35Z</time>
      </trkpt>
      <trkpt lat="49.90156" lon="2.26473">
        <ele>28.1</ele>
        <time>2023-01-28T13:52:36Z</time>
      </trkpt>
      <trkpt lat="49.90155" lon="2.26472">
        <ele>28.1</ele>
        <time>2023-01-28T13:52:37Z</time>
      </trkpt>
      <trkpt lat="49.90154" lon="2.26471">
        <ele>28.2</ele>
        <time>2023-01-28T13:52:38Z</time>
      </trkpt>
      <trkpt lat="49.90154" lon="2.2647">
        <ele>28.2</ele>
        <time>2023-01-28T13:52:39Z</time>
      </trkpt>
      <trkpt lat="49.90153" lon="2.26469">
        <ele>28.3</ele>
        <time>2023-01-28T13:52:40Z</time>
      </trkpt>
      <trkpt lat="49.90153" lon="2.26468">
        <ele>28.3</ele>
        <time>2023-01-28T13:52:42Z</time>
      </trkpt>
      <trkpt lat="49.90152" lon="2.26467">
        <ele>28.3</ele>
        <time>2023-01-28T13:52:43Z</time>
      </trkpt>
      <trkpt lat="49.90151" lon="2.26466">
        <ele>28.4</ele>
        <time>2023-01-28T13:52:44Z</time>
      </trkpt>
      <trkpt lat="49.90151" lon="2.26465">
        <ele>28.4</ele>
        <time>2023-01-28T13:52:45Z</time>
      </trkpt>
      <trkpt lat="49.9015" lon="2.26465">
        <ele>28.4</ele>
        <time>2023-01-28T13:52:46Z</time>
      </trkpt>
      <trkpt lat="49.9015" lon="2.26464">
        <ele>28.5</ele>
        <time>2023-01-28T13:52:47Z</time>
      </trkpt>
      <trkpt lat="49.90149" lon="2.26464">
        <ele>28.5</ele>
        <time>2023-01-28T13:52:49Z</time>
      </trkpt>
      <trkpt lat="49.90148" lon="2.26463">
        <ele>28.5</ele>
        <time>2023-01-28T13:52:50Z</time>
      </trkpt>
      <trkpt lat="49.90147" lon="2.26463">
        <ele>28.6</ele>
        <time>2023-01-28T13:52:51Z</time>
      </trkpt>
      <trkpt lat="49.90146" lon="2.26462">
        <ele>28.6</ele>
        <time>2023-01-28T13:52:52Z</time>
      </trkpt>
      <trkpt lat="49.90145" lon="2.26462">
        <ele>28.7</ele>
        <time>2023-01-28T13:52:53Z</time>
      </trkpt>
      <trkpt lat="49.90143" lon="2.26461">
        <ele>28.8</ele>
        <time>2023-01-28T13:52:55Z</time>
      </trkpt>
      <trkpt lat="49.90141" lon="2.26461">
        <ele>28.9</ele>
        <time>2023-01-28T13:52:56Z</time>
      </trkpt>
      <trkpt lat="49.9014" lon="2.26461">
        <ele>28.9</ele>
        <time>2023-01-28T13:52:58Z</time>
      </trkpt>
      <trkpt lat="49.90138" lon="2.2646">
        <ele>29</ele>
        <time>2023-01-28T13:52:59Z</time>
      </trkpt>
      <trkpt lat="49.90137" lon="2.2646">
        <ele>29.1</ele>
        <time>2023-01-28T13:53:00Z</time>
      </trkpt>
      <trkpt lat="49.90136" lon="2.26458">
        <ele>29.2</ele>
        <time>2023-01-28T13:53:01Z</time>
      </trkpt>
      <trkpt lat="49.90133" lon="2.26456">
        <ele>29.3</ele>
        <time>2023-01-28T13:53:03Z</time>
      </trkpt>
      <trkpt lat="49.90132" lon="2.26454">
        <ele>29.4</ele>
        <time>2023-01-28T13:53:04Z</time>
      </trkpt>
      <trkpt lat="49.90131" lon="2.26453">
        <ele>29.5</ele>
        <time>2023-01-28T13:53:06Z</time>
      </trkpt>
      <trkpt lat="49.90129" lon="2.26452">
        <ele>29.6</ele>
        <time>2023-01-28T13:53:07Z</time>
      </trkpt>
      <trkpt lat="49.90128" lon="2.26451">
        <ele>29.6</ele>
        <time>2023-01-28T13:53:08Z</time>
      </trkpt>
      <trkpt lat="49.90127" lon="2.26449">
        <ele>29.7</ele>
        <time>2023-01-28T13:53:09Z</time>
      </trkpt>
      <trkpt lat="49.90126" lon="2.26448">
        <ele>29.7</ele>
        <time>2023-01-28T13:53:10Z</time>
      </trkpt>
      <trkpt lat="49.90125" lon="2.26447">
        <ele>29.8</ele>
        <time>2023-01-28T13:53:12Z</time>
      </trkpt>
      <trkpt lat="49.90123" lon="2.26446">
        <ele>29.8</ele>
        <time>2023-01-28T13:53:13Z</time>
      </trkpt>
      <trkpt lat="49.90122" lon="2.26445">
        <ele>29.9</ele>
        <time>2023-01-28T13:53:14Z</time>
      </trkpt>
      <trkpt lat="49.90121" lon="2.26444">
        <ele>29.9</ele>
        <time>2023-01-28T13:53:15Z</time>
      </trkpt>
      <trkpt lat="49.9012" lon="2.26443">
        <ele>29.9</ele>
        <time>2023-01-28T13:53:17Z</time>
      </trkpt>
      <trkpt lat="49.90118" lon="2.26442">
        <ele>30</ele>
        <time>2023-01-28T13:53:18Z</time>
      </trkpt>
      <trkpt lat="49.90117" lon="2.26442">
        <ele>30</ele>
        <time>2023-01-28T13:53:19Z</time>
      </trkpt>
      <trkpt lat="49.90116" lon="2.26441">
        <ele>30.1</ele>
        <time>2023-01-28T13:53:20Z</time>
      </trkpt>
      <trkpt lat="49.90115" lon="2.26441">
        <ele>30.1</ele>
        <time>2023-01-28T13:53:21Z</time>
      </trkpt>
      <trkpt lat="49.90114" lon="2.2644">
        <ele>30.2</ele>
        <time>2023-01-28T13:53:22Z</time>
      </trkpt>
      <trkpt lat="49.90113" lon="2.2644">
        <ele>30.2</ele>
        <time>2023-01-28T13:53:23Z</time>
      </trkpt>
      <trkpt lat="49.90112" lon="2.26439">
        <ele>30.2</ele>
        <time>2023-01-28T13:53:25Z</time>
      </trkpt>
      <trkpt lat="49.90111" lon="2.26438">
        <ele>30.3</ele>
        <time>2023-01-28T13:53:26Z</time>
      </trkpt>
      <trkpt lat="49.9011" lon="2.26437">
        <ele>30.3</ele>
        <time>2023-01-28T13:53:27Z</time>
      </trkpt>
      <trkpt lat="49.90109" lon="2.26437">
        <ele>30.4</ele>
        <time>2023-01-28T13:53:29Z</time>
      </trkpt>
      <trkpt lat="49.90109" lon="2.26437">
        <ele>30.4</ele>
        <time>2023-01-28T13:53:30Z</time>
      </trkpt>
      <trkpt lat="49.90108" lon="2.26438">
        <ele>30.3</ele>
        <time>2023-01-28T13:53:32Z</time>
      </trkpt>
      <trkpt lat="49.90107" lon="2.26438">
        <ele>30.3</ele>
        <time>2023-01-28T13:53:33Z</time>
      </trkpt>
      <trkpt lat="49.90106" lon="2.26439">
        <ele>30.3</ele>
        <time>2023-01-28T13:53:35Z</time>
      </trkpt>
      <trkpt lat="49.90106" lon="2.2644">
        <ele>30.3</ele>
        <time>2023-01-28T13:53:36Z</time>
      </trkpt>
      <trkpt lat="49.90106" lon="2.26441">
        <ele>30.3</ele>
        <time>2023-01-28T13:53:38Z</time>
      </trkpt>
      <trkpt lat="49.90106" lon="2.26441">
        <ele>30.2</ele>
        <time>2023-01-28T13:53:39Z</time>
      </trkpt>
      <trkpt lat="49.90106" lon="2.26441">
        <ele>30.2</ele>
        <time>2023-01-28T13:53:40Z</time>
      </trkpt>
      <trkpt lat="49.90107" lon="2.26441">
        <ele>30.2</ele>
        <time>2023-01-28T13:53:42Z</time>
      </trkpt>
      <trkpt lat="49.90107" lon="2.26441">
        <ele>30.2</ele>
        <time>2023-01-28T13:53:43Z</time>
      </trkpt>
      <trkpt lat="49.90107" lon="2.26441">
        <ele>30.2</ele>
        <time>2023-01-28T13:53:45Z</time>
      </trkpt>
      <trkpt lat="49.90107" lon="2.26442">
        <ele>30.2</ele>
        <time>2023-01-28T13:53:46Z</time>
      </trkpt>
      <trkpt lat="49.90107" lon="2.26442">
        <ele>30.2</ele>
        <time>2023-01-28T13:53:47Z</time>
      </trkpt>
      <trkpt lat="49.90107" lon="2.26442">
        <ele>30.2</ele>
        <time>2023-01-28T13:53:49Z</time>
      </trkpt>
      <trkpt lat="49.90107" lon="2.26441">
        <ele>30.2</ele>
        <time>2023-01-28T13:53:50Z</time>
      </trkpt>
      <trkpt lat="49.90108" lon="2.26441">
        <ele>30.2</ele>
        <time>2023-01-28T13:53:51Z</time>
      </trkpt>
      <trkpt lat="49.90108" lon="2.26441">
        <ele>30.2</ele>
        <time>2023-01-28T13:53:52Z</time>
      </trkpt>
      <trkpt lat="49.90108" lon="2.26441">
        <ele>30.2</ele>
        <time>2023-01-28T13:53:53Z</time>
      </trkpt>
      <trkpt lat="49.90108" lon="2.26441">
        <ele>30.2</ele>
        <time>2023-01-28T13:53:54Z</time>
      </trkpt>
      <trkpt lat="49.90108" lon="2.26441">
        <ele>30.2</ele>
        <time>2023-01-28T13:53:55Z</time>
      </trkpt>
      <trkpt lat="49.90108" lon="2.26441">
        <ele>30.2</ele>
        <time>2023-01-28T13:53:56Z</time>
      </trkpt>
      <trkpt lat="49.90108" lon="2.26441">
        <ele>30.2</ele>
        <time>2023-01-28T13:53:57Z</time>
      </trkpt>
      <trkpt lat="49.90108" lon="2.26441">
        <ele>30.2</ele>
        <time>2023-01-28T13:53:58Z</time>
      </trkpt>
      <trkpt lat="49.90108" lon="2.26441">
        <ele>30.2</ele>
        <time>2023-01-28T13:53:59Z</time>
      </trkpt>
      <trkpt lat="49.90108" lon="2.26441">
        <ele>30.2</ele>
        <time>2023-01-28T13:54:00Z</time>
      </trkpt>
      <trkpt lat="49.90108" lon="2.26441">
        <ele>30.2</ele>
        <time>2023-01-28T13:54:01Z</time>
      </trkpt>
      <trkpt lat="49.90108" lon="2.26441">
        <ele>30.2</ele>
        <time>2023-01-28T13:54:02Z</time>
      </trkpt>
      <trkpt lat="49.90108" lon="2.26441">
        <ele>30.2</ele>
        <time>2023-01-28T13:54:03Z</time>
      </trkpt>
      <trkpt lat="49.90108" lon="2.26441">
        <ele>30.2</ele>
        <time>2023-01-28T13:54:04Z</time>
      </trkpt>
      <trkpt lat="49.90108" lon="2.26441">
        <ele>30.2</ele>
        <time>2023-01-28T13:54:05Z</time>
      </trkpt>
      <trkpt lat="49.90108" lon="2.26441">
        <ele>30.2</ele>
        <time>2023-01-28T13:54:06Z</time>
      </trkpt>
      <trkpt lat="49.90108" lon="2.26441">
        <ele>30.2</ele>
        <time>2023-01-28T13:54:07Z</time>
      </trkpt>
      <trkpt lat="49.90108" lon="2.26441">
        <ele>30.2</ele>
        <time>2023-01-28T13:54:08Z</time>
      </trkpt>
      <trkpt lat="49.90108" lon="2.26441">
        <ele>30.2</ele>
        <time>2023-01-28T13:54:09Z</time>
      </trkpt>
      <trkpt lat="49.90109" lon="2.2644">
        <ele>30.1</ele>
        <time>2023-01-28T13:54:10Z</time>
      </trkpt>
      <trkpt lat="49.9011" lon="2.26438">
        <ele>30.1</ele>
        <time>2023-01-28T13:54:11Z</time>
      </trkpt>
      <trkpt lat="49.9011" lon="2.26438">
        <ele>30.1</ele>
        <time>2023-01-28T13:54:12Z</time>
      </trkpt>
      <trkpt lat="49.9011" lon="2.26439">
        <ele>30.1</ele>
        <time>2023-01-28T13:54:13Z</time>
      </trkpt>
      <trkpt lat="49.9011" lon="2.26439">
        <ele>30.1</ele>
        <time>2023-01-28T13:54:14Z</time>
      </trkpt>
      <trkpt lat="49.90109" lon="2.26441">
        <ele>30</ele>
        <time>2023-01-28T13:54:15Z</time>
      </trkpt>
      <trkpt lat="49.90109" lon="2.26441">
        <ele>30</ele>
        <time>2023-01-28T13:54:16Z</time>
      </trkpt>
      <trkpt lat="49.90109" lon="2.26442">
        <ele>30</ele>
        <time>2023-01-28T13:54:17Z</time>
      </trkpt>
      <trkpt lat="49.90108" lon="2.26444">
        <ele>29.9</ele>
        <time>2023-01-28T13:54:18Z</time>
      </trkpt>
      <trkpt lat="49.90107" lon="2.26445">
        <ele>29.9</ele>
        <time>2023-01-28T13:54:20Z</time>
      </trkpt>
      <trkpt lat="49.90107" lon="2.26446">
        <ele>29.9</ele>
        <time>2023-01-28T13:54:21Z</time>
      </trkpt>
      <trkpt lat="49.90106" lon="2.26447">
        <ele>29.9</ele>
        <time>2023-01-28T13:54:22Z</time>
      </trkpt>
      <trkpt lat="49.90105" lon="2.26449">
        <ele>29.8</ele>
        <time>2023-01-28T13:54:23Z</time>
      </trkpt>
      <trkpt lat="49.90104" lon="2.26451">
        <ele>29.8</ele>
        <time>2023-01-28T13:54:24Z</time>
      </trkpt>
      <trkpt lat="49.90103" lon="2.26453">
        <ele>29.8</ele>
        <time>2023-01-28T13:54:26Z</time>
      </trkpt>
      <trkpt lat="49.90102" lon="2.26455">
        <ele>29.7</ele>
        <time>2023-01-28T13:54:27Z</time>
      </trkpt>
      <trkpt lat="49.90101" lon="2.26457">
        <ele>29.7</ele>
        <time>2023-01-28T13:54:28Z</time>
      </trkpt>
      <trkpt lat="49.90101" lon="2.26459">
        <ele>29.6</ele>
        <time>2023-01-28T13:54:29Z</time>
      </trkpt>
      <trkpt lat="49.901" lon="2.26461">
        <ele>29.6</ele>
        <time>2023-01-28T13:54:30Z</time>
      </trkpt>
      <trkpt lat="49.90099" lon="2.26464">
        <ele>29.6</ele>
        <time>2023-01-28T13:54:31Z</time>
      </trkpt>
      <trkpt lat="49.90099" lon="2.26466">
        <ele>29.5</ele>
        <time>2023-01-28T13:54:33Z</time>
      </trkpt>
      <trkpt lat="49.90098" lon="2.26468">
        <ele>29.5</ele>
        <time>2023-01-28T13:54:34Z</time>
      </trkpt>
      <trkpt lat="49.90097" lon="2.26471">
        <ele>29.4</ele>
        <time>2023-01-28T13:54:35Z</time>
      </trkpt>
      <trkpt lat="49.90096" lon="2.26473">
        <ele>29.4</ele>
        <time>2023-01-28T13:54:36Z</time>
      </trkpt>
      <trkpt lat="49.90096" lon="2.26475">
        <ele>29.4</ele>
        <time>2023-01-28T13:54:37Z</time>
      </trkpt>
      <trkpt lat="49.90095" lon="2.26476">
        <ele>29.4</ele>
        <time>2023-01-28T13:54:38Z</time>
      </trkpt>
      <trkpt lat="49.90094" lon="2.26478">
        <ele>29.3</ele>
        <time>2023-01-28T13:54:40Z</time>
      </trkpt>
      <trkpt lat="49.90093" lon="2.26479">
        <ele>29.3</ele>
        <time>2023-01-28T13:54:41Z</time>
      </trkpt>
      <trkpt lat="49.90093" lon="2.2648">
        <ele>29.3</ele>
        <time>2023-01-28T13:54:42Z</time>
      </trkpt>
      <trkpt lat="49.90092" lon="2.26481">
        <ele>29.2</ele>
        <time>2023-01-28T13:54:43Z</time>
      </trkpt>
      <trkpt lat="49.90091" lon="2.26483">
        <ele>29.2</ele>
        <time>2023-01-28T13:54:44Z</time>
      </trkpt>
      <trkpt lat="49.90091" lon="2.26484">
        <ele>29.2</ele>
        <time>2023-01-28T13:54:45Z</time>
      </trkpt>
      <trkpt lat="49.90091" lon="2.26486">
        <ele>29.2</ele>
        <time>2023-01-28T13:54:46Z</time>
      </trkpt>
      <trkpt lat="49.90091" lon="2.26487">
        <ele>29.1</ele>
        <time>2023-01-28T13:54:47Z</time>
      </trkpt>
      <trkpt lat="49.90092" lon="2.26488">
        <ele>29.1</ele>
        <time>2023-01-28T13:54:49Z</time>
      </trkpt>
      <trkpt lat="49.90092" lon="2.26489">
        <ele>29.1</ele>
        <time>2023-01-28T13:54:50Z</time>
      </trkpt>
      <trkpt lat="49.90092" lon="2.26491">
        <ele>29.1</ele>
        <time>2023-01-28T13:54:51Z</time>
      </trkpt>
      <trkpt lat="49.90092" lon="2.26492">
        <ele>29</ele>
        <time>2023-01-28T13:54:52Z</time>
      </trkpt>
      <trkpt lat="49.90092" lon="2.26494">
        <ele>29</ele>
        <time>2023-01-28T13:54:53Z</time>
      </trkpt>
      <trkpt lat="49.90092" lon="2.26496">
        <ele>29</ele>
        <time>2023-01-28T13:54:54Z</time>
      </trkpt>
      <trkpt lat="49.90092" lon="2.26497">
        <ele>29</ele>
        <time>2023-01-28T13:54:56Z</time>
      </trkpt>
      <trkpt lat="49.90092" lon="2.26499">
        <ele>28.9</ele>
        <time>2023-01-28T13:54:57Z</time>
      </trkpt>
      <trkpt lat="49.90092" lon="2.265">
        <ele>28.9</ele>
        <time>2023-01-28T13:54:58Z</time>
      </trkpt>
      <trkpt lat="49.90092" lon="2.26502">
        <ele>28.9</ele>
        <time>2023-01-28T13:54:59Z</time>
      </trkpt>
      <trkpt lat="49.90092" lon="2.26504">
        <ele>28.9</ele>
        <time>2023-01-28T13:55:00Z</time>
      </trkpt>
      <trkpt lat="49.90092" lon="2.26506">
        <ele>28.8</ele>
        <time>2023-01-28T13:55:02Z</time>
      </trkpt>
      <trkpt lat="49.90092" lon="2.26508">
        <ele>28.8</ele>
        <time>2023-01-28T13:55:03Z</time>
      </trkpt>
      <trkpt lat="49.90092" lon="2.2651">
        <ele>28.7</ele>
        <time>2023-01-28T13:55:04Z</time>
      </trkpt>
      <trkpt lat="49.90092" lon="2.26511">
        <ele>28.7</ele>
        <time>2023-01-28T13:55:05Z</time>
      </trkpt>
      <trkpt lat="49.90092" lon="2.26513">
        <ele>28.7</ele>
        <time>2023-01-28T13:55:06Z</time>
      </trkpt>
      <trkpt lat="49.90092" lon="2.26515">
        <ele>28.6</ele>
        <time>2023-01-28T13:55:07Z</time>
      </trkpt>
      <trkpt lat="49.90092" lon="2.26516">
        <ele>28.6</ele>
        <time>2023-01-28T13:55:08Z</time>
      </trkpt>
      <trkpt lat="49.90092" lon="2.26519">
        <ele>28.6</ele>
        <time>2023-01-28T13:55:09Z</time>
      </trkpt>
      <trkpt lat="49.90092" lon="2.26521">
        <ele>28.5</ele>
        <time>2023-01-28T13:55:10Z</time>
      </trkpt>
      <trkpt lat="49.90092" lon="2.26523">
        <ele>28.5</ele>
        <time>2023-01-28T13:55:12Z</time>
      </trkpt>
      <trkpt lat="49.90092" lon="2.26524">
        <ele>28.5</ele>
        <time>2023-01-28T13:55:13Z</time>
      </trkpt>
      <trkpt lat="49.90092" lon="2.26526">
        <ele>28.4</ele>
        <time>2023-01-28T13:55:14Z</time>
      </trkpt>
      <trkpt lat="49.90092" lon="2.26527">
        <ele>28.4</ele>
        <time>2023-01-28T13:55:15Z</time>
      </trkpt>
      <trkpt lat="49.90092" lon="2.26531">
        <ele>28.3</ele>
        <time>2023-01-28T13:55:16Z</time>
      </trkpt>
      <trkpt lat="49.90092" lon="2.26532">
        <ele>28.3</ele>
        <time>2023-01-28T13:55:17Z</time>
      </trkpt>
      <trkpt lat="49.90092" lon="2.26533">
        <ele>28.3</ele>
        <time>2023-01-28T13:55:18Z</time>
      </trkpt>
      <trkpt lat="49.90093" lon="2.26535">
        <ele>28.2</ele>
        <time>2023-01-28T13:55:19Z</time>
      </trkpt>
      <trkpt lat="49.90093" lon="2.26537">
        <ele>28.2</ele>
        <time>2023-01-28T13:55:20Z</time>
      </trkpt>
      <trkpt lat="49.90094" lon="2.2654">
        <ele>28.1</ele>
        <time>2023-01-28T13:55:22Z</time>
      </trkpt>
      <trkpt lat="49.90095" lon="2.26542">
        <ele>28.1</ele>
        <time>2023-01-28T13:55:23Z</time>
      </trkpt>
      <trkpt lat="49.90095" lon="2.26545">
        <ele>28</ele>
        <time>2023-01-28T13:55:24Z</time>
      </trkpt>
      <trkpt lat="49.90094" lon="2.26547">
        <ele>28</ele>
        <time>2023-01-28T13:55:25Z</time>
      </trkpt>
      <trkpt lat="49.90094" lon="2.26549">
        <ele>28</ele>
        <time>2023-01-28T13:55:26Z</time>
      </trkpt>
      <trkpt lat="49.90094" lon="2.2655">
        <ele>27.9</ele>
        <time>2023-01-28T13:55:27Z</time>
      </trkpt>
      <trkpt lat="49.90094" lon="2.26552">
        <ele>27.9</ele>
        <time>2023-01-28T13:55:28Z</time>
      </trkpt>
      <trkpt lat="49.90095" lon="2.26553">
        <ele>27.9</ele>
        <time>2023-01-28T13:55:29Z</time>
      </trkpt>
      <trkpt lat="49.90096" lon="2.26555">
        <ele>27.8</ele>
        <time>2023-01-28T13:55:30Z</time>
      </trkpt>
      <trkpt lat="49.90094" lon="2.26559">
        <ele>27.7</ele>
        <time>2023-01-28T13:55:32Z</time>
      </trkpt>
      <trkpt lat="49.90096" lon="2.26561">
        <ele>27.7</ele>
        <time>2023-01-28T13:55:33Z</time>
      </trkpt>
      <trkpt lat="49.90096" lon="2.26562">
        <ele>27.7</ele>
        <time>2023-01-28T13:55:34Z</time>
      </trkpt>
      <trkpt lat="49.90097" lon="2.26563">
        <ele>27.7</ele>
        <time>2023-01-28T13:55:35Z</time>
      </trkpt>
      <trkpt lat="49.90099" lon="2.26566">
        <ele>27.6</ele>
        <time>2023-01-28T13:55:36Z</time>
      </trkpt>
      <trkpt lat="49.901" lon="2.26566">
        <ele>27.6</ele>
        <time>2023-01-28T13:55:37Z</time>
      </trkpt>
      <trkpt lat="49.901" lon="2.26567">
        <ele>27.6</ele>
        <time>2023-01-28T13:55:38Z</time>
      </trkpt>
      <trkpt lat="49.90101" lon="2.26568">
        <ele>27.5</ele>
        <time>2023-01-28T13:55:39Z</time>
      </trkpt>
      <trkpt lat="49.90102" lon="2.2657">
        <ele>27.5</ele>
        <time>2023-01-28T13:55:40Z</time>
      </trkpt>
      <trkpt lat="49.90104" lon="2.26571">
        <ele>27.5</ele>
        <time>2023-01-28T13:55:42Z</time>
      </trkpt>
      <trkpt lat="49.90105" lon="2.26572">
        <ele>27.4</ele>
        <time>2023-01-28T13:55:43Z</time>
      </trkpt>
      <trkpt lat="49.90106" lon="2.26573">
        <ele>27.4</ele>
        <time>2023-01-28T13:55:44Z</time>
      </trkpt>
      <trkpt lat="49.90108" lon="2.26574">
        <ele>27.4</ele>
        <time>2023-01-28T13:55:45Z</time>
      </trkpt>
      <trkpt lat="49.90109" lon="2.26575">
        <ele>27.4</ele>
        <time>2023-01-28T13:55:47Z</time>
      </trkpt>
      <trkpt lat="49.9011" lon="2.26577">
        <ele>27.3</ele>
        <time>2023-01-28T13:55:48Z</time>
      </trkpt>
      <trkpt lat="49.90111" lon="2.26578">
        <ele>27.3</ele>
        <time>2023-01-28T13:55:50Z</time>
      </trkpt>
      <trkpt lat="49.90112" lon="2.26579">
        <ele>27.3</ele>
        <time>2023-01-28T13:55:51Z</time>
      </trkpt>
      <trkpt lat="49.90113" lon="2.26582">
        <ele>27.3</ele>
        <time>2023-01-28T13:55:52Z</time>
      </trkpt>
      <trkpt lat="49.90114" lon="2.26583">
        <ele>27.2</ele>
        <time>2023-01-28T13:55:53Z</time>
      </trkpt>
      <trkpt lat="49.90115" lon="2.26586">
        <ele>27.2</ele>
        <time>2023-01-28T13:55:54Z</time>
      </trkpt>
      <trkpt lat="49.90116" lon="2.26587">
        <ele>27.2</ele>
        <time>2023-01-28T13:55:55Z</time>
      </trkpt>
      <trkpt lat="49.90117" lon="2.26589">
        <ele>27.2</ele>
        <time>2023-01-28T13:55:56Z</time>
      </trkpt>
      <trkpt lat="49.90117" lon="2.26589">
        <ele>27.2</ele>
        <time>2023-01-28T13:55:57Z</time>
      </trkpt>
      <trkpt lat="49.90118" lon="2.2659">
        <ele>27.1</ele>
        <time>2023-01-28T13:55:58Z</time>
      </trkpt>
      <trkpt lat="49.90118" lon="2.26592">
        <ele>27.1</ele>
        <time>2023-01-28T13:55:59Z</time>
      </trkpt>
      <trkpt lat="49.90117" lon="2.26595">
        <ele>27.1</ele>
        <time>2023-01-28T13:56:01Z</time>
      </trkpt>
      <trkpt lat="49.90117" lon="2.26597">
        <ele>27.1</ele>
        <time>2023-01-28T13:56:02Z</time>
      </trkpt>
      <trkpt lat="49.90117" lon="2.26598">
        <ele>27.1</ele>
        <time>2023-01-28T13:56:03Z</time>
      </trkpt>
      <trkpt lat="49.90118" lon="2.26599">
        <ele>27.1</ele>
        <time>2023-01-28T13:56:04Z</time>
      </trkpt>
      <trkpt lat="49.90118" lon="2.26601">
        <ele>25.2</ele>
        <time>2023-01-28T13:56:05Z</time>
      </trkpt>
      <trkpt lat="49.90117" lon="2.26604">
        <ele>25.2</ele>
        <time>2023-01-28T13:56:06Z</time>
      </trkpt>
      <trkpt lat="49.90117" lon="2.26605">
        <ele>25.2</ele>
        <time>2023-01-28T13:56:07Z</time>
      </trkpt>
      <trkpt lat="49.90117" lon="2.26607">
        <ele>25.2</ele>
        <time>2023-01-28T13:56:09Z</time>
      </trkpt>
      <trkpt lat="49.90117" lon="2.26609">
        <ele>25.2</ele>
        <time>2023-01-28T13:56:10Z</time>
      </trkpt>
      <trkpt lat="49.90116" lon="2.26612">
        <ele>25.1</ele>
        <time>2023-01-28T13:56:11Z</time>
      </trkpt>
      <trkpt lat="49.90114" lon="2.26614">
        <ele>25.1</ele>
        <time>2023-01-28T13:56:12Z</time>
      </trkpt>
      <trkpt lat="49.90114" lon="2.26614">
        <ele>25.1</ele>
        <time>2023-01-28T13:56:14Z</time>
      </trkpt>
      <trkpt lat="49.90113" lon="2.26614">
        <ele>25.1</ele>
        <time>2023-01-28T13:56:15Z</time>
      </trkpt>
      <trkpt lat="49.90113" lon="2.26614">
        <ele>25.1</ele>
        <time>2023-01-28T13:56:16Z</time>
      </trkpt>
      <trkpt lat="49.90112" lon="2.26615">
        <ele>25.1</ele>
        <time>2023-01-28T13:56:17Z</time>
      </trkpt>
      <trkpt lat="49.90112" lon="2.26615">
        <ele>25.1</ele>
        <time>2023-01-28T13:56:18Z</time>
      </trkpt>
      <trkpt lat="49.90112" lon="2.26615">
        <ele>25.1</ele>
        <time>2023-01-28T13:56:19Z</time>
      </trkpt>
      <trkpt lat="49.90112" lon="2.26615">
        <ele>25.1</ele>
        <time>2023-01-28T13:56:20Z</time>
      </trkpt>
      <trkpt lat="49.90112" lon="2.26617">
        <ele>25.1</ele>
        <time>2023-01-28T13:56:22Z</time>
      </trkpt>
      <trkpt lat="49.90112" lon="2.26618">
        <ele>25.1</ele>
        <time>2023-01-28T13:56:23Z</time>
      </trkpt>
      <trkpt lat="49.90112" lon="2.26619">
        <ele>25.1</ele>
        <time>2023-01-28T13:56:24Z</time>
      </trkpt>
      <trkpt lat="49.90113" lon="2.2662">
        <ele>25.1</ele>
        <time>2023-01-28T13:56:25Z</time>
      </trkpt>
      <trkpt lat="49.90113" lon="2.2662">
        <ele>25.1</ele>
        <time>2023-01-28T13:56:26Z</time>
      </trkpt>
      <trkpt lat="49.90113" lon="2.26619">
        <ele>25.1</ele>
        <time>2023-01-28T13:56:28Z</time>
      </trkpt>
      <trkpt lat="49.90113" lon="2.26619">
        <ele>25.1</ele>
        <time>2023-01-28T13:56:29Z</time>
      </trkpt>
      <trkpt lat="49.90113" lon="2.26619">
        <ele>25.1</ele>
        <time>2023-01-28T13:56:30Z</time>
      </trkpt>
      <trkpt lat="49.90113" lon="2.26619">
        <ele>25.1</ele>
        <time>2023-01-28T13:56:31Z</time>
      </trkpt>
      <trkpt lat="49.90113" lon="2.26618">
        <ele>25.1</ele>
        <time>2023-01-28T13:56:33Z</time>
      </trkpt>
      <trkpt lat="49.90113" lon="2.26618">
        <ele>25.1</ele>
        <time>2023-01-28T13:56:35Z</time>
      </trkpt>
      <trkpt lat="49.90113" lon="2.26618">
        <ele>25.1</ele>
        <time>2023-01-28T13:56:36Z</time>
      </trkpt>
      <trkpt lat="49.90113" lon="2.26618">
        <ele>25.1</ele>
        <time>2023-01-28T13:56:37Z</time>
      </trkpt>
      <trkpt lat="49.90113" lon="2.26617">
        <ele>25.1</ele>
        <time>2023-01-28T13:56:39Z</time>
      </trkpt>
      <trkpt lat="49.90113" lon="2.26617">
        <ele>25.1</ele>
        <time>2023-01-28T13:56:40Z</time>
      </trkpt>
      <trkpt lat="49.90113" lon="2.26617">
        <ele>25.1</ele>
        <time>2023-01-28T13:56:41Z</time>
      </trkpt>
      <trkpt lat="49.90113" lon="2.26617">
        <ele>25.1</ele>
        <time>2023-01-28T13:56:43Z</time>
      </trkpt>
      <trkpt lat="49.90113" lon="2.26617">
        <ele>25.1</ele>
        <time>2023-01-28T13:56:44Z</time>
      </trkpt>
      <trkpt lat="49.90113" lon="2.26616">
        <ele>25.1</ele>
        <time>2023-01-28T13:56:45Z</time>
      </trkpt>
      <trkpt lat="49.90115" lon="2.26612">
        <ele>25.1</ele>
        <time>2023-01-28T13:56:46Z</time>
      </trkpt>
      <trkpt lat="49.90116" lon="2.26611">
        <ele>25.1</ele>
        <time>2023-01-28T13:56:47Z</time>
      </trkpt>
      <trkpt lat="49.90116" lon="2.26611">
        <ele>25.1</ele>
        <time>2023-01-28T13:56:48Z</time>
      </trkpt>
      <trkpt lat="49.90116" lon="2.26611">
        <ele>25.1</ele>
        <time>2023-01-28T13:56:49Z</time>
      </trkpt>
      <trkpt lat="49.90116" lon="2.26611">
        <ele>25.1</ele>
        <time>2023-01-28T13:56:50Z</time>
      </trkpt>
      <trkpt lat="49.90116" lon="2.26611">
        <ele>25.1</ele>
        <time>2023-01-28T13:56:51Z</time>
      </trkpt>
      <trkpt lat="49.90116" lon="2.26611">
        <ele>25.1</ele>
        <time>2023-01-28T13:56:52Z</time>
      </trkpt>
      <trkpt lat="49.90116" lon="2.26611">
        <ele>25.1</ele>
        <time>2023-01-28T13:56:53Z</time>
      </trkpt>
      <trkpt lat="49.90116" lon="2.26611">
        <ele>25.1</ele>
        <time>2023-01-28T13:56:54Z</time>
      </trkpt>
      <trkpt lat="49.90116" lon="2.26611">
        <ele>25.1</ele>
        <time>2023-01-28T13:56:55Z</time>
      </trkpt>
      <trkpt lat="49.90116" lon="2.26611">
        <ele>25.1</ele>
        <time>2023-01-28T13:56:56Z</time>
      </trkpt>
      <trkpt lat="49.90117" lon="2.26612">
        <ele>25.1</ele>
        <time>2023-01-28T13:56:57Z</time>
      </trkpt>
      <trkpt lat="49.90117" lon="2.26613">
        <ele>25.1</ele>
        <time>2023-01-28T13:56:58Z</time>
      </trkpt>
      <trkpt lat="49.90117" lon="2.26613">
        <ele>25.1</ele>
        <time>2023-01-28T13:56:59Z</time>
      </trkpt>
      <trkpt lat="49.90116" lon="2.26613">
        <ele>25.1</ele>
        <time>2023-01-28T13:57:00Z</time>
      </trkpt>
      <trkpt lat="49.90116" lon="2.26614">
        <ele>25.1</ele>
        <time>2023-01-28T13:57:01Z</time>
      </trkpt>
      <trkpt lat="49.90116" lon="2.26614">
        <ele>25.1</ele>
        <time>2023-01-28T13:57:02Z</time>
      </trkpt>
      <trkpt lat="49.90116" lon="2.26615">
        <ele>25.1</ele>
        <time>2023-01-28T13:57:03Z</time>
      </trkpt>
      <trkpt lat="49.90115" lon="2.26615">
        <ele>25.1</ele>
        <time>2023-01-28T13:57:04Z</time>
      </trkpt>
      <trkpt lat="49.90115" lon="2.26616">
        <ele>25.1</ele>
        <time>2023-01-28T13:57:05Z</time>
      </trkpt>
      <trkpt lat="49.90114" lon="2.26619">
        <ele>25.1</ele>
        <time>2023-01-28T13:57:06Z</time>
      </trkpt>
      <trkpt lat="49.90113" lon="2.26622">
        <ele>25.1</ele>
        <time>2023-01-28T13:57:07Z</time>
      </trkpt>
      <trkpt lat="49.90114" lon="2.26623">
        <ele>25.1</ele>
        <time>2023-01-28T13:57:09Z</time>
      </trkpt>
      <trkpt lat="49.90114" lon="2.26624">
        <ele>25.1</ele>
        <time>2023-01-28T13:57:10Z</time>
      </trkpt>
      <trkpt lat="49.90116" lon="2.26623">
        <ele>25.1</ele>
        <time>2023-01-28T13:57:11Z</time>
      </trkpt>
      <trkpt lat="49.90116" lon="2.26625">
        <ele>25.1</ele>
        <time>2023-01-28T13:57:13Z</time>
      </trkpt>
      <trkpt lat="49.90116" lon="2.26625">
        <ele>25.1</ele>
        <time>2023-01-28T13:57:15Z</time>
      </trkpt>
      <trkpt lat="49.90116" lon="2.26625">
        <ele>25.1</ele>
        <time>2023-01-28T13:57:16Z</time>
      </trkpt>
      <trkpt lat="49.90116" lon="2.26626">
        <ele>25.1</ele>
        <time>2023-01-28T13:57:18Z</time>
      </trkpt>
      <trkpt lat="49.90116" lon="2.26626">
        <ele>25.1</ele>
        <time>2023-01-28T13:57:19Z</time>
      </trkpt>
      <trkpt lat="49.90116" lon="2.26626">
        <ele>25.1</ele>
        <time>2023-01-28T13:57:21Z</time>
      </trkpt>
      <trkpt lat="49.90116" lon="2.26626">
        <ele>25.1</ele>
        <time>2023-01-28T13:57:22Z</time>
      </trkpt>
      <trkpt lat="49.90116" lon="2.26626">
        <ele>25.1</ele>
        <time>2023-01-28T13:57:23Z</time>
      </trkpt>
      <trkpt lat="49.90116" lon="2.26627">
        <ele>25.1</ele>
        <time>2023-01-28T13:57:25Z</time>
      </trkpt>
      <trkpt lat="49.90116" lon="2.26627">
        <ele>25.1</ele>
        <time>2023-01-28T13:57:26Z</time>
      </trkpt>
      <trkpt lat="49.90116" lon="2.26627">
        <ele>25.1</ele>
        <time>2023-01-28T13:57:28Z</time>
      </trkpt>
      <trkpt lat="49.90117" lon="2.26624">
        <ele>25.1</ele>
        <time>2023-01-28T13:57:29Z</time>
      </trkpt>
      <trkpt lat="49.90118" lon="2.26623">
        <ele>25.1</ele>
        <time>2023-01-28T13:57:30Z</time>
      </trkpt>
      <trkpt lat="49.90118" lon="2.26623">
        <ele>25.1</ele>
        <time>2023-01-28T13:57:31Z</time>
      </trkpt>
      <trkpt lat="49.90118" lon="2.26623">
        <ele>25.1</ele>
        <time>2023-01-28T13:57:32Z</time>
      </trkpt>
      <trkpt lat="49.90118" lon="2.26623">
        <ele>25.1</ele>
        <time>2023-01-28T13:57:33Z</time>
      </trkpt>
      <trkpt lat="49.90118" lon="2.26623">
        <ele>25.1</ele>
        <time>2023-01-28T13:57:34Z</time>
      </trkpt>
      <trkpt lat="49.90118" lon="2.26623">
        <ele>25.1</ele>
        <time>2023-01-28T13:57:35Z</time>
      </trkpt>
      <trkpt lat="49.90118" lon="2.26623">
        <ele>25.1</ele>
        <time>2023-01-28T13:57:36Z</time>
      </trkpt>
      <trkpt lat="49.90118" lon="2.26623">
        <ele>25.1</ele>
        <time>2023-01-28T13:57:37Z</time>
      </trkpt>
      <trkpt lat="49.90118" lon="2.26623">
        <ele>25.1</ele>
        <time>2023-01-28T13:57:38Z</time>
      </trkpt>
      <trkpt lat="49.90118" lon="2.26623">
        <ele>25.1</ele>
        <time>2023-01-28T13:57:39Z</time>
      </trkpt>
      <trkpt lat="49.90118" lon="2.26623">
        <ele>25.1</ele>
        <time>2023-01-28T13:57:40Z</time>
      </trkpt>
      <trkpt lat="49.90118" lon="2.26623">
        <ele>25.1</ele>
        <time>2023-01-28T13:57:41Z</time>
      </trkpt>
      <trkpt lat="49.90118" lon="2.26623">
        <ele>25.1</ele>
        <time>2023-01-28T13:57:42Z</time>
      </trkpt>
      <trkpt lat="49.90118" lon="2.26623">
        <ele>25.1</ele>
        <time>2023-01-28T13:57:43Z</time>
      </trkpt>
      <trkpt lat="49.90118" lon="2.26623">
        <ele>25.1</ele>
        <time>2023-01-28T13:57:44Z</time>
      </trkpt>
      <trkpt lat="49.90118" lon="2.26623">
        <ele>25.1</ele>
        <time>2023-01-28T13:57:45Z</time>
      </trkpt>
      <trkpt lat="49.90118" lon="2.26623">
        <ele>25.1</ele>
        <time>2023-01-28T13:57:46Z</time>
      </trkpt>
      <trkpt lat="49.90118" lon="2.26623">
        <ele>25.1</ele>
        <time>2023-01-28T13:57:47Z</time>
      </trkpt>
      <trkpt lat="49.90118" lon="2.26623">
        <ele>25.1</ele>
        <time>2023-01-28T13:57:48Z</time>
      </trkpt>
      <trkpt lat="49.90118" lon="2.26623">
        <ele>25.1</ele>
        <time>2023-01-28T13:57:49Z</time>
      </trkpt>
      <trkpt lat="49.90118" lon="2.26623">
        <ele>25.1</ele>
        <time>2023-01-28T13:57:50Z</time>
      </trkpt>
      <trkpt lat="49.90118" lon="2.26623">
        <ele>25.1</ele>
        <time>2023-01-28T13:57:51Z</time>
      </trkpt>
      <trkpt lat="49.90118" lon="2.26623">
        <ele>25.1</ele>
        <time>2023-01-28T13:57:52Z</time>
      </trkpt>
      <trkpt lat="49.90118" lon="2.26623">
        <ele>25.1</ele>
        <time>2023-01-28T13:57:53Z</time>
      </trkpt>
      <trkpt lat="49.90118" lon="2.26623">
        <ele>25.1</ele>
        <time>2023-01-28T13:57:54Z</time>
      </trkpt>
      <trkpt lat="49.90118" lon="2.26623">
        <ele>25.1</ele>
        <time>2023-01-28T13:57:55Z</time>
      </trkpt>
      <trkpt lat="49.90118" lon="2.26623">
        <ele>25.1</ele>
        <time>2023-01-28T13:57:56Z</time>
      </trkpt>
      <trkpt lat="49.90118" lon="2.26623">
        <ele>25.1</ele>
        <time>2023-01-28T13:57:57Z</time>
      </trkpt>
      <trkpt lat="49.90118" lon="2.26623">
        <ele>25.1</ele>
        <time>2023-01-28T13:57:58Z</time>
      </trkpt>
      <trkpt lat="49.90118" lon="2.26623">
        <ele>25.1</ele>
        <time>2023-01-28T13:57:59Z</time>
      </trkpt>
      <trkpt lat="49.90118" lon="2.26623">
        <ele>25.1</ele>
        <time>2023-01-28T13:58:00Z</time>
      </trkpt>
      <trkpt lat="49.90118" lon="2.26623">
        <ele>25.1</ele>
        <time>2023-01-28T13:58:01Z</time>
      </trkpt>
      <trkpt lat="49.90118" lon="2.26623">
        <ele>25.1</ele>
        <time>2023-01-28T13:58:02Z</time>
      </trkpt>
      <trkpt lat="49.90118" lon="2.26623">
        <ele>25.1</ele>
        <time>2023-01-28T13:58:03Z</time>
      </trkpt>
      <trkpt lat="49.90118" lon="2.26623">
        <ele>25.1</ele>
        <time>2023-01-28T13:58:04Z</time>
      </trkpt>
      <trkpt lat="49.90118" lon="2.26623">
        <ele>25.1</ele>
        <time>2023-01-28T13:58:05Z</time>
      </trkpt>
      <trkpt lat="49.90118" lon="2.26623">
        <ele>25.1</ele>
        <time>2023-01-28T13:58:06Z</time>
      </trkpt>
      <trkpt lat="49.90118" lon="2.26623">
        <ele>25.1</ele>
        <time>2023-01-28T13:58:07Z</time>
      </trkpt>
      <trkpt lat="49.90118" lon="2.26623">
        <ele>25.1</ele>
        <time>2023-01-28T13:58:08Z</time>
      </trkpt>
      <trkpt lat="49.90118" lon="2.26623">
        <ele>25.1</ele>
        <time>2023-01-28T13:58:09Z</time>
      </trkpt>
      <trkpt lat="49.90118" lon="2.26623">
        <ele>25.1</ele>
        <time>2023-01-28T13:58:10Z</time>
      </trkpt>
      <trkpt lat="49.90118" lon="2.26623">
        <ele>25.1</ele>
        <time>2023-01-28T13:58:11Z</time>
      </trkpt>
      <trkpt lat="49.90118" lon="2.26623">
        <ele>25.1</ele>
        <time>2023-01-28T13:58:12Z</time>
      </trkpt>
      <trkpt lat="49.90118" lon="2.26623">
        <ele>25.1</ele>
        <time>2023-01-28T13:58:13Z</time>
      </trkpt>
      <trkpt lat="49.90118" lon="2.26623">
        <ele>25.1</ele>
        <time>2023-01-28T13:58:14Z</time>
      </trkpt>
      <trkpt lat="49.90118" lon="2.26623">
        <ele>25.1</ele>
        <time>2023-01-28T13:58:15Z</time>
      </trkpt>
      <trkpt lat="49.90118" lon="2.26623">
        <ele>25.1</ele>
        <time>2023-01-28T13:58:16Z</time>
      </trkpt>
      <trkpt lat="49.90118" lon="2.26623">
        <ele>25.1</ele>
        <time>2023-01-28T13:58:17Z</time>
      </trkpt>
      <trkpt lat="49.90118" lon="2.26623">
        <ele>25.1</ele>
        <time>2023-01-28T13:58:18Z</time>
      </trkpt>
      <trkpt lat="49.90118" lon="2.26623">
        <ele>25.1</ele>
        <time>2023-01-28T13:58:19Z</time>
      </trkpt>
      <trkpt lat="49.90118" lon="2.26623">
        <ele>25.1</ele>
        <time>2023-01-28T13:58:20Z</time>
      </trkpt>
      <trkpt lat="49.90118" lon="2.26623">
        <ele>25.1</ele>
        <time>2023-01-28T13:58:21Z</time>
      </trkpt>
      <trkpt lat="49.90118" lon="2.26623">
        <ele>25.1</ele>
        <time>2023-01-28T13:58:22Z</time>
      </trkpt>
      <trkpt lat="49.90118" lon="2.26623">
        <ele>25.1</ele>
        <time>2023-01-28T13:58:23Z</time>
      </trkpt>
      <trkpt lat="49.90118" lon="2.26623">
        <ele>25.1</ele>
        <time>2023-01-28T13:58:24Z</time>
      </trkpt>
      <trkpt lat="49.90118" lon="2.26623">
        <ele>25.1</ele>
        <time>2023-01-28T13:58:25Z</time>
      </trkpt>
      <trkpt lat="49.90118" lon="2.26623">
        <ele>25.1</ele>
        <time>2023-01-28T13:58:26Z</time>
      </trkpt>
      <trkpt lat="49.90118" lon="2.26623">
        <ele>25.1</ele>
        <time>2023-01-28T13:58:27Z</time>
      </trkpt>
      <trkpt lat="49.90118" lon="2.26623">
        <ele>25.1</ele>
        <time>2023-01-28T13:58:28Z</time>
      </trkpt>
      <trkpt lat="49.90118" lon="2.26623">
        <ele>25.1</ele>
        <time>2023-01-28T13:58:29Z</time>
      </trkpt>
      <trkpt lat="49.90118" lon="2.26623">
        <ele>25.1</ele>
        <time>2023-01-28T13:58:30Z</time>
      </trkpt>
      <trkpt lat="49.90118" lon="2.26623">
        <ele>25.1</ele>
        <time>2023-01-28T13:58:31Z</time>
      </trkpt>
      <trkpt lat="49.90118" lon="2.26623">
        <ele>25.1</ele>
        <time>2023-01-28T13:58:32Z</time>
      </trkpt>
      <trkpt lat="49.90118" lon="2.26623">
        <ele>25.1</ele>
        <time>2023-01-28T13:58:33Z</time>
      </trkpt>
      <trkpt lat="49.90118" lon="2.26623">
        <ele>25.1</ele>
        <time>2023-01-28T13:58:34Z</time>
      </trkpt>
      <trkpt lat="49.90118" lon="2.26623">
        <ele>25.1</ele>
        <time>2023-01-28T13:58:35Z</time>
      </trkpt>
      <trkpt lat="49.90118" lon="2.26623">
        <ele>25.1</ele>
        <time>2023-01-28T13:58:36Z</time>
      </trkpt>
      <trkpt lat="49.90118" lon="2.26623">
        <ele>25.1</ele>
        <time>2023-01-28T13:58:37Z</time>
      </trkpt>
      <trkpt lat="49.90118" lon="2.26623">
        <ele>25.1</ele>
        <time>2023-01-28T13:58:38Z</time>
      </trkpt>
      <trkpt lat="49.90118" lon="2.26623">
        <ele>25.1</ele>
        <time>2023-01-28T13:58:39Z</time>
      </trkpt>
      <trkpt lat="49.90118" lon="2.26623">
        <ele>25.1</ele>
        <time>2023-01-28T13:58:40Z</time>
      </trkpt>
      <trkpt lat="49.90118" lon="2.26623">
        <ele>25.1</ele>
        <time>2023-01-28T13:58:41Z</time>
      </trkpt>
      <trkpt lat="49.90118" lon="2.26623">
        <ele>25.1</ele>
        <time>2023-01-28T13:58:42Z</time>
      </trkpt>
      <trkpt lat="49.90118" lon="2.26623">
        <ele>25.1</ele>
        <time>2023-01-28T13:58:43Z</time>
      </trkpt>
      <trkpt lat="49.90118" lon="2.26623">
        <ele>25.1</ele>
        <time>2023-01-28T13:58:44Z</time>
      </trkpt>
      <trkpt lat="49.90118" lon="2.26623">
        <ele>25.1</ele>
        <time>2023-01-28T13:58:45Z</time>
      </trkpt>
      <trkpt lat="49.90118" lon="2.26623">
        <ele>25.1</ele>
        <time>2023-01-28T13:58:46Z</time>
      </trkpt>
      <trkpt lat="49.90118" lon="2.26623">
        <ele>25.1</ele>
        <time>2023-01-28T13:58:47Z</time>
      </trkpt>
      <trkpt lat="49.90118" lon="2.26623">
        <ele>25.1</ele>
        <time>2023-01-28T13:58:48Z</time>
      </trkpt>
      <trkpt lat="49.90118" lon="2.26623">
        <ele>25.1</ele>
        <time>2023-01-28T13:58:49Z</time>
      </trkpt>
      <trkpt lat="49.90118" lon="2.26623">
        <ele>25.1</ele>
        <time>2023-01-28T13:58:50Z</time>
      </trkpt>
      <trkpt lat="49.90118" lon="2.26623">
        <ele>25.1</ele>
        <time>2023-01-28T13:58:51Z</time>
      </trkpt>
      <trkpt lat="49.90118" lon="2.26623">
        <ele>25.1</ele>
        <time>2023-01-28T13:58:52Z</time>
      </trkpt>
      <trkpt lat="49.90118" lon="2.26623">
        <ele>25.1</ele>
        <time>2023-01-28T13:58:53Z</time>
      </trkpt>
      <trkpt lat="49.90118" lon="2.26623">
        <ele>25.1</ele>
        <time>2023-01-28T13:58:54Z</time>
      </trkpt>
      <trkpt lat="49.90118" lon="2.26623">
        <ele>25.1</ele>
        <time>2023-01-28T13:58:55Z</time>
      </trkpt>
      <trkpt lat="49.90118" lon="2.26623">
        <ele>25.1</ele>
        <time>2023-01-28T13:58:56Z</time>
      </trkpt>
      <trkpt lat="49.90118" lon="2.26623">
        <ele>25.1</ele>
        <time>2023-01-28T13:58:57Z</time>
      </trkpt>
      <trkpt lat="49.90118" lon="2.26623">
        <ele>25.1</ele>
        <time>2023-01-28T13:58:58Z</time>
      </trkpt>
      <trkpt lat="49.90118" lon="2.26623">
        <ele>25.1</ele>
        <time>2023-01-28T13:58:59Z</time>
      </trkpt>
      <trkpt lat="49.90118" lon="2.26623">
        <ele>25.1</ele>
        <time>2023-01-28T13:59:00Z</time>
      </trkpt>
      <trkpt lat="49.90118" lon="2.26623">
        <ele>25.1</ele>
        <time>2023-01-28T13:59:01Z</time>
      </trkpt>
      <trkpt lat="49.90118" lon="2.26623">
        <ele>25.1</ele>
        <time>2023-01-28T13:59:02Z</time>
      </trkpt>
      <trkpt lat="49.90118" lon="2.26623">
        <ele>25.1</ele>
        <time>2023-01-28T13:59:03Z</time>
      </trkpt>
      <trkpt lat="49.90118" lon="2.26623">
        <ele>25.1</ele>
        <time>2023-01-28T13:59:04Z</time>
      </trkpt>
      <trkpt lat="49.90118" lon="2.26623">
        <ele>25.1</ele>
        <time>2023-01-28T13:59:05Z</time>
      </trkpt>
      <trkpt lat="49.90118" lon="2.26623">
        <ele>25.1</ele>
        <time>2023-01-28T13:59:06Z</time>
      </trkpt>
      <trkpt lat="49.90118" lon="2.26623">
        <ele>25.1</ele>
        <time>2023-01-28T13:59:07Z</time>
      </trkpt>
      <trkpt lat="49.90118" lon="2.26623">
        <ele>25.1</ele>
        <time>2023-01-28T13:59:08Z</time>
      </trkpt>
      <trkpt lat="49.90118" lon="2.26623">
        <ele>25.1</ele>
        <time>2023-01-28T13:59:09Z</time>
      </trkpt>
      <trkpt lat="49.90118" lon="2.26623">
        <ele>25.1</ele>
        <time>2023-01-28T13:59:10Z</time>
      </trkpt>
      <trkpt lat="49.90118" lon="2.26623">
        <ele>25.1</ele>
        <time>2023-01-28T13:59:11Z</time>
      </trkpt>
      <trkpt lat="49.90118" lon="2.26623">
        <ele>25.1</ele>
        <time>2023-01-28T13:59:12Z</time>
      </trkpt>
      <trkpt lat="49.90118" lon="2.26623">
        <ele>25.1</ele>
        <time>2023-01-28T13:59:13Z</time>
      </trkpt>
      <trkpt lat="49.90118" lon="2.26623">
        <ele>25.1</ele>
        <time>2023-01-28T13:59:14Z</time>
      </trkpt>
      <trkpt lat="49.90118" lon="2.26623">
        <ele>25.1</ele>
        <time>2023-01-28T13:59:15Z</time>
      </trkpt>
      <trkpt lat="49.90118" lon="2.26623">
        <ele>25.1</ele>
        <time>2023-01-28T13:59:16Z</time>
      </trkpt>
      <trkpt lat="49.90118" lon="2.26623">
        <ele>25.1</ele>
        <time>2023-01-28T13:59:17Z</time>
      </trkpt>
      <trkpt lat="49.90118" lon="2.26623">
        <ele>25.1</ele>
        <time>2023-01-28T13:59:18Z</time>
      </trkpt>
      <trkpt lat="49.90118" lon="2.26623">
        <ele>25.1</ele>
        <time>2023-01-28T13:59:19Z</time>
      </trkpt>
      <trkpt lat="49.90118" lon="2.26623">
        <ele>25.1</ele>
        <time>2023-01-28T13:59:20Z</time>
      </trkpt>
      <trkpt lat="49.90118" lon="2.26623">
        <ele>25.1</ele>
        <time>2023-01-28T13:59:21Z</time>
      </trkpt>
      <trkpt lat="49.90118" lon="2.26623">
        <ele>25.1</ele>
        <time>2023-01-28T13:59:22Z</time>
      </trkpt>
      <trkpt lat="49.90118" lon="2.26623">
        <ele>25.1</ele>
        <time>2023-01-28T13:59:23Z</time>
      </trkpt>
      <trkpt lat="49.90118" lon="2.26623">
        <ele>25.1</ele>
        <time>2023-01-28T13:59:24Z</time>
      </trkpt>
      <trkpt lat="49.90118" lon="2.26623">
        <ele>25.1</ele>
        <time>2023-01-28T13:59:25Z</time>
      </trkpt>
      <trkpt lat="49.90118" lon="2.26623">
        <ele>25.1</ele>
        <time>2023-01-28T13:59:26Z</time>
      </trkpt>
      <trkpt lat="49.90118" lon="2.26623">
        <ele>25.1</ele>
        <time>2023-01-28T13:59:27Z</time>
      </trkpt>
      <trkpt lat="49.90118" lon="2.26623">
        <ele>25.1</ele>
        <time>2023-01-28T13:59:28Z</time>
      </trkpt>
      <trkpt lat="49.90118" lon="2.26623">
        <ele>25.1</ele>
        <time>2023-01-28T13:59:29Z</time>
      </trkpt>
      <trkpt lat="49.90118" lon="2.26623">
        <ele>25.1</ele>
        <time>2023-01-28T13:59:30Z</time>
      </trkpt>
      <trkpt lat="49.90118" lon="2.26623">
        <ele>25.1</ele>
        <time>2023-01-28T13:59:31Z</time>
      </trkpt>
      <trkpt lat="49.90118" lon="2.26623">
        <ele>25.1</ele>
        <time>2023-01-28T13:59:32Z</time>
      </trkpt>
      <trkpt lat="49.90118" lon="2.26623">
        <ele>25.1</ele>
        <time>2023-01-28T13:59:33Z</time>
      </trkpt>
      <trkpt lat="49.90118" lon="2.26623">
        <ele>25.1</ele>
        <time>2023-01-28T13:59:34Z</time>
      </trkpt>
      <trkpt lat="49.90118" lon="2.26623">
        <ele>25.1</ele>
        <time>2023-01-28T13:59:35Z</time>
      </trkpt>
      <trkpt lat="49.90118" lon="2.26623">
        <ele>25.1</ele>
        <time>2023-01-28T13:59:36Z</time>
      </trkpt>
      <trkpt lat="49.90118" lon="2.26623">
        <ele>25.1</ele>
        <time>2023-01-28T13:59:37Z</time>
      </trkpt>
      <trkpt lat="49.90118" lon="2.26623">
        <ele>25.1</ele>
        <time>2023-01-28T13:59:38Z</time>
      </trkpt>
      <trkpt lat="49.90118" lon="2.26623">
        <ele>25.1</ele>
        <time>2023-01-28T13:59:39Z</time>
      </trkpt>
      <trkpt lat="49.90118" lon="2.26623">
        <ele>25.1</ele>
        <time>2023-01-28T13:59:40Z</time>
      </trkpt>
      <trkpt lat="49.90118" lon="2.26623">
        <ele>25.1</ele>
        <time>2023-01-28T13:59:41Z</time>
      </trkpt>
      <trkpt lat="49.90118" lon="2.26623">
        <ele>25.1</ele>
        <time>2023-01-28T13:59:42Z</time>
      </trkpt>
      <trkpt lat="49.90118" lon="2.26621">
        <ele>25.1</ele>
        <time>2023-01-28T13:59:43Z</time>
      </trkpt>
      <trkpt lat="49.90118" lon="2.2662">
        <ele>25.1</ele>
        <time>2023-01-28T13:59:44Z</time>
      </trkpt>
      <trkpt lat="49.90118" lon="2.26621">
        <ele>25.1</ele>
        <time>2023-01-28T13:59:45Z</time>
      </trkpt>
      <trkpt lat="49.90118" lon="2.26621">
        <ele>25.1</ele>
        <time>2023-01-28T13:59:46Z</time>
      </trkpt>
      <trkpt lat="49.90118" lon="2.26621">
        <ele>25.1</ele>
        <time>2023-01-28T13:59:47Z</time>
      </trkpt>
      <trkpt lat="49.90117" lon="2.2662">
        <ele>25.1</ele>
        <time>2023-01-28T13:59:49Z</time>
      </trkpt>
      <trkpt lat="49.90117" lon="2.26619">
        <ele>25.1</ele>
        <time>2023-01-28T13:59:50Z</time>
      </trkpt>
      <trkpt lat="49.90116" lon="2.26617">
        <ele>25.1</ele>
        <time>2023-01-28T13:59:51Z</time>
      </trkpt>
      <trkpt lat="49.90116" lon="2.26614">
        <ele>25.1</ele>
        <time>2023-01-28T13:59:52Z</time>
      </trkpt>
      <trkpt lat="49.90117" lon="2.26609">
        <ele>26.1</ele>
        <time>2023-01-28T13:59:54Z</time>
      </trkpt>
      <trkpt lat="49.90117" lon="2.26608">
        <ele>27</ele>
        <time>2023-01-28T13:59:55Z</time>
      </trkpt>
      <trkpt lat="49.90117" lon="2.26607">
        <ele>27</ele>
        <time>2023-01-28T13:59:56Z</time>
      </trkpt>
      <trkpt lat="49.90117" lon="2.26606">
        <ele>27.1</ele>
        <time>2023-01-28T13:59:58Z</time>
      </trkpt>
      <trkpt lat="49.90117" lon="2.26604">
        <ele>27.1</ele>
        <time>2023-01-28T13:59:59Z</time>
      </trkpt>
      <trkpt lat="49.90117" lon="2.26603">
        <ele>27.1</ele>
        <time>2023-01-28T14:00:00Z</time>
      </trkpt>
      <trkpt lat="49.90117" lon="2.26601">
        <ele>27.1</ele>
        <time>2023-01-28T14:00:02Z</time>
      </trkpt>
      <trkpt lat="49.90117" lon="2.26599">
        <ele>27.1</ele>
        <time>2023-01-28T14:00:03Z</time>
      </trkpt>
      <trkpt lat="49.90116" lon="2.26598">
        <ele>27.1</ele>
        <time>2023-01-28T14:00:04Z</time>
      </trkpt>
      <trkpt lat="49.90116" lon="2.26596">
        <ele>27.1</ele>
        <time>2023-01-28T14:00:05Z</time>
      </trkpt>
      <trkpt lat="49.90115" lon="2.26594">
        <ele>27.1</ele>
        <time>2023-01-28T14:00:06Z</time>
      </trkpt>
      <trkpt lat="49.90114" lon="2.26592">
        <ele>27.2</ele>
        <time>2023-01-28T14:00:08Z</time>
      </trkpt>
      <trkpt lat="49.90114" lon="2.26591">
        <ele>27.2</ele>
        <time>2023-01-28T14:00:09Z</time>
      </trkpt>
      <trkpt lat="49.90113" lon="2.26591">
        <ele>27.2</ele>
        <time>2023-01-28T14:00:10Z</time>
      </trkpt>
      <trkpt lat="49.90111" lon="2.2659">
        <ele>27.2</ele>
        <time>2023-01-28T14:00:11Z</time>
      </trkpt>
      <trkpt lat="49.9011" lon="2.26589">
        <ele>27.2</ele>
        <time>2023-01-28T14:00:12Z</time>
      </trkpt>
      <trkpt lat="49.90109" lon="2.26588">
        <ele>27.2</ele>
        <time>2023-01-28T14:00:14Z</time>
      </trkpt>
      <trkpt lat="49.90108" lon="2.26587">
        <ele>27.2</ele>
        <time>2023-01-28T14:00:15Z</time>
      </trkpt>
      <trkpt lat="49.90106" lon="2.26585">
        <ele>27.3</ele>
        <time>2023-01-28T14:00:16Z</time>
      </trkpt>
      <trkpt lat="49.90106" lon="2.26583">
        <ele>27.3</ele>
        <time>2023-01-28T14:00:17Z</time>
      </trkpt>
      <trkpt lat="49.90105" lon="2.26582">
        <ele>27.3</ele>
        <time>2023-01-28T14:00:18Z</time>
      </trkpt>
      <trkpt lat="49.90104" lon="2.26582">
        <ele>27.3</ele>
        <time>2023-01-28T14:00:20Z</time>
      </trkpt>
      <trkpt lat="49.90103" lon="2.26581">
        <ele>27.3</ele>
        <time>2023-01-28T14:00:21Z</time>
      </trkpt>
      <trkpt lat="49.90102" lon="2.26579">
        <ele>27.4</ele>
        <time>2023-01-28T14:00:22Z</time>
      </trkpt>
      <trkpt lat="49.90101" lon="2.26577">
        <ele>27.4</ele>
        <time>2023-01-28T14:00:23Z</time>
      </trkpt>
      <trkpt lat="49.901" lon="2.26576">
        <ele>27.4</ele>
        <time>2023-01-28T14:00:24Z</time>
      </trkpt>
      <trkpt lat="49.90101" lon="2.26572">
        <ele>27.4</ele>
        <time>2023-01-28T14:00:25Z</time>
      </trkpt>
      <trkpt lat="49.90101" lon="2.26569">
        <ele>27.5</ele>
        <time>2023-01-28T14:00:27Z</time>
      </trkpt>
      <trkpt lat="49.90102" lon="2.26567">
        <ele>27.5</ele>
        <time>2023-01-28T14:00:28Z</time>
      </trkpt>
      <trkpt lat="49.90102" lon="2.26564">
        <ele>27.5</ele>
        <time>2023-01-28T14:00:29Z</time>
      </trkpt>
      <trkpt lat="49.90101" lon="2.26562">
        <ele>27.6</ele>
        <time>2023-01-28T14:00:30Z</time>
      </trkpt>
      <trkpt lat="49.901" lon="2.26561">
        <ele>27.6</ele>
        <time>2023-01-28T14:00:31Z</time>
      </trkpt>
      <trkpt lat="49.901" lon="2.26559">
        <ele>27.6</ele>
        <time>2023-01-28T14:00:33Z</time>
      </trkpt>
      <trkpt lat="49.90098" lon="2.26557">
        <ele>27.6</ele>
        <time>2023-01-28T14:00:34Z</time>
      </trkpt>
      <trkpt lat="49.90097" lon="2.26556">
        <ele>27.7</ele>
        <time>2023-01-28T14:00:35Z</time>
      </trkpt>
      <trkpt lat="49.90097" lon="2.26555">
        <ele>27.7</ele>
        <time>2023-01-28T14:00:36Z</time>
      </trkpt>
      <trkpt lat="49.90096" lon="2.26553">
        <ele>27.7</ele>
        <time>2023-01-28T14:00:37Z</time>
      </trkpt>
      <trkpt lat="49.90095" lon="2.26551">
        <ele>27.7</ele>
        <time>2023-01-28T14:00:39Z</time>
      </trkpt>
      <trkpt lat="49.90094" lon="2.2655">
        <ele>27.8</ele>
        <time>2023-01-28T14:00:40Z</time>
      </trkpt>
      <trkpt lat="49.90093" lon="2.26548">
        <ele>27.8</ele>
        <time>2023-01-28T14:00:41Z</time>
      </trkpt>
      <trkpt lat="49.90092" lon="2.26547">
        <ele>27.8</ele>
        <time>2023-01-28T14:00:42Z</time>
      </trkpt>
      <trkpt lat="49.9009" lon="2.26545">
        <ele>27.9</ele>
        <time>2023-01-28T14:00:43Z</time>
      </trkpt>
      <trkpt lat="49.90089" lon="2.26543">
        <ele>27.9</ele>
        <time>2023-01-28T14:00:45Z</time>
      </trkpt>
      <trkpt lat="49.90088" lon="2.26542">
        <ele>27.9</ele>
        <time>2023-01-28T14:00:46Z</time>
      </trkpt>
      <trkpt lat="49.90087" lon="2.2654">
        <ele>27.9</ele>
        <time>2023-01-28T14:00:47Z</time>
      </trkpt>
      <trkpt lat="49.90086" lon="2.26539">
        <ele>28</ele>
        <time>2023-01-28T14:00:48Z</time>
      </trkpt>
      <trkpt lat="49.90086" lon="2.26537">
        <ele>28</ele>
        <time>2023-01-28T14:00:49Z</time>
      </trkpt>
      <trkpt lat="49.90087" lon="2.26535">
        <ele>28</ele>
        <time>2023-01-28T14:00:51Z</time>
      </trkpt>
      <trkpt lat="49.90087" lon="2.26533">
        <ele>28.1</ele>
        <time>2023-01-28T14:00:52Z</time>
      </trkpt>
      <trkpt lat="49.90088" lon="2.26532">
        <ele>28.1</ele>
        <time>2023-01-28T14:00:53Z</time>
      </trkpt>
      <trkpt lat="49.90084" lon="2.26533">
        <ele>28.2</ele>
        <time>2023-01-28T14:00:54Z</time>
      </trkpt>
      <trkpt lat="49.90083" lon="2.26532">
        <ele>28.2</ele>
        <time>2023-01-28T14:00:55Z</time>
      </trkpt>
      <trkpt lat="49.90082" lon="2.2653">
        <ele>28.3</ele>
        <time>2023-01-28T14:00:56Z</time>
      </trkpt>
      <trkpt lat="49.90082" lon="2.26528">
        <ele>28.3</ele>
        <time>2023-01-28T14:00:58Z</time>
      </trkpt>
      <trkpt lat="49.90077" lon="2.26529">
        <ele>28.4</ele>
        <time>2023-01-28T14:00:59Z</time>
      </trkpt>
      <trkpt lat="49.90077" lon="2.26526">
        <ele>28.4</ele>
        <time>2023-01-28T14:01:00Z</time>
      </trkpt>
      <trkpt lat="49.90076" lon="2.26525">
        <ele>28.5</ele>
        <time>2023-01-28T14:01:01Z</time>
      </trkpt>
      <trkpt lat="49.90076" lon="2.26523">
        <ele>28.5</ele>
        <time>2023-01-28T14:01:02Z</time>
      </trkpt>
      <trkpt lat="49.90075" lon="2.26522">
        <ele>28.5</ele>
        <time>2023-01-28T14:01:04Z</time>
      </trkpt>
      <trkpt lat="49.90073" lon="2.26522">
        <ele>28.6</ele>
        <time>2023-01-28T14:01:05Z</time>
      </trkpt>
      <trkpt lat="49.90071" lon="2.26521">
        <ele>28.6</ele>
        <time>2023-01-28T14:01:06Z</time>
      </trkpt>
      <trkpt lat="49.9007" lon="2.2652">
        <ele>28.7</ele>
        <time>2023-01-28T14:01:07Z</time>
      </trkpt>
      <trkpt lat="49.90069" lon="2.26519">
        <ele>28.7</ele>
        <time>2023-01-28T14:01:08Z</time>
      </trkpt>
      <trkpt lat="49.90068" lon="2.26519">
        <ele>28.7</ele>
        <time>2023-01-28T14:01:10Z</time>
      </trkpt>
      <trkpt lat="49.90069" lon="2.26517">
        <ele>28.8</ele>
        <time>2023-01-28T14:01:11Z</time>
      </trkpt>
      <trkpt lat="49.9007" lon="2.26514">
        <ele>28.8</ele>
        <time>2023-01-28T14:01:12Z</time>
      </trkpt>
      <trkpt lat="49.90072" lon="2.26509">
        <ele>28.9</ele>
        <time>2023-01-28T14:01:13Z</time>
      </trkpt>
      <trkpt lat="49.90069" lon="2.26511">
        <ele>29</ele>
        <time>2023-01-28T14:01:14Z</time>
      </trkpt>
      <trkpt lat="49.9007" lon="2.26508">
        <ele>29</ele>
        <time>2023-01-28T14:01:15Z</time>
      </trkpt>
      <trkpt lat="49.90071" lon="2.26505">
        <ele>29</ele>
        <time>2023-01-28T14:01:17Z</time>
      </trkpt>
      <trkpt lat="49.90074" lon="2.26501">
        <ele>29.1</ele>
        <time>2023-01-28T14:01:18Z</time>
      </trkpt>
      <trkpt lat="49.90084" lon="2.26494">
        <ele>29.4</ele>
        <time>2023-01-28T14:01:19Z</time>
      </trkpt>
      <trkpt lat="49.90088" lon="2.26491">
        <ele>29.4</ele>
        <time>2023-01-28T14:01:20Z</time>
      </trkpt>
      <trkpt lat="49.90089" lon="2.2649">
        <ele>29.5</ele>
        <time>2023-01-28T14:01:21Z</time>
      </trkpt>
      <trkpt lat="49.90092" lon="2.26488">
        <ele>29.5</ele>
        <time>2023-01-28T14:01:22Z</time>
      </trkpt>
      <trkpt lat="49.90095" lon="2.26484">
        <ele>29.6</ele>
        <time>2023-01-28T14:01:24Z</time>
      </trkpt>
      <trkpt lat="49.90095" lon="2.26483">
        <ele>29.6</ele>
        <time>2023-01-28T14:01:25Z</time>
      </trkpt>
      <trkpt lat="49.90096" lon="2.26482">
        <ele>29.6</ele>
        <time>2023-01-28T14:01:26Z</time>
      </trkpt>
      <trkpt lat="49.90096" lon="2.2648">
        <ele>29.7</ele>
        <time>2023-01-28T14:01:27Z</time>
      </trkpt>
      <trkpt lat="49.90098" lon="2.26476">
        <ele>29.7</ele>
        <time>2023-01-28T14:01:28Z</time>
      </trkpt>
      <trkpt lat="49.90098" lon="2.26474">
        <ele>29.7</ele>
        <time>2023-01-28T14:01:29Z</time>
      </trkpt>
      <trkpt lat="49.90098" lon="2.26473">
        <ele>29.8</ele>
        <time>2023-01-28T14:01:30Z</time>
      </trkpt>
      <trkpt lat="49.90099" lon="2.26472">
        <ele>29.8</ele>
        <time>2023-01-28T14:01:32Z</time>
      </trkpt>
      <trkpt lat="49.90099" lon="2.26471">
        <ele>29.8</ele>
        <time>2023-01-28T14:01:33Z</time>
      </trkpt>
      <trkpt lat="49.90098" lon="2.26468">
        <ele>29.8</ele>
        <time>2023-01-28T14:01:34Z</time>
      </trkpt>
      <trkpt lat="49.90099" lon="2.26467">
        <ele>29.8</ele>
        <time>2023-01-28T14:01:35Z</time>
      </trkpt>
      <trkpt lat="49.90099" lon="2.26466">
        <ele>29.9</ele>
        <time>2023-01-28T14:01:36Z</time>
      </trkpt>
      <trkpt lat="49.901" lon="2.26465">
        <ele>29.9</ele>
        <time>2023-01-28T14:01:37Z</time>
      </trkpt>
      <trkpt lat="49.901" lon="2.26461">
        <ele>29.9</ele>
        <time>2023-01-28T14:01:39Z</time>
      </trkpt>
      <trkpt lat="49.901" lon="2.2646">
        <ele>29.9</ele>
        <time>2023-01-28T14:01:40Z</time>
      </trkpt>
      <trkpt lat="49.90101" lon="2.26458">
        <ele>30</ele>
        <time>2023-01-28T14:01:41Z</time>
      </trkpt>
      <trkpt lat="49.90101" lon="2.26456">
        <ele>30</ele>
        <time>2023-01-28T14:01:42Z</time>
      </trkpt>
      <trkpt lat="49.90102" lon="2.26451">
        <ele>30.1</ele>
        <time>2023-01-28T14:01:43Z</time>
      </trkpt>
      <trkpt lat="49.90103" lon="2.26451">
        <ele>30.1</ele>
        <time>2023-01-28T14:01:44Z</time>
      </trkpt>
      <trkpt lat="49.90103" lon="2.26449">
        <ele>30.1</ele>
        <time>2023-01-28T14:01:46Z</time>
      </trkpt>
      <trkpt lat="49.90104" lon="2.26448">
        <ele>30.2</ele>
        <time>2023-01-28T14:01:47Z</time>
      </trkpt>
      <trkpt lat="49.90105" lon="2.26446">
        <ele>30.2</ele>
        <time>2023-01-28T14:01:48Z</time>
      </trkpt>
      <trkpt lat="49.90106" lon="2.26443">
        <ele>30.2</ele>
        <time>2023-01-28T14:01:49Z</time>
      </trkpt>
      <trkpt lat="49.90106" lon="2.26442">
        <ele>30.3</ele>
        <time>2023-01-28T14:01:50Z</time>
      </trkpt>
      <trkpt lat="49.90107" lon="2.2644">
        <ele>30.3</ele>
        <time>2023-01-28T14:01:51Z</time>
      </trkpt>
      <trkpt lat="49.90108" lon="2.26439">
        <ele>30.3</ele>
        <time>2023-01-28T14:01:53Z</time>
      </trkpt>
      <trkpt lat="49.90109" lon="2.26436">
        <ele>30.4</ele>
        <time>2023-01-28T14:01:54Z</time>
      </trkpt>
      <trkpt lat="49.9011" lon="2.26435">
        <ele>30.4</ele>
        <time>2023-01-28T14:01:55Z</time>
      </trkpt>
      <trkpt lat="49.9011" lon="2.26434">
        <ele>30.4</ele>
        <time>2023-01-28T14:01:56Z</time>
      </trkpt>
      <trkpt lat="49.90111" lon="2.26433">
        <ele>30.5</ele>
        <time>2023-01-28T14:01:57Z</time>
      </trkpt>
      <trkpt lat="49.90111" lon="2.2643">
        <ele>30.5</ele>
        <time>2023-01-28T14:01:59Z</time>
      </trkpt>
      <trkpt lat="49.90111" lon="2.2643">
        <ele>30.5</ele>
        <time>2023-01-28T14:02:00Z</time>
      </trkpt>
      <trkpt lat="49.90111" lon="2.26428">
        <ele>30.6</ele>
        <time>2023-01-28T14:02:01Z</time>
      </trkpt>
      <trkpt lat="49.90111" lon="2.26426">
        <ele>30.6</ele>
        <time>2023-01-28T14:02:02Z</time>
      </trkpt>
      <trkpt lat="49.90111" lon="2.26425">
        <ele>30.7</ele>
        <time>2023-01-28T14:02:03Z</time>
      </trkpt>
      <trkpt lat="49.90112" lon="2.26422">
        <ele>30.7</ele>
        <time>2023-01-28T14:02:05Z</time>
      </trkpt>
      <trkpt lat="49.90112" lon="2.26421">
        <ele>30.8</ele>
        <time>2023-01-28T14:02:06Z</time>
      </trkpt>
      <trkpt lat="49.90112" lon="2.26419">
        <ele>30.8</ele>
        <time>2023-01-28T14:02:08Z</time>
      </trkpt>
      <trkpt lat="49.90113" lon="2.26417">
        <ele>30.9</ele>
        <time>2023-01-28T14:02:09Z</time>
      </trkpt>
      <trkpt lat="49.90114" lon="2.26415">
        <ele>30.9</ele>
        <time>2023-01-28T14:02:10Z</time>
      </trkpt>
      <trkpt lat="49.90114" lon="2.26414">
        <ele>31</ele>
        <time>2023-01-28T14:02:11Z</time>
      </trkpt>
      <trkpt lat="49.90114" lon="2.26412">
        <ele>31</ele>
        <time>2023-01-28T14:02:12Z</time>
      </trkpt>
      <trkpt lat="49.90114" lon="2.26408">
        <ele>31.1</ele>
        <time>2023-01-28T14:02:13Z</time>
      </trkpt>
      <trkpt lat="49.90114" lon="2.26407">
        <ele>31.2</ele>
        <time>2023-01-28T14:02:15Z</time>
      </trkpt>
      <trkpt lat="49.90114" lon="2.26406">
        <ele>31.2</ele>
        <time>2023-01-28T14:02:16Z</time>
      </trkpt>
      <trkpt lat="49.90113" lon="2.26403">
        <ele>31.3</ele>
        <time>2023-01-28T14:02:17Z</time>
      </trkpt>
      <trkpt lat="49.90113" lon="2.26401">
        <ele>31.3</ele>
        <time>2023-01-28T14:02:18Z</time>
      </trkpt>
      <trkpt lat="49.90113" lon="2.264">
        <ele>31.3</ele>
        <time>2023-01-28T14:02:19Z</time>
      </trkpt>
      <trkpt lat="49.90112" lon="2.26397">
        <ele>31.4</ele>
        <time>2023-01-28T14:02:20Z</time>
      </trkpt>
      <trkpt lat="49.90112" lon="2.26396">
        <ele>31.4</ele>
        <time>2023-01-28T14:02:22Z</time>
      </trkpt>
      <trkpt lat="49.90112" lon="2.26394">
        <ele>31.5</ele>
        <time>2023-01-28T14:02:23Z</time>
      </trkpt>
      <trkpt lat="49.90111" lon="2.26391">
        <ele>31.5</ele>
        <time>2023-01-28T14:02:24Z</time>
      </trkpt>
      <trkpt lat="49.90111" lon="2.2639">
        <ele>31.6</ele>
        <time>2023-01-28T14:02:25Z</time>
      </trkpt>
      <trkpt lat="49.90111" lon="2.26389">
        <ele>31.6</ele>
        <time>2023-01-28T14:02:26Z</time>
      </trkpt>
      <trkpt lat="49.90111" lon="2.26387">
        <ele>31.6</ele>
        <time>2023-01-28T14:02:27Z</time>
      </trkpt>
      <trkpt lat="49.9011" lon="2.26384">
        <ele>31.7</ele>
        <time>2023-01-28T14:02:29Z</time>
      </trkpt>
      <trkpt lat="49.9011" lon="2.26382">
        <ele>31.7</ele>
        <time>2023-01-28T14:02:30Z</time>
      </trkpt>
      <trkpt lat="49.9011" lon="2.26381">
        <ele>31.8</ele>
        <time>2023-01-28T14:02:31Z</time>
      </trkpt>
      <trkpt lat="49.9011" lon="2.26379">
        <ele>31.8</ele>
        <time>2023-01-28T14:02:32Z</time>
      </trkpt>
      <trkpt lat="49.90109" lon="2.26375">
        <ele>31.9</ele>
        <time>2023-01-28T14:02:33Z</time>
      </trkpt>
      <trkpt lat="49.90109" lon="2.26374">
        <ele>31.9</ele>
        <time>2023-01-28T14:02:35Z</time>
      </trkpt>
      <trkpt lat="49.90109" lon="2.26373">
        <ele>32</ele>
        <time>2023-01-28T14:02:36Z</time>
      </trkpt>
      <trkpt lat="49.90109" lon="2.2637">
        <ele>32</ele>
        <time>2023-01-28T14:02:37Z</time>
      </trkpt>
      <trkpt lat="49.90108" lon="2.26368">
        <ele>32.1</ele>
        <time>2023-01-28T14:02:38Z</time>
      </trkpt>
      <trkpt lat="49.90108" lon="2.26367">
        <ele>32.1</ele>
        <time>2023-01-28T14:02:39Z</time>
      </trkpt>
      <trkpt lat="49.90108" lon="2.26365">
        <ele>32.1</ele>
        <time>2023-01-28T14:02:41Z</time>
      </trkpt>
      <trkpt lat="49.90108" lon="2.26364">
        <ele>32.2</ele>
        <time>2023-01-28T14:02:42Z</time>
      </trkpt>
      <trkpt lat="49.90107" lon="2.26362">
        <ele>32.2</ele>
        <time>2023-01-28T14:02:43Z</time>
      </trkpt>
      <trkpt lat="49.90106" lon="2.26359">
        <ele>32.3</ele>
        <time>2023-01-28T14:02:44Z</time>
      </trkpt>
      <trkpt lat="49.90106" lon="2.26358">
        <ele>32.3</ele>
        <time>2023-01-28T14:02:45Z</time>
      </trkpt>
      <trkpt lat="49.90106" lon="2.26357">
        <ele>32.3</ele>
        <time>2023-01-28T14:02:47Z</time>
      </trkpt>
      <trkpt lat="49.90105" lon="2.26356">
        <ele>32.4</ele>
        <time>2023-01-28T14:02:48Z</time>
      </trkpt>
      <trkpt lat="49.90105" lon="2.26354">
        <ele>32.4</ele>
        <time>2023-01-28T14:02:49Z</time>
      </trkpt>
      <trkpt lat="49.90105" lon="2.26353">
        <ele>32.4</ele>
        <time>2023-01-28T14:02:50Z</time>
      </trkpt>
      <trkpt lat="49.90104" lon="2.26352">
        <ele>32.4</ele>
        <time>2023-01-28T14:02:51Z</time>
      </trkpt>
      <trkpt lat="49.90103" lon="2.2635">
        <ele>32.5</ele>
        <time>2023-01-28T14:02:52Z</time>
      </trkpt>
      <trkpt lat="49.90103" lon="2.26349">
        <ele>32.5</ele>
        <time>2023-01-28T14:02:53Z</time>
      </trkpt>
      <trkpt lat="49.90102" lon="2.26348">
        <ele>32.5</ele>
        <time>2023-01-28T14:02:54Z</time>
      </trkpt>
      <trkpt lat="49.90101" lon="2.26346">
        <ele>32.6</ele>
        <time>2023-01-28T14:02:56Z</time>
      </trkpt>
      <trkpt lat="49.90101" lon="2.26345">
        <ele>32.6</ele>
        <time>2023-01-28T14:02:57Z</time>
      </trkpt>
      <trkpt lat="49.901" lon="2.26344">
        <ele>32.7</ele>
        <time>2023-01-28T14:02:58Z</time>
      </trkpt>
      <trkpt lat="49.901" lon="2.26342">
        <ele>32.7</ele>
        <time>2023-01-28T14:02:59Z</time>
      </trkpt>
      <trkpt lat="49.90099" lon="2.26341">
        <ele>32.7</ele>
        <time>2023-01-28T14:03:00Z</time>
      </trkpt>
      <trkpt lat="49.90099" lon="2.2634">
        <ele>32.7</ele>
        <time>2023-01-28T14:03:02Z</time>
      </trkpt>
      <trkpt lat="49.90099" lon="2.26338">
        <ele>32.8</ele>
        <time>2023-01-28T14:03:03Z</time>
      </trkpt>
      <trkpt lat="49.90098" lon="2.26336">
        <ele>32.8</ele>
        <time>2023-01-28T14:03:04Z</time>
      </trkpt>
      <trkpt lat="49.90097" lon="2.26335">
        <ele>32.8</ele>
        <time>2023-01-28T14:03:05Z</time>
      </trkpt>
      <trkpt lat="49.90097" lon="2.26334">
        <ele>32.9</ele>
        <time>2023-01-28T14:03:06Z</time>
      </trkpt>
      <trkpt lat="49.90097" lon="2.26332">
        <ele>32.9</ele>
        <time>2023-01-28T14:03:07Z</time>
      </trkpt>
      <trkpt lat="49.90097" lon="2.26331">
        <ele>32.9</ele>
        <time>2023-01-28T14:03:08Z</time>
      </trkpt>
      <trkpt lat="49.90096" lon="2.26328">
        <ele>32.9</ele>
        <time>2023-01-28T14:03:10Z</time>
      </trkpt>
      <trkpt lat="49.90096" lon="2.26327">
        <ele>32.9</ele>
        <time>2023-01-28T14:03:11Z</time>
      </trkpt>
      <trkpt lat="49.90096" lon="2.26325">
        <ele>32.9</ele>
        <time>2023-01-28T14:03:12Z</time>
      </trkpt>
      <trkpt lat="49.90095" lon="2.26324">
        <ele>32.9</ele>
        <time>2023-01-28T14:03:13Z</time>
      </trkpt>
      <trkpt lat="49.90095" lon="2.26322">
        <ele>32.9</ele>
        <time>2023-01-28T14:03:14Z</time>
      </trkpt>
      <trkpt lat="49.90095" lon="2.2632">
        <ele>32.9</ele>
        <time>2023-01-28T14:03:15Z</time>
      </trkpt>
      <trkpt lat="49.90094" lon="2.26319">
        <ele>32.9</ele>
        <time>2023-01-28T14:03:17Z</time>
      </trkpt>
      <trkpt lat="49.90094" lon="2.26318">
        <ele>32.9</ele>
        <time>2023-01-28T14:03:18Z</time>
      </trkpt>
      <trkpt lat="49.90093" lon="2.26315">
        <ele>32.8</ele>
        <time>2023-01-28T14:03:19Z</time>
      </trkpt>
      <trkpt lat="49.90093" lon="2.26314">
        <ele>32.8</ele>
        <time>2023-01-28T14:03:20Z</time>
      </trkpt>
      <trkpt lat="49.90093" lon="2.26313">
        <ele>32.8</ele>
        <time>2023-01-28T14:03:21Z</time>
      </trkpt>
      <trkpt lat="49.90093" lon="2.26311">
        <ele>32.8</ele>
        <time>2023-01-28T14:03:22Z</time>
      </trkpt>
      <trkpt lat="49.90093" lon="2.2631">
        <ele>32.8</ele>
        <time>2023-01-28T14:03:24Z</time>
      </trkpt>
      <trkpt lat="49.90093" lon="2.26308">
        <ele>32.8</ele>
        <time>2023-01-28T14:03:25Z</time>
      </trkpt>
      <trkpt lat="49.90094" lon="2.26307">
        <ele>32.8</ele>
        <time>2023-01-28T14:03:26Z</time>
      </trkpt>
      <trkpt lat="49.90094" lon="2.26305">
        <ele>32.8</ele>
        <time>2023-01-28T14:03:27Z</time>
      </trkpt>
      <trkpt lat="49.90093" lon="2.26303">
        <ele>32.8</ele>
        <time>2023-01-28T14:03:28Z</time>
      </trkpt>
      <trkpt lat="49.90093" lon="2.26301">
        <ele>32.8</ele>
        <time>2023-01-28T14:03:29Z</time>
      </trkpt>
      <trkpt lat="49.90093" lon="2.263">
        <ele>32.8</ele>
        <time>2023-01-28T14:03:31Z</time>
      </trkpt>
      <trkpt lat="49.90093" lon="2.26298">
        <ele>32.8</ele>
        <time>2023-01-28T14:03:32Z</time>
      </trkpt>
      <trkpt lat="49.90092" lon="2.26297">
        <ele>32.8</ele>
        <time>2023-01-28T14:03:33Z</time>
      </trkpt>
      <trkpt lat="49.90092" lon="2.26295">
        <ele>32.7</ele>
        <time>2023-01-28T14:03:34Z</time>
      </trkpt>
      <trkpt lat="49.90092" lon="2.26294">
        <ele>32.7</ele>
        <time>2023-01-28T14:03:35Z</time>
      </trkpt>
      <trkpt lat="49.90092" lon="2.26292">
        <ele>32.7</ele>
        <time>2023-01-28T14:03:36Z</time>
      </trkpt>
      <trkpt lat="49.90092" lon="2.2629">
        <ele>32.7</ele>
        <time>2023-01-28T14:03:37Z</time>
      </trkpt>
      <trkpt lat="49.90092" lon="2.26288">
        <ele>32.7</ele>
        <time>2023-01-28T14:03:38Z</time>
      </trkpt>
      <trkpt lat="49.90092" lon="2.26286">
        <ele>32.7</ele>
        <time>2023-01-28T14:03:40Z</time>
      </trkpt>
      <trkpt lat="49.90092" lon="2.26285">
        <ele>32.7</ele>
        <time>2023-01-28T14:03:41Z</time>
      </trkpt>
      <trkpt lat="49.90092" lon="2.26283">
        <ele>32.7</ele>
        <time>2023-01-28T14:03:42Z</time>
      </trkpt>
      <trkpt lat="49.90092" lon="2.26282">
        <ele>32.7</ele>
        <time>2023-01-28T14:03:43Z</time>
      </trkpt>
      <trkpt lat="49.90091" lon="2.26278">
        <ele>32.7</ele>
        <time>2023-01-28T14:03:44Z</time>
      </trkpt>
      <trkpt lat="49.90091" lon="2.26277">
        <ele>32.7</ele>
        <time>2023-01-28T14:03:45Z</time>
      </trkpt>
      <trkpt lat="49.90091" lon="2.26276">
        <ele>32.7</ele>
        <time>2023-01-28T14:03:46Z</time>
      </trkpt>
      <trkpt lat="49.90091" lon="2.26274">
        <ele>32.7</ele>
        <time>2023-01-28T14:03:47Z</time>
      </trkpt>
      <trkpt lat="49.90091" lon="2.26272">
        <ele>32.6</ele>
        <time>2023-01-28T14:03:49Z</time>
      </trkpt>
      <trkpt lat="49.90091" lon="2.2627">
        <ele>32.6</ele>
        <time>2023-01-28T14:03:50Z</time>
      </trkpt>
      <trkpt lat="49.90091" lon="2.26269">
        <ele>32.6</ele>
        <time>2023-01-28T14:03:51Z</time>
      </trkpt>
      <trkpt lat="49.9009" lon="2.26267">
        <ele>32.6</ele>
        <time>2023-01-28T14:03:52Z</time>
      </trkpt>
      <trkpt lat="49.9009" lon="2.26266">
        <ele>32.6</ele>
        <time>2023-01-28T14:03:53Z</time>
      </trkpt>
      <trkpt lat="49.9009" lon="2.26262">
        <ele>32.6</ele>
        <time>2023-01-28T14:03:54Z</time>
      </trkpt>
      <trkpt lat="49.9009" lon="2.26261">
        <ele>32.6</ele>
        <time>2023-01-28T14:03:55Z</time>
      </trkpt>
      <trkpt lat="49.9009" lon="2.2626">
        <ele>32.6</ele>
        <time>2023-01-28T14:03:56Z</time>
      </trkpt>
      <trkpt lat="49.9009" lon="2.26257">
        <ele>32.6</ele>
        <time>2023-01-28T14:03:58Z</time>
      </trkpt>
      <trkpt lat="49.9009" lon="2.26255">
        <ele>32.6</ele>
        <time>2023-01-28T14:03:59Z</time>
      </trkpt>
      <trkpt lat="49.9009" lon="2.26254">
        <ele>32.6</ele>
        <time>2023-01-28T14:04:00Z</time>
      </trkpt>
      <trkpt lat="49.9009" lon="2.26251">
        <ele>32.5</ele>
        <time>2023-01-28T14:04:01Z</time>
      </trkpt>
      <trkpt lat="49.9009" lon="2.26249">
        <ele>32.5</ele>
        <time>2023-01-28T14:04:02Z</time>
      </trkpt>
      <trkpt lat="49.9009" lon="2.26248">
        <ele>32.5</ele>
        <time>2023-01-28T14:04:03Z</time>
      </trkpt>
      <trkpt lat="49.90091" lon="2.26246">
        <ele>32.5</ele>
        <time>2023-01-28T14:04:05Z</time>
      </trkpt>
      <trkpt lat="49.90091" lon="2.26244">
        <ele>32.5</ele>
        <time>2023-01-28T14:04:06Z</time>
      </trkpt>
      <trkpt lat="49.90091" lon="2.26243">
        <ele>32.5</ele>
        <time>2023-01-28T14:04:07Z</time>
      </trkpt>
      <trkpt lat="49.90091" lon="2.26239">
        <ele>32.5</ele>
        <time>2023-01-28T14:04:08Z</time>
      </trkpt>
      <trkpt lat="49.90091" lon="2.26237">
        <ele>32.5</ele>
        <time>2023-01-28T14:04:09Z</time>
      </trkpt>
      <trkpt lat="49.90091" lon="2.26236">
        <ele>32.5</ele>
        <time>2023-01-28T14:04:10Z</time>
      </trkpt>
      <trkpt lat="49.90091" lon="2.26234">
        <ele>32.5</ele>
        <time>2023-01-28T14:04:11Z</time>
      </trkpt>
      <trkpt lat="49.90091" lon="2.26232">
        <ele>32.5</ele>
        <time>2023-01-28T14:04:13Z</time>
      </trkpt>
      <trkpt lat="49.9009" lon="2.26231">
        <ele>32.5</ele>
        <time>2023-01-28T14:04:14Z</time>
      </trkpt>
      <trkpt lat="49.9009" lon="2.26228">
        <ele>32.5</ele>
        <time>2023-01-28T14:04:15Z</time>
      </trkpt>
      <trkpt lat="49.9009" lon="2.26225">
        <ele>32.4</ele>
        <time>2023-01-28T14:04:16Z</time>
      </trkpt>
      <trkpt lat="49.9009" lon="2.26223">
        <ele>32.4</ele>
        <time>2023-01-28T14:04:17Z</time>
      </trkpt>
      <trkpt lat="49.9009" lon="2.26222">
        <ele>32.4</ele>
        <time>2023-01-28T14:04:18Z</time>
      </trkpt>
      <trkpt lat="49.9009" lon="2.26217">
        <ele>32.4</ele>
        <time>2023-01-28T14:04:19Z</time>
      </trkpt>
      <trkpt lat="49.9009" lon="2.26216">
        <ele>32.4</ele>
        <time>2023-01-28T14:04:21Z</time>
      </trkpt>
      <trkpt lat="49.9009" lon="2.26214">
        <ele>32.4</ele>
        <time>2023-01-28T14:04:22Z</time>
      </trkpt>
      <trkpt lat="49.9009" lon="2.26213">
        <ele>32.4</ele>
        <time>2023-01-28T14:04:23Z</time>
      </trkpt>
      <trkpt lat="49.9009" lon="2.26212">
        <ele>32.4</ele>
        <time>2023-01-28T14:04:24Z</time>
      </trkpt>
      <trkpt lat="49.9009" lon="2.26208">
        <ele>32.4</ele>
        <time>2023-01-28T14:04:25Z</time>
      </trkpt>
      <trkpt lat="49.90089" lon="2.26206">
        <ele>32.4</ele>
        <time>2023-01-28T14:04:26Z</time>
      </trkpt>
      <trkpt lat="49.90089" lon="2.26202">
        <ele>32.4</ele>
        <time>2023-01-28T14:04:28Z</time>
      </trkpt>
      <trkpt lat="49.90089" lon="2.26201">
        <ele>32.4</ele>
        <time>2023-01-28T14:04:29Z</time>
      </trkpt>
      <trkpt lat="49.90089" lon="2.262">
        <ele>32.4</ele>
        <time>2023-01-28T14:04:30Z</time>
      </trkpt>
      <trkpt lat="49.90089" lon="2.26196">
        <ele>32.4</ele>
        <time>2023-01-28T14:04:31Z</time>
      </trkpt>
      <trkpt lat="49.90089" lon="2.26195">
        <ele>32.4</ele>
        <time>2023-01-28T14:04:32Z</time>
      </trkpt>
      <trkpt lat="49.90089" lon="2.26194">
        <ele>32.4</ele>
        <time>2023-01-28T14:04:33Z</time>
      </trkpt>
      <trkpt lat="49.90089" lon="2.2619">
        <ele>32.4</ele>
        <time>2023-01-28T14:04:34Z</time>
      </trkpt>
      <trkpt lat="49.90089" lon="2.26189">
        <ele>32.4</ele>
        <time>2023-01-28T14:04:35Z</time>
      </trkpt>
      <trkpt lat="49.90089" lon="2.26188">
        <ele>32.4</ele>
        <time>2023-01-28T14:04:37Z</time>
      </trkpt>
      <trkpt lat="49.90089" lon="2.26186">
        <ele>32.4</ele>
        <time>2023-01-28T14:04:38Z</time>
      </trkpt>
      <trkpt lat="49.90089" lon="2.26185">
        <ele>32.4</ele>
        <time>2023-01-28T14:04:39Z</time>
      </trkpt>
      <trkpt lat="49.90088" lon="2.26182">
        <ele>32.4</ele>
        <time>2023-01-28T14:04:40Z</time>
      </trkpt>
      <trkpt lat="49.90088" lon="2.2618">
        <ele>32.4</ele>
        <time>2023-01-28T14:04:41Z</time>
      </trkpt>
      <trkpt lat="49.90088" lon="2.26177">
        <ele>32.4</ele>
        <time>2023-01-28T14:04:42Z</time>
      </trkpt>
      <trkpt lat="49.90088" lon="2.26176">
        <ele>32.4</ele>
        <time>2023-01-28T14:04:44Z</time>
      </trkpt>
      <trkpt lat="49.90089" lon="2.26174">
        <ele>32.4</ele>
        <time>2023-01-28T14:04:45Z</time>
      </trkpt>
      <trkpt lat="49.90088" lon="2.26171">
        <ele>32.4</ele>
        <time>2023-01-28T14:04:46Z</time>
      </trkpt>
      <trkpt lat="49.90088" lon="2.2617">
        <ele>32.4</ele>
        <time>2023-01-28T14:04:47Z</time>
      </trkpt>
      <trkpt lat="49.90088" lon="2.26169">
        <ele>32.4</ele>
        <time>2023-01-28T14:04:48Z</time>
      </trkpt>
      <trkpt lat="49.90088" lon="2.26165">
        <ele>32.4</ele>
        <time>2023-01-28T14:04:49Z</time>
      </trkpt>
      <trkpt lat="49.90088" lon="2.26165">
        <ele>32.4</ele>
        <time>2023-01-28T14:04:51Z</time>
      </trkpt>
      <trkpt lat="49.90088" lon="2.26164">
        <ele>32.4</ele>
        <time>2023-01-28T14:04:52Z</time>
      </trkpt>
      <trkpt lat="49.90088" lon="2.26161">
        <ele>32.5</ele>
        <time>2023-01-28T14:04:53Z</time>
      </trkpt>
      <trkpt lat="49.90088" lon="2.26159">
        <ele>32.5</ele>
        <time>2023-01-28T14:04:54Z</time>
      </trkpt>
      <trkpt lat="49.90088" lon="2.26158">
        <ele>32.5</ele>
        <time>2023-01-28T14:04:55Z</time>
      </trkpt>
      <trkpt lat="49.90088" lon="2.26156">
        <ele>32.5</ele>
        <time>2023-01-28T14:04:56Z</time>
      </trkpt>
      <trkpt lat="49.90088" lon="2.26154">
        <ele>32.5</ele>
        <time>2023-01-28T14:04:58Z</time>
      </trkpt>
      <trkpt lat="49.90088" lon="2.26153">
        <ele>32.5</ele>
        <time>2023-01-28T14:04:59Z</time>
      </trkpt>
      <trkpt lat="49.90088" lon="2.26149">
        <ele>32.5</ele>
        <time>2023-01-28T14:05:00Z</time>
      </trkpt>
      <trkpt lat="49.90088" lon="2.26148">
        <ele>32.5</ele>
        <time>2023-01-28T14:05:01Z</time>
      </trkpt>
      <trkpt lat="49.90088" lon="2.26147">
        <ele>32.5</ele>
        <time>2023-01-28T14:05:02Z</time>
      </trkpt>
      <trkpt lat="49.90088" lon="2.26143">
        <ele>32.5</ele>
        <time>2023-01-28T14:05:03Z</time>
      </trkpt>
      <trkpt lat="49.90088" lon="2.26142">
        <ele>32.5</ele>
        <time>2023-01-28T14:05:05Z</time>
      </trkpt>
      <trkpt lat="49.90088" lon="2.2614">
        <ele>32.5</ele>
        <time>2023-01-28T14:05:06Z</time>
      </trkpt>
      <trkpt lat="49.90088" lon="2.26139">
        <ele>32.5</ele>
        <time>2023-01-28T14:05:07Z</time>
      </trkpt>
      <trkpt lat="49.90087" lon="2.26137">
        <ele>32.5</ele>
        <time>2023-01-28T14:05:08Z</time>
      </trkpt>
      <trkpt lat="49.90087" lon="2.26136">
        <ele>32.5</ele>
        <time>2023-01-28T14:05:09Z</time>
      </trkpt>
      <trkpt lat="49.90087" lon="2.26134">
        <ele>32.4</ele>
        <time>2023-01-28T14:05:10Z</time>
      </trkpt>
      <trkpt lat="49.90087" lon="2.26133">
        <ele>32.4</ele>
        <time>2023-01-28T14:05:11Z</time>
      </trkpt>
      <trkpt lat="49.90087" lon="2.26131">
        <ele>32.4</ele>
        <time>2023-01-28T14:05:13Z</time>
      </trkpt>
      <trkpt lat="49.90087" lon="2.26129">
        <ele>32.4</ele>
        <time>2023-01-28T14:05:14Z</time>
      </trkpt>
      <trkpt lat="49.90087" lon="2.26127">
        <ele>32.4</ele>
        <time>2023-01-28T14:05:15Z</time>
      </trkpt>
      <trkpt lat="49.90087" lon="2.26126">
        <ele>32.4</ele>
        <time>2023-01-28T14:05:16Z</time>
      </trkpt>
      <trkpt lat="49.90087" lon="2.26124">
        <ele>32.4</ele>
        <time>2023-01-28T14:05:17Z</time>
      </trkpt>
      <trkpt lat="49.90086" lon="2.26122">
        <ele>32.4</ele>
        <time>2023-01-28T14:05:18Z</time>
      </trkpt>
      <trkpt lat="49.90086" lon="2.26119">
        <ele>32.4</ele>
        <time>2023-01-28T14:05:20Z</time>
      </trkpt>
      <trkpt lat="49.90086" lon="2.26119">
        <ele>32.3</ele>
        <time>2023-01-28T14:05:21Z</time>
      </trkpt>
      <trkpt lat="49.90086" lon="2.26117">
        <ele>32.3</ele>
        <time>2023-01-28T14:05:22Z</time>
      </trkpt>
      <trkpt lat="49.90086" lon="2.26115">
        <ele>32.3</ele>
        <time>2023-01-28T14:05:23Z</time>
      </trkpt>
      <trkpt lat="49.90086" lon="2.26112">
        <ele>32.3</ele>
        <time>2023-01-28T14:05:24Z</time>
      </trkpt>
      <trkpt lat="49.90086" lon="2.2611">
        <ele>32.4</ele>
        <time>2023-01-28T14:05:25Z</time>
      </trkpt>
      <trkpt lat="49.90086" lon="2.26108">
        <ele>32.5</ele>
        <time>2023-01-28T14:05:26Z</time>
      </trkpt>
      <trkpt lat="49.90087" lon="2.26106">
        <ele>32.6</ele>
        <time>2023-01-28T14:05:28Z</time>
      </trkpt>
      <trkpt lat="49.90087" lon="2.26105">
        <ele>32.6</ele>
        <time>2023-01-28T14:05:29Z</time>
      </trkpt>
      <trkpt lat="49.90086" lon="2.26102">
        <ele>32.7</ele>
        <time>2023-01-28T14:05:30Z</time>
      </trkpt>
      <trkpt lat="49.90086" lon="2.26101">
        <ele>32.8</ele>
        <time>2023-01-28T14:05:31Z</time>
      </trkpt>
      <trkpt lat="49.90086" lon="2.26101">
        <ele>32.9</ele>
        <time>2023-01-28T14:05:32Z</time>
      </trkpt>
      <trkpt lat="49.90086" lon="2.26099">
        <ele>33</ele>
        <time>2023-01-28T14:05:33Z</time>
      </trkpt>
      <trkpt lat="49.90086" lon="2.26099">
        <ele>33.1</ele>
        <time>2023-01-28T14:05:34Z</time>
      </trkpt>
      <trkpt lat="49.90087" lon="2.26097">
        <ele>33.2</ele>
        <time>2023-01-28T14:05:36Z</time>
      </trkpt>
      <trkpt lat="49.90087" lon="2.26096">
        <ele>33.3</ele>
        <time>2023-01-28T14:05:37Z</time>
      </trkpt>
      <trkpt lat="49.90087" lon="2.26094">
        <ele>33.4</ele>
        <time>2023-01-28T14:05:38Z</time>
      </trkpt>
      <trkpt lat="49.90086" lon="2.26093">
        <ele>33.5</ele>
        <time>2023-01-28T14:05:39Z</time>
      </trkpt>
      <trkpt lat="49.90086" lon="2.2609">
        <ele>33.6</ele>
        <time>2023-01-28T14:05:40Z</time>
      </trkpt>
      <trkpt lat="49.90086" lon="2.26089">
        <ele>33.6</ele>
        <time>2023-01-28T14:05:41Z</time>
      </trkpt>
      <trkpt lat="49.90086" lon="2.26088">
        <ele>33.7</ele>
        <time>2023-01-28T14:05:42Z</time>
      </trkpt>
      <trkpt lat="49.90086" lon="2.26087">
        <ele>33.8</ele>
        <time>2023-01-28T14:05:44Z</time>
      </trkpt>
      <trkpt lat="49.90086" lon="2.26085">
        <ele>33.9</ele>
        <time>2023-01-28T14:05:45Z</time>
      </trkpt>
      <trkpt lat="49.90086" lon="2.26085">
        <ele>34</ele>
        <time>2023-01-28T14:05:46Z</time>
      </trkpt>
      <trkpt lat="49.90086" lon="2.26084">
        <ele>34.1</ele>
        <time>2023-01-28T14:05:47Z</time>
      </trkpt>
      <trkpt lat="49.90086" lon="2.26083">
        <ele>34.3</ele>
        <time>2023-01-28T14:05:48Z</time>
      </trkpt>
      <trkpt lat="49.90086" lon="2.26081">
        <ele>34.4</ele>
        <time>2023-01-28T14:05:50Z</time>
      </trkpt>
      <trkpt lat="49.90085" lon="2.26082">
        <ele>34.5</ele>
        <time>2023-01-28T14:05:51Z</time>
      </trkpt>
      <trkpt lat="49.90085" lon="2.26082">
        <ele>34.6</ele>
        <time>2023-01-28T14:05:52Z</time>
      </trkpt>
      <trkpt lat="49.90084" lon="2.26082">
        <ele>34.7</ele>
        <time>2023-01-28T14:05:53Z</time>
      </trkpt>
      <trkpt lat="49.90083" lon="2.26082">
        <ele>34.7</ele>
        <time>2023-01-28T14:05:54Z</time>
      </trkpt>
      <trkpt lat="49.90082" lon="2.26082">
        <ele>34.9</ele>
        <time>2023-01-28T14:05:55Z</time>
      </trkpt>
      <trkpt lat="49.90082" lon="2.26082">
        <ele>35</ele>
        <time>2023-01-28T14:05:57Z</time>
      </trkpt>
      <trkpt lat="49.90082" lon="2.26081">
        <ele>35</ele>
        <time>2023-01-28T14:05:58Z</time>
      </trkpt>
      <trkpt lat="49.90082" lon="2.2608">
        <ele>35.1</ele>
        <time>2023-01-28T14:05:59Z</time>
      </trkpt>
      <trkpt lat="49.90081" lon="2.26078">
        <ele>35.2</ele>
        <time>2023-01-28T14:06:00Z</time>
      </trkpt>
      <trkpt lat="49.90081" lon="2.26078">
        <ele>35.3</ele>
        <time>2023-01-28T14:06:01Z</time>
      </trkpt>
      <trkpt lat="49.90081" lon="2.26077">
        <ele>35.4</ele>
        <time>2023-01-28T14:06:02Z</time>
      </trkpt>
      <trkpt lat="49.90081" lon="2.26077">
        <ele>35.5</ele>
        <time>2023-01-28T14:06:04Z</time>
      </trkpt>
      <trkpt lat="49.90081" lon="2.26075">
        <ele>35.5</ele>
        <time>2023-01-28T14:06:05Z</time>
      </trkpt>
      <trkpt lat="49.90081" lon="2.26074">
        <ele>35.6</ele>
        <time>2023-01-28T14:06:06Z</time>
      </trkpt>
      <trkpt lat="49.90081" lon="2.26074">
        <ele>35.7</ele>
        <time>2023-01-28T14:06:07Z</time>
      </trkpt>
      <trkpt lat="49.90081" lon="2.26073">
        <ele>35.8</ele>
        <time>2023-01-28T14:06:08Z</time>
      </trkpt>
      <trkpt lat="49.90081" lon="2.26072">
        <ele>35.9</ele>
        <time>2023-01-28T14:06:10Z</time>
      </trkpt>
      <trkpt lat="49.90082" lon="2.26071">
        <ele>36</ele>
        <time>2023-01-28T14:06:11Z</time>
      </trkpt>
      <trkpt lat="49.90082" lon="2.26071">
        <ele>36</ele>
        <time>2023-01-28T14:06:12Z</time>
      </trkpt>
      <trkpt lat="49.90082" lon="2.2607">
        <ele>36.1</ele>
        <time>2023-01-28T14:06:13Z</time>
      </trkpt>
      <trkpt lat="49.90083" lon="2.26069">
        <ele>36.1</ele>
        <time>2023-01-28T14:06:14Z</time>
      </trkpt>
      <trkpt lat="49.90083" lon="2.26067">
        <ele>36.1</ele>
        <time>2023-01-28T14:06:15Z</time>
      </trkpt>
      <trkpt lat="49.90083" lon="2.26066">
        <ele>36.2</ele>
        <time>2023-01-28T14:06:17Z</time>
      </trkpt>
      <trkpt lat="49.90083" lon="2.26065">
        <ele>36.2</ele>
        <time>2023-01-28T14:06:18Z</time>
      </trkpt>
      <trkpt lat="49.90083" lon="2.26063">
        <ele>36.2</ele>
        <time>2023-01-28T14:06:19Z</time>
      </trkpt>
      <trkpt lat="49.90084" lon="2.26062">
        <ele>36.2</ele>
        <time>2023-01-28T14:06:20Z</time>
      </trkpt>
      <trkpt lat="49.90084" lon="2.26061">
        <ele>36.2</ele>
        <time>2023-01-28T14:06:21Z</time>
      </trkpt>
      <trkpt lat="49.90084" lon="2.26059">
        <ele>36.2</ele>
        <time>2023-01-28T14:06:22Z</time>
      </trkpt>
      <trkpt lat="49.90084" lon="2.26058">
        <ele>36.2</ele>
        <time>2023-01-28T14:06:24Z</time>
      </trkpt>
      <trkpt lat="49.90084" lon="2.26057">
        <ele>36.3</ele>
        <time>2023-01-28T14:06:25Z</time>
      </trkpt>
      <trkpt lat="49.90084" lon="2.26055">
        <ele>36.3</ele>
        <time>2023-01-28T14:06:26Z</time>
      </trkpt>
      <trkpt lat="49.90083" lon="2.26052">
        <ele>36.3</ele>
        <time>2023-01-28T14:06:27Z</time>
      </trkpt>
      <trkpt lat="49.90083" lon="2.2605">
        <ele>36.3</ele>
        <time>2023-01-28T14:06:28Z</time>
      </trkpt>
      <trkpt lat="49.90083" lon="2.26049">
        <ele>36.3</ele>
        <time>2023-01-28T14:06:30Z</time>
      </trkpt>
      <trkpt lat="49.90083" lon="2.26047">
        <ele>36.4</ele>
        <time>2023-01-28T14:06:31Z</time>
      </trkpt>
      <trkpt lat="49.90083" lon="2.26045">
        <ele>36.4</ele>
        <time>2023-01-28T14:06:32Z</time>
      </trkpt>
      <trkpt lat="49.90083" lon="2.26044">
        <ele>36.4</ele>
        <time>2023-01-28T14:06:33Z</time>
      </trkpt>
      <trkpt lat="49.90083" lon="2.26042">
        <ele>36.4</ele>
        <time>2023-01-28T14:06:34Z</time>
      </trkpt>
      <trkpt lat="49.90082" lon="2.26039">
        <ele>36.5</ele>
        <time>2023-01-28T14:06:36Z</time>
      </trkpt>
      <trkpt lat="49.90082" lon="2.26037">
        <ele>36.5</ele>
        <time>2023-01-28T14:06:38Z</time>
      </trkpt>
      <trkpt lat="49.90081" lon="2.26036">
        <ele>36.5</ele>
        <time>2023-01-28T14:06:39Z</time>
      </trkpt>
      <trkpt lat="49.90081" lon="2.26035">
        <ele>36.5</ele>
        <time>2023-01-28T14:06:40Z</time>
      </trkpt>
      <trkpt lat="49.90082" lon="2.26035">
        <ele>36.5</ele>
        <time>2023-01-28T14:06:42Z</time>
      </trkpt>
      <trkpt lat="49.90082" lon="2.26035">
        <ele>36.5</ele>
        <time>2023-01-28T14:06:43Z</time>
      </trkpt>
      <trkpt lat="49.90083" lon="2.26036">
        <ele>36.5</ele>
        <time>2023-01-28T14:06:45Z</time>
      </trkpt>
      <trkpt lat="49.90083" lon="2.26036">
        <ele>36.5</ele>
        <time>2023-01-28T14:06:46Z</time>
      </trkpt>
      <trkpt lat="49.90083" lon="2.26037">
        <ele>36.5</ele>
        <time>2023-01-28T14:06:48Z</time>
      </trkpt>
      <trkpt lat="49.90082" lon="2.26038">
        <ele>36.5</ele>
        <time>2023-01-28T14:06:49Z</time>
      </trkpt>
      <trkpt lat="49.90082" lon="2.26038">
        <ele>36.5</ele>
        <time>2023-01-28T14:06:50Z</time>
      </trkpt>
      <trkpt lat="49.90082" lon="2.26038">
        <ele>36.5</ele>
        <time>2023-01-28T14:06:52Z</time>
      </trkpt>
      <trkpt lat="49.90082" lon="2.26038">
        <ele>36.5</ele>
        <time>2023-01-28T14:06:53Z</time>
      </trkpt>
      <trkpt lat="49.90082" lon="2.26038">
        <ele>36.6</ele>
        <time>2023-01-28T14:06:55Z</time>
      </trkpt>
      <trkpt lat="49.90082" lon="2.26039">
        <ele>36.6</ele>
        <time>2023-01-28T14:06:56Z</time>
      </trkpt>
      <trkpt lat="49.90082" lon="2.26039">
        <ele>36.6</ele>
        <time>2023-01-28T14:06:57Z</time>
      </trkpt>
      <trkpt lat="49.90082" lon="2.26039">
        <ele>36.6</ele>
        <time>2023-01-28T14:06:58Z</time>
      </trkpt>
      <trkpt lat="49.90083" lon="2.26039">
        <ele>36.6</ele>
        <time>2023-01-28T14:06:59Z</time>
      </trkpt>
      <trkpt lat="49.90083" lon="2.26039">
        <ele>36.6</ele>
        <time>2023-01-28T14:07:00Z</time>
      </trkpt>
      <trkpt lat="49.90083" lon="2.26039">
        <ele>36.6</ele>
        <time>2023-01-28T14:07:01Z</time>
      </trkpt>
      <trkpt lat="49.90083" lon="2.26039">
        <ele>36.6</ele>
        <time>2023-01-28T14:07:02Z</time>
      </trkpt>
      <trkpt lat="49.90083" lon="2.26039">
        <ele>36.6</ele>
        <time>2023-01-28T14:07:03Z</time>
      </trkpt>
      <trkpt lat="49.90083" lon="2.26039">
        <ele>36.6</ele>
        <time>2023-01-28T14:07:04Z</time>
      </trkpt>
      <trkpt lat="49.90083" lon="2.26039">
        <ele>36.6</ele>
        <time>2023-01-28T14:07:05Z</time>
      </trkpt>
      <trkpt lat="49.90083" lon="2.26039">
        <ele>36.6</ele>
        <time>2023-01-28T14:07:06Z</time>
      </trkpt>
      <trkpt lat="49.90083" lon="2.26039">
        <ele>36.6</ele>
        <time>2023-01-28T14:07:07Z</time>
      </trkpt>
      <trkpt lat="49.90083" lon="2.26039">
        <ele>36.6</ele>
        <time>2023-01-28T14:07:08Z</time>
      </trkpt>
      <trkpt lat="49.90083" lon="2.26039">
        <ele>36.6</ele>
        <time>2023-01-28T14:07:09Z</time>
      </trkpt>
      <trkpt lat="49.90083" lon="2.26039">
        <ele>36.6</ele>
        <time>2023-01-28T14:07:10Z</time>
      </trkpt>
      <trkpt lat="49.90083" lon="2.26039">
        <ele>36.6</ele>
        <time>2023-01-28T14:07:11Z</time>
      </trkpt>
      <trkpt lat="49.90083" lon="2.26039">
        <ele>36.6</ele>
        <time>2023-01-28T14:07:12Z</time>
      </trkpt>
      <trkpt lat="49.90083" lon="2.26039">
        <ele>36.6</ele>
        <time>2023-01-28T14:07:13Z</time>
      </trkpt>
      <trkpt lat="49.90083" lon="2.26039">
        <ele>36.6</ele>
        <time>2023-01-28T14:07:14Z</time>
      </trkpt>
      <trkpt lat="49.90083" lon="2.26039">
        <ele>36.6</ele>
        <time>2023-01-28T14:07:15Z</time>
      </trkpt>
      <trkpt lat="49.90082" lon="2.26041">
        <ele>36.6</ele>
        <time>2023-01-28T14:07:16Z</time>
      </trkpt>
      <trkpt lat="49.9008" lon="2.26043">
        <ele>36.6</ele>
        <time>2023-01-28T14:07:17Z</time>
      </trkpt>
      <trkpt lat="49.90079" lon="2.26043">
        <ele>36.6</ele>
        <time>2023-01-28T14:07:18Z</time>
      </trkpt>
      <trkpt lat="49.90079" lon="2.26043">
        <ele>36.6</ele>
        <time>2023-01-28T14:07:19Z</time>
      </trkpt>
      <trkpt lat="49.90078" lon="2.26043">
        <ele>36.7</ele>
        <time>2023-01-28T14:07:20Z</time>
      </trkpt>
      <trkpt lat="49.90079" lon="2.26042">
        <ele>36.7</ele>
        <time>2023-01-28T14:07:21Z</time>
      </trkpt>
      <trkpt lat="49.90079" lon="2.26042">
        <ele>36.7</ele>
        <time>2023-01-28T14:07:22Z</time>
      </trkpt>
      <trkpt lat="49.90079" lon="2.26042">
        <ele>36.7</ele>
        <time>2023-01-28T14:07:24Z</time>
      </trkpt>
      <trkpt lat="49.90078" lon="2.26041">
        <ele>36.7</ele>
        <time>2023-01-28T14:07:25Z</time>
      </trkpt>
      <trkpt lat="49.90076" lon="2.2604">
        <ele>36.7</ele>
        <time>2023-01-28T14:07:26Z</time>
      </trkpt>
      <trkpt lat="49.90075" lon="2.2604">
        <ele>36.7</ele>
        <time>2023-01-28T14:07:27Z</time>
      </trkpt>
      <trkpt lat="49.90075" lon="2.26039">
        <ele>36.7</ele>
        <time>2023-01-28T14:07:29Z</time>
      </trkpt>
      <trkpt lat="49.90075" lon="2.26039">
        <ele>36.7</ele>
        <time>2023-01-28T14:07:30Z</time>
      </trkpt>
      <trkpt lat="49.90075" lon="2.26038">
        <ele>36.7</ele>
        <time>2023-01-28T14:07:32Z</time>
      </trkpt>
      <trkpt lat="49.90075" lon="2.26038">
        <ele>36.7</ele>
        <time>2023-01-28T14:07:33Z</time>
      </trkpt>
      <trkpt lat="49.90074" lon="2.26038">
        <ele>36.8</ele>
        <time>2023-01-28T14:07:35Z</time>
      </trkpt>
      <trkpt lat="49.90074" lon="2.26037">
        <ele>36.8</ele>
        <time>2023-01-28T14:07:36Z</time>
      </trkpt>
      <trkpt lat="49.90074" lon="2.26037">
        <ele>36.8</ele>
        <time>2023-01-28T14:07:37Z</time>
      </trkpt>
      <trkpt lat="49.90074" lon="2.26036">
        <ele>36.8</ele>
        <time>2023-01-28T14:07:38Z</time>
      </trkpt>
      <trkpt lat="49.90073" lon="2.26036">
        <ele>36.8</ele>
        <time>2023-01-28T14:07:39Z</time>
      </trkpt>
      <trkpt lat="49.90073" lon="2.26036">
        <ele>36.8</ele>
        <time>2023-01-28T14:07:40Z</time>
      </trkpt>
      <trkpt lat="49.90073" lon="2.26035">
        <ele>36.8</ele>
        <time>2023-01-28T14:07:41Z</time>
      </trkpt>
      <trkpt lat="49.90073" lon="2.26035">
        <ele>36.8</ele>
        <time>2023-01-28T14:07:43Z</time>
      </trkpt>
      <trkpt lat="49.90072" lon="2.26034">
        <ele>36.8</ele>
        <time>2023-01-28T14:07:44Z</time>
      </trkpt>
      <trkpt lat="49.9007" lon="2.2603">
        <ele>36.9</ele>
        <time>2023-01-28T14:07:45Z</time>
      </trkpt>
      <trkpt lat="49.90069" lon="2.26029">
        <ele>36.9</ele>
        <time>2023-01-28T14:07:46Z</time>
      </trkpt>
      <trkpt lat="49.90068" lon="2.26027">
        <ele>36.9</ele>
        <time>2023-01-28T14:07:47Z</time>
      </trkpt>
      <trkpt lat="49.90067" lon="2.26025">
        <ele>36.9</ele>
        <time>2023-01-28T14:07:48Z</time>
      </trkpt>
      <trkpt lat="49.90066" lon="2.26023">
        <ele>37</ele>
        <time>2023-01-28T14:07:49Z</time>
      </trkpt>
      <trkpt lat="49.90065" lon="2.26021">
        <ele>37</ele>
        <time>2023-01-28T14:07:50Z</time>
      </trkpt>
      <trkpt lat="49.90064" lon="2.26019">
        <ele>37</ele>
        <time>2023-01-28T14:07:52Z</time>
      </trkpt>
      <trkpt lat="49.90063" lon="2.26017">
        <ele>37.1</ele>
        <time>2023-01-28T14:07:53Z</time>
      </trkpt>
      <trkpt lat="49.90061" lon="2.26013">
        <ele>37.1</ele>
        <time>2023-01-28T14:07:54Z</time>
      </trkpt>
      <trkpt lat="49.90061" lon="2.26012">
        <ele>37.1</ele>
        <time>2023-01-28T14:07:55Z</time>
      </trkpt>
      <trkpt lat="49.90058" lon="2.26009">
        <ele>37.1</ele>
        <time>2023-01-28T14:07:57Z</time>
      </trkpt>
      <trkpt lat="49.90057" lon="2.26009">
        <ele>37.1</ele>
        <time>2023-01-28T14:07:58Z</time>
      </trkpt>
      <trkpt lat="49.90054" lon="2.26009">
        <ele>37.1</ele>
        <time>2023-01-28T14:08:00Z</time>
      </trkpt>
      <trkpt lat="49.90053" lon="2.26009">
        <ele>37.1</ele>
        <time>2023-01-28T14:08:01Z</time>
      </trkpt>
      <trkpt lat="49.90052" lon="2.26009">
        <ele>37.2</ele>
        <time>2023-01-28T14:08:03Z</time>
      </trkpt>
      <trkpt lat="49.90052" lon="2.26009">
        <ele>37.2</ele>
        <time>2023-01-28T14:08:04Z</time>
      </trkpt>
      <trkpt lat="49.90052" lon="2.26009">
        <ele>37.2</ele>
        <time>2023-01-28T14:08:05Z</time>
      </trkpt>
      <trkpt lat="49.90052" lon="2.26009">
        <ele>37.2</ele>
        <time>2023-01-28T14:08:07Z</time>
      </trkpt>
      <trkpt lat="49.90052" lon="2.26009">
        <ele>37.2</ele>
        <time>2023-01-28T14:08:08Z</time>
      </trkpt>
      <trkpt lat="49.90052" lon="2.26009">
        <ele>37.2</ele>
        <time>2023-01-28T14:08:10Z</time>
      </trkpt>
      <trkpt lat="49.90052" lon="2.26009">
        <ele>37.2</ele>
        <time>2023-01-28T14:08:11Z</time>
      </trkpt>
      <trkpt lat="49.90053" lon="2.26009">
        <ele>37.2</ele>
        <time>2023-01-28T14:08:13Z</time>
      </trkpt>
      <trkpt lat="49.90052" lon="2.26009">
        <ele>37.2</ele>
        <time>2023-01-28T14:08:14Z</time>
      </trkpt>
      <trkpt lat="49.90053" lon="2.26009">
        <ele>37.2</ele>
        <time>2023-01-28T14:08:15Z</time>
      </trkpt>
      <trkpt lat="49.90052" lon="2.26009">
        <ele>37.2</ele>
        <time>2023-01-28T14:08:16Z</time>
      </trkpt>
      <trkpt lat="49.90053" lon="2.26009">
        <ele>37.2</ele>
        <time>2023-01-28T14:08:18Z</time>
      </trkpt>
      <trkpt lat="49.90052" lon="2.26008">
        <ele>37.2</ele>
        <time>2023-01-28T14:08:19Z</time>
      </trkpt>
      <trkpt lat="49.90052" lon="2.26007">
        <ele>37.2</ele>
        <time>2023-01-28T14:08:20Z</time>
      </trkpt>
      <trkpt lat="49.90052" lon="2.26005">
        <ele>37.2</ele>
        <time>2023-01-28T14:08:21Z</time>
      </trkpt>
      <trkpt lat="49.90051" lon="2.26003">
        <ele>37.2</ele>
        <time>2023-01-28T14:08:22Z</time>
      </trkpt>
      <trkpt lat="49.90051" lon="2.26">
        <ele>37.2</ele>
        <time>2023-01-28T14:08:24Z</time>
      </trkpt>
      <trkpt lat="49.9005" lon="2.25997">
        <ele>37.2</ele>
        <time>2023-01-28T14:08:26Z</time>
      </trkpt>
      <trkpt lat="49.90049" lon="2.25996">
        <ele>37.2</ele>
        <time>2023-01-28T14:08:27Z</time>
      </trkpt>
      <trkpt lat="49.90049" lon="2.25994">
        <ele>37.2</ele>
        <time>2023-01-28T14:08:29Z</time>
      </trkpt>
      <trkpt lat="49.90049" lon="2.25992">
        <ele>37.3</ele>
        <time>2023-01-28T14:08:30Z</time>
      </trkpt>
      <trkpt lat="49.90048" lon="2.2599">
        <ele>37.3</ele>
        <time>2023-01-28T14:08:31Z</time>
      </trkpt>
      <trkpt lat="49.90047" lon="2.2599">
        <ele>37.3</ele>
        <time>2023-01-28T14:08:32Z</time>
      </trkpt>
      <trkpt lat="49.90047" lon="2.25988">
        <ele>37.3</ele>
        <time>2023-01-28T14:08:33Z</time>
      </trkpt>
      <trkpt lat="49.90046" lon="2.25986">
        <ele>37.3</ele>
        <time>2023-01-28T14:08:34Z</time>
      </trkpt>
      <trkpt lat="49.90046" lon="2.25983">
        <ele>37.3</ele>
        <time>2023-01-28T14:08:35Z</time>
      </trkpt>
      <trkpt lat="49.90045" lon="2.25982">
        <ele>37.3</ele>
        <time>2023-01-28T14:08:37Z</time>
      </trkpt>
      <trkpt lat="49.90045" lon="2.25981">
        <ele>37.3</ele>
        <time>2023-01-28T14:08:38Z</time>
      </trkpt>
      <trkpt lat="49.90044" lon="2.2598">
        <ele>37.3</ele>
        <time>2023-01-28T14:08:39Z</time>
      </trkpt>
      <trkpt lat="49.90043" lon="2.25978">
        <ele>37.3</ele>
        <time>2023-01-28T14:08:40Z</time>
      </trkpt>
      <trkpt lat="49.90043" lon="2.25977">
        <ele>37.3</ele>
        <time>2023-01-28T14:08:41Z</time>
      </trkpt>
      <trkpt lat="49.90042" lon="2.25975">
        <ele>37.3</ele>
        <time>2023-01-28T14:08:43Z</time>
      </trkpt>
      <trkpt lat="49.90041" lon="2.25974">
        <ele>37.3</ele>
        <time>2023-01-28T14:08:44Z</time>
      </trkpt>
      <trkpt lat="49.9004" lon="2.25972">
        <ele>37.3</ele>
        <time>2023-01-28T14:08:45Z</time>
      </trkpt>
      <trkpt lat="49.9004" lon="2.25971">
        <ele>37.3</ele>
        <time>2023-01-28T14:08:46Z</time>
      </trkpt>
      <trkpt lat="49.90039" lon="2.2597">
        <ele>37.4</ele>
        <time>2023-01-28T14:08:47Z</time>
      </trkpt>
      <trkpt lat="49.90038" lon="2.25969">
        <ele>37.4</ele>
        <time>2023-01-28T14:08:48Z</time>
      </trkpt>
      <trkpt lat="49.90037" lon="2.25968">
        <ele>37.4</ele>
        <time>2023-01-28T14:08:50Z</time>
      </trkpt>
      <trkpt lat="49.90036" lon="2.25967">
        <ele>37.4</ele>
        <time>2023-01-28T14:08:51Z</time>
      </trkpt>
      <trkpt lat="49.90036" lon="2.25965">
        <ele>37.4</ele>
        <time>2023-01-28T14:08:52Z</time>
      </trkpt>
      <trkpt lat="49.90035" lon="2.25964">
        <ele>37.4</ele>
        <time>2023-01-28T14:08:53Z</time>
      </trkpt>
      <trkpt lat="49.90033" lon="2.25962">
        <ele>37.4</ele>
        <time>2023-01-28T14:08:55Z</time>
      </trkpt>
      <trkpt lat="49.90032" lon="2.25961">
        <ele>37.4</ele>
        <time>2023-01-28T14:08:57Z</time>
      </trkpt>
      <trkpt lat="49.90031" lon="2.2596">
        <ele>37.4</ele>
        <time>2023-01-28T14:08:58Z</time>
      </trkpt>
      <trkpt lat="49.90029" lon="2.25959">
        <ele>37.4</ele>
        <time>2023-01-28T14:08:59Z</time>
      </trkpt>
      <trkpt lat="49.90028" lon="2.25959">
        <ele>37.4</ele>
        <time>2023-01-28T14:09:00Z</time>
      </trkpt>
      <trkpt lat="49.90027" lon="2.25958">
        <ele>37.4</ele>
        <time>2023-01-28T14:09:01Z</time>
      </trkpt>
      <trkpt lat="49.90026" lon="2.25958">
        <ele>37.5</ele>
        <time>2023-01-28T14:09:03Z</time>
      </trkpt>
      <trkpt lat="49.90025" lon="2.25957">
        <ele>37.5</ele>
        <time>2023-01-28T14:09:04Z</time>
      </trkpt>
      <trkpt lat="49.90024" lon="2.25956">
        <ele>37.5</ele>
        <time>2023-01-28T14:09:05Z</time>
      </trkpt>
      <trkpt lat="49.90022" lon="2.25954">
        <ele>37.5</ele>
        <time>2023-01-28T14:09:06Z</time>
      </trkpt>
      <trkpt lat="49.90021" lon="2.25954">
        <ele>37.5</ele>
        <time>2023-01-28T14:09:07Z</time>
      </trkpt>
      <trkpt lat="49.9002" lon="2.25952">
        <ele>37.5</ele>
        <time>2023-01-28T14:09:09Z</time>
      </trkpt>
      <trkpt lat="49.9002" lon="2.2595">
        <ele>37.5</ele>
        <time>2023-01-28T14:09:10Z</time>
      </trkpt>
      <trkpt lat="49.90019" lon="2.25949">
        <ele>37.5</ele>
        <time>2023-01-28T14:09:11Z</time>
      </trkpt>
      <trkpt lat="49.90019" lon="2.25948">
        <ele>37.5</ele>
        <time>2023-01-28T14:09:12Z</time>
      </trkpt>
      <trkpt lat="49.90018" lon="2.25946">
        <ele>37.5</ele>
        <time>2023-01-28T14:09:13Z</time>
      </trkpt>
      <trkpt lat="49.90017" lon="2.25945">
        <ele>37.5</ele>
        <time>2023-01-28T14:09:15Z</time>
      </trkpt>
      <trkpt lat="49.90015" lon="2.25943">
        <ele>37.5</ele>
        <time>2023-01-28T14:09:16Z</time>
      </trkpt>
      <trkpt lat="49.90015" lon="2.25942">
        <ele>37.5</ele>
        <time>2023-01-28T14:09:17Z</time>
      </trkpt>
      <trkpt lat="49.90014" lon="2.25941">
        <ele>37.6</ele>
        <time>2023-01-28T14:09:18Z</time>
      </trkpt>
      <trkpt lat="49.90013" lon="2.25941">
        <ele>37.6</ele>
        <time>2023-01-28T14:09:19Z</time>
      </trkpt>
      <trkpt lat="49.90013" lon="2.2594">
        <ele>37.6</ele>
        <time>2023-01-28T14:09:21Z</time>
      </trkpt>
      <trkpt lat="49.90012" lon="2.25939">
        <ele>37.6</ele>
        <time>2023-01-28T14:09:22Z</time>
      </trkpt>
      <trkpt lat="49.90012" lon="2.25938">
        <ele>37.6</ele>
        <time>2023-01-28T14:09:23Z</time>
      </trkpt>
      <trkpt lat="49.90011" lon="2.25937">
        <ele>37.6</ele>
        <time>2023-01-28T14:09:24Z</time>
      </trkpt>
      <trkpt lat="49.9001" lon="2.25936">
        <ele>37.6</ele>
        <time>2023-01-28T14:09:25Z</time>
      </trkpt>
      <trkpt lat="49.9001" lon="2.25934">
        <ele>37.6</ele>
        <time>2023-01-28T14:09:27Z</time>
      </trkpt>
      <trkpt lat="49.90009" lon="2.25934">
        <ele>37.6</ele>
        <time>2023-01-28T14:09:28Z</time>
      </trkpt>
      <trkpt lat="49.90009" lon="2.25933">
        <ele>37.6</ele>
        <time>2023-01-28T14:09:29Z</time>
      </trkpt>
      <trkpt lat="49.90008" lon="2.25932">
        <ele>37.6</ele>
        <time>2023-01-28T14:09:30Z</time>
      </trkpt>
      <trkpt lat="49.90007" lon="2.2593">
        <ele>37.6</ele>
        <time>2023-01-28T14:09:32Z</time>
      </trkpt>
      <trkpt lat="49.90007" lon="2.25929">
        <ele>37.6</ele>
        <time>2023-01-28T14:09:33Z</time>
      </trkpt>
      <trkpt lat="49.90006" lon="2.25928">
        <ele>37.6</ele>
        <time>2023-01-28T14:09:34Z</time>
      </trkpt>
      <trkpt lat="49.90005" lon="2.25927">
        <ele>37.6</ele>
        <time>2023-01-28T14:09:35Z</time>
      </trkpt>
      <trkpt lat="49.90005" lon="2.25926">
        <ele>37.6</ele>
        <time>2023-01-28T14:09:36Z</time>
      </trkpt>
      <trkpt lat="49.90003" lon="2.25924">
        <ele>37.6</ele>
        <time>2023-01-28T14:09:37Z</time>
      </trkpt>
      <trkpt lat="49.90003" lon="2.25923">
        <ele>37.7</ele>
        <time>2023-01-28T14:09:38Z</time>
      </trkpt>
      <trkpt lat="49.90003" lon="2.25922">
        <ele>37.7</ele>
        <time>2023-01-28T14:09:39Z</time>
      </trkpt>
      <trkpt lat="49.90002" lon="2.25919">
        <ele>37.7</ele>
        <time>2023-01-28T14:09:40Z</time>
      </trkpt>
      <trkpt lat="49.90001" lon="2.25918">
        <ele>37.7</ele>
        <time>2023-01-28T14:09:42Z</time>
      </trkpt>
      <trkpt lat="49.90001" lon="2.25917">
        <ele>37.7</ele>
        <time>2023-01-28T14:09:43Z</time>
      </trkpt>
      <trkpt lat="49.89999" lon="2.25914">
        <ele>37.7</ele>
        <time>2023-01-28T14:09:44Z</time>
      </trkpt>
      <trkpt lat="49.89999" lon="2.25913">
        <ele>37.7</ele>
        <time>2023-01-28T14:09:45Z</time>
      </trkpt>
      <trkpt lat="49.89998" lon="2.25912">
        <ele>37.7</ele>
        <time>2023-01-28T14:09:46Z</time>
      </trkpt>
      <trkpt lat="49.89997" lon="2.25909">
        <ele>37.7</ele>
        <time>2023-01-28T14:09:47Z</time>
      </trkpt>
      <trkpt lat="49.89996" lon="2.25908">
        <ele>37.7</ele>
        <time>2023-01-28T14:09:49Z</time>
      </trkpt>
      <trkpt lat="49.89995" lon="2.25907">
        <ele>37.7</ele>
        <time>2023-01-28T14:09:50Z</time>
      </trkpt>
      <trkpt lat="49.89994" lon="2.25905">
        <ele>37.7</ele>
        <time>2023-01-28T14:09:51Z</time>
      </trkpt>
      <trkpt lat="49.89993" lon="2.25904">
        <ele>37.7</ele>
        <time>2023-01-28T14:09:52Z</time>
      </trkpt>
      <trkpt lat="49.89992" lon="2.25903">
        <ele>37.8</ele>
        <time>2023-01-28T14:09:53Z</time>
      </trkpt>
      <trkpt lat="49.8999" lon="2.25901">
        <ele>37.8</ele>
        <time>2023-01-28T14:09:54Z</time>
      </trkpt>
      <trkpt lat="49.89989" lon="2.259">
        <ele>37.8</ele>
        <time>2023-01-28T14:09:56Z</time>
      </trkpt>
      <trkpt lat="49.89988" lon="2.259">
        <ele>37.8</ele>
        <time>2023-01-28T14:09:57Z</time>
      </trkpt>
      <trkpt lat="49.89988" lon="2.25899">
        <ele>37.8</ele>
        <time>2023-01-28T14:09:58Z</time>
      </trkpt>
      <trkpt lat="49.89987" lon="2.25899">
        <ele>37.8</ele>
        <time>2023-01-28T14:09:59Z</time>
      </trkpt>
      <trkpt lat="49.89986" lon="2.25897">
        <ele>37.8</ele>
        <time>2023-01-28T14:10:00Z</time>
      </trkpt>
      <trkpt lat="49.89985" lon="2.25896">
        <ele>37.8</ele>
        <time>2023-01-28T14:10:01Z</time>
      </trkpt>
      <trkpt lat="49.89985" lon="2.25895">
        <ele>37.8</ele>
        <time>2023-01-28T14:10:03Z</time>
      </trkpt>
      <trkpt lat="49.89984" lon="2.25894">
        <ele>37.8</ele>
        <time>2023-01-28T14:10:04Z</time>
      </trkpt>
      <trkpt lat="49.89983" lon="2.25891">
        <ele>37.8</ele>
        <time>2023-01-28T14:10:05Z</time>
      </trkpt>
      <trkpt lat="49.89982" lon="2.2589">
        <ele>37.8</ele>
        <time>2023-01-28T14:10:06Z</time>
      </trkpt>
      <trkpt lat="49.89982" lon="2.2589">
        <ele>37.8</ele>
        <time>2023-01-28T14:10:07Z</time>
      </trkpt>
      <trkpt lat="49.89981" lon="2.25888">
        <ele>37.8</ele>
        <time>2023-01-28T14:10:08Z</time>
      </trkpt>
      <trkpt lat="49.8998" lon="2.25887">
        <ele>37.9</ele>
        <time>2023-01-28T14:10:10Z</time>
      </trkpt>
      <trkpt lat="49.89979" lon="2.25886">
        <ele>37.9</ele>
        <time>2023-01-28T14:10:11Z</time>
      </trkpt>
      <trkpt lat="49.89978" lon="2.25884">
        <ele>37.9</ele>
        <time>2023-01-28T14:10:12Z</time>
      </trkpt>
      <trkpt lat="49.89977" lon="2.25883">
        <ele>37.9</ele>
        <time>2023-01-28T14:10:13Z</time>
      </trkpt>
      <trkpt lat="49.89976" lon="2.25882">
        <ele>37.9</ele>
        <time>2023-01-28T14:10:14Z</time>
      </trkpt>
      <trkpt lat="49.89975" lon="2.2588">
        <ele>37.9</ele>
        <time>2023-01-28T14:10:15Z</time>
      </trkpt>
      <trkpt lat="49.89974" lon="2.2588">
        <ele>37.9</ele>
        <time>2023-01-28T14:10:17Z</time>
      </trkpt>
      <trkpt lat="49.89974" lon="2.25879">
        <ele>38</ele>
        <time>2023-01-28T14:10:18Z</time>
      </trkpt>
      <trkpt lat="49.89973" lon="2.25879">
        <ele>38</ele>
        <time>2023-01-28T14:10:19Z</time>
      </trkpt>
      <trkpt lat="49.89972" lon="2.25877">
        <ele>38</ele>
        <time>2023-01-28T14:10:20Z</time>
      </trkpt>
      <trkpt lat="49.89972" lon="2.25876">
        <ele>38.1</ele>
        <time>2023-01-28T14:10:21Z</time>
      </trkpt>
      <trkpt lat="49.89971" lon="2.25875">
        <ele>38.1</ele>
        <time>2023-01-28T14:10:22Z</time>
      </trkpt>
      <trkpt lat="49.89971" lon="2.25873">
        <ele>38.1</ele>
        <time>2023-01-28T14:10:23Z</time>
      </trkpt>
      <trkpt lat="49.8997" lon="2.2587">
        <ele>38.2</ele>
        <time>2023-01-28T14:10:24Z</time>
      </trkpt>
      <trkpt lat="49.8997" lon="2.2587">
        <ele>38.2</ele>
        <time>2023-01-28T14:10:26Z</time>
      </trkpt>
      <trkpt lat="49.89969" lon="2.25868">
        <ele>38.3</ele>
        <time>2023-01-28T14:10:27Z</time>
      </trkpt>
      <trkpt lat="49.89968" lon="2.25867">
        <ele>38.3</ele>
        <time>2023-01-28T14:10:28Z</time>
      </trkpt>
      <trkpt lat="49.89967" lon="2.25865">
        <ele>38.4</ele>
        <time>2023-01-28T14:10:29Z</time>
      </trkpt>
      <trkpt lat="49.89966" lon="2.25863">
        <ele>38.4</ele>
        <time>2023-01-28T14:10:30Z</time>
      </trkpt>
      <trkpt lat="49.89965" lon="2.25862">
        <ele>38.5</ele>
        <time>2023-01-28T14:10:32Z</time>
      </trkpt>
      <trkpt lat="49.89965" lon="2.25861">
        <ele>38.5</ele>
        <time>2023-01-28T14:10:33Z</time>
      </trkpt>
      <trkpt lat="49.89964" lon="2.25859">
        <ele>38.5</ele>
        <time>2023-01-28T14:10:34Z</time>
      </trkpt>
      <trkpt lat="49.89964" lon="2.25858">
        <ele>38.6</ele>
        <time>2023-01-28T14:10:35Z</time>
      </trkpt>
      <trkpt lat="49.89963" lon="2.25857">
        <ele>38.6</ele>
        <time>2023-01-28T14:10:36Z</time>
      </trkpt>
      <trkpt lat="49.89962" lon="2.25857">
        <ele>38.6</ele>
        <time>2023-01-28T14:10:37Z</time>
      </trkpt>
      <trkpt lat="49.89961" lon="2.25856">
        <ele>38.7</ele>
        <time>2023-01-28T14:10:38Z</time>
      </trkpt>
      <trkpt lat="49.89959" lon="2.25854">
        <ele>38.7</ele>
        <time>2023-01-28T14:10:40Z</time>
      </trkpt>
      <trkpt lat="49.89959" lon="2.25854">
        <ele>38.8</ele>
        <time>2023-01-28T14:10:41Z</time>
      </trkpt>
      <trkpt lat="49.89958" lon="2.25853">
        <ele>38.8</ele>
        <time>2023-01-28T14:10:42Z</time>
      </trkpt>
      <trkpt lat="49.89958" lon="2.25851">
        <ele>38.8</ele>
        <time>2023-01-28T14:10:43Z</time>
      </trkpt>
      <trkpt lat="49.89956" lon="2.25849">
        <ele>38.9</ele>
        <time>2023-01-28T14:10:44Z</time>
      </trkpt>
      <trkpt lat="49.89956" lon="2.25847">
        <ele>39</ele>
        <time>2023-01-28T14:10:45Z</time>
      </trkpt>
      <trkpt lat="49.89955" lon="2.25846">
        <ele>39</ele>
        <time>2023-01-28T14:10:47Z</time>
      </trkpt>
      <trkpt lat="49.89955" lon="2.25845">
        <ele>39</ele>
        <time>2023-01-28T14:10:48Z</time>
      </trkpt>
      <trkpt lat="49.89955" lon="2.25844">
        <ele>39</ele>
        <time>2023-01-28T14:10:49Z</time>
      </trkpt>
      <trkpt lat="49.89954" lon="2.25842">
        <ele>39.1</ele>
        <time>2023-01-28T14:10:50Z</time>
      </trkpt>
      <trkpt lat="49.89953" lon="2.25841">
        <ele>39.1</ele>
        <time>2023-01-28T14:10:51Z</time>
      </trkpt>
      <trkpt lat="49.89953" lon="2.2584">
        <ele>39.2</ele>
        <time>2023-01-28T14:10:53Z</time>
      </trkpt>
      <trkpt lat="49.89952" lon="2.25838">
        <ele>39.2</ele>
        <time>2023-01-28T14:10:54Z</time>
      </trkpt>
      <trkpt lat="49.89951" lon="2.25837">
        <ele>39.2</ele>
        <time>2023-01-28T14:10:55Z</time>
      </trkpt>
      <trkpt lat="49.89951" lon="2.25836">
        <ele>39.3</ele>
        <time>2023-01-28T14:10:56Z</time>
      </trkpt>
      <trkpt lat="49.8995" lon="2.25833">
        <ele>39.3</ele>
        <time>2023-01-28T14:10:57Z</time>
      </trkpt>
      <trkpt lat="49.89949" lon="2.25832">
        <ele>39.4</ele>
        <time>2023-01-28T14:10:58Z</time>
      </trkpt>
      <trkpt lat="49.89949" lon="2.25831">
        <ele>39.4</ele>
        <time>2023-01-28T14:11:00Z</time>
      </trkpt>
      <trkpt lat="49.89948" lon="2.2583">
        <ele>39.4</ele>
        <time>2023-01-28T14:11:01Z</time>
      </trkpt>
      <trkpt lat="49.89947" lon="2.25829">
        <ele>39.5</ele>
        <time>2023-01-28T14:11:02Z</time>
      </trkpt>
      <trkpt lat="49.89947" lon="2.25827">
        <ele>39.5</ele>
        <time>2023-01-28T14:11:03Z</time>
      </trkpt>
      <trkpt lat="49.89945" lon="2.25824">
        <ele>39.6</ele>
        <time>2023-01-28T14:11:04Z</time>
      </trkpt>
      <trkpt lat="49.89945" lon="2.25822">
        <ele>39.6</ele>
        <time>2023-01-28T14:11:05Z</time>
      </trkpt>
      <trkpt lat="49.89945" lon="2.25821">
        <ele>39.7</ele>
        <time>2023-01-28T14:11:07Z</time>
      </trkpt>
      <trkpt lat="49.89944" lon="2.25819">
        <ele>39.7</ele>
        <time>2023-01-28T14:11:08Z</time>
      </trkpt>
      <trkpt lat="49.89944" lon="2.25818">
        <ele>39.7</ele>
        <time>2023-01-28T14:11:09Z</time>
      </trkpt>
      <trkpt lat="49.89944" lon="2.25816">
        <ele>39.8</ele>
        <time>2023-01-28T14:11:10Z</time>
      </trkpt>
      <trkpt lat="49.89943" lon="2.25815">
        <ele>39.8</ele>
        <time>2023-01-28T14:11:11Z</time>
      </trkpt>
      <trkpt lat="49.89943" lon="2.25814">
        <ele>39.9</ele>
        <time>2023-01-28T14:11:13Z</time>
      </trkpt>
      <trkpt lat="49.89942" lon="2.25812">
        <ele>39.9</ele>
        <time>2023-01-28T14:11:14Z</time>
      </trkpt>
      <trkpt lat="49.89941" lon="2.2581">
        <ele>40</ele>
        <time>2023-01-28T14:11:15Z</time>
      </trkpt>
      <trkpt lat="49.8994" lon="2.25809">
        <ele>40</ele>
        <time>2023-01-28T14:11:16Z</time>
      </trkpt>
      <trkpt lat="49.8994" lon="2.25808">
        <ele>40</ele>
        <time>2023-01-28T14:11:17Z</time>
      </trkpt>
      <trkpt lat="49.89939" lon="2.25806">
        <ele>40.1</ele>
        <time>2023-01-28T14:11:18Z</time>
      </trkpt>
      <trkpt lat="49.89939" lon="2.25803">
        <ele>40.1</ele>
        <time>2023-01-28T14:11:20Z</time>
      </trkpt>
      <trkpt lat="49.89938" lon="2.25803">
        <ele>40.2</ele>
        <time>2023-01-28T14:11:21Z</time>
      </trkpt>
      <trkpt lat="49.89938" lon="2.25801">
        <ele>40.2</ele>
        <time>2023-01-28T14:11:22Z</time>
      </trkpt>
      <trkpt lat="49.89937" lon="2.258">
        <ele>40.2</ele>
        <time>2023-01-28T14:11:23Z</time>
      </trkpt>
      <trkpt lat="49.89935" lon="2.25798">
        <ele>40.3</ele>
        <time>2023-01-28T14:11:24Z</time>
      </trkpt>
      <trkpt lat="49.89935" lon="2.25797">
        <ele>40.3</ele>
        <time>2023-01-28T14:11:26Z</time>
      </trkpt>
      <trkpt lat="49.89934" lon="2.25795">
        <ele>40.4</ele>
        <time>2023-01-28T14:11:27Z</time>
      </trkpt>
      <trkpt lat="49.89933" lon="2.25794">
        <ele>40.4</ele>
        <time>2023-01-28T14:11:28Z</time>
      </trkpt>
      <trkpt lat="49.89932" lon="2.25793">
        <ele>40.5</ele>
        <time>2023-01-28T14:11:29Z</time>
      </trkpt>
      <trkpt lat="49.8993" lon="2.2579">
        <ele>40.6</ele>
        <time>2023-01-28T14:11:30Z</time>
      </trkpt>
      <trkpt lat="49.8993" lon="2.25789">
        <ele>40.6</ele>
        <time>2023-01-28T14:11:31Z</time>
      </trkpt>
      <trkpt lat="49.8993" lon="2.25788">
        <ele>40.6</ele>
        <time>2023-01-28T14:11:32Z</time>
      </trkpt>
      <trkpt lat="49.89929" lon="2.25787">
        <ele>40.6</ele>
        <time>2023-01-28T14:11:34Z</time>
      </trkpt>
      <trkpt lat="49.89928" lon="2.25785">
        <ele>40.7</ele>
        <time>2023-01-28T14:11:35Z</time>
      </trkpt>
      <trkpt lat="49.89927" lon="2.25784">
        <ele>40.7</ele>
        <time>2023-01-28T14:11:36Z</time>
      </trkpt>
      <trkpt lat="49.89927" lon="2.25783">
        <ele>40.8</ele>
        <time>2023-01-28T14:11:37Z</time>
      </trkpt>
      <trkpt lat="49.89926" lon="2.25782">
        <ele>40.8</ele>
        <time>2023-01-28T14:11:38Z</time>
      </trkpt>
      <trkpt lat="49.89926" lon="2.25782">
        <ele>40.8</ele>
        <time>2023-01-28T14:11:39Z</time>
      </trkpt>
      <trkpt lat="49.89924" lon="2.25779">
        <ele>40.9</ele>
        <time>2023-01-28T14:11:41Z</time>
      </trkpt>
      <trkpt lat="49.89924" lon="2.25779">
        <ele>40.9</ele>
        <time>2023-01-28T14:11:42Z</time>
      </trkpt>
      <trkpt lat="49.89923" lon="2.25777">
        <ele>41</ele>
        <time>2023-01-28T14:11:43Z</time>
      </trkpt>
      <trkpt lat="49.89922" lon="2.25776">
        <ele>41</ele>
        <time>2023-01-28T14:11:44Z</time>
      </trkpt>
      <trkpt lat="49.89921" lon="2.25774">
        <ele>41</ele>
        <time>2023-01-28T14:11:45Z</time>
      </trkpt>
      <trkpt lat="49.89921" lon="2.25772">
        <ele>41.1</ele>
        <time>2023-01-28T14:11:46Z</time>
      </trkpt>
      <trkpt lat="49.8992" lon="2.25771">
        <ele>41.1</ele>
        <time>2023-01-28T14:11:48Z</time>
      </trkpt>
      <trkpt lat="49.8992" lon="2.25769">
        <ele>41.2</ele>
        <time>2023-01-28T14:11:49Z</time>
      </trkpt>
      <trkpt lat="49.8992" lon="2.25768">
        <ele>41.2</ele>
        <time>2023-01-28T14:11:50Z</time>
      </trkpt>
      <trkpt lat="49.89918" lon="2.25766">
        <ele>41.3</ele>
        <time>2023-01-28T14:11:51Z</time>
      </trkpt>
      <trkpt lat="49.89918" lon="2.25765">
        <ele>41.3</ele>
        <time>2023-01-28T14:11:52Z</time>
      </trkpt>
      <trkpt lat="49.89917" lon="2.25764">
        <ele>41.3</ele>
        <time>2023-01-28T14:11:54Z</time>
      </trkpt>
      <trkpt lat="49.89916" lon="2.25763">
        <ele>41.4</ele>
        <time>2023-01-28T14:11:55Z</time>
      </trkpt>
      <trkpt lat="49.89915" lon="2.25763">
        <ele>41.4</ele>
        <time>2023-01-28T14:11:56Z</time>
      </trkpt>
      <trkpt lat="49.89915" lon="2.25762">
        <ele>41.4</ele>
        <time>2023-01-28T14:11:57Z</time>
      </trkpt>
      <trkpt lat="49.89914" lon="2.25761">
        <ele>41.5</ele>
        <time>2023-01-28T14:11:58Z</time>
      </trkpt>
      <trkpt lat="49.89913" lon="2.2576">
        <ele>41.5</ele>
        <time>2023-01-28T14:11:59Z</time>
      </trkpt>
      <trkpt lat="49.89911" lon="2.25758">
        <ele>41.6</ele>
        <time>2023-01-28T14:12:01Z</time>
      </trkpt>
      <trkpt lat="49.8991" lon="2.25758">
        <ele>41.6</ele>
        <time>2023-01-28T14:12:02Z</time>
      </trkpt>
      <trkpt lat="49.8991" lon="2.25756">
        <ele>41.6</ele>
        <time>2023-01-28T14:12:03Z</time>
      </trkpt>
      <trkpt lat="49.8991" lon="2.25754">
        <ele>41.7</ele>
        <time>2023-01-28T14:12:04Z</time>
      </trkpt>
      <trkpt lat="49.8991" lon="2.25752">
        <ele>41.8</ele>
        <time>2023-01-28T14:12:05Z</time>
      </trkpt>
      <trkpt lat="49.89911" lon="2.25751">
        <ele>41.8</ele>
        <time>2023-01-28T14:12:06Z</time>
      </trkpt>
      <trkpt lat="49.89911" lon="2.25749">
        <ele>41.8</ele>
        <time>2023-01-28T14:12:07Z</time>
      </trkpt>
      <trkpt lat="49.89909" lon="2.25748">
        <ele>41.9</ele>
        <time>2023-01-28T14:12:09Z</time>
      </trkpt>
      <trkpt lat="49.89908" lon="2.25747">
        <ele>41.9</ele>
        <time>2023-01-28T14:12:10Z</time>
      </trkpt>
      <trkpt lat="49.89907" lon="2.25747">
        <ele>41.9</ele>
        <time>2023-01-28T14:12:11Z</time>
      </trkpt>
      <trkpt lat="49.89906" lon="2.25746">
        <ele>42</ele>
        <time>2023-01-28T14:12:12Z</time>
      </trkpt>
      <trkpt lat="49.89905" lon="2.25746">
        <ele>42</ele>
        <time>2023-01-28T14:12:13Z</time>
      </trkpt>
      <trkpt lat="49.89905" lon="2.25745">
        <ele>42.1</ele>
        <time>2023-01-28T14:12:15Z</time>
      </trkpt>
      <trkpt lat="49.89904" lon="2.25743">
        <ele>42.1</ele>
        <time>2023-01-28T14:12:16Z</time>
      </trkpt>
      <trkpt lat="49.89904" lon="2.25742">
        <ele>42.1</ele>
        <time>2023-01-28T14:12:17Z</time>
      </trkpt>
      <trkpt lat="49.89903" lon="2.25741">
        <ele>42.2</ele>
        <time>2023-01-28T14:12:18Z</time>
      </trkpt>
      <trkpt lat="49.89902" lon="2.2574">
        <ele>42.2</ele>
        <time>2023-01-28T14:12:20Z</time>
      </trkpt>
      <trkpt lat="49.89902" lon="2.25738">
        <ele>42.2</ele>
        <time>2023-01-28T14:12:22Z</time>
      </trkpt>
      <trkpt lat="49.89902" lon="2.25738">
        <ele>42.2</ele>
        <time>2023-01-28T14:12:23Z</time>
      </trkpt>
      <trkpt lat="49.89902" lon="2.25738">
        <ele>42.2</ele>
        <time>2023-01-28T14:12:25Z</time>
      </trkpt>
      <trkpt lat="49.89902" lon="2.25738">
        <ele>42.2</ele>
        <time>2023-01-28T14:12:26Z</time>
      </trkpt>
      <trkpt lat="49.89902" lon="2.25739">
        <ele>42.3</ele>
        <time>2023-01-28T14:12:28Z</time>
      </trkpt>
      <trkpt lat="49.89902" lon="2.25739">
        <ele>42.3</ele>
        <time>2023-01-28T14:12:29Z</time>
      </trkpt>
      <trkpt lat="49.89901" lon="2.25739">
        <ele>42.3</ele>
        <time>2023-01-28T14:12:30Z</time>
      </trkpt>
      <trkpt lat="49.89901" lon="2.25739">
        <ele>42.3</ele>
        <time>2023-01-28T14:12:32Z</time>
      </trkpt>
      <trkpt lat="49.899" lon="2.25739">
        <ele>42.3</ele>
        <time>2023-01-28T14:12:34Z</time>
      </trkpt>
      <trkpt lat="49.899" lon="2.2574">
        <ele>42.3</ele>
        <time>2023-01-28T14:12:35Z</time>
      </trkpt>
      <trkpt lat="49.89901" lon="2.25741">
        <ele>42.3</ele>
        <time>2023-01-28T14:12:37Z</time>
      </trkpt>
      <trkpt lat="49.89901" lon="2.25741">
        <ele>42.3</ele>
        <time>2023-01-28T14:12:38Z</time>
      </trkpt>
      <trkpt lat="49.89901" lon="2.25741">
        <ele>42.3</ele>
        <time>2023-01-28T14:12:39Z</time>
      </trkpt>
      <trkpt lat="49.89902" lon="2.25742">
        <ele>42.3</ele>
        <time>2023-01-28T14:12:40Z</time>
      </trkpt>
      <trkpt lat="49.89902" lon="2.25743">
        <ele>42.3</ele>
        <time>2023-01-28T14:12:42Z</time>
      </trkpt>
      <trkpt lat="49.89903" lon="2.25744">
        <ele>42.3</ele>
        <time>2023-01-28T14:12:44Z</time>
      </trkpt>
      <trkpt lat="49.89903" lon="2.25744">
        <ele>42.3</ele>
        <time>2023-01-28T14:12:45Z</time>
      </trkpt>
      <trkpt lat="49.89903" lon="2.25744">
        <ele>42.3</ele>
        <time>2023-01-28T14:12:46Z</time>
      </trkpt>
      <trkpt lat="49.89903" lon="2.25744">
        <ele>42.3</ele>
        <time>2023-01-28T14:12:48Z</time>
      </trkpt>
      <trkpt lat="49.89903" lon="2.25744">
        <ele>42.3</ele>
        <time>2023-01-28T14:12:49Z</time>
      </trkpt>
      <trkpt lat="49.89903" lon="2.25744">
        <ele>42.3</ele>
        <time>2023-01-28T14:12:50Z</time>
      </trkpt>
      <trkpt lat="49.89903" lon="2.25745">
        <ele>42.3</ele>
        <time>2023-01-28T14:12:52Z</time>
      </trkpt>
      <trkpt lat="49.89903" lon="2.25745">
        <ele>42.3</ele>
        <time>2023-01-28T14:12:53Z</time>
      </trkpt>
      <trkpt lat="49.89903" lon="2.25745">
        <ele>42.3</ele>
        <time>2023-01-28T14:12:54Z</time>
      </trkpt>
      <trkpt lat="49.89903" lon="2.25745">
        <ele>42.3</ele>
        <time>2023-01-28T14:12:55Z</time>
      </trkpt>
      <trkpt lat="49.89903" lon="2.25745">
        <ele>42.3</ele>
        <time>2023-01-28T14:12:56Z</time>
      </trkpt>
      <trkpt lat="49.89903" lon="2.25745">
        <ele>42.3</ele>
        <time>2023-01-28T14:12:57Z</time>
      </trkpt>
      <trkpt lat="49.89903" lon="2.25745">
        <ele>42.3</ele>
        <time>2023-01-28T14:12:58Z</time>
      </trkpt>
      <trkpt lat="49.89903" lon="2.25745">
        <ele>42.3</ele>
        <time>2023-01-28T14:12:59Z</time>
      </trkpt>
      <trkpt lat="49.89903" lon="2.25745">
        <ele>42.3</ele>
        <time>2023-01-28T14:13:00Z</time>
      </trkpt>
      <trkpt lat="49.89903" lon="2.25745">
        <ele>42.3</ele>
        <time>2023-01-28T14:13:01Z</time>
      </trkpt>
      <trkpt lat="49.89903" lon="2.25745">
        <ele>42.3</ele>
        <time>2023-01-28T14:13:02Z</time>
      </trkpt>
      <trkpt lat="49.89903" lon="2.25745">
        <ele>42.3</ele>
        <time>2023-01-28T14:13:03Z</time>
      </trkpt>
      <trkpt lat="49.89903" lon="2.25745">
        <ele>42.3</ele>
        <time>2023-01-28T14:13:04Z</time>
      </trkpt>
      <trkpt lat="49.89903" lon="2.25745">
        <ele>42.3</ele>
        <time>2023-01-28T14:13:05Z</time>
      </trkpt>
      <trkpt lat="49.89903" lon="2.25745">
        <ele>42.3</ele>
        <time>2023-01-28T14:13:06Z</time>
      </trkpt>
      <trkpt lat="49.89903" lon="2.25745">
        <ele>42.3</ele>
        <time>2023-01-28T14:13:07Z</time>
      </trkpt>
      <trkpt lat="49.89903" lon="2.25745">
        <ele>42.3</ele>
        <time>2023-01-28T14:13:08Z</time>
      </trkpt>
      <trkpt lat="49.89903" lon="2.25745">
        <ele>42.3</ele>
        <time>2023-01-28T14:13:09Z</time>
      </trkpt>
      <trkpt lat="49.89903" lon="2.25745">
        <ele>42.3</ele>
        <time>2023-01-28T14:13:10Z</time>
      </trkpt>
      <trkpt lat="49.89903" lon="2.25745">
        <ele>42.3</ele>
        <time>2023-01-28T14:13:11Z</time>
      </trkpt>
      <trkpt lat="49.89903" lon="2.25745">
        <ele>42.3</ele>
        <time>2023-01-28T14:13:12Z</time>
      </trkpt>
      <trkpt lat="49.89903" lon="2.25745">
        <ele>42.3</ele>
        <time>2023-01-28T14:13:13Z</time>
      </trkpt>
      <trkpt lat="49.89903" lon="2.25745">
        <ele>42.3</ele>
        <time>2023-01-28T14:13:14Z</time>
      </trkpt>
      <trkpt lat="49.89903" lon="2.25745">
        <ele>42.3</ele>
        <time>2023-01-28T14:13:15Z</time>
      </trkpt>
      <trkpt lat="49.89903" lon="2.25745">
        <ele>42.3</ele>
        <time>2023-01-28T14:13:16Z</time>
      </trkpt>
      <trkpt lat="49.89903" lon="2.25745">
        <ele>42.3</ele>
        <time>2023-01-28T14:13:17Z</time>
      </trkpt>
      <trkpt lat="49.89903" lon="2.25745">
        <ele>42.3</ele>
        <time>2023-01-28T14:13:18Z</time>
      </trkpt>
      <trkpt lat="49.89903" lon="2.25745">
        <ele>42.3</ele>
        <time>2023-01-28T14:13:19Z</time>
      </trkpt>
      <trkpt lat="49.89903" lon="2.25745">
        <ele>42.3</ele>
        <time>2023-01-28T14:13:20Z</time>
      </trkpt>
      <trkpt lat="49.89903" lon="2.25745">
        <ele>42.3</ele>
        <time>2023-01-28T14:13:21Z</time>
      </trkpt>
      <trkpt lat="49.89903" lon="2.25745">
        <ele>42.3</ele>
        <time>2023-01-28T14:13:22Z</time>
      </trkpt>
      <trkpt lat="49.89903" lon="2.25745">
        <ele>42.3</ele>
        <time>2023-01-28T14:13:23Z</time>
      </trkpt>
      <trkpt lat="49.89903" lon="2.25745">
        <ele>42.3</ele>
        <time>2023-01-28T14:13:24Z</time>
      </trkpt>
      <trkpt lat="49.89903" lon="2.25745">
        <ele>42.3</ele>
        <time>2023-01-28T14:13:25Z</time>
      </trkpt>
      <trkpt lat="49.89903" lon="2.25745">
        <ele>42.3</ele>
        <time>2023-01-28T14:13:26Z</time>
      </trkpt>
      <trkpt lat="49.89903" lon="2.25745">
        <ele>42.3</ele>
        <time>2023-01-28T14:13:27Z</time>
      </trkpt>
      <trkpt lat="49.89903" lon="2.25745">
        <ele>42.3</ele>
        <time>2023-01-28T14:13:28Z</time>
      </trkpt>
      <trkpt lat="49.89903" lon="2.25745">
        <ele>42.3</ele>
        <time>2023-01-28T14:13:29Z</time>
      </trkpt>
      <trkpt lat="49.89903" lon="2.25745">
        <ele>42.3</ele>
        <time>2023-01-28T14:13:30Z</time>
      </trkpt>
      <trkpt lat="49.89903" lon="2.25745">
        <ele>42.3</ele>
        <time>2023-01-28T14:13:31Z</time>
      </trkpt>
      <trkpt lat="49.89903" lon="2.25745">
        <ele>42.3</ele>
        <time>2023-01-28T14:13:32Z</time>
      </trkpt>
      <trkpt lat="49.89903" lon="2.25745">
        <ele>42.3</ele>
        <time>2023-01-28T14:13:33Z</time>
      </trkpt>
      <trkpt lat="49.89903" lon="2.25745">
        <ele>42.3</ele>
        <time>2023-01-28T14:13:34Z</time>
      </trkpt>
      <trkpt lat="49.89903" lon="2.25745">
        <ele>42.3</ele>
        <time>2023-01-28T14:13:35Z</time>
      </trkpt>
      <trkpt lat="49.89903" lon="2.25745">
        <ele>42.3</ele>
        <time>2023-01-28T14:13:36Z</time>
      </trkpt>
      <trkpt lat="49.89903" lon="2.25745">
        <ele>42.3</ele>
        <time>2023-01-28T14:13:37Z</time>
      </trkpt>
      <trkpt lat="49.89903" lon="2.25745">
        <ele>42.3</ele>
        <time>2023-01-28T14:13:38Z</time>
      </trkpt>
      <trkpt lat="49.89903" lon="2.25745">
        <ele>42.3</ele>
        <time>2023-01-28T14:13:39Z</time>
      </trkpt>
      <trkpt lat="49.89903" lon="2.25745">
        <ele>42.3</ele>
        <time>2023-01-28T14:13:40Z</time>
      </trkpt>
      <trkpt lat="49.89903" lon="2.25745">
        <ele>42.3</ele>
        <time>2023-01-28T14:13:41Z</time>
      </trkpt>
      <trkpt lat="49.89903" lon="2.25745">
        <ele>42.3</ele>
        <time>2023-01-28T14:13:42Z</time>
      </trkpt>
      <trkpt lat="49.89903" lon="2.25745">
        <ele>42.3</ele>
        <time>2023-01-28T14:13:43Z</time>
      </trkpt>
      <trkpt lat="49.89903" lon="2.25745">
        <ele>42.3</ele>
        <time>2023-01-28T14:13:44Z</time>
      </trkpt>
      <trkpt lat="49.89903" lon="2.25745">
        <ele>42.3</ele>
        <time>2023-01-28T14:13:45Z</time>
      </trkpt>
      <trkpt lat="49.89903" lon="2.25745">
        <ele>42.3</ele>
        <time>2023-01-28T14:13:46Z</time>
      </trkpt>
      <trkpt lat="49.89903" lon="2.25745">
        <ele>42.3</ele>
        <time>2023-01-28T14:13:47Z</time>
      </trkpt>
      <trkpt lat="49.89903" lon="2.25745">
        <ele>42.3</ele>
        <time>2023-01-28T14:13:48Z</time>
      </trkpt>
      <trkpt lat="49.89903" lon="2.25745">
        <ele>42.3</ele>
        <time>2023-01-28T14:13:49Z</time>
      </trkpt>
      <trkpt lat="49.89903" lon="2.25745">
        <ele>42.3</ele>
        <time>2023-01-28T14:13:50Z</time>
      </trkpt>
      <trkpt lat="49.89903" lon="2.25745">
        <ele>42.3</ele>
        <time>2023-01-28T14:13:51Z</time>
      </trkpt>
      <trkpt lat="49.89903" lon="2.25745">
        <ele>42.3</ele>
        <time>2023-01-28T14:13:52Z</time>
      </trkpt>
      <trkpt lat="49.89903" lon="2.25745">
        <ele>42.3</ele>
        <time>2023-01-28T14:13:53Z</time>
      </trkpt>
      <trkpt lat="49.89903" lon="2.25745">
        <ele>42.3</ele>
        <time>2023-01-28T14:13:54Z</time>
      </trkpt>
      <trkpt lat="49.89903" lon="2.25745">
        <ele>42.3</ele>
        <time>2023-01-28T14:13:55Z</time>
      </trkpt>
      <trkpt lat="49.89903" lon="2.25745">
        <ele>42.3</ele>
        <time>2023-01-28T14:13:56Z</time>
      </trkpt>
      <trkpt lat="49.89903" lon="2.25745">
        <ele>42.3</ele>
        <time>2023-01-28T14:13:57Z</time>
      </trkpt>
      <trkpt lat="49.89903" lon="2.25745">
        <ele>42.3</ele>
        <time>2023-01-28T14:13:58Z</time>
      </trkpt>
      <trkpt lat="49.89903" lon="2.25745">
        <ele>42.3</ele>
        <time>2023-01-28T14:13:59Z</time>
      </trkpt>
      <trkpt lat="49.89903" lon="2.25745">
        <ele>42.3</ele>
        <time>2023-01-28T14:14:00Z</time>
      </trkpt>
      <trkpt lat="49.89903" lon="2.25745">
        <ele>42.3</ele>
        <time>2023-01-28T14:14:01Z</time>
      </trkpt>
      <trkpt lat="49.89903" lon="2.25745">
        <ele>42.3</ele>
        <time>2023-01-28T14:14:02Z</time>
      </trkpt>
      <trkpt lat="49.89903" lon="2.25745">
        <ele>42.3</ele>
        <time>2023-01-28T14:14:03Z</time>
      </trkpt>
      <trkpt lat="49.89903" lon="2.25745">
        <ele>42.3</ele>
        <time>2023-01-28T14:14:04Z</time>
      </trkpt>
      <trkpt lat="49.89903" lon="2.25745">
        <ele>42.3</ele>
        <time>2023-01-28T14:14:05Z</time>
      </trkpt>
      <trkpt lat="49.89903" lon="2.25745">
        <ele>42.3</ele>
        <time>2023-01-28T14:14:06Z</time>
      </trkpt>
      <trkpt lat="49.89903" lon="2.25745">
        <ele>42.3</ele>
        <time>2023-01-28T14:14:07Z</time>
      </trkpt>
      <trkpt lat="49.89903" lon="2.25745">
        <ele>42.3</ele>
        <time>2023-01-28T14:14:08Z</time>
      </trkpt>
      <trkpt lat="49.89903" lon="2.25745">
        <ele>42.3</ele>
        <time>2023-01-28T14:14:09Z</time>
      </trkpt>
      <trkpt lat="49.89903" lon="2.25745">
        <ele>42.3</ele>
        <time>2023-01-28T14:14:10Z</time>
      </trkpt>
      <trkpt lat="49.89903" lon="2.25745">
        <ele>42.3</ele>
        <time>2023-01-28T14:14:11Z</time>
      </trkpt>
      <trkpt lat="49.89903" lon="2.25745">
        <ele>42.3</ele>
        <time>2023-01-28T14:14:12Z</time>
      </trkpt>
      <trkpt lat="49.89903" lon="2.25745">
        <ele>42.3</ele>
        <time>2023-01-28T14:14:13Z</time>
      </trkpt>
      <trkpt lat="49.89903" lon="2.25745">
        <ele>42.3</ele>
        <time>2023-01-28T14:14:14Z</time>
      </trkpt>
      <trkpt lat="49.89903" lon="2.25745">
        <ele>42.3</ele>
        <time>2023-01-28T14:14:15Z</time>
      </trkpt>
      <trkpt lat="49.89903" lon="2.25745">
        <ele>42.3</ele>
        <time>2023-01-28T14:14:16Z</time>
      </trkpt>
      <trkpt lat="49.89903" lon="2.25745">
        <ele>42.3</ele>
        <time>2023-01-28T14:14:17Z</time>
      </trkpt>
      <trkpt lat="49.89903" lon="2.25745">
        <ele>42.3</ele>
        <time>2023-01-28T14:14:18Z</time>
      </trkpt>
      <trkpt lat="49.89903" lon="2.25745">
        <ele>42.3</ele>
        <time>2023-01-28T14:14:19Z</time>
      </trkpt>
      <trkpt lat="49.89903" lon="2.25745">
        <ele>42.3</ele>
        <time>2023-01-28T14:14:20Z</time>
      </trkpt>
      <trkpt lat="49.89903" lon="2.25745">
        <ele>42.3</ele>
        <time>2023-01-28T14:14:21Z</time>
      </trkpt>
      <trkpt lat="49.89903" lon="2.25745">
        <ele>42.3</ele>
        <time>2023-01-28T14:14:22Z</time>
      </trkpt>
      <trkpt lat="49.89903" lon="2.25745">
        <ele>42.3</ele>
        <time>2023-01-28T14:14:23Z</time>
      </trkpt>
      <trkpt lat="49.89903" lon="2.25745">
        <ele>42.3</ele>
        <time>2023-01-28T14:14:24Z</time>
      </trkpt>
      <trkpt lat="49.89903" lon="2.25745">
        <ele>42.3</ele>
        <time>2023-01-28T14:14:25Z</time>
      </trkpt>
      <trkpt lat="49.89903" lon="2.25745">
        <ele>42.3</ele>
        <time>2023-01-28T14:14:26Z</time>
      </trkpt>
      <trkpt lat="49.89903" lon="2.25745">
        <ele>42.3</ele>
        <time>2023-01-28T14:14:27Z</time>
      </trkpt>
      <trkpt lat="49.89903" lon="2.25745">
        <ele>42.3</ele>
        <time>2023-01-28T14:14:28Z</time>
      </trkpt>
      <trkpt lat="49.89903" lon="2.25745">
        <ele>42.3</ele>
        <time>2023-01-28T14:14:29Z</time>
      </trkpt>
      <trkpt lat="49.89903" lon="2.25745">
        <ele>42.3</ele>
        <time>2023-01-28T14:14:30Z</time>
      </trkpt>
      <trkpt lat="49.89903" lon="2.25745">
        <ele>42.3</ele>
        <time>2023-01-28T14:14:31Z</time>
      </trkpt>
      <trkpt lat="49.89903" lon="2.25745">
        <ele>42.3</ele>
        <time>2023-01-28T14:14:32Z</time>
      </trkpt>
      <trkpt lat="49.89903" lon="2.25745">
        <ele>42.3</ele>
        <time>2023-01-28T14:14:33Z</time>
      </trkpt>
      <trkpt lat="49.89903" lon="2.25745">
        <ele>42.3</ele>
        <time>2023-01-28T14:14:34Z</time>
      </trkpt>
      <trkpt lat="49.89903" lon="2.25745">
        <ele>42.3</ele>
        <time>2023-01-28T14:14:35Z</time>
      </trkpt>
      <trkpt lat="49.89903" lon="2.25745">
        <ele>42.3</ele>
        <time>2023-01-28T14:14:36Z</time>
      </trkpt>
      <trkpt lat="49.89903" lon="2.25745">
        <ele>42.3</ele>
        <time>2023-01-28T14:14:37Z</time>
      </trkpt>
      <trkpt lat="49.89903" lon="2.25745">
        <ele>42.3</ele>
        <time>2023-01-28T14:14:38Z</time>
      </trkpt>
      <trkpt lat="49.89903" lon="2.25745">
        <ele>42.3</ele>
        <time>2023-01-28T14:14:39Z</time>
      </trkpt>
      <trkpt lat="49.89903" lon="2.25745">
        <ele>42.3</ele>
        <time>2023-01-28T14:14:40Z</time>
      </trkpt>
      <trkpt lat="49.89903" lon="2.25745">
        <ele>42.3</ele>
        <time>2023-01-28T14:14:41Z</time>
      </trkpt>
      <trkpt lat="49.89903" lon="2.25745">
        <ele>42.3</ele>
        <time>2023-01-28T14:14:42Z</time>
      </trkpt>
      <trkpt lat="49.89903" lon="2.25745">
        <ele>42.3</ele>
        <time>2023-01-28T14:14:43Z</time>
      </trkpt>
      <trkpt lat="49.89903" lon="2.25745">
        <ele>42.3</ele>
        <time>2023-01-28T14:14:44Z</time>
      </trkpt>
      <trkpt lat="49.89903" lon="2.25745">
        <ele>42.3</ele>
        <time>2023-01-28T14:14:45Z</time>
      </trkpt>
      <trkpt lat="49.89903" lon="2.25745">
        <ele>42.3</ele>
        <time>2023-01-28T14:14:46Z</time>
      </trkpt>
      <trkpt lat="49.89903" lon="2.25745">
        <ele>42.3</ele>
        <time>2023-01-28T14:14:47Z</time>
      </trkpt>
      <trkpt lat="49.89903" lon="2.25745">
        <ele>42.3</ele>
        <time>2023-01-28T14:14:48Z</time>
      </trkpt>
      <trkpt lat="49.89903" lon="2.25745">
        <ele>42.3</ele>
        <time>2023-01-28T14:14:49Z</time>
      </trkpt>
      <trkpt lat="49.89903" lon="2.25745">
        <ele>42.3</ele>
        <time>2023-01-28T14:14:50Z</time>
      </trkpt>
      <trkpt lat="49.89903" lon="2.25745">
        <ele>42.3</ele>
        <time>2023-01-28T14:14:51Z</time>
      </trkpt>
      <trkpt lat="49.89903" lon="2.25745">
        <ele>42.3</ele>
        <time>2023-01-28T14:14:52Z</time>
      </trkpt>
      <trkpt lat="49.89903" lon="2.25745">
        <ele>42.3</ele>
        <time>2023-01-28T14:14:53Z</time>
      </trkpt>
      <trkpt lat="49.89903" lon="2.25745">
        <ele>42.3</ele>
        <time>2023-01-28T14:14:54Z</time>
      </trkpt>
      <trkpt lat="49.89903" lon="2.25745">
        <ele>42.3</ele>
        <time>2023-01-28T14:14:55Z</time>
      </trkpt>
      <trkpt lat="49.89903" lon="2.25745">
        <ele>42.3</ele>
        <time>2023-01-28T14:14:56Z</time>
      </trkpt>
      <trkpt lat="49.89903" lon="2.25745">
        <ele>42.3</ele>
        <time>2023-01-28T14:14:57Z</time>
      </trkpt>
      <trkpt lat="49.89903" lon="2.25745">
        <ele>42.3</ele>
        <time>2023-01-28T14:14:58Z</time>
      </trkpt>
      <trkpt lat="49.89903" lon="2.25745">
        <ele>42.3</ele>
        <time>2023-01-28T14:14:59Z</time>
      </trkpt>
      <trkpt lat="49.89903" lon="2.25745">
        <ele>42.3</ele>
        <time>2023-01-28T14:15:00Z</time>
      </trkpt>
      <trkpt lat="49.89903" lon="2.25745">
        <ele>42.3</ele>
        <time>2023-01-28T14:15:01Z</time>
      </trkpt>
      <trkpt lat="49.89903" lon="2.25745">
        <ele>42.3</ele>
        <time>2023-01-28T14:15:02Z</time>
      </trkpt>
      <trkpt lat="49.89903" lon="2.25745">
        <ele>42.3</ele>
        <time>2023-01-28T14:15:03Z</time>
      </trkpt>
      <trkpt lat="49.89903" lon="2.25745">
        <ele>42.3</ele>
        <time>2023-01-28T14:15:04Z</time>
      </trkpt>
      <trkpt lat="49.89903" lon="2.25745">
        <ele>42.3</ele>
        <time>2023-01-28T14:15:05Z</time>
      </trkpt>
      <trkpt lat="49.89903" lon="2.25745">
        <ele>42.3</ele>
        <time>2023-01-28T14:15:06Z</time>
      </trkpt>
      <trkpt lat="49.89903" lon="2.25745">
        <ele>42.3</ele>
        <time>2023-01-28T14:15:07Z</time>
      </trkpt>
      <trkpt lat="49.89903" lon="2.25745">
        <ele>42.3</ele>
        <time>2023-01-28T14:15:08Z</time>
      </trkpt>
      <trkpt lat="49.89903" lon="2.25745">
        <ele>42.3</ele>
        <time>2023-01-28T14:15:09Z</time>
      </trkpt>
      <trkpt lat="49.89903" lon="2.25745">
        <ele>42.3</ele>
        <time>2023-01-28T14:15:10Z</time>
      </trkpt>
      <trkpt lat="49.89903" lon="2.25745">
        <ele>42.3</ele>
        <time>2023-01-28T14:15:11Z</time>
      </trkpt>
      <trkpt lat="49.89903" lon="2.25745">
        <ele>42.3</ele>
        <time>2023-01-28T14:15:12Z</time>
      </trkpt>
      <trkpt lat="49.89903" lon="2.25745">
        <ele>42.3</ele>
        <time>2023-01-28T14:15:13Z</time>
      </trkpt>
      <trkpt lat="49.89903" lon="2.25745">
        <ele>42.3</ele>
        <time>2023-01-28T14:15:14Z</time>
      </trkpt>
      <trkpt lat="49.89903" lon="2.25745">
        <ele>42.3</ele>
        <time>2023-01-28T14:15:15Z</time>
      </trkpt>
      <trkpt lat="49.89903" lon="2.25745">
        <ele>42.3</ele>
        <time>2023-01-28T14:15:16Z</time>
      </trkpt>
      <trkpt lat="49.89903" lon="2.25745">
        <ele>42.3</ele>
        <time>2023-01-28T14:15:17Z</time>
      </trkpt>
      <trkpt lat="49.89903" lon="2.25745">
        <ele>42.3</ele>
        <time>2023-01-28T14:15:18Z</time>
      </trkpt>
      <trkpt lat="49.89903" lon="2.25745">
        <ele>42.3</ele>
        <time>2023-01-28T14:15:19Z</time>
      </trkpt>
      <trkpt lat="49.89903" lon="2.25745">
        <ele>42.3</ele>
        <time>2023-01-28T14:15:20Z</time>
      </trkpt>
      <trkpt lat="49.89903" lon="2.25745">
        <ele>42.3</ele>
        <time>2023-01-28T14:15:21Z</time>
      </trkpt>
      <trkpt lat="49.89903" lon="2.25745">
        <ele>42.3</ele>
        <time>2023-01-28T14:15:22Z</time>
      </trkpt>
      <trkpt lat="49.89903" lon="2.25745">
        <ele>42.3</ele>
        <time>2023-01-28T14:15:23Z</time>
      </trkpt>
      <trkpt lat="49.89903" lon="2.25745">
        <ele>42.3</ele>
        <time>2023-01-28T14:15:24Z</time>
      </trkpt>
      <trkpt lat="49.89903" lon="2.25745">
        <ele>42.3</ele>
        <time>2023-01-28T14:15:25Z</time>
      </trkpt>
      <trkpt lat="49.89903" lon="2.25745">
        <ele>42.3</ele>
        <time>2023-01-28T14:15:26Z</time>
      </trkpt>
      <trkpt lat="49.89903" lon="2.25745">
        <ele>42.3</ele>
        <time>2023-01-28T14:15:27Z</time>
      </trkpt>
      <trkpt lat="49.89903" lon="2.25745">
        <ele>42.3</ele>
        <time>2023-01-28T14:15:28Z</time>
      </trkpt>
      <trkpt lat="49.89903" lon="2.25745">
        <ele>42.3</ele>
        <time>2023-01-28T14:15:29Z</time>
      </trkpt>
      <trkpt lat="49.89903" lon="2.25745">
        <ele>42.3</ele>
        <time>2023-01-28T14:15:30Z</time>
      </trkpt>
      <trkpt lat="49.89903" lon="2.25745">
        <ele>42.3</ele>
        <time>2023-01-28T14:15:31Z</time>
      </trkpt>
      <trkpt lat="49.89903" lon="2.25745">
        <ele>42.3</ele>
        <time>2023-01-28T14:15:32Z</time>
      </trkpt>
      <trkpt lat="49.89903" lon="2.25745">
        <ele>42.3</ele>
        <time>2023-01-28T14:15:33Z</time>
      </trkpt>
      <trkpt lat="49.89903" lon="2.25745">
        <ele>42.3</ele>
        <time>2023-01-28T14:15:34Z</time>
      </trkpt>
      <trkpt lat="49.89903" lon="2.25745">
        <ele>42.3</ele>
        <time>2023-01-28T14:15:35Z</time>
      </trkpt>
      <trkpt lat="49.89903" lon="2.25745">
        <ele>42.3</ele>
        <time>2023-01-28T14:15:36Z</time>
      </trkpt>
      <trkpt lat="49.89903" lon="2.25745">
        <ele>42.3</ele>
        <time>2023-01-28T14:15:37Z</time>
      </trkpt>
      <trkpt lat="49.89903" lon="2.25745">
        <ele>42.3</ele>
        <time>2023-01-28T14:15:38Z</time>
      </trkpt>
      <trkpt lat="49.89903" lon="2.25745">
        <ele>42.3</ele>
        <time>2023-01-28T14:15:39Z</time>
      </trkpt>
      <trkpt lat="49.89903" lon="2.25745">
        <ele>42.3</ele>
        <time>2023-01-28T14:15:40Z</time>
      </trkpt>
      <trkpt lat="49.89903" lon="2.25745">
        <ele>42.3</ele>
        <time>2023-01-28T14:15:41Z</time>
      </trkpt>
      <trkpt lat="49.89903" lon="2.25745">
        <ele>42.3</ele>
        <time>2023-01-28T14:15:42Z</time>
      </trkpt>
      <trkpt lat="49.89903" lon="2.25745">
        <ele>42.3</ele>
        <time>2023-01-28T14:15:43Z</time>
      </trkpt>
      <trkpt lat="49.89903" lon="2.25745">
        <ele>42.3</ele>
        <time>2023-01-28T14:15:44Z</time>
      </trkpt>
      <trkpt lat="49.89903" lon="2.25745">
        <ele>42.3</ele>
        <time>2023-01-28T14:15:45Z</time>
      </trkpt>
      <trkpt lat="49.89903" lon="2.25745">
        <ele>42.3</ele>
        <time>2023-01-28T14:15:46Z</time>
      </trkpt>
      <trkpt lat="49.89903" lon="2.25745">
        <ele>42.3</ele>
        <time>2023-01-28T14:15:47Z</time>
      </trkpt>
      <trkpt lat="49.89903" lon="2.25745">
        <ele>42.3</ele>
        <time>2023-01-28T14:15:48Z</time>
      </trkpt>
      <trkpt lat="49.89903" lon="2.25745">
        <ele>42.3</ele>
        <time>2023-01-28T14:15:49Z</time>
      </trkpt>
      <trkpt lat="49.89903" lon="2.25745">
        <ele>42.3</ele>
        <time>2023-01-28T14:15:50Z</time>
      </trkpt>
      <trkpt lat="49.89903" lon="2.25745">
        <ele>42.3</ele>
        <time>2023-01-28T14:15:51Z</time>
      </trkpt>
      <trkpt lat="49.89903" lon="2.25745">
        <ele>42.3</ele>
        <time>2023-01-28T14:15:52Z</time>
      </trkpt>
      <trkpt lat="49.89903" lon="2.25745">
        <ele>42.3</ele>
        <time>2023-01-28T14:15:53Z</time>
      </trkpt>
      <trkpt lat="49.89903" lon="2.25745">
        <ele>42.3</ele>
        <time>2023-01-28T14:15:54Z</time>
      </trkpt>
      <trkpt lat="49.89903" lon="2.25745">
        <ele>42.3</ele>
        <time>2023-01-28T14:15:55Z</time>
      </trkpt>
      <trkpt lat="49.89903" lon="2.25745">
        <ele>42.3</ele>
        <time>2023-01-28T14:15:56Z</time>
      </trkpt>
      <trkpt lat="49.89903" lon="2.25745">
        <ele>42.3</ele>
        <time>2023-01-28T14:15:57Z</time>
      </trkpt>
      <trkpt lat="49.89903" lon="2.25745">
        <ele>42.3</ele>
        <time>2023-01-28T14:15:58Z</time>
      </trkpt>
      <trkpt lat="49.89903" lon="2.25745">
        <ele>42.3</ele>
        <time>2023-01-28T14:15:59Z</time>
      </trkpt>
      <trkpt lat="49.89903" lon="2.25745">
        <ele>42.3</ele>
        <time>2023-01-28T14:16:00Z</time>
      </trkpt>
      <trkpt lat="49.89903" lon="2.25745">
        <ele>42.3</ele>
        <time>2023-01-28T14:16:01Z</time>
      </trkpt>
      <trkpt lat="49.89903" lon="2.25745">
        <ele>42.3</ele>
        <time>2023-01-28T14:16:02Z</time>
      </trkpt>
      <trkpt lat="49.89903" lon="2.25745">
        <ele>42.3</ele>
        <time>2023-01-28T14:16:03Z</time>
      </trkpt>
      <trkpt lat="49.89903" lon="2.25745">
        <ele>42.3</ele>
        <time>2023-01-28T14:16:04Z</time>
      </trkpt>
      <trkpt lat="49.89903" lon="2.25745">
        <ele>42.3</ele>
        <time>2023-01-28T14:16:05Z</time>
      </trkpt>
      <trkpt lat="49.89903" lon="2.25745">
        <ele>42.3</ele>
        <time>2023-01-28T14:16:06Z</time>
      </trkpt>
      <trkpt lat="49.89903" lon="2.25745">
        <ele>42.3</ele>
        <time>2023-01-28T14:16:07Z</time>
      </trkpt>
      <trkpt lat="49.89903" lon="2.25745">
        <ele>42.3</ele>
        <time>2023-01-28T14:16:08Z</time>
      </trkpt>
      <trkpt lat="49.89903" lon="2.25745">
        <ele>42.3</ele>
        <time>2023-01-28T14:16:09Z</time>
      </trkpt>
      <trkpt lat="49.89903" lon="2.25745">
        <ele>42.3</ele>
        <time>2023-01-28T14:16:10Z</time>
      </trkpt>
      <trkpt lat="49.89903" lon="2.25745">
        <ele>42.3</ele>
        <time>2023-01-28T14:16:11Z</time>
      </trkpt>
      <trkpt lat="49.89903" lon="2.25745">
        <ele>42.3</ele>
        <time>2023-01-28T14:16:12Z</time>
      </trkpt>
      <trkpt lat="49.89903" lon="2.25745">
        <ele>42.3</ele>
        <time>2023-01-28T14:16:13Z</time>
      </trkpt>
      <trkpt lat="49.89903" lon="2.25745">
        <ele>42.3</ele>
        <time>2023-01-28T14:16:14Z</time>
      </trkpt>
      <trkpt lat="49.89903" lon="2.25745">
        <ele>42.3</ele>
        <time>2023-01-28T14:16:15Z</time>
      </trkpt>
      <trkpt lat="49.89903" lon="2.25745">
        <ele>42.3</ele>
        <time>2023-01-28T14:16:16Z</time>
      </trkpt>
      <trkpt lat="49.89903" lon="2.25745">
        <ele>42.3</ele>
        <time>2023-01-28T14:16:17Z</time>
      </trkpt>
      <trkpt lat="49.89903" lon="2.25745">
        <ele>42.3</ele>
        <time>2023-01-28T14:16:18Z</time>
      </trkpt>
      <trkpt lat="49.89903" lon="2.25745">
        <ele>42.3</ele>
        <time>2023-01-28T14:16:19Z</time>
      </trkpt>
      <trkpt lat="49.89903" lon="2.25745">
        <ele>42.3</ele>
        <time>2023-01-28T14:16:20Z</time>
      </trkpt>
      <trkpt lat="49.89903" lon="2.25745">
        <ele>42.3</ele>
        <time>2023-01-28T14:16:21Z</time>
      </trkpt>
      <trkpt lat="49.89903" lon="2.25745">
        <ele>42.3</ele>
        <time>2023-01-28T14:16:22Z</time>
      </trkpt>
      <trkpt lat="49.89903" lon="2.25745">
        <ele>42.3</ele>
        <time>2023-01-28T14:16:23Z</time>
      </trkpt>
      <trkpt lat="49.89903" lon="2.25745">
        <ele>42.3</ele>
        <time>2023-01-28T14:16:24Z</time>
      </trkpt>
      <trkpt lat="49.89903" lon="2.25745">
        <ele>42.3</ele>
        <time>2023-01-28T14:16:25Z</time>
      </trkpt>
      <trkpt lat="49.89903" lon="2.25745">
        <ele>42.3</ele>
        <time>2023-01-28T14:16:26Z</time>
      </trkpt>
      <trkpt lat="49.89903" lon="2.25745">
        <ele>42.3</ele>
        <time>2023-01-28T14:16:27Z</time>
      </trkpt>
      <trkpt lat="49.89903" lon="2.25745">
        <ele>42.3</ele>
        <time>2023-01-28T14:16:28Z</time>
      </trkpt>
      <trkpt lat="49.89903" lon="2.25745">
        <ele>42.3</ele>
        <time>2023-01-28T14:16:29Z</time>
      </trkpt>
      <trkpt lat="49.89903" lon="2.25745">
        <ele>42.3</ele>
        <time>2023-01-28T14:16:30Z</time>
      </trkpt>
      <trkpt lat="49.89903" lon="2.25745">
        <ele>42.3</ele>
        <time>2023-01-28T14:16:31Z</time>
      </trkpt>
      <trkpt lat="49.89903" lon="2.25745">
        <ele>42.3</ele>
        <time>2023-01-28T14:16:32Z</time>
      </trkpt>
      <trkpt lat="49.89903" lon="2.25745">
        <ele>42.3</ele>
        <time>2023-01-28T14:16:33Z</time>
      </trkpt>
      <trkpt lat="49.89903" lon="2.25745">
        <ele>42.3</ele>
        <time>2023-01-28T14:16:34Z</time>
      </trkpt>
      <trkpt lat="49.89903" lon="2.25745">
        <ele>42.3</ele>
        <time>2023-01-28T14:16:35Z</time>
      </trkpt>
      <trkpt lat="49.89903" lon="2.25745">
        <ele>42.3</ele>
        <time>2023-01-28T14:16:36Z</time>
      </trkpt>
      <trkpt lat="49.89903" lon="2.25745">
        <ele>42.3</ele>
        <time>2023-01-28T14:16:37Z</time>
      </trkpt>
      <trkpt lat="49.89903" lon="2.25745">
        <ele>42.3</ele>
        <time>2023-01-28T14:16:38Z</time>
      </trkpt>
      <trkpt lat="49.89903" lon="2.25745">
        <ele>42.3</ele>
        <time>2023-01-28T14:16:39Z</time>
      </trkpt>
      <trkpt lat="49.89903" lon="2.25745">
        <ele>42.3</ele>
        <time>2023-01-28T14:16:40Z</time>
      </trkpt>
      <trkpt lat="49.89903" lon="2.25745">
        <ele>42.3</ele>
        <time>2023-01-28T14:16:41Z</time>
      </trkpt>
      <trkpt lat="49.89903" lon="2.25745">
        <ele>42.3</ele>
        <time>2023-01-28T14:16:42Z</time>
      </trkpt>
      <trkpt lat="49.89903" lon="2.25745">
        <ele>42.3</ele>
        <time>2023-01-28T14:16:43Z</time>
      </trkpt>
      <trkpt lat="49.89903" lon="2.25745">
        <ele>42.3</ele>
        <time>2023-01-28T14:16:44Z</time>
      </trkpt>
      <trkpt lat="49.89903" lon="2.25745">
        <ele>42.3</ele>
        <time>2023-01-28T14:16:45Z</time>
      </trkpt>
      <trkpt lat="49.89903" lon="2.25745">
        <ele>42.3</ele>
        <time>2023-01-28T14:16:46Z</time>
      </trkpt>
      <trkpt lat="49.89903" lon="2.25745">
        <ele>42.3</ele>
        <time>2023-01-28T14:16:47Z</time>
      </trkpt>
      <trkpt lat="49.89903" lon="2.25745">
        <ele>42.3</ele>
        <time>2023-01-28T14:16:48Z</time>
      </trkpt>
      <trkpt lat="49.89903" lon="2.25745">
        <ele>42.3</ele>
        <time>2023-01-28T14:16:49Z</time>
      </trkpt>
      <trkpt lat="49.89903" lon="2.25745">
        <ele>42.3</ele>
        <time>2023-01-28T14:16:50Z</time>
      </trkpt>
      <trkpt lat="49.89903" lon="2.25745">
        <ele>42.3</ele>
        <time>2023-01-28T14:16:51Z</time>
      </trkpt>
      <trkpt lat="49.89903" lon="2.25745">
        <ele>42.3</ele>
        <time>2023-01-28T14:16:52Z</time>
      </trkpt>
      <trkpt lat="49.89903" lon="2.25745">
        <ele>42.3</ele>
        <time>2023-01-28T14:16:53Z</time>
      </trkpt>
      <trkpt lat="49.89903" lon="2.25745">
        <ele>42.3</ele>
        <time>2023-01-28T14:16:54Z</time>
      </trkpt>
      <trkpt lat="49.89903" lon="2.25745">
        <ele>42.3</ele>
        <time>2023-01-28T14:16:55Z</time>
      </trkpt>
      <trkpt lat="49.89903" lon="2.25745">
        <ele>42.3</ele>
        <time>2023-01-28T14:16:56Z</time>
      </trkpt>
      <trkpt lat="49.89903" lon="2.25745">
        <ele>42.3</ele>
        <time>2023-01-28T14:16:57Z</time>
      </trkpt>
      <trkpt lat="49.89903" lon="2.25745">
        <ele>42.3</ele>
        <time>2023-01-28T14:16:58Z</time>
      </trkpt>
      <trkpt lat="49.89903" lon="2.25745">
        <ele>42.3</ele>
        <time>2023-01-28T14:16:59Z</time>
      </trkpt>
      <trkpt lat="49.89903" lon="2.25745">
        <ele>42.3</ele>
        <time>2023-01-28T14:17:00Z</time>
      </trkpt>
      <trkpt lat="49.89903" lon="2.25745">
        <ele>42.3</ele>
        <time>2023-01-28T14:17:01Z</time>
      </trkpt>
      <trkpt lat="49.89903" lon="2.25745">
        <ele>42.3</ele>
        <time>2023-01-28T14:17:02Z</time>
      </trkpt>
      <trkpt lat="49.89903" lon="2.25745">
        <ele>42.3</ele>
        <time>2023-01-28T14:17:03Z</time>
      </trkpt>
      <trkpt lat="49.89903" lon="2.25745">
        <ele>42.3</ele>
        <time>2023-01-28T14:17:04Z</time>
      </trkpt>
      <trkpt lat="49.89903" lon="2.25745">
        <ele>42.3</ele>
        <time>2023-01-28T14:17:05Z</time>
      </trkpt>
      <trkpt lat="49.89903" lon="2.25745">
        <ele>42.3</ele>
        <time>2023-01-28T14:17:06Z</time>
      </trkpt>
      <trkpt lat="49.89903" lon="2.25745">
        <ele>42.3</ele>
        <time>2023-01-28T14:17:07Z</time>
      </trkpt>
      <trkpt lat="49.89903" lon="2.25745">
        <ele>42.3</ele>
        <time>2023-01-28T14:17:08Z</time>
      </trkpt>
      <trkpt lat="49.89903" lon="2.25745">
        <ele>42.3</ele>
        <time>2023-01-28T14:17:09Z</time>
      </trkpt>
      <trkpt lat="49.89903" lon="2.25745">
        <ele>42.3</ele>
        <time>2023-01-28T14:17:10Z</time>
      </trkpt>
      <trkpt lat="49.89903" lon="2.25745">
        <ele>42.3</ele>
        <time>2023-01-28T14:17:11Z</time>
      </trkpt>
      <trkpt lat="49.89903" lon="2.25745">
        <ele>42.3</ele>
        <time>2023-01-28T14:17:12Z</time>
      </trkpt>
      <trkpt lat="49.89903" lon="2.25745">
        <ele>42.3</ele>
        <time>2023-01-28T14:17:13Z</time>
      </trkpt>
      <trkpt lat="49.89903" lon="2.25745">
        <ele>42.3</ele>
        <time>2023-01-28T14:17:14Z</time>
      </trkpt>
      <trkpt lat="49.89903" lon="2.25745">
        <ele>42.3</ele>
        <time>2023-01-28T14:17:15Z</time>
      </trkpt>
      <trkpt lat="49.89903" lon="2.25745">
        <ele>42.3</ele>
        <time>2023-01-28T14:17:16Z</time>
      </trkpt>
      <trkpt lat="49.89903" lon="2.25745">
        <ele>42.3</ele>
        <time>2023-01-28T14:17:17Z</time>
      </trkpt>
      <trkpt lat="49.89903" lon="2.25745">
        <ele>42.3</ele>
        <time>2023-01-28T14:17:18Z</time>
      </trkpt>
      <trkpt lat="49.89903" lon="2.25745">
        <ele>42.3</ele>
        <time>2023-01-28T14:17:19Z</time>
      </trkpt>
      <trkpt lat="49.89903" lon="2.25745">
        <ele>42.3</ele>
        <time>2023-01-28T14:17:20Z</time>
      </trkpt>
      <trkpt lat="49.89903" lon="2.25745">
        <ele>42.3</ele>
        <time>2023-01-28T14:17:21Z</time>
      </trkpt>
      <trkpt lat="49.89903" lon="2.25745">
        <ele>42.3</ele>
        <time>2023-01-28T14:17:22Z</time>
      </trkpt>
      <trkpt lat="49.89903" lon="2.25745">
        <ele>42.3</ele>
        <time>2023-01-28T14:17:23Z</time>
      </trkpt>
      <trkpt lat="49.89903" lon="2.25745">
        <ele>42.3</ele>
        <time>2023-01-28T14:17:24Z</time>
      </trkpt>
      <trkpt lat="49.89903" lon="2.25745">
        <ele>42.3</ele>
        <time>2023-01-28T14:17:25Z</time>
      </trkpt>
      <trkpt lat="49.89903" lon="2.25745">
        <ele>42.3</ele>
        <time>2023-01-28T14:17:26Z</time>
      </trkpt>
      <trkpt lat="49.89903" lon="2.25745">
        <ele>42.3</ele>
        <time>2023-01-28T14:17:27Z</time>
      </trkpt>
      <trkpt lat="49.89903" lon="2.25745">
        <ele>42.3</ele>
        <time>2023-01-28T14:17:28Z</time>
      </trkpt>
      <trkpt lat="49.89903" lon="2.25745">
        <ele>42.3</ele>
        <time>2023-01-28T14:17:29Z</time>
      </trkpt>
      <trkpt lat="49.89903" lon="2.25745">
        <ele>42.3</ele>
        <time>2023-01-28T14:17:30Z</time>
      </trkpt>
      <trkpt lat="49.89903" lon="2.25745">
        <ele>42.3</ele>
        <time>2023-01-28T14:17:31Z</time>
      </trkpt>
      <trkpt lat="49.89903" lon="2.25745">
        <ele>42.3</ele>
        <time>2023-01-28T14:17:32Z</time>
      </trkpt>
      <trkpt lat="49.89903" lon="2.25745">
        <ele>42.3</ele>
        <time>2023-01-28T14:17:33Z</time>
      </trkpt>
      <trkpt lat="49.89903" lon="2.25745">
        <ele>42.3</ele>
        <time>2023-01-28T14:17:34Z</time>
      </trkpt>
      <trkpt lat="49.89903" lon="2.25745">
        <ele>42.3</ele>
        <time>2023-01-28T14:17:35Z</time>
      </trkpt>
      <trkpt lat="49.89903" lon="2.25745">
        <ele>42.3</ele>
        <time>2023-01-28T14:17:36Z</time>
      </trkpt>
      <trkpt lat="49.89903" lon="2.25745">
        <ele>42.3</ele>
        <time>2023-01-28T14:17:37Z</time>
      </trkpt>
      <trkpt lat="49.89903" lon="2.25745">
        <ele>42.3</ele>
        <time>2023-01-28T14:17:38Z</time>
      </trkpt>
      <trkpt lat="49.89903" lon="2.25745">
        <ele>42.3</ele>
        <time>2023-01-28T14:17:39Z</time>
      </trkpt>
      <trkpt lat="49.89903" lon="2.25745">
        <ele>42.3</ele>
        <time>2023-01-28T14:17:40Z</time>
      </trkpt>
      <trkpt lat="49.89903" lon="2.25745">
        <ele>42.3</ele>
        <time>2023-01-28T14:17:41Z</time>
      </trkpt>
      <trkpt lat="49.89903" lon="2.25744">
        <ele>42.3</ele>
        <time>2023-01-28T14:17:42Z</time>
      </trkpt>
      <trkpt lat="49.89904" lon="2.25743">
        <ele>42.3</ele>
        <time>2023-01-28T14:17:43Z</time>
      </trkpt>
      <trkpt lat="49.89904" lon="2.25742">
        <ele>42.3</ele>
        <time>2023-01-28T14:17:44Z</time>
      </trkpt>
      <trkpt lat="49.89904" lon="2.25741">
        <ele>42.3</ele>
        <time>2023-01-28T14:17:45Z</time>
      </trkpt>
      <trkpt lat="49.89904" lon="2.2574">
        <ele>42.3</ele>
        <time>2023-01-28T14:17:46Z</time>
      </trkpt>
      <trkpt lat="49.89904" lon="2.2574">
        <ele>42.3</ele>
        <time>2023-01-28T14:17:47Z</time>
      </trkpt>
      <trkpt lat="49.89904" lon="2.2574">
        <ele>42.3</ele>
        <time>2023-01-28T14:17:48Z</time>
      </trkpt>
      <trkpt lat="49.89904" lon="2.2574">
        <ele>42.3</ele>
        <time>2023-01-28T14:17:49Z</time>
      </trkpt>
      <trkpt lat="49.89904" lon="2.2574">
        <ele>42.3</ele>
        <time>2023-01-28T14:17:50Z</time>
      </trkpt>
      <trkpt lat="49.89904" lon="2.25739">
        <ele>42.3</ele>
        <time>2023-01-28T14:17:51Z</time>
      </trkpt>
      <trkpt lat="49.89902" lon="2.25737">
        <ele>42.3</ele>
        <time>2023-01-28T14:17:52Z</time>
      </trkpt>
      <trkpt lat="49.89902" lon="2.25737">
        <ele>42.3</ele>
        <time>2023-01-28T14:17:53Z</time>
      </trkpt>
      <trkpt lat="49.899" lon="2.25736">
        <ele>42.4</ele>
        <time>2023-01-28T14:17:54Z</time>
      </trkpt>
      <trkpt lat="49.899" lon="2.25735">
        <ele>42.4</ele>
        <time>2023-01-28T14:17:55Z</time>
      </trkpt>
      <trkpt lat="49.89899" lon="2.25734">
        <ele>42.4</ele>
        <time>2023-01-28T14:17:56Z</time>
      </trkpt>
      <trkpt lat="49.89898" lon="2.25733">
        <ele>42.4</ele>
        <time>2023-01-28T14:17:57Z</time>
      </trkpt>
      <trkpt lat="49.89898" lon="2.25733">
        <ele>42.4</ele>
        <time>2023-01-28T14:17:58Z</time>
      </trkpt>
      <trkpt lat="49.89897" lon="2.25732">
        <ele>42.4</ele>
        <time>2023-01-28T14:17:59Z</time>
      </trkpt>
      <trkpt lat="49.89897" lon="2.25731">
        <ele>42.4</ele>
        <time>2023-01-28T14:18:00Z</time>
      </trkpt>
      <trkpt lat="49.89896" lon="2.2573">
        <ele>42.4</ele>
        <time>2023-01-28T14:18:01Z</time>
      </trkpt>
      <trkpt lat="49.89895" lon="2.25728">
        <ele>42.4</ele>
        <time>2023-01-28T14:18:02Z</time>
      </trkpt>
      <trkpt lat="49.89893" lon="2.25726">
        <ele>42.4</ele>
        <time>2023-01-28T14:18:03Z</time>
      </trkpt>
      <trkpt lat="49.89893" lon="2.25725">
        <ele>42.4</ele>
        <time>2023-01-28T14:18:04Z</time>
      </trkpt>
      <trkpt lat="49.89892" lon="2.25723">
        <ele>42.4</ele>
        <time>2023-01-28T14:18:05Z</time>
      </trkpt>
      <trkpt lat="49.89891" lon="2.25722">
        <ele>42.4</ele>
        <time>2023-01-28T14:18:06Z</time>
      </trkpt>
      <trkpt lat="49.89891" lon="2.25721">
        <ele>42.4</ele>
        <time>2023-01-28T14:18:07Z</time>
      </trkpt>
      <trkpt lat="49.8989" lon="2.25719">
        <ele>42.4</ele>
        <time>2023-01-28T14:18:08Z</time>
      </trkpt>
      <trkpt lat="49.8989" lon="2.25718">
        <ele>42.4</ele>
        <time>2023-01-28T14:18:09Z</time>
      </trkpt>
      <trkpt lat="49.89889" lon="2.25717">
        <ele>42.4</ele>
        <time>2023-01-28T14:18:10Z</time>
      </trkpt>
      <trkpt lat="49.89888" lon="2.25715">
        <ele>42.4</ele>
        <time>2023-01-28T14:18:11Z</time>
      </trkpt>
      <trkpt lat="49.89888" lon="2.25714">
        <ele>42.4</ele>
        <time>2023-01-28T14:18:12Z</time>
      </trkpt>
      <trkpt lat="49.89887" lon="2.25712">
        <ele>42.4</ele>
        <time>2023-01-28T14:18:13Z</time>
      </trkpt>
      <trkpt lat="49.89886" lon="2.25711">
        <ele>42.4</ele>
        <time>2023-01-28T14:18:14Z</time>
      </trkpt>
      <trkpt lat="49.89886" lon="2.2571">
        <ele>42.4</ele>
        <time>2023-01-28T14:18:15Z</time>
      </trkpt>
      <trkpt lat="49.89885" lon="2.25709">
        <ele>42.4</ele>
        <time>2023-01-28T14:18:16Z</time>
      </trkpt>
      <trkpt lat="49.89884" lon="2.25708">
        <ele>42.4</ele>
        <time>2023-01-28T14:18:17Z</time>
      </trkpt>
      <trkpt lat="49.89883" lon="2.25706">
        <ele>42.4</ele>
        <time>2023-01-28T14:18:18Z</time>
      </trkpt>
      <trkpt lat="49.89883" lon="2.25705">
        <ele>42.5</ele>
        <time>2023-01-28T14:18:19Z</time>
      </trkpt>
      <trkpt lat="49.89882" lon="2.25703">
        <ele>42.5</ele>
        <time>2023-01-28T14:18:20Z</time>
      </trkpt>
      <trkpt lat="49.89882" lon="2.25701">
        <ele>42.5</ele>
        <time>2023-01-28T14:18:21Z</time>
      </trkpt>
      <trkpt lat="49.89879" lon="2.25698">
        <ele>42.5</ele>
        <time>2023-01-28T14:18:22Z</time>
      </trkpt>
      <trkpt lat="49.89879" lon="2.25697">
        <ele>42.5</ele>
        <time>2023-01-28T14:18:23Z</time>
      </trkpt>
      <trkpt lat="49.89878" lon="2.25696">
        <ele>42.5</ele>
        <time>2023-01-28T14:18:25Z</time>
      </trkpt>
      <trkpt lat="49.89878" lon="2.25695">
        <ele>42.5</ele>
        <time>2023-01-28T14:18:26Z</time>
      </trkpt>
      <trkpt lat="49.89877" lon="2.25693">
        <ele>42.5</ele>
        <time>2023-01-28T14:18:27Z</time>
      </trkpt>
      <trkpt lat="49.89878" lon="2.25691">
        <ele>42.5</ele>
        <time>2023-01-28T14:18:29Z</time>
      </trkpt>
      <trkpt lat="49.89878" lon="2.2569">
        <ele>42.5</ele>
        <time>2023-01-28T14:18:30Z</time>
      </trkpt>
      <trkpt lat="49.89878" lon="2.25689">
        <ele>42.5</ele>
        <time>2023-01-28T14:18:32Z</time>
      </trkpt>
      <trkpt lat="49.89877" lon="2.25689">
        <ele>42.5</ele>
        <time>2023-01-28T14:18:33Z</time>
      </trkpt>
      <trkpt lat="49.89877" lon="2.25689">
        <ele>42.5</ele>
        <time>2023-01-28T14:18:35Z</time>
      </trkpt>
      <trkpt lat="49.89877" lon="2.2569">
        <ele>42.5</ele>
        <time>2023-01-28T14:18:36Z</time>
      </trkpt>
      <trkpt lat="49.89877" lon="2.2569">
        <ele>42.5</ele>
        <time>2023-01-28T14:18:37Z</time>
      </trkpt>
      <trkpt lat="49.89877" lon="2.2569">
        <ele>42.5</ele>
        <time>2023-01-28T14:18:39Z</time>
      </trkpt>
      <trkpt lat="49.89878" lon="2.2569">
        <ele>42.5</ele>
        <time>2023-01-28T14:18:41Z</time>
      </trkpt>
      <trkpt lat="49.89878" lon="2.2569">
        <ele>42.5</ele>
        <time>2023-01-28T14:18:42Z</time>
      </trkpt>
      <trkpt lat="49.89878" lon="2.2569">
        <ele>42.5</ele>
        <time>2023-01-28T14:18:44Z</time>
      </trkpt>
      <trkpt lat="49.89878" lon="2.2569">
        <ele>42.5</ele>
        <time>2023-01-28T14:18:45Z</time>
      </trkpt>
      <trkpt lat="49.89878" lon="2.25691">
        <ele>42.5</ele>
        <time>2023-01-28T14:18:46Z</time>
      </trkpt>
      <trkpt lat="49.89878" lon="2.25691">
        <ele>42.5</ele>
        <time>2023-01-28T14:18:47Z</time>
      </trkpt>
      <trkpt lat="49.89878" lon="2.25691">
        <ele>42.5</ele>
        <time>2023-01-28T14:18:48Z</time>
      </trkpt>
      <trkpt lat="49.89878" lon="2.25691">
        <ele>42.5</ele>
        <time>2023-01-28T14:18:49Z</time>
      </trkpt>
      <trkpt lat="49.89878" lon="2.25691">
        <ele>42.5</ele>
        <time>2023-01-28T14:18:50Z</time>
      </trkpt>
      <trkpt lat="49.89878" lon="2.25691">
        <ele>42.5</ele>
        <time>2023-01-28T14:18:51Z</time>
      </trkpt>
      <trkpt lat="49.89878" lon="2.25691">
        <ele>42.5</ele>
        <time>2023-01-28T14:18:52Z</time>
      </trkpt>
      <trkpt lat="49.89878" lon="2.25691">
        <ele>42.5</ele>
        <time>2023-01-28T14:18:53Z</time>
      </trkpt>
      <trkpt lat="49.89878" lon="2.25691">
        <ele>42.5</ele>
        <time>2023-01-28T14:18:54Z</time>
      </trkpt>
      <trkpt lat="49.89878" lon="2.25691">
        <ele>42.5</ele>
        <time>2023-01-28T14:18:55Z</time>
      </trkpt>
      <trkpt lat="49.89878" lon="2.25691">
        <ele>42.5</ele>
        <time>2023-01-28T14:18:56Z</time>
      </trkpt>
      <trkpt lat="49.89878" lon="2.25691">
        <ele>42.5</ele>
        <time>2023-01-28T14:18:57Z</time>
      </trkpt>
      <trkpt lat="49.89878" lon="2.25691">
        <ele>42.5</ele>
        <time>2023-01-28T14:18:58Z</time>
      </trkpt>
      <trkpt lat="49.89878" lon="2.25691">
        <ele>42.5</ele>
        <time>2023-01-28T14:18:59Z</time>
      </trkpt>
      <trkpt lat="49.89878" lon="2.25691">
        <ele>42.5</ele>
        <time>2023-01-28T14:19:00Z</time>
      </trkpt>
      <trkpt lat="49.89878" lon="2.25691">
        <ele>42.5</ele>
        <time>2023-01-28T14:19:01Z</time>
      </trkpt>
      <trkpt lat="49.89878" lon="2.25691">
        <ele>42.5</ele>
        <time>2023-01-28T14:19:02Z</time>
      </trkpt>
      <trkpt lat="49.89878" lon="2.25691">
        <ele>42.5</ele>
        <time>2023-01-28T14:19:03Z</time>
      </trkpt>
      <trkpt lat="49.89878" lon="2.25691">
        <ele>42.5</ele>
        <time>2023-01-28T14:19:04Z</time>
      </trkpt>
      <trkpt lat="49.89878" lon="2.25691">
        <ele>42.5</ele>
        <time>2023-01-28T14:19:05Z</time>
      </trkpt>
      <trkpt lat="49.89878" lon="2.25691">
        <ele>42.5</ele>
        <time>2023-01-28T14:19:06Z</time>
      </trkpt>
      <trkpt lat="49.89878" lon="2.25691">
        <ele>42.5</ele>
        <time>2023-01-28T14:19:07Z</time>
      </trkpt>
      <trkpt lat="49.89878" lon="2.25691">
        <ele>42.5</ele>
        <time>2023-01-28T14:19:08Z</time>
      </trkpt>
      <trkpt lat="49.89878" lon="2.25691">
        <ele>42.5</ele>
        <time>2023-01-28T14:19:09Z</time>
      </trkpt>
      <trkpt lat="49.89878" lon="2.25691">
        <ele>42.5</ele>
        <time>2023-01-28T14:19:10Z</time>
      </trkpt>
      <trkpt lat="49.89878" lon="2.25691">
        <ele>42.5</ele>
        <time>2023-01-28T14:19:11Z</time>
      </trkpt>
      <trkpt lat="49.89878" lon="2.25691">
        <ele>42.5</ele>
        <time>2023-01-28T14:19:12Z</time>
      </trkpt>
      <trkpt lat="49.89878" lon="2.25691">
        <ele>42.5</ele>
        <time>2023-01-28T14:19:13Z</time>
      </trkpt>
      <trkpt lat="49.89878" lon="2.25691">
        <ele>42.5</ele>
        <time>2023-01-28T14:19:14Z</time>
      </trkpt>
      <trkpt lat="49.89878" lon="2.25691">
        <ele>42.5</ele>
        <time>2023-01-28T14:19:15Z</time>
      </trkpt>
      <trkpt lat="49.89878" lon="2.25691">
        <ele>42.5</ele>
        <time>2023-01-28T14:19:16Z</time>
      </trkpt>
      <trkpt lat="49.89878" lon="2.25691">
        <ele>42.5</ele>
        <time>2023-01-28T14:19:17Z</time>
      </trkpt>
      <trkpt lat="49.89878" lon="2.25691">
        <ele>42.5</ele>
        <time>2023-01-28T14:19:18Z</time>
      </trkpt>
      <trkpt lat="49.89878" lon="2.25691">
        <ele>42.5</ele>
        <time>2023-01-28T14:19:19Z</time>
      </trkpt>
      <trkpt lat="49.89878" lon="2.25691">
        <ele>42.5</ele>
        <time>2023-01-28T14:19:20Z</time>
      </trkpt>
      <trkpt lat="49.89878" lon="2.25691">
        <ele>42.5</ele>
        <time>2023-01-28T14:19:21Z</time>
      </trkpt>
      <trkpt lat="49.89878" lon="2.25691">
        <ele>42.5</ele>
        <time>2023-01-28T14:19:22Z</time>
      </trkpt>
      <trkpt lat="49.89878" lon="2.25691">
        <ele>42.5</ele>
        <time>2023-01-28T14:19:23Z</time>
      </trkpt>
      <trkpt lat="49.89878" lon="2.25691">
        <ele>42.5</ele>
        <time>2023-01-28T14:19:24Z</time>
      </trkpt>
      <trkpt lat="49.89878" lon="2.25691">
        <ele>42.5</ele>
        <time>2023-01-28T14:19:25Z</time>
      </trkpt>
      <trkpt lat="49.89878" lon="2.25691">
        <ele>42.5</ele>
        <time>2023-01-28T14:19:26Z</time>
      </trkpt>
      <trkpt lat="49.89878" lon="2.25691">
        <ele>42.5</ele>
        <time>2023-01-28T14:19:27Z</time>
      </trkpt>
      <trkpt lat="49.89878" lon="2.25691">
        <ele>42.5</ele>
        <time>2023-01-28T14:19:28Z</time>
      </trkpt>
      <trkpt lat="49.89878" lon="2.25691">
        <ele>42.5</ele>
        <time>2023-01-28T14:19:29Z</time>
      </trkpt>
      <trkpt lat="49.89878" lon="2.25691">
        <ele>42.5</ele>
        <time>2023-01-28T14:19:30Z</time>
      </trkpt>
      <trkpt lat="49.89878" lon="2.25691">
        <ele>42.5</ele>
        <time>2023-01-28T14:19:31Z</time>
      </trkpt>
      <trkpt lat="49.89878" lon="2.25691">
        <ele>42.5</ele>
        <time>2023-01-28T14:19:32Z</time>
      </trkpt>
      <trkpt lat="49.89878" lon="2.25691">
        <ele>42.5</ele>
        <time>2023-01-28T14:19:33Z</time>
      </trkpt>
      <trkpt lat="49.89878" lon="2.25691">
        <ele>42.5</ele>
        <time>2023-01-28T14:19:34Z</time>
      </trkpt>
      <trkpt lat="49.89878" lon="2.25691">
        <ele>42.5</ele>
        <time>2023-01-28T14:19:35Z</time>
      </trkpt>
      <trkpt lat="49.89878" lon="2.25691">
        <ele>42.5</ele>
        <time>2023-01-28T14:19:36Z</time>
      </trkpt>
      <trkpt lat="49.89878" lon="2.25691">
        <ele>42.5</ele>
        <time>2023-01-28T14:19:37Z</time>
      </trkpt>
      <trkpt lat="49.89878" lon="2.25691">
        <ele>42.5</ele>
        <time>2023-01-28T14:19:38Z</time>
      </trkpt>
      <trkpt lat="49.89878" lon="2.25691">
        <ele>42.5</ele>
        <time>2023-01-28T14:19:39Z</time>
      </trkpt>
      <trkpt lat="49.89878" lon="2.25691">
        <ele>42.5</ele>
        <time>2023-01-28T14:19:40Z</time>
      </trkpt>
      <trkpt lat="49.89878" lon="2.25691">
        <ele>42.5</ele>
        <time>2023-01-28T14:19:41Z</time>
      </trkpt>
      <trkpt lat="49.89878" lon="2.25691">
        <ele>42.5</ele>
        <time>2023-01-28T14:19:42Z</time>
      </trkpt>
      <trkpt lat="49.89878" lon="2.25691">
        <ele>42.5</ele>
        <time>2023-01-28T14:19:43Z</time>
      </trkpt>
      <trkpt lat="49.89878" lon="2.25691">
        <ele>42.5</ele>
        <time>2023-01-28T14:19:44Z</time>
      </trkpt>
      <trkpt lat="49.89878" lon="2.25691">
        <ele>42.5</ele>
        <time>2023-01-28T14:19:45Z</time>
      </trkpt>
      <trkpt lat="49.89878" lon="2.25691">
        <ele>42.5</ele>
        <time>2023-01-28T14:19:46Z</time>
      </trkpt>
      <trkpt lat="49.89878" lon="2.25691">
        <ele>42.5</ele>
        <time>2023-01-28T14:19:47Z</time>
      </trkpt>
      <trkpt lat="49.89878" lon="2.25691">
        <ele>42.5</ele>
        <time>2023-01-28T14:19:48Z</time>
      </trkpt>
      <trkpt lat="49.89878" lon="2.25691">
        <ele>42.5</ele>
        <time>2023-01-28T14:19:49Z</time>
      </trkpt>
      <trkpt lat="49.89878" lon="2.25691">
        <ele>42.5</ele>
        <time>2023-01-28T14:19:50Z</time>
      </trkpt>
      <trkpt lat="49.89878" lon="2.25691">
        <ele>42.5</ele>
        <time>2023-01-28T14:19:51Z</time>
      </trkpt>
      <trkpt lat="49.89878" lon="2.25691">
        <ele>42.5</ele>
        <time>2023-01-28T14:19:52Z</time>
      </trkpt>
      <trkpt lat="49.89878" lon="2.25691">
        <ele>42.5</ele>
        <time>2023-01-28T14:19:53Z</time>
      </trkpt>
      <trkpt lat="49.89878" lon="2.25691">
        <ele>42.5</ele>
        <time>2023-01-28T14:19:54Z</time>
      </trkpt>
      <trkpt lat="49.89878" lon="2.25691">
        <ele>42.5</ele>
        <time>2023-01-28T14:19:55Z</time>
      </trkpt>
      <trkpt lat="49.89878" lon="2.25691">
        <ele>42.5</ele>
        <time>2023-01-28T14:19:56Z</time>
      </trkpt>
      <trkpt lat="49.89878" lon="2.25691">
        <ele>42.5</ele>
        <time>2023-01-28T14:19:57Z</time>
      </trkpt>
      <trkpt lat="49.89878" lon="2.25691">
        <ele>42.5</ele>
        <time>2023-01-28T14:19:58Z</time>
      </trkpt>
      <trkpt lat="49.89878" lon="2.25691">
        <ele>42.5</ele>
        <time>2023-01-28T14:19:59Z</time>
      </trkpt>
      <trkpt lat="49.89878" lon="2.25691">
        <ele>42.5</ele>
        <time>2023-01-28T14:20:00Z</time>
      </trkpt>
      <trkpt lat="49.89878" lon="2.25691">
        <ele>42.5</ele>
        <time>2023-01-28T14:20:01Z</time>
      </trkpt>
      <trkpt lat="49.89878" lon="2.25691">
        <ele>42.5</ele>
        <time>2023-01-28T14:20:02Z</time>
      </trkpt>
      <trkpt lat="49.89878" lon="2.25691">
        <ele>42.5</ele>
        <time>2023-01-28T14:20:03Z</time>
      </trkpt>
      <trkpt lat="49.89878" lon="2.25691">
        <ele>42.5</ele>
        <time>2023-01-28T14:20:04Z</time>
      </trkpt>
      <trkpt lat="49.89878" lon="2.25691">
        <ele>42.5</ele>
        <time>2023-01-28T14:20:05Z</time>
      </trkpt>
      <trkpt lat="49.89878" lon="2.25691">
        <ele>42.5</ele>
        <time>2023-01-28T14:20:06Z</time>
      </trkpt>
      <trkpt lat="49.89878" lon="2.25691">
        <ele>42.5</ele>
        <time>2023-01-28T14:20:07Z</time>
      </trkpt>
      <trkpt lat="49.89878" lon="2.25691">
        <ele>42.5</ele>
        <time>2023-01-28T14:20:08Z</time>
      </trkpt>
      <trkpt lat="49.89878" lon="2.25691">
        <ele>42.5</ele>
        <time>2023-01-28T14:20:09Z</time>
      </trkpt>
      <trkpt lat="49.89878" lon="2.25691">
        <ele>42.5</ele>
        <time>2023-01-28T14:20:10Z</time>
      </trkpt>
      <trkpt lat="49.89878" lon="2.25691">
        <ele>42.5</ele>
        <time>2023-01-28T14:20:11Z</time>
      </trkpt>
      <trkpt lat="49.89878" lon="2.25691">
        <ele>42.5</ele>
        <time>2023-01-28T14:20:12Z</time>
      </trkpt>
      <trkpt lat="49.89878" lon="2.25691">
        <ele>42.5</ele>
        <time>2023-01-28T14:20:13Z</time>
      </trkpt>
      <trkpt lat="49.89878" lon="2.25691">
        <ele>42.5</ele>
        <time>2023-01-28T14:20:14Z</time>
      </trkpt>
      <trkpt lat="49.89878" lon="2.25691">
        <ele>42.5</ele>
        <time>2023-01-28T14:20:15Z</time>
      </trkpt>
      <trkpt lat="49.89878" lon="2.25691">
        <ele>42.5</ele>
        <time>2023-01-28T14:20:16Z</time>
      </trkpt>
      <trkpt lat="49.89878" lon="2.25691">
        <ele>42.5</ele>
        <time>2023-01-28T14:20:17Z</time>
      </trkpt>
      <trkpt lat="49.89878" lon="2.25691">
        <ele>42.5</ele>
        <time>2023-01-28T14:20:18Z</time>
      </trkpt>
      <trkpt lat="49.89878" lon="2.25691">
        <ele>42.5</ele>
        <time>2023-01-28T14:20:19Z</time>
      </trkpt>
      <trkpt lat="49.89878" lon="2.25691">
        <ele>42.5</ele>
        <time>2023-01-28T14:20:20Z</time>
      </trkpt>
      <trkpt lat="49.89878" lon="2.25691">
        <ele>42.5</ele>
        <time>2023-01-28T14:20:21Z</time>
      </trkpt>
      <trkpt lat="49.89878" lon="2.25691">
        <ele>42.5</ele>
        <time>2023-01-28T14:20:22Z</time>
      </trkpt>
      <trkpt lat="49.89878" lon="2.25691">
        <ele>42.5</ele>
        <time>2023-01-28T14:20:23Z</time>
      </trkpt>
      <trkpt lat="49.89878" lon="2.25691">
        <ele>42.5</ele>
        <time>2023-01-28T14:20:24Z</time>
      </trkpt>
      <trkpt lat="49.89878" lon="2.25691">
        <ele>42.5</ele>
        <time>2023-01-28T14:20:25Z</time>
      </trkpt>
      <trkpt lat="49.89878" lon="2.25691">
        <ele>42.5</ele>
        <time>2023-01-28T14:20:26Z</time>
      </trkpt>
      <trkpt lat="49.89878" lon="2.25691">
        <ele>42.5</ele>
        <time>2023-01-28T14:20:27Z</time>
      </trkpt>
      <trkpt lat="49.89878" lon="2.25691">
        <ele>42.5</ele>
        <time>2023-01-28T14:20:28Z</time>
      </trkpt>
      <trkpt lat="49.89878" lon="2.25691">
        <ele>42.5</ele>
        <time>2023-01-28T14:20:29Z</time>
      </trkpt>
      <trkpt lat="49.89878" lon="2.25691">
        <ele>42.5</ele>
        <time>2023-01-28T14:20:30Z</time>
      </trkpt>
      <trkpt lat="49.89878" lon="2.25691">
        <ele>42.5</ele>
        <time>2023-01-28T14:20:31Z</time>
      </trkpt>
      <trkpt lat="49.89878" lon="2.25691">
        <ele>42.5</ele>
        <time>2023-01-28T14:20:32Z</time>
      </trkpt>
      <trkpt lat="49.89878" lon="2.25691">
        <ele>42.5</ele>
        <time>2023-01-28T14:20:33Z</time>
      </trkpt>
      <trkpt lat="49.89878" lon="2.25691">
        <ele>42.5</ele>
        <time>2023-01-28T14:20:34Z</time>
      </trkpt>
      <trkpt lat="49.89878" lon="2.25691">
        <ele>42.5</ele>
        <time>2023-01-28T14:20:35Z</time>
      </trkpt>
      <trkpt lat="49.89878" lon="2.25691">
        <ele>42.5</ele>
        <time>2023-01-28T14:20:36Z</time>
      </trkpt>
      <trkpt lat="49.89878" lon="2.25691">
        <ele>42.5</ele>
        <time>2023-01-28T14:20:37Z</time>
      </trkpt>
      <trkpt lat="49.89878" lon="2.25691">
        <ele>42.5</ele>
        <time>2023-01-28T14:20:38Z</time>
      </trkpt>
      <trkpt lat="49.89878" lon="2.25691">
        <ele>42.5</ele>
        <time>2023-01-28T14:20:39Z</time>
      </trkpt>
      <trkpt lat="49.89878" lon="2.25691">
        <ele>42.5</ele>
        <time>2023-01-28T14:20:40Z</time>
      </trkpt>
      <trkpt lat="49.89878" lon="2.25691">
        <ele>42.5</ele>
        <time>2023-01-28T14:20:41Z</time>
      </trkpt>
      <trkpt lat="49.89878" lon="2.25691">
        <ele>42.5</ele>
        <time>2023-01-28T14:20:42Z</time>
      </trkpt>
      <trkpt lat="49.89878" lon="2.25691">
        <ele>42.5</ele>
        <time>2023-01-28T14:20:43Z</time>
      </trkpt>
      <trkpt lat="49.89878" lon="2.25691">
        <ele>42.5</ele>
        <time>2023-01-28T14:20:44Z</time>
      </trkpt>
      <trkpt lat="49.89878" lon="2.25691">
        <ele>42.5</ele>
        <time>2023-01-28T14:20:45Z</time>
      </trkpt>
      <trkpt lat="49.89878" lon="2.25691">
        <ele>42.5</ele>
        <time>2023-01-28T14:20:46Z</time>
      </trkpt>
      <trkpt lat="49.89878" lon="2.25691">
        <ele>42.5</ele>
        <time>2023-01-28T14:20:47Z</time>
      </trkpt>
      <trkpt lat="49.89878" lon="2.25691">
        <ele>42.5</ele>
        <time>2023-01-28T14:20:48Z</time>
      </trkpt>
      <trkpt lat="49.89878" lon="2.25691">
        <ele>42.5</ele>
        <time>2023-01-28T14:20:49Z</time>
      </trkpt>
      <trkpt lat="49.89878" lon="2.25691">
        <ele>42.5</ele>
        <time>2023-01-28T14:20:50Z</time>
      </trkpt>
      <trkpt lat="49.89878" lon="2.25691">
        <ele>42.5</ele>
        <time>2023-01-28T14:20:51Z</time>
      </trkpt>
      <trkpt lat="49.89878" lon="2.25691">
        <ele>42.5</ele>
        <time>2023-01-28T14:20:52Z</time>
      </trkpt>
      <trkpt lat="49.89878" lon="2.25691">
        <ele>42.5</ele>
        <time>2023-01-28T14:20:53Z</time>
      </trkpt>
      <trkpt lat="49.89878" lon="2.25691">
        <ele>42.5</ele>
        <time>2023-01-28T14:20:54Z</time>
      </trkpt>
      <trkpt lat="49.89878" lon="2.25691">
        <ele>42.5</ele>
        <time>2023-01-28T14:20:55Z</time>
      </trkpt>
      <trkpt lat="49.89878" lon="2.25691">
        <ele>42.5</ele>
        <time>2023-01-28T14:20:56Z</time>
      </trkpt>
      <trkpt lat="49.89878" lon="2.25691">
        <ele>42.5</ele>
        <time>2023-01-28T14:20:57Z</time>
      </trkpt>
      <trkpt lat="49.89878" lon="2.25691">
        <ele>42.5</ele>
        <time>2023-01-28T14:20:58Z</time>
      </trkpt>
      <trkpt lat="49.89878" lon="2.25691">
        <ele>42.5</ele>
        <time>2023-01-28T14:20:59Z</time>
      </trkpt>
      <trkpt lat="49.89878" lon="2.25691">
        <ele>42.5</ele>
        <time>2023-01-28T14:21:00Z</time>
      </trkpt>
      <trkpt lat="49.89878" lon="2.25691">
        <ele>42.5</ele>
        <time>2023-01-28T14:21:01Z</time>
      </trkpt>
      <trkpt lat="49.89878" lon="2.25691">
        <ele>42.5</ele>
        <time>2023-01-28T14:21:02Z</time>
      </trkpt>
      <trkpt lat="49.89878" lon="2.25691">
        <ele>42.5</ele>
        <time>2023-01-28T14:21:03Z</time>
      </trkpt>
      <trkpt lat="49.89878" lon="2.25691">
        <ele>42.5</ele>
        <time>2023-01-28T14:21:04Z</time>
      </trkpt>
      <trkpt lat="49.89878" lon="2.25691">
        <ele>42.5</ele>
        <time>2023-01-28T14:21:05Z</time>
      </trkpt>
      <trkpt lat="49.89878" lon="2.25691">
        <ele>42.5</ele>
        <time>2023-01-28T14:21:06Z</time>
      </trkpt>
      <trkpt lat="49.89878" lon="2.25691">
        <ele>42.5</ele>
        <time>2023-01-28T14:21:07Z</time>
      </trkpt>
      <trkpt lat="49.89878" lon="2.25693">
        <ele>42.6</ele>
        <time>2023-01-28T14:21:08Z</time>
      </trkpt>
      <trkpt lat="49.89879" lon="2.25695">
        <ele>42.6</ele>
        <time>2023-01-28T14:21:09Z</time>
      </trkpt>
      <trkpt lat="49.89879" lon="2.25695">
        <ele>42.6</ele>
        <time>2023-01-28T14:21:10Z</time>
      </trkpt>
      <trkpt lat="49.89879" lon="2.25694">
        <ele>42.6</ele>
        <time>2023-01-28T14:21:11Z</time>
      </trkpt>
      <trkpt lat="49.89878" lon="2.25693">
        <ele>42.6</ele>
        <time>2023-01-28T14:21:12Z</time>
      </trkpt>
      <trkpt lat="49.89878" lon="2.25693">
        <ele>42.6</ele>
        <time>2023-01-28T14:21:13Z</time>
      </trkpt>
      <trkpt lat="49.89877" lon="2.25693">
        <ele>42.6</ele>
        <time>2023-01-28T14:21:14Z</time>
      </trkpt>
      <trkpt lat="49.89877" lon="2.25693">
        <ele>42.6</ele>
        <time>2023-01-28T14:21:15Z</time>
      </trkpt>
      <trkpt lat="49.89876" lon="2.25693">
        <ele>42.6</ele>
        <time>2023-01-28T14:21:17Z</time>
      </trkpt>
      <trkpt lat="49.89875" lon="2.25693">
        <ele>42.6</ele>
        <time>2023-01-28T14:21:18Z</time>
      </trkpt>
      <trkpt lat="49.89872" lon="2.25693">
        <ele>42.6</ele>
        <time>2023-01-28T14:21:20Z</time>
      </trkpt>
      <trkpt lat="49.89872" lon="2.25692">
        <ele>42.6</ele>
        <time>2023-01-28T14:21:21Z</time>
      </trkpt>
      <trkpt lat="49.89873" lon="2.25691">
        <ele>42.6</ele>
        <time>2023-01-28T14:21:23Z</time>
      </trkpt>
      <trkpt lat="49.89873" lon="2.25691">
        <ele>42.6</ele>
        <time>2023-01-28T14:21:24Z</time>
      </trkpt>
      <trkpt lat="49.89873" lon="2.25691">
        <ele>42.6</ele>
        <time>2023-01-28T14:21:25Z</time>
      </trkpt>
      <trkpt lat="49.89873" lon="2.25691">
        <ele>42.6</ele>
        <time>2023-01-28T14:21:26Z</time>
      </trkpt>
      <trkpt lat="49.89874" lon="2.25691">
        <ele>42.6</ele>
        <time>2023-01-28T14:21:28Z</time>
      </trkpt>
      <trkpt lat="49.89874" lon="2.25691">
        <ele>42.6</ele>
        <time>2023-01-28T14:21:29Z</time>
      </trkpt>
      <trkpt lat="49.89875" lon="2.2569">
        <ele>42.6</ele>
        <time>2023-01-28T14:21:30Z</time>
      </trkpt>
      <trkpt lat="49.89875" lon="2.2569">
        <ele>42.6</ele>
        <time>2023-01-28T14:21:31Z</time>
      </trkpt>
      <trkpt lat="49.89876" lon="2.25689">
        <ele>42.7</ele>
        <time>2023-01-28T14:21:33Z</time>
      </trkpt>
      <trkpt lat="49.89876" lon="2.25687">
        <ele>42.7</ele>
        <time>2023-01-28T14:21:34Z</time>
      </trkpt>
      <trkpt lat="49.89876" lon="2.25686">
        <ele>42.7</ele>
        <time>2023-01-28T14:21:35Z</time>
      </trkpt>
      <trkpt lat="49.89875" lon="2.25684">
        <ele>42.7</ele>
        <time>2023-01-28T14:21:36Z</time>
      </trkpt>
      <trkpt lat="49.89875" lon="2.25682">
        <ele>42.7</ele>
        <time>2023-01-28T14:21:37Z</time>
      </trkpt>
      <trkpt lat="49.89875" lon="2.25681">
        <ele>42.7</ele>
        <time>2023-01-28T14:21:38Z</time>
      </trkpt>
      <trkpt lat="49.89874" lon="2.25677">
        <ele>42.7</ele>
        <time>2023-01-28T14:21:39Z</time>
      </trkpt>
      <trkpt lat="49.89873" lon="2.25675">
        <ele>42.7</ele>
        <time>2023-01-28T14:21:41Z</time>
      </trkpt>
      <trkpt lat="49.89873" lon="2.25674">
        <ele>42.7</ele>
        <time>2023-01-28T14:21:42Z</time>
      </trkpt>
      <trkpt lat="49.89872" lon="2.25673">
        <ele>42.8</ele>
        <time>2023-01-28T14:21:43Z</time>
      </trkpt>
      <trkpt lat="49.89872" lon="2.25671">
        <ele>42.8</ele>
        <time>2023-01-28T14:21:44Z</time>
      </trkpt>
      <trkpt lat="49.89871" lon="2.2567">
        <ele>42.8</ele>
        <time>2023-01-28T14:21:45Z</time>
      </trkpt>
      <trkpt lat="49.8987" lon="2.25669">
        <ele>42.8</ele>
        <time>2023-01-28T14:21:47Z</time>
      </trkpt>
      <trkpt lat="49.89869" lon="2.25668">
        <ele>42.8</ele>
        <time>2023-01-28T14:21:48Z</time>
      </trkpt>
      <trkpt lat="49.89868" lon="2.25667">
        <ele>42.8</ele>
        <time>2023-01-28T14:21:49Z</time>
      </trkpt>
      <trkpt lat="49.89867" lon="2.25666">
        <ele>42.8</ele>
        <time>2023-01-28T14:21:50Z</time>
      </trkpt>
      <trkpt lat="49.89865" lon="2.25664">
        <ele>42.8</ele>
        <time>2023-01-28T14:21:51Z</time>
      </trkpt>
      <trkpt lat="49.89864" lon="2.25663">
        <ele>42.9</ele>
        <time>2023-01-28T14:21:52Z</time>
      </trkpt>
      <trkpt lat="49.89863" lon="2.25662">
        <ele>42.9</ele>
        <time>2023-01-28T14:21:53Z</time>
      </trkpt>
      <trkpt lat="49.89863" lon="2.25661">
        <ele>42.9</ele>
        <time>2023-01-28T14:21:55Z</time>
      </trkpt>
      <trkpt lat="49.89862" lon="2.2566">
        <ele>42.9</ele>
        <time>2023-01-28T14:21:56Z</time>
      </trkpt>
      <trkpt lat="49.89861" lon="2.25658">
        <ele>42.9</ele>
        <time>2023-01-28T14:21:57Z</time>
      </trkpt>
      <trkpt lat="49.8986" lon="2.25657">
        <ele>42.9</ele>
        <time>2023-01-28T14:21:58Z</time>
      </trkpt>
      <trkpt lat="49.89859" lon="2.25655">
        <ele>42.9</ele>
        <time>2023-01-28T14:21:59Z</time>
      </trkpt>
      <trkpt lat="49.89859" lon="2.25654">
        <ele>42.9</ele>
        <time>2023-01-28T14:22:01Z</time>
      </trkpt>
      <trkpt lat="49.89858" lon="2.25651">
        <ele>42.9</ele>
        <time>2023-01-28T14:22:02Z</time>
      </trkpt>
      <trkpt lat="49.89857" lon="2.2565">
        <ele>42.9</ele>
        <time>2023-01-28T14:22:03Z</time>
      </trkpt>
      <trkpt lat="49.89856" lon="2.25649">
        <ele>43</ele>
        <time>2023-01-28T14:22:04Z</time>
      </trkpt>
      <trkpt lat="49.89856" lon="2.25648">
        <ele>43</ele>
        <time>2023-01-28T14:22:05Z</time>
      </trkpt>
      <trkpt lat="49.89855" lon="2.25647">
        <ele>43</ele>
        <time>2023-01-28T14:22:07Z</time>
      </trkpt>
      <trkpt lat="49.89854" lon="2.25646">
        <ele>43</ele>
        <time>2023-01-28T14:22:08Z</time>
      </trkpt>
      <trkpt lat="49.89852" lon="2.25644">
        <ele>43</ele>
        <time>2023-01-28T14:22:09Z</time>
      </trkpt>
      <trkpt lat="49.89852" lon="2.25644">
        <ele>43</ele>
        <time>2023-01-28T14:22:10Z</time>
      </trkpt>
      <trkpt lat="49.89851" lon="2.25643">
        <ele>43</ele>
        <time>2023-01-28T14:22:11Z</time>
      </trkpt>
      <trkpt lat="49.89849" lon="2.2564">
        <ele>43</ele>
        <time>2023-01-28T14:22:13Z</time>
      </trkpt>
      <trkpt lat="49.89848" lon="2.25639">
        <ele>43.1</ele>
        <time>2023-01-28T14:22:15Z</time>
      </trkpt>
      <trkpt lat="49.89847" lon="2.25637">
        <ele>43.1</ele>
        <time>2023-01-28T14:22:16Z</time>
      </trkpt>
      <trkpt lat="49.89847" lon="2.25636">
        <ele>43.1</ele>
        <time>2023-01-28T14:22:17Z</time>
      </trkpt>
      <trkpt lat="49.89846" lon="2.25635">
        <ele>43.1</ele>
        <time>2023-01-28T14:22:18Z</time>
      </trkpt>
      <trkpt lat="49.89845" lon="2.25634">
        <ele>43.1</ele>
        <time>2023-01-28T14:22:20Z</time>
      </trkpt>
      <trkpt lat="49.89845" lon="2.25632">
        <ele>43.1</ele>
        <time>2023-01-28T14:22:21Z</time>
      </trkpt>
      <trkpt lat="49.89844" lon="2.25631">
        <ele>43.1</ele>
        <time>2023-01-28T14:22:22Z</time>
      </trkpt>
      <trkpt lat="49.89843" lon="2.2563">
        <ele>43.1</ele>
        <time>2023-01-28T14:22:23Z</time>
      </trkpt>
      <trkpt lat="49.89842" lon="2.25628">
        <ele>43.1</ele>
        <time>2023-01-28T14:22:24Z</time>
      </trkpt>
      <trkpt lat="49.89842" lon="2.25627">
        <ele>43.1</ele>
        <time>2023-01-28T14:22:25Z</time>
      </trkpt>
      <trkpt lat="49.89841" lon="2.25624">
        <ele>43.2</ele>
        <time>2023-01-28T14:22:27Z</time>
      </trkpt>
      <trkpt lat="49.8984" lon="2.25623">
        <ele>43.2</ele>
        <time>2023-01-28T14:22:28Z</time>
      </trkpt>
      <trkpt lat="49.8984" lon="2.25622">
        <ele>43.2</ele>
        <time>2023-01-28T14:22:29Z</time>
      </trkpt>
      <trkpt lat="49.89839" lon="2.25621">
        <ele>43.2</ele>
        <time>2023-01-28T14:22:30Z</time>
      </trkpt>
      <trkpt lat="49.89838" lon="2.2562">
        <ele>43.2</ele>
        <time>2023-01-28T14:22:31Z</time>
      </trkpt>
      <trkpt lat="49.89837" lon="2.25619">
        <ele>43.2</ele>
        <time>2023-01-28T14:22:32Z</time>
      </trkpt>
      <trkpt lat="49.89836" lon="2.25617">
        <ele>43.2</ele>
        <time>2023-01-28T14:22:34Z</time>
      </trkpt>
      <trkpt lat="49.89835" lon="2.25615">
        <ele>43.2</ele>
        <time>2023-01-28T14:22:35Z</time>
      </trkpt>
      <trkpt lat="49.89835" lon="2.25613">
        <ele>43.2</ele>
        <time>2023-01-28T14:22:36Z</time>
      </trkpt>
      <trkpt lat="49.89834" lon="2.25612">
        <ele>43.2</ele>
        <time>2023-01-28T14:22:37Z</time>
      </trkpt>
      <trkpt lat="49.89834" lon="2.25611">
        <ele>43.2</ele>
        <time>2023-01-28T14:22:38Z</time>
      </trkpt>
      <trkpt lat="49.89833" lon="2.2561">
        <ele>43.3</ele>
        <time>2023-01-28T14:22:39Z</time>
      </trkpt>
      <trkpt lat="49.89833" lon="2.2561">
        <ele>43.3</ele>
        <time>2023-01-28T14:22:40Z</time>
      </trkpt>
      <trkpt lat="49.89832" lon="2.25609">
        <ele>43.3</ele>
        <time>2023-01-28T14:22:41Z</time>
      </trkpt>
      <trkpt lat="49.89832" lon="2.25607">
        <ele>43.3</ele>
        <time>2023-01-28T14:22:43Z</time>
      </trkpt>
      <trkpt lat="49.89831" lon="2.25606">
        <ele>43.3</ele>
        <time>2023-01-28T14:22:44Z</time>
      </trkpt>
      <trkpt lat="49.8983" lon="2.25605">
        <ele>43.3</ele>
        <time>2023-01-28T14:22:45Z</time>
      </trkpt>
      <trkpt lat="49.8983" lon="2.25605">
        <ele>43.3</ele>
        <time>2023-01-28T14:22:46Z</time>
      </trkpt>
      <trkpt lat="49.89829" lon="2.25604">
        <ele>43.3</ele>
        <time>2023-01-28T14:22:47Z</time>
      </trkpt>
      <trkpt lat="49.89829" lon="2.25603">
        <ele>43.3</ele>
        <time>2023-01-28T14:22:48Z</time>
      </trkpt>
      <trkpt lat="49.89828" lon="2.25601">
        <ele>43.3</ele>
        <time>2023-01-28T14:22:49Z</time>
      </trkpt>
      <trkpt lat="49.89828" lon="2.256">
        <ele>43.3</ele>
        <time>2023-01-28T14:22:51Z</time>
      </trkpt>
      <trkpt lat="49.89827" lon="2.25599">
        <ele>43.3</ele>
        <time>2023-01-28T14:22:52Z</time>
      </trkpt>
      <trkpt lat="49.89827" lon="2.25597">
        <ele>43.3</ele>
        <time>2023-01-28T14:22:53Z</time>
      </trkpt>
      <trkpt lat="49.89828" lon="2.25595">
        <ele>43.3</ele>
        <time>2023-01-28T14:22:54Z</time>
      </trkpt>
      <trkpt lat="49.89827" lon="2.25594">
        <ele>43.3</ele>
        <time>2023-01-28T14:22:55Z</time>
      </trkpt>
      <trkpt lat="49.89827" lon="2.25593">
        <ele>43.3</ele>
        <time>2023-01-28T14:22:56Z</time>
      </trkpt>
      <trkpt lat="49.89827" lon="2.25592">
        <ele>43.3</ele>
        <time>2023-01-28T14:22:57Z</time>
      </trkpt>
      <trkpt lat="49.89826" lon="2.2559">
        <ele>43.3</ele>
        <time>2023-01-28T14:22:58Z</time>
      </trkpt>
      <trkpt lat="49.89824" lon="2.25589">
        <ele>43.3</ele>
        <time>2023-01-28T14:23:00Z</time>
      </trkpt>
      <trkpt lat="49.89823" lon="2.25588">
        <ele>43.3</ele>
        <time>2023-01-28T14:23:01Z</time>
      </trkpt>
      <trkpt lat="49.89822" lon="2.25586">
        <ele>43.3</ele>
        <time>2023-01-28T14:23:02Z</time>
      </trkpt>
      <trkpt lat="49.8982" lon="2.25584">
        <ele>43.3</ele>
        <time>2023-01-28T14:23:04Z</time>
      </trkpt>
      <trkpt lat="49.89819" lon="2.25582">
        <ele>43.4</ele>
        <time>2023-01-28T14:23:05Z</time>
      </trkpt>
      <trkpt lat="49.89817" lon="2.25582">
        <ele>43.4</ele>
        <time>2023-01-28T14:23:06Z</time>
      </trkpt>
      <trkpt lat="49.89815" lon="2.2558">
        <ele>43.4</ele>
        <time>2023-01-28T14:23:07Z</time>
      </trkpt>
      <trkpt lat="49.89814" lon="2.25578">
        <ele>43.4</ele>
        <time>2023-01-28T14:23:08Z</time>
      </trkpt>
      <trkpt lat="49.89813" lon="2.25577">
        <ele>43.4</ele>
        <time>2023-01-28T14:23:09Z</time>
      </trkpt>
      <trkpt lat="49.89813" lon="2.25577">
        <ele>43.4</ele>
        <time>2023-01-28T14:23:10Z</time>
      </trkpt>
      <trkpt lat="49.89812" lon="2.25575">
        <ele>43.4</ele>
        <time>2023-01-28T14:23:11Z</time>
      </trkpt>
      <trkpt lat="49.89811" lon="2.25575">
        <ele>43.4</ele>
        <time>2023-01-28T14:23:12Z</time>
      </trkpt>
      <trkpt lat="49.89811" lon="2.25574">
        <ele>43.4</ele>
        <time>2023-01-28T14:23:14Z</time>
      </trkpt>
      <trkpt lat="49.8981" lon="2.25572">
        <ele>43.4</ele>
        <time>2023-01-28T14:23:15Z</time>
      </trkpt>
      <trkpt lat="49.8981" lon="2.25571">
        <ele>43.5</ele>
        <time>2023-01-28T14:23:16Z</time>
      </trkpt>
      <trkpt lat="49.89809" lon="2.25569">
        <ele>43.5</ele>
        <time>2023-01-28T14:23:17Z</time>
      </trkpt>
      <trkpt lat="49.89808" lon="2.25565">
        <ele>43.5</ele>
        <time>2023-01-28T14:23:18Z</time>
      </trkpt>
      <trkpt lat="49.89808" lon="2.25562">
        <ele>43.5</ele>
        <time>2023-01-28T14:23:19Z</time>
      </trkpt>
      <trkpt lat="49.89808" lon="2.25561">
        <ele>43.5</ele>
        <time>2023-01-28T14:23:20Z</time>
      </trkpt>
      <trkpt lat="49.89807" lon="2.25559">
        <ele>43.5</ele>
        <time>2023-01-28T14:23:21Z</time>
      </trkpt>
      <trkpt lat="49.89807" lon="2.25558">
        <ele>43.6</ele>
        <time>2023-01-28T14:23:23Z</time>
      </trkpt>
      <trkpt lat="49.89807" lon="2.25556">
        <ele>43.6</ele>
        <time>2023-01-28T14:23:24Z</time>
      </trkpt>
      <trkpt lat="49.89808" lon="2.25553">
        <ele>43.7</ele>
        <time>2023-01-28T14:23:25Z</time>
      </trkpt>
      <trkpt lat="49.89809" lon="2.25551">
        <ele>43.7</ele>
        <time>2023-01-28T14:23:26Z</time>
      </trkpt>
      <trkpt lat="49.8981" lon="2.2555">
        <ele>43.9</ele>
        <time>2023-01-28T14:23:27Z</time>
      </trkpt>
      <trkpt lat="49.89809" lon="2.25545">
        <ele>43.9</ele>
        <time>2023-01-28T14:23:29Z</time>
      </trkpt>
      <trkpt lat="49.89809" lon="2.25545">
        <ele>44</ele>
        <time>2023-01-28T14:23:31Z</time>
      </trkpt>
      <trkpt lat="49.89809" lon="2.25545">
        <ele>44</ele>
        <time>2023-01-28T14:23:33Z</time>
      </trkpt>
      <trkpt lat="49.89809" lon="2.25545">
        <ele>44</ele>
        <time>2023-01-28T14:23:34Z</time>
      </trkpt>
      <trkpt lat="49.8981" lon="2.25545">
        <ele>44</ele>
        <time>2023-01-28T14:23:36Z</time>
      </trkpt>
      <trkpt lat="49.8981" lon="2.25545">
        <ele>44</ele>
        <time>2023-01-28T14:23:37Z</time>
      </trkpt>
      <trkpt lat="49.8981" lon="2.25545">
        <ele>44</ele>
        <time>2023-01-28T14:23:39Z</time>
      </trkpt>
      <trkpt lat="49.8981" lon="2.25545">
        <ele>44</ele>
        <time>2023-01-28T14:23:40Z</time>
      </trkpt>
      <trkpt lat="49.8981" lon="2.25545">
        <ele>44</ele>
        <time>2023-01-28T14:23:42Z</time>
      </trkpt>
      <trkpt lat="49.8981" lon="2.25545">
        <ele>44</ele>
        <time>2023-01-28T14:23:43Z</time>
      </trkpt>
      <trkpt lat="49.8981" lon="2.25545">
        <ele>44</ele>
        <time>2023-01-28T14:23:44Z</time>
      </trkpt>
      <trkpt lat="49.8981" lon="2.25545">
        <ele>44</ele>
        <time>2023-01-28T14:23:45Z</time>
      </trkpt>
      <trkpt lat="49.8981" lon="2.25545">
        <ele>44</ele>
        <time>2023-01-28T14:23:47Z</time>
      </trkpt>
      <trkpt lat="49.8981" lon="2.25545">
        <ele>44</ele>
        <time>2023-01-28T14:23:48Z</time>
      </trkpt>
      <trkpt lat="49.8981" lon="2.25545">
        <ele>44</ele>
        <time>2023-01-28T14:23:49Z</time>
      </trkpt>
      <trkpt lat="49.8981" lon="2.25545">
        <ele>44</ele>
        <time>2023-01-28T14:23:51Z</time>
      </trkpt>
      <trkpt lat="49.8981" lon="2.25545">
        <ele>44</ele>
        <time>2023-01-28T14:23:53Z</time>
      </trkpt>
      <trkpt lat="49.89811" lon="2.25545">
        <ele>44</ele>
        <time>2023-01-28T14:23:54Z</time>
      </trkpt>
      <trkpt lat="49.89811" lon="2.25545">
        <ele>44</ele>
        <time>2023-01-28T14:23:56Z</time>
      </trkpt>
      <trkpt lat="49.89811" lon="2.25545">
        <ele>44</ele>
        <time>2023-01-28T14:23:57Z</time>
      </trkpt>
      <trkpt lat="49.89811" lon="2.25546">
        <ele>44</ele>
        <time>2023-01-28T14:23:59Z</time>
      </trkpt>
      <trkpt lat="49.89811" lon="2.25546">
        <ele>44</ele>
        <time>2023-01-28T14:24:00Z</time>
      </trkpt>
      <trkpt lat="49.89811" lon="2.25546">
        <ele>44</ele>
        <time>2023-01-28T14:24:01Z</time>
      </trkpt>
      <trkpt lat="49.89811" lon="2.25546">
        <ele>44</ele>
        <time>2023-01-28T14:24:03Z</time>
      </trkpt>
      <trkpt lat="49.89811" lon="2.25546">
        <ele>44</ele>
        <time>2023-01-28T14:24:04Z</time>
      </trkpt>
      <trkpt lat="49.89811" lon="2.25546">
        <ele>44</ele>
        <time>2023-01-28T14:24:06Z</time>
      </trkpt>
      <trkpt lat="49.89811" lon="2.25546">
        <ele>44</ele>
        <time>2023-01-28T14:24:07Z</time>
      </trkpt>
      <trkpt lat="49.89811" lon="2.25546">
        <ele>44</ele>
        <time>2023-01-28T14:24:08Z</time>
      </trkpt>
      <trkpt lat="49.89811" lon="2.25546">
        <ele>44</ele>
        <time>2023-01-28T14:24:09Z</time>
      </trkpt>
      <trkpt lat="49.89811" lon="2.25546">
        <ele>44</ele>
        <time>2023-01-28T14:24:10Z</time>
      </trkpt>
      <trkpt lat="49.89811" lon="2.25546">
        <ele>44</ele>
        <time>2023-01-28T14:24:11Z</time>
      </trkpt>
      <trkpt lat="49.89812" lon="2.25546">
        <ele>43.9</ele>
        <time>2023-01-28T14:24:12Z</time>
      </trkpt>
      <trkpt lat="49.89812" lon="2.25546">
        <ele>43.9</ele>
        <time>2023-01-28T14:24:13Z</time>
      </trkpt>
      <trkpt lat="49.89812" lon="2.25546">
        <ele>43.9</ele>
        <time>2023-01-28T14:24:14Z</time>
      </trkpt>
      <trkpt lat="49.89812" lon="2.25546">
        <ele>43.9</ele>
        <time>2023-01-28T14:24:15Z</time>
      </trkpt>
      <trkpt lat="49.89812" lon="2.25546">
        <ele>44</ele>
        <time>2023-01-28T14:24:16Z</time>
      </trkpt>
      <trkpt lat="49.89812" lon="2.25546">
        <ele>44</ele>
        <time>2023-01-28T14:24:17Z</time>
      </trkpt>
      <trkpt lat="49.89812" lon="2.25546">
        <ele>44</ele>
        <time>2023-01-28T14:24:18Z</time>
      </trkpt>
      <trkpt lat="49.89812" lon="2.25546">
        <ele>44</ele>
        <time>2023-01-28T14:24:19Z</time>
      </trkpt>
      <trkpt lat="49.89812" lon="2.25546">
        <ele>44</ele>
        <time>2023-01-28T14:24:20Z</time>
      </trkpt>
      <trkpt lat="49.89812" lon="2.25546">
        <ele>44</ele>
        <time>2023-01-28T14:24:21Z</time>
      </trkpt>
      <trkpt lat="49.89812" lon="2.25546">
        <ele>44</ele>
        <time>2023-01-28T14:24:22Z</time>
      </trkpt>
      <trkpt lat="49.89812" lon="2.25546">
        <ele>44</ele>
        <time>2023-01-28T14:24:23Z</time>
      </trkpt>
      <trkpt lat="49.89812" lon="2.25546">
        <ele>44</ele>
        <time>2023-01-28T14:24:24Z</time>
      </trkpt>
      <trkpt lat="49.89813" lon="2.25546">
        <ele>44</ele>
        <time>2023-01-28T14:24:25Z</time>
      </trkpt>
      <trkpt lat="49.89813" lon="2.25546">
        <ele>44</ele>
        <time>2023-01-28T14:24:26Z</time>
      </trkpt>
      <trkpt lat="49.89813" lon="2.25546">
        <ele>44</ele>
        <time>2023-01-28T14:24:27Z</time>
      </trkpt>
      <trkpt lat="49.89813" lon="2.25547">
        <ele>44</ele>
        <time>2023-01-28T14:24:28Z</time>
      </trkpt>
      <trkpt lat="49.89813" lon="2.25547">
        <ele>44</ele>
        <time>2023-01-28T14:24:29Z</time>
      </trkpt>
      <trkpt lat="49.89813" lon="2.25547">
        <ele>44</ele>
        <time>2023-01-28T14:24:30Z</time>
      </trkpt>
      <trkpt lat="49.89813" lon="2.25547">
        <ele>44</ele>
        <time>2023-01-28T14:24:31Z</time>
      </trkpt>
      <trkpt lat="49.89813" lon="2.25547">
        <ele>44</ele>
        <time>2023-01-28T14:24:32Z</time>
      </trkpt>
      <trkpt lat="49.89813" lon="2.25547">
        <ele>44</ele>
        <time>2023-01-28T14:24:33Z</time>
      </trkpt>
      <trkpt lat="49.89813" lon="2.25547">
        <ele>44</ele>
        <time>2023-01-28T14:24:35Z</time>
      </trkpt>
      <trkpt lat="49.89813" lon="2.25547">
        <ele>44</ele>
        <time>2023-01-28T14:24:36Z</time>
      </trkpt>
      <trkpt lat="49.89813" lon="2.25547">
        <ele>44</ele>
        <time>2023-01-28T14:24:37Z</time>
      </trkpt>
      <trkpt lat="49.89813" lon="2.25547">
        <ele>44</ele>
        <time>2023-01-28T14:24:38Z</time>
      </trkpt>
      <trkpt lat="49.89814" lon="2.25547">
        <ele>44</ele>
        <time>2023-01-28T14:24:39Z</time>
      </trkpt>
      <trkpt lat="49.89814" lon="2.25542">
        <ele>44.1</ele>
        <time>2023-01-28T14:24:41Z</time>
      </trkpt>
      <trkpt lat="49.89815" lon="2.25541">
        <ele>44.2</ele>
        <time>2023-01-28T14:24:42Z</time>
      </trkpt>
      <trkpt lat="49.89817" lon="2.25539">
        <ele>44.2</ele>
        <time>2023-01-28T14:24:43Z</time>
      </trkpt>
      <trkpt lat="49.89818" lon="2.25539">
        <ele>44.3</ele>
        <time>2023-01-28T14:24:44Z</time>
      </trkpt>
      <trkpt lat="49.8982" lon="2.25535">
        <ele>44.4</ele>
        <time>2023-01-28T14:24:45Z</time>
      </trkpt>
      <trkpt lat="49.89819" lon="2.25532">
        <ele>44.5</ele>
        <time>2023-01-28T14:24:47Z</time>
      </trkpt>
      <trkpt lat="49.89821" lon="2.2553">
        <ele>44.5</ele>
        <time>2023-01-28T14:24:48Z</time>
      </trkpt>
      <trkpt lat="49.89822" lon="2.25529">
        <ele>44.5</ele>
        <time>2023-01-28T14:24:50Z</time>
      </trkpt>
      <trkpt lat="49.89822" lon="2.25526">
        <ele>44.6</ele>
        <time>2023-01-28T14:24:51Z</time>
      </trkpt>
      <trkpt lat="49.89822" lon="2.25525">
        <ele>44.6</ele>
        <time>2023-01-28T14:24:52Z</time>
      </trkpt>
      <trkpt lat="49.89823" lon="2.25524">
        <ele>44.7</ele>
        <time>2023-01-28T14:24:53Z</time>
      </trkpt>
      <trkpt lat="49.89824" lon="2.25523">
        <ele>44.7</ele>
        <time>2023-01-28T14:24:54Z</time>
      </trkpt>
      <trkpt lat="49.89825" lon="2.25521">
        <ele>44.7</ele>
        <time>2023-01-28T14:24:56Z</time>
      </trkpt>
      <trkpt lat="49.89826" lon="2.25521">
        <ele>44.7</ele>
        <time>2023-01-28T14:24:57Z</time>
      </trkpt>
      <trkpt lat="49.89827" lon="2.25521">
        <ele>44.7</ele>
        <time>2023-01-28T14:24:58Z</time>
      </trkpt>
      <trkpt lat="49.89827" lon="2.2552">
        <ele>44.8</ele>
        <time>2023-01-28T14:24:59Z</time>
      </trkpt>
      <trkpt lat="49.89827" lon="2.25519">
        <ele>44.8</ele>
        <time>2023-01-28T14:25:00Z</time>
      </trkpt>
      <trkpt lat="49.89828" lon="2.25518">
        <ele>44.8</ele>
        <time>2023-01-28T14:25:02Z</time>
      </trkpt>
      <trkpt lat="49.89828" lon="2.25516">
        <ele>44.8</ele>
        <time>2023-01-28T14:25:03Z</time>
      </trkpt>
      <trkpt lat="49.89828" lon="2.25515">
        <ele>44.9</ele>
        <time>2023-01-28T14:25:04Z</time>
      </trkpt>
      <trkpt lat="49.89828" lon="2.25512">
        <ele>44.9</ele>
        <time>2023-01-28T14:25:05Z</time>
      </trkpt>
      <trkpt lat="49.89828" lon="2.25511">
        <ele>45</ele>
        <time>2023-01-28T14:25:06Z</time>
      </trkpt>
      <trkpt lat="49.89829" lon="2.25508">
        <ele>45</ele>
        <time>2023-01-28T14:25:07Z</time>
      </trkpt>
      <trkpt lat="49.89829" lon="2.25506">
        <ele>45.1</ele>
        <time>2023-01-28T14:25:09Z</time>
      </trkpt>
      <trkpt lat="49.89829" lon="2.25504">
        <ele>45.1</ele>
        <time>2023-01-28T14:25:10Z</time>
      </trkpt>
      <trkpt lat="49.8983" lon="2.25504">
        <ele>45.1</ele>
        <time>2023-01-28T14:25:11Z</time>
      </trkpt>
      <trkpt lat="49.8983" lon="2.25503">
        <ele>45.1</ele>
        <time>2023-01-28T14:25:12Z</time>
      </trkpt>
      <trkpt lat="49.89831" lon="2.25502">
        <ele>45.2</ele>
        <time>2023-01-28T14:25:13Z</time>
      </trkpt>
      <trkpt lat="49.89832" lon="2.25501">
        <ele>45.2</ele>
        <time>2023-01-28T14:25:15Z</time>
      </trkpt>
      <trkpt lat="49.89834" lon="2.25498">
        <ele>45.2</ele>
        <time>2023-01-28T14:25:16Z</time>
      </trkpt>
      <trkpt lat="49.89834" lon="2.25497">
        <ele>45.2</ele>
        <time>2023-01-28T14:25:17Z</time>
      </trkpt>
      <trkpt lat="49.89835" lon="2.25497">
        <ele>45.2</ele>
        <time>2023-01-28T14:25:18Z</time>
      </trkpt>
      <trkpt lat="49.89836" lon="2.25496">
        <ele>45.3</ele>
        <time>2023-01-28T14:25:20Z</time>
      </trkpt>
      <trkpt lat="49.89837" lon="2.25492">
        <ele>45.3</ele>
        <time>2023-01-28T14:25:21Z</time>
      </trkpt>
      <trkpt lat="49.89839" lon="2.25491">
        <ele>45.3</ele>
        <time>2023-01-28T14:25:23Z</time>
      </trkpt>
      <trkpt lat="49.8984" lon="2.2549">
        <ele>45.3</ele>
        <time>2023-01-28T14:25:24Z</time>
      </trkpt>
      <trkpt lat="49.89841" lon="2.2549">
        <ele>45.4</ele>
        <time>2023-01-28T14:25:25Z</time>
      </trkpt>
      <trkpt lat="49.89841" lon="2.25489">
        <ele>45.4</ele>
        <time>2023-01-28T14:25:26Z</time>
      </trkpt>
      <trkpt lat="49.89842" lon="2.2549">
        <ele>45.4</ele>
        <time>2023-01-28T14:25:28Z</time>
      </trkpt>
      <trkpt lat="49.89843" lon="2.2549">
        <ele>45.4</ele>
        <time>2023-01-28T14:25:29Z</time>
      </trkpt>
      <trkpt lat="49.89844" lon="2.2549">
        <ele>45.4</ele>
        <time>2023-01-28T14:25:30Z</time>
      </trkpt>
      <trkpt lat="49.89844" lon="2.25489">
        <ele>45.4</ele>
        <time>2023-01-28T14:25:32Z</time>
      </trkpt>
      <trkpt lat="49.89845" lon="2.25489">
        <ele>45.4</ele>
        <time>2023-01-28T14:25:33Z</time>
      </trkpt>
      <trkpt lat="49.89846" lon="2.25489">
        <ele>45.4</ele>
        <time>2023-01-28T14:25:34Z</time>
      </trkpt>
      <trkpt lat="49.89847" lon="2.25489">
        <ele>45.4</ele>
        <time>2023-01-28T14:25:35Z</time>
      </trkpt>
      <trkpt lat="49.89848" lon="2.25488">
        <ele>45.4</ele>
        <time>2023-01-28T14:25:36Z</time>
      </trkpt>
      <trkpt lat="49.89848" lon="2.25488">
        <ele>45.4</ele>
        <time>2023-01-28T14:25:38Z</time>
      </trkpt>
      <trkpt lat="49.89848" lon="2.25488">
        <ele>45.4</ele>
        <time>2023-01-28T14:25:39Z</time>
      </trkpt>
      <trkpt lat="49.89848" lon="2.25488">
        <ele>45.4</ele>
        <time>2023-01-28T14:25:41Z</time>
      </trkpt>
      <trkpt lat="49.89848" lon="2.25488">
        <ele>45.4</ele>
        <time>2023-01-28T14:25:43Z</time>
      </trkpt>
      <trkpt lat="49.89848" lon="2.25488">
        <ele>45.5</ele>
        <time>2023-01-28T14:25:44Z</time>
      </trkpt>
      <trkpt lat="49.89848" lon="2.25488">
        <ele>45.5</ele>
        <time>2023-01-28T14:25:46Z</time>
      </trkpt>
      <trkpt lat="49.89848" lon="2.25488">
        <ele>45.5</ele>
        <time>2023-01-28T14:25:47Z</time>
      </trkpt>
      <trkpt lat="49.89848" lon="2.25488">
        <ele>45.5</ele>
        <time>2023-01-28T14:25:49Z</time>
      </trkpt>
      <trkpt lat="49.89848" lon="2.25488">
        <ele>45.5</ele>
        <time>2023-01-28T14:25:50Z</time>
      </trkpt>
      <trkpt lat="49.89848" lon="2.25488">
        <ele>45.5</ele>
        <time>2023-01-28T14:25:52Z</time>
      </trkpt>
      <trkpt lat="49.89848" lon="2.25488">
        <ele>45.5</ele>
        <time>2023-01-28T14:25:53Z</time>
      </trkpt>
      <trkpt lat="49.89848" lon="2.25488">
        <ele>45.5</ele>
        <time>2023-01-28T14:25:54Z</time>
      </trkpt>
      <trkpt lat="49.89848" lon="2.25488">
        <ele>45.5</ele>
        <time>2023-01-28T14:25:55Z</time>
      </trkpt>
      <trkpt lat="49.89847" lon="2.25488">
        <ele>45.5</ele>
        <time>2023-01-28T14:25:57Z</time>
      </trkpt>
      <trkpt lat="49.89847" lon="2.25488">
        <ele>45.5</ele>
        <time>2023-01-28T14:25:59Z</time>
      </trkpt>
      <trkpt lat="49.89847" lon="2.25488">
        <ele>45.5</ele>
        <time>2023-01-28T14:26:00Z</time>
      </trkpt>
      <trkpt lat="49.89847" lon="2.25488">
        <ele>45.5</ele>
        <time>2023-01-28T14:26:01Z</time>
      </trkpt>
      <trkpt lat="49.89847" lon="2.25488">
        <ele>45.5</ele>
        <time>2023-01-28T14:26:02Z</time>
      </trkpt>
      <trkpt lat="49.89847" lon="2.25488">
        <ele>45.5</ele>
        <time>2023-01-28T14:26:03Z</time>
      </trkpt>
      <trkpt lat="49.89847" lon="2.25488">
        <ele>45.5</ele>
        <time>2023-01-28T14:26:04Z</time>
      </trkpt>
      <trkpt lat="49.89847" lon="2.25488">
        <ele>45.5</ele>
        <time>2023-01-28T14:26:05Z</time>
      </trkpt>
      <trkpt lat="49.89847" lon="2.25488">
        <ele>45.5</ele>
        <time>2023-01-28T14:26:06Z</time>
      </trkpt>
      <trkpt lat="49.89847" lon="2.25488">
        <ele>45.5</ele>
        <time>2023-01-28T14:26:07Z</time>
      </trkpt>
      <trkpt lat="49.89847" lon="2.25488">
        <ele>45.5</ele>
        <time>2023-01-28T14:26:08Z</time>
      </trkpt>
      <trkpt lat="49.89847" lon="2.25488">
        <ele>45.5</ele>
        <time>2023-01-28T14:26:09Z</time>
      </trkpt>
      <trkpt lat="49.89847" lon="2.25488">
        <ele>45.5</ele>
        <time>2023-01-28T14:26:10Z</time>
      </trkpt>
      <trkpt lat="49.89847" lon="2.25488">
        <ele>45.5</ele>
        <time>2023-01-28T14:26:11Z</time>
      </trkpt>
      <trkpt lat="49.89847" lon="2.25488">
        <ele>45.5</ele>
        <time>2023-01-28T14:26:12Z</time>
      </trkpt>
      <trkpt lat="49.89847" lon="2.25488">
        <ele>45.5</ele>
        <time>2023-01-28T14:26:13Z</time>
      </trkpt>
      <trkpt lat="49.89847" lon="2.25488">
        <ele>45.5</ele>
        <time>2023-01-28T14:26:14Z</time>
      </trkpt>
      <trkpt lat="49.89847" lon="2.25488">
        <ele>45.5</ele>
        <time>2023-01-28T14:26:15Z</time>
      </trkpt>
      <trkpt lat="49.89846" lon="2.25488">
        <ele>45.5</ele>
        <time>2023-01-28T14:26:16Z</time>
      </trkpt>
      <trkpt lat="49.89846" lon="2.25488">
        <ele>45.5</ele>
        <time>2023-01-28T14:26:17Z</time>
      </trkpt>
      <trkpt lat="49.89846" lon="2.25488">
        <ele>45.5</ele>
        <time>2023-01-28T14:26:18Z</time>
      </trkpt>
      <trkpt lat="49.89846" lon="2.25487">
        <ele>45.5</ele>
        <time>2023-01-28T14:26:19Z</time>
      </trkpt>
      <trkpt lat="49.89845" lon="2.25486">
        <ele>45.5</ele>
        <time>2023-01-28T14:26:20Z</time>
      </trkpt>
      <trkpt lat="49.89843" lon="2.25488">
        <ele>45.5</ele>
        <time>2023-01-28T14:26:21Z</time>
      </trkpt>
      <trkpt lat="49.89842" lon="2.25487">
        <ele>45.5</ele>
        <time>2023-01-28T14:26:23Z</time>
      </trkpt>
      <trkpt lat="49.89841" lon="2.25486">
        <ele>45.5</ele>
        <time>2023-01-28T14:26:24Z</time>
      </trkpt>
      <trkpt lat="49.89841" lon="2.25485">
        <ele>45.5</ele>
        <time>2023-01-28T14:26:26Z</time>
      </trkpt>
      <trkpt lat="49.8984" lon="2.25484">
        <ele>45.5</ele>
        <time>2023-01-28T14:26:27Z</time>
      </trkpt>
      <trkpt lat="49.89839" lon="2.25483">
        <ele>45.5</ele>
        <time>2023-01-28T14:26:28Z</time>
      </trkpt>
      <trkpt lat="49.89839" lon="2.25481">
        <ele>45.6</ele>
        <time>2023-01-28T14:26:30Z</time>
      </trkpt>
      <trkpt lat="49.89836" lon="2.25478">
        <ele>45.6</ele>
        <time>2023-01-28T14:26:32Z</time>
      </trkpt>
      <trkpt lat="49.89837" lon="2.25477">
        <ele>45.6</ele>
        <time>2023-01-28T14:26:33Z</time>
      </trkpt>
      <trkpt lat="49.89838" lon="2.25476">
        <ele>45.6</ele>
        <time>2023-01-28T14:26:34Z</time>
      </trkpt>
      <trkpt lat="49.89838" lon="2.25475">
        <ele>45.6</ele>
        <time>2023-01-28T14:26:36Z</time>
      </trkpt>
      <trkpt lat="49.89839" lon="2.25475">
        <ele>45.7</ele>
        <time>2023-01-28T14:26:37Z</time>
      </trkpt>
      <trkpt lat="49.89839" lon="2.25474">
        <ele>45.7</ele>
        <time>2023-01-28T14:26:39Z</time>
      </trkpt>
      <trkpt lat="49.89839" lon="2.25473">
        <ele>45.7</ele>
        <time>2023-01-28T14:26:40Z</time>
      </trkpt>
      <trkpt lat="49.89839" lon="2.25472">
        <ele>45.7</ele>
        <time>2023-01-28T14:26:41Z</time>
      </trkpt>
      <trkpt lat="49.89839" lon="2.2547">
        <ele>45.7</ele>
        <time>2023-01-28T14:26:42Z</time>
      </trkpt>
      <trkpt lat="49.89839" lon="2.25469">
        <ele>45.7</ele>
        <time>2023-01-28T14:26:44Z</time>
      </trkpt>
      <trkpt lat="49.89839" lon="2.25467">
        <ele>45.7</ele>
        <time>2023-01-28T14:26:45Z</time>
      </trkpt>
      <trkpt lat="49.89839" lon="2.25465">
        <ele>45.7</ele>
        <time>2023-01-28T14:26:46Z</time>
      </trkpt>
      <trkpt lat="49.89839" lon="2.25464">
        <ele>45.7</ele>
        <time>2023-01-28T14:26:47Z</time>
      </trkpt>
      <trkpt lat="49.89839" lon="2.25463">
        <ele>45.7</ele>
        <time>2023-01-28T14:26:48Z</time>
      </trkpt>
      <trkpt lat="49.89838" lon="2.25461">
        <ele>45.7</ele>
        <time>2023-01-28T14:26:49Z</time>
      </trkpt>
      <trkpt lat="49.89838" lon="2.2546">
        <ele>45.7</ele>
        <time>2023-01-28T14:26:51Z</time>
      </trkpt>
      <trkpt lat="49.89836" lon="2.25459">
        <ele>45.8</ele>
        <time>2023-01-28T14:26:52Z</time>
      </trkpt>
      <trkpt lat="49.89835" lon="2.25458">
        <ele>45.8</ele>
        <time>2023-01-28T14:26:53Z</time>
      </trkpt>
      <trkpt lat="49.89834" lon="2.25456">
        <ele>45.8</ele>
        <time>2023-01-28T14:26:54Z</time>
      </trkpt>
      <trkpt lat="49.89833" lon="2.25455">
        <ele>45.8</ele>
        <time>2023-01-28T14:26:55Z</time>
      </trkpt>
      <trkpt lat="49.89832" lon="2.25454">
        <ele>45.8</ele>
        <time>2023-01-28T14:26:56Z</time>
      </trkpt>
      <trkpt lat="49.89831" lon="2.25452">
        <ele>45.8</ele>
        <time>2023-01-28T14:26:58Z</time>
      </trkpt>
      <trkpt lat="49.89831" lon="2.2545">
        <ele>45.8</ele>
        <time>2023-01-28T14:27:00Z</time>
      </trkpt>
      <trkpt lat="49.89831" lon="2.25449">
        <ele>45.8</ele>
        <time>2023-01-28T14:27:01Z</time>
      </trkpt>
      <trkpt lat="49.8983" lon="2.25448">
        <ele>45.8</ele>
        <time>2023-01-28T14:27:02Z</time>
      </trkpt>
      <trkpt lat="49.8983" lon="2.25447">
        <ele>45.9</ele>
        <time>2023-01-28T14:27:03Z</time>
      </trkpt>
      <trkpt lat="49.89829" lon="2.25445">
        <ele>45.9</ele>
        <time>2023-01-28T14:27:05Z</time>
      </trkpt>
      <trkpt lat="49.89827" lon="2.25445">
        <ele>45.9</ele>
        <time>2023-01-28T14:27:06Z</time>
      </trkpt>
      <trkpt lat="49.89827" lon="2.25445">
        <ele>45.9</ele>
        <time>2023-01-28T14:27:07Z</time>
      </trkpt>
      <trkpt lat="49.89826" lon="2.25444">
        <ele>45.9</ele>
        <time>2023-01-28T14:27:08Z</time>
      </trkpt>
      <trkpt lat="49.89826" lon="2.25442">
        <ele>45.9</ele>
        <time>2023-01-28T14:27:09Z</time>
      </trkpt>
      <trkpt lat="49.89826" lon="2.25441">
        <ele>45.9</ele>
        <time>2023-01-28T14:27:10Z</time>
      </trkpt>
      <trkpt lat="49.89825" lon="2.25441">
        <ele>45.9</ele>
        <time>2023-01-28T14:27:11Z</time>
      </trkpt>
      <trkpt lat="49.89825" lon="2.2544">
        <ele>45.9</ele>
        <time>2023-01-28T14:27:13Z</time>
      </trkpt>
      <trkpt lat="49.89825" lon="2.25438">
        <ele>46</ele>
        <time>2023-01-28T14:27:14Z</time>
      </trkpt>
      <trkpt lat="49.89825" lon="2.25436">
        <ele>46</ele>
        <time>2023-01-28T14:27:15Z</time>
      </trkpt>
      <trkpt lat="49.89824" lon="2.25437">
        <ele>46</ele>
        <time>2023-01-28T14:27:16Z</time>
      </trkpt>
      <trkpt lat="49.89823" lon="2.25436">
        <ele>46</ele>
        <time>2023-01-28T14:27:17Z</time>
      </trkpt>
      <trkpt lat="49.89823" lon="2.25434">
        <ele>46</ele>
        <time>2023-01-28T14:27:18Z</time>
      </trkpt>
      <trkpt lat="49.89824" lon="2.25432">
        <ele>46</ele>
        <time>2023-01-28T14:27:20Z</time>
      </trkpt>
      <trkpt lat="49.89824" lon="2.2543">
        <ele>46</ele>
        <time>2023-01-28T14:27:21Z</time>
      </trkpt>
      <trkpt lat="49.89823" lon="2.25428">
        <ele>46</ele>
        <time>2023-01-28T14:27:22Z</time>
      </trkpt>
      <trkpt lat="49.89823" lon="2.25427">
        <ele>46.1</ele>
        <time>2023-01-28T14:27:23Z</time>
      </trkpt>
      <trkpt lat="49.89823" lon="2.25425">
        <ele>46.1</ele>
        <time>2023-01-28T14:27:24Z</time>
      </trkpt>
      <trkpt lat="49.89823" lon="2.25424">
        <ele>46.1</ele>
        <time>2023-01-28T14:27:25Z</time>
      </trkpt>
      <trkpt lat="49.89822" lon="2.25423">
        <ele>46.1</ele>
        <time>2023-01-28T14:27:27Z</time>
      </trkpt>
      <trkpt lat="49.89822" lon="2.25421">
        <ele>46.1</ele>
        <time>2023-01-28T14:27:28Z</time>
      </trkpt>
      <trkpt lat="49.89821" lon="2.25419">
        <ele>46.1</ele>
        <time>2023-01-28T14:27:29Z</time>
      </trkpt>
      <trkpt lat="49.89821" lon="2.25415">
        <ele>46.2</ele>
        <time>2023-01-28T14:27:30Z</time>
      </trkpt>
      <trkpt lat="49.8982" lon="2.25414">
        <ele>46.2</ele>
        <time>2023-01-28T14:27:32Z</time>
      </trkpt>
      <trkpt lat="49.89819" lon="2.25412">
        <ele>46.2</ele>
        <time>2023-01-28T14:27:34Z</time>
      </trkpt>
      <trkpt lat="49.89818" lon="2.25411">
        <ele>46.2</ele>
        <time>2023-01-28T14:27:35Z</time>
      </trkpt>
      <trkpt lat="49.89818" lon="2.2541">
        <ele>46.2</ele>
        <time>2023-01-28T14:27:36Z</time>
      </trkpt>
      <trkpt lat="49.89816" lon="2.25409">
        <ele>46.3</ele>
        <time>2023-01-28T14:27:37Z</time>
      </trkpt>
      <trkpt lat="49.89816" lon="2.25407">
        <ele>46.3</ele>
        <time>2023-01-28T14:27:38Z</time>
      </trkpt>
      <trkpt lat="49.89815" lon="2.25404">
        <ele>46.3</ele>
        <time>2023-01-28T14:27:40Z</time>
      </trkpt>
      <trkpt lat="49.89814" lon="2.25403">
        <ele>46.3</ele>
        <time>2023-01-28T14:27:42Z</time>
      </trkpt>
      <trkpt lat="49.89814" lon="2.25402">
        <ele>46.3</ele>
        <time>2023-01-28T14:27:43Z</time>
      </trkpt>
      <trkpt lat="49.89813" lon="2.254">
        <ele>46.4</ele>
        <time>2023-01-28T14:27:44Z</time>
      </trkpt>
      <trkpt lat="49.89813" lon="2.25398">
        <ele>46.4</ele>
        <time>2023-01-28T14:27:45Z</time>
      </trkpt>
      <trkpt lat="49.89811" lon="2.254">
        <ele>46.4</ele>
        <time>2023-01-28T14:27:47Z</time>
      </trkpt>
      <trkpt lat="49.8981" lon="2.254">
        <ele>46.4</ele>
        <time>2023-01-28T14:27:48Z</time>
      </trkpt>
      <trkpt lat="49.89809" lon="2.25398">
        <ele>46.4</ele>
        <time>2023-01-28T14:27:49Z</time>
      </trkpt>
      <trkpt lat="49.89808" lon="2.25397">
        <ele>46.4</ele>
        <time>2023-01-28T14:27:50Z</time>
      </trkpt>
      <trkpt lat="49.89805" lon="2.25398">
        <ele>46.4</ele>
        <time>2023-01-28T14:27:51Z</time>
      </trkpt>
      <trkpt lat="49.89804" lon="2.25399">
        <ele>46.5</ele>
        <time>2023-01-28T14:27:52Z</time>
      </trkpt>
      <trkpt lat="49.89803" lon="2.25396">
        <ele>46.5</ele>
        <time>2023-01-28T14:27:54Z</time>
      </trkpt>
      <trkpt lat="49.89803" lon="2.25395">
        <ele>46.5</ele>
        <time>2023-01-28T14:27:55Z</time>
      </trkpt>
      <trkpt lat="49.89802" lon="2.25394">
        <ele>46.5</ele>
        <time>2023-01-28T14:27:56Z</time>
      </trkpt>
      <trkpt lat="49.89801" lon="2.25394">
        <ele>46.5</ele>
        <time>2023-01-28T14:27:57Z</time>
      </trkpt>
      <trkpt lat="49.898" lon="2.25392">
        <ele>46.5</ele>
        <time>2023-01-28T14:27:59Z</time>
      </trkpt>
      <trkpt lat="49.898" lon="2.2539">
        <ele>46.6</ele>
        <time>2023-01-28T14:28:00Z</time>
      </trkpt>
      <trkpt lat="49.89798" lon="2.2539">
        <ele>46.6</ele>
        <time>2023-01-28T14:28:01Z</time>
      </trkpt>
      <trkpt lat="49.89798" lon="2.2539">
        <ele>46.6</ele>
        <time>2023-01-28T14:28:02Z</time>
      </trkpt>
      <trkpt lat="49.89798" lon="2.25388">
        <ele>46.6</ele>
        <time>2023-01-28T14:28:04Z</time>
      </trkpt>
      <trkpt lat="49.89798" lon="2.25386">
        <ele>46.6</ele>
        <time>2023-01-28T14:28:05Z</time>
      </trkpt>
      <trkpt lat="49.89798" lon="2.25384">
        <ele>46.6</ele>
        <time>2023-01-28T14:28:06Z</time>
      </trkpt>
      <trkpt lat="49.89796" lon="2.25385">
        <ele>46.6</ele>
        <time>2023-01-28T14:28:07Z</time>
      </trkpt>
      <trkpt lat="49.89796" lon="2.25382">
        <ele>46.7</ele>
        <time>2023-01-28T14:28:08Z</time>
      </trkpt>
      <trkpt lat="49.89796" lon="2.2538">
        <ele>46.7</ele>
        <time>2023-01-28T14:28:09Z</time>
      </trkpt>
      <trkpt lat="49.89795" lon="2.25379">
        <ele>46.7</ele>
        <time>2023-01-28T14:28:11Z</time>
      </trkpt>
      <trkpt lat="49.89795" lon="2.25378">
        <ele>46.7</ele>
        <time>2023-01-28T14:28:12Z</time>
      </trkpt>
      <trkpt lat="49.89795" lon="2.25376">
        <ele>46.7</ele>
        <time>2023-01-28T14:28:13Z</time>
      </trkpt>
      <trkpt lat="49.89795" lon="2.25375">
        <ele>46.7</ele>
        <time>2023-01-28T14:28:14Z</time>
      </trkpt>
      <trkpt lat="49.89795" lon="2.25373">
        <ele>46.7</ele>
        <time>2023-01-28T14:28:16Z</time>
      </trkpt>
      <trkpt lat="49.89795" lon="2.25372">
        <ele>46.7</ele>
        <time>2023-01-28T14:28:17Z</time>
      </trkpt>
      <trkpt lat="49.89795" lon="2.2537">
        <ele>46.7</ele>
        <time>2023-01-28T14:28:19Z</time>
      </trkpt>
      <trkpt lat="49.89794" lon="2.25369">
        <ele>46.7</ele>
        <time>2023-01-28T14:28:20Z</time>
      </trkpt>
      <trkpt lat="49.89792" lon="2.25369">
        <ele>46.8</ele>
        <time>2023-01-28T14:28:21Z</time>
      </trkpt>
      <trkpt lat="49.89791" lon="2.25369">
        <ele>46.8</ele>
        <time>2023-01-28T14:28:22Z</time>
      </trkpt>
      <trkpt lat="49.89791" lon="2.25367">
        <ele>46.8</ele>
        <time>2023-01-28T14:28:24Z</time>
      </trkpt>
      <trkpt lat="49.89791" lon="2.25365">
        <ele>46.8</ele>
        <time>2023-01-28T14:28:25Z</time>
      </trkpt>
      <trkpt lat="49.8979" lon="2.25364">
        <ele>46.8</ele>
        <time>2023-01-28T14:28:26Z</time>
      </trkpt>
      <trkpt lat="49.89789" lon="2.25362">
        <ele>46.8</ele>
        <time>2023-01-28T14:28:27Z</time>
      </trkpt>
      <trkpt lat="49.89788" lon="2.2536">
        <ele>46.8</ele>
        <time>2023-01-28T14:28:28Z</time>
      </trkpt>
      <trkpt lat="49.89788" lon="2.25358">
        <ele>46.8</ele>
        <time>2023-01-28T14:28:30Z</time>
      </trkpt>
      <trkpt lat="49.89788" lon="2.25355">
        <ele>46.9</ele>
        <time>2023-01-28T14:28:31Z</time>
      </trkpt>
      <trkpt lat="49.89788" lon="2.25354">
        <ele>46.9</ele>
        <time>2023-01-28T14:28:33Z</time>
      </trkpt>
      <trkpt lat="49.89788" lon="2.25352">
        <ele>46.9</ele>
        <time>2023-01-28T14:28:34Z</time>
      </trkpt>
      <trkpt lat="49.89788" lon="2.2535">
        <ele>46.9</ele>
        <time>2023-01-28T14:28:35Z</time>
      </trkpt>
      <trkpt lat="49.89785" lon="2.2535">
        <ele>46.9</ele>
        <time>2023-01-28T14:28:36Z</time>
      </trkpt>
      <trkpt lat="49.89784" lon="2.25349">
        <ele>46.9</ele>
        <time>2023-01-28T14:28:37Z</time>
      </trkpt>
      <trkpt lat="49.89784" lon="2.25348">
        <ele>46.9</ele>
        <time>2023-01-28T14:28:38Z</time>
      </trkpt>
      <trkpt lat="49.89783" lon="2.25346">
        <ele>47</ele>
        <time>2023-01-28T14:28:39Z</time>
      </trkpt>
      <trkpt lat="49.89783" lon="2.25345">
        <ele>47</ele>
        <time>2023-01-28T14:28:41Z</time>
      </trkpt>
      <trkpt lat="49.8978" lon="2.25345">
        <ele>47</ele>
        <time>2023-01-28T14:28:42Z</time>
      </trkpt>
      <trkpt lat="49.8978" lon="2.25343">
        <ele>47</ele>
        <time>2023-01-28T14:28:43Z</time>
      </trkpt>
      <trkpt lat="49.8978" lon="2.25342">
        <ele>47</ele>
        <time>2023-01-28T14:28:44Z</time>
      </trkpt>
      <trkpt lat="49.89779" lon="2.2534">
        <ele>47</ele>
        <time>2023-01-28T14:28:45Z</time>
      </trkpt>
      <trkpt lat="49.89776" lon="2.25341">
        <ele>47.1</ele>
        <time>2023-01-28T14:28:47Z</time>
      </trkpt>
      <trkpt lat="49.89775" lon="2.25341">
        <ele>47.1</ele>
        <time>2023-01-28T14:28:48Z</time>
      </trkpt>
      <trkpt lat="49.89775" lon="2.25339">
        <ele>47.1</ele>
        <time>2023-01-28T14:28:49Z</time>
      </trkpt>
      <trkpt lat="49.89774" lon="2.25337">
        <ele>47.1</ele>
        <time>2023-01-28T14:28:50Z</time>
      </trkpt>
      <trkpt lat="49.89771" lon="2.25337">
        <ele>47.1</ele>
        <time>2023-01-28T14:28:51Z</time>
      </trkpt>
      <trkpt lat="49.89771" lon="2.25336">
        <ele>47.2</ele>
        <time>2023-01-28T14:28:52Z</time>
      </trkpt>
      <trkpt lat="49.89771" lon="2.25334">
        <ele>47.2</ele>
        <time>2023-01-28T14:28:54Z</time>
      </trkpt>
      <trkpt lat="49.89771" lon="2.25332">
        <ele>47.2</ele>
        <time>2023-01-28T14:28:55Z</time>
      </trkpt>
      <trkpt lat="49.89771" lon="2.25329">
        <ele>47.2</ele>
        <time>2023-01-28T14:28:56Z</time>
      </trkpt>
      <trkpt lat="49.89769" lon="2.25328">
        <ele>47.2</ele>
        <time>2023-01-28T14:28:57Z</time>
      </trkpt>
      <trkpt lat="49.89768" lon="2.25326">
        <ele>47.3</ele>
        <time>2023-01-28T14:28:58Z</time>
      </trkpt>
      <trkpt lat="49.89768" lon="2.25325">
        <ele>47.3</ele>
        <time>2023-01-28T14:29:00Z</time>
      </trkpt>
      <trkpt lat="49.89768" lon="2.25323">
        <ele>47.3</ele>
        <time>2023-01-28T14:29:01Z</time>
      </trkpt>
      <trkpt lat="49.89768" lon="2.25319">
        <ele>47.3</ele>
        <time>2023-01-28T14:29:02Z</time>
      </trkpt>
      <trkpt lat="49.89768" lon="2.25318">
        <ele>47.3</ele>
        <time>2023-01-28T14:29:03Z</time>
      </trkpt>
      <trkpt lat="49.89768" lon="2.25316">
        <ele>47.4</ele>
        <time>2023-01-28T14:29:05Z</time>
      </trkpt>
      <trkpt lat="49.89765" lon="2.25315">
        <ele>47.4</ele>
        <time>2023-01-28T14:29:06Z</time>
      </trkpt>
      <trkpt lat="49.89765" lon="2.25314">
        <ele>47.4</ele>
        <time>2023-01-28T14:29:08Z</time>
      </trkpt>
      <trkpt lat="49.89765" lon="2.25313">
        <ele>47.4</ele>
        <time>2023-01-28T14:29:09Z</time>
      </trkpt>
      <trkpt lat="49.89765" lon="2.25311">
        <ele>47.4</ele>
        <time>2023-01-28T14:29:10Z</time>
      </trkpt>
      <trkpt lat="49.89766" lon="2.25308">
        <ele>47.5</ele>
        <time>2023-01-28T14:29:11Z</time>
      </trkpt>
      <trkpt lat="49.89762" lon="2.2531">
        <ele>47.5</ele>
        <time>2023-01-28T14:29:12Z</time>
      </trkpt>
      <trkpt lat="49.89761" lon="2.25309">
        <ele>47.5</ele>
        <time>2023-01-28T14:29:14Z</time>
      </trkpt>
      <trkpt lat="49.89761" lon="2.25308">
        <ele>47.5</ele>
        <time>2023-01-28T14:29:15Z</time>
      </trkpt>
      <trkpt lat="49.89761" lon="2.25305">
        <ele>47.6</ele>
        <time>2023-01-28T14:29:16Z</time>
      </trkpt>
      <trkpt lat="49.89758" lon="2.25306">
        <ele>47.6</ele>
        <time>2023-01-28T14:29:17Z</time>
      </trkpt>
      <trkpt lat="49.89757" lon="2.25305">
        <ele>47.6</ele>
        <time>2023-01-28T14:29:18Z</time>
      </trkpt>
      <trkpt lat="49.89756" lon="2.25304">
        <ele>47.6</ele>
        <time>2023-01-28T14:29:20Z</time>
      </trkpt>
      <trkpt lat="49.89755" lon="2.25301">
        <ele>47.7</ele>
        <time>2023-01-28T14:29:21Z</time>
      </trkpt>
      <trkpt lat="49.89755" lon="2.253">
        <ele>47.7</ele>
        <time>2023-01-28T14:29:23Z</time>
      </trkpt>
      <trkpt lat="49.89756" lon="2.25298">
        <ele>47.7</ele>
        <time>2023-01-28T14:29:24Z</time>
      </trkpt>
      <trkpt lat="49.89757" lon="2.25297">
        <ele>47.7</ele>
        <time>2023-01-28T14:29:25Z</time>
      </trkpt>
      <trkpt lat="49.89757" lon="2.25296">
        <ele>47.7</ele>
        <time>2023-01-28T14:29:27Z</time>
      </trkpt>
      <trkpt lat="49.89758" lon="2.25295">
        <ele>47.7</ele>
        <time>2023-01-28T14:29:28Z</time>
      </trkpt>
      <trkpt lat="49.89758" lon="2.25293">
        <ele>47.7</ele>
        <time>2023-01-28T14:29:29Z</time>
      </trkpt>
      <trkpt lat="49.89758" lon="2.25292">
        <ele>47.7</ele>
        <time>2023-01-28T14:29:30Z</time>
      </trkpt>
      <trkpt lat="49.89757" lon="2.25291">
        <ele>47.8</ele>
        <time>2023-01-28T14:29:31Z</time>
      </trkpt>
      <trkpt lat="49.89757" lon="2.2529">
        <ele>47.8</ele>
        <time>2023-01-28T14:29:32Z</time>
      </trkpt>
      <trkpt lat="49.89756" lon="2.25289">
        <ele>47.8</ele>
        <time>2023-01-28T14:29:33Z</time>
      </trkpt>
      <trkpt lat="49.89754" lon="2.25287">
        <ele>47.8</ele>
        <time>2023-01-28T14:29:34Z</time>
      </trkpt>
      <trkpt lat="49.89753" lon="2.25286">
        <ele>47.8</ele>
        <time>2023-01-28T14:29:36Z</time>
      </trkpt>
      <trkpt lat="49.89752" lon="2.25286">
        <ele>47.8</ele>
        <time>2023-01-28T14:29:37Z</time>
      </trkpt>
      <trkpt lat="49.89751" lon="2.25285">
        <ele>47.8</ele>
        <time>2023-01-28T14:29:38Z</time>
      </trkpt>
      <trkpt lat="49.89749" lon="2.25285">
        <ele>47.9</ele>
        <time>2023-01-28T14:29:40Z</time>
      </trkpt>
      <trkpt lat="49.89748" lon="2.25286">
        <ele>47.9</ele>
        <time>2023-01-28T14:29:41Z</time>
      </trkpt>
      <trkpt lat="49.89746" lon="2.25285">
        <ele>47.8</ele>
        <time>2023-01-28T14:29:43Z</time>
      </trkpt>
      <trkpt lat="49.89746" lon="2.25285">
        <ele>47.8</ele>
        <time>2023-01-28T14:29:45Z</time>
      </trkpt>
      <trkpt lat="49.89746" lon="2.25285">
        <ele>47.8</ele>
        <time>2023-01-28T14:29:46Z</time>
      </trkpt>
      <trkpt lat="49.89746" lon="2.25287">
        <ele>47.8</ele>
        <time>2023-01-28T14:29:48Z</time>
      </trkpt>
      <trkpt lat="49.89746" lon="2.25287">
        <ele>47.8</ele>
        <time>2023-01-28T14:29:49Z</time>
      </trkpt>
      <trkpt lat="49.89746" lon="2.25288">
        <ele>47.8</ele>
        <time>2023-01-28T14:29:50Z</time>
      </trkpt>
      <trkpt lat="49.89746" lon="2.25288">
        <ele>47.8</ele>
        <time>2023-01-28T14:29:51Z</time>
      </trkpt>
      <trkpt lat="49.89746" lon="2.25288">
        <ele>47.8</ele>
        <time>2023-01-28T14:29:53Z</time>
      </trkpt>
      <trkpt lat="49.89747" lon="2.25288">
        <ele>47.8</ele>
        <time>2023-01-28T14:29:55Z</time>
      </trkpt>
      <trkpt lat="49.89747" lon="2.25288">
        <ele>47.8</ele>
        <time>2023-01-28T14:29:56Z</time>
      </trkpt>
      <trkpt lat="49.89747" lon="2.25288">
        <ele>47.8</ele>
        <time>2023-01-28T14:29:58Z</time>
      </trkpt>
      <trkpt lat="49.89747" lon="2.25288">
        <ele>47.8</ele>
        <time>2023-01-28T14:29:59Z</time>
      </trkpt>
      <trkpt lat="49.89748" lon="2.25288">
        <ele>47.8</ele>
        <time>2023-01-28T14:30:00Z</time>
      </trkpt>
      <trkpt lat="49.89748" lon="2.25289">
        <ele>47.7</ele>
        <time>2023-01-28T14:30:01Z</time>
      </trkpt>
      <trkpt lat="49.89748" lon="2.25289">
        <ele>47.7</ele>
        <time>2023-01-28T14:30:02Z</time>
      </trkpt>
      <trkpt lat="49.89748" lon="2.25289">
        <ele>47.7</ele>
        <time>2023-01-28T14:30:03Z</time>
      </trkpt>
      <trkpt lat="49.89748" lon="2.25289">
        <ele>47.7</ele>
        <time>2023-01-28T14:30:04Z</time>
      </trkpt>
      <trkpt lat="49.89748" lon="2.25289">
        <ele>47.7</ele>
        <time>2023-01-28T14:30:05Z</time>
      </trkpt>
      <trkpt lat="49.89748" lon="2.25289">
        <ele>47.7</ele>
        <time>2023-01-28T14:30:06Z</time>
      </trkpt>
      <trkpt lat="49.89748" lon="2.25289">
        <ele>47.7</ele>
        <time>2023-01-28T14:30:07Z</time>
      </trkpt>
      <trkpt lat="49.89748" lon="2.25289">
        <ele>47.7</ele>
        <time>2023-01-28T14:30:08Z</time>
      </trkpt>
      <trkpt lat="49.89748" lon="2.25289">
        <ele>47.7</ele>
        <time>2023-01-28T14:30:09Z</time>
      </trkpt>
      <trkpt lat="49.89748" lon="2.25289">
        <ele>47.7</ele>
        <time>2023-01-28T14:30:10Z</time>
      </trkpt>
      <trkpt lat="49.89748" lon="2.25289">
        <ele>47.7</ele>
        <time>2023-01-28T14:30:11Z</time>
      </trkpt>
      <trkpt lat="49.89748" lon="2.25289">
        <ele>47.7</ele>
        <time>2023-01-28T14:30:12Z</time>
      </trkpt>
      <trkpt lat="49.89748" lon="2.25289">
        <ele>47.7</ele>
        <time>2023-01-28T14:30:13Z</time>
      </trkpt>
      <trkpt lat="49.89748" lon="2.25289">
        <ele>47.7</ele>
        <time>2023-01-28T14:30:14Z</time>
      </trkpt>
      <trkpt lat="49.89748" lon="2.25289">
        <ele>47.7</ele>
        <time>2023-01-28T14:30:15Z</time>
      </trkpt>
      <trkpt lat="49.89748" lon="2.25289">
        <ele>47.7</ele>
        <time>2023-01-28T14:30:16Z</time>
      </trkpt>
      <trkpt lat="49.89748" lon="2.25289">
        <ele>47.7</ele>
        <time>2023-01-28T14:30:17Z</time>
      </trkpt>
      <trkpt lat="49.89748" lon="2.25289">
        <ele>47.7</ele>
        <time>2023-01-28T14:30:18Z</time>
      </trkpt>
      <trkpt lat="49.89748" lon="2.25289">
        <ele>47.7</ele>
        <time>2023-01-28T14:30:19Z</time>
      </trkpt>
      <trkpt lat="49.89748" lon="2.25289">
        <ele>47.7</ele>
        <time>2023-01-28T14:30:20Z</time>
      </trkpt>
      <trkpt lat="49.89748" lon="2.25289">
        <ele>47.7</ele>
        <time>2023-01-28T14:30:21Z</time>
      </trkpt>
      <trkpt lat="49.89748" lon="2.25289">
        <ele>47.7</ele>
        <time>2023-01-28T14:30:22Z</time>
      </trkpt>
      <trkpt lat="49.89748" lon="2.25289">
        <ele>47.7</ele>
        <time>2023-01-28T14:30:23Z</time>
      </trkpt>
      <trkpt lat="49.89748" lon="2.25289">
        <ele>47.7</ele>
        <time>2023-01-28T14:30:24Z</time>
      </trkpt>
      <trkpt lat="49.89748" lon="2.25289">
        <ele>47.7</ele>
        <time>2023-01-28T14:30:25Z</time>
      </trkpt>
      <trkpt lat="49.89748" lon="2.25289">
        <ele>47.7</ele>
        <time>2023-01-28T14:30:26Z</time>
      </trkpt>
      <trkpt lat="49.89748" lon="2.25289">
        <ele>47.7</ele>
        <time>2023-01-28T14:30:27Z</time>
      </trkpt>
      <trkpt lat="49.89748" lon="2.25289">
        <ele>47.7</ele>
        <time>2023-01-28T14:30:28Z</time>
      </trkpt>
      <trkpt lat="49.89748" lon="2.25289">
        <ele>47.7</ele>
        <time>2023-01-28T14:30:29Z</time>
      </trkpt>
      <trkpt lat="49.89748" lon="2.25289">
        <ele>47.7</ele>
        <time>2023-01-28T14:30:30Z</time>
      </trkpt>
      <trkpt lat="49.89748" lon="2.25289">
        <ele>47.7</ele>
        <time>2023-01-28T14:30:31Z</time>
      </trkpt>
      <trkpt lat="49.89748" lon="2.25289">
        <ele>47.7</ele>
        <time>2023-01-28T14:30:32Z</time>
      </trkpt>
      <trkpt lat="49.89748" lon="2.25289">
        <ele>47.7</ele>
        <time>2023-01-28T14:30:33Z</time>
      </trkpt>
      <trkpt lat="49.89748" lon="2.25289">
        <ele>47.7</ele>
        <time>2023-01-28T14:30:34Z</time>
      </trkpt>
      <trkpt lat="49.89748" lon="2.25289">
        <ele>47.7</ele>
        <time>2023-01-28T14:30:35Z</time>
      </trkpt>
      <trkpt lat="49.89748" lon="2.25289">
        <ele>47.7</ele>
        <time>2023-01-28T14:30:36Z</time>
      </trkpt>
      <trkpt lat="49.89748" lon="2.25289">
        <ele>47.7</ele>
        <time>2023-01-28T14:30:37Z</time>
      </trkpt>
      <trkpt lat="49.89748" lon="2.25289">
        <ele>47.7</ele>
        <time>2023-01-28T14:30:38Z</time>
      </trkpt>
      <trkpt lat="49.89748" lon="2.25289">
        <ele>47.7</ele>
        <time>2023-01-28T14:30:39Z</time>
      </trkpt>
      <trkpt lat="49.89748" lon="2.25289">
        <ele>47.7</ele>
        <time>2023-01-28T14:30:40Z</time>
      </trkpt>
      <trkpt lat="49.89748" lon="2.25289">
        <ele>47.7</ele>
        <time>2023-01-28T14:30:41Z</time>
      </trkpt>
      <trkpt lat="49.89748" lon="2.25289">
        <ele>47.7</ele>
        <time>2023-01-28T14:30:42Z</time>
      </trkpt>
      <trkpt lat="49.89748" lon="2.25289">
        <ele>47.7</ele>
        <time>2023-01-28T14:30:43Z</time>
      </trkpt>
      <trkpt lat="49.89748" lon="2.25289">
        <ele>47.7</ele>
        <time>2023-01-28T14:30:44Z</time>
      </trkpt>
      <trkpt lat="49.89748" lon="2.25289">
        <ele>47.7</ele>
        <time>2023-01-28T14:30:45Z</time>
      </trkpt>
      <trkpt lat="49.89748" lon="2.25289">
        <ele>47.7</ele>
        <time>2023-01-28T14:30:46Z</time>
      </trkpt>
      <trkpt lat="49.89748" lon="2.25289">
        <ele>47.7</ele>
        <time>2023-01-28T14:30:47Z</time>
      </trkpt>
      <trkpt lat="49.89748" lon="2.25289">
        <ele>47.7</ele>
        <time>2023-01-28T14:30:48Z</time>
      </trkpt>
      <trkpt lat="49.89748" lon="2.25289">
        <ele>47.7</ele>
        <time>2023-01-28T14:30:49Z</time>
      </trkpt>
      <trkpt lat="49.89748" lon="2.25289">
        <ele>47.7</ele>
        <time>2023-01-28T14:30:50Z</time>
      </trkpt>
      <trkpt lat="49.89748" lon="2.25289">
        <ele>47.7</ele>
        <time>2023-01-28T14:30:51Z</time>
      </trkpt>
      <trkpt lat="49.89748" lon="2.25289">
        <ele>47.7</ele>
        <time>2023-01-28T14:30:52Z</time>
      </trkpt>
      <trkpt lat="49.89748" lon="2.25289">
        <ele>47.7</ele>
        <time>2023-01-28T14:30:53Z</time>
      </trkpt>
      <trkpt lat="49.89748" lon="2.25289">
        <ele>47.7</ele>
        <time>2023-01-28T14:30:54Z</time>
      </trkpt>
      <trkpt lat="49.89748" lon="2.25289">
        <ele>47.7</ele>
        <time>2023-01-28T14:30:55Z</time>
      </trkpt>
      <trkpt lat="49.89748" lon="2.25289">
        <ele>47.7</ele>
        <time>2023-01-28T14:30:56Z</time>
      </trkpt>
      <trkpt lat="49.89749" lon="2.2529">
        <ele>47.7</ele>
        <time>2023-01-28T14:30:57Z</time>
      </trkpt>
      <trkpt lat="49.8975" lon="2.25294">
        <ele>47.7</ele>
        <time>2023-01-28T14:30:58Z</time>
      </trkpt>
      <trkpt lat="49.8975" lon="2.25294">
        <ele>47.6</ele>
        <time>2023-01-28T14:30:59Z</time>
      </trkpt>
      <trkpt lat="49.89749" lon="2.25295">
        <ele>47.6</ele>
        <time>2023-01-28T14:31:00Z</time>
      </trkpt>
      <trkpt lat="49.89749" lon="2.25296">
        <ele>47.6</ele>
        <time>2023-01-28T14:31:01Z</time>
      </trkpt>
      <trkpt lat="49.89748" lon="2.25297">
        <ele>47.6</ele>
        <time>2023-01-28T14:31:02Z</time>
      </trkpt>
      <trkpt lat="49.89748" lon="2.25298">
        <ele>47.6</ele>
        <time>2023-01-28T14:31:03Z</time>
      </trkpt>
      <trkpt lat="49.89747" lon="2.25299">
        <ele>47.6</ele>
        <time>2023-01-28T14:31:04Z</time>
      </trkpt>
      <trkpt lat="49.89747" lon="2.25299">
        <ele>47.5</ele>
        <time>2023-01-28T14:31:05Z</time>
      </trkpt>
      <trkpt lat="49.89746" lon="2.253">
        <ele>47.5</ele>
        <time>2023-01-28T14:31:06Z</time>
      </trkpt>
      <trkpt lat="49.89746" lon="2.25301">
        <ele>47.5</ele>
        <time>2023-01-28T14:31:07Z</time>
      </trkpt>
      <trkpt lat="49.89745" lon="2.25302">
        <ele>47.5</ele>
        <time>2023-01-28T14:31:08Z</time>
      </trkpt>
      <trkpt lat="49.89745" lon="2.25302">
        <ele>47.5</ele>
        <time>2023-01-28T14:31:09Z</time>
      </trkpt>
      <trkpt lat="49.89744" lon="2.25303">
        <ele>47.5</ele>
        <time>2023-01-28T14:31:10Z</time>
      </trkpt>
      <trkpt lat="49.89742" lon="2.25306">
        <ele>47.4</ele>
        <time>2023-01-28T14:31:11Z</time>
      </trkpt>
      <trkpt lat="49.89741" lon="2.25309">
        <ele>47.4</ele>
        <time>2023-01-28T14:31:12Z</time>
      </trkpt>
      <trkpt lat="49.8974" lon="2.25311">
        <ele>47.3</ele>
        <time>2023-01-28T14:31:13Z</time>
      </trkpt>
      <trkpt lat="49.89739" lon="2.25312">
        <ele>47.3</ele>
        <time>2023-01-28T14:31:15Z</time>
      </trkpt>
      <trkpt lat="49.89738" lon="2.25313">
        <ele>47.3</ele>
        <time>2023-01-28T14:31:16Z</time>
      </trkpt>
      <trkpt lat="49.89737" lon="2.25315">
        <ele>47.2</ele>
        <time>2023-01-28T14:31:18Z</time>
      </trkpt>
      <trkpt lat="49.89736" lon="2.25315">
        <ele>47.2</ele>
        <time>2023-01-28T14:31:19Z</time>
      </trkpt>
      <trkpt lat="49.89735" lon="2.25316">
        <ele>47.2</ele>
        <time>2023-01-28T14:31:20Z</time>
      </trkpt>
      <trkpt lat="49.89735" lon="2.25316">
        <ele>47.2</ele>
        <time>2023-01-28T14:31:21Z</time>
      </trkpt>
      <trkpt lat="49.89734" lon="2.25318">
        <ele>47.2</ele>
        <time>2023-01-28T14:31:23Z</time>
      </trkpt>
      <trkpt lat="49.89734" lon="2.25319">
        <ele>47.1</ele>
        <time>2023-01-28T14:31:25Z</time>
      </trkpt>
      <trkpt lat="49.89732" lon="2.25322">
        <ele>47.1</ele>
        <time>2023-01-28T14:31:26Z</time>
      </trkpt>
      <trkpt lat="49.89731" lon="2.25324">
        <ele>47</ele>
        <time>2023-01-28T14:31:27Z</time>
      </trkpt>
      <trkpt lat="49.8973" lon="2.25324">
        <ele>47</ele>
        <time>2023-01-28T14:31:29Z</time>
      </trkpt>
      <trkpt lat="49.89729" lon="2.25326">
        <ele>46.9</ele>
        <time>2023-01-28T14:31:30Z</time>
      </trkpt>
      <trkpt lat="49.89728" lon="2.25326">
        <ele>46.9</ele>
        <time>2023-01-28T14:31:32Z</time>
      </trkpt>
      <trkpt lat="49.89728" lon="2.25331">
        <ele>46.8</ele>
        <time>2023-01-28T14:31:33Z</time>
      </trkpt>
      <trkpt lat="49.89727" lon="2.25332">
        <ele>46.8</ele>
        <time>2023-01-28T14:31:34Z</time>
      </trkpt>
      <trkpt lat="49.89726" lon="2.25333">
        <ele>46.8</ele>
        <time>2023-01-28T14:31:35Z</time>
      </trkpt>
      <trkpt lat="49.89725" lon="2.25334">
        <ele>46.7</ele>
        <time>2023-01-28T14:31:37Z</time>
      </trkpt>
      <trkpt lat="49.89725" lon="2.25336">
        <ele>46.7</ele>
        <time>2023-01-28T14:31:38Z</time>
      </trkpt>
      <trkpt lat="49.89724" lon="2.25337">
        <ele>46.7</ele>
        <time>2023-01-28T14:31:39Z</time>
      </trkpt>
      <trkpt lat="49.89723" lon="2.25338">
        <ele>46.6</ele>
        <time>2023-01-28T14:31:40Z</time>
      </trkpt>
      <trkpt lat="49.89722" lon="2.25339">
        <ele>46.6</ele>
        <time>2023-01-28T14:31:42Z</time>
      </trkpt>
      <trkpt lat="49.89722" lon="2.25341">
        <ele>46.5</ele>
        <time>2023-01-28T14:31:43Z</time>
      </trkpt>
      <trkpt lat="49.89722" lon="2.25342">
        <ele>46.5</ele>
        <time>2023-01-28T14:31:44Z</time>
      </trkpt>
      <trkpt lat="49.8972" lon="2.25344">
        <ele>46.5</ele>
        <time>2023-01-28T14:31:45Z</time>
      </trkpt>
      <trkpt lat="49.8972" lon="2.25345">
        <ele>46.4</ele>
        <time>2023-01-28T14:31:47Z</time>
      </trkpt>
      <trkpt lat="49.8972" lon="2.25347">
        <ele>46.4</ele>
        <time>2023-01-28T14:31:48Z</time>
      </trkpt>
      <trkpt lat="49.8972" lon="2.25348">
        <ele>46.4</ele>
        <time>2023-01-28T14:31:49Z</time>
      </trkpt>
      <trkpt lat="49.89719" lon="2.25349">
        <ele>46.4</ele>
        <time>2023-01-28T14:31:50Z</time>
      </trkpt>
      <trkpt lat="49.89718" lon="2.2535">
        <ele>46.3</ele>
        <time>2023-01-28T14:31:52Z</time>
      </trkpt>
      <trkpt lat="49.89718" lon="2.25352">
        <ele>46.3</ele>
        <time>2023-01-28T14:31:53Z</time>
      </trkpt>
      <trkpt lat="49.89718" lon="2.25353">
        <ele>46.3</ele>
        <time>2023-01-28T14:31:54Z</time>
      </trkpt>
      <trkpt lat="49.89717" lon="2.25355">
        <ele>46.3</ele>
        <time>2023-01-28T14:31:55Z</time>
      </trkpt>
      <trkpt lat="49.89715" lon="2.25359">
        <ele>46.2</ele>
        <time>2023-01-28T14:31:57Z</time>
      </trkpt>
      <trkpt lat="49.89715" lon="2.25361">
        <ele>46.1</ele>
        <time>2023-01-28T14:31:58Z</time>
      </trkpt>
      <trkpt lat="49.89715" lon="2.25361">
        <ele>46.1</ele>
        <time>2023-01-28T14:31:59Z</time>
      </trkpt>
      <trkpt lat="49.89714" lon="2.25362">
        <ele>46.1</ele>
        <time>2023-01-28T14:32:00Z</time>
      </trkpt>
      <trkpt lat="49.89714" lon="2.25362">
        <ele>46.1</ele>
        <time>2023-01-28T14:32:02Z</time>
      </trkpt>
      <trkpt lat="49.89714" lon="2.25364">
        <ele>46.1</ele>
        <time>2023-01-28T14:32:03Z</time>
      </trkpt>
      <trkpt lat="49.89713" lon="2.25364">
        <ele>46.1</ele>
        <time>2023-01-28T14:32:05Z</time>
      </trkpt>
      <trkpt lat="49.89713" lon="2.25364">
        <ele>46.1</ele>
        <time>2023-01-28T14:32:06Z</time>
      </trkpt>
      <trkpt lat="49.89713" lon="2.25362">
        <ele>46</ele>
        <time>2023-01-28T14:32:07Z</time>
      </trkpt>
      <trkpt lat="49.89713" lon="2.25365">
        <ele>46</ele>
        <time>2023-01-28T14:32:08Z</time>
      </trkpt>
      <trkpt lat="49.89713" lon="2.25366">
        <ele>46</ele>
        <time>2023-01-28T14:32:09Z</time>
      </trkpt>
      <trkpt lat="49.89712" lon="2.25366">
        <ele>46</ele>
        <time>2023-01-28T14:32:11Z</time>
      </trkpt>
      <trkpt lat="49.89712" lon="2.2537">
        <ele>45.9</ele>
        <time>2023-01-28T14:32:13Z</time>
      </trkpt>
      <trkpt lat="49.89712" lon="2.25372">
        <ele>45.8</ele>
        <time>2023-01-28T14:32:14Z</time>
      </trkpt>
      <trkpt lat="49.89712" lon="2.25373">
        <ele>45.8</ele>
        <time>2023-01-28T14:32:15Z</time>
      </trkpt>
      <trkpt lat="49.89712" lon="2.25374">
        <ele>45.8</ele>
        <time>2023-01-28T14:32:16Z</time>
      </trkpt>
      <trkpt lat="49.89711" lon="2.25375">
        <ele>45.8</ele>
        <time>2023-01-28T14:32:17Z</time>
      </trkpt>
      <trkpt lat="49.89711" lon="2.25377">
        <ele>45.8</ele>
        <time>2023-01-28T14:32:18Z</time>
      </trkpt>
      <trkpt lat="49.8971" lon="2.25377">
        <ele>45.7</ele>
        <time>2023-01-28T14:32:20Z</time>
      </trkpt>
      <trkpt lat="49.8971" lon="2.25378">
        <ele>45.7</ele>
        <time>2023-01-28T14:32:21Z</time>
      </trkpt>
      <trkpt lat="49.8971" lon="2.25379">
        <ele>45.7</ele>
        <time>2023-01-28T14:32:22Z</time>
      </trkpt>
      <trkpt lat="49.8971" lon="2.2538">
        <ele>45.7</ele>
        <time>2023-01-28T14:32:23Z</time>
      </trkpt>
      <trkpt lat="49.89709" lon="2.25381">
        <ele>45.7</ele>
        <time>2023-01-28T14:32:24Z</time>
      </trkpt>
      <trkpt lat="49.89709" lon="2.25382">
        <ele>45.7</ele>
        <time>2023-01-28T14:32:25Z</time>
      </trkpt>
      <trkpt lat="49.89708" lon="2.25382">
        <ele>45.6</ele>
        <time>2023-01-28T14:32:26Z</time>
      </trkpt>
      <trkpt lat="49.89707" lon="2.25389">
        <ele>45.6</ele>
        <time>2023-01-28T14:32:28Z</time>
      </trkpt>
      <trkpt lat="49.89707" lon="2.25389">
        <ele>45.6</ele>
        <time>2023-01-28T14:32:29Z</time>
      </trkpt>
      <trkpt lat="49.89706" lon="2.25387">
        <ele>45.6</ele>
        <time>2023-01-28T14:32:30Z</time>
      </trkpt>
      <trkpt lat="49.89705" lon="2.25384">
        <ele>45.6</ele>
        <time>2023-01-28T14:32:32Z</time>
      </trkpt>
      <trkpt lat="49.89706" lon="2.25385">
        <ele>45.6</ele>
        <time>2023-01-28T14:32:33Z</time>
      </trkpt>
      <trkpt lat="49.89706" lon="2.25384">
        <ele>45.6</ele>
        <time>2023-01-28T14:32:35Z</time>
      </trkpt>
      <trkpt lat="49.89706" lon="2.25383">
        <ele>45.6</ele>
        <time>2023-01-28T14:32:36Z</time>
      </trkpt>
      <trkpt lat="49.89705" lon="2.25379">
        <ele>45.6</ele>
        <time>2023-01-28T14:32:37Z</time>
      </trkpt>
      <trkpt lat="49.89705" lon="2.2538">
        <ele>45.6</ele>
        <time>2023-01-28T14:32:39Z</time>
      </trkpt>
      <trkpt lat="49.89705" lon="2.25378">
        <ele>45.5</ele>
        <time>2023-01-28T14:32:41Z</time>
      </trkpt>
      <trkpt lat="49.89705" lon="2.25378">
        <ele>45.5</ele>
        <time>2023-01-28T14:32:42Z</time>
      </trkpt>
      <trkpt lat="49.89705" lon="2.25378">
        <ele>45.5</ele>
        <time>2023-01-28T14:32:43Z</time>
      </trkpt>
      <trkpt lat="49.89705" lon="2.25378">
        <ele>45.5</ele>
        <time>2023-01-28T14:32:45Z</time>
      </trkpt>
      <trkpt lat="49.89705" lon="2.25377">
        <ele>45.5</ele>
        <time>2023-01-28T14:32:46Z</time>
      </trkpt>
      <trkpt lat="49.89705" lon="2.25376">
        <ele>45.5</ele>
        <time>2023-01-28T14:32:47Z</time>
      </trkpt>
      <trkpt lat="49.89705" lon="2.25369">
        <ele>45.5</ele>
        <time>2023-01-28T14:32:49Z</time>
      </trkpt>
      <trkpt lat="49.89705" lon="2.25369">
        <ele>45.5</ele>
        <time>2023-01-28T14:32:50Z</time>
      </trkpt>
      <trkpt lat="49.89705" lon="2.25369">
        <ele>45.5</ele>
        <time>2023-01-28T14:32:51Z</time>
      </trkpt>
      <trkpt lat="49.89705" lon="2.25369">
        <ele>45.5</ele>
        <time>2023-01-28T14:32:52Z</time>
      </trkpt>
      <trkpt lat="49.89705" lon="2.25369">
        <ele>45.5</ele>
        <time>2023-01-28T14:32:53Z</time>
      </trkpt>
      <trkpt lat="49.89705" lon="2.25369">
        <ele>45.5</ele>
        <time>2023-01-28T14:32:54Z</time>
      </trkpt>
      <trkpt lat="49.89705" lon="2.25369">
        <ele>45.5</ele>
        <time>2023-01-28T14:32:55Z</time>
      </trkpt>
      <trkpt lat="49.89705" lon="2.25369">
        <ele>45.5</ele>
        <time>2023-01-28T14:32:56Z</time>
      </trkpt>
      <trkpt lat="49.89705" lon="2.25369">
        <ele>45.5</ele>
        <time>2023-01-28T14:32:57Z</time>
      </trkpt>
      <trkpt lat="49.89705" lon="2.25369">
        <ele>45.5</ele>
        <time>2023-01-28T14:32:58Z</time>
      </trkpt>
      <trkpt lat="49.89705" lon="2.25369">
        <ele>45.5</ele>
        <time>2023-01-28T14:32:59Z</time>
      </trkpt>
      <trkpt lat="49.89705" lon="2.25369">
        <ele>45.5</ele>
        <time>2023-01-28T14:33:00Z</time>
      </trkpt>
      <trkpt lat="49.89705" lon="2.25369">
        <ele>45.5</ele>
        <time>2023-01-28T14:33:01Z</time>
      </trkpt>
      <trkpt lat="49.89705" lon="2.25369">
        <ele>45.5</ele>
        <time>2023-01-28T14:33:02Z</time>
      </trkpt>
      <trkpt lat="49.89705" lon="2.25369">
        <ele>45.5</ele>
        <time>2023-01-28T14:33:03Z</time>
      </trkpt>
      <trkpt lat="49.89705" lon="2.25369">
        <ele>45.5</ele>
        <time>2023-01-28T14:33:04Z</time>
      </trkpt>
      <trkpt lat="49.89705" lon="2.25369">
        <ele>45.5</ele>
        <time>2023-01-28T14:33:05Z</time>
      </trkpt>
      <trkpt lat="49.89705" lon="2.25369">
        <ele>45.5</ele>
        <time>2023-01-28T14:33:06Z</time>
      </trkpt>
      <trkpt lat="49.89705" lon="2.25369">
        <ele>45.5</ele>
        <time>2023-01-28T14:33:07Z</time>
      </trkpt>
      <trkpt lat="49.89705" lon="2.25369">
        <ele>45.5</ele>
        <time>2023-01-28T14:33:08Z</time>
      </trkpt>
      <trkpt lat="49.89705" lon="2.25369">
        <ele>45.5</ele>
        <time>2023-01-28T14:33:09Z</time>
      </trkpt>
      <trkpt lat="49.89705" lon="2.25369">
        <ele>45.5</ele>
        <time>2023-01-28T14:33:10Z</time>
      </trkpt>
      <trkpt lat="49.89705" lon="2.25369">
        <ele>45.5</ele>
        <time>2023-01-28T14:33:11Z</time>
      </trkpt>
      <trkpt lat="49.89705" lon="2.25369">
        <ele>45.5</ele>
        <time>2023-01-28T14:33:12Z</time>
      </trkpt>
      <trkpt lat="49.89705" lon="2.25369">
        <ele>45.5</ele>
        <time>2023-01-28T14:33:13Z</time>
      </trkpt>
      <trkpt lat="49.89705" lon="2.25369">
        <ele>45.5</ele>
        <time>2023-01-28T14:33:14Z</time>
      </trkpt>
      <trkpt lat="49.89705" lon="2.25369">
        <ele>45.5</ele>
        <time>2023-01-28T14:33:15Z</time>
      </trkpt>
      <trkpt lat="49.89705" lon="2.25369">
        <ele>45.5</ele>
        <time>2023-01-28T14:33:16Z</time>
      </trkpt>
      <trkpt lat="49.89705" lon="2.25369">
        <ele>45.5</ele>
        <time>2023-01-28T14:33:17Z</time>
      </trkpt>
      <trkpt lat="49.89705" lon="2.25369">
        <ele>45.5</ele>
        <time>2023-01-28T14:33:18Z</time>
      </trkpt>
      <trkpt lat="49.89705" lon="2.25369">
        <ele>45.5</ele>
        <time>2023-01-28T14:33:19Z</time>
      </trkpt>
      <trkpt lat="49.89705" lon="2.25369">
        <ele>45.5</ele>
        <time>2023-01-28T14:33:20Z</time>
      </trkpt>
      <trkpt lat="49.89705" lon="2.25369">
        <ele>45.5</ele>
        <time>2023-01-28T14:33:21Z</time>
      </trkpt>
      <trkpt lat="49.89705" lon="2.25369">
        <ele>45.5</ele>
        <time>2023-01-28T14:33:22Z</time>
      </trkpt>
      <trkpt lat="49.89705" lon="2.25369">
        <ele>45.5</ele>
        <time>2023-01-28T14:33:23Z</time>
      </trkpt>
      <trkpt lat="49.89705" lon="2.25369">
        <ele>45.5</ele>
        <time>2023-01-28T14:33:24Z</time>
      </trkpt>
      <trkpt lat="49.89705" lon="2.25369">
        <ele>45.5</ele>
        <time>2023-01-28T14:33:25Z</time>
      </trkpt>
      <trkpt lat="49.89705" lon="2.25369">
        <ele>45.5</ele>
        <time>2023-01-28T14:33:26Z</time>
      </trkpt>
      <trkpt lat="49.89705" lon="2.25369">
        <ele>45.5</ele>
        <time>2023-01-28T14:33:27Z</time>
      </trkpt>
      <trkpt lat="49.89707" lon="2.25368">
        <ele>45.5</ele>
        <time>2023-01-28T14:33:28Z</time>
      </trkpt>
      <trkpt lat="49.89707" lon="2.25369">
        <ele>45.5</ele>
        <time>2023-01-28T14:33:29Z</time>
      </trkpt>
      <trkpt lat="49.89707" lon="2.25369">
        <ele>45.5</ele>
        <time>2023-01-28T14:33:30Z</time>
      </trkpt>
      <trkpt lat="49.89707" lon="2.25369">
        <ele>45.5</ele>
        <time>2023-01-28T14:33:31Z</time>
      </trkpt>
      <trkpt lat="49.89706" lon="2.25369">
        <ele>45.5</ele>
        <time>2023-01-28T14:33:32Z</time>
      </trkpt>
      <trkpt lat="49.89706" lon="2.25369">
        <ele>45.5</ele>
        <time>2023-01-28T14:33:33Z</time>
      </trkpt>
      <trkpt lat="49.89705" lon="2.25369">
        <ele>45.5</ele>
        <time>2023-01-28T14:33:34Z</time>
      </trkpt>
      <trkpt lat="49.89705" lon="2.25369">
        <ele>45.5</ele>
        <time>2023-01-28T14:33:35Z</time>
      </trkpt>
      <trkpt lat="49.89705" lon="2.25369">
        <ele>45.5</ele>
        <time>2023-01-28T14:33:36Z</time>
      </trkpt>
      <trkpt lat="49.89705" lon="2.25369">
        <ele>45.5</ele>
        <time>2023-01-28T14:33:37Z</time>
      </trkpt>
      <trkpt lat="49.89706" lon="2.25369">
        <ele>45.5</ele>
        <time>2023-01-28T14:33:38Z</time>
      </trkpt>
      <trkpt lat="49.89706" lon="2.25369">
        <ele>45.5</ele>
        <time>2023-01-28T14:33:39Z</time>
      </trkpt>
      <trkpt lat="49.89706" lon="2.25369">
        <ele>45.5</ele>
        <time>2023-01-28T14:33:40Z</time>
      </trkpt>
      <trkpt lat="49.89706" lon="2.25369">
        <ele>45.5</ele>
        <time>2023-01-28T14:33:41Z</time>
      </trkpt>
      <trkpt lat="49.89706" lon="2.25369">
        <ele>45.5</ele>
        <time>2023-01-28T14:33:42Z</time>
      </trkpt>
      <trkpt lat="49.89706" lon="2.25369">
        <ele>45.5</ele>
        <time>2023-01-28T14:33:43Z</time>
      </trkpt>
      <trkpt lat="49.89706" lon="2.25369">
        <ele>45.5</ele>
        <time>2023-01-28T14:33:44Z</time>
      </trkpt>
      <trkpt lat="49.89706" lon="2.25369">
        <ele>45.5</ele>
        <time>2023-01-28T14:33:45Z</time>
      </trkpt>
      <trkpt lat="49.89706" lon="2.25369">
        <ele>45.5</ele>
        <time>2023-01-28T14:33:46Z</time>
      </trkpt>
      <trkpt lat="49.89706" lon="2.25369">
        <ele>45.5</ele>
        <time>2023-01-28T14:33:47Z</time>
      </trkpt>
      <trkpt lat="49.89706" lon="2.25369">
        <ele>45.5</ele>
        <time>2023-01-28T14:33:48Z</time>
      </trkpt>
      <trkpt lat="49.89706" lon="2.25369">
        <ele>45.5</ele>
        <time>2023-01-28T14:33:49Z</time>
      </trkpt>
      <trkpt lat="49.89706" lon="2.25369">
        <ele>45.5</ele>
        <time>2023-01-28T14:33:50Z</time>
      </trkpt>
      <trkpt lat="49.89706" lon="2.25369">
        <ele>45.5</ele>
        <time>2023-01-28T14:33:51Z</time>
      </trkpt>
      <trkpt lat="49.89706" lon="2.25369">
        <ele>45.5</ele>
        <time>2023-01-28T14:33:52Z</time>
      </trkpt>
      <trkpt lat="49.89706" lon="2.25369">
        <ele>45.5</ele>
        <time>2023-01-28T14:33:53Z</time>
      </trkpt>
      <trkpt lat="49.89706" lon="2.25369">
        <ele>45.5</ele>
        <time>2023-01-28T14:33:54Z</time>
      </trkpt>
      <trkpt lat="49.89706" lon="2.25369">
        <ele>45.5</ele>
        <time>2023-01-28T14:33:55Z</time>
      </trkpt>
      <trkpt lat="49.89706" lon="2.25369">
        <ele>45.5</ele>
        <time>2023-01-28T14:33:56Z</time>
      </trkpt>
      <trkpt lat="49.89706" lon="2.25369">
        <ele>45.5</ele>
        <time>2023-01-28T14:33:57Z</time>
      </trkpt>
      <trkpt lat="49.89706" lon="2.25369">
        <ele>45.5</ele>
        <time>2023-01-28T14:33:58Z</time>
      </trkpt>
      <trkpt lat="49.89706" lon="2.25369">
        <ele>45.5</ele>
        <time>2023-01-28T14:33:59Z</time>
      </trkpt>
      <trkpt lat="49.89706" lon="2.25369">
        <ele>45.5</ele>
        <time>2023-01-28T14:34:00Z</time>
      </trkpt>
      <trkpt lat="49.89706" lon="2.25369">
        <ele>45.5</ele>
        <time>2023-01-28T14:34:01Z</time>
      </trkpt>
      <trkpt lat="49.89706" lon="2.25369">
        <ele>45.5</ele>
        <time>2023-01-28T14:34:02Z</time>
      </trkpt>
      <trkpt lat="49.89706" lon="2.25369">
        <ele>45.5</ele>
        <time>2023-01-28T14:34:03Z</time>
      </trkpt>
      <trkpt lat="49.89706" lon="2.25369">
        <ele>45.5</ele>
        <time>2023-01-28T14:34:04Z</time>
      </trkpt>
      <trkpt lat="49.89706" lon="2.25369">
        <ele>45.5</ele>
        <time>2023-01-28T14:34:05Z</time>
      </trkpt>
      <trkpt lat="49.89706" lon="2.25369">
        <ele>45.5</ele>
        <time>2023-01-28T14:34:06Z</time>
      </trkpt>
      <trkpt lat="49.89706" lon="2.25369">
        <ele>45.5</ele>
        <time>2023-01-28T14:34:07Z</time>
      </trkpt>
      <trkpt lat="49.89706" lon="2.25369">
        <ele>45.5</ele>
        <time>2023-01-28T14:34:08Z</time>
      </trkpt>
      <trkpt lat="49.89706" lon="2.25369">
        <ele>45.5</ele>
        <time>2023-01-28T14:34:09Z</time>
      </trkpt>
      <trkpt lat="49.89706" lon="2.25369">
        <ele>45.5</ele>
        <time>2023-01-28T14:34:10Z</time>
      </trkpt>
      <trkpt lat="49.89706" lon="2.25369">
        <ele>45.5</ele>
        <time>2023-01-28T14:34:11Z</time>
      </trkpt>
      <trkpt lat="49.89706" lon="2.25369">
        <ele>45.5</ele>
        <time>2023-01-28T14:34:12Z</time>
      </trkpt>
      <trkpt lat="49.89706" lon="2.25369">
        <ele>45.5</ele>
        <time>2023-01-28T14:34:13Z</time>
      </trkpt>
      <trkpt lat="49.89706" lon="2.25369">
        <ele>45.5</ele>
        <time>2023-01-28T14:34:14Z</time>
      </trkpt>
      <trkpt lat="49.89706" lon="2.25369">
        <ele>45.5</ele>
        <time>2023-01-28T14:34:15Z</time>
      </trkpt>
      <trkpt lat="49.89706" lon="2.25369">
        <ele>45.5</ele>
        <time>2023-01-28T14:34:16Z</time>
      </trkpt>
      <trkpt lat="49.89706" lon="2.25369">
        <ele>45.5</ele>
        <time>2023-01-28T14:34:17Z</time>
      </trkpt>
      <trkpt lat="49.89706" lon="2.25369">
        <ele>45.5</ele>
        <time>2023-01-28T14:34:18Z</time>
      </trkpt>
      <trkpt lat="49.89706" lon="2.25369">
        <ele>45.5</ele>
        <time>2023-01-28T14:34:19Z</time>
      </trkpt>
      <trkpt lat="49.89706" lon="2.25369">
        <ele>45.5</ele>
        <time>2023-01-28T14:34:20Z</time>
      </trkpt>
      <trkpt lat="49.89706" lon="2.25369">
        <ele>45.5</ele>
        <time>2023-01-28T14:34:21Z</time>
      </trkpt>
      <trkpt lat="49.89706" lon="2.25369">
        <ele>45.5</ele>
        <time>2023-01-28T14:34:22Z</time>
      </trkpt>
      <trkpt lat="49.89706" lon="2.25369">
        <ele>45.5</ele>
        <time>2023-01-28T14:34:23Z</time>
      </trkpt>
      <trkpt lat="49.89706" lon="2.25369">
        <ele>45.5</ele>
        <time>2023-01-28T14:34:24Z</time>
      </trkpt>
      <trkpt lat="49.89706" lon="2.25369">
        <ele>45.5</ele>
        <time>2023-01-28T14:34:25Z</time>
      </trkpt>
      <trkpt lat="49.89706" lon="2.25369">
        <ele>45.5</ele>
        <time>2023-01-28T14:34:26Z</time>
      </trkpt>
      <trkpt lat="49.89706" lon="2.25369">
        <ele>45.5</ele>
        <time>2023-01-28T14:34:27Z</time>
      </trkpt>
      <trkpt lat="49.89706" lon="2.25369">
        <ele>45.5</ele>
        <time>2023-01-28T14:34:28Z</time>
      </trkpt>
      <trkpt lat="49.89706" lon="2.25369">
        <ele>45.5</ele>
        <time>2023-01-28T14:34:29Z</time>
      </trkpt>
      <trkpt lat="49.89706" lon="2.25369">
        <ele>45.5</ele>
        <time>2023-01-28T14:34:30Z</time>
      </trkpt>
      <trkpt lat="49.89706" lon="2.25369">
        <ele>45.5</ele>
        <time>2023-01-28T14:34:31Z</time>
      </trkpt>
      <trkpt lat="49.89706" lon="2.25369">
        <ele>45.5</ele>
        <time>2023-01-28T14:34:32Z</time>
      </trkpt>
      <trkpt lat="49.89706" lon="2.25369">
        <ele>45.5</ele>
        <time>2023-01-28T14:34:33Z</time>
      </trkpt>
      <trkpt lat="49.89706" lon="2.25369">
        <ele>45.5</ele>
        <time>2023-01-28T14:34:34Z</time>
      </trkpt>
      <trkpt lat="49.89706" lon="2.25368">
        <ele>45.5</ele>
        <time>2023-01-28T14:34:35Z</time>
      </trkpt>
      <trkpt lat="49.89707" lon="2.25368">
        <ele>45.5</ele>
        <time>2023-01-28T14:34:36Z</time>
      </trkpt>
      <trkpt lat="49.89707" lon="2.25367">
        <ele>45.5</ele>
        <time>2023-01-28T14:34:37Z</time>
      </trkpt>
      <trkpt lat="49.89706" lon="2.25367">
        <ele>45.5</ele>
        <time>2023-01-28T14:34:38Z</time>
      </trkpt>
      <trkpt lat="49.89705" lon="2.25368">
        <ele>45.5</ele>
        <time>2023-01-28T14:34:39Z</time>
      </trkpt>
      <trkpt lat="49.89705" lon="2.25367">
        <ele>45.5</ele>
        <time>2023-01-28T14:34:40Z</time>
      </trkpt>
      <trkpt lat="49.89705" lon="2.25366">
        <ele>45.4</ele>
        <time>2023-01-28T14:34:41Z</time>
      </trkpt>
      <trkpt lat="49.89704" lon="2.25365">
        <ele>45.4</ele>
        <time>2023-01-28T14:34:42Z</time>
      </trkpt>
      <trkpt lat="49.89703" lon="2.25364">
        <ele>45.4</ele>
        <time>2023-01-28T14:34:44Z</time>
      </trkpt>
      <trkpt lat="49.89703" lon="2.25363">
        <ele>45.4</ele>
        <time>2023-01-28T14:34:45Z</time>
      </trkpt>
      <trkpt lat="49.89702" lon="2.25361">
        <ele>45.4</ele>
        <time>2023-01-28T14:34:46Z</time>
      </trkpt>
      <trkpt lat="49.89702" lon="2.2536">
        <ele>45.4</ele>
        <time>2023-01-28T14:34:47Z</time>
      </trkpt>
      <trkpt lat="49.897" lon="2.25363">
        <ele>45.4</ele>
        <time>2023-01-28T14:34:49Z</time>
      </trkpt>
      <trkpt lat="49.89699" lon="2.25361">
        <ele>45.4</ele>
        <time>2023-01-28T14:34:50Z</time>
      </trkpt>
      <trkpt lat="49.89699" lon="2.25359">
        <ele>45.4</ele>
        <time>2023-01-28T14:34:51Z</time>
      </trkpt>
      <trkpt lat="49.89698" lon="2.25357">
        <ele>45.4</ele>
        <time>2023-01-28T14:34:52Z</time>
      </trkpt>
      <trkpt lat="49.89696" lon="2.25357">
        <ele>45.4</ele>
        <time>2023-01-28T14:34:54Z</time>
      </trkpt>
      <trkpt lat="49.89696" lon="2.25358">
        <ele>45.4</ele>
        <time>2023-01-28T14:34:55Z</time>
      </trkpt>
      <trkpt lat="49.89695" lon="2.25355">
        <ele>45.3</ele>
        <time>2023-01-28T14:34:56Z</time>
      </trkpt>
      <trkpt lat="49.89695" lon="2.25352">
        <ele>45.3</ele>
        <time>2023-01-28T14:34:58Z</time>
      </trkpt>
      <trkpt lat="49.89695" lon="2.2535">
        <ele>45.3</ele>
        <time>2023-01-28T14:34:59Z</time>
      </trkpt>
      <trkpt lat="49.89694" lon="2.2535">
        <ele>45.3</ele>
        <time>2023-01-28T14:35:00Z</time>
      </trkpt>
      <trkpt lat="49.89694" lon="2.25348">
        <ele>45.3</ele>
        <time>2023-01-28T14:35:01Z</time>
      </trkpt>
      <trkpt lat="49.89694" lon="2.25346">
        <ele>45.3</ele>
        <time>2023-01-28T14:35:02Z</time>
      </trkpt>
      <trkpt lat="49.89695" lon="2.25342">
        <ele>45.4</ele>
        <time>2023-01-28T14:35:04Z</time>
      </trkpt>
      <trkpt lat="49.89694" lon="2.25341">
        <ele>45.4</ele>
        <time>2023-01-28T14:35:05Z</time>
      </trkpt>
      <trkpt lat="49.89695" lon="2.25339">
        <ele>45.5</ele>
        <time>2023-01-28T14:35:06Z</time>
      </trkpt>
      <trkpt lat="49.89695" lon="2.25337">
        <ele>45.5</ele>
        <time>2023-01-28T14:35:07Z</time>
      </trkpt>
      <trkpt lat="49.89696" lon="2.25335">
        <ele>45.7</ele>
        <time>2023-01-28T14:35:08Z</time>
      </trkpt>
      <trkpt lat="49.89696" lon="2.25333">
        <ele>45.7</ele>
        <time>2023-01-28T14:35:09Z</time>
      </trkpt>
      <trkpt lat="49.89696" lon="2.25332">
        <ele>45.7</ele>
        <time>2023-01-28T14:35:10Z</time>
      </trkpt>
      <trkpt lat="49.89696" lon="2.25331">
        <ele>45.7</ele>
        <time>2023-01-28T14:35:12Z</time>
      </trkpt>
      <trkpt lat="49.89695" lon="2.2533">
        <ele>45.7</ele>
        <time>2023-01-28T14:35:13Z</time>
      </trkpt>
      <trkpt lat="49.89694" lon="2.25329">
        <ele>45.7</ele>
        <time>2023-01-28T14:35:14Z</time>
      </trkpt>
      <trkpt lat="49.89694" lon="2.25329">
        <ele>45.7</ele>
        <time>2023-01-28T14:35:15Z</time>
      </trkpt>
      <trkpt lat="49.89694" lon="2.25327">
        <ele>45.7</ele>
        <time>2023-01-28T14:35:16Z</time>
      </trkpt>
      <trkpt lat="49.89694" lon="2.25326">
        <ele>45.8</ele>
        <time>2023-01-28T14:35:18Z</time>
      </trkpt>
      <trkpt lat="49.89694" lon="2.25325">
        <ele>45.8</ele>
        <time>2023-01-28T14:35:19Z</time>
      </trkpt>
      <trkpt lat="49.89694" lon="2.25325">
        <ele>45.8</ele>
        <time>2023-01-28T14:35:20Z</time>
      </trkpt>
      <trkpt lat="49.89694" lon="2.25324">
        <ele>45.8</ele>
        <time>2023-01-28T14:35:21Z</time>
      </trkpt>
      <trkpt lat="49.89693" lon="2.25323">
        <ele>45.9</ele>
        <time>2023-01-28T14:35:22Z</time>
      </trkpt>
      <trkpt lat="49.89692" lon="2.25322">
        <ele>45.8</ele>
        <time>2023-01-28T14:35:23Z</time>
      </trkpt>
      <trkpt lat="49.89692" lon="2.2532">
        <ele>45.8</ele>
        <time>2023-01-28T14:35:24Z</time>
      </trkpt>
      <trkpt lat="49.89692" lon="2.25319">
        <ele>45.8</ele>
        <time>2023-01-28T14:35:25Z</time>
      </trkpt>
      <trkpt lat="49.89691" lon="2.25319">
        <ele>45.8</ele>
        <time>2023-01-28T14:35:27Z</time>
      </trkpt>
      <trkpt lat="49.89691" lon="2.25318">
        <ele>45.9</ele>
        <time>2023-01-28T14:35:28Z</time>
      </trkpt>
      <trkpt lat="49.8969" lon="2.25317">
        <ele>45.8</ele>
        <time>2023-01-28T14:35:29Z</time>
      </trkpt>
      <trkpt lat="49.8969" lon="2.25316">
        <ele>45.8</ele>
        <time>2023-01-28T14:35:30Z</time>
      </trkpt>
      <trkpt lat="49.89689" lon="2.25314">
        <ele>45.9</ele>
        <time>2023-01-28T14:35:32Z</time>
      </trkpt>
      <trkpt lat="49.8969" lon="2.25311">
        <ele>45.9</ele>
        <time>2023-01-28T14:35:34Z</time>
      </trkpt>
      <trkpt lat="49.8969" lon="2.25311">
        <ele>45.9</ele>
        <time>2023-01-28T14:35:35Z</time>
      </trkpt>
      <trkpt lat="49.8969" lon="2.25309">
        <ele>46</ele>
        <time>2023-01-28T14:35:36Z</time>
      </trkpt>
      <trkpt lat="49.8969" lon="2.25308">
        <ele>46</ele>
        <time>2023-01-28T14:35:37Z</time>
      </trkpt>
      <trkpt lat="49.8969" lon="2.25306">
        <ele>46</ele>
        <time>2023-01-28T14:35:38Z</time>
      </trkpt>
      <trkpt lat="49.89692" lon="2.25304">
        <ele>46.1</ele>
        <time>2023-01-28T14:35:40Z</time>
      </trkpt>
      <trkpt lat="49.89693" lon="2.25303">
        <ele>46.2</ele>
        <time>2023-01-28T14:35:42Z</time>
      </trkpt>
      <trkpt lat="49.89694" lon="2.25303">
        <ele>46.2</ele>
        <time>2023-01-28T14:35:43Z</time>
      </trkpt>
      <trkpt lat="49.89695" lon="2.25303">
        <ele>46.2</ele>
        <time>2023-01-28T14:35:44Z</time>
      </trkpt>
      <trkpt lat="49.89696" lon="2.25302">
        <ele>46.3</ele>
        <time>2023-01-28T14:35:45Z</time>
      </trkpt>
      <trkpt lat="49.89697" lon="2.25302">
        <ele>46.3</ele>
        <time>2023-01-28T14:35:46Z</time>
      </trkpt>
      <trkpt lat="49.89697" lon="2.25303">
        <ele>46.3</ele>
        <time>2023-01-28T14:35:47Z</time>
      </trkpt>
      <trkpt lat="49.89697" lon="2.25302">
        <ele>46.3</ele>
        <time>2023-01-28T14:35:48Z</time>
      </trkpt>
      <trkpt lat="49.89698" lon="2.25302">
        <ele>46.3</ele>
        <time>2023-01-28T14:35:50Z</time>
      </trkpt>
      <trkpt lat="49.89699" lon="2.25302">
        <ele>46.4</ele>
        <time>2023-01-28T14:35:51Z</time>
      </trkpt>
      <trkpt lat="49.897" lon="2.25302">
        <ele>46.4</ele>
        <time>2023-01-28T14:35:52Z</time>
      </trkpt>
      <trkpt lat="49.897" lon="2.25301">
        <ele>46.5</ele>
        <time>2023-01-28T14:35:53Z</time>
      </trkpt>
      <trkpt lat="49.89702" lon="2.25302">
        <ele>46.5</ele>
        <time>2023-01-28T14:35:54Z</time>
      </trkpt>
      <trkpt lat="49.89703" lon="2.25304">
        <ele>46.5</ele>
        <time>2023-01-28T14:35:55Z</time>
      </trkpt>
      <trkpt lat="49.89704" lon="2.25304">
        <ele>46.5</ele>
        <time>2023-01-28T14:35:56Z</time>
      </trkpt>
      <trkpt lat="49.89704" lon="2.25303">
        <ele>46.6</ele>
        <time>2023-01-28T14:35:57Z</time>
      </trkpt>
      <trkpt lat="49.89705" lon="2.25301">
        <ele>46.7</ele>
        <time>2023-01-28T14:35:58Z</time>
      </trkpt>
      <trkpt lat="49.89706" lon="2.25304">
        <ele>46.6</ele>
        <time>2023-01-28T14:35:59Z</time>
      </trkpt>
      <trkpt lat="49.89707" lon="2.25305">
        <ele>46.7</ele>
        <time>2023-01-28T14:36:01Z</time>
      </trkpt>
      <trkpt lat="49.89708" lon="2.25304">
        <ele>46.7</ele>
        <time>2023-01-28T14:36:02Z</time>
      </trkpt>
      <trkpt lat="49.89708" lon="2.253">
        <ele>46.7</ele>
        <time>2023-01-28T14:36:03Z</time>
      </trkpt>
      <trkpt lat="49.89711" lon="2.25304">
        <ele>46.7</ele>
        <time>2023-01-28T14:36:04Z</time>
      </trkpt>
      <trkpt lat="49.89712" lon="2.25302">
        <ele>46.7</ele>
        <time>2023-01-28T14:36:06Z</time>
      </trkpt>
      <trkpt lat="49.89712" lon="2.25301">
        <ele>46.9</ele>
        <time>2023-01-28T14:36:07Z</time>
      </trkpt>
      <trkpt lat="49.89713" lon="2.253">
        <ele>46.9</ele>
        <time>2023-01-28T14:36:08Z</time>
      </trkpt>
      <trkpt lat="49.89713" lon="2.25299">
        <ele>46.9</ele>
        <time>2023-01-28T14:36:09Z</time>
      </trkpt>
      <trkpt lat="49.89715" lon="2.25299">
        <ele>46.9</ele>
        <time>2023-01-28T14:36:10Z</time>
      </trkpt>
      <trkpt lat="49.89715" lon="2.25298">
        <ele>46.9</ele>
        <time>2023-01-28T14:36:11Z</time>
      </trkpt>
      <trkpt lat="49.89716" lon="2.25296">
        <ele>47</ele>
        <time>2023-01-28T14:36:12Z</time>
      </trkpt>
      <trkpt lat="49.89717" lon="2.25294">
        <ele>47</ele>
        <time>2023-01-28T14:36:14Z</time>
      </trkpt>
      <trkpt lat="49.89718" lon="2.25294">
        <ele>47</ele>
        <time>2023-01-28T14:36:15Z</time>
      </trkpt>
      <trkpt lat="49.89718" lon="2.25292">
        <ele>47.2</ele>
        <time>2023-01-28T14:36:16Z</time>
      </trkpt>
      <trkpt lat="49.89718" lon="2.2529">
        <ele>47.2</ele>
        <time>2023-01-28T14:36:17Z</time>
      </trkpt>
      <trkpt lat="49.89718" lon="2.25285">
        <ele>47.3</ele>
        <time>2023-01-28T14:36:18Z</time>
      </trkpt>
      <trkpt lat="49.89719" lon="2.25284">
        <ele>47.3</ele>
        <time>2023-01-28T14:36:19Z</time>
      </trkpt>
      <trkpt lat="49.89719" lon="2.25283">
        <ele>47.3</ele>
        <time>2023-01-28T14:36:21Z</time>
      </trkpt>
      <trkpt lat="49.8972" lon="2.25282">
        <ele>47.3</ele>
        <time>2023-01-28T14:36:22Z</time>
      </trkpt>
      <trkpt lat="49.8972" lon="2.25281">
        <ele>47.3</ele>
        <time>2023-01-28T14:36:23Z</time>
      </trkpt>
      <trkpt lat="49.89721" lon="2.2528">
        <ele>47.3</ele>
        <time>2023-01-28T14:36:24Z</time>
      </trkpt>
      <trkpt lat="49.89721" lon="2.25279">
        <ele>47.5</ele>
        <time>2023-01-28T14:36:25Z</time>
      </trkpt>
      <trkpt lat="49.8972" lon="2.25278">
        <ele>47.4</ele>
        <time>2023-01-28T14:36:27Z</time>
      </trkpt>
      <trkpt lat="49.89719" lon="2.25278">
        <ele>47.4</ele>
        <time>2023-01-28T14:36:28Z</time>
      </trkpt>
      <trkpt lat="49.89719" lon="2.25277">
        <ele>47.4</ele>
        <time>2023-01-28T14:36:29Z</time>
      </trkpt>
      <trkpt lat="49.89719" lon="2.25277">
        <ele>47.4</ele>
        <time>2023-01-28T14:36:30Z</time>
      </trkpt>
      <trkpt lat="49.89719" lon="2.25276">
        <ele>47.4</ele>
        <time>2023-01-28T14:36:31Z</time>
      </trkpt>
      <trkpt lat="49.8972" lon="2.25275">
        <ele>47.5</ele>
        <time>2023-01-28T14:36:32Z</time>
      </trkpt>
      <trkpt lat="49.8972" lon="2.25273">
        <ele>47.5</ele>
        <time>2023-01-28T14:36:34Z</time>
      </trkpt>
      <trkpt lat="49.8972" lon="2.25272">
        <ele>47.5</ele>
        <time>2023-01-28T14:36:36Z</time>
      </trkpt>
      <trkpt lat="49.8972" lon="2.25271">
        <ele>47.6</ele>
        <time>2023-01-28T14:36:37Z</time>
      </trkpt>
      <trkpt lat="49.89721" lon="2.2527">
        <ele>47.7</ele>
        <time>2023-01-28T14:36:38Z</time>
      </trkpt>
      <trkpt lat="49.89721" lon="2.25268">
        <ele>47.7</ele>
        <time>2023-01-28T14:36:40Z</time>
      </trkpt>
      <trkpt lat="49.89722" lon="2.25267">
        <ele>47.7</ele>
        <time>2023-01-28T14:36:42Z</time>
      </trkpt>
      <trkpt lat="49.89722" lon="2.25267">
        <ele>47.8</ele>
        <time>2023-01-28T14:36:43Z</time>
      </trkpt>
      <trkpt lat="49.89722" lon="2.25266">
        <ele>47.8</ele>
        <time>2023-01-28T14:36:44Z</time>
      </trkpt>
      <trkpt lat="49.89723" lon="2.25265">
        <ele>47.8</ele>
        <time>2023-01-28T14:36:45Z</time>
      </trkpt>
      <trkpt lat="49.89725" lon="2.25264">
        <ele>47.8</ele>
        <time>2023-01-28T14:36:46Z</time>
      </trkpt>
      <trkpt lat="49.89726" lon="2.25264">
        <ele>47.8</ele>
        <time>2023-01-28T14:36:48Z</time>
      </trkpt>
      <trkpt lat="49.89727" lon="2.25264">
        <ele>47.9</ele>
        <time>2023-01-28T14:36:49Z</time>
      </trkpt>
      <trkpt lat="49.89728" lon="2.25264">
        <ele>47.9</ele>
        <time>2023-01-28T14:36:50Z</time>
      </trkpt>
      <trkpt lat="49.89729" lon="2.25264">
        <ele>47.9</ele>
        <time>2023-01-28T14:36:52Z</time>
      </trkpt>
      <trkpt lat="49.89731" lon="2.25263">
        <ele>47.9</ele>
        <time>2023-01-28T14:36:54Z</time>
      </trkpt>
      <trkpt lat="49.89732" lon="2.25265">
        <ele>47.9</ele>
        <time>2023-01-28T14:36:55Z</time>
      </trkpt>
      <trkpt lat="49.89733" lon="2.25265">
        <ele>47.9</ele>
        <time>2023-01-28T14:36:56Z</time>
      </trkpt>
      <trkpt lat="49.89734" lon="2.25265">
        <ele>48</ele>
        <time>2023-01-28T14:36:57Z</time>
      </trkpt>
      <trkpt lat="49.89736" lon="2.25265">
        <ele>48</ele>
        <time>2023-01-28T14:36:58Z</time>
      </trkpt>
      <trkpt lat="49.89737" lon="2.25265">
        <ele>48</ele>
        <time>2023-01-28T14:37:00Z</time>
      </trkpt>
      <trkpt lat="49.89738" lon="2.25265">
        <ele>48</ele>
        <time>2023-01-28T14:37:01Z</time>
      </trkpt>
      <trkpt lat="49.89739" lon="2.25265">
        <ele>48</ele>
        <time>2023-01-28T14:37:02Z</time>
      </trkpt>
      <trkpt lat="49.8974" lon="2.25264">
        <ele>48</ele>
        <time>2023-01-28T14:37:03Z</time>
      </trkpt>
      <trkpt lat="49.89741" lon="2.25264">
        <ele>48</ele>
        <time>2023-01-28T14:37:05Z</time>
      </trkpt>
      <trkpt lat="49.89741" lon="2.25264">
        <ele>48.1</ele>
        <time>2023-01-28T14:37:06Z</time>
      </trkpt>
      <trkpt lat="49.89742" lon="2.25265">
        <ele>48.1</ele>
        <time>2023-01-28T14:37:07Z</time>
      </trkpt>
      <trkpt lat="49.89743" lon="2.25265">
        <ele>48.1</ele>
        <time>2023-01-28T14:37:08Z</time>
      </trkpt>
      <trkpt lat="49.89744" lon="2.25265">
        <ele>48.1</ele>
        <time>2023-01-28T14:37:09Z</time>
      </trkpt>
      <trkpt lat="49.89744" lon="2.25264">
        <ele>48.1</ele>
        <time>2023-01-28T14:37:11Z</time>
      </trkpt>
      <trkpt lat="49.89745" lon="2.25264">
        <ele>48.1</ele>
        <time>2023-01-28T14:37:12Z</time>
      </trkpt>
      <trkpt lat="49.89745" lon="2.25263">
        <ele>48.1</ele>
        <time>2023-01-28T14:37:14Z</time>
      </trkpt>
      <trkpt lat="49.89746" lon="2.25262">
        <ele>48.1</ele>
        <time>2023-01-28T14:37:15Z</time>
      </trkpt>
      <trkpt lat="49.89746" lon="2.25262">
        <ele>48.1</ele>
        <time>2023-01-28T14:37:16Z</time>
      </trkpt>
      <trkpt lat="49.89746" lon="2.25261">
        <ele>48.1</ele>
        <time>2023-01-28T14:37:17Z</time>
      </trkpt>
      <trkpt lat="49.89746" lon="2.25259">
        <ele>48.2</ele>
        <time>2023-01-28T14:37:19Z</time>
      </trkpt>
      <trkpt lat="49.89744" lon="2.25257">
        <ele>48.2</ele>
        <time>2023-01-28T14:37:21Z</time>
      </trkpt>
      <trkpt lat="49.89744" lon="2.25256">
        <ele>48.2</ele>
        <time>2023-01-28T14:37:22Z</time>
      </trkpt>
      <trkpt lat="49.89744" lon="2.25256">
        <ele>48.2</ele>
        <time>2023-01-28T14:37:24Z</time>
      </trkpt>
      <trkpt lat="49.89744" lon="2.25257">
        <ele>48.2</ele>
        <time>2023-01-28T14:37:25Z</time>
      </trkpt>
      <trkpt lat="49.89744" lon="2.25257">
        <ele>48.2</ele>
        <time>2023-01-28T14:37:26Z</time>
      </trkpt>
      <trkpt lat="49.89744" lon="2.25257">
        <ele>48.2</ele>
        <time>2023-01-28T14:37:28Z</time>
      </trkpt>
      <trkpt lat="49.89744" lon="2.25257">
        <ele>48.2</ele>
        <time>2023-01-28T14:37:29Z</time>
      </trkpt>
      <trkpt lat="49.89743" lon="2.25257">
        <ele>48.2</ele>
        <time>2023-01-28T14:37:31Z</time>
      </trkpt>
      <trkpt lat="49.89743" lon="2.25256">
        <ele>48.2</ele>
        <time>2023-01-28T14:37:32Z</time>
      </trkpt>
      <trkpt lat="49.89742" lon="2.25254">
        <ele>48.3</ele>
        <time>2023-01-28T14:37:34Z</time>
      </trkpt>
      <trkpt lat="49.89742" lon="2.25253">
        <ele>48.3</ele>
        <time>2023-01-28T14:37:36Z</time>
      </trkpt>
      <trkpt lat="49.89742" lon="2.25253">
        <ele>48.3</ele>
        <time>2023-01-28T14:37:37Z</time>
      </trkpt>
      <trkpt lat="49.89742" lon="2.25252">
        <ele>48.3</ele>
        <time>2023-01-28T14:37:39Z</time>
      </trkpt>
      <trkpt lat="49.89741" lon="2.25251">
        <ele>48.3</ele>
        <time>2023-01-28T14:37:40Z</time>
      </trkpt>
      <trkpt lat="49.89742" lon="2.25249">
        <ele>48.3</ele>
        <time>2023-01-28T14:37:42Z</time>
      </trkpt>
      <trkpt lat="49.89742" lon="2.25248">
        <ele>48.3</ele>
        <time>2023-01-28T14:37:43Z</time>
      </trkpt>
      <trkpt lat="49.89742" lon="2.25247">
        <ele>48.3</ele>
        <time>2023-01-28T14:37:44Z</time>
      </trkpt>
      <trkpt lat="49.89742" lon="2.25246">
        <ele>48.4</ele>
        <time>2023-01-28T14:37:45Z</time>
      </trkpt>
      <trkpt lat="49.89741" lon="2.25244">
        <ele>48.4</ele>
        <time>2023-01-28T14:37:46Z</time>
      </trkpt>
      <trkpt lat="49.89741" lon="2.25243">
        <ele>48.4</ele>
        <time>2023-01-28T14:37:48Z</time>
      </trkpt>
      <trkpt lat="49.89741" lon="2.25242">
        <ele>48.4</ele>
        <time>2023-01-28T14:37:49Z</time>
      </trkpt>
      <trkpt lat="49.89741" lon="2.2524">
        <ele>48.4</ele>
        <time>2023-01-28T14:37:50Z</time>
      </trkpt>
      <trkpt lat="49.89741" lon="2.25238">
        <ele>48.5</ele>
        <time>2023-01-28T14:37:51Z</time>
      </trkpt>
      <trkpt lat="49.89742" lon="2.25236">
        <ele>48.5</ele>
        <time>2023-01-28T14:37:53Z</time>
      </trkpt>
      <trkpt lat="49.89742" lon="2.25233">
        <ele>48.5</ele>
        <time>2023-01-28T14:37:55Z</time>
      </trkpt>
      <trkpt lat="49.89742" lon="2.25232">
        <ele>48.6</ele>
        <time>2023-01-28T14:37:56Z</time>
      </trkpt>
      <trkpt lat="49.89742" lon="2.25231">
        <ele>48.6</ele>
        <time>2023-01-28T14:37:57Z</time>
      </trkpt>
      <trkpt lat="49.89742" lon="2.25229">
        <ele>48.6</ele>
        <time>2023-01-28T14:37:59Z</time>
      </trkpt>
      <trkpt lat="49.89742" lon="2.25227">
        <ele>48.7</ele>
        <time>2023-01-28T14:38:00Z</time>
      </trkpt>
      <trkpt lat="49.89742" lon="2.25226">
        <ele>48.7</ele>
        <time>2023-01-28T14:38:01Z</time>
      </trkpt>
      <trkpt lat="49.89743" lon="2.25224">
        <ele>48.7</ele>
        <time>2023-01-28T14:38:02Z</time>
      </trkpt>
      <trkpt lat="49.89743" lon="2.25223">
        <ele>48.7</ele>
        <time>2023-01-28T14:38:04Z</time>
      </trkpt>
      <trkpt lat="49.89743" lon="2.25221">
        <ele>48.8</ele>
        <time>2023-01-28T14:38:05Z</time>
      </trkpt>
      <trkpt lat="49.89743" lon="2.2522">
        <ele>48.8</ele>
        <time>2023-01-28T14:38:06Z</time>
      </trkpt>
      <trkpt lat="49.89743" lon="2.25218">
        <ele>48.8</ele>
        <time>2023-01-28T14:38:08Z</time>
      </trkpt>
      <trkpt lat="49.89742" lon="2.25218">
        <ele>48.9</ele>
        <time>2023-01-28T14:38:09Z</time>
      </trkpt>
      <trkpt lat="49.89742" lon="2.25218">
        <ele>48.9</ele>
        <time>2023-01-28T14:38:10Z</time>
      </trkpt>
      <trkpt lat="49.89742" lon="2.25218">
        <ele>48.9</ele>
        <time>2023-01-28T14:38:11Z</time>
      </trkpt>
      <trkpt lat="49.89742" lon="2.25218">
        <ele>48.9</ele>
        <time>2023-01-28T14:38:12Z</time>
      </trkpt>
      <trkpt lat="49.89743" lon="2.25215">
        <ele>48.9</ele>
        <time>2023-01-28T14:38:14Z</time>
      </trkpt>
      <trkpt lat="49.89743" lon="2.25214">
        <ele>49</ele>
        <time>2023-01-28T14:38:16Z</time>
      </trkpt>
      <trkpt lat="49.89743" lon="2.25213">
        <ele>49</ele>
        <time>2023-01-28T14:38:17Z</time>
      </trkpt>
      <trkpt lat="49.89743" lon="2.25212">
        <ele>49</ele>
        <time>2023-01-28T14:38:18Z</time>
      </trkpt>
      <trkpt lat="49.89743" lon="2.25211">
        <ele>49</ele>
        <time>2023-01-28T14:38:19Z</time>
      </trkpt>
      <trkpt lat="49.89744" lon="2.25209">
        <ele>49.1</ele>
        <time>2023-01-28T14:38:20Z</time>
      </trkpt>
      <trkpt lat="49.89744" lon="2.25208">
        <ele>49.1</ele>
        <time>2023-01-28T14:38:21Z</time>
      </trkpt>
      <trkpt lat="49.89744" lon="2.25207">
        <ele>49.1</ele>
        <time>2023-01-28T14:38:23Z</time>
      </trkpt>
      <trkpt lat="49.89744" lon="2.25206">
        <ele>49.1</ele>
        <time>2023-01-28T14:38:24Z</time>
      </trkpt>
      <trkpt lat="49.89745" lon="2.25204">
        <ele>49.2</ele>
        <time>2023-01-28T14:38:25Z</time>
      </trkpt>
      <trkpt lat="49.89745" lon="2.25203">
        <ele>49.2</ele>
        <time>2023-01-28T14:38:26Z</time>
      </trkpt>
      <trkpt lat="49.89745" lon="2.25203">
        <ele>49.2</ele>
        <time>2023-01-28T14:38:28Z</time>
      </trkpt>
      <trkpt lat="49.89746" lon="2.252">
        <ele>49.3</ele>
        <time>2023-01-28T14:38:29Z</time>
      </trkpt>
      <trkpt lat="49.89746" lon="2.25199">
        <ele>49.3</ele>
        <time>2023-01-28T14:38:31Z</time>
      </trkpt>
      <trkpt lat="49.89746" lon="2.25198">
        <ele>49.3</ele>
        <time>2023-01-28T14:38:32Z</time>
      </trkpt>
      <trkpt lat="49.89746" lon="2.25197">
        <ele>49.3</ele>
        <time>2023-01-28T14:38:33Z</time>
      </trkpt>
      <trkpt lat="49.89746" lon="2.25194">
        <ele>49.4</ele>
        <time>2023-01-28T14:38:34Z</time>
      </trkpt>
      <trkpt lat="49.89746" lon="2.25193">
        <ele>49.4</ele>
        <time>2023-01-28T14:38:35Z</time>
      </trkpt>
      <trkpt lat="49.89746" lon="2.25191">
        <ele>49.4</ele>
        <time>2023-01-28T14:38:37Z</time>
      </trkpt>
      <trkpt lat="49.89746" lon="2.25189">
        <ele>49.4</ele>
        <time>2023-01-28T14:38:38Z</time>
      </trkpt>
      <trkpt lat="49.89746" lon="2.25188">
        <ele>49.5</ele>
        <time>2023-01-28T14:38:39Z</time>
      </trkpt>
      <trkpt lat="49.89746" lon="2.25186">
        <ele>49.5</ele>
        <time>2023-01-28T14:38:40Z</time>
      </trkpt>
      <trkpt lat="49.89746" lon="2.25185">
        <ele>49.5</ele>
        <time>2023-01-28T14:38:42Z</time>
      </trkpt>
      <trkpt lat="49.89746" lon="2.25183">
        <ele>49.6</ele>
        <time>2023-01-28T14:38:43Z</time>
      </trkpt>
      <trkpt lat="49.89746" lon="2.25181">
        <ele>49.6</ele>
        <time>2023-01-28T14:38:44Z</time>
      </trkpt>
      <trkpt lat="49.89745" lon="2.25177">
        <ele>49.7</ele>
        <time>2023-01-28T14:38:45Z</time>
      </trkpt>
      <trkpt lat="49.89745" lon="2.25176">
        <ele>49.7</ele>
        <time>2023-01-28T14:38:47Z</time>
      </trkpt>
      <trkpt lat="49.89745" lon="2.25175">
        <ele>49.7</ele>
        <time>2023-01-28T14:38:48Z</time>
      </trkpt>
      <trkpt lat="49.89744" lon="2.25172">
        <ele>49.7</ele>
        <time>2023-01-28T14:38:49Z</time>
      </trkpt>
      <trkpt lat="49.89744" lon="2.2517">
        <ele>49.8</ele>
        <time>2023-01-28T14:38:50Z</time>
      </trkpt>
      <trkpt lat="49.89744" lon="2.25167">
        <ele>49.8</ele>
        <time>2023-01-28T14:38:52Z</time>
      </trkpt>
      <trkpt lat="49.89744" lon="2.25165">
        <ele>49.9</ele>
        <time>2023-01-28T14:38:53Z</time>
      </trkpt>
      <trkpt lat="49.89743" lon="2.25162">
        <ele>49.9</ele>
        <time>2023-01-28T14:38:55Z</time>
      </trkpt>
      <trkpt lat="49.89743" lon="2.25161">
        <ele>49.9</ele>
        <time>2023-01-28T14:38:56Z</time>
      </trkpt>
      <trkpt lat="49.89743" lon="2.2516">
        <ele>50</ele>
        <time>2023-01-28T14:38:57Z</time>
      </trkpt>
      <trkpt lat="49.89743" lon="2.25157">
        <ele>50</ele>
        <time>2023-01-28T14:38:58Z</time>
      </trkpt>
      <trkpt lat="49.89743" lon="2.25155">
        <ele>50</ele>
        <time>2023-01-28T14:38:59Z</time>
      </trkpt>
      <trkpt lat="49.89743" lon="2.25154">
        <ele>50.1</ele>
        <time>2023-01-28T14:39:00Z</time>
      </trkpt>
      <trkpt lat="49.89743" lon="2.25153">
        <ele>50.1</ele>
        <time>2023-01-28T14:39:02Z</time>
      </trkpt>
      <trkpt lat="49.89742" lon="2.25152">
        <ele>50.1</ele>
        <time>2023-01-28T14:39:03Z</time>
      </trkpt>
      <trkpt lat="49.89742" lon="2.25149">
        <ele>50.1</ele>
        <time>2023-01-28T14:39:04Z</time>
      </trkpt>
      <trkpt lat="49.89742" lon="2.25147">
        <ele>50.2</ele>
        <time>2023-01-28T14:39:06Z</time>
      </trkpt>
      <trkpt lat="49.89742" lon="2.25146">
        <ele>50.2</ele>
        <time>2023-01-28T14:39:07Z</time>
      </trkpt>
      <trkpt lat="49.89742" lon="2.25144">
        <ele>50.2</ele>
        <time>2023-01-28T14:39:08Z</time>
      </trkpt>
      <trkpt lat="49.89741" lon="2.25143">
        <ele>50.2</ele>
        <time>2023-01-28T14:39:09Z</time>
      </trkpt>
      <trkpt lat="49.89741" lon="2.2514">
        <ele>50.2</ele>
        <time>2023-01-28T14:39:11Z</time>
      </trkpt>
      <trkpt lat="49.89741" lon="2.25138">
        <ele>50.3</ele>
        <time>2023-01-28T14:39:13Z</time>
      </trkpt>
      <trkpt lat="49.89741" lon="2.25137">
        <ele>50.3</ele>
        <time>2023-01-28T14:39:14Z</time>
      </trkpt>
      <trkpt lat="49.8974" lon="2.25135">
        <ele>50.3</ele>
        <time>2023-01-28T14:39:15Z</time>
      </trkpt>
      <trkpt lat="49.8974" lon="2.25133">
        <ele>50.3</ele>
        <time>2023-01-28T14:39:16Z</time>
      </trkpt>
      <trkpt lat="49.8974" lon="2.25132">
        <ele>50.3</ele>
        <time>2023-01-28T14:39:18Z</time>
      </trkpt>
      <trkpt lat="49.8974" lon="2.25131">
        <ele>50.3</ele>
        <time>2023-01-28T14:39:19Z</time>
      </trkpt>
      <trkpt lat="49.89739" lon="2.25129">
        <ele>50.3</ele>
        <time>2023-01-28T14:39:20Z</time>
      </trkpt>
      <trkpt lat="49.89739" lon="2.25127">
        <ele>50.3</ele>
        <time>2023-01-28T14:39:21Z</time>
      </trkpt>
      <trkpt lat="49.89738" lon="2.25126">
        <ele>50.3</ele>
        <time>2023-01-28T14:39:22Z</time>
      </trkpt>
      <trkpt lat="49.89738" lon="2.25124">
        <ele>50.3</ele>
        <time>2023-01-28T14:39:24Z</time>
      </trkpt>
      <trkpt lat="49.89737" lon="2.25122">
        <ele>50.3</ele>
        <time>2023-01-28T14:39:25Z</time>
      </trkpt>
      <trkpt lat="49.89737" lon="2.25121">
        <ele>50.4</ele>
        <time>2023-01-28T14:39:26Z</time>
      </trkpt>
      <trkpt lat="49.89736" lon="2.25117">
        <ele>50.4</ele>
        <time>2023-01-28T14:39:27Z</time>
      </trkpt>
      <trkpt lat="49.89735" lon="2.25116">
        <ele>50.4</ele>
        <time>2023-01-28T14:39:29Z</time>
      </trkpt>
      <trkpt lat="49.89735" lon="2.25115">
        <ele>50.4</ele>
        <time>2023-01-28T14:39:31Z</time>
      </trkpt>
      <trkpt lat="49.89734" lon="2.25113">
        <ele>50.4</ele>
        <time>2023-01-28T14:39:32Z</time>
      </trkpt>
      <trkpt lat="49.89733" lon="2.25112">
        <ele>50.4</ele>
        <time>2023-01-28T14:39:33Z</time>
      </trkpt>
      <trkpt lat="49.89733" lon="2.2511">
        <ele>50.4</ele>
        <time>2023-01-28T14:39:34Z</time>
      </trkpt>
      <trkpt lat="49.89732" lon="2.25109">
        <ele>50.4</ele>
        <time>2023-01-28T14:39:35Z</time>
      </trkpt>
      <trkpt lat="49.89732" lon="2.25107">
        <ele>50.4</ele>
        <time>2023-01-28T14:39:37Z</time>
      </trkpt>
      <trkpt lat="49.89732" lon="2.25106">
        <ele>50.4</ele>
        <time>2023-01-28T14:39:38Z</time>
      </trkpt>
      <trkpt lat="49.89731" lon="2.25105">
        <ele>50.4</ele>
        <time>2023-01-28T14:39:39Z</time>
      </trkpt>
      <trkpt lat="49.89731" lon="2.25103">
        <ele>50.4</ele>
        <time>2023-01-28T14:39:40Z</time>
      </trkpt>
      <trkpt lat="49.89731" lon="2.25102">
        <ele>50.4</ele>
        <time>2023-01-28T14:39:41Z</time>
      </trkpt>
      <trkpt lat="49.89731" lon="2.25101">
        <ele>50.4</ele>
        <time>2023-01-28T14:39:42Z</time>
      </trkpt>
      <trkpt lat="49.8973" lon="2.25101">
        <ele>50.4</ele>
        <time>2023-01-28T14:39:43Z</time>
      </trkpt>
      <trkpt lat="49.8973" lon="2.251">
        <ele>50.4</ele>
        <time>2023-01-28T14:39:45Z</time>
      </trkpt>
      <trkpt lat="49.89728" lon="2.25101">
        <ele>50.4</ele>
        <time>2023-01-28T14:39:46Z</time>
      </trkpt>
      <trkpt lat="49.89727" lon="2.25101">
        <ele>50.4</ele>
        <time>2023-01-28T14:39:47Z</time>
      </trkpt>
      <trkpt lat="49.89726" lon="2.25102">
        <ele>50.4</ele>
        <time>2023-01-28T14:39:48Z</time>
      </trkpt>
      <trkpt lat="49.89725" lon="2.25104">
        <ele>50.4</ele>
        <time>2023-01-28T14:39:50Z</time>
      </trkpt>
      <trkpt lat="49.89725" lon="2.25106">
        <ele>50.3</ele>
        <time>2023-01-28T14:39:51Z</time>
      </trkpt>
      <trkpt lat="49.89724" lon="2.25107">
        <ele>50.3</ele>
        <time>2023-01-28T14:39:52Z</time>
      </trkpt>
      <trkpt lat="49.89723" lon="2.25108">
        <ele>50.3</ele>
        <time>2023-01-28T14:39:54Z</time>
      </trkpt>
      <trkpt lat="49.89722" lon="2.2511">
        <ele>50.3</ele>
        <time>2023-01-28T14:39:55Z</time>
      </trkpt>
      <trkpt lat="49.89722" lon="2.2511">
        <ele>50.3</ele>
        <time>2023-01-28T14:39:56Z</time>
      </trkpt>
      <trkpt lat="49.89722" lon="2.25111">
        <ele>50.3</ele>
        <time>2023-01-28T14:39:57Z</time>
      </trkpt>
      <trkpt lat="49.89721" lon="2.25112">
        <ele>50.3</ele>
        <time>2023-01-28T14:39:58Z</time>
      </trkpt>
      <trkpt lat="49.89719" lon="2.25114">
        <ele>50.2</ele>
        <time>2023-01-28T14:40:00Z</time>
      </trkpt>
      <trkpt lat="49.89719" lon="2.25114">
        <ele>50.2</ele>
        <time>2023-01-28T14:40:02Z</time>
      </trkpt>
      <trkpt lat="49.89718" lon="2.25114">
        <ele>50.2</ele>
        <time>2023-01-28T14:40:03Z</time>
      </trkpt>
      <trkpt lat="49.89717" lon="2.25115">
        <ele>50.2</ele>
        <time>2023-01-28T14:40:04Z</time>
      </trkpt>
      <trkpt lat="49.89716" lon="2.25117">
        <ele>50.2</ele>
        <time>2023-01-28T14:40:06Z</time>
      </trkpt>
      <trkpt lat="49.89715" lon="2.25117">
        <ele>50.2</ele>
        <time>2023-01-28T14:40:07Z</time>
      </trkpt>
      <trkpt lat="49.89715" lon="2.25118">
        <ele>50.2</ele>
        <time>2023-01-28T14:40:08Z</time>
      </trkpt>
      <trkpt lat="49.89714" lon="2.25118">
        <ele>50.2</ele>
        <time>2023-01-28T14:40:10Z</time>
      </trkpt>
      <trkpt lat="49.89713" lon="2.25119">
        <ele>50.1</ele>
        <time>2023-01-28T14:40:11Z</time>
      </trkpt>
      <trkpt lat="49.89713" lon="2.25119">
        <ele>50.1</ele>
        <time>2023-01-28T14:40:12Z</time>
      </trkpt>
      <trkpt lat="49.89712" lon="2.25119">
        <ele>50.1</ele>
        <time>2023-01-28T14:40:13Z</time>
      </trkpt>
      <trkpt lat="49.89711" lon="2.2512">
        <ele>50.1</ele>
        <time>2023-01-28T14:40:14Z</time>
      </trkpt>
      <trkpt lat="49.8971" lon="2.2512">
        <ele>50.1</ele>
        <time>2023-01-28T14:40:15Z</time>
      </trkpt>
      <trkpt lat="49.89708" lon="2.25121">
        <ele>50.1</ele>
        <time>2023-01-28T14:40:16Z</time>
      </trkpt>
      <trkpt lat="49.89708" lon="2.25121">
        <ele>50.1</ele>
        <time>2023-01-28T14:40:18Z</time>
      </trkpt>
      <trkpt lat="49.89707" lon="2.25121">
        <ele>50.1</ele>
        <time>2023-01-28T14:40:19Z</time>
      </trkpt>
      <trkpt lat="49.89706" lon="2.25122">
        <ele>50.1</ele>
        <time>2023-01-28T14:40:20Z</time>
      </trkpt>
      <trkpt lat="49.89705" lon="2.25122">
        <ele>50.1</ele>
        <time>2023-01-28T14:40:21Z</time>
      </trkpt>
      <trkpt lat="49.89704" lon="2.25122">
        <ele>50.1</ele>
        <time>2023-01-28T14:40:22Z</time>
      </trkpt>
      <trkpt lat="49.89703" lon="2.25123">
        <ele>50.1</ele>
        <time>2023-01-28T14:40:23Z</time>
      </trkpt>
      <trkpt lat="49.89703" lon="2.25123">
        <ele>50.1</ele>
        <time>2023-01-28T14:40:25Z</time>
      </trkpt>
      <trkpt lat="49.89702" lon="2.25123">
        <ele>50.1</ele>
        <time>2023-01-28T14:40:26Z</time>
      </trkpt>
      <trkpt lat="49.89701" lon="2.25124">
        <ele>50.1</ele>
        <time>2023-01-28T14:40:27Z</time>
      </trkpt>
      <trkpt lat="49.897" lon="2.25124">
        <ele>50.1</ele>
        <time>2023-01-28T14:40:29Z</time>
      </trkpt>
      <trkpt lat="49.897" lon="2.25124">
        <ele>50.1</ele>
        <time>2023-01-28T14:40:30Z</time>
      </trkpt>
      <trkpt lat="49.89699" lon="2.25125">
        <ele>50.1</ele>
        <time>2023-01-28T14:40:31Z</time>
      </trkpt>
      <trkpt lat="49.89698" lon="2.25126">
        <ele>50.1</ele>
        <time>2023-01-28T14:40:32Z</time>
      </trkpt>
      <trkpt lat="49.89697" lon="2.25126">
        <ele>50.1</ele>
        <time>2023-01-28T14:40:34Z</time>
      </trkpt>
      <trkpt lat="49.89696" lon="2.25126">
        <ele>50.2</ele>
        <time>2023-01-28T14:40:35Z</time>
      </trkpt>
      <trkpt lat="49.89695" lon="2.25126">
        <ele>50.2</ele>
        <time>2023-01-28T14:40:37Z</time>
      </trkpt>
      <trkpt lat="49.89694" lon="2.25127">
        <ele>50.2</ele>
        <time>2023-01-28T14:40:38Z</time>
      </trkpt>
      <trkpt lat="49.89693" lon="2.25127">
        <ele>50.2</ele>
        <time>2023-01-28T14:40:40Z</time>
      </trkpt>
      <trkpt lat="49.89693" lon="2.25127">
        <ele>50.2</ele>
        <time>2023-01-28T14:40:41Z</time>
      </trkpt>
      <trkpt lat="49.89692" lon="2.25128">
        <ele>50.2</ele>
        <time>2023-01-28T14:40:43Z</time>
      </trkpt>
      <trkpt lat="49.89692" lon="2.25128">
        <ele>50.2</ele>
        <time>2023-01-28T14:40:44Z</time>
      </trkpt>
      <trkpt lat="49.89692" lon="2.25127">
        <ele>50.2</ele>
        <time>2023-01-28T14:40:46Z</time>
      </trkpt>
      <trkpt lat="49.89692" lon="2.25127">
        <ele>50.2</ele>
        <time>2023-01-28T14:40:47Z</time>
      </trkpt>
      <trkpt lat="49.89692" lon="2.25127">
        <ele>50.3</ele>
        <time>2023-01-28T14:40:48Z</time>
      </trkpt>
      <trkpt lat="49.89692" lon="2.25127">
        <ele>50.3</ele>
        <time>2023-01-28T14:40:49Z</time>
      </trkpt>
      <trkpt lat="49.89692" lon="2.25127">
        <ele>50.3</ele>
        <time>2023-01-28T14:40:51Z</time>
      </trkpt>
      <trkpt lat="49.89692" lon="2.25128">
        <ele>50.3</ele>
        <time>2023-01-28T14:40:53Z</time>
      </trkpt>
      <trkpt lat="49.89691" lon="2.25128">
        <ele>50.3</ele>
        <time>2023-01-28T14:40:54Z</time>
      </trkpt>
      <trkpt lat="49.8969" lon="2.25129">
        <ele>50.3</ele>
        <time>2023-01-28T14:40:56Z</time>
      </trkpt>
      <trkpt lat="49.8969" lon="2.2513">
        <ele>50.3</ele>
        <time>2023-01-28T14:40:57Z</time>
      </trkpt>
      <trkpt lat="49.89689" lon="2.2513">
        <ele>50.3</ele>
        <time>2023-01-28T14:40:58Z</time>
      </trkpt>
      <trkpt lat="49.89688" lon="2.25131">
        <ele>50.4</ele>
        <time>2023-01-28T14:40:59Z</time>
      </trkpt>
      <trkpt lat="49.89687" lon="2.2513">
        <ele>50.4</ele>
        <time>2023-01-28T14:41:01Z</time>
      </trkpt>
      <trkpt lat="49.89686" lon="2.2513">
        <ele>50.4</ele>
        <time>2023-01-28T14:41:02Z</time>
      </trkpt>
      <trkpt lat="49.89684" lon="2.2513">
        <ele>50.4</ele>
        <time>2023-01-28T14:41:03Z</time>
      </trkpt>
      <trkpt lat="49.89683" lon="2.2513">
        <ele>50.5</ele>
        <time>2023-01-28T14:41:05Z</time>
      </trkpt>
      <trkpt lat="49.89681" lon="2.25131">
        <ele>50.5</ele>
        <time>2023-01-28T14:41:07Z</time>
      </trkpt>
      <trkpt lat="49.89681" lon="2.25131">
        <ele>50.5</ele>
        <time>2023-01-28T14:41:08Z</time>
      </trkpt>
      <trkpt lat="49.8968" lon="2.25131">
        <ele>50.5</ele>
        <time>2023-01-28T14:41:09Z</time>
      </trkpt>
      <trkpt lat="49.8968" lon="2.25131">
        <ele>50.5</ele>
        <time>2023-01-28T14:41:11Z</time>
      </trkpt>
      <trkpt lat="49.89679" lon="2.25131">
        <ele>50.5</ele>
        <time>2023-01-28T14:41:12Z</time>
      </trkpt>
      <trkpt lat="49.89679" lon="2.25131">
        <ele>50.5</ele>
        <time>2023-01-28T14:41:14Z</time>
      </trkpt>
      <trkpt lat="49.89678" lon="2.25131">
        <ele>50.5</ele>
        <time>2023-01-28T14:41:15Z</time>
      </trkpt>
      <trkpt lat="49.89678" lon="2.25131">
        <ele>50.5</ele>
        <time>2023-01-28T14:41:17Z</time>
      </trkpt>
      <trkpt lat="49.89678" lon="2.25131">
        <ele>50.5</ele>
        <time>2023-01-28T14:41:18Z</time>
      </trkpt>
      <trkpt lat="49.89677" lon="2.25131">
        <ele>50.5</ele>
        <time>2023-01-28T14:41:19Z</time>
      </trkpt>
      <trkpt lat="49.89677" lon="2.25131">
        <ele>50.5</ele>
        <time>2023-01-28T14:41:20Z</time>
      </trkpt>
      <trkpt lat="49.89677" lon="2.25131">
        <ele>50.5</ele>
        <time>2023-01-28T14:41:22Z</time>
      </trkpt>
      <trkpt lat="49.89677" lon="2.2513">
        <ele>50.5</ele>
        <time>2023-01-28T14:41:24Z</time>
      </trkpt>
      <trkpt lat="49.89676" lon="2.2513">
        <ele>50.5</ele>
        <time>2023-01-28T14:41:25Z</time>
      </trkpt>
      <trkpt lat="49.89676" lon="2.2513">
        <ele>50.5</ele>
        <time>2023-01-28T14:41:27Z</time>
      </trkpt>
      <trkpt lat="49.89676" lon="2.25129">
        <ele>50.5</ele>
        <time>2023-01-28T14:41:28Z</time>
      </trkpt>
      <trkpt lat="49.89676" lon="2.25129">
        <ele>50.5</ele>
        <time>2023-01-28T14:41:29Z</time>
      </trkpt>
      <trkpt lat="49.89675" lon="2.25129">
        <ele>50.5</ele>
        <time>2023-01-28T14:41:30Z</time>
      </trkpt>
      <trkpt lat="49.89675" lon="2.25128">
        <ele>50.5</ele>
        <time>2023-01-28T14:41:31Z</time>
      </trkpt>
      <trkpt lat="49.89674" lon="2.25126">
        <ele>50.5</ele>
        <time>2023-01-28T14:41:33Z</time>
      </trkpt>
      <trkpt lat="49.89674" lon="2.25125">
        <ele>50.5</ele>
        <time>2023-01-28T14:41:35Z</time>
      </trkpt>
      <trkpt lat="49.89674" lon="2.25124">
        <ele>50.5</ele>
        <time>2023-01-28T14:41:36Z</time>
      </trkpt>
      <trkpt lat="49.89673" lon="2.25123">
        <ele>50.5</ele>
        <time>2023-01-28T14:41:37Z</time>
      </trkpt>
      <trkpt lat="49.89673" lon="2.25122">
        <ele>50.5</ele>
        <time>2023-01-28T14:41:38Z</time>
      </trkpt>
      <trkpt lat="49.89672" lon="2.25121">
        <ele>50.5</ele>
        <time>2023-01-28T14:41:39Z</time>
      </trkpt>
      <trkpt lat="49.89672" lon="2.25118">
        <ele>50.5</ele>
        <time>2023-01-28T14:41:41Z</time>
      </trkpt>
      <trkpt lat="49.89671" lon="2.25117">
        <ele>50.5</ele>
        <time>2023-01-28T14:41:43Z</time>
      </trkpt>
      <trkpt lat="49.89671" lon="2.25116">
        <ele>50.5</ele>
        <time>2023-01-28T14:41:44Z</time>
      </trkpt>
      <trkpt lat="49.8967" lon="2.25115">
        <ele>50.5</ele>
        <time>2023-01-28T14:41:45Z</time>
      </trkpt>
      <trkpt lat="49.8967" lon="2.25114">
        <ele>50.5</ele>
        <time>2023-01-28T14:41:46Z</time>
      </trkpt>
      <trkpt lat="49.89669" lon="2.25113">
        <ele>50.5</ele>
        <time>2023-01-28T14:41:47Z</time>
      </trkpt>
      <trkpt lat="49.89668" lon="2.25112">
        <ele>50.5</ele>
        <time>2023-01-28T14:41:49Z</time>
      </trkpt>
      <trkpt lat="49.89667" lon="2.2511">
        <ele>50.5</ele>
        <time>2023-01-28T14:41:51Z</time>
      </trkpt>
      <trkpt lat="49.89666" lon="2.2511">
        <ele>50.5</ele>
        <time>2023-01-28T14:41:53Z</time>
      </trkpt>
      <trkpt lat="49.89666" lon="2.2511">
        <ele>50.5</ele>
        <time>2023-01-28T14:41:54Z</time>
      </trkpt>
      <trkpt lat="49.89666" lon="2.2511">
        <ele>50.5</ele>
        <time>2023-01-28T14:41:55Z</time>
      </trkpt>
      <trkpt lat="49.89665" lon="2.2511">
        <ele>50.5</ele>
        <time>2023-01-28T14:41:57Z</time>
      </trkpt>
      <trkpt lat="49.89665" lon="2.2511">
        <ele>50.5</ele>
        <time>2023-01-28T14:41:58Z</time>
      </trkpt>
      <trkpt lat="49.89665" lon="2.25111">
        <ele>50.5</ele>
        <time>2023-01-28T14:42:00Z</time>
      </trkpt>
      <trkpt lat="49.89665" lon="2.25111">
        <ele>50.5</ele>
        <time>2023-01-28T14:42:01Z</time>
      </trkpt>
      <trkpt lat="49.89665" lon="2.25111">
        <ele>50.5</ele>
        <time>2023-01-28T14:42:02Z</time>
      </trkpt>
      <trkpt lat="49.89665" lon="2.25111">
        <ele>50.5</ele>
        <time>2023-01-28T14:42:03Z</time>
      </trkpt>
      <trkpt lat="49.89665" lon="2.25111">
        <ele>50.5</ele>
        <time>2023-01-28T14:42:05Z</time>
      </trkpt>
      <trkpt lat="49.89665" lon="2.2511">
        <ele>50.5</ele>
        <time>2023-01-28T14:42:06Z</time>
      </trkpt>
      <trkpt lat="49.89665" lon="2.2511">
        <ele>50.5</ele>
        <time>2023-01-28T14:42:07Z</time>
      </trkpt>
      <trkpt lat="49.89664" lon="2.25109">
        <ele>50.5</ele>
        <time>2023-01-28T14:42:08Z</time>
      </trkpt>
      <trkpt lat="49.89664" lon="2.25107">
        <ele>50.5</ele>
        <time>2023-01-28T14:42:09Z</time>
      </trkpt>
      <trkpt lat="49.89663" lon="2.25107">
        <ele>50.5</ele>
        <time>2023-01-28T14:42:11Z</time>
      </trkpt>
      <trkpt lat="49.89663" lon="2.25106">
        <ele>50.5</ele>
        <time>2023-01-28T14:42:12Z</time>
      </trkpt>
      <trkpt lat="49.89663" lon="2.25105">
        <ele>50.5</ele>
        <time>2023-01-28T14:42:13Z</time>
      </trkpt>
      <trkpt lat="49.89662" lon="2.25104">
        <ele>50.5</ele>
        <time>2023-01-28T14:42:14Z</time>
      </trkpt>
      <trkpt lat="49.89661" lon="2.25102">
        <ele>50.5</ele>
        <time>2023-01-28T14:42:16Z</time>
      </trkpt>
      <trkpt lat="49.89661" lon="2.251">
        <ele>50.5</ele>
        <time>2023-01-28T14:42:18Z</time>
      </trkpt>
      <trkpt lat="49.89661" lon="2.25099">
        <ele>50.5</ele>
        <time>2023-01-28T14:42:19Z</time>
      </trkpt>
      <trkpt lat="49.89661" lon="2.25098">
        <ele>50.5</ele>
        <time>2023-01-28T14:42:20Z</time>
      </trkpt>
      <trkpt lat="49.89662" lon="2.25096">
        <ele>50.5</ele>
        <time>2023-01-28T14:42:21Z</time>
      </trkpt>
      <trkpt lat="49.89662" lon="2.25094">
        <ele>50.5</ele>
        <time>2023-01-28T14:42:23Z</time>
      </trkpt>
      <trkpt lat="49.89662" lon="2.25094">
        <ele>50.5</ele>
        <time>2023-01-28T14:42:24Z</time>
      </trkpt>
      <trkpt lat="49.89662" lon="2.25093">
        <ele>50.5</ele>
        <time>2023-01-28T14:42:25Z</time>
      </trkpt>
      <trkpt lat="49.89662" lon="2.25092">
        <ele>50.5</ele>
        <time>2023-01-28T14:42:27Z</time>
      </trkpt>
      <trkpt lat="49.89663" lon="2.25093">
        <ele>50.5</ele>
        <time>2023-01-28T14:42:29Z</time>
      </trkpt>
      <trkpt lat="49.89663" lon="2.25094">
        <ele>50.5</ele>
        <time>2023-01-28T14:42:30Z</time>
      </trkpt>
      <trkpt lat="49.89663" lon="2.25095">
        <ele>50.5</ele>
        <time>2023-01-28T14:42:31Z</time>
      </trkpt>
      <trkpt lat="49.89662" lon="2.25096">
        <ele>50.5</ele>
        <time>2023-01-28T14:42:32Z</time>
      </trkpt>
      <trkpt lat="49.89662" lon="2.25098">
        <ele>50.4</ele>
        <time>2023-01-28T14:42:34Z</time>
      </trkpt>
      <trkpt lat="49.89662" lon="2.25099">
        <ele>50.4</ele>
        <time>2023-01-28T14:42:35Z</time>
      </trkpt>
      <trkpt lat="49.89662" lon="2.251">
        <ele>50.4</ele>
        <time>2023-01-28T14:42:36Z</time>
      </trkpt>
      <trkpt lat="49.89662" lon="2.25101">
        <ele>50.4</ele>
        <time>2023-01-28T14:42:38Z</time>
      </trkpt>
      <trkpt lat="49.89662" lon="2.25102">
        <ele>50.4</ele>
        <time>2023-01-28T14:42:39Z</time>
      </trkpt>
      <trkpt lat="49.89662" lon="2.25103">
        <ele>50.4</ele>
        <time>2023-01-28T14:42:40Z</time>
      </trkpt>
      <trkpt lat="49.89662" lon="2.25104">
        <ele>50.4</ele>
        <time>2023-01-28T14:42:42Z</time>
      </trkpt>
      <trkpt lat="49.89663" lon="2.25104">
        <ele>50.4</ele>
        <time>2023-01-28T14:42:43Z</time>
      </trkpt>
      <trkpt lat="49.89663" lon="2.25105">
        <ele>50.4</ele>
        <time>2023-01-28T14:42:45Z</time>
      </trkpt>
      <trkpt lat="49.89663" lon="2.25105">
        <ele>50.4</ele>
        <time>2023-01-28T14:42:46Z</time>
      </trkpt>
      <trkpt lat="49.89663" lon="2.25105">
        <ele>50.4</ele>
        <time>2023-01-28T14:42:48Z</time>
      </trkpt>
      <trkpt lat="49.89663" lon="2.25105">
        <ele>50.4</ele>
        <time>2023-01-28T14:42:49Z</time>
      </trkpt>
      <trkpt lat="49.89663" lon="2.25106">
        <ele>50.4</ele>
        <time>2023-01-28T14:42:51Z</time>
      </trkpt>
      <trkpt lat="49.89663" lon="2.25106">
        <ele>50.4</ele>
        <time>2023-01-28T14:42:52Z</time>
      </trkpt>
      <trkpt lat="49.89663" lon="2.25105">
        <ele>50.4</ele>
        <time>2023-01-28T14:42:53Z</time>
      </trkpt>
      <trkpt lat="49.89663" lon="2.25105">
        <ele>50.4</ele>
        <time>2023-01-28T14:42:54Z</time>
      </trkpt>
      <trkpt lat="49.89663" lon="2.25105">
        <ele>50.4</ele>
        <time>2023-01-28T14:42:55Z</time>
      </trkpt>
      <trkpt lat="49.89663" lon="2.25105">
        <ele>50.4</ele>
        <time>2023-01-28T14:42:56Z</time>
      </trkpt>
      <trkpt lat="49.89663" lon="2.25105">
        <ele>50.4</ele>
        <time>2023-01-28T14:42:57Z</time>
      </trkpt>
      <trkpt lat="49.89663" lon="2.25105">
        <ele>50.4</ele>
        <time>2023-01-28T14:42:58Z</time>
      </trkpt>
      <trkpt lat="49.89663" lon="2.25105">
        <ele>50.4</ele>
        <time>2023-01-28T14:42:59Z</time>
      </trkpt>
      <trkpt lat="49.89663" lon="2.25105">
        <ele>50.4</ele>
        <time>2023-01-28T14:43:00Z</time>
      </trkpt>
      <trkpt lat="49.89663" lon="2.25105">
        <ele>50.4</ele>
        <time>2023-01-28T14:43:01Z</time>
      </trkpt>
      <trkpt lat="49.89663" lon="2.25105">
        <ele>50.4</ele>
        <time>2023-01-28T14:43:02Z</time>
      </trkpt>
      <trkpt lat="49.89663" lon="2.25105">
        <ele>50.4</ele>
        <time>2023-01-28T14:43:03Z</time>
      </trkpt>
      <trkpt lat="49.89663" lon="2.25105">
        <ele>50.4</ele>
        <time>2023-01-28T14:43:04Z</time>
      </trkpt>
      <trkpt lat="49.89663" lon="2.25105">
        <ele>50.4</ele>
        <time>2023-01-28T14:43:05Z</time>
      </trkpt>
      <trkpt lat="49.89663" lon="2.25105">
        <ele>50.4</ele>
        <time>2023-01-28T14:43:06Z</time>
      </trkpt>
      <trkpt lat="49.89663" lon="2.25105">
        <ele>50.4</ele>
        <time>2023-01-28T14:43:07Z</time>
      </trkpt>
      <trkpt lat="49.89663" lon="2.25105">
        <ele>50.4</ele>
        <time>2023-01-28T14:43:08Z</time>
      </trkpt>
      <trkpt lat="49.89663" lon="2.25105">
        <ele>50.4</ele>
        <time>2023-01-28T14:43:09Z</time>
      </trkpt>
      <trkpt lat="49.89663" lon="2.25105">
        <ele>50.4</ele>
        <time>2023-01-28T14:43:10Z</time>
      </trkpt>
      <trkpt lat="49.89663" lon="2.25105">
        <ele>50.4</ele>
        <time>2023-01-28T14:43:11Z</time>
      </trkpt>
      <trkpt lat="49.89663" lon="2.25105">
        <ele>50.4</ele>
        <time>2023-01-28T14:43:12Z</time>
      </trkpt>
      <trkpt lat="49.89663" lon="2.25105">
        <ele>50.4</ele>
        <time>2023-01-28T14:43:13Z</time>
      </trkpt>
      <trkpt lat="49.89663" lon="2.25105">
        <ele>50.4</ele>
        <time>2023-01-28T14:43:14Z</time>
      </trkpt>
      <trkpt lat="49.89663" lon="2.25105">
        <ele>50.4</ele>
        <time>2023-01-28T14:43:15Z</time>
      </trkpt>
      <trkpt lat="49.89663" lon="2.25105">
        <ele>50.4</ele>
        <time>2023-01-28T14:43:16Z</time>
      </trkpt>
      <trkpt lat="49.89663" lon="2.25105">
        <ele>50.4</ele>
        <time>2023-01-28T14:43:17Z</time>
      </trkpt>
      <trkpt lat="49.89663" lon="2.25105">
        <ele>50.4</ele>
        <time>2023-01-28T14:43:18Z</time>
      </trkpt>
      <trkpt lat="49.89663" lon="2.25105">
        <ele>50.4</ele>
        <time>2023-01-28T14:43:19Z</time>
      </trkpt>
      <trkpt lat="49.89663" lon="2.25105">
        <ele>50.4</ele>
        <time>2023-01-28T14:43:20Z</time>
      </trkpt>
      <trkpt lat="49.89663" lon="2.25105">
        <ele>50.4</ele>
        <time>2023-01-28T14:43:21Z</time>
      </trkpt>
      <trkpt lat="49.89663" lon="2.25105">
        <ele>50.4</ele>
        <time>2023-01-28T14:43:22Z</time>
      </trkpt>
      <trkpt lat="49.89663" lon="2.25105">
        <ele>50.4</ele>
        <time>2023-01-28T14:43:23Z</time>
      </trkpt>
      <trkpt lat="49.89663" lon="2.25105">
        <ele>50.4</ele>
        <time>2023-01-28T14:43:24Z</time>
      </trkpt>
      <trkpt lat="49.89663" lon="2.25105">
        <ele>50.4</ele>
        <time>2023-01-28T14:43:25Z</time>
      </trkpt>
      <trkpt lat="49.89663" lon="2.25105">
        <ele>50.4</ele>
        <time>2023-01-28T14:43:26Z</time>
      </trkpt>
      <trkpt lat="49.89663" lon="2.25105">
        <ele>50.4</ele>
        <time>2023-01-28T14:43:27Z</time>
      </trkpt>
      <trkpt lat="49.89663" lon="2.25105">
        <ele>50.4</ele>
        <time>2023-01-28T14:43:28Z</time>
      </trkpt>
      <trkpt lat="49.89663" lon="2.25105">
        <ele>50.4</ele>
        <time>2023-01-28T14:43:29Z</time>
      </trkpt>
      <trkpt lat="49.89663" lon="2.25105">
        <ele>50.4</ele>
        <time>2023-01-28T14:43:30Z</time>
      </trkpt>
      <trkpt lat="49.89663" lon="2.25104">
        <ele>50.4</ele>
        <time>2023-01-28T14:43:31Z</time>
      </trkpt>
      <trkpt lat="49.89662" lon="2.25102">
        <ele>50.4</ele>
        <time>2023-01-28T14:43:32Z</time>
      </trkpt>
      <trkpt lat="49.89662" lon="2.25101">
        <ele>50.4</ele>
        <time>2023-01-28T14:43:33Z</time>
      </trkpt>
      <trkpt lat="49.89663" lon="2.251">
        <ele>50.4</ele>
        <time>2023-01-28T14:43:34Z</time>
      </trkpt>
      <trkpt lat="49.89664" lon="2.25099">
        <ele>50.4</ele>
        <time>2023-01-28T14:43:35Z</time>
      </trkpt>
      <trkpt lat="49.89664" lon="2.25098">
        <ele>50.4</ele>
        <time>2023-01-28T14:43:36Z</time>
      </trkpt>
      <trkpt lat="49.89664" lon="2.25098">
        <ele>50.4</ele>
        <time>2023-01-28T14:43:38Z</time>
      </trkpt>
      <trkpt lat="49.89664" lon="2.25098">
        <ele>50.4</ele>
        <time>2023-01-28T14:43:39Z</time>
      </trkpt>
      <trkpt lat="49.89665" lon="2.25098">
        <ele>50.4</ele>
        <time>2023-01-28T14:43:41Z</time>
      </trkpt>
      <trkpt lat="49.89665" lon="2.25098">
        <ele>50.4</ele>
        <time>2023-01-28T14:43:42Z</time>
      </trkpt>
      <trkpt lat="49.89665" lon="2.25098">
        <ele>50.4</ele>
        <time>2023-01-28T14:43:44Z</time>
      </trkpt>
      <trkpt lat="49.89665" lon="2.25098">
        <ele>50.4</ele>
        <time>2023-01-28T14:43:45Z</time>
      </trkpt>
      <trkpt lat="49.89665" lon="2.25098">
        <ele>50.4</ele>
        <time>2023-01-28T14:43:46Z</time>
      </trkpt>
      <trkpt lat="49.89665" lon="2.25098">
        <ele>50.4</ele>
        <time>2023-01-28T14:43:48Z</time>
      </trkpt>
      <trkpt lat="49.89665" lon="2.25098">
        <ele>50.4</ele>
        <time>2023-01-28T14:43:49Z</time>
      </trkpt>
      <trkpt lat="49.89665" lon="2.25097">
        <ele>50.4</ele>
        <time>2023-01-28T14:43:50Z</time>
      </trkpt>
      <trkpt lat="49.89666" lon="2.25097">
        <ele>50.4</ele>
        <time>2023-01-28T14:43:51Z</time>
      </trkpt>
      <trkpt lat="49.89666" lon="2.25096">
        <ele>50.4</ele>
        <time>2023-01-28T14:43:53Z</time>
      </trkpt>
      <trkpt lat="49.89667" lon="2.25096">
        <ele>50.4</ele>
        <time>2023-01-28T14:43:54Z</time>
      </trkpt>
      <trkpt lat="49.89667" lon="2.25097">
        <ele>50.4</ele>
        <time>2023-01-28T14:43:55Z</time>
      </trkpt>
      <trkpt lat="49.89667" lon="2.25098">
        <ele>50.4</ele>
        <time>2023-01-28T14:43:57Z</time>
      </trkpt>
      <trkpt lat="49.89667" lon="2.25098">
        <ele>50.4</ele>
        <time>2023-01-28T14:43:58Z</time>
      </trkpt>
      <trkpt lat="49.89666" lon="2.25098">
        <ele>50.4</ele>
        <time>2023-01-28T14:44:00Z</time>
      </trkpt>
      <trkpt lat="49.89666" lon="2.25098">
        <ele>50.4</ele>
        <time>2023-01-28T14:44:01Z</time>
      </trkpt>
      <trkpt lat="49.89666" lon="2.25098">
        <ele>50.4</ele>
        <time>2023-01-28T14:44:02Z</time>
      </trkpt>
      <trkpt lat="49.89666" lon="2.25098">
        <ele>50.4</ele>
        <time>2023-01-28T14:44:04Z</time>
      </trkpt>
      <trkpt lat="49.89666" lon="2.25098">
        <ele>50.4</ele>
        <time>2023-01-28T14:44:05Z</time>
      </trkpt>
      <trkpt lat="49.89666" lon="2.25098">
        <ele>50.4</ele>
        <time>2023-01-28T14:44:06Z</time>
      </trkpt>
      <trkpt lat="49.89666" lon="2.25098">
        <ele>50.4</ele>
        <time>2023-01-28T14:44:07Z</time>
      </trkpt>
      <trkpt lat="49.89666" lon="2.25098">
        <ele>50.4</ele>
        <time>2023-01-28T14:44:08Z</time>
      </trkpt>
      <trkpt lat="49.89667" lon="2.25098">
        <ele>50.4</ele>
        <time>2023-01-28T14:44:09Z</time>
      </trkpt>
      <trkpt lat="49.89667" lon="2.25098">
        <ele>50.4</ele>
        <time>2023-01-28T14:44:11Z</time>
      </trkpt>
      <trkpt lat="49.89667" lon="2.25098">
        <ele>50.4</ele>
        <time>2023-01-28T14:44:12Z</time>
      </trkpt>
      <trkpt lat="49.89667" lon="2.25098">
        <ele>50.4</ele>
        <time>2023-01-28T14:44:13Z</time>
      </trkpt>
      <trkpt lat="49.89667" lon="2.25099">
        <ele>50.4</ele>
        <time>2023-01-28T14:44:14Z</time>
      </trkpt>
      <trkpt lat="49.89667" lon="2.251">
        <ele>50.4</ele>
        <time>2023-01-28T14:44:15Z</time>
      </trkpt>
      <trkpt lat="49.89667" lon="2.25101">
        <ele>50.4</ele>
        <time>2023-01-28T14:44:17Z</time>
      </trkpt>
      <trkpt lat="49.89667" lon="2.25102">
        <ele>50.4</ele>
        <time>2023-01-28T14:44:18Z</time>
      </trkpt>
      <trkpt lat="49.89666" lon="2.25102">
        <ele>50.4</ele>
        <time>2023-01-28T14:44:19Z</time>
      </trkpt>
      <trkpt lat="49.89666" lon="2.25103">
        <ele>50.4</ele>
        <time>2023-01-28T14:44:20Z</time>
      </trkpt>
      <trkpt lat="49.89666" lon="2.25103">
        <ele>50.4</ele>
        <time>2023-01-28T14:44:22Z</time>
      </trkpt>
      <trkpt lat="49.89666" lon="2.25103">
        <ele>50.4</ele>
        <time>2023-01-28T14:44:23Z</time>
      </trkpt>
      <trkpt lat="49.89666" lon="2.25104">
        <ele>50.4</ele>
        <time>2023-01-28T14:44:24Z</time>
      </trkpt>
      <trkpt lat="49.89666" lon="2.25104">
        <ele>50.4</ele>
        <time>2023-01-28T14:44:25Z</time>
      </trkpt>
      <trkpt lat="49.89667" lon="2.25104">
        <ele>50.4</ele>
        <time>2023-01-28T14:44:27Z</time>
      </trkpt>
      <trkpt lat="49.89667" lon="2.25104">
        <ele>50.4</ele>
        <time>2023-01-28T14:44:28Z</time>
      </trkpt>
      <trkpt lat="49.89668" lon="2.25104">
        <ele>50.4</ele>
        <time>2023-01-28T14:44:30Z</time>
      </trkpt>
      <trkpt lat="49.89668" lon="2.25104">
        <ele>50.4</ele>
        <time>2023-01-28T14:44:31Z</time>
      </trkpt>
      <trkpt lat="49.89669" lon="2.25104">
        <ele>50.4</ele>
        <time>2023-01-28T14:44:32Z</time>
      </trkpt>
      <trkpt lat="49.8967" lon="2.25103">
        <ele>50.4</ele>
        <time>2023-01-28T14:44:33Z</time>
      </trkpt>
      <trkpt lat="49.8967" lon="2.25102">
        <ele>50.4</ele>
        <time>2023-01-28T14:44:35Z</time>
      </trkpt>
      <trkpt lat="49.89671" lon="2.25101">
        <ele>50.4</ele>
        <time>2023-01-28T14:44:36Z</time>
      </trkpt>
      <trkpt lat="49.89672" lon="2.251">
        <ele>50.4</ele>
        <time>2023-01-28T14:44:37Z</time>
      </trkpt>
      <trkpt lat="49.89673" lon="2.25099">
        <ele>50.4</ele>
        <time>2023-01-28T14:44:38Z</time>
      </trkpt>
      <trkpt lat="49.89673" lon="2.25098">
        <ele>50.4</ele>
        <time>2023-01-28T14:44:39Z</time>
      </trkpt>
      <trkpt lat="49.89673" lon="2.25097">
        <ele>50.4</ele>
        <time>2023-01-28T14:44:41Z</time>
      </trkpt>
      <trkpt lat="49.89673" lon="2.25096">
        <ele>50.4</ele>
        <time>2023-01-28T14:44:42Z</time>
      </trkpt>
      <trkpt lat="49.89673" lon="2.25095">
        <ele>50.4</ele>
        <time>2023-01-28T14:44:43Z</time>
      </trkpt>
      <trkpt lat="49.89673" lon="2.25094">
        <ele>50.4</ele>
        <time>2023-01-28T14:44:45Z</time>
      </trkpt>
      <trkpt lat="49.89673" lon="2.25094">
        <ele>50.4</ele>
        <time>2023-01-28T14:44:46Z</time>
      </trkpt>
      <trkpt lat="49.89672" lon="2.25094">
        <ele>50.4</ele>
        <time>2023-01-28T14:44:48Z</time>
      </trkpt>
      <trkpt lat="49.89671" lon="2.25093">
        <ele>50.4</ele>
        <time>2023-01-28T14:44:49Z</time>
      </trkpt>
      <trkpt lat="49.89671" lon="2.25093">
        <ele>50.4</ele>
        <time>2023-01-28T14:44:50Z</time>
      </trkpt>
      <trkpt lat="49.89671" lon="2.25093">
        <ele>50.4</ele>
        <time>2023-01-28T14:44:52Z</time>
      </trkpt>
      <trkpt lat="49.89671" lon="2.25093">
        <ele>50.4</ele>
        <time>2023-01-28T14:44:53Z</time>
      </trkpt>
      <trkpt lat="49.8967" lon="2.25093">
        <ele>50.4</ele>
        <time>2023-01-28T14:44:55Z</time>
      </trkpt>
      <trkpt lat="49.8967" lon="2.25093">
        <ele>50.4</ele>
        <time>2023-01-28T14:44:56Z</time>
      </trkpt>
      <trkpt lat="49.8967" lon="2.25093">
        <ele>50.4</ele>
        <time>2023-01-28T14:44:58Z</time>
      </trkpt>
      <trkpt lat="49.8967" lon="2.25093">
        <ele>50.4</ele>
        <time>2023-01-28T14:44:59Z</time>
      </trkpt>
      <trkpt lat="49.8967" lon="2.25093">
        <ele>50.4</ele>
        <time>2023-01-28T14:45:00Z</time>
      </trkpt>
      <trkpt lat="49.8967" lon="2.25093">
        <ele>50.4</ele>
        <time>2023-01-28T14:45:02Z</time>
      </trkpt>
      <trkpt lat="49.8967" lon="2.25093">
        <ele>50.4</ele>
        <time>2023-01-28T14:45:03Z</time>
      </trkpt>
      <trkpt lat="49.8967" lon="2.25093">
        <ele>50.4</ele>
        <time>2023-01-28T14:45:04Z</time>
      </trkpt>
      <trkpt lat="49.8967" lon="2.25093">
        <ele>50.4</ele>
        <time>2023-01-28T14:45:05Z</time>
      </trkpt>
      <trkpt lat="49.8967" lon="2.25093">
        <ele>50.4</ele>
        <time>2023-01-28T14:45:06Z</time>
      </trkpt>
      <trkpt lat="49.8967" lon="2.25093">
        <ele>50.4</ele>
        <time>2023-01-28T14:45:07Z</time>
      </trkpt>
      <trkpt lat="49.8967" lon="2.25093">
        <ele>50.4</ele>
        <time>2023-01-28T14:45:08Z</time>
      </trkpt>
      <trkpt lat="49.8967" lon="2.25093">
        <ele>50.4</ele>
        <time>2023-01-28T14:45:09Z</time>
      </trkpt>
      <trkpt lat="49.89669" lon="2.25093">
        <ele>50.4</ele>
        <time>2023-01-28T14:45:10Z</time>
      </trkpt>
      <trkpt lat="49.89669" lon="2.25093">
        <ele>50.4</ele>
        <time>2023-01-28T14:45:11Z</time>
      </trkpt>
      <trkpt lat="49.89669" lon="2.25093">
        <ele>50.4</ele>
        <time>2023-01-28T14:45:12Z</time>
      </trkpt>
      <trkpt lat="49.89669" lon="2.25093">
        <ele>50.4</ele>
        <time>2023-01-28T14:45:13Z</time>
      </trkpt>
      <trkpt lat="49.89669" lon="2.25094">
        <ele>50.4</ele>
        <time>2023-01-28T14:45:14Z</time>
      </trkpt>
      <trkpt lat="49.89669" lon="2.25094">
        <ele>50.4</ele>
        <time>2023-01-28T14:45:15Z</time>
      </trkpt>
      <trkpt lat="49.89669" lon="2.25094">
        <ele>50.4</ele>
        <time>2023-01-28T14:45:16Z</time>
      </trkpt>
      <trkpt lat="49.89669" lon="2.25094">
        <ele>50.4</ele>
        <time>2023-01-28T14:45:17Z</time>
      </trkpt>
      <trkpt lat="49.89669" lon="2.25094">
        <ele>50.4</ele>
        <time>2023-01-28T14:45:18Z</time>
      </trkpt>
      <trkpt lat="49.89669" lon="2.25094">
        <ele>50.4</ele>
        <time>2023-01-28T14:45:19Z</time>
      </trkpt>
      <trkpt lat="49.89669" lon="2.25094">
        <ele>50.4</ele>
        <time>2023-01-28T14:45:20Z</time>
      </trkpt>
      <trkpt lat="49.89669" lon="2.25094">
        <ele>50.4</ele>
        <time>2023-01-28T14:45:21Z</time>
      </trkpt>
      <trkpt lat="49.89668" lon="2.25094">
        <ele>50.4</ele>
        <time>2023-01-28T14:45:22Z</time>
      </trkpt>
      <trkpt lat="49.89668" lon="2.25094">
        <ele>50.4</ele>
        <time>2023-01-28T14:45:23Z</time>
      </trkpt>
      <trkpt lat="49.89668" lon="2.25094">
        <ele>50.4</ele>
        <time>2023-01-28T14:45:24Z</time>
      </trkpt>
      <trkpt lat="49.89668" lon="2.25094">
        <ele>50.4</ele>
        <time>2023-01-28T14:45:25Z</time>
      </trkpt>
      <trkpt lat="49.89668" lon="2.25094">
        <ele>50.4</ele>
        <time>2023-01-28T14:45:26Z</time>
      </trkpt>
      <trkpt lat="49.89668" lon="2.25094">
        <ele>50.4</ele>
        <time>2023-01-28T14:45:27Z</time>
      </trkpt>
      <trkpt lat="49.89668" lon="2.25094">
        <ele>50.4</ele>
        <time>2023-01-28T14:45:28Z</time>
      </trkpt>
      <trkpt lat="49.89668" lon="2.25094">
        <ele>50.4</ele>
        <time>2023-01-28T14:45:29Z</time>
      </trkpt>
      <trkpt lat="49.89668" lon="2.25094">
        <ele>50.4</ele>
        <time>2023-01-28T14:45:30Z</time>
      </trkpt>
      <trkpt lat="49.89668" lon="2.25094">
        <ele>50.4</ele>
        <time>2023-01-28T14:45:31Z</time>
      </trkpt>
      <trkpt lat="49.89668" lon="2.25094">
        <ele>50.4</ele>
        <time>2023-01-28T14:45:32Z</time>
      </trkpt>
      <trkpt lat="49.89668" lon="2.25094">
        <ele>50.4</ele>
        <time>2023-01-28T14:45:33Z</time>
      </trkpt>
      <trkpt lat="49.89668" lon="2.25094">
        <ele>50.4</ele>
        <time>2023-01-28T14:45:34Z</time>
      </trkpt>
      <trkpt lat="49.89667" lon="2.25094">
        <ele>50.4</ele>
        <time>2023-01-28T14:45:35Z</time>
      </trkpt>
      <trkpt lat="49.89667" lon="2.25095">
        <ele>50.4</ele>
        <time>2023-01-28T14:45:36Z</time>
      </trkpt>
      <trkpt lat="49.89667" lon="2.25095">
        <ele>50.4</ele>
        <time>2023-01-28T14:45:37Z</time>
      </trkpt>
      <trkpt lat="49.89667" lon="2.25095">
        <ele>50.4</ele>
        <time>2023-01-28T14:45:38Z</time>
      </trkpt>
      <trkpt lat="49.89667" lon="2.25095">
        <ele>50.4</ele>
        <time>2023-01-28T14:45:39Z</time>
      </trkpt>
      <trkpt lat="49.89667" lon="2.25095">
        <ele>50.4</ele>
        <time>2023-01-28T14:45:40Z</time>
      </trkpt>
      <trkpt lat="49.89667" lon="2.25095">
        <ele>50.4</ele>
        <time>2023-01-28T14:45:41Z</time>
      </trkpt>
      <trkpt lat="49.89667" lon="2.25095">
        <ele>50.4</ele>
        <time>2023-01-28T14:45:42Z</time>
      </trkpt>
      <trkpt lat="49.89667" lon="2.25095">
        <ele>50.4</ele>
        <time>2023-01-28T14:45:43Z</time>
      </trkpt>
      <trkpt lat="49.89667" lon="2.25095">
        <ele>50.4</ele>
        <time>2023-01-28T14:45:44Z</time>
      </trkpt>
      <trkpt lat="49.89667" lon="2.25095">
        <ele>50.4</ele>
        <time>2023-01-28T14:45:45Z</time>
      </trkpt>
      <trkpt lat="49.89667" lon="2.25095">
        <ele>50.4</ele>
        <time>2023-01-28T14:45:46Z</time>
      </trkpt>
      <trkpt lat="49.89666" lon="2.25095">
        <ele>50.4</ele>
        <time>2023-01-28T14:45:47Z</time>
      </trkpt>
      <trkpt lat="49.89666" lon="2.25095">
        <ele>50.4</ele>
        <time>2023-01-28T14:45:48Z</time>
      </trkpt>
      <trkpt lat="49.89666" lon="2.25095">
        <ele>50.4</ele>
        <time>2023-01-28T14:45:49Z</time>
      </trkpt>
      <trkpt lat="49.89666" lon="2.25095">
        <ele>50.4</ele>
        <time>2023-01-28T14:45:50Z</time>
      </trkpt>
      <trkpt lat="49.89666" lon="2.25095">
        <ele>50.4</ele>
        <time>2023-01-28T14:45:51Z</time>
      </trkpt>
      <trkpt lat="49.89666" lon="2.25095">
        <ele>50.4</ele>
        <time>2023-01-28T14:45:52Z</time>
      </trkpt>
      <trkpt lat="49.89665" lon="2.25097">
        <ele>50.4</ele>
        <time>2023-01-28T14:45:53Z</time>
      </trkpt>
      <trkpt lat="49.89664" lon="2.25097">
        <ele>50.4</ele>
        <time>2023-01-28T14:45:54Z</time>
      </trkpt>
      <trkpt lat="49.89663" lon="2.25097">
        <ele>50.3</ele>
        <time>2023-01-28T14:45:55Z</time>
      </trkpt>
      <trkpt lat="49.89663" lon="2.25094">
        <ele>50.3</ele>
        <time>2023-01-28T14:45:57Z</time>
      </trkpt>
      <trkpt lat="49.89663" lon="2.25094">
        <ele>50.3</ele>
        <time>2023-01-28T14:45:59Z</time>
      </trkpt>
      <trkpt lat="49.89663" lon="2.25093">
        <ele>50.3</ele>
        <time>2023-01-28T14:46:00Z</time>
      </trkpt>
      <trkpt lat="49.89663" lon="2.25093">
        <ele>50.3</ele>
        <time>2023-01-28T14:46:01Z</time>
      </trkpt>
      <trkpt lat="49.89662" lon="2.25093">
        <ele>50.3</ele>
        <time>2023-01-28T14:46:02Z</time>
      </trkpt>
      <trkpt lat="49.89662" lon="2.25093">
        <ele>50.3</ele>
        <time>2023-01-28T14:46:04Z</time>
      </trkpt>
      <trkpt lat="49.89662" lon="2.25093">
        <ele>50.3</ele>
        <time>2023-01-28T14:46:05Z</time>
      </trkpt>
      <trkpt lat="49.89661" lon="2.25094">
        <ele>50.3</ele>
        <time>2023-01-28T14:46:06Z</time>
      </trkpt>
      <trkpt lat="49.8966" lon="2.25093">
        <ele>50.3</ele>
        <time>2023-01-28T14:46:07Z</time>
      </trkpt>
      <trkpt lat="49.89659" lon="2.25093">
        <ele>50.3</ele>
        <time>2023-01-28T14:46:09Z</time>
      </trkpt>
      <trkpt lat="49.89658" lon="2.25092">
        <ele>50.3</ele>
        <time>2023-01-28T14:46:10Z</time>
      </trkpt>
      <trkpt lat="49.89658" lon="2.2509">
        <ele>50.3</ele>
        <time>2023-01-28T14:46:12Z</time>
      </trkpt>
      <trkpt lat="49.89657" lon="2.25089">
        <ele>50.3</ele>
        <time>2023-01-28T14:46:13Z</time>
      </trkpt>
      <trkpt lat="49.89657" lon="2.25088">
        <ele>50.3</ele>
        <time>2023-01-28T14:46:15Z</time>
      </trkpt>
      <trkpt lat="49.89658" lon="2.25088">
        <ele>50.3</ele>
        <time>2023-01-28T14:46:16Z</time>
      </trkpt>
      <trkpt lat="49.89659" lon="2.25087">
        <ele>50.3</ele>
        <time>2023-01-28T14:46:18Z</time>
      </trkpt>
      <trkpt lat="49.89659" lon="2.25087">
        <ele>50.3</ele>
        <time>2023-01-28T14:46:19Z</time>
      </trkpt>
      <trkpt lat="49.89659" lon="2.25087">
        <ele>50.3</ele>
        <time>2023-01-28T14:46:21Z</time>
      </trkpt>
      <trkpt lat="49.89659" lon="2.25086">
        <ele>50.3</ele>
        <time>2023-01-28T14:46:22Z</time>
      </trkpt>
      <trkpt lat="49.89659" lon="2.25086">
        <ele>50.3</ele>
        <time>2023-01-28T14:46:24Z</time>
      </trkpt>
      <trkpt lat="49.89659" lon="2.25086">
        <ele>50.3</ele>
        <time>2023-01-28T14:46:25Z</time>
      </trkpt>
      <trkpt lat="49.8966" lon="2.25086">
        <ele>50.3</ele>
        <time>2023-01-28T14:46:27Z</time>
      </trkpt>
      <trkpt lat="49.8966" lon="2.25086">
        <ele>50.3</ele>
        <time>2023-01-28T14:46:28Z</time>
      </trkpt>
      <trkpt lat="49.8966" lon="2.25086">
        <ele>50.3</ele>
        <time>2023-01-28T14:46:29Z</time>
      </trkpt>
      <trkpt lat="49.8966" lon="2.25086">
        <ele>50.3</ele>
        <time>2023-01-28T14:46:30Z</time>
      </trkpt>
      <trkpt lat="49.89661" lon="2.25086">
        <ele>50.3</ele>
        <time>2023-01-28T14:46:31Z</time>
      </trkpt>
      <trkpt lat="49.89661" lon="2.25086">
        <ele>50.3</ele>
        <time>2023-01-28T14:46:32Z</time>
      </trkpt>
      <trkpt lat="49.89661" lon="2.25086">
        <ele>50.3</ele>
        <time>2023-01-28T14:46:33Z</time>
      </trkpt>
      <trkpt lat="49.89661" lon="2.25086">
        <ele>50.3</ele>
        <time>2023-01-28T14:46:34Z</time>
      </trkpt>
      <trkpt lat="49.89661" lon="2.25086">
        <ele>50.3</ele>
        <time>2023-01-28T14:46:35Z</time>
      </trkpt>
      <trkpt lat="49.89661" lon="2.25086">
        <ele>50.3</ele>
        <time>2023-01-28T14:46:36Z</time>
      </trkpt>
      <trkpt lat="49.89661" lon="2.25086">
        <ele>50.3</ele>
        <time>2023-01-28T14:46:37Z</time>
      </trkpt>
      <trkpt lat="49.89662" lon="2.25086">
        <ele>50.3</ele>
        <time>2023-01-28T14:46:38Z</time>
      </trkpt>
      <trkpt lat="49.89662" lon="2.25086">
        <ele>50.3</ele>
        <time>2023-01-28T14:46:39Z</time>
      </trkpt>
      <trkpt lat="49.89662" lon="2.25086">
        <ele>50.3</ele>
        <time>2023-01-28T14:46:40Z</time>
      </trkpt>
      <trkpt lat="49.89662" lon="2.25087">
        <ele>50.3</ele>
        <time>2023-01-28T14:46:41Z</time>
      </trkpt>
      <trkpt lat="49.89662" lon="2.25087">
        <ele>50.3</ele>
        <time>2023-01-28T14:46:42Z</time>
      </trkpt>
      <trkpt lat="49.89662" lon="2.25087">
        <ele>50.3</ele>
        <time>2023-01-28T14:46:43Z</time>
      </trkpt>
      <trkpt lat="49.89662" lon="2.25087">
        <ele>50.3</ele>
        <time>2023-01-28T14:46:44Z</time>
      </trkpt>
      <trkpt lat="49.89663" lon="2.25087">
        <ele>50.3</ele>
        <time>2023-01-28T14:46:45Z</time>
      </trkpt>
      <trkpt lat="49.89663" lon="2.25087">
        <ele>50.3</ele>
        <time>2023-01-28T14:46:46Z</time>
      </trkpt>
      <trkpt lat="49.89663" lon="2.25087">
        <ele>50.3</ele>
        <time>2023-01-28T14:46:47Z</time>
      </trkpt>
      <trkpt lat="49.89663" lon="2.25087">
        <ele>50.3</ele>
        <time>2023-01-28T14:46:48Z</time>
      </trkpt>
      <trkpt lat="49.89663" lon="2.25087">
        <ele>50.3</ele>
        <time>2023-01-28T14:46:49Z</time>
      </trkpt>
      <trkpt lat="49.89663" lon="2.25087">
        <ele>50.3</ele>
        <time>2023-01-28T14:46:50Z</time>
      </trkpt>
      <trkpt lat="49.89663" lon="2.25087">
        <ele>50.3</ele>
        <time>2023-01-28T14:46:51Z</time>
      </trkpt>
      <trkpt lat="49.89664" lon="2.25087">
        <ele>50.3</ele>
        <time>2023-01-28T14:46:52Z</time>
      </trkpt>
      <trkpt lat="49.89663" lon="2.25088">
        <ele>50.3</ele>
        <time>2023-01-28T14:46:53Z</time>
      </trkpt>
      <trkpt lat="49.89663" lon="2.25088">
        <ele>50.3</ele>
        <time>2023-01-28T14:46:54Z</time>
      </trkpt>
      <trkpt lat="49.89662" lon="2.25089">
        <ele>50.3</ele>
        <time>2023-01-28T14:46:55Z</time>
      </trkpt>
      <trkpt lat="49.89662" lon="2.25089">
        <ele>50.3</ele>
        <time>2023-01-28T14:46:56Z</time>
      </trkpt>
      <trkpt lat="49.89662" lon="2.25089">
        <ele>50.3</ele>
        <time>2023-01-28T14:46:58Z</time>
      </trkpt>
      <trkpt lat="49.89662" lon="2.25089">
        <ele>50.3</ele>
        <time>2023-01-28T14:46:59Z</time>
      </trkpt>
      <trkpt lat="49.89661" lon="2.25089">
        <ele>50.3</ele>
        <time>2023-01-28T14:47:01Z</time>
      </trkpt>
      <trkpt lat="49.89661" lon="2.25089">
        <ele>50.3</ele>
        <time>2023-01-28T14:47:02Z</time>
      </trkpt>
      <trkpt lat="49.89661" lon="2.25089">
        <ele>50.3</ele>
        <time>2023-01-28T14:47:04Z</time>
      </trkpt>
      <trkpt lat="49.89661" lon="2.25089">
        <ele>50.3</ele>
        <time>2023-01-28T14:47:05Z</time>
      </trkpt>
      <trkpt lat="49.89661" lon="2.25089">
        <ele>50.3</ele>
        <time>2023-01-28T14:47:06Z</time>
      </trkpt>
      <trkpt lat="49.89661" lon="2.25089">
        <ele>50.3</ele>
        <time>2023-01-28T14:47:08Z</time>
      </trkpt>
      <trkpt lat="49.89661" lon="2.25089">
        <ele>50.3</ele>
        <time>2023-01-28T14:47:09Z</time>
      </trkpt>
      <trkpt lat="49.89661" lon="2.25088">
        <ele>50.3</ele>
        <time>2023-01-28T14:47:11Z</time>
      </trkpt>
      <trkpt lat="49.89661" lon="2.25088">
        <ele>50.3</ele>
        <time>2023-01-28T14:47:12Z</time>
      </trkpt>
      <trkpt lat="49.89661" lon="2.25088">
        <ele>50.3</ele>
        <time>2023-01-28T14:47:13Z</time>
      </trkpt>
      <trkpt lat="49.89661" lon="2.25088">
        <ele>50.3</ele>
        <time>2023-01-28T14:47:14Z</time>
      </trkpt>
      <trkpt lat="49.89661" lon="2.25088">
        <ele>50.3</ele>
        <time>2023-01-28T14:47:15Z</time>
      </trkpt>
      <trkpt lat="49.89661" lon="2.25088">
        <ele>50.3</ele>
        <time>2023-01-28T14:47:16Z</time>
      </trkpt>
      <trkpt lat="49.89661" lon="2.25088">
        <ele>50.3</ele>
        <time>2023-01-28T14:47:17Z</time>
      </trkpt>
      <trkpt lat="49.89661" lon="2.25088">
        <ele>50.3</ele>
        <time>2023-01-28T14:47:18Z</time>
      </trkpt>
      <trkpt lat="49.89661" lon="2.25088">
        <ele>50.3</ele>
        <time>2023-01-28T14:47:19Z</time>
      </trkpt>
      <trkpt lat="49.89661" lon="2.25088">
        <ele>50.3</ele>
        <time>2023-01-28T14:47:20Z</time>
      </trkpt>
      <trkpt lat="49.89662" lon="2.25088">
        <ele>50.3</ele>
        <time>2023-01-28T14:47:21Z</time>
      </trkpt>
      <trkpt lat="49.89662" lon="2.25087">
        <ele>50.3</ele>
        <time>2023-01-28T14:47:22Z</time>
      </trkpt>
      <trkpt lat="49.89662" lon="2.25088">
        <ele>50.3</ele>
        <time>2023-01-28T14:47:23Z</time>
      </trkpt>
      <trkpt lat="49.89662" lon="2.25088">
        <ele>50.3</ele>
        <time>2023-01-28T14:47:24Z</time>
      </trkpt>
      <trkpt lat="49.89662" lon="2.25088">
        <ele>50.3</ele>
        <time>2023-01-28T14:47:25Z</time>
      </trkpt>
      <trkpt lat="49.89662" lon="2.25088">
        <ele>50.3</ele>
        <time>2023-01-28T14:47:26Z</time>
      </trkpt>
      <trkpt lat="49.89662" lon="2.25088">
        <ele>50.3</ele>
        <time>2023-01-28T14:47:27Z</time>
      </trkpt>
      <trkpt lat="49.89662" lon="2.25088">
        <ele>50.3</ele>
        <time>2023-01-28T14:47:28Z</time>
      </trkpt>
      <trkpt lat="49.89662" lon="2.25088">
        <ele>50.3</ele>
        <time>2023-01-28T14:47:29Z</time>
      </trkpt>
      <trkpt lat="49.89663" lon="2.25088">
        <ele>50.3</ele>
        <time>2023-01-28T14:47:30Z</time>
      </trkpt>
      <trkpt lat="49.89662" lon="2.25089">
        <ele>50.3</ele>
        <time>2023-01-28T14:47:31Z</time>
      </trkpt>
      <trkpt lat="49.89662" lon="2.2509">
        <ele>50.3</ele>
        <time>2023-01-28T14:47:32Z</time>
      </trkpt>
      <trkpt lat="49.89662" lon="2.2509">
        <ele>50.3</ele>
        <time>2023-01-28T14:47:33Z</time>
      </trkpt>
      <trkpt lat="49.89662" lon="2.25091">
        <ele>50.3</ele>
        <time>2023-01-28T14:47:34Z</time>
      </trkpt>
      <trkpt lat="49.89661" lon="2.25092">
        <ele>50.3</ele>
        <time>2023-01-28T14:47:35Z</time>
      </trkpt>
      <trkpt lat="49.89661" lon="2.25092">
        <ele>50.3</ele>
        <time>2023-01-28T14:47:36Z</time>
      </trkpt>
      <trkpt lat="49.89661" lon="2.25093">
        <ele>50.3</ele>
        <time>2023-01-28T14:47:37Z</time>
      </trkpt>
      <trkpt lat="49.89661" lon="2.25093">
        <ele>50.3</ele>
        <time>2023-01-28T14:47:39Z</time>
      </trkpt>
      <trkpt lat="49.89661" lon="2.25093">
        <ele>50.3</ele>
        <time>2023-01-28T14:47:40Z</time>
      </trkpt>
      <trkpt lat="49.89662" lon="2.25095">
        <ele>50.3</ele>
        <time>2023-01-28T14:47:42Z</time>
      </trkpt>
      <trkpt lat="49.89663" lon="2.25096">
        <ele>50.3</ele>
        <time>2023-01-28T14:47:43Z</time>
      </trkpt>
      <trkpt lat="49.89664" lon="2.25097">
        <ele>50.2</ele>
        <time>2023-01-28T14:47:45Z</time>
      </trkpt>
      <trkpt lat="49.89664" lon="2.25098">
        <ele>50.2</ele>
        <time>2023-01-28T14:47:46Z</time>
      </trkpt>
      <trkpt lat="49.89665" lon="2.25098">
        <ele>50.2</ele>
        <time>2023-01-28T14:47:47Z</time>
      </trkpt>
      <trkpt lat="49.89665" lon="2.25097">
        <ele>50.2</ele>
        <time>2023-01-28T14:47:49Z</time>
      </trkpt>
      <trkpt lat="49.89665" lon="2.25096">
        <ele>50.2</ele>
        <time>2023-01-28T14:47:50Z</time>
      </trkpt>
      <trkpt lat="49.89665" lon="2.25095">
        <ele>50.2</ele>
        <time>2023-01-28T14:47:51Z</time>
      </trkpt>
      <trkpt lat="49.89665" lon="2.25094">
        <ele>50.2</ele>
        <time>2023-01-28T14:47:53Z</time>
      </trkpt>
      <trkpt lat="49.89666" lon="2.25094">
        <ele>50.2</ele>
        <time>2023-01-28T14:47:54Z</time>
      </trkpt>
      <trkpt lat="49.89666" lon="2.25094">
        <ele>50.2</ele>
        <time>2023-01-28T14:47:55Z</time>
      </trkpt>
      <trkpt lat="49.89666" lon="2.25094">
        <ele>50.2</ele>
        <time>2023-01-28T14:47:57Z</time>
      </trkpt>
      <trkpt lat="49.89666" lon="2.25094">
        <ele>50.2</ele>
        <time>2023-01-28T14:47:59Z</time>
      </trkpt>
      <trkpt lat="49.89666" lon="2.25094">
        <ele>50.2</ele>
        <time>2023-01-28T14:48:00Z</time>
      </trkpt>
      <trkpt lat="49.89666" lon="2.25094">
        <ele>50.2</ele>
        <time>2023-01-28T14:48:01Z</time>
      </trkpt>
      <trkpt lat="49.89667" lon="2.25094">
        <ele>50.2</ele>
        <time>2023-01-28T14:48:03Z</time>
      </trkpt>
      <trkpt lat="49.89667" lon="2.25094">
        <ele>50.2</ele>
        <time>2023-01-28T14:48:04Z</time>
      </trkpt>
      <trkpt lat="49.89667" lon="2.25094">
        <ele>50.2</ele>
        <time>2023-01-28T14:48:05Z</time>
      </trkpt>
      <trkpt lat="49.89667" lon="2.25094">
        <ele>50.2</ele>
        <time>2023-01-28T14:48:07Z</time>
      </trkpt>
      <trkpt lat="49.89667" lon="2.25094">
        <ele>50.2</ele>
        <time>2023-01-28T14:48:09Z</time>
      </trkpt>
      <trkpt lat="49.89667" lon="2.25093">
        <ele>50.2</ele>
        <time>2023-01-28T14:48:10Z</time>
      </trkpt>
      <trkpt lat="49.89667" lon="2.25093">
        <ele>50.2</ele>
        <time>2023-01-28T14:48:11Z</time>
      </trkpt>
      <trkpt lat="49.89668" lon="2.25092">
        <ele>50.2</ele>
        <time>2023-01-28T14:48:12Z</time>
      </trkpt>
      <trkpt lat="49.89668" lon="2.25092">
        <ele>50.2</ele>
        <time>2023-01-28T14:48:13Z</time>
      </trkpt>
      <trkpt lat="49.89668" lon="2.25091">
        <ele>50.2</ele>
        <time>2023-01-28T14:48:15Z</time>
      </trkpt>
      <trkpt lat="49.89668" lon="2.25091">
        <ele>50.2</ele>
        <time>2023-01-28T14:48:16Z</time>
      </trkpt>
      <trkpt lat="49.89668" lon="2.25091">
        <ele>50.2</ele>
        <time>2023-01-28T14:48:17Z</time>
      </trkpt>
      <trkpt lat="49.89668" lon="2.25091">
        <ele>50.2</ele>
        <time>2023-01-28T14:48:18Z</time>
      </trkpt>
      <trkpt lat="49.89668" lon="2.25091">
        <ele>50.2</ele>
        <time>2023-01-28T14:48:20Z</time>
      </trkpt>
      <trkpt lat="49.89667" lon="2.25091">
        <ele>50.2</ele>
        <time>2023-01-28T14:48:21Z</time>
      </trkpt>
      <trkpt lat="49.89667" lon="2.2509">
        <ele>50.2</ele>
        <time>2023-01-28T14:48:22Z</time>
      </trkpt>
      <trkpt lat="49.89667" lon="2.2509">
        <ele>50.2</ele>
        <time>2023-01-28T14:48:24Z</time>
      </trkpt>
      <trkpt lat="49.89667" lon="2.2509">
        <ele>50.2</ele>
        <time>2023-01-28T14:48:25Z</time>
      </trkpt>
      <trkpt lat="49.89667" lon="2.2509">
        <ele>50.2</ele>
        <time>2023-01-28T14:48:27Z</time>
      </trkpt>
      <trkpt lat="49.89667" lon="2.2509">
        <ele>50.2</ele>
        <time>2023-01-28T14:48:28Z</time>
      </trkpt>
      <trkpt lat="49.89666" lon="2.2509">
        <ele>50.2</ele>
        <time>2023-01-28T14:48:30Z</time>
      </trkpt>
      <trkpt lat="49.89666" lon="2.2509">
        <ele>50.2</ele>
        <time>2023-01-28T14:48:31Z</time>
      </trkpt>
      <trkpt lat="49.89666" lon="2.25089">
        <ele>50.2</ele>
        <time>2023-01-28T14:48:32Z</time>
      </trkpt>
      <trkpt lat="49.89666" lon="2.25089">
        <ele>50.2</ele>
        <time>2023-01-28T14:48:34Z</time>
      </trkpt>
      <trkpt lat="49.89666" lon="2.25089">
        <ele>50.2</ele>
        <time>2023-01-28T14:48:35Z</time>
      </trkpt>
      <trkpt lat="49.89665" lon="2.25089">
        <ele>50.2</ele>
        <time>2023-01-28T14:48:36Z</time>
      </trkpt>
      <trkpt lat="49.89665" lon="2.25089">
        <ele>50.2</ele>
        <time>2023-01-28T14:48:38Z</time>
      </trkpt>
      <trkpt lat="49.89665" lon="2.25089">
        <ele>50.2</ele>
        <time>2023-01-28T14:48:39Z</time>
      </trkpt>
      <trkpt lat="49.89665" lon="2.25089">
        <ele>50.2</ele>
        <time>2023-01-28T14:48:40Z</time>
      </trkpt>
      <trkpt lat="49.89665" lon="2.25088">
        <ele>50.2</ele>
        <time>2023-01-28T14:48:41Z</time>
      </trkpt>
      <trkpt lat="49.89664" lon="2.25087">
        <ele>50.2</ele>
        <time>2023-01-28T14:48:42Z</time>
      </trkpt>
      <trkpt lat="49.89663" lon="2.25087">
        <ele>50.2</ele>
        <time>2023-01-28T14:48:43Z</time>
      </trkpt>
      <trkpt lat="49.89663" lon="2.25086">
        <ele>50.2</ele>
        <time>2023-01-28T14:48:44Z</time>
      </trkpt>
      <trkpt lat="49.89663" lon="2.25086">
        <ele>50.2</ele>
        <time>2023-01-28T14:48:45Z</time>
      </trkpt>
      <trkpt lat="49.89663" lon="2.25086">
        <ele>50.2</ele>
        <time>2023-01-28T14:48:46Z</time>
      </trkpt>
      <trkpt lat="49.89663" lon="2.25086">
        <ele>50.2</ele>
        <time>2023-01-28T14:48:47Z</time>
      </trkpt>
      <trkpt lat="49.89663" lon="2.25086">
        <ele>50.2</ele>
        <time>2023-01-28T14:48:48Z</time>
      </trkpt>
      <trkpt lat="49.89663" lon="2.25086">
        <ele>50.2</ele>
        <time>2023-01-28T14:48:49Z</time>
      </trkpt>
      <trkpt lat="49.89663" lon="2.25086">
        <ele>50.2</ele>
        <time>2023-01-28T14:48:50Z</time>
      </trkpt>
      <trkpt lat="49.89663" lon="2.25086">
        <ele>50.2</ele>
        <time>2023-01-28T14:48:51Z</time>
      </trkpt>
      <trkpt lat="49.89663" lon="2.25086">
        <ele>50.2</ele>
        <time>2023-01-28T14:48:52Z</time>
      </trkpt>
      <trkpt lat="49.89663" lon="2.25086">
        <ele>50.2</ele>
        <time>2023-01-28T14:48:53Z</time>
      </trkpt>
      <trkpt lat="49.89663" lon="2.25086">
        <ele>50.2</ele>
        <time>2023-01-28T14:48:54Z</time>
      </trkpt>
      <trkpt lat="49.89663" lon="2.25086">
        <ele>50.2</ele>
        <time>2023-01-28T14:48:55Z</time>
      </trkpt>
      <trkpt lat="49.89663" lon="2.25086">
        <ele>50.2</ele>
        <time>2023-01-28T14:48:56Z</time>
      </trkpt>
      <trkpt lat="49.89663" lon="2.25086">
        <ele>50.2</ele>
        <time>2023-01-28T14:48:57Z</time>
      </trkpt>
      <trkpt lat="49.89663" lon="2.25086">
        <ele>50.2</ele>
        <time>2023-01-28T14:48:58Z</time>
      </trkpt>
      <trkpt lat="49.89663" lon="2.25086">
        <ele>50.2</ele>
        <time>2023-01-28T14:48:59Z</time>
      </trkpt>
      <trkpt lat="49.89663" lon="2.25086">
        <ele>50.2</ele>
        <time>2023-01-28T14:49:00Z</time>
      </trkpt>
      <trkpt lat="49.89663" lon="2.25086">
        <ele>50.2</ele>
        <time>2023-01-28T14:49:01Z</time>
      </trkpt>
      <trkpt lat="49.89663" lon="2.25086">
        <ele>50.2</ele>
        <time>2023-01-28T14:49:02Z</time>
      </trkpt>
      <trkpt lat="49.89663" lon="2.25086">
        <ele>50.2</ele>
        <time>2023-01-28T14:49:03Z</time>
      </trkpt>
      <trkpt lat="49.89663" lon="2.25086">
        <ele>50.2</ele>
        <time>2023-01-28T14:49:04Z</time>
      </trkpt>
      <trkpt lat="49.89663" lon="2.25086">
        <ele>50.2</ele>
        <time>2023-01-28T14:49:05Z</time>
      </trkpt>
      <trkpt lat="49.89663" lon="2.25086">
        <ele>50.2</ele>
        <time>2023-01-28T14:49:06Z</time>
      </trkpt>
      <trkpt lat="49.89663" lon="2.25086">
        <ele>50.2</ele>
        <time>2023-01-28T14:49:07Z</time>
      </trkpt>
      <trkpt lat="49.89663" lon="2.25086">
        <ele>50.2</ele>
        <time>2023-01-28T14:49:08Z</time>
      </trkpt>
      <trkpt lat="49.89663" lon="2.25086">
        <ele>50.2</ele>
        <time>2023-01-28T14:49:09Z</time>
      </trkpt>
      <trkpt lat="49.89663" lon="2.25086">
        <ele>50.2</ele>
        <time>2023-01-28T14:49:10Z</time>
      </trkpt>
      <trkpt lat="49.89663" lon="2.25087">
        <ele>50.2</ele>
        <time>2023-01-28T14:49:11Z</time>
      </trkpt>
      <trkpt lat="49.89662" lon="2.25088">
        <ele>50.2</ele>
        <time>2023-01-28T14:49:12Z</time>
      </trkpt>
      <trkpt lat="49.89662" lon="2.25089">
        <ele>50.2</ele>
        <time>2023-01-28T14:49:13Z</time>
      </trkpt>
      <trkpt lat="49.89662" lon="2.25091">
        <ele>50.2</ele>
        <time>2023-01-28T14:49:15Z</time>
      </trkpt>
      <trkpt lat="49.89661" lon="2.25091">
        <ele>50.2</ele>
        <time>2023-01-28T14:49:16Z</time>
      </trkpt>
      <trkpt lat="49.89661" lon="2.25092">
        <ele>50.2</ele>
        <time>2023-01-28T14:49:17Z</time>
      </trkpt>
      <trkpt lat="49.8966" lon="2.25092">
        <ele>50.2</ele>
        <time>2023-01-28T14:49:18Z</time>
      </trkpt>
      <trkpt lat="49.8966" lon="2.25093">
        <ele>50.2</ele>
        <time>2023-01-28T14:49:20Z</time>
      </trkpt>
      <trkpt lat="49.89659" lon="2.25093">
        <ele>50.1</ele>
        <time>2023-01-28T14:49:22Z</time>
      </trkpt>
      <trkpt lat="49.89658" lon="2.25093">
        <ele>50.1</ele>
        <time>2023-01-28T14:49:23Z</time>
      </trkpt>
      <trkpt lat="49.89658" lon="2.25093">
        <ele>50.1</ele>
        <time>2023-01-28T14:49:24Z</time>
      </trkpt>
      <trkpt lat="49.89657" lon="2.25092">
        <ele>50.1</ele>
        <time>2023-01-28T14:49:26Z</time>
      </trkpt>
      <trkpt lat="49.89657" lon="2.25092">
        <ele>50.1</ele>
        <time>2023-01-28T14:49:27Z</time>
      </trkpt>
      <trkpt lat="49.89657" lon="2.25092">
        <ele>50.1</ele>
        <time>2023-01-28T14:49:28Z</time>
      </trkpt>
      <trkpt lat="49.89657" lon="2.25092">
        <ele>50.1</ele>
        <time>2023-01-28T14:49:30Z</time>
      </trkpt>
      <trkpt lat="49.89657" lon="2.25092">
        <ele>50.1</ele>
        <time>2023-01-28T14:49:31Z</time>
      </trkpt>
      <trkpt lat="49.89657" lon="2.25092">
        <ele>50.1</ele>
        <time>2023-01-28T14:49:32Z</time>
      </trkpt>
      <trkpt lat="49.89657" lon="2.25092">
        <ele>50.1</ele>
        <time>2023-01-28T14:49:34Z</time>
      </trkpt>
      <trkpt lat="49.89657" lon="2.25092">
        <ele>50.1</ele>
        <time>2023-01-28T14:49:35Z</time>
      </trkpt>
      <trkpt lat="49.89657" lon="2.25092">
        <ele>50.1</ele>
        <time>2023-01-28T14:49:37Z</time>
      </trkpt>
      <trkpt lat="49.89657" lon="2.25092">
        <ele>50.1</ele>
        <time>2023-01-28T14:49:38Z</time>
      </trkpt>
      <trkpt lat="49.89657" lon="2.25092">
        <ele>50.1</ele>
        <time>2023-01-28T14:49:40Z</time>
      </trkpt>
      <trkpt lat="49.89657" lon="2.25091">
        <ele>50.1</ele>
        <time>2023-01-28T14:49:41Z</time>
      </trkpt>
      <trkpt lat="49.89658" lon="2.25091">
        <ele>50.1</ele>
        <time>2023-01-28T14:49:42Z</time>
      </trkpt>
      <trkpt lat="49.89658" lon="2.25091">
        <ele>50.1</ele>
        <time>2023-01-28T14:49:43Z</time>
      </trkpt>
      <trkpt lat="49.89658" lon="2.25091">
        <ele>50.1</ele>
        <time>2023-01-28T14:49:44Z</time>
      </trkpt>
      <trkpt lat="49.89658" lon="2.25091">
        <ele>50.1</ele>
        <time>2023-01-28T14:49:45Z</time>
      </trkpt>
      <trkpt lat="49.89659" lon="2.25092">
        <ele>50.1</ele>
        <time>2023-01-28T14:49:46Z</time>
      </trkpt>
      <trkpt lat="49.89659" lon="2.25093">
        <ele>50.1</ele>
        <time>2023-01-28T14:49:47Z</time>
      </trkpt>
      <trkpt lat="49.89659" lon="2.25094">
        <ele>50.1</ele>
        <time>2023-01-28T14:49:48Z</time>
      </trkpt>
      <trkpt lat="49.89659" lon="2.25095">
        <ele>50.1</ele>
        <time>2023-01-28T14:49:49Z</time>
      </trkpt>
      <trkpt lat="49.89659" lon="2.25095">
        <ele>50.1</ele>
        <time>2023-01-28T14:49:50Z</time>
      </trkpt>
      <trkpt lat="49.89659" lon="2.25095">
        <ele>50.1</ele>
        <time>2023-01-28T14:49:51Z</time>
      </trkpt>
      <trkpt lat="49.89659" lon="2.25095">
        <ele>50.1</ele>
        <time>2023-01-28T14:49:52Z</time>
      </trkpt>
      <trkpt lat="49.89659" lon="2.25095">
        <ele>50.1</ele>
        <time>2023-01-28T14:49:53Z</time>
      </trkpt>
      <trkpt lat="49.89659" lon="2.25095">
        <ele>50.1</ele>
        <time>2023-01-28T14:49:54Z</time>
      </trkpt>
      <trkpt lat="49.89659" lon="2.25096">
        <ele>50.1</ele>
        <time>2023-01-28T14:49:55Z</time>
      </trkpt>
      <trkpt lat="49.89658" lon="2.25096">
        <ele>50.1</ele>
        <time>2023-01-28T14:49:56Z</time>
      </trkpt>
      <trkpt lat="49.89658" lon="2.25097">
        <ele>50.1</ele>
        <time>2023-01-28T14:49:57Z</time>
      </trkpt>
      <trkpt lat="49.89658" lon="2.25098">
        <ele>50.1</ele>
        <time>2023-01-28T14:49:59Z</time>
      </trkpt>
      <trkpt lat="49.89658" lon="2.251">
        <ele>50.1</ele>
        <time>2023-01-28T14:50:00Z</time>
      </trkpt>
      <trkpt lat="49.89658" lon="2.25103">
        <ele>50.1</ele>
        <time>2023-01-28T14:50:01Z</time>
      </trkpt>
      <trkpt lat="49.89658" lon="2.25104">
        <ele>50.1</ele>
        <time>2023-01-28T14:50:03Z</time>
      </trkpt>
      <trkpt lat="49.89658" lon="2.25106">
        <ele>50.1</ele>
        <time>2023-01-28T14:50:04Z</time>
      </trkpt>
      <trkpt lat="49.89658" lon="2.2511">
        <ele>50</ele>
        <time>2023-01-28T14:50:05Z</time>
      </trkpt>
      <trkpt lat="49.89657" lon="2.25111">
        <ele>50</ele>
        <time>2023-01-28T14:50:06Z</time>
      </trkpt>
      <trkpt lat="49.89657" lon="2.25115">
        <ele>50</ele>
        <time>2023-01-28T14:50:07Z</time>
      </trkpt>
      <trkpt lat="49.89656" lon="2.25117">
        <ele>50</ele>
        <time>2023-01-28T14:50:09Z</time>
      </trkpt>
      <trkpt lat="49.89656" lon="2.25118">
        <ele>50</ele>
        <time>2023-01-28T14:50:10Z</time>
      </trkpt>
      <trkpt lat="49.89656" lon="2.2512">
        <ele>50</ele>
        <time>2023-01-28T14:50:11Z</time>
      </trkpt>
      <trkpt lat="49.89656" lon="2.25121">
        <ele>50</ele>
        <time>2023-01-28T14:50:12Z</time>
      </trkpt>
      <trkpt lat="49.89655" lon="2.25124">
        <ele>50</ele>
        <time>2023-01-28T14:50:13Z</time>
      </trkpt>
      <trkpt lat="49.89654" lon="2.25126">
        <ele>50</ele>
        <time>2023-01-28T14:50:14Z</time>
      </trkpt>
      <trkpt lat="49.89654" lon="2.25127">
        <ele>50</ele>
        <time>2023-01-28T14:50:15Z</time>
      </trkpt>
      <trkpt lat="49.89654" lon="2.25129">
        <ele>50</ele>
        <time>2023-01-28T14:50:17Z</time>
      </trkpt>
      <trkpt lat="49.89653" lon="2.2513">
        <ele>50</ele>
        <time>2023-01-28T14:50:18Z</time>
      </trkpt>
      <trkpt lat="49.89652" lon="2.25132">
        <ele>49.9</ele>
        <time>2023-01-28T14:50:19Z</time>
      </trkpt>
      <trkpt lat="49.89651" lon="2.25132">
        <ele>49.9</ele>
        <time>2023-01-28T14:50:20Z</time>
      </trkpt>
      <trkpt lat="49.8965" lon="2.25131">
        <ele>49.9</ele>
        <time>2023-01-28T14:50:21Z</time>
      </trkpt>
      <trkpt lat="49.89649" lon="2.25131">
        <ele>49.9</ele>
        <time>2023-01-28T14:50:23Z</time>
      </trkpt>
      <trkpt lat="49.89648" lon="2.2513">
        <ele>49.9</ele>
        <time>2023-01-28T14:50:24Z</time>
      </trkpt>
      <trkpt lat="49.89647" lon="2.25129">
        <ele>49.9</ele>
        <time>2023-01-28T14:50:25Z</time>
      </trkpt>
      <trkpt lat="49.89646" lon="2.25129">
        <ele>49.9</ele>
        <time>2023-01-28T14:50:26Z</time>
      </trkpt>
      <trkpt lat="49.89646" lon="2.25127">
        <ele>49.9</ele>
        <time>2023-01-28T14:50:27Z</time>
      </trkpt>
      <trkpt lat="49.89647" lon="2.25124">
        <ele>49.9</ele>
        <time>2023-01-28T14:50:28Z</time>
      </trkpt>
      <trkpt lat="49.89647" lon="2.25122">
        <ele>49.9</ele>
        <time>2023-01-28T14:50:30Z</time>
      </trkpt>
      <trkpt lat="49.89648" lon="2.25119">
        <ele>49.9</ele>
        <time>2023-01-28T14:50:31Z</time>
      </trkpt>
      <trkpt lat="49.89649" lon="2.25117">
        <ele>49.8</ele>
        <time>2023-01-28T14:50:32Z</time>
      </trkpt>
      <trkpt lat="49.89649" lon="2.25114">
        <ele>49.8</ele>
        <time>2023-01-28T14:50:34Z</time>
      </trkpt>
      <trkpt lat="49.89651" lon="2.25112">
        <ele>49.8</ele>
        <time>2023-01-28T14:50:35Z</time>
      </trkpt>
      <trkpt lat="49.89651" lon="2.2511">
        <ele>49.8</ele>
        <time>2023-01-28T14:50:36Z</time>
      </trkpt>
      <trkpt lat="49.89651" lon="2.25109">
        <ele>49.8</ele>
        <time>2023-01-28T14:50:37Z</time>
      </trkpt>
      <trkpt lat="49.89652" lon="2.25105">
        <ele>49.8</ele>
        <time>2023-01-28T14:50:39Z</time>
      </trkpt>
      <trkpt lat="49.89652" lon="2.25104">
        <ele>49.8</ele>
        <time>2023-01-28T14:50:41Z</time>
      </trkpt>
      <trkpt lat="49.89653" lon="2.25102">
        <ele>49.8</ele>
        <time>2023-01-28T14:50:42Z</time>
      </trkpt>
      <trkpt lat="49.89653" lon="2.25101">
        <ele>49.8</ele>
        <time>2023-01-28T14:50:43Z</time>
      </trkpt>
      <trkpt lat="49.89653" lon="2.251">
        <ele>49.8</ele>
        <time>2023-01-28T14:50:44Z</time>
      </trkpt>
      <trkpt lat="49.89653" lon="2.25099">
        <ele>49.8</ele>
        <time>2023-01-28T14:50:45Z</time>
      </trkpt>
      <trkpt lat="49.89654" lon="2.25097">
        <ele>49.7</ele>
        <time>2023-01-28T14:50:46Z</time>
      </trkpt>
      <trkpt lat="49.89653" lon="2.25096">
        <ele>49.7</ele>
        <time>2023-01-28T14:50:48Z</time>
      </trkpt>
      <trkpt lat="49.89653" lon="2.25095">
        <ele>49.7</ele>
        <time>2023-01-28T14:50:49Z</time>
      </trkpt>
      <trkpt lat="49.89652" lon="2.25093">
        <ele>49.7</ele>
        <time>2023-01-28T14:50:50Z</time>
      </trkpt>
      <trkpt lat="49.89652" lon="2.25091">
        <ele>49.7</ele>
        <time>2023-01-28T14:50:51Z</time>
      </trkpt>
      <trkpt lat="49.89652" lon="2.25089">
        <ele>49.7</ele>
        <time>2023-01-28T14:50:52Z</time>
      </trkpt>
      <trkpt lat="49.89651" lon="2.25087">
        <ele>49.7</ele>
        <time>2023-01-28T14:50:54Z</time>
      </trkpt>
      <trkpt lat="49.89651" lon="2.25086">
        <ele>49.7</ele>
        <time>2023-01-28T14:50:55Z</time>
      </trkpt>
      <trkpt lat="49.89651" lon="2.25085">
        <ele>49.7</ele>
        <time>2023-01-28T14:50:56Z</time>
      </trkpt>
      <trkpt lat="49.89651" lon="2.25083">
        <ele>49.7</ele>
        <time>2023-01-28T14:50:57Z</time>
      </trkpt>
      <trkpt lat="49.89651" lon="2.25081">
        <ele>49.7</ele>
        <time>2023-01-28T14:50:58Z</time>
      </trkpt>
      <trkpt lat="49.89652" lon="2.25078">
        <ele>49.7</ele>
        <time>2023-01-28T14:50:59Z</time>
      </trkpt>
      <trkpt lat="49.89652" lon="2.25077">
        <ele>49.6</ele>
        <time>2023-01-28T14:51:00Z</time>
      </trkpt>
      <trkpt lat="49.89652" lon="2.25075">
        <ele>49.6</ele>
        <time>2023-01-28T14:51:02Z</time>
      </trkpt>
      <trkpt lat="49.89652" lon="2.25073">
        <ele>49.6</ele>
        <time>2023-01-28T14:51:03Z</time>
      </trkpt>
      <trkpt lat="49.89653" lon="2.25072">
        <ele>49.6</ele>
        <time>2023-01-28T14:51:04Z</time>
      </trkpt>
      <trkpt lat="49.89653" lon="2.2507">
        <ele>49.6</ele>
        <time>2023-01-28T14:51:05Z</time>
      </trkpt>
      <trkpt lat="49.89653" lon="2.25069">
        <ele>49.6</ele>
        <time>2023-01-28T14:51:07Z</time>
      </trkpt>
      <trkpt lat="49.89653" lon="2.25067">
        <ele>49.6</ele>
        <time>2023-01-28T14:51:08Z</time>
      </trkpt>
      <trkpt lat="49.89654" lon="2.25065">
        <ele>49.6</ele>
        <time>2023-01-28T14:51:09Z</time>
      </trkpt>
    </trkseg>
  </trk>
</gpx>